<?xml version="1.0" encoding="UTF-8" standalone="no" ?>
<gpx xmlns="http://www.topografix.com/GPX/1/1" xmlns:xsi="http://www.w3.org/2001/XMLSchema-instance" xsi:schemaLocation="http://www.topografix.com/GPX/1/1 http://www.topografix.com/GPX/1/1/gpx.xsd" version="1.1" creator="VisuGPX - https://www.visugpx.com">
  <metadata>
    <name>Desertus Bikus 2023</name>
  </metadata>
  <trk>
    <name><![CDATA[Desertus Bikus 2023]]></name>
    <trkseg>
      <trkpt lat="43.49569" lon="-1.49675">
        <ele>3.783203</ele>
        <time>2022-08-29T13:46:44.164Z</time>
      </trkpt>
      <trkpt lat="43.49626" lon="-1.49679">
        <ele>3.783203</ele>
        <time>2022-08-29T13:46:56.879Z</time>
      </trkpt>
      <trkpt lat="43.49633" lon="-1.49668">
        <ele>3.783203</ele>
        <time>2022-08-29T13:46:59.284Z</time>
      </trkpt>
      <trkpt lat="43.49651" lon="-1.49478">
        <ele>3.551292</ele>
        <time>2022-08-29T13:47:29.249Z</time>
      </trkpt>
      <trkpt lat="43.49659" lon="-1.49456">
        <ele>3.515106</ele>
        <time>2022-08-29T13:47:33.111Z</time>
      </trkpt>
      <trkpt lat="43.49758" lon="-1.49431">
        <ele>3.667137</ele>
        <time>2022-08-29T13:47:55.231Z</time>
      </trkpt>
      <trkpt lat="43.49781" lon="-1.49415">
        <ele>3.778858</ele>
        <time>2022-08-29T13:48:01.527Z</time>
      </trkpt>
      <trkpt lat="43.49782" lon="-1.49396">
        <ele>3.839758</ele>
        <time>2022-08-29T13:48:04.678Z</time>
      </trkpt>
      <trkpt lat="43.49796" lon="-1.49371">
        <ele>3.935328</ele>
        <time>2022-08-29T13:48:10.011Z</time>
      </trkpt>
      <trkpt lat="43.49815" lon="-1.49358">
        <ele>4.031449</ele>
        <time>2022-08-29T13:48:15.183Z</time>
      </trkpt>
      <trkpt lat="43.4982" lon="-1.49345">
        <ele>4.07694</ele>
        <time>2022-08-29T13:48:17.833Z</time>
      </trkpt>
      <trkpt lat="43.49816" lon="-1.49342">
        <ele>4.097826</ele>
        <time>2022-08-29T13:48:19.614Z</time>
      </trkpt>
      <trkpt lat="43.49822" lon="-1.49241">
        <ele>4.778424</ele>
        <time>2022-08-29T13:48:42.713Z</time>
      </trkpt>
      <trkpt lat="43.49818" lon="-1.49159">
        <ele>5.494299</ele>
        <time>2022-08-29T13:49:01.682Z</time>
      </trkpt>
      <trkpt lat="43.49803" lon="-1.49087">
        <ele>6.139848</ele>
        <time>2022-08-29T13:49:18.871Z</time>
      </trkpt>
      <trkpt lat="43.49815" lon="-1.49078">
        <ele>6.307628</ele>
        <time>2022-08-29T13:49:22.315Z</time>
      </trkpt>
      <trkpt lat="43.49806" lon="-1.49067">
        <ele>6.385676</ele>
        <time>2022-08-29T13:49:25.733Z</time>
      </trkpt>
      <trkpt lat="43.49802" lon="-1.49052">
        <ele>6.431325</ele>
        <time>2022-08-29T13:49:29.014Z</time>
      </trkpt>
      <trkpt lat="43.49787" lon="-1.48995">
        <ele>6.607</ele>
        <time>2022-08-29T13:49:40.233Z</time>
      </trkpt>
      <trkpt lat="43.49751" lon="-1.48903">
        <ele>6.910987</ele>
        <time>2022-08-29T13:49:59.417Z</time>
      </trkpt>
      <trkpt lat="43.49743" lon="-1.48886">
        <ele>6.96756</ele>
        <time>2022-08-29T13:50:02.601Z</time>
      </trkpt>
      <trkpt lat="43.49681" lon="-1.48729">
        <ele>6.370396</ele>
        <time>2022-08-29T13:50:29.050Z</time>
      </trkpt>
      <trkpt lat="43.49607" lon="-1.48542">
        <ele>5.623229</ele>
        <time>2022-08-29T13:51:00.586Z</time>
      </trkpt>
      <trkpt lat="43.49602" lon="-1.48525">
        <ele>5.58426</ele>
        <time>2022-08-29T13:51:03.264Z</time>
      </trkpt>
      <trkpt lat="43.49576" lon="-1.4845">
        <ele>5.40038</ele>
        <time>2022-08-29T13:51:16.453Z</time>
      </trkpt>
      <trkpt lat="43.49558" lon="-1.48379">
        <ele>5.541535</ele>
        <time>2022-08-29T13:51:29.762Z</time>
      </trkpt>
      <trkpt lat="43.49522" lon="-1.48241">
        <ele>6.392691</ele>
        <time>2022-08-29T13:51:58.377Z</time>
      </trkpt>
      <trkpt lat="43.49436" lon="-1.47931">
        <ele>8.752144</ele>
        <time>2022-08-29T13:53:03.971Z</time>
      </trkpt>
      <trkpt lat="43.49411" lon="-1.47955">
        <ele>9.139025</ele>
        <time>2022-08-29T13:53:16.871Z</time>
      </trkpt>
      <trkpt lat="43.49403" lon="-1.47962">
        <ele>9.265207</ele>
        <time>2022-08-29T13:53:21.065Z</time>
      </trkpt>
      <trkpt lat="43.49391" lon="-1.47972">
        <ele>9.437765</ele>
        <time>2022-08-29T13:53:26.940Z</time>
      </trkpt>
      <trkpt lat="43.49379" lon="-1.47983">
        <ele>9.616558</ele>
        <time>2022-08-29T13:53:33.057Z</time>
      </trkpt>
      <trkpt lat="43.49369" lon="-1.47991">
        <ele>9.763591</ele>
        <time>2022-08-29T13:53:38.144Z</time>
      </trkpt>
      <trkpt lat="43.49355" lon="-1.48003">
        <ele>9.981563</ele>
        <time>2022-08-29T13:53:45.785Z</time>
      </trkpt>
      <trkpt lat="43.49336" lon="-1.48017">
        <ele>10.249249</ele>
        <time>2022-08-29T13:53:55.369Z</time>
      </trkpt>
      <trkpt lat="43.4933" lon="-1.48022">
        <ele>10.3357</ele>
        <time>2022-08-29T13:53:58.440Z</time>
      </trkpt>
      <trkpt lat="43.49324" lon="-1.48029">
        <ele>10.436589</ele>
        <time>2022-08-29T13:54:01.996Z</time>
      </trkpt>
      <trkpt lat="43.49315" lon="-1.48037">
        <ele>10.57368</ele>
        <time>2022-08-29T13:54:06.797Z</time>
      </trkpt>
      <trkpt lat="43.49309" lon="-1.48042">
        <ele>10.659132</ele>
        <time>2022-08-29T13:54:09.897Z</time>
      </trkpt>
      <trkpt lat="43.49299" lon="-1.48052">
        <ele>10.818633</ele>
        <time>2022-08-29T13:54:15.542Z</time>
      </trkpt>
      <trkpt lat="43.49287" lon="-1.48061">
        <ele>10.976662</ele>
        <time>2022-08-29T13:54:21.519Z</time>
      </trkpt>
      <trkpt lat="43.49277" lon="-1.48071">
        <ele>11.119396</ele>
        <time>2022-08-29T13:54:26.892Z</time>
      </trkpt>
      <trkpt lat="43.49264" lon="-1.4808">
        <ele>11.279432</ele>
        <time>2022-08-29T13:54:32.706Z</time>
      </trkpt>
      <trkpt lat="43.49243" lon="-1.48096">
        <ele>11.564632</ele>
        <time>2022-08-29T13:54:43.062Z</time>
      </trkpt>
      <trkpt lat="43.49232" lon="-1.48104">
        <ele>11.701287</ele>
        <time>2022-08-29T13:54:47.914Z</time>
      </trkpt>
      <trkpt lat="43.49211" lon="-1.48121">
        <ele>11.987298</ele>
        <time>2022-08-29T13:54:58.343Z</time>
      </trkpt>
      <trkpt lat="43.49195" lon="-1.48133">
        <ele>12.194499</ele>
        <time>2022-08-29T13:55:05.956Z</time>
      </trkpt>
      <trkpt lat="43.49176" lon="-1.48147">
        <ele>12.437374</ele>
        <time>2022-08-29T13:55:15.070Z</time>
      </trkpt>
      <trkpt lat="43.49171" lon="-1.48151">
        <ele>12.508728</ele>
        <time>2022-08-29T13:55:17.744Z</time>
      </trkpt>
      <trkpt lat="43.49164" lon="-1.48156">
        <ele>12.600238</ele>
        <time>2022-08-29T13:55:21.157Z</time>
      </trkpt>
      <trkpt lat="43.49158" lon="-1.4816">
        <ele>12.678708</ele>
        <time>2022-08-29T13:55:24.096Z</time>
      </trkpt>
      <trkpt lat="43.49137" lon="-1.48174">
        <ele>12.939296</ele>
        <time>2022-08-29T13:55:33.928Z</time>
      </trkpt>
      <trkpt lat="43.49136" lon="-1.48175">
        <ele>12.956569</ele>
        <time>2022-08-29T13:55:34.655Z</time>
      </trkpt>
      <trkpt lat="43.49118" lon="-1.48181">
        <ele>13.147828</ele>
        <time>2022-08-29T13:55:42.430Z</time>
      </trkpt>
      <trkpt lat="43.49099" lon="-1.48189">
        <ele>13.35501</ele>
        <time>2022-08-29T13:55:50.790Z</time>
      </trkpt>
      <trkpt lat="43.4908" lon="-1.48197">
        <ele>13.557765</ele>
        <time>2022-08-29T13:55:59.083Z</time>
      </trkpt>
      <trkpt lat="43.49071" lon="-1.48201">
        <ele>13.662241</ele>
        <time>2022-08-29T13:56:03.292Z</time>
      </trkpt>
      <trkpt lat="43.4906" lon="-1.48205">
        <ele>13.773581</ele>
        <time>2022-08-29T13:56:07.729Z</time>
      </trkpt>
      <trkpt lat="43.4905" lon="-1.4821">
        <ele>13.884698</ele>
        <time>2022-08-29T13:56:12.246Z</time>
      </trkpt>
      <trkpt lat="43.4904" lon="-1.48214">
        <ele>13.993601</ele>
        <time>2022-08-29T13:56:16.731Z</time>
      </trkpt>
      <trkpt lat="43.49026" lon="-1.4822">
        <ele>14.146109</ele>
        <time>2022-08-29T13:56:22.828Z</time>
      </trkpt>
      <trkpt lat="43.49013" lon="-1.48228">
        <ele>14.29442</ele>
        <time>2022-08-29T13:56:29.035Z</time>
      </trkpt>
      <trkpt lat="43.49005" lon="-1.48229">
        <ele>14.383895</ele>
        <time>2022-08-29T13:56:32.700Z</time>
      </trkpt>
      <trkpt lat="43.48993" lon="-1.48234">
        <ele>14.511045</ele>
        <time>2022-08-29T13:56:37.807Z</time>
      </trkpt>
      <trkpt lat="43.48983" lon="-1.48238">
        <ele>14.619948</ele>
        <time>2022-08-29T13:56:42.325Z</time>
      </trkpt>
      <trkpt lat="43.48971" lon="-1.48243">
        <ele>14.746337</ele>
        <time>2022-08-29T13:56:47.604Z</time>
      </trkpt>
      <trkpt lat="43.48958" lon="-1.48249">
        <ele>14.8809</ele>
        <time>2022-08-29T13:56:53.443Z</time>
      </trkpt>
      <trkpt lat="43.48951" lon="-1.48251">
        <ele>14.945652</ele>
        <time>2022-08-29T13:56:56.466Z</time>
      </trkpt>
      <trkpt lat="43.48911" lon="-1.48272">
        <ele>15.340876</ele>
        <time>2022-08-29T13:57:14.226Z</time>
      </trkpt>
      <trkpt lat="43.48869" lon="-1.48283">
        <ele>15.737261</ele>
        <time>2022-08-29T13:57:25.164Z</time>
      </trkpt>
      <trkpt lat="43.48791" lon="-1.48317">
        <ele>16.523904</ele>
        <time>2022-08-29T13:57:47.093Z</time>
      </trkpt>
      <trkpt lat="43.48783" lon="-1.48305">
        <ele>16.709506</ele>
        <time>2022-08-29T13:57:50.494Z</time>
      </trkpt>
      <trkpt lat="43.48776" lon="-1.48293">
        <ele>16.87217</ele>
        <time>2022-08-29T13:57:53.455Z</time>
      </trkpt>
      <trkpt lat="43.48769" lon="-1.48291">
        <ele>16.990341</ele>
        <time>2022-08-29T13:57:56.175Z</time>
      </trkpt>
      <trkpt lat="43.48762" lon="-1.48289">
        <ele>17.095357</ele>
        <time>2022-08-29T13:57:58.550Z</time>
      </trkpt>
      <trkpt lat="43.48763" lon="-1.48282">
        <ele>17.169576</ele>
        <time>2022-08-29T13:58:00.221Z</time>
      </trkpt>
      <trkpt lat="43.48728" lon="-1.48297">
        <ele>17.729185</ele>
        <time>2022-08-29T13:58:10.808Z</time>
      </trkpt>
      <trkpt lat="43.48718" lon="-1.48297">
        <ele>17.879241</ele>
        <time>2022-08-29T13:58:13.729Z</time>
      </trkpt>
      <trkpt lat="43.48696" lon="-1.48297">
        <ele>18.231954</ele>
        <time>2022-08-29T13:58:20.864Z</time>
      </trkpt>
      <trkpt lat="43.48689" lon="-1.48303">
        <ele>18.356045</ele>
        <time>2022-08-29T13:58:23.473Z</time>
      </trkpt>
      <trkpt lat="43.48683" lon="-1.48297">
        <ele>18.456217</ele>
        <time>2022-08-29T13:58:25.394Z</time>
      </trkpt>
      <trkpt lat="43.48671" lon="-1.4829">
        <ele>18.657353</ele>
        <time>2022-08-29T13:58:29.586Z</time>
      </trkpt>
      <trkpt lat="43.48584" lon="-1.48284">
        <ele>20.171929</ele>
        <time>2022-08-29T13:58:57.229Z</time>
      </trkpt>
      <trkpt lat="43.48552" lon="-1.48281">
        <ele>20.777597</ele>
        <time>2022-08-29T13:59:07.889Z</time>
      </trkpt>
      <trkpt lat="43.48529" lon="-1.4828">
        <ele>21.207238</ele>
        <time>2022-08-29T13:59:15.392Z</time>
      </trkpt>
      <trkpt lat="43.4851" lon="-1.48278">
        <ele>21.561092</ele>
        <time>2022-08-29T13:59:21.629Z</time>
      </trkpt>
      <trkpt lat="43.48461" lon="-1.48269">
        <ele>22.485104</ele>
        <time>2022-08-29T13:59:37.035Z</time>
      </trkpt>
      <trkpt lat="43.48454" lon="-1.48267">
        <ele>22.618698</ele>
        <time>2022-08-29T13:59:39.233Z</time>
      </trkpt>
      <trkpt lat="43.48377" lon="-1.48253">
        <ele>24.047932</ele>
        <time>2022-08-29T14:00:01.642Z</time>
      </trkpt>
      <trkpt lat="43.48361" lon="-1.48249">
        <ele>24.348004</ele>
        <time>2022-08-29T14:00:06.267Z</time>
      </trkpt>
      <trkpt lat="43.4832" lon="-1.48241">
        <ele>25.107087</ele>
        <time>2022-08-29T14:00:18.917Z</time>
      </trkpt>
      <trkpt lat="43.48265" lon="-1.48249">
        <ele>26.294389</ele>
        <time>2022-08-29T14:00:37.835Z</time>
      </trkpt>
      <trkpt lat="43.48241" lon="-1.48247">
        <ele>27.102994</ele>
        <time>2022-08-29T14:00:47.116Z</time>
      </trkpt>
      <trkpt lat="43.48236" lon="-1.48257">
        <ele>27.392909</ele>
        <time>2022-08-29T14:00:50.593Z</time>
      </trkpt>
      <trkpt lat="43.48228" lon="-1.48255">
        <ele>27.663756</ele>
        <time>2022-08-29T14:00:53.846Z</time>
      </trkpt>
      <trkpt lat="43.48199" lon="-1.48265">
        <ele>28.622606</ele>
        <time>2022-08-29T14:01:05.723Z</time>
      </trkpt>
      <trkpt lat="43.4817" lon="-1.48265">
        <ele>29.563337</ele>
        <time>2022-08-29T14:01:17.213Z</time>
      </trkpt>
      <trkpt lat="43.48142" lon="-1.48266">
        <ele>30.478138</ele>
        <time>2022-08-29T14:01:28.494Z</time>
      </trkpt>
      <trkpt lat="43.48134" lon="-1.48267">
        <ele>30.753159</ele>
        <time>2022-08-29T14:01:31.736Z</time>
      </trkpt>
      <trkpt lat="43.4813" lon="-1.48273">
        <ele>30.941091</ele>
        <time>2022-08-29T14:01:34.065Z</time>
      </trkpt>
      <trkpt lat="43.48122" lon="-1.48275">
        <ele>31.190605</ele>
        <time>2022-08-29T14:01:37.019Z</time>
      </trkpt>
      <trkpt lat="43.4808" lon="-1.48305">
        <ele>32.723149</ele>
        <time>2022-08-29T14:01:55.958Z</time>
      </trkpt>
      <trkpt lat="43.48066" lon="-1.48319">
        <ele>33.281511</ele>
        <time>2022-08-29T14:02:02.820Z</time>
      </trkpt>
      <trkpt lat="43.47996" lon="-1.48386">
        <ele>35.970834</ele>
        <time>2022-08-29T14:02:36.302Z</time>
      </trkpt>
      <trkpt lat="43.47952" lon="-1.48414">
        <ele>37.505438</ele>
        <time>2022-08-29T14:02:54.055Z</time>
      </trkpt>
      <trkpt lat="43.47935" lon="-1.48422">
        <ele>37.837326</ele>
        <time>2022-08-29T14:03:00.210Z</time>
      </trkpt>
      <trkpt lat="43.47926" lon="-1.48427">
        <ele>38.005785</ele>
        <time>2022-08-29T14:03:03.142Z</time>
      </trkpt>
      <trkpt lat="43.4791" lon="-1.4843">
        <ele>38.275787</ele>
        <time>2022-08-29T14:03:08.047Z</time>
      </trkpt>
      <trkpt lat="43.47868" lon="-1.48431">
        <ele>39.02199</ele>
        <time>2022-08-29T14:03:21.394Z</time>
      </trkpt>
      <trkpt lat="43.47835" lon="-1.48426">
        <ele>39.605732</ele>
        <time>2022-08-29T14:03:31.573Z</time>
      </trkpt>
      <trkpt lat="43.47747" lon="-1.48407">
        <ele>40.879629</ele>
        <time>2022-08-29T14:03:57.089Z</time>
      </trkpt>
      <trkpt lat="43.47726" lon="-1.48401">
        <ele>41.043992</ele>
        <time>2022-08-29T14:04:03.075Z</time>
      </trkpt>
      <trkpt lat="43.47683" lon="-1.48396">
        <ele>41.364603</ele>
        <time>2022-08-29T14:04:14.593Z</time>
      </trkpt>
      <trkpt lat="43.47638" lon="-1.48407">
        <ele>41.712479</ele>
        <time>2022-08-29T14:04:27.507Z</time>
      </trkpt>
      <trkpt lat="43.47594" lon="-1.48422">
        <ele>41.798924</ele>
        <time>2022-08-29T14:04:38.823Z</time>
      </trkpt>
      <trkpt lat="43.47568" lon="-1.48434">
        <ele>40.615395</ele>
        <time>2022-08-29T14:04:44.381Z</time>
      </trkpt>
      <trkpt lat="43.4754" lon="-1.48455">
        <ele>39.180928</ele>
        <time>2022-08-29T14:04:50.412Z</time>
      </trkpt>
      <trkpt lat="43.47496" lon="-1.48488">
        <ele>37.028216</ele>
        <time>2022-08-29T14:04:58.468Z</time>
      </trkpt>
      <trkpt lat="43.475" lon="-1.48459">
        <ele>36.108502</ele>
        <time>2022-08-29T14:05:01.667Z</time>
      </trkpt>
      <trkpt lat="43.47523" lon="-1.4842">
        <ele>34.520006</ele>
        <time>2022-08-29T14:05:06.996Z</time>
      </trkpt>
      <trkpt lat="43.47507" lon="-1.48346">
        <ele>29.363541</ele>
        <time>2022-08-29T14:05:15.080Z</time>
      </trkpt>
      <trkpt lat="43.47497" lon="-1.48335">
        <ele>28.097878</ele>
        <time>2022-08-29T14:05:16.887Z</time>
      </trkpt>
      <trkpt lat="43.47406" lon="-1.48306">
        <ele>18.782646</ele>
        <time>2022-08-29T14:05:29.991Z</time>
      </trkpt>
      <trkpt lat="43.4737" lon="-1.48353">
        <ele>14.898213</ele>
        <time>2022-08-29T14:05:36.950Z</time>
      </trkpt>
      <trkpt lat="43.47361" lon="-1.48356">
        <ele>14.364311</ele>
        <time>2022-08-29T14:05:38.297Z</time>
      </trkpt>
      <trkpt lat="43.47353" lon="-1.48338">
        <ele>13.524134</ele>
        <time>2022-08-29T14:05:40.443Z</time>
      </trkpt>
      <trkpt lat="43.47367" lon="-1.48312">
        <ele>12.187881</ele>
        <time>2022-08-29T14:05:44.045Z</time>
      </trkpt>
      <trkpt lat="43.47362" lon="-1.4827">
        <ele>10.482966</ele>
        <time>2022-08-29T14:05:48.877Z</time>
      </trkpt>
      <trkpt lat="43.47338" lon="-1.48214">
        <ele>7.791121</ele>
        <time>2022-08-29T14:05:57.057Z</time>
      </trkpt>
      <trkpt lat="43.47278" lon="-1.48347">
        <ele>5.057209</ele>
        <time>2022-08-29T14:06:17.958Z</time>
      </trkpt>
      <trkpt lat="43.47247" lon="-1.48397">
        <ele>4.454125</ele>
        <time>2022-08-29T14:06:27.504Z</time>
      </trkpt>
      <trkpt lat="43.47178" lon="-1.48446">
        <ele>3.705145</ele>
        <time>2022-08-29T14:06:44.530Z</time>
      </trkpt>
      <trkpt lat="43.47131" lon="-1.48462">
        <ele>3.478748</ele>
        <time>2022-08-29T14:06:54.604Z</time>
      </trkpt>
      <trkpt lat="43.47077" lon="-1.48474">
        <ele>3.220767</ele>
        <time>2022-08-29T14:07:06.216Z</time>
      </trkpt>
      <trkpt lat="43.47025" lon="-1.48478">
        <ele>2.975134</ele>
        <time>2022-08-29T14:07:16.616Z</time>
      </trkpt>
      <trkpt lat="43.46935" lon="-1.48493">
        <ele>2.551587</ele>
        <time>2022-08-29T14:07:35.476Z</time>
      </trkpt>
      <trkpt lat="43.46879" lon="-1.48493">
        <ele>2.289386</ele>
        <time>2022-08-29T14:07:47.320Z</time>
      </trkpt>
      <trkpt lat="43.46764" lon="-1.48466">
        <ele>2.534316</ele>
        <time>2022-08-29T14:08:13.374Z</time>
      </trkpt>
      <trkpt lat="43.46657" lon="-1.48413">
        <ele>2.980809</ele>
        <time>2022-08-29T14:08:44.124Z</time>
      </trkpt>
      <trkpt lat="43.46568" lon="-1.48353">
        <ele>3.217771</ele>
        <time>2022-08-29T14:09:08.440Z</time>
      </trkpt>
      <trkpt lat="43.465" lon="-1.48301">
        <ele>3.198388</ele>
        <time>2022-08-29T14:09:24.958Z</time>
      </trkpt>
      <trkpt lat="43.46363" lon="-1.48174">
        <ele>1.818631</ele>
        <time>2022-08-29T14:09:57.662Z</time>
      </trkpt>
      <trkpt lat="43.46305" lon="-1.48137">
        <ele>1.613155</ele>
        <time>2022-08-29T14:10:10.971Z</time>
      </trkpt>
      <trkpt lat="43.46242" lon="-1.48118">
        <ele>1.407577</ele>
        <time>2022-08-29T14:10:24.912Z</time>
      </trkpt>
      <trkpt lat="43.46214" lon="-1.48116">
        <ele>1.31921</ele>
        <time>2022-08-29T14:10:31.132Z</time>
      </trkpt>
      <trkpt lat="43.46168" lon="-1.48121">
        <ele>1.305419</ele>
        <time>2022-08-29T14:10:41.634Z</time>
      </trkpt>
      <trkpt lat="43.46116" lon="-1.48139">
        <ele>1.405806</ele>
        <time>2022-08-29T14:10:54.063Z</time>
      </trkpt>
      <trkpt lat="43.46042" lon="-1.48187">
        <ele>1.557713</ele>
        <time>2022-08-29T14:11:13.050Z</time>
      </trkpt>
      <trkpt lat="43.45996" lon="-1.48237">
        <ele>1.842428</ele>
        <time>2022-08-29T14:11:27.157Z</time>
      </trkpt>
      <trkpt lat="43.45962" lon="-1.48291">
        <ele>2.161558</ele>
        <time>2022-08-29T14:11:40.034Z</time>
      </trkpt>
      <trkpt lat="43.45905" lon="-1.48411">
        <ele>2.772625</ele>
        <time>2022-08-29T14:12:07.736Z</time>
      </trkpt>
      <trkpt lat="43.45854" lon="-1.48589">
        <ele>3.363687</ele>
        <time>2022-08-29T14:12:42.012Z</time>
      </trkpt>
      <trkpt lat="43.45834" lon="-1.48628">
        <ele>3.435952</ele>
        <time>2022-08-29T14:12:49.662Z</time>
      </trkpt>
      <trkpt lat="43.45807" lon="-1.48654">
        <ele>3.344024</ele>
        <time>2022-08-29T14:12:56.790Z</time>
      </trkpt>
      <trkpt lat="43.45782" lon="-1.48658">
        <ele>3.273221</ele>
        <time>2022-08-29T14:13:02.211Z</time>
      </trkpt>
      <trkpt lat="43.45767" lon="-1.48655">
        <ele>3.231235</ele>
        <time>2022-08-29T14:13:05.644Z</time>
      </trkpt>
      <trkpt lat="43.45724" lon="-1.48633">
        <ele>3.104796</ele>
        <time>2022-08-29T14:13:15.229Z</time>
      </trkpt>
      <trkpt lat="43.45716" lon="-1.48628">
        <ele>3.080846</ele>
        <time>2022-08-29T14:13:16.979Z</time>
      </trkpt>
      <trkpt lat="43.45712" lon="-1.48625">
        <ele>3.066308</ele>
        <time>2022-08-29T14:13:18.057Z</time>
      </trkpt>
      <trkpt lat="43.45646" lon="-1.48557">
        <ele>2.982646</ele>
        <time>2022-08-29T14:13:35.313Z</time>
      </trkpt>
      <trkpt lat="43.45586" lon="-1.48473">
        <ele>3.017202</ele>
        <time>2022-08-29T14:13:54.690Z</time>
      </trkpt>
      <trkpt lat="43.4558" lon="-1.4846">
        <ele>3.021764</ele>
        <time>2022-08-29T14:13:57.338Z</time>
      </trkpt>
      <trkpt lat="43.45558" lon="-1.48421">
        <ele>3.036329</ele>
        <time>2022-08-29T14:14:06.295Z</time>
      </trkpt>
      <trkpt lat="43.45508" lon="-1.48351">
        <ele>3.013437</ele>
        <time>2022-08-29T14:14:24.203Z</time>
      </trkpt>
      <trkpt lat="43.45423" lon="-1.48275">
        <ele>2.979581</ele>
        <time>2022-08-29T14:14:45.560Z</time>
      </trkpt>
      <trkpt lat="43.45387" lon="-1.48235">
        <ele>2.708207</ele>
        <time>2022-08-29T14:14:55.351Z</time>
      </trkpt>
      <trkpt lat="43.45361" lon="-1.48187">
        <ele>2.399636</ele>
        <time>2022-08-29T14:15:04.185Z</time>
      </trkpt>
      <trkpt lat="43.45359" lon="-1.48182">
        <ele>2.371881</ele>
        <time>2022-08-29T14:15:04.994Z</time>
      </trkpt>
      <trkpt lat="43.45337" lon="-1.48147">
        <ele>2.136635</ele>
        <time>2022-08-29T14:15:11.677Z</time>
      </trkpt>
      <trkpt lat="43.45306" lon="-1.48072">
        <ele>1.701448</ele>
        <time>2022-08-29T14:15:24.445Z</time>
      </trkpt>
      <trkpt lat="43.45293" lon="-1.4801">
        <ele>1.78658</ele>
        <time>2022-08-29T14:15:33.843Z</time>
      </trkpt>
      <trkpt lat="43.45291" lon="-1.47921">
        <ele>1.905569</ele>
        <time>2022-08-29T14:15:49.428Z</time>
      </trkpt>
      <trkpt lat="43.45325" lon="-1.47773">
        <ele>2.299901</ele>
        <time>2022-08-29T14:16:19.047Z</time>
      </trkpt>
      <trkpt lat="43.45315" lon="-1.47728">
        <ele>2.503473</ele>
        <time>2022-08-29T14:16:27.935Z</time>
      </trkpt>
      <trkpt lat="43.45286" lon="-1.4769">
        <ele>2.741377</ele>
        <time>2022-08-29T14:16:38.103Z</time>
      </trkpt>
      <trkpt lat="43.45223" lon="-1.4765">
        <ele>3.096039</ele>
        <time>2022-08-29T14:16:55.149Z</time>
      </trkpt>
      <trkpt lat="43.45164" lon="-1.47631">
        <ele>3.081378</ele>
        <time>2022-08-29T14:17:09.022Z</time>
      </trkpt>
      <trkpt lat="43.45132" lon="-1.47613">
        <ele>3.073035</ele>
        <time>2022-08-29T14:17:16.455Z</time>
      </trkpt>
      <trkpt lat="43.451" lon="-1.47609">
        <ele>3.065275</ele>
        <time>2022-08-29T14:17:23.297Z</time>
      </trkpt>
      <trkpt lat="43.45065" lon="-1.47595">
        <ele>3.056452</ele>
        <time>2022-08-29T14:17:31.127Z</time>
      </trkpt>
      <trkpt lat="43.44982" lon="-1.47554">
        <ele>3.192417</ele>
        <time>2022-08-29T14:17:50.820Z</time>
      </trkpt>
      <trkpt lat="43.4494" lon="-1.4752">
        <ele>3.274643</ele>
        <time>2022-08-29T14:18:02.078Z</time>
      </trkpt>
      <trkpt lat="43.44899" lon="-1.47471">
        <ele>3.378626</ele>
        <time>2022-08-29T14:18:15.060Z</time>
      </trkpt>
      <trkpt lat="43.44851" lon="-1.47397">
        <ele>3.717064</ele>
        <time>2022-08-29T14:18:33.637Z</time>
      </trkpt>
      <trkpt lat="43.44826" lon="-1.47374">
        <ele>3.855623</ele>
        <time>2022-08-29T14:18:41.392Z</time>
      </trkpt>
      <trkpt lat="43.44803" lon="-1.47371">
        <ele>3.966208</ele>
        <time>2022-08-29T14:18:47.305Z</time>
      </trkpt>
      <trkpt lat="43.44777" lon="-1.47377">
        <ele>4.086772</ele>
        <time>2022-08-29T14:18:53.384Z</time>
      </trkpt>
      <trkpt lat="43.44698" lon="-1.47431">
        <ele>3.932161</ele>
        <time>2022-08-29T14:19:12.897Z</time>
      </trkpt>
      <trkpt lat="43.44644" lon="-1.47471">
        <ele>3.679043</ele>
        <time>2022-08-29T14:19:25.667Z</time>
      </trkpt>
      <trkpt lat="43.44571" lon="-1.47509">
        <ele>3.278372</ele>
        <time>2022-08-29T14:19:41.611Z</time>
      </trkpt>
      <trkpt lat="43.44499" lon="-1.47538">
        <ele>2.727306</ele>
        <time>2022-08-29T14:19:56.705Z</time>
      </trkpt>
      <trkpt lat="43.44427" lon="-1.47554">
        <ele>2.194324</ele>
        <time>2022-08-29T14:20:11.632Z</time>
      </trkpt>
      <trkpt lat="43.44372" lon="-1.47558">
        <ele>1.984691</ele>
        <time>2022-08-29T14:20:23.200Z</time>
      </trkpt>
      <trkpt lat="43.44243" lon="-1.47555">
        <ele>1.577958</ele>
        <time>2022-08-29T14:20:50.833Z</time>
      </trkpt>
      <trkpt lat="43.44159" lon="-1.47534">
        <ele>1.729207</ele>
        <time>2022-08-29T14:21:09.910Z</time>
      </trkpt>
      <trkpt lat="43.44071" lon="-1.47522">
        <ele>1.909303</ele>
        <time>2022-08-29T14:21:31.080Z</time>
      </trkpt>
      <trkpt lat="43.43926" lon="-1.47491">
        <ele>2.823235</ele>
        <time>2022-08-29T14:22:08.471Z</time>
      </trkpt>
      <trkpt lat="43.4392" lon="-1.4749">
        <ele>2.864685</ele>
        <time>2022-08-29T14:22:10.177Z</time>
      </trkpt>
      <trkpt lat="43.43903" lon="-1.47486">
        <ele>2.976844</ele>
        <time>2022-08-29T14:22:14.655Z</time>
      </trkpt>
      <trkpt lat="43.43844" lon="-1.47448">
        <ele>3.454944</ele>
        <time>2022-08-29T14:22:31.394Z</time>
      </trkpt>
      <trkpt lat="43.43813" lon="-1.47421">
        <ele>3.73279</ele>
        <time>2022-08-29T14:22:40.690Z</time>
      </trkpt>
      <trkpt lat="43.43791" lon="-1.47387">
        <ele>3.985308</ele>
        <time>2022-08-29T14:22:49.410Z</time>
      </trkpt>
      <trkpt lat="43.43768" lon="-1.47308">
        <ele>4.4571</ele>
        <time>2022-08-29T14:23:05.797Z</time>
      </trkpt>
      <trkpt lat="43.43756" lon="-1.47256">
        <ele>4.721112</ele>
        <time>2022-08-29T14:23:16.157Z</time>
      </trkpt>
      <trkpt lat="43.43756" lon="-1.47236">
        <ele>4.818702</ele>
        <time>2022-08-29T14:23:20.101Z</time>
      </trkpt>
      <trkpt lat="43.43757" lon="-1.47221">
        <ele>4.891965</ele>
        <time>2022-08-29T14:23:22.943Z</time>
      </trkpt>
      <trkpt lat="43.43762" lon="-1.4717">
        <ele>5.139829</ele>
        <time>2022-08-29T14:23:32.507Z</time>
      </trkpt>
      <trkpt lat="43.43764" lon="-1.47057">
        <ele>5.675334</ele>
        <time>2022-08-29T14:23:53.216Z</time>
      </trkpt>
      <trkpt lat="43.43762" lon="-1.47023">
        <ele>5.752289</ele>
        <time>2022-08-29T14:23:59.616Z</time>
      </trkpt>
      <trkpt lat="43.43745" lon="-1.46917">
        <ele>5.994321</ele>
        <time>2022-08-29T14:24:18.124Z</time>
      </trkpt>
      <trkpt lat="43.43744" lon="-1.46869">
        <ele>6.101721</ele>
        <time>2022-08-29T14:24:26.159Z</time>
      </trkpt>
      <trkpt lat="43.43755" lon="-1.4676">
        <ele>6.178252</ele>
        <time>2022-08-29T14:24:44.598Z</time>
      </trkpt>
      <trkpt lat="43.43758" lon="-1.4661">
        <ele>6.056498</ele>
        <time>2022-08-29T14:25:08.514Z</time>
      </trkpt>
      <trkpt lat="43.43782" lon="-1.46434">
        <ele>5.542276</ele>
        <time>2022-08-29T14:25:35.851Z</time>
      </trkpt>
      <trkpt lat="43.43775" lon="-1.46361">
        <ele>5.282644</ele>
        <time>2022-08-29T14:25:46.899Z</time>
      </trkpt>
      <trkpt lat="43.43756" lon="-1.46311">
        <ele>5.101693</ele>
        <time>2022-08-29T14:25:55.331Z</time>
      </trkpt>
      <trkpt lat="43.4361" lon="-1.46061">
        <ele>4.245598</ele>
        <time>2022-08-29T14:26:45.058Z</time>
      </trkpt>
      <trkpt lat="43.43577" lon="-1.46009">
        <ele>4.055125</ele>
        <time>2022-08-29T14:26:55.841Z</time>
      </trkpt>
      <trkpt lat="43.43481" lon="-1.45882">
        <ele>3.802809</ele>
        <time>2022-08-29T14:27:23.968Z</time>
      </trkpt>
      <trkpt lat="43.43447" lon="-1.45848">
        <ele>3.794691</ele>
        <time>2022-08-29T14:27:32.710Z</time>
      </trkpt>
      <trkpt lat="43.43393" lon="-1.45811">
        <ele>3.782932</ele>
        <time>2022-08-29T14:27:47.027Z</time>
      </trkpt>
      <trkpt lat="43.43343" lon="-1.45782">
        <ele>4.30815</ele>
        <time>2022-08-29T14:28:02.639Z</time>
      </trkpt>
      <trkpt lat="43.43303" lon="-1.45772">
        <ele>4.766799</ele>
        <time>2022-08-29T14:28:13.864Z</time>
      </trkpt>
      <trkpt lat="43.43304" lon="-1.45763">
        <ele>4.841376</ele>
        <time>2022-08-29T14:28:15.649Z</time>
      </trkpt>
      <trkpt lat="43.43317" lon="-1.45697">
        <ele>5.392908</ele>
        <time>2022-08-29T14:28:36.639Z</time>
      </trkpt>
      <trkpt lat="43.4332" lon="-1.45685">
        <ele>5.495942</ele>
        <time>2022-08-29T14:28:39.764Z</time>
      </trkpt>
      <trkpt lat="43.43302" lon="-1.45676">
        <ele>5.714188</ele>
        <time>2022-08-29T14:28:44.764Z</time>
      </trkpt>
      <trkpt lat="43.4327" lon="-1.45674">
        <ele>6.219811</ele>
        <time>2022-08-29T14:28:54.040Z</time>
      </trkpt>
      <trkpt lat="43.43257" lon="-1.45659">
        <ele>6.506424</ele>
        <time>2022-08-29T14:28:59.218Z</time>
      </trkpt>
      <trkpt lat="43.43242" lon="-1.4563">
        <ele>6.953097</ele>
        <time>2022-08-29T14:29:07.483Z</time>
      </trkpt>
      <trkpt lat="43.43238" lon="-1.45625">
        <ele>7.055342</ele>
        <time>2022-08-29T14:29:09.402Z</time>
      </trkpt>
      <trkpt lat="43.43212" lon="-1.45597">
        <ele>7.626332</ele>
        <time>2022-08-29T14:29:20.443Z</time>
      </trkpt>
      <trkpt lat="43.43168" lon="-1.45563">
        <ele>8.491283</ele>
        <time>2022-08-29T14:29:35.239Z</time>
      </trkpt>
      <trkpt lat="43.43158" lon="-1.4553">
        <ele>8.947939</ele>
        <time>2022-08-29T14:29:43.489Z</time>
      </trkpt>
      <trkpt lat="43.4309" lon="-1.45507">
        <ele>10.263848</ele>
        <time>2022-08-29T14:30:05.512Z</time>
      </trkpt>
      <trkpt lat="43.43036" lon="-1.45506">
        <ele>11.283023</ele>
        <time>2022-08-29T14:30:23.239Z</time>
      </trkpt>
      <trkpt lat="43.42999" lon="-1.45497">
        <ele>11.991045</ele>
        <time>2022-08-29T14:30:35.660Z</time>
      </trkpt>
      <trkpt lat="43.42868" lon="-1.4541">
        <ele>14.677355</ele>
        <time>2022-08-29T14:31:20.172Z</time>
      </trkpt>
      <trkpt lat="43.42724" lon="-1.45246">
        <ele>18.209784</ele>
        <time>2022-08-29T14:32:21.785Z</time>
      </trkpt>
      <trkpt lat="43.42707" lon="-1.45242">
        <ele>18.526277</ele>
        <time>2022-08-29T14:32:27.188Z</time>
      </trkpt>
      <trkpt lat="43.42667" lon="-1.4526">
        <ele>19.019759</ele>
        <time>2022-08-29T14:32:39.856Z</time>
      </trkpt>
      <trkpt lat="43.42593" lon="-1.45326">
        <ele>18.98263</ele>
        <time>2022-08-29T14:33:01.070Z</time>
      </trkpt>
      <trkpt lat="43.42488" lon="-1.45383">
        <ele>18.923881</ele>
        <time>2022-08-29T14:33:22.670Z</time>
      </trkpt>
      <trkpt lat="43.42388" lon="-1.45397">
        <ele>18.851287</ele>
        <time>2022-08-29T14:33:46.563Z</time>
      </trkpt>
      <trkpt lat="43.42326" lon="-1.45413">
        <ele>18.830327</ele>
        <time>2022-08-29T14:34:01.833Z</time>
      </trkpt>
      <trkpt lat="43.42312" lon="-1.45425">
        <ele>18.837845</ele>
        <time>2022-08-29T14:34:07.052Z</time>
      </trkpt>
      <trkpt lat="43.42295" lon="-1.45463">
        <ele>18.852402</ele>
        <time>2022-08-29T14:34:14.655Z</time>
      </trkpt>
      <trkpt lat="43.42277" lon="-1.45526">
        <ele>18.874777</ele>
        <time>2022-08-29T14:34:27.259Z</time>
      </trkpt>
      <trkpt lat="43.42262" lon="-1.45548">
        <ele>18.884755</ele>
        <time>2022-08-29T14:34:33.086Z</time>
      </trkpt>
      <trkpt lat="43.42209" lon="-1.45599">
        <ele>18.522762</ele>
        <time>2022-08-29T14:34:45.524Z</time>
      </trkpt>
      <trkpt lat="43.42194" lon="-1.45608">
        <ele>18.279815</ele>
        <time>2022-08-29T14:34:48.422Z</time>
      </trkpt>
      <trkpt lat="43.42154" lon="-1.45614">
        <ele>17.682668</ele>
        <time>2022-08-29T14:34:55.660Z</time>
      </trkpt>
      <trkpt lat="43.42119" lon="-1.45598">
        <ele>17.140039</ele>
        <time>2022-08-29T14:35:02.450Z</time>
      </trkpt>
      <trkpt lat="43.42105" lon="-1.45584">
        <ele>16.896688</ele>
        <time>2022-08-29T14:35:05.598Z</time>
      </trkpt>
      <trkpt lat="43.42065" lon="-1.45523">
        <ele>16.320481</ele>
        <time>2022-08-29T14:35:17.706Z</time>
      </trkpt>
      <trkpt lat="43.42036" lon="-1.45468">
        <ele>16.506647</ele>
        <time>2022-08-29T14:35:28.501Z</time>
      </trkpt>
      <trkpt lat="43.42012" lon="-1.45444">
        <ele>16.620838</ele>
        <time>2022-08-29T14:35:36.063Z</time>
      </trkpt>
      <trkpt lat="43.41848" lon="-1.45381">
        <ele>17.337058</ele>
        <time>2022-08-29T14:36:22.353Z</time>
      </trkpt>
      <trkpt lat="43.41529" lon="-1.45266">
        <ele>17.947655</ele>
        <time>2022-08-29T14:37:35.570Z</time>
      </trkpt>
      <trkpt lat="43.41514" lon="-1.45258">
        <ele>18.009912</ele>
        <time>2022-08-29T14:37:39.428Z</time>
      </trkpt>
      <trkpt lat="43.41452" lon="-1.45192">
        <ele>18.301157</ele>
        <time>2022-08-29T14:37:59.642Z</time>
      </trkpt>
      <trkpt lat="43.41435" lon="-1.45184">
        <ele>18.36921</ele>
        <time>2022-08-29T14:38:04.478Z</time>
      </trkpt>
      <trkpt lat="43.4135" lon="-1.45165">
        <ele>17.724921</ele>
        <time>2022-08-29T14:38:24.083Z</time>
      </trkpt>
      <trkpt lat="43.41332" lon="-1.4517">
        <ele>17.557763</ele>
        <time>2022-08-29T14:38:27.976Z</time>
      </trkpt>
      <trkpt lat="43.41269" lon="-1.45204">
        <ele>16.9356</ele>
        <time>2022-08-29T14:38:41.055Z</time>
      </trkpt>
      <trkpt lat="43.41246" lon="-1.45201">
        <ele>16.628339</ele>
        <time>2022-08-29T14:38:45.188Z</time>
      </trkpt>
      <trkpt lat="43.41089" lon="-1.45054">
        <ele>11.048736</ele>
        <time>2022-08-29T14:39:17.129Z</time>
      </trkpt>
      <trkpt lat="43.41061" lon="-1.45053">
        <ele>10.773381</ele>
        <time>2022-08-29T14:39:22.035Z</time>
      </trkpt>
      <trkpt lat="43.40966" lon="-1.45073">
        <ele>9.83137</ele>
        <time>2022-08-29T14:39:41.190Z</time>
      </trkpt>
      <trkpt lat="43.40882" lon="-1.45043">
        <ele>11.298467</ele>
        <time>2022-08-29T14:40:05.540Z</time>
      </trkpt>
      <trkpt lat="43.4086" lon="-1.45042">
        <ele>12.195394</ele>
        <time>2022-08-29T14:40:12.562Z</time>
      </trkpt>
      <trkpt lat="43.40839" lon="-1.4502">
        <ele>13.307812</ele>
        <time>2022-08-29T14:40:24.639Z</time>
      </trkpt>
      <trkpt lat="43.40809" lon="-1.44973">
        <ele>15.209409</ele>
        <time>2022-08-29T14:40:45.803Z</time>
      </trkpt>
      <trkpt lat="43.40748" lon="-1.44966">
        <ele>18.550874</ele>
        <time>2022-08-29T14:41:22.127Z</time>
      </trkpt>
      <trkpt lat="43.4073" lon="-1.44955">
        <ele>20.080221</ele>
        <time>2022-08-29T14:41:32.813Z</time>
      </trkpt>
      <trkpt lat="43.4072" lon="-1.44939">
        <ele>21.370448</ele>
        <time>2022-08-29T14:41:44.450Z</time>
      </trkpt>
      <trkpt lat="43.40644" lon="-1.44859">
        <ele>29.032017</ele>
        <time>2022-08-29T14:42:44.223Z</time>
      </trkpt>
      <trkpt lat="43.40594" lon="-1.44796">
        <ele>33.884787</ele>
        <time>2022-08-29T14:43:31.259Z</time>
      </trkpt>
      <trkpt lat="43.40521" lon="-1.44661">
        <ele>41.686986</ele>
        <time>2022-08-29T14:44:35.409Z</time>
      </trkpt>
      <trkpt lat="43.40482" lon="-1.44564">
        <ele>45.017857</ele>
        <time>2022-08-29T14:45:08.950Z</time>
      </trkpt>
      <trkpt lat="43.40354" lon="-1.44364">
        <ele>50.798252</ele>
        <time>2022-08-29T14:46:20.399Z</time>
      </trkpt>
      <trkpt lat="43.40326" lon="-1.44312">
        <ele>51.871341</ele>
        <time>2022-08-29T14:46:36.211Z</time>
      </trkpt>
      <trkpt lat="43.40268" lon="-1.44216">
        <ele>53.479874</ele>
        <time>2022-08-29T14:47:03.435Z</time>
      </trkpt>
      <trkpt lat="43.40124" lon="-1.44069">
        <ele>54.985604</ele>
        <time>2022-08-29T14:47:49.042Z</time>
      </trkpt>
      <trkpt lat="43.40077" lon="-1.44006">
        <ele>55.409351</ele>
        <time>2022-08-29T14:48:06.075Z</time>
      </trkpt>
      <trkpt lat="43.40054" lon="-1.43991">
        <ele>55.571582</ele>
        <time>2022-08-29T14:48:12.580Z</time>
      </trkpt>
      <trkpt lat="43.40016" lon="-1.43978">
        <ele>55.824695</ele>
        <time>2022-08-29T14:48:22.553Z</time>
      </trkpt>
      <trkpt lat="43.39999" lon="-1.43965">
        <ele>55.945844</ele>
        <time>2022-08-29T14:48:27.558Z</time>
      </trkpt>
      <trkpt lat="43.39996" lon="-1.43961">
        <ele>55.966504</ele>
        <time>2022-08-29T14:48:28.664Z</time>
      </trkpt>
      <trkpt lat="43.39885" lon="-1.43834">
        <ele>56.662809</ele>
        <time>2022-08-29T14:49:04.221Z</time>
      </trkpt>
      <trkpt lat="43.39864" lon="-1.43793">
        <ele>56.846511</ele>
        <time>2022-08-29T14:49:12.953Z</time>
      </trkpt>
      <trkpt lat="43.39851" lon="-1.4375">
        <ele>57.044185</ele>
        <time>2022-08-29T14:49:21.086Z</time>
      </trkpt>
      <trkpt lat="43.39829" lon="-1.43718">
        <ele>57.232319</ele>
        <time>2022-08-29T14:49:28.879Z</time>
      </trkpt>
      <trkpt lat="43.39786" lon="-1.43675">
        <ele>57.550473</ele>
        <time>2022-08-29T14:49:42.178Z</time>
      </trkpt>
      <trkpt lat="43.39664" lon="-1.43524">
        <ele>58.78405</ele>
        <time>2022-08-29T14:50:25.530Z</time>
      </trkpt>
      <trkpt lat="43.39624" lon="-1.43491">
        <ele>59.173205</ele>
        <time>2022-08-29T14:50:38.086Z</time>
      </trkpt>
      <trkpt lat="43.39559" lon="-1.43447">
        <ele>59.530285</ele>
        <time>2022-08-29T14:50:57.149Z</time>
      </trkpt>
      <trkpt lat="43.39468" lon="-1.43362">
        <ele>59.91186</ele>
        <time>2022-08-29T14:51:23.027Z</time>
      </trkpt>
      <trkpt lat="43.3943" lon="-1.4333">
        <ele>59.986834</ele>
        <time>2022-08-29T14:51:32.552Z</time>
      </trkpt>
      <trkpt lat="43.39362" lon="-1.43293">
        <ele>60.003341</ele>
        <time>2022-08-29T14:51:48.532Z</time>
      </trkpt>
      <trkpt lat="43.3933" lon="-1.43265">
        <ele>60.011786</ele>
        <time>2022-08-29T14:51:56.979Z</time>
      </trkpt>
      <trkpt lat="43.39345" lon="-1.43246">
        <ele>60.016367</ele>
        <time>2022-08-29T14:52:01.968Z</time>
      </trkpt>
      <trkpt lat="43.39322" lon="-1.43206">
        <ele>60.217054</ele>
        <time>2022-08-29T14:52:10.667Z</time>
      </trkpt>
      <trkpt lat="43.39268" lon="-1.43097">
        <ele>61.612529</ele>
        <time>2022-08-29T14:52:37.683Z</time>
      </trkpt>
      <trkpt lat="43.39234" lon="-1.43049">
        <ele>62.321984</ele>
        <time>2022-08-29T14:52:54.241Z</time>
      </trkpt>
      <trkpt lat="43.39187" lon="-1.42966">
        <ele>64.698465</ele>
        <time>2022-08-29T14:53:22.846Z</time>
      </trkpt>
      <trkpt lat="43.39182" lon="-1.42959">
        <ele>64.967462</ele>
        <time>2022-08-29T14:53:25.731Z</time>
      </trkpt>
      <trkpt lat="43.39158" lon="-1.42925">
        <ele>66.266869</ele>
        <time>2022-08-29T14:53:40.129Z</time>
      </trkpt>
      <trkpt lat="43.39117" lon="-1.42839">
        <ele>69.068213</ele>
        <time>2022-08-29T14:54:13.774Z</time>
      </trkpt>
      <trkpt lat="43.39097" lon="-1.42797">
        <ele>70.766865</ele>
        <time>2022-08-29T14:54:30.843Z</time>
      </trkpt>
      <trkpt lat="43.39066" lon="-1.42753">
        <ele>72.954093</ele>
        <time>2022-08-29T14:54:52.499Z</time>
      </trkpt>
      <trkpt lat="43.39058" lon="-1.42754">
        <ele>73.333667</ele>
        <time>2022-08-29T14:54:56.070Z</time>
      </trkpt>
      <trkpt lat="43.39058" lon="-1.42748">
        <ele>73.558856</ele>
        <time>2022-08-29T14:54:58.374Z</time>
      </trkpt>
      <trkpt lat="43.39062" lon="-1.42745">
        <ele>73.785608</ele>
        <time>2022-08-29T14:55:00.392Z</time>
      </trkpt>
      <trkpt lat="43.39073" lon="-1.42706">
        <ele>75.253768</ele>
        <time>2022-08-29T14:55:15.063Z</time>
      </trkpt>
      <trkpt lat="43.39094" lon="-1.42655">
        <ele>77.359082</ele>
        <time>2022-08-29T14:55:35.858Z</time>
      </trkpt>
      <trkpt lat="43.3911" lon="-1.42599">
        <ele>79.405786</ele>
        <time>2022-08-29T14:55:56.882Z</time>
      </trkpt>
      <trkpt lat="43.3914" lon="-1.42456">
        <ele>84.279762</ele>
        <time>2022-08-29T14:56:47.187Z</time>
      </trkpt>
      <trkpt lat="43.39136" lon="-1.4244">
        <ele>84.819573</ele>
        <time>2022-08-29T14:56:52.752Z</time>
      </trkpt>
      <trkpt lat="43.39078" lon="-1.42366">
        <ele>87.548326</ele>
        <time>2022-08-29T14:57:26.200Z</time>
      </trkpt>
      <trkpt lat="43.39035" lon="-1.42317">
        <ele>89.025545</ele>
        <time>2022-08-29T14:57:47.468Z</time>
      </trkpt>
      <trkpt lat="43.38957" lon="-1.42249">
        <ele>91.10949</ele>
        <time>2022-08-29T14:58:18.468Z</time>
      </trkpt>
      <trkpt lat="43.38854" lon="-1.42189">
        <ele>91.085959</ele>
        <time>2022-08-29T14:58:45.290Z</time>
      </trkpt>
      <trkpt lat="43.38821" lon="-1.42154">
        <ele>91.077204</ele>
        <time>2022-08-29T14:58:53.568Z</time>
      </trkpt>
      <trkpt lat="43.38804" lon="-1.42157">
        <ele>91.002487</ele>
        <time>2022-08-29T14:58:57.149Z</time>
      </trkpt>
      <trkpt lat="43.38777" lon="-1.4211">
        <ele>90.210179</ele>
        <time>2022-08-29T14:59:05.318Z</time>
      </trkpt>
      <trkpt lat="43.38748" lon="-1.42059">
        <ele>89.345344</ele>
        <time>2022-08-29T14:59:13.961Z</time>
      </trkpt>
      <trkpt lat="43.38736" lon="-1.42017">
        <ele>88.7511</ele>
        <time>2022-08-29T14:59:19.915Z</time>
      </trkpt>
      <trkpt lat="43.38737" lon="-1.41976">
        <ele>88.209192</ele>
        <time>2022-08-29T14:59:25.343Z</time>
      </trkpt>
      <trkpt lat="43.38751" lon="-1.419">
        <ele>87.809296</ele>
        <time>2022-08-29T14:59:35.565Z</time>
      </trkpt>
      <trkpt lat="43.38751" lon="-1.41881">
        <ele>87.813739</ele>
        <time>2022-08-29T14:59:38.210Z</time>
      </trkpt>
      <trkpt lat="43.38737" lon="-1.41828">
        <ele>87.82729</ele>
        <time>2022-08-29T14:59:47.320Z</time>
      </trkpt>
      <trkpt lat="43.38705" lon="-1.41729">
        <ele>87.853104</ele>
        <time>2022-08-29T15:00:08.251Z</time>
      </trkpt>
      <trkpt lat="43.38685" lon="-1.41666">
        <ele>88.920461</ele>
        <time>2022-08-29T15:00:24.231Z</time>
      </trkpt>
      <trkpt lat="43.38654" lon="-1.41598">
        <ele>90.569628</ele>
        <time>2022-08-29T15:00:45.414Z</time>
      </trkpt>
      <trkpt lat="43.38518" lon="-1.41355">
        <ele>96.99715</ele>
        <time>2022-08-29T15:02:13.905Z</time>
      </trkpt>
      <trkpt lat="43.38451" lon="-1.4126">
        <ele>98.913997</ele>
        <time>2022-08-29T15:02:42.127Z</time>
      </trkpt>
      <trkpt lat="43.3841" lon="-1.41185">
        <ele>99.799663</ele>
        <time>2022-08-29T15:03:00.468Z</time>
      </trkpt>
      <trkpt lat="43.38393" lon="-1.41136">
        <ele>100.305447</ele>
        <time>2022-08-29T15:03:11.229Z</time>
      </trkpt>
      <trkpt lat="43.38382" lon="-1.41083">
        <ele>101.072449</ele>
        <time>2022-08-29T15:03:22.996Z</time>
      </trkpt>
      <trkpt lat="43.38377" lon="-1.41006">
        <ele>102.368563</ele>
        <time>2022-08-29T15:03:41.310Z</time>
      </trkpt>
      <trkpt lat="43.38323" lon="-1.40869">
        <ele>104.870698</ele>
        <time>2022-08-29T15:04:22.606Z</time>
      </trkpt>
      <trkpt lat="43.38326" lon="-1.40849">
        <ele>105.083348</ele>
        <time>2022-08-29T15:04:29.147Z</time>
      </trkpt>
      <trkpt lat="43.38285" lon="-1.40734">
        <ele>106.419986</ele>
        <time>2022-08-29T15:04:58.318Z</time>
      </trkpt>
      <trkpt lat="43.38273" lon="-1.40719">
        <ele>106.654193</ele>
        <time>2022-08-29T15:05:03.818Z</time>
      </trkpt>
      <trkpt lat="43.38266" lon="-1.40678">
        <ele>107.104882</ele>
        <time>2022-08-29T15:05:10.807Z</time>
      </trkpt>
      <trkpt lat="43.38248" lon="-1.40641">
        <ele>106.935737</ele>
        <time>2022-08-29T15:05:17.433Z</time>
      </trkpt>
      <trkpt lat="43.38193" lon="-1.4061">
        <ele>105.936497</ele>
        <time>2022-08-29T15:05:29.280Z</time>
      </trkpt>
      <trkpt lat="43.38182" lon="-1.40612">
        <ele>105.753684</ele>
        <time>2022-08-29T15:05:31.303Z</time>
      </trkpt>
      <trkpt lat="43.38164" lon="-1.40599">
        <ele>105.403489</ele>
        <time>2022-08-29T15:05:35.481Z</time>
      </trkpt>
      <trkpt lat="43.38108" lon="-1.40517">
        <ele>103.76029</ele>
        <time>2022-08-29T15:05:50.369Z</time>
      </trkpt>
      <trkpt lat="43.38039" lon="-1.40449">
        <ele>100.553887</ele>
        <time>2022-08-29T15:06:05.432Z</time>
      </trkpt>
      <trkpt lat="43.37906" lon="-1.40372">
        <ele>94.28997</ele>
        <time>2022-08-29T15:06:30.075Z</time>
      </trkpt>
      <trkpt lat="43.37766" lon="-1.40266">
        <ele>86.430558</ele>
        <time>2022-08-29T15:06:56.261Z</time>
      </trkpt>
      <trkpt lat="43.37723" lon="-1.40264">
        <ele>84.412845</ele>
        <time>2022-08-29T15:07:03.443Z</time>
      </trkpt>
      <trkpt lat="43.37705" lon="-1.40256">
        <ele>83.548587</ele>
        <time>2022-08-29T15:07:06.481Z</time>
      </trkpt>
      <trkpt lat="43.37631" lon="-1.4021">
        <ele>79.705124</ele>
        <time>2022-08-29T15:07:20.718Z</time>
      </trkpt>
      <trkpt lat="43.3752" lon="-1.40154">
        <ele>73.69018</ele>
        <time>2022-08-29T15:07:41.177Z</time>
      </trkpt>
      <trkpt lat="43.37491" lon="-1.40146">
        <ele>72.176949</ele>
        <time>2022-08-29T15:07:46.047Z</time>
      </trkpt>
      <trkpt lat="43.37434" lon="-1.40154">
        <ele>67.401338</ele>
        <time>2022-08-29T15:07:54.876Z</time>
      </trkpt>
      <trkpt lat="43.37409" lon="-1.40165">
        <ele>64.5078</ele>
        <time>2022-08-29T15:07:58.744Z</time>
      </trkpt>
      <trkpt lat="43.3735" lon="-1.40206">
        <ele>57.255447</ele>
        <time>2022-08-29T15:08:08.374Z</time>
      </trkpt>
      <trkpt lat="43.37339" lon="-1.40211">
        <ele>55.942597</ele>
        <time>2022-08-29T15:08:10.091Z</time>
      </trkpt>
      <trkpt lat="43.37287" lon="-1.40208">
        <ele>50.278518</ele>
        <time>2022-08-29T15:08:17.432Z</time>
      </trkpt>
      <trkpt lat="43.37236" lon="-1.40229">
        <ele>44.372368</ele>
        <time>2022-08-29T15:08:25.081Z</time>
      </trkpt>
      <trkpt lat="43.37206" lon="-1.40223">
        <ele>41.037044</ele>
        <time>2022-08-29T15:08:29.522Z</time>
      </trkpt>
      <trkpt lat="43.37194" lon="-1.40203">
        <ele>39.039331</ele>
        <time>2022-08-29T15:08:32.075Z</time>
      </trkpt>
      <trkpt lat="43.372" lon="-1.4018">
        <ele>37.056857</ele>
        <time>2022-08-29T15:08:34.879Z</time>
      </trkpt>
      <trkpt lat="43.37194" lon="-1.40169">
        <ele>36.022792</ele>
        <time>2022-08-29T15:08:36.198Z</time>
      </trkpt>
      <trkpt lat="43.3718" lon="-1.40124">
        <ele>32.128115</ele>
        <time>2022-08-29T15:08:41.703Z</time>
      </trkpt>
      <trkpt lat="43.3714" lon="-1.40124">
        <ele>29.947237</ele>
        <time>2022-08-29T15:08:48.139Z</time>
      </trkpt>
      <trkpt lat="43.37125" lon="-1.40115">
        <ele>29.251395</ele>
        <time>2022-08-29T15:08:51.190Z</time>
      </trkpt>
      <trkpt lat="43.37085" lon="-1.40116">
        <ele>27.571283</ele>
        <time>2022-08-29T15:08:58.039Z</time>
      </trkpt>
      <trkpt lat="43.37078" lon="-1.40117">
        <ele>27.294894</ele>
        <time>2022-08-29T15:08:59.060Z</time>
      </trkpt>
      <trkpt lat="43.37065" lon="-1.40122">
        <ele>26.72623</ele>
        <time>2022-08-29T15:09:01.257Z</time>
      </trkpt>
      <trkpt lat="43.37041" lon="-1.40066">
        <ele>24.775632</ele>
        <time>2022-08-29T15:09:10.022Z</time>
      </trkpt>
      <trkpt lat="43.37025" lon="-1.40059">
        <ele>24.060377</ele>
        <time>2022-08-29T15:09:13.346Z</time>
      </trkpt>
      <trkpt lat="43.37004" lon="-1.40087">
        <ele>23.493952</ele>
        <time>2022-08-29T15:09:19.198Z</time>
      </trkpt>
      <trkpt lat="43.36979" lon="-1.40106">
        <ele>23.133576</ele>
        <time>2022-08-29T15:09:25.359Z</time>
      </trkpt>
      <trkpt lat="43.36918" lon="-1.40144">
        <ele>22.297266</ele>
        <time>2022-08-29T15:09:39.524Z</time>
      </trkpt>
      <trkpt lat="43.36909" lon="-1.40144">
        <ele>22.188573</ele>
        <time>2022-08-29T15:09:41.172Z</time>
      </trkpt>
      <trkpt lat="43.36893" lon="-1.40135">
        <ele>21.975154</ele>
        <time>2022-08-29T15:09:44.716Z</time>
      </trkpt>
      <trkpt lat="43.36834" lon="-1.40086">
        <ele>21.314208</ele>
        <time>2022-08-29T15:09:58.619Z</time>
      </trkpt>
      <trkpt lat="43.36809" lon="-1.40046">
        <ele>21.071914</ele>
        <time>2022-08-29T15:10:06.667Z</time>
      </trkpt>
      <trkpt lat="43.36795" lon="-1.40062">
        <ele>20.954262</ele>
        <time>2022-08-29T15:10:10.303Z</time>
      </trkpt>
      <trkpt lat="43.3677" lon="-1.4006">
        <ele>20.794902</ele>
        <time>2022-08-29T15:10:15.805Z</time>
      </trkpt>
      <trkpt lat="43.36736" lon="-1.40037">
        <ele>20.553304</ele>
        <time>2022-08-29T15:10:24.042Z</time>
      </trkpt>
      <trkpt lat="43.36709" lon="-1.4001">
        <ele>20.370052</ele>
        <time>2022-08-29T15:10:31.315Z</time>
      </trkpt>
      <trkpt lat="43.36531" lon="-1.39714">
        <ele>19.678202</ele>
        <time>2022-08-29T15:11:31.713Z</time>
      </trkpt>
      <trkpt lat="43.36521" lon="-1.397">
        <ele>19.632214</ele>
        <time>2022-08-29T15:11:34.611Z</time>
      </trkpt>
      <trkpt lat="43.36505" lon="-1.39706">
        <ele>19.577739</ele>
        <time>2022-08-29T15:11:37.981Z</time>
      </trkpt>
      <trkpt lat="43.36426" lon="-1.39749">
        <ele>19.476705</ele>
        <time>2022-08-29T15:11:55.882Z</time>
      </trkpt>
      <trkpt lat="43.36385" lon="-1.39593">
        <ele>19.602323</ele>
        <time>2022-08-29T15:12:23.213Z</time>
      </trkpt>
      <trkpt lat="43.36345" lon="-1.39349">
        <ele>21.66042</ele>
        <time>2022-08-29T15:13:15.277Z</time>
      </trkpt>
      <trkpt lat="43.36318" lon="-1.39262">
        <ele>22.859046</ele>
        <time>2022-08-29T15:13:35.563Z</time>
      </trkpt>
      <trkpt lat="43.36308" lon="-1.39155">
        <ele>24.342198</ele>
        <time>2022-08-29T15:13:59.856Z</time>
      </trkpt>
      <trkpt lat="43.36292" lon="-1.39073">
        <ele>25.923671</ele>
        <time>2022-08-29T15:14:19.313Z</time>
      </trkpt>
      <trkpt lat="43.36297" lon="-1.3905">
        <ele>26.786877</ele>
        <time>2022-08-29T15:14:25.703Z</time>
      </trkpt>
      <trkpt lat="43.36252" lon="-1.38865">
        <ele>33.715991</ele>
        <time>2022-08-29T15:15:36.772Z</time>
      </trkpt>
      <trkpt lat="43.36253" lon="-1.38853">
        <ele>34.155223</ele>
        <time>2022-08-29T15:15:42.494Z</time>
      </trkpt>
      <trkpt lat="43.36258" lon="-1.38824">
        <ele>35.541768</ele>
        <time>2022-08-29T15:15:52.563Z</time>
      </trkpt>
      <trkpt lat="43.36256" lon="-1.38807">
        <ele>36.324587</ele>
        <time>2022-08-29T15:16:00.586Z</time>
      </trkpt>
      <trkpt lat="43.3625" lon="-1.38805">
        <ele>36.725885</ele>
        <time>2022-08-29T15:16:03.642Z</time>
      </trkpt>
      <trkpt lat="43.3623" lon="-1.38816">
        <ele>38.049587</ele>
        <time>2022-08-29T15:16:13.698Z</time>
      </trkpt>
      <trkpt lat="43.36208" lon="-1.38811">
        <ele>39.498523</ele>
        <time>2022-08-29T15:16:26.718Z</time>
      </trkpt>
      <trkpt lat="43.3616" lon="-1.38757">
        <ele>43.409033</ele>
        <time>2022-08-29T15:17:02.244Z</time>
      </trkpt>
      <trkpt lat="43.36132" lon="-1.38745">
        <ele>45.293946</ele>
        <time>2022-08-29T15:17:19.695Z</time>
      </trkpt>
      <trkpt lat="43.36036" lon="-1.3873">
        <ele>49.690956</ele>
        <time>2022-08-29T15:18:04.468Z</time>
      </trkpt>
      <trkpt lat="43.35999" lon="-1.3869">
        <ele>51.811052</ele>
        <time>2022-08-29T15:18:25.109Z</time>
      </trkpt>
      <trkpt lat="43.36016" lon="-1.38645">
        <ele>53.499556</ele>
        <time>2022-08-29T15:18:39.723Z</time>
      </trkpt>
      <trkpt lat="43.36023" lon="-1.38609">
        <ele>54.104104</ele>
        <time>2022-08-29T15:18:48.664Z</time>
      </trkpt>
      <trkpt lat="43.36023" lon="-1.38576">
        <ele>54.632879</ele>
        <time>2022-08-29T15:18:57.420Z</time>
      </trkpt>
      <trkpt lat="43.35971" lon="-1.38574">
        <ele>55.784383</ele>
        <time>2022-08-29T15:19:15.606Z</time>
      </trkpt>
      <trkpt lat="43.35947" lon="-1.3856">
        <ele>56.344318</ele>
        <time>2022-08-29T15:19:24.252Z</time>
      </trkpt>
      <trkpt lat="43.35921" lon="-1.38528">
        <ele>57.11397</ele>
        <time>2022-08-29T15:19:35.063Z</time>
      </trkpt>
      <trkpt lat="43.35907" lon="-1.38505">
        <ele>57.544056</ele>
        <time>2022-08-29T15:19:41.279Z</time>
      </trkpt>
      <trkpt lat="43.35867" lon="-1.38445">
        <ele>58.225128</ele>
        <time>2022-08-29T15:19:58.846Z</time>
      </trkpt>
      <trkpt lat="43.35855" lon="-1.38439">
        <ele>58.368211</ele>
        <time>2022-08-29T15:20:02.308Z</time>
      </trkpt>
      <trkpt lat="43.35842" lon="-1.3844">
        <ele>58.525135</ele>
        <time>2022-08-29T15:20:06.542Z</time>
      </trkpt>
      <trkpt lat="43.35801" lon="-1.38435">
        <ele>58.993362</ele>
        <time>2022-08-29T15:20:17.583Z</time>
      </trkpt>
      <trkpt lat="43.35745" lon="-1.38414">
        <ele>59.466523</ele>
        <time>2022-08-29T15:20:34.920Z</time>
      </trkpt>
      <trkpt lat="43.35711" lon="-1.38406">
        <ele>59.155656</ele>
        <time>2022-08-29T15:20:44.313Z</time>
      </trkpt>
      <trkpt lat="43.35689" lon="-1.38416">
        <ele>58.946125</ele>
        <time>2022-08-29T15:20:49.953Z</time>
      </trkpt>
      <trkpt lat="43.35659" lon="-1.3841">
        <ele>58.670733</ele>
        <time>2022-08-29T15:20:56.710Z</time>
      </trkpt>
      <trkpt lat="43.35645" lon="-1.38398">
        <ele>58.518855</ele>
        <time>2022-08-29T15:21:00.165Z</time>
      </trkpt>
      <trkpt lat="43.35571" lon="-1.38342">
        <ele>57.365761</ele>
        <time>2022-08-29T15:21:15.731Z</time>
      </trkpt>
      <trkpt lat="43.35528" lon="-1.38335">
        <ele>56.068953</ele>
        <time>2022-08-29T15:21:23.303Z</time>
      </trkpt>
      <trkpt lat="43.35389" lon="-1.38278">
        <ele>52.251745</ele>
        <time>2022-08-29T15:21:49.504Z</time>
      </trkpt>
      <trkpt lat="43.3538" lon="-1.38238">
        <ele>51.92023</ele>
        <time>2022-08-29T15:21:55.002Z</time>
      </trkpt>
      <trkpt lat="43.35369" lon="-1.38226">
        <ele>51.775313</ele>
        <time>2022-08-29T15:21:58.160Z</time>
      </trkpt>
      <trkpt lat="43.35312" lon="-1.38237">
        <ele>51.160005</ele>
        <time>2022-08-29T15:22:09.331Z</time>
      </trkpt>
      <trkpt lat="43.35265" lon="-1.38235">
        <ele>50.650088</ele>
        <time>2022-08-29T15:22:22.269Z</time>
      </trkpt>
      <trkpt lat="43.35157" lon="-1.38141">
        <ele>54.227754</ele>
        <time>2022-08-29T15:23:06.619Z</time>
      </trkpt>
      <trkpt lat="43.35092" lon="-1.38042">
        <ele>58.645837</ele>
        <time>2022-08-29T15:23:52.736Z</time>
      </trkpt>
      <trkpt lat="43.35059" lon="-1.38038">
        <ele>60.844886</ele>
        <time>2022-08-29T15:24:10.433Z</time>
      </trkpt>
      <trkpt lat="43.35029" lon="-1.38047">
        <ele>62.919839</ele>
        <time>2022-08-29T15:24:28.882Z</time>
      </trkpt>
      <trkpt lat="43.34952" lon="-1.38091">
        <ele>68.535074</ele>
        <time>2022-08-29T15:25:21.501Z</time>
      </trkpt>
      <trkpt lat="43.34863" lon="-1.38031">
        <ele>75.785397</ele>
        <time>2022-08-29T15:26:21.422Z</time>
      </trkpt>
      <trkpt lat="43.34753" lon="-1.38029">
        <ele>83.775384</ele>
        <time>2022-08-29T15:27:24.871Z</time>
      </trkpt>
      <trkpt lat="43.34712" lon="-1.38048">
        <ele>86.842171</ele>
        <time>2022-08-29T15:27:51.004Z</time>
      </trkpt>
      <trkpt lat="43.347" lon="-1.38047">
        <ele>87.712672</ele>
        <time>2022-08-29T15:27:58.274Z</time>
      </trkpt>
      <trkpt lat="43.34652" lon="-1.38026">
        <ele>91.290675</ele>
        <time>2022-08-29T15:28:27.348Z</time>
      </trkpt>
      <trkpt lat="43.34578" lon="-1.38021">
        <ele>96.915079</ele>
        <time>2022-08-29T15:29:11.236Z</time>
      </trkpt>
      <trkpt lat="43.34539" lon="-1.3801">
        <ele>100.062776</ele>
        <time>2022-08-29T15:29:35.333Z</time>
      </trkpt>
      <trkpt lat="43.34505" lon="-1.37991">
        <ele>103.059944</ele>
        <time>2022-08-29T15:30:01.359Z</time>
      </trkpt>
      <trkpt lat="43.34491" lon="-1.37957">
        <ele>105.33975</ele>
        <time>2022-08-29T15:30:21.713Z</time>
      </trkpt>
      <trkpt lat="43.3448" lon="-1.37964">
        <ele>106.302384</ele>
        <time>2022-08-29T15:30:28.389Z</time>
      </trkpt>
      <trkpt lat="43.34478" lon="-1.37994">
        <ele>108.060559</ele>
        <time>2022-08-29T15:30:43.348Z</time>
      </trkpt>
      <trkpt lat="43.3446" lon="-1.38023">
        <ele>110.776331</ele>
        <time>2022-08-29T15:30:59.808Z</time>
      </trkpt>
      <trkpt lat="43.34441" lon="-1.38032">
        <ele>112.737386</ele>
        <time>2022-08-29T15:31:09.075Z</time>
      </trkpt>
      <trkpt lat="43.34434" lon="-1.38027">
        <ele>113.55198</ele>
        <time>2022-08-29T15:31:12.938Z</time>
      </trkpt>
      <trkpt lat="43.34439" lon="-1.38015">
        <ele>114.542323</ele>
        <time>2022-08-29T15:31:22.285Z</time>
      </trkpt>
      <trkpt lat="43.34454" lon="-1.38007">
        <ele>116.131532</ele>
        <time>2022-08-29T15:31:30.789Z</time>
      </trkpt>
      <trkpt lat="43.34452" lon="-1.37996">
        <ele>116.993557</ele>
        <time>2022-08-29T15:31:35.986Z</time>
      </trkpt>
      <trkpt lat="43.34433" lon="-1.38">
        <ele>118.952902</ele>
        <time>2022-08-29T15:31:52.017Z</time>
      </trkpt>
      <trkpt lat="43.34422" lon="-1.37996">
        <ele>120.041742</ele>
        <time>2022-08-29T15:31:59.428Z</time>
      </trkpt>
      <trkpt lat="43.3435" lon="-1.37946">
        <ele>129.055166</ele>
        <time>2022-08-29T15:33:09.578Z</time>
      </trkpt>
      <trkpt lat="43.34329" lon="-1.37919">
        <ele>133.214114</ele>
        <time>2022-08-29T15:33:36.473Z</time>
      </trkpt>
      <trkpt lat="43.34318" lon="-1.37811">
        <ele>145.028631</ele>
        <time>2022-08-29T15:34:49.162Z</time>
      </trkpt>
      <trkpt lat="43.34313" lon="-1.37798">
        <ele>146.564267</ele>
        <time>2022-08-29T15:35:01.216Z</time>
      </trkpt>
      <trkpt lat="43.34278" lon="-1.3774">
        <ele>154.476092</ele>
        <time>2022-08-29T15:36:06.848Z</time>
      </trkpt>
      <trkpt lat="43.34265" lon="-1.377">
        <ele>158.406973</ele>
        <time>2022-08-29T15:36:40.318Z</time>
      </trkpt>
      <trkpt lat="43.34226" lon="-1.37662">
        <ele>164.273643</ele>
        <time>2022-08-29T15:37:23.017Z</time>
      </trkpt>
      <trkpt lat="43.34209" lon="-1.37632">
        <ele>167.669836</ele>
        <time>2022-08-29T15:37:45.831Z</time>
      </trkpt>
      <trkpt lat="43.34167" lon="-1.37621">
        <ele>172.947351</ele>
        <time>2022-08-29T15:38:13.825Z</time>
      </trkpt>
      <trkpt lat="43.34124" lon="-1.37621">
        <ele>176.513558</ele>
        <time>2022-08-29T15:38:41.341Z</time>
      </trkpt>
      <trkpt lat="43.34016" lon="-1.3765">
        <ele>182.496515</ele>
        <time>2022-08-29T15:39:38.506Z</time>
      </trkpt>
      <trkpt lat="43.34018" lon="-1.37595">
        <ele>184.692214</ele>
        <time>2022-08-29T15:39:53.088Z</time>
      </trkpt>
      <trkpt lat="43.33989" lon="-1.3755">
        <ele>185.747299</ele>
        <time>2022-08-29T15:40:09.200Z</time>
      </trkpt>
      <trkpt lat="43.33908" lon="-1.37458">
        <ele>188.001836</ele>
        <time>2022-08-29T15:40:47.101Z</time>
      </trkpt>
      <trkpt lat="43.33818" lon="-1.37413">
        <ele>189.43975</ele>
        <time>2022-08-29T15:41:10.734Z</time>
      </trkpt>
      <trkpt lat="43.33783" lon="-1.37388">
        <ele>189.885002</ele>
        <time>2022-08-29T15:41:21.721Z</time>
      </trkpt>
      <trkpt lat="43.33761" lon="-1.37361">
        <ele>190.217837</ele>
        <time>2022-08-29T15:41:30.680Z</time>
      </trkpt>
      <trkpt lat="43.33736" lon="-1.37324">
        <ele>190.638491</ele>
        <time>2022-08-29T15:41:41.935Z</time>
      </trkpt>
      <trkpt lat="43.33713" lon="-1.37277">
        <ele>191.429339</ele>
        <time>2022-08-29T15:41:54.968Z</time>
      </trkpt>
      <trkpt lat="43.33675" lon="-1.37236">
        <ele>192.53896</ele>
        <time>2022-08-29T15:42:11.351Z</time>
      </trkpt>
      <trkpt lat="43.33613" lon="-1.37133">
        <ele>194.750373</ele>
        <time>2022-08-29T15:42:46.828Z</time>
      </trkpt>
      <trkpt lat="43.336" lon="-1.37127">
        <ele>195.085818</ele>
        <time>2022-08-29T15:42:52.106Z</time>
      </trkpt>
      <trkpt lat="43.33589" lon="-1.37135">
        <ele>195.399807</ele>
        <time>2022-08-29T15:42:56.384Z</time>
      </trkpt>
      <trkpt lat="43.3357" lon="-1.37165">
        <ele>196.145078</ele>
        <time>2022-08-29T15:43:06.366Z</time>
      </trkpt>
      <trkpt lat="43.33561" lon="-1.37166">
        <ele>196.38061</ele>
        <time>2022-08-29T15:43:09.284Z</time>
      </trkpt>
      <trkpt lat="43.33491" lon="-1.37101">
        <ele>198.539622</ele>
        <time>2022-08-29T15:43:38.132Z</time>
      </trkpt>
      <trkpt lat="43.33424" lon="-1.37005">
        <ele>202.288281</ele>
        <time>2022-08-29T15:44:16.422Z</time>
      </trkpt>
      <trkpt lat="43.33415" lon="-1.36965">
        <ele>203.711333</ele>
        <time>2022-08-29T15:44:29.073Z</time>
      </trkpt>
      <trkpt lat="43.33405" lon="-1.3694">
        <ele>204.718561</ele>
        <time>2022-08-29T15:44:38.662Z</time>
      </trkpt>
      <trkpt lat="43.33354" lon="-1.36888">
        <ele>207.709889</ele>
        <time>2022-08-29T15:45:13.170Z</time>
      </trkpt>
      <trkpt lat="43.33322" lon="-1.36831">
        <ele>211.775939</ele>
        <time>2022-08-29T15:45:42.752Z</time>
      </trkpt>
      <trkpt lat="43.33293" lon="-1.36807">
        <ele>214.550104</ele>
        <time>2022-08-29T15:46:05.405Z</time>
      </trkpt>
      <trkpt lat="43.33279" lon="-1.36791">
        <ele>215.999171</ele>
        <time>2022-08-29T15:46:19.458Z</time>
      </trkpt>
      <trkpt lat="43.33277" lon="-1.36777">
        <ele>216.836442</ele>
        <time>2022-08-29T15:46:24.404Z</time>
      </trkpt>
      <trkpt lat="43.33286" lon="-1.36738">
        <ele>219.280345</ele>
        <time>2022-08-29T15:46:44.864Z</time>
      </trkpt>
      <trkpt lat="43.33284" lon="-1.36722">
        <ele>220.191031</ele>
        <time>2022-08-29T15:46:50.422Z</time>
      </trkpt>
      <trkpt lat="43.33255" lon="-1.36716">
        <ele>222.610939</ele>
        <time>2022-08-29T15:47:09.956Z</time>
      </trkpt>
      <trkpt lat="43.33235" lon="-1.367">
        <ele>224.814758</ele>
        <time>2022-08-29T15:47:27.203Z</time>
      </trkpt>
      <trkpt lat="43.33212" lon="-1.36634">
        <ele>229.784325</ele>
        <time>2022-08-29T15:48:06.517Z</time>
      </trkpt>
      <trkpt lat="43.33194" lon="-1.36609">
        <ele>232.228789</ele>
        <time>2022-08-29T15:48:25.555Z</time>
      </trkpt>
      <trkpt lat="43.33186" lon="-1.36573">
        <ele>234.779433</ele>
        <time>2022-08-29T15:48:45.943Z</time>
      </trkpt>
      <trkpt lat="43.33183" lon="-1.36532">
        <ele>237.626165</ele>
        <time>2022-08-29T15:49:08.348Z</time>
      </trkpt>
      <trkpt lat="43.33188" lon="-1.36468">
        <ele>241.305146</ele>
        <time>2022-08-29T15:49:37.476Z</time>
      </trkpt>
      <trkpt lat="43.3319" lon="-1.36451">
        <ele>242.102779</ele>
        <time>2022-08-29T15:49:46.486Z</time>
      </trkpt>
      <trkpt lat="43.33203" lon="-1.36425">
        <ele>243.569949</ele>
        <time>2022-08-29T15:49:57.341Z</time>
      </trkpt>
      <trkpt lat="43.33265" lon="-1.36327">
        <ele>249.805695</ele>
        <time>2022-08-29T15:50:50.422Z</time>
      </trkpt>
      <trkpt lat="43.33262" lon="-1.36295">
        <ele>251.33042</ele>
        <time>2022-08-29T15:51:03.075Z</time>
      </trkpt>
      <trkpt lat="43.33208" lon="-1.36249">
        <ele>254.166558</ele>
        <time>2022-08-29T15:51:28.116Z</time>
      </trkpt>
      <trkpt lat="43.33195" lon="-1.36222">
        <ele>255.206704</ele>
        <time>2022-08-29T15:51:37.343Z</time>
      </trkpt>
      <trkpt lat="43.33134" lon="-1.36132">
        <ele>259.206787</ele>
        <time>2022-08-29T15:52:17.877Z</time>
      </trkpt>
      <trkpt lat="43.33125" lon="-1.36113">
        <ele>260.152226</ele>
        <time>2022-08-29T15:52:26.231Z</time>
      </trkpt>
      <trkpt lat="43.33115" lon="-1.36014">
        <ele>264.434389</ele>
        <time>2022-08-29T15:53:06.729Z</time>
      </trkpt>
      <trkpt lat="43.33055" lon="-1.35951">
        <ele>268.954445</ele>
        <time>2022-08-29T15:53:49.955Z</time>
      </trkpt>
      <trkpt lat="43.33041" lon="-1.35922">
        <ele>270.137919</ele>
        <time>2022-08-29T15:54:03.631Z</time>
      </trkpt>
      <trkpt lat="43.33025" lon="-1.35823">
        <ele>271.281536</ele>
        <time>2022-08-29T15:54:33.063Z</time>
      </trkpt>
      <trkpt lat="43.33012" lon="-1.35779">
        <ele>271.811686</ele>
        <time>2022-08-29T15:54:43.134Z</time>
      </trkpt>
      <trkpt lat="43.33001" lon="-1.35764">
        <ele>272.050401</ele>
        <time>2022-08-29T15:54:47.211Z</time>
      </trkpt>
      <trkpt lat="43.32965" lon="-1.35752">
        <ele>272.629114</ele>
        <time>2022-08-29T15:54:55.312Z</time>
      </trkpt>
      <trkpt lat="43.32956" lon="-1.35748">
        <ele>272.772172</ele>
        <time>2022-08-29T15:54:57.167Z</time>
      </trkpt>
      <trkpt lat="43.32948" lon="-1.35729">
        <ele>272.190029</ele>
        <time>2022-08-29T15:55:00.065Z</time>
      </trkpt>
      <trkpt lat="43.32912" lon="-1.35551">
        <ele>265.671694</ele>
        <time>2022-08-29T15:55:22.519Z</time>
      </trkpt>
      <trkpt lat="43.32911" lon="-1.35515">
        <ele>264.40479</ele>
        <time>2022-08-29T15:55:26.644Z</time>
      </trkpt>
      <trkpt lat="43.32921" lon="-1.35474">
        <ele>262.102052</ele>
        <time>2022-08-29T15:55:31.593Z</time>
      </trkpt>
      <trkpt lat="43.32918" lon="-1.35458">
        <ele>261.141756</ele>
        <time>2022-08-29T15:55:33.432Z</time>
      </trkpt>
      <trkpt lat="43.32884" lon="-1.35399">
        <ele>256.797132</ele>
        <time>2022-08-29T15:55:41.953Z</time>
      </trkpt>
      <trkpt lat="43.32825" lon="-1.35392">
        <ele>252.153423</ele>
        <time>2022-08-29T15:55:50.820Z</time>
      </trkpt>
      <trkpt lat="43.32806" lon="-1.35382">
        <ele>250.500798</ele>
        <time>2022-08-29T15:55:53.979Z</time>
      </trkpt>
      <trkpt lat="43.32776" lon="-1.35354">
        <ele>247.358289</ele>
        <time>2022-08-29T15:55:59.488Z</time>
      </trkpt>
      <trkpt lat="43.32691" lon="-1.35334">
        <ele>239.827452</ele>
        <time>2022-08-29T15:56:12.501Z</time>
      </trkpt>
      <trkpt lat="43.32639" lon="-1.35312">
        <ele>235.000757</ele>
        <time>2022-08-29T15:56:20.871Z</time>
      </trkpt>
      <trkpt lat="43.32602" lon="-1.35308">
        <ele>231.386047</ele>
        <time>2022-08-29T15:56:26.410Z</time>
      </trkpt>
      <trkpt lat="43.32543" lon="-1.35311">
        <ele>225.238963</ele>
        <time>2022-08-29T15:56:35.249Z</time>
      </trkpt>
      <trkpt lat="43.32473" lon="-1.35296">
        <ele>217.927357</ele>
        <time>2022-08-29T15:56:45.690Z</time>
      </trkpt>
      <trkpt lat="43.32418" lon="-1.35259">
        <ele>211.462491</ele>
        <time>2022-08-29T15:56:54.627Z</time>
      </trkpt>
      <trkpt lat="43.3241" lon="-1.35249">
        <ele>210.352605</ele>
        <time>2022-08-29T15:56:56.177Z</time>
      </trkpt>
      <trkpt lat="43.32318" lon="-1.35024">
        <ele>190.369784</ele>
        <time>2022-08-29T15:57:23.843Z</time>
      </trkpt>
      <trkpt lat="43.32303" lon="-1.35004">
        <ele>188.198255</ele>
        <time>2022-08-29T15:57:27.004Z</time>
      </trkpt>
      <trkpt lat="43.32283" lon="-1.34982">
        <ele>185.527173</ele>
        <time>2022-08-29T15:57:30.874Z</time>
      </trkpt>
      <trkpt lat="43.32263" lon="-1.34972">
        <ele>183.350716</ele>
        <time>2022-08-29T15:57:34.083Z</time>
      </trkpt>
      <trkpt lat="43.32235" lon="-1.34972">
        <ele>180.468862</ele>
        <time>2022-08-29T15:57:38.229Z</time>
      </trkpt>
      <trkpt lat="43.32201" lon="-1.34956">
        <ele>176.649141</ele>
        <time>2022-08-29T15:57:43.481Z</time>
      </trkpt>
      <trkpt lat="43.32188" lon="-1.34958">
        <ele>175.117233</ele>
        <time>2022-08-29T15:57:45.399Z</time>
      </trkpt>
      <trkpt lat="43.32145" lon="-1.34981">
        <ele>169.970285</ele>
        <time>2022-08-29T15:57:52.019Z</time>
      </trkpt>
      <trkpt lat="43.32105" lon="-1.34983">
        <ele>165.447999</ele>
        <time>2022-08-29T15:57:57.983Z</time>
      </trkpt>
      <trkpt lat="43.32084" lon="-1.34994">
        <ele>162.974081</ele>
        <time>2022-08-29T15:58:01.218Z</time>
      </trkpt>
      <trkpt lat="43.32076" lon="-1.35045">
        <ele>158.735184</ele>
        <time>2022-08-29T15:58:06.800Z</time>
      </trkpt>
      <trkpt lat="43.32045" lon="-1.35074">
        <ele>154.440962</ele>
        <time>2022-08-29T15:58:12.226Z</time>
      </trkpt>
      <trkpt lat="43.32021" lon="-1.35083">
        <ele>151.483195</ele>
        <time>2022-08-29T15:58:15.907Z</time>
      </trkpt>
      <trkpt lat="43.31967" lon="-1.35066">
        <ele>145.112555</ele>
        <time>2022-08-29T15:58:23.820Z</time>
      </trkpt>
      <trkpt lat="43.31934" lon="-1.35106">
        <ele>140.087464</ele>
        <time>2022-08-29T15:58:30.200Z</time>
      </trkpt>
      <trkpt lat="43.3191" lon="-1.35132">
        <ele>136.53982</ele>
        <time>2022-08-29T15:58:34.843Z</time>
      </trkpt>
      <trkpt lat="43.31869" lon="-1.35157">
        <ele>131.839443</ele>
        <time>2022-08-29T15:58:41.325Z</time>
      </trkpt>
      <trkpt lat="43.31854" lon="-1.35146">
        <ele>129.974579</ele>
        <time>2022-08-29T15:58:44.065Z</time>
      </trkpt>
      <trkpt lat="43.31836" lon="-1.35129">
        <ele>127.705411</ele>
        <time>2022-08-29T15:58:47.104Z</time>
      </trkpt>
      <trkpt lat="43.31813" lon="-1.35124">
        <ele>125.278205</ele>
        <time>2022-08-29T15:58:50.504Z</time>
      </trkpt>
      <trkpt lat="43.31805" lon="-1.35121">
        <ele>124.316206</ele>
        <time>2022-08-29T15:58:51.759Z</time>
      </trkpt>
      <trkpt lat="43.31728" lon="-1.35042">
        <ele>115.791997</ele>
        <time>2022-08-29T15:59:06.165Z</time>
      </trkpt>
      <trkpt lat="43.31702" lon="-1.35028">
        <ele>114.258781</ele>
        <time>2022-08-29T15:59:10.491Z</time>
      </trkpt>
      <trkpt lat="43.31663" lon="-1.35018">
        <ele>112.162136</ele>
        <time>2022-08-29T15:59:16.678Z</time>
      </trkpt>
      <trkpt lat="43.31643" lon="-1.35026">
        <ele>111.029129</ele>
        <time>2022-08-29T15:59:20.170Z</time>
      </trkpt>
      <trkpt lat="43.31628" lon="-1.35031">
        <ele>110.195954</ele>
        <time>2022-08-29T15:59:22.764Z</time>
      </trkpt>
      <trkpt lat="43.31614" lon="-1.35035">
        <ele>109.462239</ele>
        <time>2022-08-29T15:59:25.193Z</time>
      </trkpt>
      <trkpt lat="43.31596" lon="-1.34958">
        <ele>108.474766</ele>
        <time>2022-08-29T15:59:36.162Z</time>
      </trkpt>
      <trkpt lat="43.31574" lon="-1.34865">
        <ele>110.463303</ele>
        <time>2022-08-29T16:00:02.535Z</time>
      </trkpt>
      <trkpt lat="43.3156" lon="-1.34808">
        <ele>111.684458</ele>
        <time>2022-08-29T16:00:22.892Z</time>
      </trkpt>
      <trkpt lat="43.31555" lon="-1.34791">
        <ele>112.039302</ele>
        <time>2022-08-29T16:00:29.333Z</time>
      </trkpt>
      <trkpt lat="43.31552" lon="-1.34776">
        <ele>112.366623</ele>
        <time>2022-08-29T16:00:35.193Z</time>
      </trkpt>
      <trkpt lat="43.31511" lon="-1.3458">
        <ele>118.365016</ele>
        <time>2022-08-29T16:01:43.399Z</time>
      </trkpt>
      <trkpt lat="43.31503" lon="-1.3451">
        <ele>120.370575</ele>
        <time>2022-08-29T16:02:01.575Z</time>
      </trkpt>
      <trkpt lat="43.31502" lon="-1.345">
        <ele>120.524502</ele>
        <time>2022-08-29T16:02:04.124Z</time>
      </trkpt>
      <trkpt lat="43.31495" lon="-1.34446">
        <ele>121.384029</ele>
        <time>2022-08-29T16:02:17.935Z</time>
      </trkpt>
      <trkpt lat="43.31487" lon="-1.34387">
        <ele>122.306421</ele>
        <time>2022-08-29T16:02:32.147Z</time>
      </trkpt>
      <trkpt lat="43.31475" lon="-1.34331">
        <ele>123.218152</ele>
        <time>2022-08-29T16:02:45.111Z</time>
      </trkpt>
      <trkpt lat="43.31441" lon="-1.3425">
        <ele>125.082111</ele>
        <time>2022-08-29T16:03:05.517Z</time>
      </trkpt>
      <trkpt lat="43.31406" lon="-1.3418">
        <ele>127.337912</ele>
        <time>2022-08-29T16:03:27.417Z</time>
      </trkpt>
      <trkpt lat="43.31374" lon="-1.34074">
        <ele>130.38624</ele>
        <time>2022-08-29T16:04:06.022Z</time>
      </trkpt>
      <trkpt lat="43.3135" lon="-1.34025">
        <ele>132.352177</ele>
        <time>2022-08-29T16:04:29.078Z</time>
      </trkpt>
      <trkpt lat="43.31284" lon="-1.33887">
        <ele>138.007001</ele>
        <time>2022-08-29T16:05:28.101Z</time>
      </trkpt>
      <trkpt lat="43.31268" lon="-1.33828">
        <ele>138.43562</ele>
        <time>2022-08-29T16:05:45.060Z</time>
      </trkpt>
      <trkpt lat="43.3127" lon="-1.33742">
        <ele>136.618116</ele>
        <time>2022-08-29T16:05:57.904Z</time>
      </trkpt>
      <trkpt lat="43.31251" lon="-1.33603">
        <ele>133.433484</ele>
        <time>2022-08-29T16:06:13.539Z</time>
      </trkpt>
      <trkpt lat="43.31252" lon="-1.33565">
        <ele>131.952606</ele>
        <time>2022-08-29T16:06:17.596Z</time>
      </trkpt>
      <trkpt lat="43.31257" lon="-1.33541">
        <ele>130.959979</ele>
        <time>2022-08-29T16:06:20.300Z</time>
      </trkpt>
      <trkpt lat="43.3131" lon="-1.3343">
        <ele>125.705137</ele>
        <time>2022-08-29T16:06:35.315Z</time>
      </trkpt>
      <trkpt lat="43.31319" lon="-1.33399">
        <ele>124.416213</ele>
        <time>2022-08-29T16:06:39.397Z</time>
      </trkpt>
      <trkpt lat="43.31326" lon="-1.33283">
        <ele>124.141231</ele>
        <time>2022-08-29T16:06:55.723Z</time>
      </trkpt>
      <trkpt lat="43.31331" lon="-1.33265">
        <ele>124.139277</ele>
        <time>2022-08-29T16:06:59.871Z</time>
      </trkpt>
      <trkpt lat="43.31378" lon="-1.33182">
        <ele>124.128277</ele>
        <time>2022-08-29T16:07:22.846Z</time>
      </trkpt>
      <trkpt lat="43.31385" lon="-1.33151">
        <ele>124.44677</ele>
        <time>2022-08-29T16:07:30.736Z</time>
      </trkpt>
      <trkpt lat="43.31386" lon="-1.33074">
        <ele>125.671609</ele>
        <time>2022-08-29T16:07:49.838Z</time>
      </trkpt>
      <trkpt lat="43.31396" lon="-1.33017">
        <ele>126.59815</ele>
        <time>2022-08-29T16:08:04.147Z</time>
      </trkpt>
      <trkpt lat="43.31406" lon="-1.32972">
        <ele>127.352003</ele>
        <time>2022-08-29T16:08:15.767Z</time>
      </trkpt>
      <trkpt lat="43.31415" lon="-1.32933">
        <ele>127.996815</ele>
        <time>2022-08-29T16:08:25.489Z</time>
      </trkpt>
      <trkpt lat="43.31416" lon="-1.32806">
        <ele>129.81098</ele>
        <time>2022-08-29T16:08:55.687Z</time>
      </trkpt>
      <trkpt lat="43.31444" lon="-1.32666">
        <ele>131.935678</ele>
        <time>2022-08-29T16:09:27.899Z</time>
      </trkpt>
      <trkpt lat="43.31448" lon="-1.32606">
        <ele>133.026675</ele>
        <time>2022-08-29T16:09:42.522Z</time>
      </trkpt>
      <trkpt lat="43.31445" lon="-1.32563">
        <ele>133.799324</ele>
        <time>2022-08-29T16:09:53.744Z</time>
      </trkpt>
      <trkpt lat="43.31442" lon="-1.3249">
        <ele>135.101186</ele>
        <time>2022-08-29T16:10:12.305Z</time>
      </trkpt>
      <trkpt lat="43.31453" lon="-1.32453">
        <ele>135.826713</ele>
        <time>2022-08-29T16:10:22.479Z</time>
      </trkpt>
      <trkpt lat="43.31481" lon="-1.3239">
        <ele>137.684555</ele>
        <time>2022-08-29T16:10:42.940Z</time>
      </trkpt>
      <trkpt lat="43.31559" lon="-1.3226">
        <ele>142.073376</ele>
        <time>2022-08-29T16:11:35.810Z</time>
      </trkpt>
      <trkpt lat="43.31576" lon="-1.32216">
        <ele>143.132241</ele>
        <time>2022-08-29T16:11:49.114Z</time>
      </trkpt>
      <trkpt lat="43.31577" lon="-1.32164">
        <ele>144.140482</ele>
        <time>2022-08-29T16:12:02.157Z</time>
      </trkpt>
      <trkpt lat="43.31567" lon="-1.32136">
        <ele>144.739956</ele>
        <time>2022-08-29T16:12:09.874Z</time>
      </trkpt>
      <trkpt lat="43.31532" lon="-1.32076">
        <ele>146.244929</ele>
        <time>2022-08-29T16:12:30.223Z</time>
      </trkpt>
      <trkpt lat="43.31506" lon="-1.32017">
        <ele>147.476057</ele>
        <time>2022-08-29T16:12:47.139Z</time>
      </trkpt>
      <trkpt lat="43.31435" lon="-1.31829">
        <ele>150.403692</ele>
        <time>2022-08-29T16:13:33.529Z</time>
      </trkpt>
      <trkpt lat="43.3142" lon="-1.31765">
        <ele>151.785077</ele>
        <time>2022-08-29T16:13:50.289Z</time>
      </trkpt>
      <trkpt lat="43.31375" lon="-1.31537">
        <ele>157.745693</ele>
        <time>2022-08-29T16:14:58.417Z</time>
      </trkpt>
      <trkpt lat="43.3137" lon="-1.31465">
        <ele>160.285801</ele>
        <time>2022-08-29T16:15:22.412Z</time>
      </trkpt>
      <trkpt lat="43.31371" lon="-1.31399">
        <ele>162.621001</ele>
        <time>2022-08-29T16:15:45.672Z</time>
      </trkpt>
      <trkpt lat="43.31401" lon="-1.31275">
        <ele>167.321524</ele>
        <time>2022-08-29T16:16:33.303Z</time>
      </trkpt>
      <trkpt lat="43.31402" lon="-1.31252">
        <ele>168.164464</ele>
        <time>2022-08-29T16:16:42.606Z</time>
      </trkpt>
      <trkpt lat="43.31401" lon="-1.31232">
        <ele>168.924389</ele>
        <time>2022-08-29T16:16:50.096Z</time>
      </trkpt>
      <trkpt lat="43.31383" lon="-1.31197">
        <ele>170.478734</ele>
        <time>2022-08-29T16:17:05.381Z</time>
      </trkpt>
      <trkpt lat="43.31349" lon="-1.31131">
        <ele>173.432429</ele>
        <time>2022-08-29T16:17:31.634Z</time>
      </trkpt>
      <trkpt lat="43.31346" lon="-1.31116">
        <ele>173.994999</ele>
        <time>2022-08-29T16:17:36.085Z</time>
      </trkpt>
      <trkpt lat="43.31345" lon="-1.31082">
        <ele>174.953054</ele>
        <time>2022-08-29T16:17:46.476Z</time>
      </trkpt>
      <trkpt lat="43.31339" lon="-1.31056">
        <ele>175.705427</ele>
        <time>2022-08-29T16:17:54.397Z</time>
      </trkpt>
      <trkpt lat="43.31326" lon="-1.31039">
        <ele>176.374439</ele>
        <time>2022-08-29T16:18:01.988Z</time>
      </trkpt>
      <trkpt lat="43.31263" lon="-1.30987">
        <ele>179.074646</ele>
        <time>2022-08-29T16:18:29.292Z</time>
      </trkpt>
      <trkpt lat="43.31244" lon="-1.30963">
        <ele>180.045389</ele>
        <time>2022-08-29T16:18:39.978Z</time>
      </trkpt>
      <trkpt lat="43.31217" lon="-1.30905">
        <ele>182.896174</ele>
        <time>2022-08-29T16:19:00.428Z</time>
      </trkpt>
      <trkpt lat="43.31204" lon="-1.30854">
        <ele>185.818392</ele>
        <time>2022-08-29T16:19:20.425Z</time>
      </trkpt>
      <trkpt lat="43.31206" lon="-1.30759">
        <ele>190.953519</ele>
        <time>2022-08-29T16:20:03.897Z</time>
      </trkpt>
      <trkpt lat="43.31221" lon="-1.3059">
        <ele>202.035433</ele>
        <time>2022-08-29T16:21:35.981Z</time>
      </trkpt>
      <trkpt lat="43.31221" lon="-1.30525">
        <ele>206.664015</ele>
        <time>2022-08-29T16:22:11.496Z</time>
      </trkpt>
      <trkpt lat="43.31207" lon="-1.30471">
        <ele>210.752061</ele>
        <time>2022-08-29T16:22:40.450Z</time>
      </trkpt>
      <trkpt lat="43.3117" lon="-1.30423">
        <ele>215.178193</ele>
        <time>2022-08-29T16:23:12.649Z</time>
      </trkpt>
      <trkpt lat="43.3115" lon="-1.3039">
        <ele>217.732536</ele>
        <time>2022-08-29T16:23:30.501Z</time>
      </trkpt>
      <trkpt lat="43.3114" lon="-1.3034">
        <ele>220.899489</ele>
        <time>2022-08-29T16:23:55.325Z</time>
      </trkpt>
      <trkpt lat="43.31163" lon="-1.30189">
        <ele>230.53472</ele>
        <time>2022-08-29T16:25:06.045Z</time>
      </trkpt>
      <trkpt lat="43.31173" lon="-1.30143">
        <ele>233.701629</ele>
        <time>2022-08-29T16:25:31.690Z</time>
      </trkpt>
      <trkpt lat="43.31188" lon="-1.301">
        <ele>236.854906</ele>
        <time>2022-08-29T16:25:57.358Z</time>
      </trkpt>
      <trkpt lat="43.31247" lon="-1.30019">
        <ele>243.784083</ele>
        <time>2022-08-29T16:26:52.445Z</time>
      </trkpt>
      <trkpt lat="43.31255" lon="-1.2999">
        <ele>244.975046</ele>
        <time>2022-08-29T16:27:08.779Z</time>
      </trkpt>
      <trkpt lat="43.31248" lon="-1.29942">
        <ele>246.870763</ele>
        <time>2022-08-29T16:27:26.246Z</time>
      </trkpt>
      <trkpt lat="43.31223" lon="-1.29889">
        <ele>249.339342</ele>
        <time>2022-08-29T16:27:45.486Z</time>
      </trkpt>
      <trkpt lat="43.31213" lon="-1.29848">
        <ele>250.990331</ele>
        <time>2022-08-29T16:27:59.833Z</time>
      </trkpt>
      <trkpt lat="43.31211" lon="-1.2973">
        <ele>253.917532</ele>
        <time>2022-08-29T16:28:31.229Z</time>
      </trkpt>
      <trkpt lat="43.31217" lon="-1.29596">
        <ele>256.253014</ele>
        <time>2022-08-29T16:29:02.006Z</time>
      </trkpt>
      <trkpt lat="43.31215" lon="-1.29533">
        <ele>257.408356</ele>
        <time>2022-08-29T16:29:17.468Z</time>
      </trkpt>
      <trkpt lat="43.3118" lon="-1.2925">
        <ele>263.442153</ele>
        <time>2022-08-29T16:30:32.315Z</time>
      </trkpt>
      <trkpt lat="43.31169" lon="-1.29202">
        <ele>264.818344</ele>
        <time>2022-08-29T16:30:47.152Z</time>
      </trkpt>
      <trkpt lat="43.31152" lon="-1.29165">
        <ele>266.015006</ele>
        <time>2022-08-29T16:31:00.649Z</time>
      </trkpt>
      <trkpt lat="43.31136" lon="-1.29131">
        <ele>267.094704</ele>
        <time>2022-08-29T16:31:13.183Z</time>
      </trkpt>
      <trkpt lat="43.31091" lon="-1.28952">
        <ele>272.974078</ele>
        <time>2022-08-29T16:32:15.649Z</time>
      </trkpt>
      <trkpt lat="43.31085" lon="-1.28911">
        <ele>274.326943</ele>
        <time>2022-08-29T16:32:29.193Z</time>
      </trkpt>
      <trkpt lat="43.31081" lon="-1.28809">
        <ele>277.53769</ele>
        <time>2022-08-29T16:33:01.333Z</time>
      </trkpt>
      <trkpt lat="43.31075" lon="-1.28773">
        <ele>278.654826</ele>
        <time>2022-08-29T16:33:12.542Z</time>
      </trkpt>
      <trkpt lat="43.31051" lon="-1.28684">
        <ele>281.550196</ele>
        <time>2022-08-29T16:33:41.445Z</time>
      </trkpt>
      <trkpt lat="43.30996" lon="-1.28521">
        <ele>287.571258</ele>
        <time>2022-08-29T16:34:40.308Z</time>
      </trkpt>
      <trkpt lat="43.30951" lon="-1.28353">
        <ele>293.532008</ele>
        <time>2022-08-29T16:35:43.354Z</time>
      </trkpt>
      <trkpt lat="43.30939" lon="-1.28307">
        <ele>294.740497</ele>
        <time>2022-08-29T16:36:00.381Z</time>
      </trkpt>
      <trkpt lat="43.30892" lon="-1.28137">
        <ele>298.749238</ele>
        <time>2022-08-29T16:36:47.894Z</time>
      </trkpt>
      <trkpt lat="43.30885" lon="-1.28101">
        <ele>298.816468</ele>
        <time>2022-08-29T16:36:54.989Z</time>
      </trkpt>
      <trkpt lat="43.30853" lon="-1.27943">
        <ele>299.108482</ele>
        <time>2022-08-29T16:37:20.603Z</time>
      </trkpt>
      <trkpt lat="43.30818" lon="-1.27762">
        <ele>297.894458</ele>
        <time>2022-08-29T16:37:47.933Z</time>
      </trkpt>
      <trkpt lat="43.30805" lon="-1.27599">
        <ele>295.436595</ele>
        <time>2022-08-29T16:38:10.876Z</time>
      </trkpt>
      <trkpt lat="43.30769" lon="-1.27361">
        <ele>289.157166</ele>
        <time>2022-08-29T16:38:40.088Z</time>
      </trkpt>
      <trkpt lat="43.30768" lon="-1.27017">
        <ele>278.228609</ele>
        <time>2022-08-29T16:39:20.012Z</time>
      </trkpt>
      <trkpt lat="43.30755" lon="-1.26946">
        <ele>275.972683</ele>
        <time>2022-08-29T16:39:29.119Z</time>
      </trkpt>
      <trkpt lat="43.30742" lon="-1.26904">
        <ele>275.341217</ele>
        <time>2022-08-29T16:39:34.856Z</time>
      </trkpt>
      <trkpt lat="43.30724" lon="-1.26867">
        <ele>274.757075</ele>
        <time>2022-08-29T16:39:40.619Z</time>
      </trkpt>
      <trkpt lat="43.30701" lon="-1.26841">
        <ele>274.215698</ele>
        <time>2022-08-29T16:39:46.147Z</time>
      </trkpt>
      <trkpt lat="43.30623" lon="-1.26772">
        <ele>272.732952</ele>
        <time>2022-08-29T16:40:04.458Z</time>
      </trkpt>
      <trkpt lat="43.30564" lon="-1.26714">
        <ele>273.466518</ele>
        <time>2022-08-29T16:40:19.874Z</time>
      </trkpt>
      <trkpt lat="43.30554" lon="-1.267">
        <ele>273.616998</ele>
        <time>2022-08-29T16:40:23.738Z</time>
      </trkpt>
      <trkpt lat="43.30542" lon="-1.26663">
        <ele>273.913193</ele>
        <time>2022-08-29T16:40:32.734Z</time>
      </trkpt>
      <trkpt lat="43.30541" lon="-1.26557">
        <ele>274.822372</ele>
        <time>2022-08-29T16:41:00.823Z</time>
      </trkpt>
      <trkpt lat="43.30553" lon="-1.26501">
        <ele>275.514143</ele>
        <time>2022-08-29T16:41:17.341Z</time>
      </trkpt>
      <trkpt lat="43.30573" lon="-1.2644">
        <ele>276.295315</ele>
        <time>2022-08-29T16:41:33.621Z</time>
      </trkpt>
      <trkpt lat="43.3058" lon="-1.26402">
        <ele>276.758815</ele>
        <time>2022-08-29T16:41:41.351Z</time>
      </trkpt>
      <trkpt lat="43.30559" lon="-1.26291">
        <ele>276.070145</ele>
        <time>2022-08-29T16:41:59.009Z</time>
      </trkpt>
      <trkpt lat="43.30558" lon="-1.2628">
        <ele>275.830106</ele>
        <time>2022-08-29T16:42:00.491Z</time>
      </trkpt>
      <trkpt lat="43.30558" lon="-1.26244">
        <ele>275.029722</ele>
        <time>2022-08-29T16:42:05.004Z</time>
      </trkpt>
      <trkpt lat="43.30578" lon="-1.26138">
        <ele>272.597935</ele>
        <time>2022-08-29T16:42:18.116Z</time>
      </trkpt>
      <trkpt lat="43.3058" lon="-1.26096">
        <ele>271.498056</ele>
        <time>2022-08-29T16:42:22.861Z</time>
      </trkpt>
      <trkpt lat="43.30567" lon="-1.25964">
        <ele>266.520536</ele>
        <time>2022-08-29T16:42:37.955Z</time>
      </trkpt>
      <trkpt lat="43.30567" lon="-1.25882">
        <ele>263.448467</ele>
        <time>2022-08-29T16:42:47.381Z</time>
      </trkpt>
      <trkpt lat="43.30568" lon="-1.25855">
        <ele>262.420329</ele>
        <time>2022-08-29T16:42:50.703Z</time>
      </trkpt>
      <trkpt lat="43.30587" lon="-1.25498">
        <ele>251.077619</ele>
        <time>2022-08-29T16:43:32.338Z</time>
      </trkpt>
      <trkpt lat="43.30577" lon="-1.25429">
        <ele>249.246268</ele>
        <time>2022-08-29T16:43:40.984Z</time>
      </trkpt>
      <trkpt lat="43.30561" lon="-1.25392">
        <ele>248.124865</ele>
        <time>2022-08-29T16:43:46.547Z</time>
      </trkpt>
      <trkpt lat="43.30553" lon="-1.2536">
        <ele>247.727625</ele>
        <time>2022-08-29T16:43:51.139Z</time>
      </trkpt>
      <trkpt lat="43.30546" lon="-1.25352">
        <ele>247.765376</ele>
        <time>2022-08-29T16:43:52.928Z</time>
      </trkpt>
      <trkpt lat="43.3055" lon="-1.25341">
        <ele>247.802806</ele>
        <time>2022-08-29T16:43:54.787Z</time>
      </trkpt>
      <trkpt lat="43.30533" lon="-1.25318">
        <ele>247.904187</ele>
        <time>2022-08-29T16:43:59.695Z</time>
      </trkpt>
      <trkpt lat="43.30426" lon="-1.25226">
        <ele>248.435681</ele>
        <time>2022-08-29T16:44:33.800Z</time>
      </trkpt>
      <trkpt lat="43.30367" lon="-1.25163">
        <ele>250.978791</ele>
        <time>2022-08-29T16:45:02.670Z</time>
      </trkpt>
      <trkpt lat="43.3035" lon="-1.2513">
        <ele>251.956801</ele>
        <time>2022-08-29T16:45:14.762Z</time>
      </trkpt>
      <trkpt lat="43.30329" lon="-1.25047">
        <ele>254.109776</ele>
        <time>2022-08-29T16:45:41.323Z</time>
      </trkpt>
      <trkpt lat="43.30309" lon="-1.2501">
        <ele>255.806858</ele>
        <time>2022-08-29T16:45:54.800Z</time>
      </trkpt>
      <trkpt lat="43.30291" lon="-1.24989">
        <ele>257.191437</ele>
        <time>2022-08-29T16:46:05.236Z</time>
      </trkpt>
      <trkpt lat="43.30234" lon="-1.24961">
        <ele>260.783987</ele>
        <time>2022-08-29T16:46:34.479Z</time>
      </trkpt>
      <trkpt lat="43.30215" lon="-1.24957">
        <ele>261.946806</ele>
        <time>2022-08-29T16:46:45.956Z</time>
      </trkpt>
      <trkpt lat="43.30179" lon="-1.24968">
        <ele>264.101495</ele>
        <time>2022-08-29T16:47:08.910Z</time>
      </trkpt>
      <trkpt lat="43.30127" lon="-1.25">
        <ele>267.653976</ele>
        <time>2022-08-29T16:47:44.861Z</time>
      </trkpt>
      <trkpt lat="43.30092" lon="-1.25003">
        <ele>269.898584</ele>
        <time>2022-08-29T16:48:05.320Z</time>
      </trkpt>
      <trkpt lat="43.3006" lon="-1.24992">
        <ele>271.967733</ele>
        <time>2022-08-29T16:48:23.203Z</time>
      </trkpt>
      <trkpt lat="43.30054" lon="-1.24987">
        <ele>272.441984</ele>
        <time>2022-08-29T16:48:27.172Z</time>
      </trkpt>
      <trkpt lat="43.29986" lon="-1.24925">
        <ele>276.591751</ele>
        <time>2022-08-29T16:49:07.657Z</time>
      </trkpt>
      <trkpt lat="43.29953" lon="-1.2489">
        <ele>276.661112</ele>
        <time>2022-08-29T16:49:22.994Z</time>
      </trkpt>
      <trkpt lat="43.29901" lon="-1.24804">
        <ele>276.79436</ele>
        <time>2022-08-29T16:49:39.182Z</time>
      </trkpt>
      <trkpt lat="43.29867" lon="-1.24763">
        <ele>276.643478</ele>
        <time>2022-08-29T16:49:46.956Z</time>
      </trkpt>
      <trkpt lat="43.29838" lon="-1.24747">
        <ele>275.121674</ele>
        <time>2022-08-29T16:49:52.313Z</time>
      </trkpt>
      <trkpt lat="43.29763" lon="-1.24729">
        <ele>271.523011</ele>
        <time>2022-08-29T16:50:04.494Z</time>
      </trkpt>
      <trkpt lat="43.29742" lon="-1.24712">
        <ele>270.365292</ele>
        <time>2022-08-29T16:50:08.282Z</time>
      </trkpt>
      <trkpt lat="43.29695" lon="-1.24642">
        <ele>266.453838</ele>
        <time>2022-08-29T16:50:19.004Z</time>
      </trkpt>
      <trkpt lat="43.29642" lon="-1.24579">
        <ele>261.635272</ele>
        <time>2022-08-29T16:50:29.458Z</time>
      </trkpt>
      <trkpt lat="43.29626" lon="-1.2455">
        <ele>259.786775</ele>
        <time>2022-08-29T16:50:33.463Z</time>
      </trkpt>
      <trkpt lat="43.29594" lon="-1.24449">
        <ele>253.608345</ele>
        <time>2022-08-29T16:50:45.369Z</time>
      </trkpt>
      <trkpt lat="43.29566" lon="-1.24402">
        <ele>249.426181</ele>
        <time>2022-08-29T16:50:51.780Z</time>
      </trkpt>
      <trkpt lat="43.29528" lon="-1.24364">
        <ele>245.010826</ele>
        <time>2022-08-29T16:50:58.420Z</time>
      </trkpt>
      <trkpt lat="43.29497" lon="-1.24311">
        <ele>240.355904</ele>
        <time>2022-08-29T16:51:05.389Z</time>
      </trkpt>
      <trkpt lat="43.29476" lon="-1.24273">
        <ele>237.096796</ele>
        <time>2022-08-29T16:51:10.343Z</time>
      </trkpt>
      <trkpt lat="43.29447" lon="-1.2422">
        <ele>232.612147</ele>
        <time>2022-08-29T16:51:17.180Z</time>
      </trkpt>
      <trkpt lat="43.29411" lon="-1.24181">
        <ele>228.398665</ele>
        <time>2022-08-29T16:51:23.614Z</time>
      </trkpt>
      <trkpt lat="43.29393" lon="-1.24175">
        <ele>226.656893</ele>
        <time>2022-08-29T16:51:26.297Z</time>
      </trkpt>
      <trkpt lat="43.29272" lon="-1.24167">
        <ele>218.33715</ele>
        <time>2022-08-29T16:51:44.473Z</time>
      </trkpt>
      <trkpt lat="43.29246" lon="-1.24151">
        <ele>216.84662</ele>
        <time>2022-08-29T16:51:48.984Z</time>
      </trkpt>
      <trkpt lat="43.29182" lon="-1.24087">
        <ele>212.690635</ele>
        <time>2022-08-29T16:52:02.155Z</time>
      </trkpt>
      <trkpt lat="43.29167" lon="-1.24082">
        <ele>212.062625</ele>
        <time>2022-08-29T16:52:04.831Z</time>
      </trkpt>
      <trkpt lat="43.29103" lon="-1.24101">
        <ele>209.405513</ele>
        <time>2022-08-29T16:52:15.861Z</time>
      </trkpt>
      <trkpt lat="43.29064" lon="-1.24095">
        <ele>207.813711</ele>
        <time>2022-08-29T16:52:22.461Z</time>
      </trkpt>
      <trkpt lat="43.28794" lon="-1.24013">
        <ele>195.833229</ele>
        <time>2022-08-29T16:53:06.560Z</time>
      </trkpt>
      <trkpt lat="43.28685" lon="-1.23958">
        <ele>192.347379</ele>
        <time>2022-08-29T16:53:26.828Z</time>
      </trkpt>
      <trkpt lat="43.28645" lon="-1.23935">
        <ele>191.282478</ele>
        <time>2022-08-29T16:53:35.106Z</time>
      </trkpt>
      <trkpt lat="43.28617" lon="-1.23911">
        <ele>190.784676</ele>
        <time>2022-08-29T16:53:41.351Z</time>
      </trkpt>
      <trkpt lat="43.28455" lon="-1.23713">
        <ele>187.12436</ele>
        <time>2022-08-29T16:54:22.746Z</time>
      </trkpt>
      <trkpt lat="43.28443" lon="-1.23704">
        <ele>186.850763</ele>
        <time>2022-08-29T16:54:25.377Z</time>
      </trkpt>
      <trkpt lat="43.28396" lon="-1.23702">
        <ele>185.953396</ele>
        <time>2022-08-29T16:54:33.940Z</time>
      </trkpt>
      <trkpt lat="43.28325" lon="-1.2374">
        <ele>184.600206</ele>
        <time>2022-08-29T16:54:47.341Z</time>
      </trkpt>
      <trkpt lat="43.28282" lon="-1.23748">
        <ele>183.875206</ele>
        <time>2022-08-29T16:54:55.136Z</time>
      </trkpt>
      <trkpt lat="43.28239" lon="-1.23736">
        <ele>183.126716</ele>
        <time>2022-08-29T16:55:03.593Z</time>
      </trkpt>
      <trkpt lat="43.28204" lon="-1.23714">
        <ele>182.479874</ele>
        <time>2022-08-29T16:55:11.428Z</time>
      </trkpt>
      <trkpt lat="43.28144" lon="-1.23682">
        <ele>182.207552</ele>
        <time>2022-08-29T16:55:24.680Z</time>
      </trkpt>
      <trkpt lat="43.28082" lon="-1.23691">
        <ele>182.09242</ele>
        <time>2022-08-29T16:55:37.680Z</time>
      </trkpt>
      <trkpt lat="43.2805" lon="-1.23702">
        <ele>182.030455</ele>
        <time>2022-08-29T16:55:45.752Z</time>
      </trkpt>
      <trkpt lat="43.28006" lon="-1.23719">
        <ele>182.051181</ele>
        <time>2022-08-29T16:55:57.381Z</time>
      </trkpt>
      <trkpt lat="43.27965" lon="-1.23719">
        <ele>182.257227</ele>
        <time>2022-08-29T16:56:07.664Z</time>
      </trkpt>
      <trkpt lat="43.27757" lon="-1.23642">
        <ele>183.255013</ele>
        <time>2022-08-29T16:57:00.741Z</time>
      </trkpt>
      <trkpt lat="43.27665" lon="-1.23585">
        <ele>183.539315</ele>
        <time>2022-08-29T16:57:25.611Z</time>
      </trkpt>
      <trkpt lat="43.27643" lon="-1.23578">
        <ele>183.403804</ele>
        <time>2022-08-29T16:57:30.920Z</time>
      </trkpt>
      <trkpt lat="43.27596" lon="-1.23564">
        <ele>183.120946</ele>
        <time>2022-08-29T16:57:40.774Z</time>
      </trkpt>
      <trkpt lat="43.27497" lon="-1.23495">
        <ele>182.455932</ele>
        <time>2022-08-29T16:58:02.810Z</time>
      </trkpt>
      <trkpt lat="43.27477" lon="-1.23475">
        <ele>182.310854</ele>
        <time>2022-08-29T16:58:07.519Z</time>
      </trkpt>
      <trkpt lat="43.27455" lon="-1.23447">
        <ele>182.130917</ele>
        <time>2022-08-29T16:58:13.604Z</time>
      </trkpt>
      <trkpt lat="43.27434" lon="-1.23402">
        <ele>181.899011</ele>
        <time>2022-08-29T16:58:21.688Z</time>
      </trkpt>
      <trkpt lat="43.27418" lon="-1.23384">
        <ele>181.775917</ele>
        <time>2022-08-29T16:58:26.098Z</time>
      </trkpt>
      <trkpt lat="43.27317" lon="-1.23295">
        <ele>181.256866</ele>
        <time>2022-08-29T16:58:52.456Z</time>
      </trkpt>
      <trkpt lat="43.2725" lon="-1.23264">
        <ele>181.034625</ele>
        <time>2022-08-29T16:59:07.761Z</time>
      </trkpt>
      <trkpt lat="43.27194" lon="-1.2322">
        <ele>180.800455</ele>
        <time>2022-08-29T16:59:21.104Z</time>
      </trkpt>
      <trkpt lat="43.27152" lon="-1.23178">
        <ele>180.579661</ele>
        <time>2022-08-29T16:59:31.205Z</time>
      </trkpt>
      <trkpt lat="43.27044" lon="-1.2301">
        <ele>181.630877</ele>
        <time>2022-08-29T17:00:06.981Z</time>
      </trkpt>
      <trkpt lat="43.26998" lon="-1.22961">
        <ele>183.075432</ele>
        <time>2022-08-29T17:00:26.856Z</time>
      </trkpt>
      <trkpt lat="43.26817" lon="-1.22884">
        <ele>191.360195</ele>
        <time>2022-08-29T17:01:57.448Z</time>
      </trkpt>
      <trkpt lat="43.26748" lon="-1.22849">
        <ele>195.009326</ele>
        <time>2022-08-29T17:02:35.764Z</time>
      </trkpt>
      <trkpt lat="43.26713" lon="-1.22826">
        <ele>196.682428</ele>
        <time>2022-08-29T17:02:54.137Z</time>
      </trkpt>
      <trkpt lat="43.2665" lon="-1.22791">
        <ele>199.588134</ele>
        <time>2022-08-29T17:03:23.236Z</time>
      </trkpt>
      <trkpt lat="43.26625" lon="-1.22783">
        <ele>200.689009</ele>
        <time>2022-08-29T17:03:32.823Z</time>
      </trkpt>
      <trkpt lat="43.26487" lon="-1.22776">
        <ele>205.866503</ele>
        <time>2022-08-29T17:04:25.463Z</time>
      </trkpt>
      <trkpt lat="43.26458" lon="-1.22775">
        <ele>206.891712</ele>
        <time>2022-08-29T17:04:37.037Z</time>
      </trkpt>
      <trkpt lat="43.26425" lon="-1.22777">
        <ele>208.06947</ele>
        <time>2022-08-29T17:04:51.333Z</time>
      </trkpt>
      <trkpt lat="43.26404" lon="-1.2277">
        <ele>208.955547</ele>
        <time>2022-08-29T17:05:01.537Z</time>
      </trkpt>
      <trkpt lat="43.26342" lon="-1.22763">
        <ele>211.481563</ele>
        <time>2022-08-29T17:05:31.302Z</time>
      </trkpt>
      <trkpt lat="43.26326" lon="-1.22755">
        <ele>212.152895</ele>
        <time>2022-08-29T17:05:38.468Z</time>
      </trkpt>
      <trkpt lat="43.26312" lon="-1.22738">
        <ele>212.907653</ele>
        <time>2022-08-29T17:05:48.471Z</time>
      </trkpt>
      <trkpt lat="43.26221" lon="-1.22588">
        <ele>215.95943</ele>
        <time>2022-08-29T17:06:39.251Z</time>
      </trkpt>
      <trkpt lat="43.26196" lon="-1.22575">
        <ele>216.087069</ele>
        <time>2022-08-29T17:06:44.777Z</time>
      </trkpt>
      <trkpt lat="43.26151" lon="-1.22575">
        <ele>216.309904</ele>
        <time>2022-08-29T17:06:54.144Z</time>
      </trkpt>
      <trkpt lat="43.26129" lon="-1.22581">
        <ele>216.421483</ele>
        <time>2022-08-29T17:06:58.412Z</time>
      </trkpt>
      <trkpt lat="43.2606" lon="-1.22593">
        <ele>214.410309</ele>
        <time>2022-08-29T17:07:10.729Z</time>
      </trkpt>
      <trkpt lat="43.26037" lon="-1.22588">
        <ele>213.628906</ele>
        <time>2022-08-29T17:07:14.619Z</time>
      </trkpt>
      <trkpt lat="43.25993" lon="-1.22563">
        <ele>212.022995</ele>
        <time>2022-08-29T17:07:22.450Z</time>
      </trkpt>
      <trkpt lat="43.25988" lon="-1.2256">
        <ele>211.811771</ele>
        <time>2022-08-29T17:07:23.479Z</time>
      </trkpt>
      <trkpt lat="43.25918" lon="-1.22516">
        <ele>208.553024</ele>
        <time>2022-08-29T17:07:35.785Z</time>
      </trkpt>
      <trkpt lat="43.25882" lon="-1.2248">
        <ele>206.125219</ele>
        <time>2022-08-29T17:07:42.968Z</time>
      </trkpt>
      <trkpt lat="43.25862" lon="-1.22467">
        <ele>204.904024</ele>
        <time>2022-08-29T17:07:46.557Z</time>
      </trkpt>
      <trkpt lat="43.25816" lon="-1.22455">
        <ele>202.332433</ele>
        <time>2022-08-29T17:07:53.790Z</time>
      </trkpt>
      <trkpt lat="43.25757" lon="-1.22472">
        <ele>198.86219</ele>
        <time>2022-08-29T17:08:02.830Z</time>
      </trkpt>
      <trkpt lat="43.2572" lon="-1.22476">
        <ele>196.576327</ele>
        <time>2022-08-29T17:08:08.348Z</time>
      </trkpt>
      <trkpt lat="43.25696" lon="-1.22477">
        <ele>195.06183</ele>
        <time>2022-08-29T17:08:12.040Z</time>
      </trkpt>
      <trkpt lat="43.25668" lon="-1.22462">
        <ele>193.199857</ele>
        <time>2022-08-29T17:08:16.619Z</time>
      </trkpt>
      <trkpt lat="43.25615" lon="-1.22439">
        <ele>189.769448</ele>
        <time>2022-08-29T17:08:25.190Z</time>
      </trkpt>
      <trkpt lat="43.25579" lon="-1.22402">
        <ele>188.608165</ele>
        <time>2022-08-29T17:08:32.164Z</time>
      </trkpt>
      <trkpt lat="43.2554" lon="-1.22328">
        <ele>187.22301</ele>
        <time>2022-08-29T17:08:43.415Z</time>
      </trkpt>
      <trkpt lat="43.25472" lon="-1.22175">
        <ele>187.54558</ele>
        <time>2022-08-29T17:09:19.910Z</time>
      </trkpt>
      <trkpt lat="43.25404" lon="-1.22029">
        <ele>191.723749</ele>
        <time>2022-08-29T17:10:15.346Z</time>
      </trkpt>
      <trkpt lat="43.2532" lon="-1.21926">
        <ele>196.156396</ele>
        <time>2022-08-29T17:11:06.057Z</time>
      </trkpt>
      <trkpt lat="43.25281" lon="-1.21897">
        <ele>197.892498</ele>
        <time>2022-08-29T17:11:23.430Z</time>
      </trkpt>
      <trkpt lat="43.25192" lon="-1.21834">
        <ele>199.995014</ele>
        <time>2022-08-29T17:11:58.757Z</time>
      </trkpt>
      <trkpt lat="43.25009" lon="-1.21744">
        <ele>200.851636</ele>
        <time>2022-08-29T17:12:48.764Z</time>
      </trkpt>
      <trkpt lat="43.2496" lon="-1.21727">
        <ele>200.447687</ele>
        <time>2022-08-29T17:12:58.129Z</time>
      </trkpt>
      <trkpt lat="43.24945" lon="-1.21723">
        <ele>200.32314</ele>
        <time>2022-08-29T17:13:00.869Z</time>
      </trkpt>
      <trkpt lat="43.24855" lon="-1.21698">
        <ele>197.735434</ele>
        <time>2022-08-29T17:13:16.369Z</time>
      </trkpt>
      <trkpt lat="43.24674" lon="-1.21716">
        <ele>193.114464</ele>
        <time>2022-08-29T17:13:46.884Z</time>
      </trkpt>
      <trkpt lat="43.2463" lon="-1.21711">
        <ele>192.503083</ele>
        <time>2022-08-29T17:13:55.491Z</time>
      </trkpt>
      <trkpt lat="43.24113" lon="-1.21385">
        <ele>196.788951</ele>
        <time>2022-08-29T17:16:34.994Z</time>
      </trkpt>
      <trkpt lat="43.23777" lon="-1.2124">
        <ele>194.81012</ele>
        <time>2022-08-29T17:17:45.507Z</time>
      </trkpt>
      <trkpt lat="43.23673" lon="-1.21153">
        <ele>195.547942</ele>
        <time>2022-08-29T17:18:16.756Z</time>
      </trkpt>
      <trkpt lat="43.23609" lon="-1.21096">
        <ele>196.416988</ele>
        <time>2022-08-29T17:18:39.836Z</time>
      </trkpt>
      <trkpt lat="43.23541" lon="-1.21059">
        <ele>197.464498</ele>
        <time>2022-08-29T17:19:02.466Z</time>
      </trkpt>
      <trkpt lat="43.23517" lon="-1.21035">
        <ele>197.919952</ele>
        <time>2022-08-29T17:19:11.231Z</time>
      </trkpt>
      <trkpt lat="43.23471" lon="-1.20964">
        <ele>198.98956</ele>
        <time>2022-08-29T17:19:31.685Z</time>
      </trkpt>
      <trkpt lat="43.23451" lon="-1.20947">
        <ele>199.358022</ele>
        <time>2022-08-29T17:19:38.754Z</time>
      </trkpt>
      <trkpt lat="43.23391" lon="-1.20921">
        <ele>200.019579</ele>
        <time>2022-08-29T17:19:57.149Z</time>
      </trkpt>
      <trkpt lat="43.23375" lon="-1.20908">
        <ele>200.216741</ele>
        <time>2022-08-29T17:20:02.774Z</time>
      </trkpt>
      <trkpt lat="43.23357" lon="-1.20881">
        <ele>200.483463</ele>
        <time>2022-08-29T17:20:10.142Z</time>
      </trkpt>
      <trkpt lat="43.23342" lon="-1.20843">
        <ele>200.798307</ele>
        <time>2022-08-29T17:20:18.621Z</time>
      </trkpt>
      <trkpt lat="43.23186" lon="-1.204">
        <ele>202.257415</ele>
        <time>2022-08-29T17:21:45.713Z</time>
      </trkpt>
      <trkpt lat="43.23158" lon="-1.20351">
        <ele>202.329425</ele>
        <time>2022-08-29T17:21:54.887Z</time>
      </trkpt>
      <trkpt lat="43.2306" lon="-1.20235">
        <ele>203.24011</ele>
        <time>2022-08-29T17:22:23.073Z</time>
      </trkpt>
      <trkpt lat="43.23056" lon="-1.20229">
        <ele>203.284533</ele>
        <time>2022-08-29T17:22:24.820Z</time>
      </trkpt>
      <trkpt lat="43.23039" lon="-1.20206">
        <ele>203.450843</ele>
        <time>2022-08-29T17:22:31.963Z</time>
      </trkpt>
      <trkpt lat="43.23033" lon="-1.20197">
        <ele>203.517166</ele>
        <time>2022-08-29T17:22:35.109Z</time>
      </trkpt>
      <trkpt lat="43.22982" lon="-1.20124">
        <ele>206.628664</ele>
        <time>2022-08-29T17:23:04.851Z</time>
      </trkpt>
      <trkpt lat="43.22934" lon="-1.20056">
        <ele>210.059731</ele>
        <time>2022-08-29T17:23:39.402Z</time>
      </trkpt>
      <trkpt lat="43.2286" lon="-1.19947">
        <ele>216.781315</ele>
        <time>2022-08-29T17:24:39.007Z</time>
      </trkpt>
      <trkpt lat="43.2283" lon="-1.19869">
        <ele>221.458988</ele>
        <time>2022-08-29T17:25:16.764Z</time>
      </trkpt>
      <trkpt lat="43.22822" lon="-1.19813">
        <ele>224.485241</ele>
        <time>2022-08-29T17:25:43.734Z</time>
      </trkpt>
      <trkpt lat="43.22833" lon="-1.1966">
        <ele>232.489461</ele>
        <time>2022-08-29T17:26:51.665Z</time>
      </trkpt>
      <trkpt lat="43.22838" lon="-1.19613">
        <ele>234.936811</ele>
        <time>2022-08-29T17:27:11.731Z</time>
      </trkpt>
      <trkpt lat="43.22834" lon="-1.19561">
        <ele>237.66092</ele>
        <time>2022-08-29T17:27:32.963Z</time>
      </trkpt>
      <trkpt lat="43.22824" lon="-1.19528">
        <ele>238.968125</ele>
        <time>2022-08-29T17:27:46.468Z</time>
      </trkpt>
      <trkpt lat="43.22806" lon="-1.19495">
        <ele>240.012633</ele>
        <time>2022-08-29T17:28:01.563Z</time>
      </trkpt>
      <trkpt lat="43.22729" lon="-1.19412">
        <ele>243.347211</ele>
        <time>2022-08-29T17:28:38.295Z</time>
      </trkpt>
      <trkpt lat="43.22711" lon="-1.19377">
        <ele>244.421749</ele>
        <time>2022-08-29T17:28:47.136Z</time>
      </trkpt>
      <trkpt lat="43.22701" lon="-1.19335">
        <ele>244.907691</ele>
        <time>2022-08-29T17:28:55.825Z</time>
      </trkpt>
      <trkpt lat="43.22693" lon="-1.19203">
        <ele>245.976694</ele>
        <time>2022-08-29T17:29:21.491Z</time>
      </trkpt>
      <trkpt lat="43.2269" lon="-1.18921">
        <ele>249.876695</ele>
        <time>2022-08-29T17:30:19.644Z</time>
      </trkpt>
      <trkpt lat="43.22679" lon="-1.18816">
        <ele>253.86055</ele>
        <time>2022-08-29T17:30:57.540Z</time>
      </trkpt>
      <trkpt lat="43.22678" lon="-1.188">
        <ele>254.690785</ele>
        <time>2022-08-29T17:31:03.558Z</time>
      </trkpt>
      <trkpt lat="43.22672" lon="-1.1873">
        <ele>258.424828</ele>
        <time>2022-08-29T17:31:35.902Z</time>
      </trkpt>
      <trkpt lat="43.22648" lon="-1.18671">
        <ele>261.956954</ele>
        <time>2022-08-29T17:32:08.011Z</time>
      </trkpt>
      <trkpt lat="43.22611" lon="-1.18606">
        <ele>265.664043</ele>
        <time>2022-08-29T17:32:48.754Z</time>
      </trkpt>
      <trkpt lat="43.22585" lon="-1.18574">
        <ele>267.559337</ele>
        <time>2022-08-29T17:33:09.718Z</time>
      </trkpt>
      <trkpt lat="43.22565" lon="-1.1856">
        <ele>268.804256</ele>
        <time>2022-08-29T17:33:21.246Z</time>
      </trkpt>
      <trkpt lat="43.22533" lon="-1.18554">
        <ele>270.580136</ele>
        <time>2022-08-29T17:33:35.830Z</time>
      </trkpt>
      <trkpt lat="43.22513" lon="-1.18538">
        <ele>271.854681</ele>
        <time>2022-08-29T17:33:44.981Z</time>
      </trkpt>
      <trkpt lat="43.225" lon="-1.18516">
        <ele>273.015511</ele>
        <time>2022-08-29T17:33:52.563Z</time>
      </trkpt>
      <trkpt lat="43.22487" lon="-1.18453">
        <ele>273.225253</ele>
        <time>2022-08-29T17:34:06.121Z</time>
      </trkpt>
      <trkpt lat="43.22474" lon="-1.18437">
        <ele>273.121836</ele>
        <time>2022-08-29T17:34:09.927Z</time>
      </trkpt>
      <trkpt lat="43.22457" lon="-1.18432">
        <ele>273.019395</ele>
        <time>2022-08-29T17:34:13.325Z</time>
      </trkpt>
      <trkpt lat="43.22405" lon="-1.18442">
        <ele>272.706983</ele>
        <time>2022-08-29T17:34:23.292Z</time>
      </trkpt>
      <trkpt lat="43.22348" lon="-1.18431">
        <ele>272.358749</ele>
        <time>2022-08-29T17:34:33.739Z</time>
      </trkpt>
      <trkpt lat="43.22316" lon="-1.18432">
        <ele>272.109898</ele>
        <time>2022-08-29T17:34:39.700Z</time>
      </trkpt>
      <trkpt lat="43.22283" lon="-1.18445">
        <ele>271.853883</ele>
        <time>2022-08-29T17:34:45.996Z</time>
      </trkpt>
      <trkpt lat="43.22248" lon="-1.18483">
        <ele>271.513607</ele>
        <time>2022-08-29T17:34:54.780Z</time>
      </trkpt>
      <trkpt lat="43.22221" lon="-1.18503">
        <ele>271.276626</ele>
        <time>2022-08-29T17:35:01.325Z</time>
      </trkpt>
      <trkpt lat="43.22197" lon="-1.18505">
        <ele>271.096257</ele>
        <time>2022-08-29T17:35:06.744Z</time>
      </trkpt>
      <trkpt lat="43.22005" lon="-1.18483">
        <ele>273.661106</ele>
        <time>2022-08-29T17:36:07.088Z</time>
      </trkpt>
      <trkpt lat="43.21975" lon="-1.18473">
        <ele>273.203353</ele>
        <time>2022-08-29T17:36:16.040Z</time>
      </trkpt>
      <trkpt lat="43.21962" lon="-1.18456">
        <ele>272.937794</ele>
        <time>2022-08-29T17:36:20.838Z</time>
      </trkpt>
      <trkpt lat="43.21958" lon="-1.18423">
        <ele>272.581184</ele>
        <time>2022-08-29T17:36:26.598Z</time>
      </trkpt>
      <trkpt lat="43.21958" lon="-1.18369">
        <ele>272.000423</ele>
        <time>2022-08-29T17:36:34.820Z</time>
      </trkpt>
      <trkpt lat="43.21959" lon="-1.18054">
        <ele>262.162075</ele>
        <time>2022-08-29T17:37:11.159Z</time>
      </trkpt>
      <trkpt lat="43.21961" lon="-1.1799">
        <ele>259.256139</ele>
        <time>2022-08-29T17:37:18.104Z</time>
      </trkpt>
      <trkpt lat="43.21956" lon="-1.1796">
        <ele>257.759999</ele>
        <time>2022-08-29T17:37:21.522Z</time>
      </trkpt>
      <trkpt lat="43.21939" lon="-1.1793">
        <ele>255.912495</ele>
        <time>2022-08-29T17:37:25.695Z</time>
      </trkpt>
      <trkpt lat="43.2189" lon="-1.17889">
        <ele>252.090932</ele>
        <time>2022-08-29T17:37:34.300Z</time>
      </trkpt>
      <trkpt lat="43.2187" lon="-1.17857">
        <ele>250.045321</ele>
        <time>2022-08-29T17:37:38.950Z</time>
      </trkpt>
      <trkpt lat="43.21852" lon="-1.17797">
        <ele>247.414092</ele>
        <time>2022-08-29T17:37:46.422Z</time>
      </trkpt>
      <trkpt lat="43.21839" lon="-1.17695">
        <ele>243.444946</ele>
        <time>2022-08-29T17:37:58.384Z</time>
      </trkpt>
      <trkpt lat="43.21785" lon="-1.17574">
        <ele>238.597688</ele>
        <time>2022-08-29T17:38:14.647Z</time>
      </trkpt>
      <trkpt lat="43.21776" lon="-1.17556">
        <ele>237.995104</ele>
        <time>2022-08-29T17:38:17.290Z</time>
      </trkpt>
      <trkpt lat="43.2175" lon="-1.17528">
        <ele>236.784898</ele>
        <time>2022-08-29T17:38:22.632Z</time>
      </trkpt>
      <trkpt lat="43.21666" lon="-1.17466">
        <ele>233.273604</ele>
        <time>2022-08-29T17:38:39.058Z</time>
      </trkpt>
      <trkpt lat="43.21493" lon="-1.1735">
        <ele>229.960727</ele>
        <time>2022-08-29T17:39:15.741Z</time>
      </trkpt>
      <trkpt lat="43.21336" lon="-1.17242">
        <ele>227.131211</ele>
        <time>2022-08-29T17:39:48.670Z</time>
      </trkpt>
      <trkpt lat="43.2124" lon="-1.17176">
        <ele>225.579874</ele>
        <time>2022-08-29T17:40:08.930Z</time>
      </trkpt>
      <trkpt lat="43.21212" lon="-1.1716">
        <ele>225.140467</ele>
        <time>2022-08-29T17:40:14.831Z</time>
      </trkpt>
      <trkpt lat="43.20984" lon="-1.17158">
        <ele>222.385382</ele>
        <time>2022-08-29T17:40:59.754Z</time>
      </trkpt>
      <trkpt lat="43.20783" lon="-1.17001">
        <ele>219.556253</ele>
        <time>2022-08-29T17:41:43.718Z</time>
      </trkpt>
      <trkpt lat="43.20582" lon="-1.16843">
        <ele>218.619351</ele>
        <time>2022-08-29T17:42:33.887Z</time>
      </trkpt>
      <trkpt lat="43.20526" lon="-1.16799">
        <ele>218.543335</ele>
        <time>2022-08-29T17:42:48.581Z</time>
      </trkpt>
      <trkpt lat="43.20498" lon="-1.16789">
        <ele>218.488996</ele>
        <time>2022-08-29T17:42:55.292Z</time>
      </trkpt>
      <trkpt lat="43.20291" lon="-1.16772">
        <ele>217.592195</ele>
        <time>2022-08-29T17:43:40.030Z</time>
      </trkpt>
      <trkpt lat="43.1997" lon="-1.16745">
        <ele>214.465189</ele>
        <time>2022-08-29T17:44:41.445Z</time>
      </trkpt>
      <trkpt lat="43.19934" lon="-1.16748">
        <ele>215.22391</ele>
        <time>2022-08-29T17:44:49.869Z</time>
      </trkpt>
      <trkpt lat="43.19523" lon="-1.16781">
        <ele>224.994402</ele>
        <time>2022-08-29T17:47:16.631Z</time>
      </trkpt>
      <trkpt lat="43.19478" lon="-1.16776">
        <ele>226.390059</ele>
        <time>2022-08-29T17:47:35.002Z</time>
      </trkpt>
      <trkpt lat="43.19464" lon="-1.16768">
        <ele>226.849811</ele>
        <time>2022-08-29T17:47:41.032Z</time>
      </trkpt>
      <trkpt lat="43.19441" lon="-1.16735">
        <ele>227.975062</ele>
        <time>2022-08-29T17:47:55.407Z</time>
      </trkpt>
      <trkpt lat="43.19383" lon="-1.16572">
        <ele>232.455585</ele>
        <time>2022-08-29T17:48:48.550Z</time>
      </trkpt>
      <trkpt lat="43.19362" lon="-1.16545">
        <ele>233.259971</ele>
        <time>2022-08-29T17:48:59.425Z</time>
      </trkpt>
      <trkpt lat="43.19338" lon="-1.16538">
        <ele>233.221149</ele>
        <time>2022-08-29T17:49:08.305Z</time>
      </trkpt>
      <trkpt lat="43.19277" lon="-1.1655">
        <ele>233.122685</ele>
        <time>2022-08-29T17:49:24.458Z</time>
      </trkpt>
      <trkpt lat="43.19248" lon="-1.16536">
        <ele>233.074034</ele>
        <time>2022-08-29T17:49:30.483Z</time>
      </trkpt>
      <trkpt lat="43.19217" lon="-1.16515">
        <ele>233.019313</ele>
        <time>2022-08-29T17:49:36.807Z</time>
      </trkpt>
      <trkpt lat="43.1921" lon="-1.16502">
        <ele>233.00063</ele>
        <time>2022-08-29T17:49:38.928Z</time>
      </trkpt>
      <trkpt lat="43.19191" lon="-1.16503">
        <ele>232.664724</ele>
        <time>2022-08-29T17:49:42.257Z</time>
      </trkpt>
      <trkpt lat="43.19183" lon="-1.16504">
        <ele>232.372823</ele>
        <time>2022-08-29T17:49:43.581Z</time>
      </trkpt>
      <trkpt lat="43.19168" lon="-1.16505">
        <ele>231.804491</ele>
        <time>2022-08-29T17:49:46.093Z</time>
      </trkpt>
      <trkpt lat="43.19128" lon="-1.16508">
        <ele>230.256617</ele>
        <time>2022-08-29T17:49:52.863Z</time>
      </trkpt>
      <trkpt lat="43.19098" lon="-1.16524">
        <ele>229.015622</ele>
        <time>2022-08-29T17:49:58.157Z</time>
      </trkpt>
      <trkpt lat="43.19061" lon="-1.16561">
        <ele>227.261054</ele>
        <time>2022-08-29T17:50:05.479Z</time>
      </trkpt>
      <trkpt lat="43.18869" lon="-1.1677">
        <ele>216.715129</ele>
        <time>2022-08-29T17:50:45.667Z</time>
      </trkpt>
      <trkpt lat="43.18835" lon="-1.16807">
        <ele>214.53943</ele>
        <time>2022-08-29T17:50:52.542Z</time>
      </trkpt>
      <trkpt lat="43.18773" lon="-1.16861">
        <ele>210.830488</ele>
        <time>2022-08-29T17:51:04.040Z</time>
      </trkpt>
      <trkpt lat="43.18632" lon="-1.16983">
        <ele>203.446766</ele>
        <time>2022-08-29T17:51:30.414Z</time>
      </trkpt>
      <trkpt lat="43.18514" lon="-1.17085">
        <ele>201.852207</ele>
        <time>2022-08-29T17:51:55.902Z</time>
      </trkpt>
      <trkpt lat="43.18495" lon="-1.17075">
        <ele>201.888071</ele>
        <time>2022-08-29T17:52:02.017Z</time>
      </trkpt>
      <trkpt lat="43.18458" lon="-1.17074">
        <ele>201.95445</ele>
        <time>2022-08-29T17:52:17.257Z</time>
      </trkpt>
      <trkpt lat="43.18388" lon="-1.1704">
        <ele>206.025226</ele>
        <time>2022-08-29T17:52:57.392Z</time>
      </trkpt>
      <trkpt lat="43.18355" lon="-1.17013">
        <ele>209.081026</ele>
        <time>2022-08-29T17:53:19.897Z</time>
      </trkpt>
      <trkpt lat="43.18345" lon="-1.16994">
        <ele>210.442539</ele>
        <time>2022-08-29T17:53:30.968Z</time>
      </trkpt>
      <trkpt lat="43.1826" lon="-1.16965">
        <ele>218.335465</ele>
        <time>2022-08-29T17:54:38.114Z</time>
      </trkpt>
      <trkpt lat="43.18227" lon="-1.16999">
        <ele>224.205912</ele>
        <time>2022-08-29T17:55:20.331Z</time>
      </trkpt>
      <trkpt lat="43.18207" lon="-1.1701">
        <ele>227.343709</ele>
        <time>2022-08-29T17:55:44.665Z</time>
      </trkpt>
      <trkpt lat="43.18143" lon="-1.17024">
        <ele>236.692519</ele>
        <time>2022-08-29T17:56:49.012Z</time>
      </trkpt>
      <trkpt lat="43.1807" lon="-1.17025">
        <ele>245.70775</ele>
        <time>2022-08-29T17:57:55.627Z</time>
      </trkpt>
      <trkpt lat="43.18026" lon="-1.17033">
        <ele>250.07885</ele>
        <time>2022-08-29T17:58:37.463Z</time>
      </trkpt>
      <trkpt lat="43.18018" lon="-1.17037">
        <ele>250.955272</ele>
        <time>2022-08-29T17:58:44.519Z</time>
      </trkpt>
      <trkpt lat="43.18007" lon="-1.17086">
        <ele>254.673966</ele>
        <time>2022-08-29T17:59:11.315Z</time>
      </trkpt>
      <trkpt lat="43.17977" lon="-1.17102">
        <ele>257.843012</ele>
        <time>2022-08-29T17:59:28.881Z</time>
      </trkpt>
      <trkpt lat="43.17934" lon="-1.17111">
        <ele>260.947012</ele>
        <time>2022-08-29T17:59:46.660Z</time>
      </trkpt>
      <trkpt lat="43.17897" lon="-1.17111">
        <ele>262.378054</ele>
        <time>2022-08-29T17:59:59.022Z</time>
      </trkpt>
      <trkpt lat="43.17889" lon="-1.17122">
        <ele>262.837899</ele>
        <time>2022-08-29T18:00:02.654Z</time>
      </trkpt>
      <trkpt lat="43.17886" lon="-1.17145">
        <ele>263.496102</ele>
        <time>2022-08-29T18:00:09.601Z</time>
      </trkpt>
      <trkpt lat="43.17843" lon="-1.17263">
        <ele>267.24304</ele>
        <time>2022-08-29T18:00:54.113Z</time>
      </trkpt>
      <trkpt lat="43.1783" lon="-1.17278">
        <ele>267.598601</ele>
        <time>2022-08-29T18:01:01.800Z</time>
      </trkpt>
      <trkpt lat="43.17818" lon="-1.17281">
        <ele>267.858455</ele>
        <time>2022-08-29T18:01:06.473Z</time>
      </trkpt>
      <trkpt lat="43.17696" lon="-1.17261">
        <ele>270.442075</ele>
        <time>2022-08-29T18:01:54.162Z</time>
      </trkpt>
      <trkpt lat="43.17658" lon="-1.17274">
        <ele>269.944057</ele>
        <time>2022-08-29T18:02:02.366Z</time>
      </trkpt>
      <trkpt lat="43.17582" lon="-1.17296">
        <ele>263.716551</ele>
        <time>2022-08-29T18:02:14.228Z</time>
      </trkpt>
      <trkpt lat="43.17552" lon="-1.17298">
        <ele>261.318545</ele>
        <time>2022-08-29T18:02:18.397Z</time>
      </trkpt>
      <trkpt lat="43.17422" lon="-1.17242">
        <ele>248.027488</ele>
        <time>2022-08-29T18:02:37.144Z</time>
      </trkpt>
      <trkpt lat="43.17394" lon="-1.17199">
        <ele>243.421158</ele>
        <time>2022-08-29T18:02:42.971Z</time>
      </trkpt>
      <trkpt lat="43.17378" lon="-1.17203">
        <ele>241.602682</ele>
        <time>2022-08-29T18:02:45.295Z</time>
      </trkpt>
      <trkpt lat="43.17367" lon="-1.17246">
        <ele>237.95736</ele>
        <time>2022-08-29T18:02:50.022Z</time>
      </trkpt>
      <trkpt lat="43.17361" lon="-1.17253">
        <ele>237.047871</ele>
        <time>2022-08-29T18:02:51.208Z</time>
      </trkpt>
      <trkpt lat="43.17317" lon="-1.17248">
        <ele>234.666116</ele>
        <time>2022-08-29T18:02:57.660Z</time>
      </trkpt>
      <trkpt lat="43.17275" lon="-1.17229">
        <ele>232.417294</ele>
        <time>2022-08-29T18:03:04.705Z</time>
      </trkpt>
      <trkpt lat="43.17207" lon="-1.17166">
        <ele>228.28588</ele>
        <time>2022-08-29T18:03:18.325Z</time>
      </trkpt>
      <trkpt lat="43.17156" lon="-1.17133">
        <ele>227.383475</ele>
        <time>2022-08-29T18:03:28.596Z</time>
      </trkpt>
      <trkpt lat="43.17115" lon="-1.17082">
        <ele>227.053543</ele>
        <time>2022-08-29T18:03:39.307Z</time>
      </trkpt>
      <trkpt lat="43.17085" lon="-1.17066">
        <ele>226.864648</ele>
        <time>2022-08-29T18:03:46.272Z</time>
      </trkpt>
      <trkpt lat="43.17028" lon="-1.17066">
        <ele>226.72641</ele>
        <time>2022-08-29T18:04:03.591Z</time>
      </trkpt>
      <trkpt lat="43.16951" lon="-1.17099">
        <ele>228.266739</ele>
        <time>2022-08-29T18:04:30.193Z</time>
      </trkpt>
      <trkpt lat="43.1688" lon="-1.17037">
        <ele>229.880159</ele>
        <time>2022-08-29T18:04:58.310Z</time>
      </trkpt>
      <trkpt lat="43.16809" lon="-1.1696">
        <ele>230.197373</ele>
        <time>2022-08-29T18:05:26.511Z</time>
      </trkpt>
      <trkpt lat="43.1673" lon="-1.16892">
        <ele>230.397819</ele>
        <time>2022-08-29T18:05:47.229Z</time>
      </trkpt>
      <trkpt lat="43.16684" lon="-1.16891">
        <ele>228.496049</ele>
        <time>2022-08-29T18:05:55.734Z</time>
      </trkpt>
      <trkpt lat="43.16645" lon="-1.1687">
        <ele>226.64109</ele>
        <time>2022-08-29T18:06:02.943Z</time>
      </trkpt>
      <trkpt lat="43.1663" lon="-1.16868">
        <ele>226.000147</ele>
        <time>2022-08-29T18:06:05.346Z</time>
      </trkpt>
      <trkpt lat="43.16372" lon="-1.1697">
        <ele>213.37902</ele>
        <time>2022-08-29T18:06:48.721Z</time>
      </trkpt>
      <trkpt lat="43.16354" lon="-1.1688">
        <ele>216.9303</ele>
        <time>2022-08-29T18:07:06.825Z</time>
      </trkpt>
      <trkpt lat="43.16353" lon="-1.16859">
        <ele>217.701339</ele>
        <time>2022-08-29T18:07:13.269Z</time>
      </trkpt>
      <trkpt lat="43.16343" lon="-1.16848">
        <ele>218.366047</ele>
        <time>2022-08-29T18:07:22.284Z</time>
      </trkpt>
      <trkpt lat="43.16274" lon="-1.16815">
        <ele>222.170821</ele>
        <time>2022-08-29T18:08:25.899Z</time>
      </trkpt>
      <trkpt lat="43.16236" lon="-1.16804">
        <ele>226.098197</ele>
        <time>2022-08-29T18:09:02.109Z</time>
      </trkpt>
      <trkpt lat="43.16228" lon="-1.16804">
        <ele>226.906687</ele>
        <time>2022-08-29T18:09:08.731Z</time>
      </trkpt>
      <trkpt lat="43.16205" lon="-1.16802">
        <ele>229.251396</ele>
        <time>2022-08-29T18:09:31.208Z</time>
      </trkpt>
      <trkpt lat="43.16181" lon="-1.16769">
        <ele>232.776634</ele>
        <time>2022-08-29T18:10:00.155Z</time>
      </trkpt>
      <trkpt lat="43.16145" lon="-1.16675">
        <ele>240.669761</ele>
        <time>2022-08-29T18:11:02.456Z</time>
      </trkpt>
      <trkpt lat="43.16138" lon="-1.16515">
        <ele>242.27076</ele>
        <time>2022-08-29T18:11:51.486Z</time>
      </trkpt>
      <trkpt lat="43.16133" lon="-1.16483">
        <ele>242.592673</ele>
        <time>2022-08-29T18:11:57.310Z</time>
      </trkpt>
      <trkpt lat="43.16118" lon="-1.16449">
        <ele>242.994146</ele>
        <time>2022-08-29T18:12:04.282Z</time>
      </trkpt>
      <trkpt lat="43.16107" lon="-1.16407">
        <ele>241.766314</ele>
        <time>2022-08-29T18:12:11.706Z</time>
      </trkpt>
      <trkpt lat="43.16118" lon="-1.16349">
        <ele>239.093126</ele>
        <time>2022-08-29T18:12:21.221Z</time>
      </trkpt>
      <trkpt lat="43.16118" lon="-1.16296">
        <ele>236.72015</ele>
        <time>2022-08-29T18:12:29.256Z</time>
      </trkpt>
      <trkpt lat="43.16108" lon="-1.16269">
        <ele>235.37797</ele>
        <time>2022-08-29T18:12:33.698Z</time>
      </trkpt>
      <trkpt lat="43.1608" lon="-1.16241">
        <ele>233.299076</ele>
        <time>2022-08-29T18:12:40.570Z</time>
      </trkpt>
      <trkpt lat="43.15978" lon="-1.16165">
        <ele>226.902741</ele>
        <time>2022-08-29T18:13:04.917Z</time>
      </trkpt>
      <trkpt lat="43.15945" lon="-1.16128">
        <ele>224.585949</ele>
        <time>2022-08-29T18:13:14.091Z</time>
      </trkpt>
      <trkpt lat="43.15926" lon="-1.16116">
        <ele>223.444541</ele>
        <time>2022-08-29T18:13:18.864Z</time>
      </trkpt>
      <trkpt lat="43.15792" lon="-1.16066">
        <ele>220.926893</ele>
        <time>2022-08-29T18:13:54.177Z</time>
      </trkpt>
      <trkpt lat="43.15705" lon="-1.16048">
        <ele>220.417311</ele>
        <time>2022-08-29T18:14:21.346Z</time>
      </trkpt>
      <trkpt lat="43.15682" lon="-1.16036">
        <ele>220.630603</ele>
        <time>2022-08-29T18:14:29.073Z</time>
      </trkpt>
      <trkpt lat="43.15669" lon="-1.16022">
        <ele>220.770699</ele>
        <time>2022-08-29T18:14:34.397Z</time>
      </trkpt>
      <trkpt lat="43.1562" lon="-1.16009">
        <ele>221.202252</ele>
        <time>2022-08-29T18:14:50.866Z</time>
      </trkpt>
      <trkpt lat="43.15589" lon="-1.16015">
        <ele>221.466966</ele>
        <time>2022-08-29T18:15:01.335Z</time>
      </trkpt>
      <trkpt lat="43.15537" lon="-1.15999">
        <ele>222.588915</ele>
        <time>2022-08-29T18:15:20.093Z</time>
      </trkpt>
      <trkpt lat="43.15471" lon="-1.15963">
        <ele>225.128194</ele>
        <time>2022-08-29T18:15:52.808Z</time>
      </trkpt>
      <trkpt lat="43.15447" lon="-1.15959">
        <ele>225.997802</ele>
        <time>2022-08-29T18:16:05.593Z</time>
      </trkpt>
      <trkpt lat="43.15412" lon="-1.15973">
        <ele>227.309033</ele>
        <time>2022-08-29T18:16:25.573Z</time>
      </trkpt>
      <trkpt lat="43.15396" lon="-1.16016">
        <ele>228.600133</ele>
        <time>2022-08-29T18:16:44.506Z</time>
      </trkpt>
      <trkpt lat="43.15381" lon="-1.16057">
        <ele>229.85992</ele>
        <time>2022-08-29T18:17:02.058Z</time>
      </trkpt>
      <trkpt lat="43.15323" lon="-1.16083">
        <ele>232.187682</ele>
        <time>2022-08-29T18:17:33.346Z</time>
      </trkpt>
      <trkpt lat="43.15236" lon="-1.16027">
        <ele>235.323797</ele>
        <time>2022-08-29T18:18:16.591Z</time>
      </trkpt>
      <trkpt lat="43.15201" lon="-1.1601">
        <ele>235.842082</ele>
        <time>2022-08-29T18:18:28.481Z</time>
      </trkpt>
      <trkpt lat="43.15168" lon="-1.16003">
        <ele>236.329047</ele>
        <time>2022-08-29T18:18:39.910Z</time>
      </trkpt>
      <trkpt lat="43.15143" lon="-1.16004">
        <ele>236.681424</ele>
        <time>2022-08-29T18:18:46.935Z</time>
      </trkpt>
      <trkpt lat="43.15094" lon="-1.16032">
        <ele>237.432977</ele>
        <time>2022-08-29T18:19:05.902Z</time>
      </trkpt>
      <trkpt lat="43.1507" lon="-1.1604">
        <ele>238.146208</ele>
        <time>2022-08-29T18:19:15.581Z</time>
      </trkpt>
      <trkpt lat="43.15044" lon="-1.16063">
        <ele>239.330501</ele>
        <time>2022-08-29T18:19:26.183Z</time>
      </trkpt>
      <trkpt lat="43.15044" lon="-1.16057">
        <ele>239.517344</ele>
        <time>2022-08-29T18:19:29.935Z</time>
      </trkpt>
      <trkpt lat="43.15037" lon="-1.16056">
        <ele>239.785786</ele>
        <time>2022-08-29T18:19:32.333Z</time>
      </trkpt>
      <trkpt lat="43.14963" lon="-1.16064">
        <ele>242.614523</ele>
        <time>2022-08-29T18:20:08.721Z</time>
      </trkpt>
      <trkpt lat="43.14927" lon="-1.16047">
        <ele>244.076231</ele>
        <time>2022-08-29T18:20:30.690Z</time>
      </trkpt>
      <trkpt lat="43.14867" lon="-1.16036">
        <ele>247.380383</ele>
        <time>2022-08-29T18:21:07.672Z</time>
      </trkpt>
      <trkpt lat="43.14783" lon="-1.15978">
        <ele>252.737473</ele>
        <time>2022-08-29T18:22:04.024Z</time>
      </trkpt>
      <trkpt lat="43.14771" lon="-1.15937">
        <ele>254.616567</ele>
        <time>2022-08-29T18:22:22.723Z</time>
      </trkpt>
      <trkpt lat="43.14767" lon="-1.15855">
        <ele>255.644391</ele>
        <time>2022-08-29T18:22:52.029Z</time>
      </trkpt>
      <trkpt lat="43.14728" lon="-1.15801">
        <ele>256.500314</ele>
        <time>2022-08-29T18:23:12.977Z</time>
      </trkpt>
      <trkpt lat="43.14694" lon="-1.15763">
        <ele>257.191962</ele>
        <time>2022-08-29T18:23:25.453Z</time>
      </trkpt>
      <trkpt lat="43.14633" lon="-1.15719">
        <ele>256.18228</ele>
        <time>2022-08-29T18:23:42.976Z</time>
      </trkpt>
      <trkpt lat="43.14575" lon="-1.15659">
        <ele>253.975631</ele>
        <time>2022-08-29T18:23:59.950Z</time>
      </trkpt>
      <trkpt lat="43.14507" lon="-1.15562">
        <ele>250.945342</ele>
        <time>2022-08-29T18:24:22.137Z</time>
      </trkpt>
      <trkpt lat="43.14495" lon="-1.15538">
        <ele>250.276373</ele>
        <time>2022-08-29T18:24:26.938Z</time>
      </trkpt>
      <trkpt lat="43.14456" lon="-1.15513">
        <ele>248.899257</ele>
        <time>2022-08-29T18:24:34.672Z</time>
      </trkpt>
      <trkpt lat="43.14415" lon="-1.155">
        <ele>247.563724</ele>
        <time>2022-08-29T18:24:42.234Z</time>
      </trkpt>
      <trkpt lat="43.14394" lon="-1.15479">
        <ele>246.728478</ele>
        <time>2022-08-29T18:24:47.174Z</time>
      </trkpt>
      <trkpt lat="43.14384" lon="-1.15479">
        <ele>246.421278</ele>
        <time>2022-08-29T18:24:48.846Z</time>
      </trkpt>
      <trkpt lat="43.14376" lon="-1.15408">
        <ele>245.845172</ele>
        <time>2022-08-29T18:24:58.305Z</time>
      </trkpt>
      <trkpt lat="43.14368" lon="-1.15392">
        <ele>245.693561</ele>
        <time>2022-08-29T18:25:01.084Z</time>
      </trkpt>
      <trkpt lat="43.1432" lon="-1.15362">
        <ele>245.140702</ele>
        <time>2022-08-29T18:25:11.484Z</time>
      </trkpt>
      <trkpt lat="43.14298" lon="-1.15358">
        <ele>244.917391</ele>
        <time>2022-08-29T18:25:15.930Z</time>
      </trkpt>
      <trkpt lat="43.14197" lon="-1.15369">
        <ele>245.375892</ele>
        <time>2022-08-29T18:25:41.267Z</time>
      </trkpt>
      <trkpt lat="43.14174" lon="-1.15361">
        <ele>245.72627</ele>
        <time>2022-08-29T18:25:48.218Z</time>
      </trkpt>
      <trkpt lat="43.14102" lon="-1.15329">
        <ele>246.810149</ele>
        <time>2022-08-29T18:26:12.063Z</time>
      </trkpt>
      <trkpt lat="43.14089" lon="-1.15319">
        <ele>247.034272</ele>
        <time>2022-08-29T18:26:17.430Z</time>
      </trkpt>
      <trkpt lat="43.14038" lon="-1.15203">
        <ele>249.474486</ele>
        <time>2022-08-29T18:26:53.575Z</time>
      </trkpt>
      <trkpt lat="43.14" lon="-1.15143">
        <ele>250.937489</ele>
        <time>2022-08-29T18:27:14.063Z</time>
      </trkpt>
      <trkpt lat="43.13883" lon="-1.14962">
        <ele>254.481664</ele>
        <time>2022-08-29T18:28:09.879Z</time>
      </trkpt>
      <trkpt lat="43.13777" lon="-1.14793">
        <ele>257.831137</ele>
        <time>2022-08-29T18:29:00.838Z</time>
      </trkpt>
      <trkpt lat="43.13671" lon="-1.1463">
        <ele>261.88016</ele>
        <time>2022-08-29T18:29:57.800Z</time>
      </trkpt>
      <trkpt lat="43.13607" lon="-1.14516">
        <ele>264.569515</ele>
        <time>2022-08-29T18:30:36.871Z</time>
      </trkpt>
      <trkpt lat="43.13533" lon="-1.14426">
        <ele>266.739831</ele>
        <time>2022-08-29T18:31:09.374Z</time>
      </trkpt>
      <trkpt lat="43.13512" lon="-1.14406">
        <ele>267.301621</ele>
        <time>2022-08-29T18:31:17.256Z</time>
      </trkpt>
      <trkpt lat="43.13508" lon="-1.14402">
        <ele>267.420909</ele>
        <time>2022-08-29T18:31:18.973Z</time>
      </trkpt>
      <trkpt lat="43.13465" lon="-1.14347">
        <ele>268.269397</ele>
        <time>2022-08-29T18:31:36.884Z</time>
      </trkpt>
      <trkpt lat="43.1345" lon="-1.14315">
        <ele>268.604069</ele>
        <time>2022-08-29T18:31:45.017Z</time>
      </trkpt>
      <trkpt lat="43.1342" lon="-1.14282">
        <ele>269.060339</ele>
        <time>2022-08-29T18:31:55.683Z</time>
      </trkpt>
      <trkpt lat="43.13344" lon="-1.14236">
        <ele>270.004194</ele>
        <time>2022-08-29T18:32:17.524Z</time>
      </trkpt>
      <trkpt lat="43.13198" lon="-1.14152">
        <ele>271.342966</ele>
        <time>2022-08-29T18:32:58.154Z</time>
      </trkpt>
      <trkpt lat="43.13085" lon="-1.14072">
        <ele>273.449898</ele>
        <time>2022-08-29T18:33:36.540Z</time>
      </trkpt>
      <trkpt lat="43.13061" lon="-1.14056">
        <ele>273.922826</ele>
        <time>2022-08-29T18:33:45.407Z</time>
      </trkpt>
      <trkpt lat="43.13015" lon="-1.14026">
        <ele>274.925492</ele>
        <time>2022-08-29T18:34:02.152Z</time>
      </trkpt>
      <trkpt lat="43.12979" lon="-1.14009">
        <ele>275.839708</ele>
        <time>2022-08-29T18:34:15.032Z</time>
      </trkpt>
      <trkpt lat="43.12921" lon="-1.13975">
        <ele>277.358344</ele>
        <time>2022-08-29T18:34:37.348Z</time>
      </trkpt>
      <trkpt lat="43.12879" lon="-1.1394">
        <ele>278.5588</ele>
        <time>2022-08-29T18:34:54.519Z</time>
      </trkpt>
      <trkpt lat="43.12801" lon="-1.13854">
        <ele>280.818776</ele>
        <time>2022-08-29T18:35:28.507Z</time>
      </trkpt>
      <trkpt lat="43.12776" lon="-1.13837">
        <ele>281.441846</ele>
        <time>2022-08-29T18:35:37.667Z</time>
      </trkpt>
      <trkpt lat="43.12748" lon="-1.13821">
        <ele>282.116067</ele>
        <time>2022-08-29T18:35:47.614Z</time>
      </trkpt>
      <trkpt lat="43.127" lon="-1.13793">
        <ele>283.23376</ele>
        <time>2022-08-29T18:36:04.979Z</time>
      </trkpt>
      <trkpt lat="43.12671" lon="-1.13779">
        <ele>283.824459</ele>
        <time>2022-08-29T18:36:14.767Z</time>
      </trkpt>
      <trkpt lat="43.12636" lon="-1.13772">
        <ele>284.501121</ele>
        <time>2022-08-29T18:36:26.032Z</time>
      </trkpt>
      <trkpt lat="43.12575" lon="-1.13743">
        <ele>285.750341</ele>
        <time>2022-08-29T18:36:46.626Z</time>
      </trkpt>
      <trkpt lat="43.12401" lon="-1.13737">
        <ele>289.679484</ele>
        <time>2022-08-29T18:37:40.787Z</time>
      </trkpt>
      <trkpt lat="43.12353" lon="-1.13727">
        <ele>290.930107</ele>
        <time>2022-08-29T18:38:00.879Z</time>
      </trkpt>
      <trkpt lat="43.1232" lon="-1.13719">
        <ele>292.027784</ele>
        <time>2022-08-29T18:38:15.458Z</time>
      </trkpt>
      <trkpt lat="43.12246" lon="-1.13684">
        <ele>294.566658</ele>
        <time>2022-08-29T18:38:48.803Z</time>
      </trkpt>
      <trkpt lat="43.12182" lon="-1.13684">
        <ele>296.336818</ele>
        <time>2022-08-29T18:39:11.726Z</time>
      </trkpt>
      <trkpt lat="43.12108" lon="-1.13693">
        <ele>295.887412</ele>
        <time>2022-08-29T18:39:29.093Z</time>
      </trkpt>
      <trkpt lat="43.12063" lon="-1.13691">
        <ele>295.611549</ele>
        <time>2022-08-29T18:39:37.496Z</time>
      </trkpt>
      <trkpt lat="43.12025" lon="-1.13704">
        <ele>295.376447</ele>
        <time>2022-08-29T18:39:44.272Z</time>
      </trkpt>
      <trkpt lat="43.11814" lon="-1.13591">
        <ele>292.468282</ele>
        <time>2022-08-29T18:40:26.734Z</time>
      </trkpt>
      <trkpt lat="43.1164" lon="-1.13426">
        <ele>294.510492</ele>
        <time>2022-08-29T18:41:27.764Z</time>
      </trkpt>
      <trkpt lat="43.11603" lon="-1.13389">
        <ele>295.32399</ele>
        <time>2022-08-29T18:41:42.371Z</time>
      </trkpt>
      <trkpt lat="43.11571" lon="-1.1334">
        <ele>296.178166</ele>
        <time>2022-08-29T18:41:58.004Z</time>
      </trkpt>
      <trkpt lat="43.11558" lon="-1.13328">
        <ele>296.459327</ele>
        <time>2022-08-29T18:42:03.208Z</time>
      </trkpt>
      <trkpt lat="43.11423" lon="-1.13297">
        <ele>299.201103</ele>
        <time>2022-08-29T18:42:47.290Z</time>
      </trkpt>
      <trkpt lat="43.11403" lon="-1.13288">
        <ele>299.636588</ele>
        <time>2022-08-29T18:42:54.129Z</time>
      </trkpt>
      <trkpt lat="43.11294" lon="-1.1319">
        <ele>302.78597</ele>
        <time>2022-08-29T18:43:36.295Z</time>
      </trkpt>
      <trkpt lat="43.11262" lon="-1.13114">
        <ele>304.427598</ele>
        <time>2022-08-29T18:44:00.070Z</time>
      </trkpt>
      <trkpt lat="43.11203" lon="-1.13014">
        <ele>307.603787</ele>
        <time>2022-08-29T18:44:37.698Z</time>
      </trkpt>
      <trkpt lat="43.11176" lon="-1.12979">
        <ele>308.919802</ele>
        <time>2022-08-29T18:44:53.825Z</time>
      </trkpt>
      <trkpt lat="43.11096" lon="-1.12928">
        <ele>311.567712</ele>
        <time>2022-08-29T18:45:29.249Z</time>
      </trkpt>
      <trkpt lat="43.11043" lon="-1.12887">
        <ele>312.662261</ele>
        <time>2022-08-29T18:45:49.017Z</time>
      </trkpt>
      <trkpt lat="43.10971" lon="-1.12828">
        <ele>314.162373</ele>
        <time>2022-08-29T18:46:12.160Z</time>
      </trkpt>
      <trkpt lat="43.10951" lon="-1.1282">
        <ele>314.373707</ele>
        <time>2022-08-29T18:46:17.609Z</time>
      </trkpt>
      <trkpt lat="43.10906" lon="-1.12816">
        <ele>314.596423</ele>
        <time>2022-08-29T18:46:28.422Z</time>
      </trkpt>
      <trkpt lat="43.10882" lon="-1.12796">
        <ele>314.733378</ele>
        <time>2022-08-29T18:46:34.377Z</time>
      </trkpt>
      <trkpt lat="43.10829" lon="-1.12712">
        <ele>315.137784</ele>
        <time>2022-08-29T18:46:54.058Z</time>
      </trkpt>
      <trkpt lat="43.10805" lon="-1.12657">
        <ele>315.522809</ele>
        <time>2022-08-29T18:47:06.642Z</time>
      </trkpt>
      <trkpt lat="43.10794" lon="-1.12619">
        <ele>315.801981</ele>
        <time>2022-08-29T18:47:14.560Z</time>
      </trkpt>
      <trkpt lat="43.1078" lon="-1.12531">
        <ele>316.420538</ele>
        <time>2022-08-29T18:47:32.581Z</time>
      </trkpt>
      <trkpt lat="43.10758" lon="-1.12463">
        <ele>316.953234</ele>
        <time>2022-08-29T18:47:47.489Z</time>
      </trkpt>
      <trkpt lat="43.10723" lon="-1.12417">
        <ele>317.614113</ele>
        <time>2022-08-29T18:48:01.371Z</time>
      </trkpt>
      <trkpt lat="43.1066" lon="-1.12364">
        <ele>318.62643</ele>
        <time>2022-08-29T18:48:22.494Z</time>
      </trkpt>
      <trkpt lat="43.10636" lon="-1.1232">
        <ele>319.180029</ele>
        <time>2022-08-29T18:48:34.409Z</time>
      </trkpt>
      <trkpt lat="43.10602" lon="-1.12198">
        <ele>321.071821</ele>
        <time>2022-08-29T18:49:03.570Z</time>
      </trkpt>
      <trkpt lat="43.10614" lon="-1.12139">
        <ele>322.007186</ele>
        <time>2022-08-29T18:49:18.149Z</time>
      </trkpt>
      <trkpt lat="43.10609" lon="-1.12101">
        <ele>322.607332</ele>
        <time>2022-08-29T18:49:27.889Z</time>
      </trkpt>
      <trkpt lat="43.10579" lon="-1.12024">
        <ele>325.135178</ele>
        <time>2022-08-29T18:49:50.575Z</time>
      </trkpt>
      <trkpt lat="43.1054" lon="-1.11953">
        <ele>328.529135</ele>
        <time>2022-08-29T18:50:19.058Z</time>
      </trkpt>
      <trkpt lat="43.10473" lon="-1.11828">
        <ele>336.07003</ele>
        <time>2022-08-29T18:51:24.555Z</time>
      </trkpt>
      <trkpt lat="43.10453" lon="-1.11809">
        <ele>338.483036</ele>
        <time>2022-08-29T18:51:42.979Z</time>
      </trkpt>
      <trkpt lat="43.10404" lon="-1.11786">
        <ele>343.548669</ele>
        <time>2022-08-29T18:52:20.537Z</time>
      </trkpt>
      <trkpt lat="43.10335" lon="-1.11744">
        <ele>351.114549</ele>
        <time>2022-08-29T18:53:19.729Z</time>
      </trkpt>
      <trkpt lat="43.10299" lon="-1.11701">
        <ele>356.95168</ele>
        <time>2022-08-29T18:53:57.124Z</time>
      </trkpt>
      <trkpt lat="43.10252" lon="-1.11661">
        <ele>363.607923</ele>
        <time>2022-08-29T18:54:39.445Z</time>
      </trkpt>
      <trkpt lat="43.10216" lon="-1.11606">
        <ele>370.153455</ele>
        <time>2022-08-29T18:55:21.843Z</time>
      </trkpt>
      <trkpt lat="43.10151" lon="-1.11542">
        <ele>383.472254</ele>
        <time>2022-08-29T18:56:47.772Z</time>
      </trkpt>
      <trkpt lat="43.10091" lon="-1.11501">
        <ele>395.346222</ele>
        <time>2022-08-29T18:58:04.450Z</time>
      </trkpt>
      <trkpt lat="43.10072" lon="-1.1148">
        <ele>399.746157</ele>
        <time>2022-08-29T18:58:35.580Z</time>
      </trkpt>
      <trkpt lat="43.10029" lon="-1.1142">
        <ele>409.895233</ele>
        <time>2022-08-29T18:59:48.262Z</time>
      </trkpt>
      <trkpt lat="43.1001" lon="-1.11377">
        <ele>415.621037</ele>
        <time>2022-08-29T19:00:30.226Z</time>
      </trkpt>
      <trkpt lat="43.09993" lon="-1.11303">
        <ele>424.661664</ele>
        <time>2022-08-29T19:01:30.736Z</time>
      </trkpt>
      <trkpt lat="43.09982" lon="-1.11283">
        <ele>427.595319</ele>
        <time>2022-08-29T19:01:47.129Z</time>
      </trkpt>
      <trkpt lat="43.09915" lon="-1.11203">
        <ele>438.049604</ele>
        <time>2022-08-29T19:02:50.114Z</time>
      </trkpt>
      <trkpt lat="43.09908" lon="-1.1119">
        <ele>439.167458</ele>
        <time>2022-08-29T19:02:57.851Z</time>
      </trkpt>
      <trkpt lat="43.09901" lon="-1.11146">
        <ele>442.311491</ele>
        <time>2022-08-29T19:03:19.591Z</time>
      </trkpt>
      <trkpt lat="43.09836" lon="-1.11115">
        <ele>448.882423</ele>
        <time>2022-08-29T19:04:05.024Z</time>
      </trkpt>
      <trkpt lat="43.09837" lon="-1.11093">
        <ele>450.349466</ele>
        <time>2022-08-29T19:04:16.280Z</time>
      </trkpt>
      <trkpt lat="43.09851" lon="-1.11064">
        <ele>452.664209</ele>
        <time>2022-08-29T19:04:34.223Z</time>
      </trkpt>
      <trkpt lat="43.09846" lon="-1.10979">
        <ele>458.364976</ele>
        <time>2022-08-29T19:05:21.461Z</time>
      </trkpt>
      <trkpt lat="43.09788" lon="-1.10827">
        <ele>468.93117</ele>
        <time>2022-08-29T19:06:40.506Z</time>
      </trkpt>
      <trkpt lat="43.09771" lon="-1.10737">
        <ele>473.741285</ele>
        <time>2022-08-29T19:07:17.203Z</time>
      </trkpt>
      <trkpt lat="43.09749" lon="-1.10689">
        <ele>476.664976</ele>
        <time>2022-08-29T19:07:37.210Z</time>
      </trkpt>
      <trkpt lat="43.09737" lon="-1.10681">
        <ele>477.658876</ele>
        <time>2022-08-29T19:07:44.983Z</time>
      </trkpt>
      <trkpt lat="43.09731" lon="-1.1069">
        <ele>478.270152</ele>
        <time>2022-08-29T19:07:50.211Z</time>
      </trkpt>
      <trkpt lat="43.09733" lon="-1.10724">
        <ele>480.692089</ele>
        <time>2022-08-29T19:08:05.547Z</time>
      </trkpt>
      <trkpt lat="43.09729" lon="-1.10758">
        <ele>483.451619</ele>
        <time>2022-08-29T19:08:23.272Z</time>
      </trkpt>
      <trkpt lat="43.09698" lon="-1.10846">
        <ele>491.190467</ele>
        <time>2022-08-29T19:09:16.956Z</time>
      </trkpt>
      <trkpt lat="43.09688" lon="-1.10961">
        <ele>500.811648</ele>
        <time>2022-08-29T19:10:31.305Z</time>
      </trkpt>
      <trkpt lat="43.09696" lon="-1.11021">
        <ele>506.790478</ele>
        <time>2022-08-29T19:11:12.254Z</time>
      </trkpt>
      <trkpt lat="43.09697" lon="-1.11061">
        <ele>510.752674</ele>
        <time>2022-08-29T19:11:41.282Z</time>
      </trkpt>
      <trkpt lat="43.09695" lon="-1.11074">
        <ele>512.011253</ele>
        <time>2022-08-29T19:11:49.774Z</time>
      </trkpt>
      <trkpt lat="43.09689" lon="-1.1108">
        <ele>512.994683</ele>
        <time>2022-08-29T19:11:56.713Z</time>
      </trkpt>
      <trkpt lat="43.09682" lon="-1.11077">
        <ele>514.027658</ele>
        <time>2022-08-29T19:12:04.713Z</time>
      </trkpt>
      <trkpt lat="43.09676" lon="-1.11044">
        <ele>517.332185</ele>
        <time>2022-08-29T19:12:26.086Z</time>
      </trkpt>
      <trkpt lat="43.09669" lon="-1.11032">
        <ele>518.810364</ele>
        <time>2022-08-29T19:12:36.032Z</time>
      </trkpt>
      <trkpt lat="43.09575" lon="-1.10967">
        <ele>531.667645</ele>
        <time>2022-08-29T19:14:00.542Z</time>
      </trkpt>
      <trkpt lat="43.09562" lon="-1.10952">
        <ele>533.621887</ele>
        <time>2022-08-29T19:14:15.629Z</time>
      </trkpt>
      <trkpt lat="43.09519" lon="-1.10821">
        <ele>545.636971</ele>
        <time>2022-08-29T19:15:40.685Z</time>
      </trkpt>
      <trkpt lat="43.09496" lon="-1.10784">
        <ele>549.189083</ele>
        <time>2022-08-29T19:16:05.351Z</time>
      </trkpt>
      <trkpt lat="43.09476" lon="-1.10766">
        <ele>551.625869</ele>
        <time>2022-08-29T19:16:21.667Z</time>
      </trkpt>
      <trkpt lat="43.09425" lon="-1.10738">
        <ele>557.158537</ele>
        <time>2022-08-29T19:16:56.961Z</time>
      </trkpt>
      <trkpt lat="43.09388" lon="-1.10726">
        <ele>560.895252</ele>
        <time>2022-08-29T19:17:24.996Z</time>
      </trkpt>
      <trkpt lat="43.09359" lon="-1.10727">
        <ele>565.108163</ele>
        <time>2022-08-29T19:17:47.914Z</time>
      </trkpt>
      <trkpt lat="43.09352" lon="-1.10741">
        <ele>567.04262</ele>
        <time>2022-08-29T19:17:58.435Z</time>
      </trkpt>
      <trkpt lat="43.09358" lon="-1.10757">
        <ele>569.13733</ele>
        <time>2022-08-29T19:18:08.601Z</time>
      </trkpt>
      <trkpt lat="43.0939" lon="-1.10771">
        <ele>574.489718</ele>
        <time>2022-08-29T19:18:39.734Z</time>
      </trkpt>
      <trkpt lat="43.09403" lon="-1.10793">
        <ele>577.813516</ele>
        <time>2022-08-29T19:19:04.111Z</time>
      </trkpt>
      <trkpt lat="43.09411" lon="-1.1091">
        <ele>591.545216</ele>
        <time>2022-08-29T19:20:43.687Z</time>
      </trkpt>
      <trkpt lat="43.09411" lon="-1.11017">
        <ele>604.913827</ele>
        <time>2022-08-29T19:22:21.206Z</time>
      </trkpt>
      <trkpt lat="43.09425" lon="-1.11132">
        <ele>619.494202</ele>
        <time>2022-08-29T19:23:50.973Z</time>
      </trkpt>
      <trkpt lat="43.09517" lon="-1.11323">
        <ele>636.167046</ele>
        <time>2022-08-29T19:25:50.147Z</time>
      </trkpt>
      <trkpt lat="43.09534" lon="-1.11395">
        <ele>640.451974</ele>
        <time>2022-08-29T19:26:14.876Z</time>
      </trkpt>
      <trkpt lat="43.09549" lon="-1.11405">
        <ele>641.50655</ele>
        <time>2022-08-29T19:26:23.136Z</time>
      </trkpt>
      <trkpt lat="43.09618" lon="-1.11416">
        <ele>646.106255</ele>
        <time>2022-08-29T19:27:01.445Z</time>
      </trkpt>
      <trkpt lat="43.09633" lon="-1.11429">
        <ele>647.287578</ele>
        <time>2022-08-29T19:27:11.167Z</time>
      </trkpt>
      <trkpt lat="43.09657" lon="-1.11476">
        <ele>650.0209</ele>
        <time>2022-08-29T19:27:34.621Z</time>
      </trkpt>
      <trkpt lat="43.09676" lon="-1.11573">
        <ele>655.969579</ele>
        <time>2022-08-29T19:28:20.295Z</time>
      </trkpt>
      <trkpt lat="43.09667" lon="-1.11688">
        <ele>662.875893</ele>
        <time>2022-08-29T19:29:08.861Z</time>
      </trkpt>
      <trkpt lat="43.09663" lon="-1.11703">
        <ele>663.822243</ele>
        <time>2022-08-29T19:29:18.386Z</time>
      </trkpt>
      <trkpt lat="43.09657" lon="-1.11708">
        <ele>664.387834</ele>
        <time>2022-08-29T19:29:25.238Z</time>
      </trkpt>
      <trkpt lat="43.09651" lon="-1.117">
        <ele>665.251691</ele>
        <time>2022-08-29T19:29:32.835Z</time>
      </trkpt>
      <trkpt lat="43.09645" lon="-1.11615">
        <ele>672.919644</ele>
        <time>2022-08-29T19:30:18.784Z</time>
      </trkpt>
      <trkpt lat="43.09634" lon="-1.11575">
        <ele>676.768609</ele>
        <time>2022-08-29T19:30:42.050Z</time>
      </trkpt>
      <trkpt lat="43.09621" lon="-1.11549">
        <ele>679.608724</ele>
        <time>2022-08-29T19:31:00.713Z</time>
      </trkpt>
      <trkpt lat="43.09595" lon="-1.11529">
        <ele>683.247173</ele>
        <time>2022-08-29T19:31:29.137Z</time>
      </trkpt>
      <trkpt lat="43.09577" lon="-1.11527">
        <ele>685.4871</ele>
        <time>2022-08-29T19:31:44.315Z</time>
      </trkpt>
      <trkpt lat="43.09468" lon="-1.11559">
        <ele>704.348399</ele>
        <time>2022-08-29T19:33:49.902Z</time>
      </trkpt>
      <trkpt lat="43.09456" lon="-1.11552">
        <ele>706.514978</ele>
        <time>2022-08-29T19:34:06.928Z</time>
      </trkpt>
      <trkpt lat="43.09421" lon="-1.11499">
        <ele>715.631394</ele>
        <time>2022-08-29T19:35:04.045Z</time>
      </trkpt>
      <trkpt lat="43.09391" lon="-1.11472">
        <ele>721.268158</ele>
        <time>2022-08-29T19:35:41.881Z</time>
      </trkpt>
      <trkpt lat="43.09314" lon="-1.11426">
        <ele>733.597924</ele>
        <time>2022-08-29T19:37:05.960Z</time>
      </trkpt>
      <trkpt lat="43.09252" lon="-1.11399">
        <ele>743.234269</ele>
        <time>2022-08-29T19:38:03.563Z</time>
      </trkpt>
      <trkpt lat="43.09163" lon="-1.11275">
        <ele>757.683084</ele>
        <time>2022-08-29T19:39:49.937Z</time>
      </trkpt>
      <trkpt lat="43.09122" lon="-1.11209">
        <ele>764.662649</ele>
        <time>2022-08-29T19:40:36.371Z</time>
      </trkpt>
      <trkpt lat="43.09018" lon="-1.11061">
        <ele>773.432445</ele>
        <time>2022-08-29T19:41:55.254Z</time>
      </trkpt>
      <trkpt lat="43.08966" lon="-1.10976">
        <ele>775.67866</ele>
        <time>2022-08-29T19:42:23.621Z</time>
      </trkpt>
      <trkpt lat="43.08949" lon="-1.10962">
        <ele>775.910842</ele>
        <time>2022-08-29T19:42:29.280Z</time>
      </trkpt>
      <trkpt lat="43.08919" lon="-1.10949">
        <ele>776.273891</ele>
        <time>2022-08-29T19:42:37.818Z</time>
      </trkpt>
      <trkpt lat="43.08914" lon="-1.10948">
        <ele>776.340621</ele>
        <time>2022-08-29T19:42:39.063Z</time>
      </trkpt>
      <trkpt lat="43.08903" lon="-1.10945">
        <ele>776.464825</ele>
        <time>2022-08-29T19:42:41.660Z</time>
      </trkpt>
      <trkpt lat="43.08894" lon="-1.10943">
        <ele>776.572715</ele>
        <time>2022-08-29T19:42:43.994Z</time>
      </trkpt>
      <trkpt lat="43.08852" lon="-1.10927">
        <ele>777.083758</ele>
        <time>2022-08-29T19:42:53.178Z</time>
      </trkpt>
      <trkpt lat="43.08791" lon="-1.10885">
        <ele>776.949442</ele>
        <time>2022-08-29T19:43:07.172Z</time>
      </trkpt>
      <trkpt lat="43.08769" lon="-1.10863">
        <ele>776.85346</ele>
        <time>2022-08-29T19:43:12.333Z</time>
      </trkpt>
      <trkpt lat="43.08671" lon="-1.10688">
        <ele>780.480985</ele>
        <time>2022-08-29T19:43:49.532Z</time>
      </trkpt>
      <trkpt lat="43.08645" lon="-1.10628">
        <ele>783.338634</ele>
        <time>2022-08-29T19:44:18.761Z</time>
      </trkpt>
      <trkpt lat="43.08595" lon="-1.10568">
        <ele>787.488067</ele>
        <time>2022-08-29T19:45:07.619Z</time>
      </trkpt>
      <trkpt lat="43.08532" lon="-1.10507">
        <ele>796.402897</ele>
        <time>2022-08-29T19:46:11.608Z</time>
      </trkpt>
      <trkpt lat="43.08481" lon="-1.10475">
        <ele>802.819504</ele>
        <time>2022-08-29T19:47:00.547Z</time>
      </trkpt>
      <trkpt lat="43.08408" lon="-1.10452">
        <ele>810.460261</ele>
        <time>2022-08-29T19:47:56.397Z</time>
      </trkpt>
      <trkpt lat="43.08356" lon="-1.1039">
        <ele>816.561903</ele>
        <time>2022-08-29T19:48:38.463Z</time>
      </trkpt>
      <trkpt lat="43.08318" lon="-1.10337">
        <ele>821.415763</ele>
        <time>2022-08-29T19:49:11.961Z</time>
      </trkpt>
      <trkpt lat="43.08303" lon="-1.10305">
        <ele>824.114737</ele>
        <time>2022-08-29T19:49:30.261Z</time>
      </trkpt>
      <trkpt lat="43.08295" lon="-1.10242">
        <ele>829.666314</ele>
        <time>2022-08-29T19:50:04.234Z</time>
      </trkpt>
      <trkpt lat="43.08279" lon="-1.1021">
        <ele>832.991411</ele>
        <time>2022-08-29T19:50:25.734Z</time>
      </trkpt>
      <trkpt lat="43.08205" lon="-1.10123">
        <ele>844.450062</ele>
        <time>2022-08-29T19:51:50.354Z</time>
      </trkpt>
      <trkpt lat="43.08199" lon="-1.10107">
        <ele>846.352893</ele>
        <time>2022-08-29T19:52:05.078Z</time>
      </trkpt>
      <trkpt lat="43.08197" lon="-1.10072">
        <ele>849.924408</ele>
        <time>2022-08-29T19:52:29.950Z</time>
      </trkpt>
      <trkpt lat="43.08169" lon="-1.10041">
        <ele>854.988778</ele>
        <time>2022-08-29T19:53:06.448Z</time>
      </trkpt>
      <trkpt lat="43.08123" lon="-1.0997">
        <ele>864.72602</ele>
        <time>2022-08-29T19:54:12.948Z</time>
      </trkpt>
      <trkpt lat="43.08062" lon="-1.099">
        <ele>873.240919</ele>
        <time>2022-08-29T19:55:19.461Z</time>
      </trkpt>
      <trkpt lat="43.08045" lon="-1.0989">
        <ele>874.675292</ele>
        <time>2022-08-29T19:55:31.313Z</time>
      </trkpt>
      <trkpt lat="43.08024" lon="-1.09892">
        <ele>876.29776</ele>
        <time>2022-08-29T19:55:44.627Z</time>
      </trkpt>
      <trkpt lat="43.0799" lon="-1.09922">
        <ele>879.494132</ele>
        <time>2022-08-29T19:56:06.218Z</time>
      </trkpt>
      <trkpt lat="43.07953" lon="-1.09935">
        <ele>882.527903</ele>
        <time>2022-08-29T19:56:24.570Z</time>
      </trkpt>
      <trkpt lat="43.07927" lon="-1.09934">
        <ele>884.395008</ele>
        <time>2022-08-29T19:56:36.440Z</time>
      </trkpt>
      <trkpt lat="43.07863" lon="-1.09899">
        <ele>888.186319</ele>
        <time>2022-08-29T19:57:05.769Z</time>
      </trkpt>
      <trkpt lat="43.07737" lon="-1.0981">
        <ele>897.538686</ele>
        <time>2022-08-29T19:58:20.017Z</time>
      </trkpt>
      <trkpt lat="43.07666" lon="-1.09796">
        <ele>904.338543</ele>
        <time>2022-08-29T19:59:12.075Z</time>
      </trkpt>
      <trkpt lat="43.07636" lon="-1.09782">
        <ele>907.403664</ele>
        <time>2022-08-29T19:59:36.695Z</time>
      </trkpt>
      <trkpt lat="43.07626" lon="-1.09777">
        <ele>908.426382</ele>
        <time>2022-08-29T19:59:44.412Z</time>
      </trkpt>
      <trkpt lat="43.07583" lon="-1.09749">
        <ele>913.671086</ele>
        <time>2022-08-29T20:00:21.943Z</time>
      </trkpt>
      <trkpt lat="43.07553" lon="-1.09719">
        <ele>918.637748</ele>
        <time>2022-08-29T20:00:52.989Z</time>
      </trkpt>
      <trkpt lat="43.07465" lon="-1.09614">
        <ele>934.132373</ele>
        <time>2022-08-29T20:02:39.940Z</time>
      </trkpt>
      <trkpt lat="43.07388" lon="-1.0956">
        <ele>947.071965</ele>
        <time>2022-08-29T20:04:06.124Z</time>
      </trkpt>
      <trkpt lat="43.07359" lon="-1.09531">
        <ele>952.451867</ele>
        <time>2022-08-29T20:04:42.011Z</time>
      </trkpt>
      <trkpt lat="43.07338" lon="-1.09501">
        <ele>956.944312</ele>
        <time>2022-08-29T20:05:11.810Z</time>
      </trkpt>
      <trkpt lat="43.07282" lon="-1.09371">
        <ele>971.281754</ele>
        <time>2022-08-29T20:06:56.019Z</time>
      </trkpt>
      <trkpt lat="43.07237" lon="-1.09305">
        <ele>979.280097</ele>
        <time>2022-08-29T20:07:51.034Z</time>
      </trkpt>
      <trkpt lat="43.07092" lon="-1.0916">
        <ele>993.982493</ele>
        <time>2022-08-29T20:09:40.494Z</time>
      </trkpt>
      <trkpt lat="43.07086" lon="-1.09139">
        <ele>995.134491</ele>
        <time>2022-08-29T20:09:46.716Z</time>
      </trkpt>
      <trkpt lat="43.07092" lon="-1.09127">
        <ele>995.89541</ele>
        <time>2022-08-29T20:09:49.256Z</time>
      </trkpt>
      <trkpt lat="43.07149" lon="-1.09042">
        <ele>1002.823755</ele>
        <time>2022-08-29T20:10:34.902Z</time>
      </trkpt>
      <trkpt lat="43.07175" lon="-1.09017">
        <ele>1005.431794</ele>
        <time>2022-08-29T20:10:52.955Z</time>
      </trkpt>
      <trkpt lat="43.0717" lon="-1.09003">
        <ele>1006.365867</ele>
        <time>2022-08-29T20:11:04.366Z</time>
      </trkpt>
      <trkpt lat="43.07162" lon="-1.09005">
        <ele>1007.008453</ele>
        <time>2022-08-29T20:11:07.981Z</time>
      </trkpt>
      <trkpt lat="43.07115" lon="-1.09054">
        <ele>1011.993782</ele>
        <time>2022-08-29T20:11:55.287Z</time>
      </trkpt>
      <trkpt lat="43.07029" lon="-1.09129">
        <ele>1023.061968</ele>
        <time>2022-08-29T20:13:11.864Z</time>
      </trkpt>
      <trkpt lat="43.07025" lon="-1.09146">
        <ele>1024.45403</ele>
        <time>2022-08-29T20:13:28.384Z</time>
      </trkpt>
      <trkpt lat="43.07044" lon="-1.09209">
        <ele>1029.832316</ele>
        <time>2022-08-29T20:14:03.979Z</time>
      </trkpt>
      <trkpt lat="43.07093" lon="-1.09289">
        <ele>1037.211664</ele>
        <time>2022-08-29T20:14:52.030Z</time>
      </trkpt>
      <trkpt lat="43.07091" lon="-1.09302">
        <ele>1038.183667</ele>
        <time>2022-08-29T20:14:59.399Z</time>
      </trkpt>
      <trkpt lat="43.07087" lon="-1.09305">
        <ele>1038.605666</ele>
        <time>2022-08-29T20:15:03.762Z</time>
      </trkpt>
      <trkpt lat="43.06991" lon="-1.09227">
        <ele>1049.135196</ele>
        <time>2022-08-29T20:16:22.149Z</time>
      </trkpt>
      <trkpt lat="43.06917" lon="-1.09159">
        <ele>1057.064702</ele>
        <time>2022-08-29T20:17:26.833Z</time>
      </trkpt>
      <trkpt lat="43.06908" lon="-1.09144">
        <ele>1058.313793</ele>
        <time>2022-08-29T20:17:33.971Z</time>
      </trkpt>
      <trkpt lat="43.06904" lon="-1.09111">
        <ele>1060.515766</ele>
        <time>2022-08-29T20:17:50.279Z</time>
      </trkpt>
      <trkpt lat="43.06928" lon="-1.09045">
        <ele>1065.097288</ele>
        <time>2022-08-29T20:18:23.611Z</time>
      </trkpt>
      <trkpt lat="43.06949" lon="-1.0901">
        <ele>1067.650812</ele>
        <time>2022-08-29T20:18:41.950Z</time>
      </trkpt>
      <trkpt lat="43.06947" lon="-1.08993">
        <ele>1068.652407</ele>
        <time>2022-08-29T20:18:48.586Z</time>
      </trkpt>
      <trkpt lat="43.06937" lon="-1.08992">
        <ele>1069.409707</ele>
        <time>2022-08-29T20:18:55.325Z</time>
      </trkpt>
      <trkpt lat="43.06926" lon="-1.09">
        <ele>1070.364872</ele>
        <time>2022-08-29T20:19:01.721Z</time>
      </trkpt>
      <trkpt lat="43.06887" lon="-1.09041">
        <ele>1074.237257</ele>
        <time>2022-08-29T20:19:31.611Z</time>
      </trkpt>
      <trkpt lat="43.06834" lon="-1.0911">
        <ele>1079.823406</ele>
        <time>2022-08-29T20:20:18.764Z</time>
      </trkpt>
      <trkpt lat="43.06818" lon="-1.09147">
        <ele>1082.199682</ele>
        <time>2022-08-29T20:20:41.172Z</time>
      </trkpt>
      <trkpt lat="43.06805" lon="-1.09153">
        <ele>1083.186734</ele>
        <time>2022-08-29T20:20:54.292Z</time>
      </trkpt>
      <trkpt lat="43.06798" lon="-1.0915">
        <ele>1083.738936</ele>
        <time>2022-08-29T20:20:55.624Z</time>
      </trkpt>
      <trkpt lat="43.06793" lon="-1.09128">
        <ele>1084.961473</ele>
        <time>2022-08-29T20:21:07.328Z</time>
      </trkpt>
      <trkpt lat="43.06827" lon="-1.0904">
        <ele>1090.413823</ele>
        <time>2022-08-29T20:21:47.601Z</time>
      </trkpt>
      <trkpt lat="43.06828" lon="-1.09014">
        <ele>1091.696501</ele>
        <time>2022-08-29T20:21:56.007Z</time>
      </trkpt>
      <trkpt lat="43.06819" lon="-1.09005">
        <ele>1092.251852</ele>
        <time>2022-08-29T20:22:01.672Z</time>
      </trkpt>
      <trkpt lat="43.06781" lon="-1.08984">
        <ele>1094.42267</ele>
        <time>2022-08-29T20:22:18.221Z</time>
      </trkpt>
      <trkpt lat="43.06768" lon="-1.08983">
        <ele>1095.106898</ele>
        <time>2022-08-29T20:22:22.999Z</time>
      </trkpt>
      <trkpt lat="43.06718" lon="-1.09002">
        <ele>1097.827469</ele>
        <time>2022-08-29T20:22:47.397Z</time>
      </trkpt>
      <trkpt lat="43.0665" lon="-1.08987">
        <ele>1101.659028</ele>
        <time>2022-08-29T20:23:24.124Z</time>
      </trkpt>
      <trkpt lat="43.06578" lon="-1.08935">
        <ele>1107.15461</ele>
        <time>2022-08-29T20:24:11.142Z</time>
      </trkpt>
      <trkpt lat="43.06567" lon="-1.08917">
        <ele>1108.29726</ele>
        <time>2022-08-29T20:24:21.507Z</time>
      </trkpt>
      <trkpt lat="43.06553" lon="-1.08877">
        <ele>1110.472162</ele>
        <time>2022-08-29T20:24:39.677Z</time>
      </trkpt>
      <trkpt lat="43.06539" lon="-1.08865">
        <ele>1111.582484</ele>
        <time>2022-08-29T20:24:48.835Z</time>
      </trkpt>
      <trkpt lat="43.06527" lon="-1.08864">
        <ele>1112.443728</ele>
        <time>2022-08-29T20:24:55.988Z</time>
      </trkpt>
      <trkpt lat="43.06465" lon="-1.08892">
        <ele>1116.089953</ele>
        <time>2022-08-29T20:25:31.042Z</time>
      </trkpt>
      <trkpt lat="43.06415" lon="-1.08883">
        <ele>1118.825806</ele>
        <time>2022-08-29T20:25:53.846Z</time>
      </trkpt>
      <trkpt lat="43.06377" lon="-1.08889">
        <ele>1120.877345</ele>
        <time>2022-08-29T20:26:12.272Z</time>
      </trkpt>
      <trkpt lat="43.0636" lon="-1.08884">
        <ele>1121.833263</ele>
        <time>2022-08-29T20:26:21.843Z</time>
      </trkpt>
      <trkpt lat="43.06298" lon="-1.08832">
        <ele>1123.534415</ele>
        <time>2022-08-29T20:26:54.884Z</time>
      </trkpt>
      <trkpt lat="43.06282" lon="-1.08789">
        <ele>1124.039186</ele>
        <time>2022-08-29T20:27:07.910Z</time>
      </trkpt>
      <trkpt lat="43.06278" lon="-1.08754">
        <ele>1124.404744</ele>
        <time>2022-08-29T20:27:15.412Z</time>
      </trkpt>
      <trkpt lat="43.06254" lon="-1.08695">
        <ele>1125.124965</ele>
        <time>2022-08-29T20:27:25.246Z</time>
      </trkpt>
      <trkpt lat="43.06214" lon="-1.08555">
        <ele>1121.00877</ele>
        <time>2022-08-29T20:27:43.142Z</time>
      </trkpt>
      <trkpt lat="43.06195" lon="-1.08521">
        <ele>1119.665747</ele>
        <time>2022-08-29T20:27:47.940Z</time>
      </trkpt>
      <trkpt lat="43.06155" lon="-1.08472">
        <ele>1117.254181</ele>
        <time>2022-08-29T20:27:56.448Z</time>
      </trkpt>
      <trkpt lat="43.06124" lon="-1.08453">
        <ele>1115.361669</ele>
        <time>2022-08-29T20:28:01.741Z</time>
      </trkpt>
      <trkpt lat="43.06079" lon="-1.08407">
        <ele>1112.212316</ele>
        <time>2022-08-29T20:28:10.550Z</time>
      </trkpt>
      <trkpt lat="43.06035" lon="-1.08373">
        <ele>1109.34581</ele>
        <time>2022-08-29T20:28:18.522Z</time>
      </trkpt>
      <trkpt lat="43.05981" lon="-1.08274">
        <ele>1103.589086</ele>
        <time>2022-08-29T20:28:32.308Z</time>
      </trkpt>
      <trkpt lat="43.05947" lon="-1.08228">
        <ele>1100.299542</ele>
        <time>2022-08-29T20:28:39.412Z</time>
      </trkpt>
      <trkpt lat="43.05855" lon="-1.08139">
        <ele>1092.360602</ele>
        <time>2022-08-29T20:28:56.241Z</time>
      </trkpt>
      <trkpt lat="43.05833" lon="-1.08094">
        <ele>1089.458528</ele>
        <time>2022-08-29T20:29:02.019Z</time>
      </trkpt>
      <trkpt lat="43.0579" lon="-1.08079">
        <ele>1086.150656</ele>
        <time>2022-08-29T20:29:08.629Z</time>
      </trkpt>
      <trkpt lat="43.05688" lon="-1.07974">
        <ele>1077.864642</ele>
        <time>2022-08-29T20:29:27.787Z</time>
      </trkpt>
      <trkpt lat="43.05645" lon="-1.07896">
        <ele>1073.79368</ele>
        <time>2022-08-29T20:29:39.632Z</time>
      </trkpt>
      <trkpt lat="43.05638" lon="-1.07875">
        <ele>1072.81156</ele>
        <time>2022-08-29T20:29:42.649Z</time>
      </trkpt>
      <trkpt lat="43.05649" lon="-1.07814">
        <ele>1070.089574</ele>
        <time>2022-08-29T20:29:49.405Z</time>
      </trkpt>
      <trkpt lat="43.05646" lon="-1.07794">
        <ele>1069.178193</ele>
        <time>2022-08-29T20:29:51.519Z</time>
      </trkpt>
      <trkpt lat="43.05638" lon="-1.07785">
        <ele>1068.523544</ele>
        <time>2022-08-29T20:29:55.762Z</time>
      </trkpt>
      <trkpt lat="43.05619" lon="-1.07784">
        <ele>1067.352449</ele>
        <time>2022-08-29T20:29:58.461Z</time>
      </trkpt>
      <trkpt lat="43.05584" lon="-1.07811">
        <ele>1064.857203</ele>
        <time>2022-08-29T20:30:04.690Z</time>
      </trkpt>
      <trkpt lat="43.05551" lon="-1.07813">
        <ele>1062.827931</ele>
        <time>2022-08-29T20:30:09.815Z</time>
      </trkpt>
      <trkpt lat="43.05505" lon="-1.07792">
        <ele>1059.847223</ele>
        <time>2022-08-29T20:30:17.746Z</time>
      </trkpt>
      <trkpt lat="43.05483" lon="-1.07775">
        <ele>1058.342819</ele>
        <time>2022-08-29T20:30:21.356Z</time>
      </trkpt>
      <trkpt lat="43.05449" lon="-1.07731">
        <ele>1055.560499</ele>
        <time>2022-08-29T20:30:28.070Z</time>
      </trkpt>
      <trkpt lat="43.05446" lon="-1.07717">
        <ele>1054.890581</ele>
        <time>2022-08-29T20:30:29.738Z</time>
      </trkpt>
      <trkpt lat="43.05452" lon="-1.07677">
        <ele>1053.097566</ele>
        <time>2022-08-29T20:30:34.463Z</time>
      </trkpt>
      <trkpt lat="43.05445" lon="-1.07661">
        <ele>1052.307163</ele>
        <time>2022-08-29T20:30:36.660Z</time>
      </trkpt>
      <trkpt lat="43.05406" lon="-1.07658">
        <ele>1049.953763</ele>
        <time>2022-08-29T20:30:43.121Z</time>
      </trkpt>
      <trkpt lat="43.05394" lon="-1.07652">
        <ele>1049.232298</ele>
        <time>2022-08-29T20:30:45.229Z</time>
      </trkpt>
      <trkpt lat="43.05284" lon="-1.0755">
        <ele>1042.680177</ele>
        <time>2022-08-29T20:31:06.427Z</time>
      </trkpt>
      <trkpt lat="43.05178" lon="-1.07519">
        <ele>1036.710932</ele>
        <time>2022-08-29T20:31:23.137Z</time>
      </trkpt>
      <trkpt lat="43.05134" lon="-1.07546">
        <ele>1033.859958</ele>
        <time>2022-08-29T20:31:30.632Z</time>
      </trkpt>
      <trkpt lat="43.05115" lon="-1.07546">
        <ele>1032.776856</ele>
        <time>2022-08-29T20:31:33.502Z</time>
      </trkpt>
      <trkpt lat="43.05064" lon="-1.07505">
        <ele>1029.39704</ele>
        <time>2022-08-29T20:31:42.736Z</time>
      </trkpt>
      <trkpt lat="43.04961" lon="-1.07455">
        <ele>1023.999271</ele>
        <time>2022-08-29T20:31:59.808Z</time>
      </trkpt>
      <trkpt lat="43.04832" lon="-1.07315">
        <ele>1017.03329</ele>
        <time>2022-08-29T20:32:27.277Z</time>
      </trkpt>
      <trkpt lat="43.04826" lon="-1.07312">
        <ele>1016.785743</ele>
        <time>2022-08-29T20:32:28.328Z</time>
      </trkpt>
      <trkpt lat="43.04812" lon="-1.07305">
        <ele>1016.222331</ele>
        <time>2022-08-29T20:32:30.792Z</time>
      </trkpt>
      <trkpt lat="43.04799" lon="-1.07301">
        <ele>1015.731532</ele>
        <time>2022-08-29T20:32:32.917Z</time>
      </trkpt>
      <trkpt lat="43.04785" lon="-1.07304">
        <ele>1015.197054</ele>
        <time>2022-08-29T20:32:35.172Z</time>
      </trkpt>
      <trkpt lat="43.04749" lon="-1.07326">
        <ele>1013.770544</ele>
        <time>2022-08-29T20:32:41.734Z</time>
      </trkpt>
      <trkpt lat="43.0472" lon="-1.07333">
        <ele>1012.802702</ele>
        <time>2022-08-29T20:32:46.744Z</time>
      </trkpt>
      <trkpt lat="43.04641" lon="-1.07331">
        <ele>1010.240417</ele>
        <time>2022-08-29T20:33:00.374Z</time>
      </trkpt>
      <trkpt lat="43.04601" lon="-1.07331">
        <ele>1008.95139</ele>
        <time>2022-08-29T20:33:07.234Z</time>
      </trkpt>
      <trkpt lat="43.04538" lon="-1.07315">
        <ele>1007.131856</ele>
        <time>2022-08-29T20:33:18.310Z</time>
      </trkpt>
      <trkpt lat="43.04502" lon="-1.07302">
        <ele>1006.158175</ele>
        <time>2022-08-29T20:33:24.501Z</time>
      </trkpt>
      <trkpt lat="43.04456" lon="-1.07267">
        <ele>1004.751543</ele>
        <time>2022-08-29T20:33:33.843Z</time>
      </trkpt>
      <trkpt lat="43.04438" lon="-1.07264">
        <ele>1004.267652</ele>
        <time>2022-08-29T20:33:37.448Z</time>
      </trkpt>
      <trkpt lat="43.04433" lon="-1.07267">
        <ele>1004.125811</ele>
        <time>2022-08-29T20:33:38.412Z</time>
      </trkpt>
      <trkpt lat="43.04421" lon="-1.07279">
        <ele>1003.732175</ele>
        <time>2022-08-29T20:33:41.039Z</time>
      </trkpt>
      <trkpt lat="43.04383" lon="-1.07312">
        <ele>1003.231534</ele>
        <time>2022-08-29T20:33:49.624Z</time>
      </trkpt>
      <trkpt lat="43.04258" lon="-1.074">
        <ele>1001.872448</ele>
        <time>2022-08-29T20:34:17.455Z</time>
      </trkpt>
      <trkpt lat="43.04251" lon="-1.07405">
        <ele>1001.938094</ele>
        <time>2022-08-29T20:34:19.504Z</time>
      </trkpt>
      <trkpt lat="43.04144" lon="-1.07451">
        <ele>1002.830945</ele>
        <time>2022-08-29T20:34:49.414Z</time>
      </trkpt>
      <trkpt lat="43.04068" lon="-1.07512">
        <ele>1003.532465</ele>
        <time>2022-08-29T20:35:15.211Z</time>
      </trkpt>
      <trkpt lat="43.04052" lon="-1.07529">
        <ele>1003.689685</ele>
        <time>2022-08-29T20:35:20.912Z</time>
      </trkpt>
      <trkpt lat="43.04033" lon="-1.07574">
        <ele>1003.984877</ele>
        <time>2022-08-29T20:35:31.695Z</time>
      </trkpt>
      <trkpt lat="43.04022" lon="-1.07588">
        <ele>1004.106439</ele>
        <time>2022-08-29T20:35:36.366Z</time>
      </trkpt>
      <trkpt lat="43.03985" lon="-1.07609">
        <ele>1004.422452</ele>
        <time>2022-08-29T20:35:47.759Z</time>
      </trkpt>
      <trkpt lat="43.03968" lon="-1.07613">
        <ele>1004.551155</ele>
        <time>2022-08-29T20:35:51.165Z</time>
      </trkpt>
      <trkpt lat="43.0394" lon="-1.076">
        <ele>1004.466932</ele>
        <time>2022-08-29T20:35:57.632Z</time>
      </trkpt>
      <trkpt lat="43.03919" lon="-1.07598">
        <ele>1003.975735</ele>
        <time>2022-08-29T20:36:01.950Z</time>
      </trkpt>
      <trkpt lat="43.03851" lon="-1.07625">
        <ele>1002.37515</ele>
        <time>2022-08-29T20:36:14.736Z</time>
      </trkpt>
      <trkpt lat="43.03701" lon="-1.07553">
        <ele>998.660527</ele>
        <time>2022-08-29T20:36:41.613Z</time>
      </trkpt>
      <trkpt lat="43.03653" lon="-1.07549">
        <ele>997.504887</ele>
        <time>2022-08-29T20:36:50.236Z</time>
      </trkpt>
      <trkpt lat="43.03621" lon="-1.07558">
        <ele>996.730991</ele>
        <time>2022-08-29T20:36:56.318Z</time>
      </trkpt>
      <trkpt lat="43.03528" lon="-1.07621">
        <ele>995.660801</ele>
        <time>2022-08-29T20:37:18.223Z</time>
      </trkpt>
      <trkpt lat="43.03496" lon="-1.07652">
        <ele>995.373811</ele>
        <time>2022-08-29T20:37:26.512Z</time>
      </trkpt>
      <trkpt lat="43.03464" lon="-1.07688">
        <ele>995.069511</ele>
        <time>2022-08-29T20:37:34.642Z</time>
      </trkpt>
      <trkpt lat="43.03425" lon="-1.07751">
        <ele>994.628972</ele>
        <time>2022-08-29T20:37:46.583Z</time>
      </trkpt>
      <trkpt lat="43.034" lon="-1.07773">
        <ele>994.413759</ele>
        <time>2022-08-29T20:37:52.473Z</time>
      </trkpt>
      <trkpt lat="43.03381" lon="-1.07804">
        <ele>994.194393</ele>
        <time>2022-08-29T20:37:58.563Z</time>
      </trkpt>
      <trkpt lat="43.03348" lon="-1.07825">
        <ele>993.931764</ele>
        <time>2022-08-29T20:38:06.047Z</time>
      </trkpt>
      <trkpt lat="43.03313" lon="-1.0786">
        <ele>993.629884</ele>
        <time>2022-08-29T20:38:15.343Z</time>
      </trkpt>
      <trkpt lat="43.03195" lon="-1.07893">
        <ele>993.036732</ele>
        <time>2022-08-29T20:38:40.866Z</time>
      </trkpt>
      <trkpt lat="43.0316" lon="-1.07867">
        <ele>992.839206</ele>
        <time>2022-08-29T20:38:49.086Z</time>
      </trkpt>
      <trkpt lat="43.03148" lon="-1.07866">
        <ele>992.778132</ele>
        <time>2022-08-29T20:38:51.537Z</time>
      </trkpt>
      <trkpt lat="43.03091" lon="-1.07896">
        <ele>993.955598</ele>
        <time>2022-08-29T20:39:03.358Z</time>
      </trkpt>
      <trkpt lat="43.03046" lon="-1.079">
        <ele>994.863801</ele>
        <time>2022-08-29T20:39:18.450Z</time>
      </trkpt>
      <trkpt lat="43.03024" lon="-1.07913">
        <ele>995.340427</ele>
        <time>2022-08-29T20:39:25.004Z</time>
      </trkpt>
      <trkpt lat="43.03001" lon="-1.07906">
        <ele>995.803111</ele>
        <time>2022-08-29T20:39:37.113Z</time>
      </trkpt>
      <trkpt lat="43.02975" lon="-1.07906">
        <ele>996.32618</ele>
        <time>2022-08-29T20:39:50.907Z</time>
      </trkpt>
      <trkpt lat="43.02948" lon="-1.07914">
        <ele>998.016017</ele>
        <time>2022-08-29T20:40:00.943Z</time>
      </trkpt>
      <trkpt lat="43.02926" lon="-1.07932">
        <ele>999.611088</ele>
        <time>2022-08-29T20:40:14.259Z</time>
      </trkpt>
      <trkpt lat="43.0292" lon="-1.07938">
        <ele>1000.130057</ele>
        <time>2022-08-29T20:40:18.058Z</time>
      </trkpt>
      <trkpt lat="43.02908" lon="-1.0794">
        <ele>1000.859873</ele>
        <time>2022-08-29T20:40:29.144Z</time>
      </trkpt>
      <trkpt lat="43.02825" lon="-1.07903">
        <ele>1006.446503</ele>
        <time>2022-08-29T20:41:21.203Z</time>
      </trkpt>
      <trkpt lat="43.02818" lon="-1.07888">
        <ele>1007.294638</ele>
        <time>2022-08-29T20:41:28.655Z</time>
      </trkpt>
      <trkpt lat="43.02806" lon="-1.07823">
        <ele>1007.804693</ele>
        <time>2022-08-29T20:41:53.198Z</time>
      </trkpt>
      <trkpt lat="43.02788" lon="-1.07762">
        <ele>1007.777568</ele>
        <time>2022-08-29T20:42:02.960Z</time>
      </trkpt>
      <trkpt lat="43.02744" lon="-1.07654">
        <ele>1007.726626</ele>
        <time>2022-08-29T20:42:19.045Z</time>
      </trkpt>
      <trkpt lat="43.02733" lon="-1.07611">
        <ele>1006.211665</ele>
        <time>2022-08-29T20:42:24.558Z</time>
      </trkpt>
      <trkpt lat="43.02716" lon="-1.07586">
        <ele>1005.090726</ele>
        <time>2022-08-29T20:42:28.420Z</time>
      </trkpt>
      <trkpt lat="43.0269" lon="-1.07583">
        <ele>1003.883572</ele>
        <time>2022-08-29T20:42:32.414Z</time>
      </trkpt>
      <trkpt lat="43.02638" lon="-1.076">
        <ele>1001.416184</ele>
        <time>2022-08-29T20:42:40.769Z</time>
      </trkpt>
      <trkpt lat="43.02586" lon="-1.0761">
        <ele>999.014132</ele>
        <time>2022-08-29T20:42:49.598Z</time>
      </trkpt>
      <trkpt lat="43.02571" lon="-1.0762">
        <ele>998.325586</ele>
        <time>2022-08-29T20:42:52.254Z</time>
      </trkpt>
      <trkpt lat="43.02551" lon="-1.07644">
        <ele>997.206255</ele>
        <time>2022-08-29T20:42:56.729Z</time>
      </trkpt>
      <trkpt lat="43.02518" lon="-1.07657">
        <ele>995.764333</ele>
        <time>2022-08-29T20:43:02.354Z</time>
      </trkpt>
      <trkpt lat="43.02487" lon="-1.0766">
        <ele>994.465402</ele>
        <time>2022-08-29T20:43:07.382Z</time>
      </trkpt>
      <trkpt lat="43.02468" lon="-1.07669">
        <ele>993.611704</ele>
        <time>2022-08-29T20:43:10.601Z</time>
      </trkpt>
      <trkpt lat="43.0246" lon="-1.07681">
        <ele>993.130459</ele>
        <time>2022-08-29T20:43:12.453Z</time>
      </trkpt>
      <trkpt lat="43.02458" lon="-1.0771">
        <ele>992.23414</ele>
        <time>2022-08-29T20:43:15.869Z</time>
      </trkpt>
      <trkpt lat="43.02463" lon="-1.0787">
        <ele>988.380085</ele>
        <time>2022-08-29T20:43:35.657Z</time>
      </trkpt>
      <trkpt lat="43.02458" lon="-1.07892">
        <ele>987.820838</ele>
        <time>2022-08-29T20:43:38.762Z</time>
      </trkpt>
      <trkpt lat="43.02455" lon="-1.07959">
        <ele>986.259371</ele>
        <time>2022-08-29T20:43:47.555Z</time>
      </trkpt>
      <trkpt lat="43.02447" lon="-1.08004">
        <ele>984.800744</ele>
        <time>2022-08-29T20:43:53.558Z</time>
      </trkpt>
      <trkpt lat="43.02432" lon="-1.08049">
        <ele>983.202984</ele>
        <time>2022-08-29T20:43:59.644Z</time>
      </trkpt>
      <trkpt lat="43.02409" lon="-1.08091">
        <ele>981.509277</ele>
        <time>2022-08-29T20:44:05.856Z</time>
      </trkpt>
      <trkpt lat="43.02399" lon="-1.08101">
        <ele>980.969466</ele>
        <time>2022-08-29T20:44:07.805Z</time>
      </trkpt>
      <trkpt lat="43.02331" lon="-1.08119">
        <ele>977.788579</ele>
        <time>2022-08-29T20:44:18.655Z</time>
      </trkpt>
      <trkpt lat="43.0226" lon="-1.08151">
        <ele>973.402907</ele>
        <time>2022-08-29T20:44:30.116Z</time>
      </trkpt>
      <trkpt lat="43.022" lon="-1.08186">
        <ele>969.603909</ele>
        <time>2022-08-29T20:44:40.040Z</time>
      </trkpt>
      <trkpt lat="43.02177" lon="-1.08179">
        <ele>968.205301</ele>
        <time>2022-08-29T20:44:43.759Z</time>
      </trkpt>
      <trkpt lat="43.02138" lon="-1.08146">
        <ele>965.946546</ele>
        <time>2022-08-29T20:44:50.922Z</time>
      </trkpt>
      <trkpt lat="43.02058" lon="-1.0818">
        <ele>961.99796</ele>
        <time>2022-08-29T20:45:04.557Z</time>
      </trkpt>
      <trkpt lat="43.01996" lon="-1.08222">
        <ele>958.791259</ele>
        <time>2022-08-29T20:45:15.777Z</time>
      </trkpt>
      <trkpt lat="43.01955" lon="-1.08269">
        <ele>956.704885</ele>
        <time>2022-08-29T20:45:24.315Z</time>
      </trkpt>
      <trkpt lat="43.01916" lon="-1.08331">
        <ele>954.368299</ele>
        <time>2022-08-29T20:45:34.183Z</time>
      </trkpt>
      <trkpt lat="43.01908" lon="-1.08343">
        <ele>953.876096</ele>
        <time>2022-08-29T20:45:36.211Z</time>
      </trkpt>
      <trkpt lat="43.01841" lon="-1.08385">
        <ele>951.473933</ele>
        <time>2022-08-29T20:45:48.759Z</time>
      </trkpt>
      <trkpt lat="43.01747" lon="-1.0838">
        <ele>949.357409</ele>
        <time>2022-08-29T20:46:05.787Z</time>
      </trkpt>
      <trkpt lat="43.0167" lon="-1.0837">
        <ele>947.659708</ele>
        <time>2022-08-29T20:46:20.379Z</time>
      </trkpt>
      <trkpt lat="43.01661" lon="-1.08373">
        <ele>947.486228</ele>
        <time>2022-08-29T20:46:22.075Z</time>
      </trkpt>
      <trkpt lat="43.01644" lon="-1.08407">
        <ele>946.921077</ele>
        <time>2022-08-29T20:46:27.496Z</time>
      </trkpt>
      <trkpt lat="43.01632" lon="-1.0847">
        <ele>946.016094</ele>
        <time>2022-08-29T20:46:36.415Z</time>
      </trkpt>
      <trkpt lat="43.01613" lon="-1.08506">
        <ele>945.390493</ele>
        <time>2022-08-29T20:46:42.846Z</time>
      </trkpt>
      <trkpt lat="43.01597" lon="-1.08518">
        <ele>945.042504</ele>
        <time>2022-08-29T20:46:46.422Z</time>
      </trkpt>
      <trkpt lat="43.01533" lon="-1.08528">
        <ele>943.823804</ele>
        <time>2022-08-29T20:46:57.736Z</time>
      </trkpt>
      <trkpt lat="43.01515" lon="-1.08519">
        <ele>943.455611</ele>
        <time>2022-08-29T20:47:00.769Z</time>
      </trkpt>
      <trkpt lat="43.01475" lon="-1.08459">
        <ele>942.33326</ele>
        <time>2022-08-29T20:47:11.759Z</time>
      </trkpt>
      <trkpt lat="43.0146" lon="-1.08422">
        <ele>941.740317</ele>
        <time>2022-08-29T20:47:17.805Z</time>
      </trkpt>
      <trkpt lat="43.01455" lon="-1.08399">
        <ele>941.413075</ele>
        <time>2022-08-29T20:47:20.583Z</time>
      </trkpt>
      <trkpt lat="43.0145" lon="-1.084">
        <ele>941.317826</ele>
        <time>2022-08-29T20:47:22.511Z</time>
      </trkpt>
      <trkpt lat="43.0143" lon="-1.08363">
        <ele>942.034624</ele>
        <time>2022-08-29T20:47:29.093Z</time>
      </trkpt>
      <trkpt lat="43.01423" lon="-1.0837">
        <ele>942.308255</ele>
        <time>2022-08-29T20:47:32.223Z</time>
      </trkpt>
      <trkpt lat="43.01385" lon="-1.08508">
        <ele>945.628729</ele>
        <time>2022-08-29T20:48:29.040Z</time>
      </trkpt>
      <trkpt lat="43.01363" lon="-1.08553">
        <ele>946.916065</ele>
        <time>2022-08-29T20:48:58.853Z</time>
      </trkpt>
      <trkpt lat="43.01338" lon="-1.0858">
        <ele>948.255937</ele>
        <time>2022-08-29T20:49:21.167Z</time>
      </trkpt>
      <trkpt lat="43.01319" lon="-1.08617">
        <ele>949.660047</ele>
        <time>2022-08-29T20:49:44.262Z</time>
      </trkpt>
      <trkpt lat="43.01313" lon="-1.0862">
        <ele>949.89632</ele>
        <time>2022-08-29T20:49:47.688Z</time>
      </trkpt>
      <trkpt lat="43.01285" lon="-1.08604">
        <ele>951.211025</ele>
        <time>2022-08-29T20:50:08.083Z</time>
      </trkpt>
      <trkpt lat="43.01229" lon="-1.08564">
        <ele>953.908624</ele>
        <time>2022-08-29T20:50:43.968Z</time>
      </trkpt>
      <trkpt lat="43.01219" lon="-1.08549">
        <ele>954.172635</ele>
        <time>2022-08-29T20:50:50.009Z</time>
      </trkpt>
      <trkpt lat="43.01187" lon="-1.08517">
        <ele>951.565418</ele>
        <time>2022-08-29T20:51:03.177Z</time>
      </trkpt>
      <trkpt lat="43.01174" lon="-1.08517">
        <ele>950.674286</ele>
        <time>2022-08-29T20:51:06.935Z</time>
      </trkpt>
      <trkpt lat="43.01142" lon="-1.08496">
        <ele>948.372207</ele>
        <time>2022-08-29T20:51:16.257Z</time>
      </trkpt>
      <trkpt lat="43.01115" lon="-1.08465">
        <ele>946.055147</ele>
        <time>2022-08-29T20:51:25.420Z</time>
      </trkpt>
      <trkpt lat="43.01068" lon="-1.08473">
        <ele>942.925319</ele>
        <time>2022-08-29T20:51:37.557Z</time>
      </trkpt>
      <trkpt lat="43.0099" lon="-1.08471">
        <ele>935.818544</ele>
        <time>2022-08-29T20:51:57.180Z</time>
      </trkpt>
      <trkpt lat="43.0083" lon="-1.085">
        <ele>923.222102</ele>
        <time>2022-08-29T20:52:39.812Z</time>
      </trkpt>
      <trkpt lat="43.00802" lon="-1.08525">
        <ele>921.65858</ele>
        <time>2022-08-29T20:52:49.856Z</time>
      </trkpt>
      <trkpt lat="43.0077" lon="-1.08575">
        <ele>919.448859</ele>
        <time>2022-08-29T20:53:04.769Z</time>
      </trkpt>
      <trkpt lat="43.00761" lon="-1.08609">
        <ele>918.241445</ele>
        <time>2022-08-29T20:53:13.274Z</time>
      </trkpt>
      <trkpt lat="43.00748" lon="-1.08611">
        <ele>917.638373</ele>
        <time>2022-08-29T20:53:17.657Z</time>
      </trkpt>
      <trkpt lat="43.00711" lon="-1.08643">
        <ele>916.793323</ele>
        <time>2022-08-29T20:53:32.453Z</time>
      </trkpt>
      <trkpt lat="43.0069" lon="-1.08649">
        <ele>916.443613</ele>
        <time>2022-08-29T20:53:39.978Z</time>
      </trkpt>
      <trkpt lat="43.00644" lon="-1.08632">
        <ele>915.689522</ele>
        <time>2022-08-29T20:53:55.866Z</time>
      </trkpt>
      <trkpt lat="43.00619" lon="-1.08568">
        <ele>914.848396</ele>
        <time>2022-08-29T20:54:13.488Z</time>
      </trkpt>
      <trkpt lat="43.00593" lon="-1.0854">
        <ele>914.257149</ele>
        <time>2022-08-29T20:54:24.354Z</time>
      </trkpt>
      <trkpt lat="43.00564" lon="-1.08526">
        <ele>913.61694</ele>
        <time>2022-08-29T20:54:34.578Z</time>
      </trkpt>
      <trkpt lat="43.00469" lon="-1.0851">
        <ele>911.633271</ele>
        <time>2022-08-29T20:55:05.234Z</time>
      </trkpt>
      <trkpt lat="43.00413" lon="-1.08524">
        <ele>910.715232</ele>
        <time>2022-08-29T20:55:23.267Z</time>
      </trkpt>
      <trkpt lat="43.0038" lon="-1.08545">
        <ele>910.504879</ele>
        <time>2022-08-29T20:55:35.448Z</time>
      </trkpt>
      <trkpt lat="43.00354" lon="-1.08572">
        <ele>910.314998</ele>
        <time>2022-08-29T20:55:47.399Z</time>
      </trkpt>
      <trkpt lat="43.00325" lon="-1.08614">
        <ele>910.069069</ele>
        <time>2022-08-29T20:56:03.404Z</time>
      </trkpt>
      <trkpt lat="43.003" lon="-1.08674">
        <ele>909.77607</ele>
        <time>2022-08-29T20:56:22.831Z</time>
      </trkpt>
      <trkpt lat="43.00287" lon="-1.08723">
        <ele>910.049203</ele>
        <time>2022-08-29T20:56:36.864Z</time>
      </trkpt>
      <trkpt lat="43.00293" lon="-1.08778">
        <ele>910.346057</ele>
        <time>2022-08-29T20:56:52.700Z</time>
      </trkpt>
      <trkpt lat="43.00315" lon="-1.08809">
        <ele>910.577721</ele>
        <time>2022-08-29T20:57:05.320Z</time>
      </trkpt>
      <trkpt lat="43.00336" lon="-1.08856">
        <ele>910.875683</ele>
        <time>2022-08-29T20:57:23.693Z</time>
      </trkpt>
      <trkpt lat="43.00338" lon="-1.08888">
        <ele>911.044537</ele>
        <time>2022-08-29T20:57:33.818Z</time>
      </trkpt>
      <trkpt lat="43.00315" lon="-1.08963">
        <ele>911.776957</ele>
        <time>2022-08-29T20:57:58.726Z</time>
      </trkpt>
      <trkpt lat="43.00291" lon="-1.08981">
        <ele>912.138024</ele>
        <time>2022-08-29T20:58:11.083Z</time>
      </trkpt>
      <trkpt lat="43.00222" lon="-1.09007">
        <ele>913.057314</ele>
        <time>2022-08-29T20:58:41.805Z</time>
      </trkpt>
      <trkpt lat="43.00209" lon="-1.09019">
        <ele>913.257254</ele>
        <time>2022-08-29T20:58:48.889Z</time>
      </trkpt>
      <trkpt lat="43.00192" lon="-1.09095">
        <ele>913.551179</ele>
        <time>2022-08-29T20:59:15.223Z</time>
      </trkpt>
      <trkpt lat="43.00184" lon="-1.09192">
        <ele>913.772044</ele>
        <time>2022-08-29T20:59:44.828Z</time>
      </trkpt>
      <trkpt lat="43.00171" lon="-1.09262">
        <ele>913.932687</ele>
        <time>2022-08-29T21:00:03.545Z</time>
      </trkpt>
      <trkpt lat="43.00177" lon="-1.09309">
        <ele>913.240885</ele>
        <time>2022-08-29T21:00:15.088Z</time>
      </trkpt>
      <trkpt lat="43.00187" lon="-1.09331">
        <ele>912.681102</ele>
        <time>2022-08-29T21:00:21.346Z</time>
      </trkpt>
      <trkpt lat="43.00265" lon="-1.09398">
        <ele>910.05984</ele>
        <time>2022-08-29T21:00:49.524Z</time>
      </trkpt>
      <trkpt lat="43.00281" lon="-1.09419">
        <ele>909.443823</ele>
        <time>2022-08-29T21:00:55.971Z</time>
      </trkpt>
      <trkpt lat="43.00289" lon="-1.09488">
        <ele>908.156191</ele>
        <time>2022-08-29T21:01:11.313Z</time>
      </trkpt>
      <trkpt lat="43.00264" lon="-1.09631">
        <ele>905.723637</ele>
        <time>2022-08-29T21:01:45.091Z</time>
      </trkpt>
      <trkpt lat="43.00262" lon="-1.0967">
        <ele>905.073372</ele>
        <time>2022-08-29T21:01:55.083Z</time>
      </trkpt>
      <trkpt lat="43.00267" lon="-1.09681">
        <ele>904.86197</ele>
        <time>2022-08-29T21:01:58.404Z</time>
      </trkpt>
      <trkpt lat="43.00299" lon="-1.09704">
        <ele>904.788914</ele>
        <time>2022-08-29T21:02:12.256Z</time>
      </trkpt>
      <trkpt lat="43.00309" lon="-1.09729">
        <ele>904.807146</ele>
        <time>2022-08-29T21:02:20.825Z</time>
      </trkpt>
      <trkpt lat="43.00303" lon="-1.09738">
        <ele>904.815012</ele>
        <time>2022-08-29T21:02:25.019Z</time>
      </trkpt>
      <trkpt lat="43.00291" lon="-1.09733">
        <ele>904.826056</ele>
        <time>2022-08-29T21:02:30.170Z</time>
      </trkpt>
      <trkpt lat="43.00229" lon="-1.09733">
        <ele>904.879842</ele>
        <time>2022-08-29T21:02:56.789Z</time>
      </trkpt>
      <trkpt lat="43.00216" lon="-1.0974">
        <ele>904.892008</ele>
        <time>2022-08-29T21:03:01.752Z</time>
      </trkpt>
      <trkpt lat="43.00182" lon="-1.09806">
        <ele>904.009283</ele>
        <time>2022-08-29T21:03:22.305Z</time>
      </trkpt>
      <trkpt lat="43.00165" lon="-1.09854">
        <ele>902.842738</ele>
        <time>2022-08-29T21:03:34.703Z</time>
      </trkpt>
      <trkpt lat="43.00153" lon="-1.09906">
        <ele>901.63886</ele>
        <time>2022-08-29T21:03:46.859Z</time>
      </trkpt>
      <trkpt lat="43.00153" lon="-1.09956">
        <ele>900.555281</ele>
        <time>2022-08-29T21:03:57.700Z</time>
      </trkpt>
      <trkpt lat="43.00143" lon="-1.10019">
        <ele>899.026014</ele>
        <time>2022-08-29T21:04:11.420Z</time>
      </trkpt>
      <trkpt lat="43.0012" lon="-1.10088">
        <ele>896.800344</ele>
        <time>2022-08-29T21:04:27.463Z</time>
      </trkpt>
      <trkpt lat="43.00077" lon="-1.10136">
        <ele>894.602157</ele>
        <time>2022-08-29T21:04:43.741Z</time>
      </trkpt>
      <trkpt lat="43.00029" lon="-1.10176">
        <ele>892.359651</ele>
        <time>2022-08-29T21:05:01.037Z</time>
      </trkpt>
      <trkpt lat="43.00012" lon="-1.10185">
        <ele>891.655161</ele>
        <time>2022-08-29T21:05:07.006Z</time>
      </trkpt>
      <trkpt lat="42.99994" lon="-1.10184">
        <ele>890.989936</ele>
        <time>2022-08-29T21:05:12.586Z</time>
      </trkpt>
      <trkpt lat="42.99979" lon="-1.10174">
        <ele>890.341317</ele>
        <time>2022-08-29T21:05:18.280Z</time>
      </trkpt>
      <trkpt lat="42.99947" lon="-1.10226">
        <ele>888.471326</ele>
        <time>2022-08-29T21:05:33.183Z</time>
      </trkpt>
      <trkpt lat="42.99916" lon="-1.10244">
        <ele>887.182368</ele>
        <time>2022-08-29T21:05:42.968Z</time>
      </trkpt>
      <trkpt lat="42.99842" lon="-1.10255">
        <ele>884.683604</ele>
        <time>2022-08-29T21:06:04.813Z</time>
      </trkpt>
      <trkpt lat="42.99801" lon="-1.10272">
        <ele>883.513634</ele>
        <time>2022-08-29T21:06:17.537Z</time>
      </trkpt>
      <trkpt lat="42.99783" lon="-1.10297">
        <ele>882.802805</ele>
        <time>2022-08-29T21:06:25.606Z</time>
      </trkpt>
      <trkpt lat="42.99716" lon="-1.10293">
        <ele>880.947392</ele>
        <time>2022-08-29T21:06:47.410Z</time>
      </trkpt>
      <trkpt lat="42.99668" lon="-1.10307">
        <ele>881.195806</ele>
        <time>2022-08-29T21:07:04.035Z</time>
      </trkpt>
      <trkpt lat="42.9961" lon="-1.10364">
        <ele>882.395336</ele>
        <time>2022-08-29T21:07:39.116Z</time>
      </trkpt>
      <trkpt lat="42.99524" lon="-1.10381">
        <ele>883.712834</ele>
        <time>2022-08-29T21:08:25.506Z</time>
      </trkpt>
      <trkpt lat="42.99508" lon="-1.10391">
        <ele>883.804341</ele>
        <time>2022-08-29T21:08:33.991Z</time>
      </trkpt>
      <trkpt lat="42.99457" lon="-1.10393">
        <ele>884.082752</ele>
        <time>2022-08-29T21:08:56.846Z</time>
      </trkpt>
      <trkpt lat="42.99442" lon="-1.10389">
        <ele>884.16605</ele>
        <time>2022-08-29T21:09:03.195Z</time>
      </trkpt>
      <trkpt lat="42.99407" lon="-1.10358">
        <ele>884.395449</ele>
        <time>2022-08-29T21:09:18.366Z</time>
      </trkpt>
      <trkpt lat="42.99386" lon="-1.10332">
        <ele>884.546088</ele>
        <time>2022-08-29T21:09:27.810Z</time>
      </trkpt>
      <trkpt lat="42.99337" lon="-1.10245">
        <ele>882.39476</ele>
        <time>2022-08-29T21:09:53.950Z</time>
      </trkpt>
      <trkpt lat="42.99322" lon="-1.10225">
        <ele>881.716049</ele>
        <time>2022-08-29T21:10:00.359Z</time>
      </trkpt>
      <trkpt lat="42.99313" lon="-1.10224">
        <ele>881.440331</ele>
        <time>2022-08-29T21:10:02.815Z</time>
      </trkpt>
      <trkpt lat="42.993" lon="-1.1023">
        <ele>880.99094</ele>
        <time>2022-08-29T21:10:07.050Z</time>
      </trkpt>
      <trkpt lat="42.99279" lon="-1.10262">
        <ele>879.963729</ele>
        <time>2022-08-29T21:10:16.312Z</time>
      </trkpt>
      <trkpt lat="42.99233" lon="-1.10353">
        <ele>876.993717</ele>
        <time>2022-08-29T21:10:40.053Z</time>
      </trkpt>
      <trkpt lat="42.99203" lon="-1.10397">
        <ele>875.226057</ele>
        <time>2022-08-29T21:10:52.958Z</time>
      </trkpt>
      <trkpt lat="42.99167" lon="-1.1043">
        <ele>873.478302</ele>
        <time>2022-08-29T21:11:05.886Z</time>
      </trkpt>
      <trkpt lat="42.99022" lon="-1.10566">
        <ele>868.548541</ele>
        <time>2022-08-29T21:11:59.009Z</time>
      </trkpt>
      <trkpt lat="42.98998" lon="-1.10583">
        <ele>867.913278</ele>
        <time>2022-08-29T21:12:07.517Z</time>
      </trkpt>
      <trkpt lat="42.98907" lon="-1.10673">
        <ele>871.938362</ele>
        <time>2022-08-29T21:13:02.659Z</time>
      </trkpt>
      <trkpt lat="42.98893" lon="-1.10684">
        <ele>872.780658</ele>
        <time>2022-08-29T21:13:16.132Z</time>
      </trkpt>
      <trkpt lat="42.98885" lon="-1.10672">
        <ele>873.442521</ele>
        <time>2022-08-29T21:13:26.848Z</time>
      </trkpt>
      <trkpt lat="42.98881" lon="-1.10665">
        <ele>873.767463</ele>
        <time>2022-08-29T21:13:31.262Z</time>
      </trkpt>
      <trkpt lat="42.98871" lon="-1.10641">
        <ele>874.834628</ele>
        <time>2022-08-29T21:13:47.843Z</time>
      </trkpt>
      <trkpt lat="42.98859" lon="-1.1062">
        <ele>875.837182</ele>
        <time>2022-08-29T21:14:00.312Z</time>
      </trkpt>
      <trkpt lat="42.98851" lon="-1.10604">
        <ele>876.603194</ele>
        <time>2022-08-29T21:14:10.116Z</time>
      </trkpt>
      <trkpt lat="42.9885" lon="-1.10566">
        <ele>878.217752</ele>
        <time>2022-08-29T21:14:27.272Z</time>
      </trkpt>
      <trkpt lat="42.98843" lon="-1.10554">
        <ele>878.832041</ele>
        <time>2022-08-29T21:14:34.279Z</time>
      </trkpt>
      <trkpt lat="42.98836" lon="-1.10548">
        <ele>879.342401</ele>
        <time>2022-08-29T21:14:40.198Z</time>
      </trkpt>
      <trkpt lat="42.98824" lon="-1.10537">
        <ele>880.152303</ele>
        <time>2022-08-29T21:14:48.104Z</time>
      </trkpt>
      <trkpt lat="42.98816" lon="-1.10509">
        <ele>881.435017</ele>
        <time>2022-08-29T21:15:02.297Z</time>
      </trkpt>
      <trkpt lat="42.98821" lon="-1.10421">
        <ele>885.160055</ele>
        <time>2022-08-29T21:15:36.308Z</time>
      </trkpt>
      <trkpt lat="42.98825" lon="-1.10406">
        <ele>885.851873</ele>
        <time>2022-08-29T21:15:40.920Z</time>
      </trkpt>
      <trkpt lat="42.98869" lon="-1.10349">
        <ele>887.323183</ele>
        <time>2022-08-29T21:15:58.042Z</time>
      </trkpt>
      <trkpt lat="42.98897" lon="-1.10302">
        <ele>887.411688</ele>
        <time>2022-08-29T21:16:06.086Z</time>
      </trkpt>
      <trkpt lat="42.98906" lon="-1.10272">
        <ele>887.457655</ele>
        <time>2022-08-29T21:16:10.188Z</time>
      </trkpt>
      <trkpt lat="42.98905" lon="-1.10236">
        <ele>887.509379</ele>
        <time>2022-08-29T21:16:15.187Z</time>
      </trkpt>
      <trkpt lat="42.98895" lon="-1.10216">
        <ele>887.545163</ele>
        <time>2022-08-29T21:16:19.081Z</time>
      </trkpt>
      <trkpt lat="42.98877" lon="-1.10195">
        <ele>887.590529</ele>
        <time>2022-08-29T21:16:25.530Z</time>
      </trkpt>
      <trkpt lat="42.98781" lon="-1.10105">
        <ele>891.925615</ele>
        <time>2022-08-29T21:17:14.986Z</time>
      </trkpt>
      <trkpt lat="42.98719" lon="-1.10062">
        <ele>894.677409</ele>
        <time>2022-08-29T21:17:47.073Z</time>
      </trkpt>
      <trkpt lat="42.98633" lon="-1.10028">
        <ele>900.369495</ele>
        <time>2022-08-29T21:18:29.981Z</time>
      </trkpt>
      <trkpt lat="42.98601" lon="-1.10022">
        <ele>902.390815</ele>
        <time>2022-08-29T21:18:46.928Z</time>
      </trkpt>
      <trkpt lat="42.98597" lon="-1.1003">
        <ele>902.873864</ele>
        <time>2022-08-29T21:18:50.394Z</time>
      </trkpt>
      <trkpt lat="42.98601" lon="-1.10049">
        <ele>903.800073</ele>
        <time>2022-08-29T21:18:59.361Z</time>
      </trkpt>
      <trkpt lat="42.98623" lon="-1.10053">
        <ele>905.19045</ele>
        <time>2022-08-29T21:19:10.114Z</time>
      </trkpt>
      <trkpt lat="42.98716" lon="-1.10136">
        <ele>917.974383</ele>
        <time>2022-08-29T21:20:34.223Z</time>
      </trkpt>
      <trkpt lat="42.98737" lon="-1.10182">
        <ele>922.85029</ele>
        <time>2022-08-29T21:21:13.052Z</time>
      </trkpt>
      <trkpt lat="42.98742" lon="-1.10216">
        <ele>926.023657</ele>
        <time>2022-08-29T21:21:37.103Z</time>
      </trkpt>
      <trkpt lat="42.98739" lon="-1.10232">
        <ele>927.488454</ele>
        <time>2022-08-29T21:21:51.183Z</time>
      </trkpt>
      <trkpt lat="42.98735" lon="-1.10266">
        <ele>930.858277</ele>
        <time>2022-08-29T21:22:15.035Z</time>
      </trkpt>
      <trkpt lat="42.98691" lon="-1.1041">
        <ele>946.41263</ele>
        <time>2022-08-29T21:24:03.363Z</time>
      </trkpt>
      <trkpt lat="42.98687" lon="-1.10443">
        <ele>949.699089</ele>
        <time>2022-08-29T21:24:23.825Z</time>
      </trkpt>
      <trkpt lat="42.98666" lon="-1.10497">
        <ele>954.905326</ele>
        <time>2022-08-29T21:24:57.188Z</time>
      </trkpt>
      <trkpt lat="42.98661" lon="-1.10576">
        <ele>960.464485</ele>
        <time>2022-08-29T21:25:40.167Z</time>
      </trkpt>
      <trkpt lat="42.98653" lon="-1.10604">
        <ele>962.569135</ele>
        <time>2022-08-29T21:25:56.882Z</time>
      </trkpt>
      <trkpt lat="42.98637" lon="-1.10617">
        <ele>964.329747</ele>
        <time>2022-08-29T21:26:08.644Z</time>
      </trkpt>
      <trkpt lat="42.98612" lon="-1.10627">
        <ele>966.788308</ele>
        <time>2022-08-29T21:26:25.359Z</time>
      </trkpt>
      <trkpt lat="42.98575" lon="-1.10617">
        <ele>970.182547</ele>
        <time>2022-08-29T21:26:49.024Z</time>
      </trkpt>
      <trkpt lat="42.98549" lon="-1.10622">
        <ele>971.390013</ele>
        <time>2022-08-29T21:27:06.027Z</time>
      </trkpt>
      <trkpt lat="42.98494" lon="-1.10692">
        <ele>974.772265</ele>
        <time>2022-08-29T21:27:43.948Z</time>
      </trkpt>
      <trkpt lat="42.98468" lon="-1.10733">
        <ele>976.556372</ele>
        <time>2022-08-29T21:27:58.833Z</time>
      </trkpt>
      <trkpt lat="42.98461" lon="-1.10735">
        <ele>976.880811</ele>
        <time>2022-08-29T21:28:01.149Z</time>
      </trkpt>
      <trkpt lat="42.98451" lon="-1.10713">
        <ele>977.748413</ele>
        <time>2022-08-29T21:28:07.749Z</time>
      </trkpt>
      <trkpt lat="42.98471" lon="-1.10684">
        <ele>978.276474</ele>
        <time>2022-08-29T21:28:13.928Z</time>
      </trkpt>
      <trkpt lat="42.98509" lon="-1.10591">
        <ele>978.793044</ele>
        <time>2022-08-29T21:28:28.874Z</time>
      </trkpt>
      <trkpt lat="42.98533" lon="-1.10554">
        <ele>979.035168</ele>
        <time>2022-08-29T21:28:36.187Z</time>
      </trkpt>
      <trkpt lat="42.98542" lon="-1.10522">
        <ele>979.200261</ele>
        <time>2022-08-29T21:28:42.920Z</time>
      </trkpt>
      <trkpt lat="42.98542" lon="-1.10457">
        <ele>981.750447</ele>
        <time>2022-08-29T21:29:04.116Z</time>
      </trkpt>
      <trkpt lat="42.98537" lon="-1.10428">
        <ele>983.673732</ele>
        <time>2022-08-29T21:29:15.267Z</time>
      </trkpt>
      <trkpt lat="42.98528" lon="-1.10411">
        <ele>984.999416</ele>
        <time>2022-08-29T21:29:24.757Z</time>
      </trkpt>
      <trkpt lat="42.98516" lon="-1.10414">
        <ele>986.100029</ele>
        <time>2022-08-29T21:29:31.670Z</time>
      </trkpt>
      <trkpt lat="42.98489" lon="-1.10503">
        <ele>992.359202</ele>
        <time>2022-08-29T21:30:24.945Z</time>
      </trkpt>
      <trkpt lat="42.98425" lon="-1.10618">
        <ele>1003.872308</ele>
        <time>2022-08-29T21:32:00.481Z</time>
      </trkpt>
      <trkpt lat="42.98412" lon="-1.10634">
        <ele>1005.98486</ele>
        <time>2022-08-29T21:32:16.708Z</time>
      </trkpt>
      <trkpt lat="42.98354" lon="-1.10672">
        <ele>1013.547425</ele>
        <time>2022-08-29T21:33:06.752Z</time>
      </trkpt>
      <trkpt lat="42.98312" lon="-1.10687">
        <ele>1017.958392</ele>
        <time>2022-08-29T21:33:37.815Z</time>
      </trkpt>
      <trkpt lat="42.98269" lon="-1.10753">
        <ele>1022.738023</ele>
        <time>2022-08-29T21:34:17.887Z</time>
      </trkpt>
      <trkpt lat="42.98241" lon="-1.10779">
        <ele>1025.293085</ele>
        <time>2022-08-29T21:34:36.507Z</time>
      </trkpt>
      <trkpt lat="42.98188" lon="-1.10818">
        <ele>1029.802967</ele>
        <time>2022-08-29T21:35:08.195Z</time>
      </trkpt>
      <trkpt lat="42.9817" lon="-1.10824">
        <ele>1030.86151</ele>
        <time>2022-08-29T21:35:18.249Z</time>
      </trkpt>
      <trkpt lat="42.98153" lon="-1.10842">
        <ele>1032.087411</ele>
        <time>2022-08-29T21:35:29.512Z</time>
      </trkpt>
      <trkpt lat="42.98149" lon="-1.10853">
        <ele>1032.609614</ele>
        <time>2022-08-29T21:35:34.961Z</time>
      </trkpt>
      <trkpt lat="42.98149" lon="-1.10885">
        <ele>1033.926004</ele>
        <time>2022-08-29T21:35:46.649Z</time>
      </trkpt>
      <trkpt lat="42.98133" lon="-1.10941">
        <ele>1036.398147</ele>
        <time>2022-08-29T21:36:09.073Z</time>
      </trkpt>
      <trkpt lat="42.98102" lon="-1.11015">
        <ele>1039.930223</ele>
        <time>2022-08-29T21:36:39.183Z</time>
      </trkpt>
      <trkpt lat="42.98062" lon="-1.11154">
        <ele>1044.846647</ele>
        <time>2022-08-29T21:37:30.361Z</time>
      </trkpt>
      <trkpt lat="42.9803" lon="-1.11296">
        <ele>1049.202148</ele>
        <time>2022-08-29T21:38:15.534Z</time>
      </trkpt>
      <trkpt lat="42.98016" lon="-1.1132">
        <ele>1049.845071</ele>
        <time>2022-08-29T21:38:23.746Z</time>
      </trkpt>
      <trkpt lat="42.97984" lon="-1.11352">
        <ele>1051.003105</ele>
        <time>2022-08-29T21:38:37.759Z</time>
      </trkpt>
      <trkpt lat="42.97948" lon="-1.11361">
        <ele>1052.084666</ele>
        <time>2022-08-29T21:38:50.364Z</time>
      </trkpt>
      <trkpt lat="42.97923" lon="-1.11358">
        <ele>1052.801366</ele>
        <time>2022-08-29T21:38:58.690Z</time>
      </trkpt>
      <trkpt lat="42.97909" lon="-1.11362">
        <ele>1053.225212</ele>
        <time>2022-08-29T21:39:03.825Z</time>
      </trkpt>
      <trkpt lat="42.97899" lon="-1.11368">
        <ele>1053.597696</ele>
        <time>2022-08-29T21:39:07.933Z</time>
      </trkpt>
      <trkpt lat="42.97894" lon="-1.11381">
        <ele>1054.053124</ele>
        <time>2022-08-29T21:39:11.713Z</time>
      </trkpt>
      <trkpt lat="42.97894" lon="-1.11398">
        <ele>1054.573177</ele>
        <time>2022-08-29T21:39:16.341Z</time>
      </trkpt>
      <trkpt lat="42.97925" lon="-1.11509">
        <ele>1058.258386</ele>
        <time>2022-08-29T21:39:49.905Z</time>
      </trkpt>
      <trkpt lat="42.97923" lon="-1.11532">
        <ele>1058.966551</ele>
        <time>2022-08-29T21:39:57.463Z</time>
      </trkpt>
      <trkpt lat="42.97843" lon="-1.11569">
        <ele>1063.947342</ele>
        <time>2022-08-29T21:40:41.756Z</time>
      </trkpt>
      <trkpt lat="42.97757" lon="-1.11601">
        <ele>1071.585297</ele>
        <time>2022-08-29T21:41:42.430Z</time>
      </trkpt>
      <trkpt lat="42.97635" lon="-1.11618">
        <ele>1081.724924</ele>
        <time>2022-08-29T21:43:08.198Z</time>
      </trkpt>
      <trkpt lat="42.97595" lon="-1.11615">
        <ele>1085.079402</ele>
        <time>2022-08-29T21:43:35.774Z</time>
      </trkpt>
      <trkpt lat="42.9757" lon="-1.1165">
        <ele>1087.941367</ele>
        <time>2022-08-29T21:43:56.871Z</time>
      </trkpt>
      <trkpt lat="42.97531" lon="-1.11673">
        <ele>1091.283161</ele>
        <time>2022-08-29T21:44:19.899Z</time>
      </trkpt>
      <trkpt lat="42.97503" lon="-1.1168">
        <ele>1092.451514</ele>
        <time>2022-08-29T21:44:34.241Z</time>
      </trkpt>
      <trkpt lat="42.97492" lon="-1.11688">
        <ele>1092.972081</ele>
        <time>2022-08-29T21:44:39.797Z</time>
      </trkpt>
      <trkpt lat="42.97474" lon="-1.11715">
        <ele>1094.096426</ele>
        <time>2022-08-29T21:44:51.846Z</time>
      </trkpt>
      <trkpt lat="42.97429" lon="-1.11762">
        <ele>1096.432726</ele>
        <time>2022-08-29T21:45:15.803Z</time>
      </trkpt>
      <trkpt lat="42.97375" lon="-1.11803">
        <ele>1098.854472</ele>
        <time>2022-08-29T21:45:38.818Z</time>
      </trkpt>
      <trkpt lat="42.97336" lon="-1.118">
        <ele>1099.905469</ele>
        <time>2022-08-29T21:45:49.542Z</time>
      </trkpt>
      <trkpt lat="42.97285" lon="-1.11747">
        <ele>1101.622126</ele>
        <time>2022-08-29T21:46:10.682Z</time>
      </trkpt>
      <trkpt lat="42.97267" lon="-1.11737">
        <ele>1102.155267</ele>
        <time>2022-08-29T21:46:16.905Z</time>
      </trkpt>
      <trkpt lat="42.97255" lon="-1.11751">
        <ele>1102.604063</ele>
        <time>2022-08-29T21:46:23.894Z</time>
      </trkpt>
      <trkpt lat="42.97235" lon="-1.11807">
        <ele>1104.53663</ele>
        <time>2022-08-29T21:46:41.440Z</time>
      </trkpt>
      <trkpt lat="42.97211" lon="-1.11812">
        <ele>1106.241368</ele>
        <time>2022-08-29T21:46:52.953Z</time>
      </trkpt>
      <trkpt lat="42.97193" lon="-1.11792">
        <ele>1107.907867</ele>
        <time>2022-08-29T21:47:04.022Z</time>
      </trkpt>
      <trkpt lat="42.97211" lon="-1.11782">
        <ele>1109.303155</ele>
        <time>2022-08-29T21:47:17.267Z</time>
      </trkpt>
      <trkpt lat="42.97217" lon="-1.11771">
        <ele>1109.981076</ele>
        <time>2022-08-29T21:47:22.075Z</time>
      </trkpt>
      <trkpt lat="42.97219" lon="-1.11718">
        <ele>1112.829021</ele>
        <time>2022-08-29T21:47:49.330Z</time>
      </trkpt>
      <trkpt lat="42.97164" lon="-1.1152">
        <ele>1125.290604</ele>
        <time>2022-08-29T21:49:41.739Z</time>
      </trkpt>
      <trkpt lat="42.97165" lon="-1.11499">
        <ele>1126.611279</ele>
        <time>2022-08-29T21:49:52.634Z</time>
      </trkpt>
      <trkpt lat="42.97172" lon="-1.11494">
        <ele>1127.254596</ele>
        <time>2022-08-29T21:49:57.815Z</time>
      </trkpt>
      <trkpt lat="42.9718" lon="-1.11498">
        <ele>1127.991367</ele>
        <time>2022-08-29T21:50:03.241Z</time>
      </trkpt>
      <trkpt lat="42.97241" lon="-1.1157">
        <ele>1133.529716</ele>
        <time>2022-08-29T21:50:48.407Z</time>
      </trkpt>
      <trkpt lat="42.97268" lon="-1.11589">
        <ele>1135.073797</ele>
        <time>2022-08-29T21:51:02.887Z</time>
      </trkpt>
      <trkpt lat="42.9729" lon="-1.11588">
        <ele>1136.182815</ele>
        <time>2022-08-29T21:51:14.030Z</time>
      </trkpt>
      <trkpt lat="42.97312" lon="-1.11568">
        <ele>1137.549739</ele>
        <time>2022-08-29T21:51:24.866Z</time>
      </trkpt>
      <trkpt lat="42.97324" lon="-1.11537">
        <ele>1138.86008</ele>
        <time>2022-08-29T21:51:36.277Z</time>
      </trkpt>
      <trkpt lat="42.97328" lon="-1.11427">
        <ele>1143.49399</ele>
        <time>2022-08-29T21:52:17.042Z</time>
      </trkpt>
      <trkpt lat="42.97332" lon="-1.11413">
        <ele>1144.199885</ele>
        <time>2022-08-29T21:52:24.032Z</time>
      </trkpt>
      <trkpt lat="42.97399" lon="-1.11395">
        <ele>1148.584032</ele>
        <time>2022-08-29T21:53:01.458Z</time>
      </trkpt>
      <trkpt lat="42.97428" lon="-1.11372">
        <ele>1150.721178</ele>
        <time>2022-08-29T21:53:21.925Z</time>
      </trkpt>
      <trkpt lat="42.97435" lon="-1.1135">
        <ele>1151.828772</ele>
        <time>2022-08-29T21:53:32.963Z</time>
      </trkpt>
      <trkpt lat="42.97434" lon="-1.11332">
        <ele>1152.772053</ele>
        <time>2022-08-29T21:53:41.499Z</time>
      </trkpt>
      <trkpt lat="42.97413" lon="-1.11296">
        <ele>1155.293007</ele>
        <time>2022-08-29T21:54:03.996Z</time>
      </trkpt>
      <trkpt lat="42.97406" lon="-1.11273">
        <ele>1156.698019</ele>
        <time>2022-08-29T21:54:16.601Z</time>
      </trkpt>
      <trkpt lat="42.9738" lon="-1.11085">
        <ele>1166.626032</ele>
        <time>2022-08-29T21:55:44.029Z</time>
      </trkpt>
      <trkpt lat="42.97381" lon="-1.11065">
        <ele>1167.181854</ele>
        <time>2022-08-29T21:55:52.165Z</time>
      </trkpt>
      <trkpt lat="42.97411" lon="-1.1102">
        <ele>1168.904098</ele>
        <time>2022-08-29T21:56:15.142Z</time>
      </trkpt>
      <trkpt lat="42.97508" lon="-1.10919">
        <ele>1172.521409</ele>
        <time>2022-08-29T21:56:59.606Z</time>
      </trkpt>
      <trkpt lat="42.97521" lon="-1.10894">
        <ele>1172.160552</ele>
        <time>2022-08-29T21:57:05.241Z</time>
      </trkpt>
      <trkpt lat="42.97539" lon="-1.10845">
        <ele>1171.51578</ele>
        <time>2022-08-29T21:57:13.690Z</time>
      </trkpt>
      <trkpt lat="42.97583" lon="-1.10761">
        <ele>1170.312321</ele>
        <time>2022-08-29T21:57:28.815Z</time>
      </trkpt>
      <trkpt lat="42.97594" lon="-1.10716">
        <ele>1169.178038</ele>
        <time>2022-08-29T21:57:35.440Z</time>
      </trkpt>
      <trkpt lat="42.97586" lon="-1.10685">
        <ele>1167.744846</ele>
        <time>2022-08-29T21:57:39.591Z</time>
      </trkpt>
      <trkpt lat="42.97569" lon="-1.10665">
        <ele>1166.380587</ele>
        <time>2022-08-29T21:57:43.644Z</time>
      </trkpt>
      <trkpt lat="42.97542" lon="-1.10654">
        <ele>1164.661001</ele>
        <time>2022-08-29T21:57:48.532Z</time>
      </trkpt>
      <trkpt lat="42.97491" lon="-1.10649">
        <ele>1161.572488</ele>
        <time>2022-08-29T21:57:56.953Z</time>
      </trkpt>
      <trkpt lat="42.97366" lon="-1.10672">
        <ele>1153.215675</ele>
        <time>2022-08-29T21:58:18.540Z</time>
      </trkpt>
      <trkpt lat="42.97347" lon="-1.10681">
        <ele>1151.843841</ele>
        <time>2022-08-29T21:58:22.111Z</time>
      </trkpt>
      <trkpt lat="42.97304" lon="-1.10716">
        <ele>1148.418052</ele>
        <time>2022-08-29T21:58:30.721Z</time>
      </trkpt>
      <trkpt lat="42.97275" lon="-1.10753">
        <ele>1145.456889</ele>
        <time>2022-08-29T21:58:37.336Z</time>
      </trkpt>
      <trkpt lat="42.97267" lon="-1.10754">
        <ele>1144.761765</ele>
        <time>2022-08-29T21:58:38.672Z</time>
      </trkpt>
      <trkpt lat="42.97253" lon="-1.10747">
        <ele>1143.533774</ele>
        <time>2022-08-29T21:58:41.019Z</time>
      </trkpt>
      <trkpt lat="42.97193" lon="-1.10638">
        <ele>1134.992428</ele>
        <time>2022-08-29T21:58:57.461Z</time>
      </trkpt>
      <trkpt lat="42.97163" lon="-1.10605">
        <ele>1131.713371</ele>
        <time>2022-08-29T21:59:03.728Z</time>
      </trkpt>
      <trkpt lat="42.97134" lon="-1.10603">
        <ele>1129.963536</ele>
        <time>2022-08-29T21:59:08.381Z</time>
      </trkpt>
      <trkpt lat="42.9708" lon="-1.10615">
        <ele>1126.833362</ele>
        <time>2022-08-29T21:59:17.430Z</time>
      </trkpt>
      <trkpt lat="42.97068" lon="-1.10625">
        <ele>1126.079758</ele>
        <time>2022-08-29T21:59:19.833Z</time>
      </trkpt>
      <trkpt lat="42.9706" lon="-1.10635">
        <ele>1125.436498</ele>
        <time>2022-08-29T21:59:21.736Z</time>
      </trkpt>
      <trkpt lat="42.9705" lon="-1.10686">
        <ele>1123.256727</ele>
        <time>2022-08-29T21:59:28.723Z</time>
      </trkpt>
      <trkpt lat="42.97042" lon="-1.10693">
        <ele>1122.718497</ele>
        <time>2022-08-29T21:59:30.729Z</time>
      </trkpt>
      <trkpt lat="42.97008" lon="-1.10703">
        <ele>1121.015888</ele>
        <time>2022-08-29T21:59:39.093Z</time>
      </trkpt>
      <trkpt lat="42.96973" lon="-1.1072">
        <ele>1120.328178</ele>
        <time>2022-08-29T21:59:47.723Z</time>
      </trkpt>
      <trkpt lat="42.9696" lon="-1.10712">
        <ele>1120.06685</ele>
        <time>2022-08-29T21:59:51.517Z</time>
      </trkpt>
      <trkpt lat="42.96953" lon="-1.10674">
        <ele>1119.535472</ele>
        <time>2022-08-29T21:59:57.710Z</time>
      </trkpt>
      <trkpt lat="42.9695" lon="-1.10641">
        <ele>1119.07625</ele>
        <time>2022-08-29T22:00:02.943Z</time>
      </trkpt>
      <trkpt lat="42.96959" lon="-1.10582">
        <ele>1118.263187</ele>
        <time>2022-08-29T22:00:11.874Z</time>
      </trkpt>
      <trkpt lat="42.96989" lon="-1.10441">
        <ele>1115.003333</ele>
        <time>2022-08-29T22:00:32.336Z</time>
      </trkpt>
      <trkpt lat="42.96992" lon="-1.10415">
        <ele>1114.351154</ele>
        <time>2022-08-29T22:00:35.904Z</time>
      </trkpt>
      <trkpt lat="42.96989" lon="-1.1039">
        <ele>1113.7303</ele>
        <time>2022-08-29T22:00:39.229Z</time>
      </trkpt>
      <trkpt lat="42.96977" lon="-1.1038">
        <ele>1113.250881</ele>
        <time>2022-08-29T22:00:41.928Z</time>
      </trkpt>
      <trkpt lat="42.96927" lon="-1.1038">
        <ele>1111.721732</ele>
        <time>2022-08-29T22:00:51.285Z</time>
      </trkpt>
      <trkpt lat="42.96921" lon="-1.10337">
        <ele>1111.617654</ele>
        <time>2022-08-29T22:00:57.917Z</time>
      </trkpt>
      <trkpt lat="42.96899" lon="-1.10288">
        <ele>1111.481521</ele>
        <time>2022-08-29T22:01:07.479Z</time>
      </trkpt>
      <trkpt lat="42.969" lon="-1.10268">
        <ele>1111.435181</ele>
        <time>2022-08-29T22:01:11.466Z</time>
      </trkpt>
      <trkpt lat="42.96909" lon="-1.10257">
        <ele>1111.395067</ele>
        <time>2022-08-29T22:01:14.950Z</time>
      </trkpt>
      <trkpt lat="42.96959" lon="-1.1024">
        <ele>1111.226223</ele>
        <time>2022-08-29T22:01:30.494Z</time>
      </trkpt>
      <trkpt lat="42.96974" lon="-1.10225">
        <ele>1111.167991</ele>
        <time>2022-08-29T22:01:35.953Z</time>
      </trkpt>
      <trkpt lat="42.96997" lon="-1.10148">
        <ele>1111.540664</ele>
        <time>2022-08-29T22:01:54.925Z</time>
      </trkpt>
      <trkpt lat="42.97007" lon="-1.10083">
        <ele>1111.872185</ele>
        <time>2022-08-29T22:02:09.210Z</time>
      </trkpt>
      <trkpt lat="42.9704" lon="-1.10049">
        <ele>1112.159472</ele>
        <time>2022-08-29T22:02:21.178Z</time>
      </trkpt>
      <trkpt lat="42.9704" lon="-1.10024">
        <ele>1112.2855</ele>
        <time>2022-08-29T22:02:26.524Z</time>
      </trkpt>
      <trkpt lat="42.97016" lon="-1.09959">
        <ele>1111.354606</ele>
        <time>2022-08-29T22:02:38.843Z</time>
      </trkpt>
      <trkpt lat="42.97014" lon="-1.09932">
        <ele>1110.816312</ele>
        <time>2022-08-29T22:02:43.080Z</time>
      </trkpt>
      <trkpt lat="42.97081" lon="-1.09893">
        <ele>1108.848135</ele>
        <time>2022-08-29T22:02:57.040Z</time>
      </trkpt>
      <trkpt lat="42.97106" lon="-1.09869">
        <ele>1108.012757</ele>
        <time>2022-08-29T22:03:02.665Z</time>
      </trkpt>
      <trkpt lat="42.97202" lon="-1.09841">
        <ele>1103.613563</ele>
        <time>2022-08-29T22:03:20.261Z</time>
      </trkpt>
      <trkpt lat="42.9725" lon="-1.09799">
        <ele>1100.809508</ele>
        <time>2022-08-29T22:03:30.359Z</time>
      </trkpt>
      <trkpt lat="42.97307" lon="-1.09769">
        <ele>1098.031111</ele>
        <time>2022-08-29T22:03:41.484Z</time>
      </trkpt>
      <trkpt lat="42.97319" lon="-1.09743">
        <ele>1097.25734</ele>
        <time>2022-08-29T22:03:45.560Z</time>
      </trkpt>
      <trkpt lat="42.97317" lon="-1.09723">
        <ele>1096.741395</ele>
        <time>2022-08-29T22:03:48.356Z</time>
      </trkpt>
      <trkpt lat="42.97306" lon="-1.09696">
        <ele>1095.975276</ele>
        <time>2022-08-29T22:03:52.547Z</time>
      </trkpt>
      <trkpt lat="42.97266" lon="-1.09645">
        <ele>1094.080173</ele>
        <time>2022-08-29T22:04:03.257Z</time>
      </trkpt>
      <trkpt lat="42.97246" lon="-1.09633">
        <ele>1093.316845</ele>
        <time>2022-08-29T22:04:07.649Z</time>
      </trkpt>
      <trkpt lat="42.97193" lon="-1.09631">
        <ele>1092.039909</ele>
        <time>2022-08-29T22:04:18.187Z</time>
      </trkpt>
      <trkpt lat="42.97175" lon="-1.09619">
        <ele>1091.78237</ele>
        <time>2022-08-29T22:04:22.101Z</time>
      </trkpt>
      <trkpt lat="42.9714" lon="-1.09574">
        <ele>1091.142764</ele>
        <time>2022-08-29T22:04:31.830Z</time>
      </trkpt>
      <trkpt lat="42.97098" lon="-1.09505">
        <ele>1090.266359</ele>
        <time>2022-08-29T22:04:46.644Z</time>
      </trkpt>
      <trkpt lat="42.97075" lon="-1.09495">
        <ele>1090.056779</ele>
        <time>2022-08-29T22:04:53.836Z</time>
      </trkpt>
      <trkpt lat="42.97054" lon="-1.0952">
        <ele>1090.349843</ele>
        <time>2022-08-29T22:05:02.581Z</time>
      </trkpt>
      <trkpt lat="42.97037" lon="-1.09521">
        <ele>1090.535037</ele>
        <time>2022-08-29T22:05:08.078Z</time>
      </trkpt>
      <trkpt lat="42.96979" lon="-1.09491">
        <ele>1091.187984</ele>
        <time>2022-08-29T22:05:31.285Z</time>
      </trkpt>
      <trkpt lat="42.96969" lon="-1.09471">
        <ele>1091.379347</ele>
        <time>2022-08-29T22:05:37.050Z</time>
      </trkpt>
      <trkpt lat="42.96966" lon="-1.09449">
        <ele>1091.55612</ele>
        <time>2022-08-29T22:05:42.030Z</time>
      </trkpt>
      <trkpt lat="42.97004" lon="-1.09356">
        <ele>1090.919945</ele>
        <time>2022-08-29T22:06:00.088Z</time>
      </trkpt>
      <trkpt lat="42.97008" lon="-1.09323">
        <ele>1090.35024</ele>
        <time>2022-08-29T22:06:05.759Z</time>
      </trkpt>
      <trkpt lat="42.96976" lon="-1.09263">
        <ele>1089.095652</ele>
        <time>2022-08-29T22:06:15.968Z</time>
      </trkpt>
      <trkpt lat="42.9694" lon="-1.09126">
        <ele>1087.031496</ele>
        <time>2022-08-29T22:06:36.139Z</time>
      </trkpt>
      <trkpt lat="42.96923" lon="-1.09101">
        <ele>1086.653462</ele>
        <time>2022-08-29T22:06:41.017Z</time>
      </trkpt>
      <trkpt lat="42.96871" lon="-1.09092">
        <ele>1085.886394</ele>
        <time>2022-08-29T22:06:52.613Z</time>
      </trkpt>
      <trkpt lat="42.96791" lon="-1.09025">
        <ele>1085.589287</ele>
        <time>2022-08-29T22:07:18.507Z</time>
      </trkpt>
      <trkpt lat="42.9679" lon="-1.09">
        <ele>1085.822713</ele>
        <time>2022-08-29T22:07:25.384Z</time>
      </trkpt>
      <trkpt lat="42.96843" lon="-1.08984">
        <ele>1086.518034</ele>
        <time>2022-08-29T22:07:44.818Z</time>
      </trkpt>
      <trkpt lat="42.96866" lon="-1.08985">
        <ele>1086.814865</ele>
        <time>2022-08-29T22:07:53.030Z</time>
      </trkpt>
      <trkpt lat="42.96887" lon="-1.08978">
        <ele>1087.089394</ele>
        <time>2022-08-29T22:07:59.871Z</time>
      </trkpt>
      <trkpt lat="42.96909" lon="-1.0895">
        <ele>1087.298512</ele>
        <time>2022-08-29T22:08:08.343Z</time>
      </trkpt>
      <trkpt lat="42.9696" lon="-1.08853">
        <ele>1086.321502</ele>
        <time>2022-08-29T22:08:28.632Z</time>
      </trkpt>
      <trkpt lat="42.96964" lon="-1.08834">
        <ele>1086.158998</ele>
        <time>2022-08-29T22:08:31.767Z</time>
      </trkpt>
      <trkpt lat="42.96946" lon="-1.08682">
        <ele>1084.076693</ele>
        <time>2022-08-29T22:08:54.642Z</time>
      </trkpt>
      <trkpt lat="42.96948" lon="-1.08625">
        <ele>1082.807029</ele>
        <time>2022-08-29T22:09:02.535Z</time>
      </trkpt>
      <trkpt lat="42.96965" lon="-1.08586">
        <ele>1081.799525</ele>
        <time>2022-08-29T22:09:08.746Z</time>
      </trkpt>
      <trkpt lat="42.96966" lon="-1.08572">
        <ele>1081.485394</ele>
        <time>2022-08-29T22:09:10.662Z</time>
      </trkpt>
      <trkpt lat="42.96948" lon="-1.08523">
        <ele>1080.250061</ele>
        <time>2022-08-29T22:09:18.511Z</time>
      </trkpt>
      <trkpt lat="42.96929" lon="-1.08499">
        <ele>1079.712817</ele>
        <time>2022-08-29T22:09:23.682Z</time>
      </trkpt>
      <trkpt lat="42.96909" lon="-1.08489">
        <ele>1079.442779</ele>
        <time>2022-08-29T22:09:27.874Z</time>
      </trkpt>
      <trkpt lat="42.96905" lon="-1.08465">
        <ele>1079.207279</ele>
        <time>2022-08-29T22:09:31.609Z</time>
      </trkpt>
      <trkpt lat="42.96914" lon="-1.08452">
        <ele>1079.039551</ele>
        <time>2022-08-29T22:09:34.297Z</time>
      </trkpt>
      <trkpt lat="42.96916" lon="-1.08431">
        <ele>1078.84387</ele>
        <time>2022-08-29T22:09:37.377Z</time>
      </trkpt>
      <trkpt lat="42.96912" lon="-1.08411">
        <ele>1078.645948</ele>
        <time>2022-08-29T22:09:40.468Z</time>
      </trkpt>
      <trkpt lat="42.96876" lon="-1.08355">
        <ele>1077.929151</ele>
        <time>2022-08-29T22:09:52.695Z</time>
      </trkpt>
      <trkpt lat="42.96874" lon="-1.08326">
        <ele>1077.650448</ele>
        <time>2022-08-29T22:09:58.675Z</time>
      </trkpt>
      <trkpt lat="42.969" lon="-1.08292">
        <ele>1078.261218</ele>
        <time>2022-08-29T22:10:09.318Z</time>
      </trkpt>
      <trkpt lat="42.96904" lon="-1.08278">
        <ele>1078.547251</ele>
        <time>2022-08-29T22:10:12.588Z</time>
      </trkpt>
      <trkpt lat="42.96901" lon="-1.08252">
        <ele>1079.04119</ele>
        <time>2022-08-29T22:10:19.285Z</time>
      </trkpt>
      <trkpt lat="42.96884" lon="-1.08226">
        <ele>1079.684065</ele>
        <time>2022-08-29T22:10:28.892Z</time>
      </trkpt>
      <trkpt lat="42.96795" lon="-1.08158">
        <ele>1082.229491</ele>
        <time>2022-08-29T22:11:11.700Z</time>
      </trkpt>
      <trkpt lat="42.96769" lon="-1.08149">
        <ele>1082.810107</ele>
        <time>2022-08-29T22:11:23.961Z</time>
      </trkpt>
      <trkpt lat="42.96736" lon="-1.08148">
        <ele>1083.507671</ele>
        <time>2022-08-29T22:11:39.167Z</time>
      </trkpt>
      <trkpt lat="42.96733" lon="-1.08132">
        <ele>1083.766653</ele>
        <time>2022-08-29T22:11:44.902Z</time>
      </trkpt>
      <trkpt lat="42.96774" lon="-1.08064">
        <ele>1085.142998</ele>
        <time>2022-08-29T22:12:07.989Z</time>
      </trkpt>
      <trkpt lat="42.96788" lon="-1.08052">
        <ele>1085.491325</ele>
        <time>2022-08-29T22:12:12.621Z</time>
      </trkpt>
      <trkpt lat="42.96854" lon="-1.0804">
        <ele>1083.545036</ele>
        <time>2022-08-29T22:12:26.754Z</time>
      </trkpt>
      <trkpt lat="42.96883" lon="-1.08007">
        <ele>1081.546914</ele>
        <time>2022-08-29T22:12:33.812Z</time>
      </trkpt>
      <trkpt lat="42.96935" lon="-1.07984">
        <ele>1078.723033</ele>
        <time>2022-08-29T22:12:43.246Z</time>
      </trkpt>
      <trkpt lat="42.96953" lon="-1.0797">
        <ele>1077.628838</ele>
        <time>2022-08-29T22:12:46.795Z</time>
      </trkpt>
      <trkpt lat="42.96971" lon="-1.07965">
        <ele>1076.645207</ele>
        <time>2022-08-29T22:12:49.820Z</time>
      </trkpt>
      <trkpt lat="42.9704" lon="-1.07978">
        <ele>1069.44577</ele>
        <time>2022-08-29T22:13:00.621Z</time>
      </trkpt>
      <trkpt lat="42.97096" lon="-1.07976">
        <ele>1063.463102</ele>
        <time>2022-08-29T22:13:09.496Z</time>
      </trkpt>
      <trkpt lat="42.9714" lon="-1.07992">
        <ele>1058.717812</ele>
        <time>2022-08-29T22:13:16.662Z</time>
      </trkpt>
      <trkpt lat="42.97158" lon="-1.07986">
        <ele>1057.147277</ele>
        <time>2022-08-29T22:13:19.351Z</time>
      </trkpt>
      <trkpt lat="42.97171" lon="-1.07969">
        <ele>1056.234654</ele>
        <time>2022-08-29T22:13:22.149Z</time>
      </trkpt>
      <trkpt lat="42.97176" lon="-1.07942">
        <ele>1055.203151</ele>
        <time>2022-08-29T22:13:25.226Z</time>
      </trkpt>
      <trkpt lat="42.97174" lon="-1.07882">
        <ele>1052.994146</ele>
        <time>2022-08-29T22:13:32.170Z</time>
      </trkpt>
      <trkpt lat="42.97167" lon="-1.07854">
        <ele>1051.908026</ele>
        <time>2022-08-29T22:13:35.647Z</time>
      </trkpt>
      <trkpt lat="42.97154" lon="-1.07834">
        <ele>1050.920702</ele>
        <time>2022-08-29T22:13:39.183Z</time>
      </trkpt>
      <trkpt lat="42.9712" lon="-1.0782">
        <ele>1049.147001</ele>
        <time>2022-08-29T22:13:46.588Z</time>
      </trkpt>
      <trkpt lat="42.97087" lon="-1.07781">
        <ele>1048.752119</ele>
        <time>2022-08-29T22:14:01.162Z</time>
      </trkpt>
      <trkpt lat="42.97061" lon="-1.07739">
        <ele>1049.151361</ele>
        <time>2022-08-29T22:14:15.473Z</time>
      </trkpt>
      <trkpt lat="42.97038" lon="-1.07686">
        <ele>1049.593537</ele>
        <time>2022-08-29T22:14:29.611Z</time>
      </trkpt>
      <trkpt lat="42.97022" lon="-1.07669">
        <ele>1049.793298</ele>
        <time>2022-08-29T22:14:35.274Z</time>
      </trkpt>
      <trkpt lat="42.96972" lon="-1.07673">
        <ele>1050.055635</ele>
        <time>2022-08-29T22:14:49.486Z</time>
      </trkpt>
      <trkpt lat="42.96962" lon="-1.07665">
        <ele>1049.689485</ele>
        <time>2022-08-29T22:14:52.042Z</time>
      </trkpt>
      <trkpt lat="42.96958" lon="-1.07646">
        <ele>1049.224578</ele>
        <time>2022-08-29T22:14:55.075Z</time>
      </trkpt>
      <trkpt lat="42.96964" lon="-1.07627">
        <ele>1048.758492</ele>
        <time>2022-08-29T22:14:57.813Z</time>
      </trkpt>
      <trkpt lat="42.97063" lon="-1.07565">
        <ele>1045.306547</ele>
        <time>2022-08-29T22:15:16.642Z</time>
      </trkpt>
      <trkpt lat="42.9709" lon="-1.07536">
        <ele>1043.970519</ele>
        <time>2022-08-29T22:15:22.295Z</time>
      </trkpt>
      <trkpt lat="42.97103" lon="-1.07464">
        <ele>1040.941108</ele>
        <time>2022-08-29T22:15:31.307Z</time>
      </trkpt>
      <trkpt lat="42.97103" lon="-1.07412">
        <ele>1038.802076</ele>
        <time>2022-08-29T22:15:37.687Z</time>
      </trkpt>
      <trkpt lat="42.97096" lon="-1.07369">
        <ele>1037.050169</ele>
        <time>2022-08-29T22:15:42.920Z</time>
      </trkpt>
      <trkpt lat="42.97131" lon="-1.07315">
        <ele>1033.860584</ele>
        <time>2022-08-29T22:15:51.313Z</time>
      </trkpt>
      <trkpt lat="42.97134" lon="-1.07293">
        <ele>1032.416789</ele>
        <time>2022-08-29T22:15:53.973Z</time>
      </trkpt>
      <trkpt lat="42.97116" lon="-1.0719">
        <ele>1025.648477</ele>
        <time>2022-08-29T22:16:06.104Z</time>
      </trkpt>
      <trkpt lat="42.97114" lon="-1.07125">
        <ele>1021.532508</ele>
        <time>2022-08-29T22:16:13.116Z</time>
      </trkpt>
      <trkpt lat="42.97127" lon="-1.07016">
        <ele>1014.422621</ele>
        <time>2022-08-29T22:16:24.843Z</time>
      </trkpt>
      <trkpt lat="42.9714" lon="-1.06982">
        <ele>1011.941182</ele>
        <time>2022-08-29T22:16:28.963Z</time>
      </trkpt>
      <trkpt lat="42.97151" lon="-1.06968">
        <ele>1010.622564</ele>
        <time>2022-08-29T22:16:31.211Z</time>
      </trkpt>
      <trkpt lat="42.97171" lon="-1.06962">
        <ele>1008.795853</ele>
        <time>2022-08-29T22:16:34.313Z</time>
      </trkpt>
      <trkpt lat="42.9718" lon="-1.06963">
        <ele>1008.046708</ele>
        <time>2022-08-29T22:16:35.657Z</time>
      </trkpt>
      <trkpt lat="42.97227" lon="-1.06971">
        <ele>1003.820625</ele>
        <time>2022-08-29T22:16:43.422Z</time>
      </trkpt>
      <trkpt lat="42.97239" lon="-1.06959">
        <ele>1002.886206</ele>
        <time>2022-08-29T22:16:46.037Z</time>
      </trkpt>
      <trkpt lat="42.97246" lon="-1.06833">
        <ele>1001.324571</ele>
        <time>2022-08-29T22:17:02.111Z</time>
      </trkpt>
      <trkpt lat="42.97233" lon="-1.06767">
        <ele>1000.480089</ele>
        <time>2022-08-29T22:17:17.289Z</time>
      </trkpt>
      <trkpt lat="42.97226" lon="-1.06638">
        <ele>1001.449049</ele>
        <time>2022-08-29T22:17:44.606Z</time>
      </trkpt>
      <trkpt lat="42.97212" lon="-1.06543">
        <ele>1003.186267</ele>
        <time>2022-08-29T22:18:09.897Z</time>
      </trkpt>
      <trkpt lat="42.97192" lon="-1.06461">
        <ele>1005.196</ele>
        <time>2022-08-29T22:18:35.422Z</time>
      </trkpt>
      <trkpt lat="42.9716" lon="-1.06337">
        <ele>1010.250778</ele>
        <time>2022-08-29T22:19:22.920Z</time>
      </trkpt>
      <trkpt lat="42.9716" lon="-1.0629">
        <ele>1012.038721</ele>
        <time>2022-08-29T22:19:41.583Z</time>
      </trkpt>
      <trkpt lat="42.97173" lon="-1.06211">
        <ele>1015.071077</ele>
        <time>2022-08-29T22:20:15.050Z</time>
      </trkpt>
      <trkpt lat="42.97238" lon="-1.06064">
        <ele>1021.339836</ele>
        <time>2022-08-29T22:21:13.649Z</time>
      </trkpt>
      <trkpt lat="42.97289" lon="-1.06008">
        <ele>1023.582968</ele>
        <time>2022-08-29T22:21:44.137Z</time>
      </trkpt>
      <trkpt lat="42.97317" lon="-1.05968">
        <ele>1024.517796</ele>
        <time>2022-08-29T22:21:59.259Z</time>
      </trkpt>
      <trkpt lat="42.97331" lon="-1.05923">
        <ele>1025.322366</ele>
        <time>2022-08-29T22:22:10.877Z</time>
      </trkpt>
      <trkpt lat="42.97328" lon="-1.05894">
        <ele>1025.81064</ele>
        <time>2022-08-29T22:22:16.601Z</time>
      </trkpt>
      <trkpt lat="42.97323" lon="-1.0588">
        <ele>1026.078292</ele>
        <time>2022-08-29T22:22:20.761Z</time>
      </trkpt>
      <trkpt lat="42.97319" lon="-1.0587">
        <ele>1026.263293</ele>
        <time>2022-08-29T22:22:22.305Z</time>
      </trkpt>
      <trkpt lat="42.97333" lon="-1.05691">
        <ele>1027.093135</ele>
        <time>2022-08-29T22:22:56.501Z</time>
      </trkpt>
      <trkpt lat="42.97322" lon="-1.05648">
        <ele>1027.18357</ele>
        <time>2022-08-29T22:23:03.598Z</time>
      </trkpt>
      <trkpt lat="42.97303" lon="-1.05615">
        <ele>1027.264883</ele>
        <time>2022-08-29T22:23:10.606Z</time>
      </trkpt>
      <trkpt lat="42.97211" lon="-1.05509">
        <ele>1028.25527</ele>
        <time>2022-08-29T22:23:41.162Z</time>
      </trkpt>
      <trkpt lat="42.97174" lon="-1.05453">
        <ele>1028.731951</ele>
        <time>2022-08-29T22:23:57.578Z</time>
      </trkpt>
      <trkpt lat="42.97165" lon="-1.05417">
        <ele>1029.239838</ele>
        <time>2022-08-29T22:24:06.621Z</time>
      </trkpt>
      <trkpt lat="42.97178" lon="-1.05383">
        <ele>1029.981899</ele>
        <time>2022-08-29T22:24:16.882Z</time>
      </trkpt>
      <trkpt lat="42.97184" lon="-1.05371">
        <ele>1030.270146</ele>
        <time>2022-08-29T22:24:19.616Z</time>
      </trkpt>
      <trkpt lat="42.97195" lon="-1.05349">
        <ele>1030.779208</ele>
        <time>2022-08-29T22:24:27.920Z</time>
      </trkpt>
      <trkpt lat="42.97194" lon="-1.05333">
        <ele>1031.077895</ele>
        <time>2022-08-29T22:24:31.425Z</time>
      </trkpt>
      <trkpt lat="42.97181" lon="-1.05302">
        <ele>1031.758194</ele>
        <time>2022-08-29T22:24:41.723Z</time>
      </trkpt>
      <trkpt lat="42.97155" lon="-1.05253">
        <ele>1032.928223</ele>
        <time>2022-08-29T22:24:57.991Z</time>
      </trkpt>
      <trkpt lat="42.97082" lon="-1.05161">
        <ele>1035.263903</ele>
        <time>2022-08-29T22:25:37.535Z</time>
      </trkpt>
      <trkpt lat="42.9706" lon="-1.05125">
        <ele>1036.05443</ele>
        <time>2022-08-29T22:25:49.499Z</time>
      </trkpt>
      <trkpt lat="42.9706" lon="-1.05088">
        <ele>1036.674905</ele>
        <time>2022-08-29T22:25:57.861Z</time>
      </trkpt>
      <trkpt lat="42.97069" lon="-1.05004">
        <ele>1038.095962</ele>
        <time>2022-08-29T22:26:15.361Z</time>
      </trkpt>
      <trkpt lat="42.97095" lon="-1.04909">
        <ele>1039.807842</ele>
        <time>2022-08-29T22:26:37.871Z</time>
      </trkpt>
      <trkpt lat="42.97115" lon="-1.04855">
        <ele>1040.843188</ele>
        <time>2022-08-29T22:26:53.463Z</time>
      </trkpt>
      <trkpt lat="42.97144" lon="-1.04836">
        <ele>1041.599797</ele>
        <time>2022-08-29T22:27:06.053Z</time>
      </trkpt>
      <trkpt lat="42.97216" lon="-1.04809">
        <ele>1044.300028</ele>
        <time>2022-08-29T22:27:42.188Z</time>
      </trkpt>
      <trkpt lat="42.97275" lon="-1.04745">
        <ele>1047.182633</ele>
        <time>2022-08-29T22:28:14.428Z</time>
      </trkpt>
      <trkpt lat="42.9728" lon="-1.04723">
        <ele>1047.836156</ele>
        <time>2022-08-29T22:28:20.608Z</time>
      </trkpt>
      <trkpt lat="42.97277" lon="-1.04718">
        <ele>1048.003818</ele>
        <time>2022-08-29T22:28:22.731Z</time>
      </trkpt>
      <trkpt lat="42.97269" lon="-1.04707">
        <ele>1048.450488</ele>
        <time>2022-08-29T22:28:28.532Z</time>
      </trkpt>
      <trkpt lat="42.97257" lon="-1.04706">
        <ele>1048.798503</ele>
        <time>2022-08-29T22:28:32.884Z</time>
      </trkpt>
      <trkpt lat="42.97234" lon="-1.04727">
        <ele>1049.222438</ele>
        <time>2022-08-29T22:28:47.874Z</time>
      </trkpt>
      <trkpt lat="42.97148" lon="-1.04771">
        <ele>1050.6671</ele>
        <time>2022-08-29T22:29:29.491Z</time>
      </trkpt>
      <trkpt lat="42.97113" lon="-1.04765">
        <ele>1051.216907</ele>
        <time>2022-08-29T22:29:42.499Z</time>
      </trkpt>
      <trkpt lat="42.97104" lon="-1.04751">
        <ele>1051.427126</ele>
        <time>2022-08-29T22:29:47.563Z</time>
      </trkpt>
      <trkpt lat="42.97064" lon="-1.0465">
        <ele>1052.006689</ele>
        <time>2022-08-29T22:30:21.611Z</time>
      </trkpt>
      <trkpt lat="42.97056" lon="-1.04586">
        <ele>1052.300936</ele>
        <time>2022-08-29T22:30:40.810Z</time>
      </trkpt>
      <trkpt lat="42.97061" lon="-1.04558">
        <ele>1052.43058</ele>
        <time>2022-08-29T22:30:49.428Z</time>
      </trkpt>
      <trkpt lat="42.97098" lon="-1.04483">
        <ele>1053.082348</ele>
        <time>2022-08-29T22:31:15.928Z</time>
      </trkpt>
      <trkpt lat="42.97129" lon="-1.04406">
        <ele>1053.938369</ele>
        <time>2022-08-29T22:31:42.672Z</time>
      </trkpt>
      <trkpt lat="42.97161" lon="-1.04312">
        <ele>1054.947158</ele>
        <time>2022-08-29T22:32:16.848Z</time>
      </trkpt>
      <trkpt lat="42.97166" lon="-1.0427">
        <ele>1055.741886</ele>
        <time>2022-08-29T22:32:32.734Z</time>
      </trkpt>
      <trkpt lat="42.97151" lon="-1.04228">
        <ele>1056.713736</ele>
        <time>2022-08-29T22:32:50.496Z</time>
      </trkpt>
      <trkpt lat="42.9712" lon="-1.04175">
        <ele>1058.134238</ele>
        <time>2022-08-29T22:33:17.131Z</time>
      </trkpt>
      <trkpt lat="42.97078" lon="-1.04124">
        <ele>1059.737099</ele>
        <time>2022-08-29T22:33:46.616Z</time>
      </trkpt>
      <trkpt lat="42.96997" lon="-1.04079">
        <ele>1062.147444</ele>
        <time>2022-08-29T22:34:30.981Z</time>
      </trkpt>
      <trkpt lat="42.96943" lon="-1.04032">
        <ele>1063.887151</ele>
        <time>2022-08-29T22:35:03.093Z</time>
      </trkpt>
      <trkpt lat="42.96883" lon="-1.0396">
        <ele>1066.155715</ele>
        <time>2022-08-29T22:35:42.991Z</time>
      </trkpt>
      <trkpt lat="42.96826" lon="-1.03903">
        <ele>1068.231483</ele>
        <time>2022-08-29T22:36:20.109Z</time>
      </trkpt>
      <trkpt lat="42.96781" lon="-1.03826">
        <ele>1070.365586</ele>
        <time>2022-08-29T22:36:58.979Z</time>
      </trkpt>
      <trkpt lat="42.96747" lon="-1.03729">
        <ele>1071.695979</ele>
        <time>2022-08-29T22:37:37.226Z</time>
      </trkpt>
      <trkpt lat="42.96726" lon="-1.03647">
        <ele>1072.763796</ele>
        <time>2022-08-29T22:38:04.782Z</time>
      </trkpt>
      <trkpt lat="42.96728" lon="-1.03569">
        <ele>1073.55639</ele>
        <time>2022-08-29T22:38:28.535Z</time>
      </trkpt>
      <trkpt lat="42.96718" lon="-1.03504">
        <ele>1073.927275</ele>
        <time>2022-08-29T22:38:47.142Z</time>
      </trkpt>
      <trkpt lat="42.96705" lon="-1.03464">
        <ele>1074.17135</ele>
        <time>2022-08-29T22:38:59.114Z</time>
      </trkpt>
      <trkpt lat="42.96681" lon="-1.03431">
        <ele>1074.428808</ele>
        <time>2022-08-29T22:39:12.236Z</time>
      </trkpt>
      <trkpt lat="42.96619" lon="-1.03375">
        <ele>1075.681638</ele>
        <time>2022-08-29T22:39:44.836Z</time>
      </trkpt>
      <trkpt lat="42.96592" lon="-1.03317">
        <ele>1077.340553</ele>
        <time>2022-08-29T22:40:09.540Z</time>
      </trkpt>
      <trkpt lat="42.96593" lon="-1.03269">
        <ele>1078.493329</ele>
        <time>2022-08-29T22:40:28.552Z</time>
      </trkpt>
      <trkpt lat="42.96593" lon="-1.03259">
        <ele>1078.728198</ele>
        <time>2022-08-29T22:40:33.165Z</time>
      </trkpt>
      <trkpt lat="42.96617" lon="-1.03197">
        <ele>1080.419417</ele>
        <time>2022-08-29T22:41:03.264Z</time>
      </trkpt>
      <trkpt lat="42.96614" lon="-1.03161">
        <ele>1081.788211</ele>
        <time>2022-08-29T22:41:20.267Z</time>
      </trkpt>
      <trkpt lat="42.96547" lon="-1.02971">
        <ele>1090.891444</ele>
        <time>2022-08-29T22:43:04.777Z</time>
      </trkpt>
      <trkpt lat="42.9654" lon="-1.0294">
        <ele>1092.27653</ele>
        <time>2022-08-29T22:43:21.629Z</time>
      </trkpt>
      <trkpt lat="42.96537" lon="-1.0286">
        <ele>1095.634057</ele>
        <time>2022-08-29T22:44:01.155Z</time>
      </trkpt>
      <trkpt lat="42.96525" lon="-1.02784">
        <ele>1098.93006</ele>
        <time>2022-08-29T22:44:38.377Z</time>
      </trkpt>
      <trkpt lat="42.96512" lon="-1.02742">
        <ele>1100.871461</ele>
        <time>2022-08-29T22:44:59.285Z</time>
      </trkpt>
      <trkpt lat="42.96515" lon="-1.0272">
        <ele>1101.781043</ele>
        <time>2022-08-29T22:45:09.211Z</time>
      </trkpt>
      <trkpt lat="42.96511" lon="-1.02699">
        <ele>1102.626923</ele>
        <time>2022-08-29T22:45:19.887Z</time>
      </trkpt>
      <trkpt lat="42.96495" lon="-1.0266">
        <ele>1104.366632</ele>
        <time>2022-08-29T22:45:40.861Z</time>
      </trkpt>
      <trkpt lat="42.96482" lon="-1.02541">
        <ele>1109.070386</ele>
        <time>2022-08-29T22:46:37.269Z</time>
      </trkpt>
      <trkpt lat="42.96473" lon="-1.02509">
        <ele>1110.393847</ele>
        <time>2022-08-29T22:46:53.479Z</time>
      </trkpt>
      <trkpt lat="42.96416" lon="-1.02399">
        <ele>1115.472225</ele>
        <time>2022-08-29T22:47:54.825Z</time>
      </trkpt>
      <trkpt lat="42.96405" lon="-1.02351">
        <ele>1117.382097</ele>
        <time>2022-08-29T22:48:17.530Z</time>
      </trkpt>
      <trkpt lat="42.96405" lon="-1.02311">
        <ele>1118.855519</ele>
        <time>2022-08-29T22:48:35.433Z</time>
      </trkpt>
      <trkpt lat="42.96487" lon="-1.02194">
        <ele>1125.703298</ele>
        <time>2022-08-29T22:49:52.198Z</time>
      </trkpt>
      <trkpt lat="42.96538" lon="-1.02132">
        <ele>1129.77619</ele>
        <time>2022-08-29T22:50:36.848Z</time>
      </trkpt>
      <trkpt lat="42.96573" lon="-1.021">
        <ele>1132.068489</ele>
        <time>2022-08-29T22:51:10.369Z</time>
      </trkpt>
      <trkpt lat="42.96629" lon="-1.02024">
        <ele>1135.766656</ele>
        <time>2022-08-29T22:52:05.593Z</time>
      </trkpt>
      <trkpt lat="42.96655" lon="-1.02003">
        <ele>1137.238028</ele>
        <time>2022-08-29T22:52:22.708Z</time>
      </trkpt>
      <trkpt lat="42.96659" lon="-1.01989">
        <ele>1137.723189</ele>
        <time>2022-08-29T22:52:28.838Z</time>
      </trkpt>
      <trkpt lat="42.96656" lon="-1.01976">
        <ele>1138.185104</ele>
        <time>2022-08-29T22:52:33.754Z</time>
      </trkpt>
      <trkpt lat="42.9665" lon="-1.01963">
        <ele>1138.734949</ele>
        <time>2022-08-29T22:52:38.784Z</time>
      </trkpt>
      <trkpt lat="42.9664" lon="-1.01957">
        <ele>1139.244792</ele>
        <time>2022-08-29T22:52:43.565Z</time>
      </trkpt>
      <trkpt lat="42.96573" lon="-1.02022">
        <ele>1140.054158</ele>
        <time>2022-08-29T22:53:15.963Z</time>
      </trkpt>
      <trkpt lat="42.96554" lon="-1.02035">
        <ele>1140.157239</ele>
        <time>2022-08-29T22:53:23.702Z</time>
      </trkpt>
      <trkpt lat="42.96475" lon="-1.02078">
        <ele>1140.578822</ele>
        <time>2022-08-29T22:53:53.325Z</time>
      </trkpt>
      <trkpt lat="42.9646" lon="-1.02074">
        <ele>1141.415593</ele>
        <time>2022-08-29T22:53:59.937Z</time>
      </trkpt>
      <trkpt lat="42.96457" lon="-1.02055">
        <ele>1142.325106</ele>
        <time>2022-08-29T22:54:06.797Z</time>
      </trkpt>
      <trkpt lat="42.96474" lon="-1.01983">
        <ele>1145.727107</ele>
        <time>2022-08-29T22:54:40.484Z</time>
      </trkpt>
      <trkpt lat="42.96485" lon="-1.01896">
        <ele>1149.676102</ele>
        <time>2022-08-29T22:55:29.175Z</time>
      </trkpt>
      <trkpt lat="42.96487" lon="-1.01777">
        <ele>1158.812518</ele>
        <time>2022-08-29T22:56:49.187Z</time>
      </trkpt>
      <trkpt lat="42.9648" lon="-1.01733">
        <ele>1163.150849</ele>
        <time>2022-08-29T22:57:21.683Z</time>
      </trkpt>
      <trkpt lat="42.96488" lon="-1.01691">
        <ele>1167.267821</ele>
        <time>2022-08-29T22:57:54.172Z</time>
      </trkpt>
      <trkpt lat="42.9647" lon="-1.01604">
        <ele>1176.240153</ele>
        <time>2022-08-29T22:59:07.687Z</time>
      </trkpt>
      <trkpt lat="42.96444" lon="-1.01526">
        <ele>1187.438342</ele>
        <time>2022-08-29T23:00:30.149Z</time>
      </trkpt>
      <trkpt lat="42.9641" lon="-1.01461">
        <ele>1197.790334</ele>
        <time>2022-08-29T23:01:46.666Z</time>
      </trkpt>
      <trkpt lat="42.96406" lon="-1.0137">
        <ele>1208.82211</ele>
        <time>2022-08-29T23:03:13.445Z</time>
      </trkpt>
      <trkpt lat="42.96396" lon="-1.01322">
        <ele>1213.125333</ele>
        <time>2022-08-29T23:03:56.354Z</time>
      </trkpt>
      <trkpt lat="42.96365" lon="-1.01272">
        <ele>1218.821687</ele>
        <time>2022-08-29T23:04:46.287Z</time>
      </trkpt>
      <trkpt lat="42.96356" lon="-1.01228">
        <ele>1222.825942</ele>
        <time>2022-08-29T23:05:17.338Z</time>
      </trkpt>
      <trkpt lat="42.96347" lon="-1.01222">
        <ele>1223.994548</ele>
        <time>2022-08-29T23:05:25.341Z</time>
      </trkpt>
      <trkpt lat="42.96331" lon="-1.01226">
        <ele>1225.910596</ele>
        <time>2022-08-29T23:05:38.456Z</time>
      </trkpt>
      <trkpt lat="42.9631" lon="-1.01263">
        <ele>1228.778922</ele>
        <time>2022-08-29T23:05:58.815Z</time>
      </trkpt>
      <trkpt lat="42.96304" lon="-1.01298">
        <ele>1229.326058</ele>
        <time>2022-08-29T23:06:12.818Z</time>
      </trkpt>
      <trkpt lat="42.96308" lon="-1.01343">
        <ele>1230.013284</ele>
        <time>2022-08-29T23:06:28.392Z</time>
      </trkpt>
      <trkpt lat="42.96302" lon="-1.01368">
        <ele>1230.426739</ele>
        <time>2022-08-29T23:06:37.009Z</time>
      </trkpt>
      <trkpt lat="42.9629" lon="-1.01378">
        <ele>1230.726996</ele>
        <time>2022-08-29T23:06:42.629Z</time>
      </trkpt>
      <trkpt lat="42.96276" lon="-1.01402">
        <ele>1231.204386</ele>
        <time>2022-08-29T23:06:51.297Z</time>
      </trkpt>
      <trkpt lat="42.96272" lon="-1.01491">
        <ele>1232.966504</ele>
        <time>2022-08-29T23:07:15.688Z</time>
      </trkpt>
      <trkpt lat="42.96262" lon="-1.0155">
        <ele>1235.16913</ele>
        <time>2022-08-29T23:07:35.116Z</time>
      </trkpt>
      <trkpt lat="42.9624" lon="-1.01631">
        <ele>1238.30141</ele>
        <time>2022-08-29T23:08:12.160Z</time>
      </trkpt>
      <trkpt lat="42.96215" lon="-1.01653">
        <ele>1239.750352</ele>
        <time>2022-08-29T23:08:33.093Z</time>
      </trkpt>
      <trkpt lat="42.96157" lon="-1.01634">
        <ele>1245.32096</ele>
        <time>2022-08-29T23:09:25.320Z</time>
      </trkpt>
      <trkpt lat="42.9607" lon="-1.01533">
        <ele>1261.085578</ele>
        <time>2022-08-29T23:11:32.443Z</time>
      </trkpt>
      <trkpt lat="42.96016" lon="-1.0144">
        <ele>1272.818519</ele>
        <time>2022-08-29T23:13:14.682Z</time>
      </trkpt>
      <trkpt lat="42.96014" lon="-1.01416">
        <ele>1275.243437</ele>
        <time>2022-08-29T23:13:34.144Z</time>
      </trkpt>
      <trkpt lat="42.95999" lon="-1.01386">
        <ele>1278.741824</ele>
        <time>2022-08-29T23:14:03.721Z</time>
      </trkpt>
      <trkpt lat="42.95882" lon="-1.01421">
        <ele>1292.726378</ele>
        <time>2022-08-29T23:15:56.723Z</time>
      </trkpt>
      <trkpt lat="42.9585" lon="-1.01444">
        <ele>1295.488106</ele>
        <time>2022-08-29T23:16:23.764Z</time>
      </trkpt>
      <trkpt lat="42.95816" lon="-1.01483">
        <ele>1298.844373</ele>
        <time>2022-08-29T23:16:55.578Z</time>
      </trkpt>
      <trkpt lat="42.958" lon="-1.01536">
        <ele>1302.068896</ele>
        <time>2022-08-29T23:17:24.392Z</time>
      </trkpt>
      <trkpt lat="42.95783" lon="-1.0156">
        <ele>1303.875398</ele>
        <time>2022-08-29T23:17:41.287Z</time>
      </trkpt>
      <trkpt lat="42.95773" lon="-1.01593">
        <ele>1304.922824</ele>
        <time>2022-08-29T23:17:57.639Z</time>
      </trkpt>
      <trkpt lat="42.95778" lon="-1.01654">
        <ele>1306.740198</ele>
        <time>2022-08-29T23:18:21.524Z</time>
      </trkpt>
      <trkpt lat="42.95765" lon="-1.01781">
        <ele>1310.531577</ele>
        <time>2022-08-29T23:19:10.958Z</time>
      </trkpt>
      <trkpt lat="42.95769" lon="-1.01817">
        <ele>1311.859204</ele>
        <time>2022-08-29T23:19:26.195Z</time>
      </trkpt>
      <trkpt lat="42.95823" lon="-1.01974">
        <ele>1319.13485</ele>
        <time>2022-08-29T23:20:51.634Z</time>
      </trkpt>
      <trkpt lat="42.95824" lon="-1.02062">
        <ele>1322.557646</ele>
        <time>2022-08-29T23:21:36.455Z</time>
      </trkpt>
      <trkpt lat="42.9582" lon="-1.0208">
        <ele>1323.198584</ele>
        <time>2022-08-29T23:21:47.754Z</time>
      </trkpt>
      <trkpt lat="42.95778" lon="-1.01972">
        <ele>1327.400385</ele>
        <time>2022-08-29T23:22:43.167Z</time>
      </trkpt>
      <trkpt lat="42.95734" lon="-1.01898">
        <ele>1329.666367</ele>
        <time>2022-08-29T23:23:20.629Z</time>
      </trkpt>
      <trkpt lat="42.95697" lon="-1.01855">
        <ele>1329.356751</ele>
        <time>2022-08-29T23:23:38.121Z</time>
      </trkpt>
      <trkpt lat="42.9567" lon="-1.01812">
        <ele>1329.090044</ele>
        <time>2022-08-29T23:23:51.915Z</time>
      </trkpt>
      <trkpt lat="42.95647" lon="-1.01732">
        <ele>1328.683361</ele>
        <time>2022-08-29T23:24:12.359Z</time>
      </trkpt>
      <trkpt lat="42.95624" lon="-1.01588">
        <ele>1325.690628</ele>
        <time>2022-08-29T23:24:46.616Z</time>
      </trkpt>
      <trkpt lat="42.95626" lon="-1.01535">
        <ele>1324.536348</ele>
        <time>2022-08-29T23:24:58.402Z</time>
      </trkpt>
      <trkpt lat="42.95622" lon="-1.01509">
        <ele>1323.964512</ele>
        <time>2022-08-29T23:25:04.522Z</time>
      </trkpt>
      <trkpt lat="42.95582" lon="-1.01453">
        <ele>1321.717522</ele>
        <time>2022-08-29T23:25:13.841Z</time>
      </trkpt>
      <trkpt lat="42.955" lon="-1.01376">
        <ele>1317.190254</ele>
        <time>2022-08-29T23:25:30.040Z</time>
      </trkpt>
      <trkpt lat="42.95454" lon="-1.01299">
        <ele>1313.773297</ele>
        <time>2022-08-29T23:25:41.361Z</time>
      </trkpt>
      <trkpt lat="42.95364" lon="-1.01212">
        <ele>1308.269723</ele>
        <time>2022-08-29T23:25:59.075Z</time>
      </trkpt>
      <trkpt lat="42.95338" lon="-1.01205">
        <ele>1306.986069</ele>
        <time>2022-08-29T23:26:03.210Z</time>
      </trkpt>
      <trkpt lat="42.9532" lon="-1.01207">
        <ele>1306.073479</ele>
        <time>2022-08-29T23:26:06.114Z</time>
      </trkpt>
      <trkpt lat="42.95192" lon="-1.0124">
        <ele>1298.077935</ele>
        <time>2022-08-29T23:26:26.338Z</time>
      </trkpt>
      <trkpt lat="42.95162" lon="-1.01238">
        <ele>1296.236505</ele>
        <time>2022-08-29T23:26:30.792Z</time>
      </trkpt>
      <trkpt lat="42.95127" lon="-1.01226">
        <ele>1293.969573</ele>
        <time>2022-08-29T23:26:36.088Z</time>
      </trkpt>
      <trkpt lat="42.95101" lon="-1.01208">
        <ele>1292.07297</ele>
        <time>2022-08-29T23:26:40.438Z</time>
      </trkpt>
      <trkpt lat="42.95042" lon="-1.01152">
        <ele>1287.4487</ele>
        <time>2022-08-29T23:26:51.129Z</time>
      </trkpt>
      <trkpt lat="42.95028" lon="-1.01121">
        <ele>1285.734249</ele>
        <time>2022-08-29T23:26:55.188Z</time>
      </trkpt>
      <trkpt lat="42.94995" lon="-1.01012">
        <ele>1282.066588</ele>
        <time>2022-08-29T23:27:09.348Z</time>
      </trkpt>
      <trkpt lat="42.94951" lon="-1.00915">
        <ele>1279.664607</ele>
        <time>2022-08-29T23:27:25.677Z</time>
      </trkpt>
      <trkpt lat="42.94928" lon="-1.00885">
        <ele>1278.765887</ele>
        <time>2022-08-29T23:27:31.687Z</time>
      </trkpt>
      <trkpt lat="42.94888" lon="-1.00868">
        <ele>1276.072795</ele>
        <time>2022-08-29T23:27:38.736Z</time>
      </trkpt>
      <trkpt lat="42.94847" lon="-1.00869">
        <ele>1272.936728</ele>
        <time>2022-08-29T23:27:44.854Z</time>
      </trkpt>
      <trkpt lat="42.94801" lon="-1.00889">
        <ele>1269.16765</ele>
        <time>2022-08-29T23:27:51.953Z</time>
      </trkpt>
      <trkpt lat="42.94712" lon="-1.00944">
        <ele>1260.838395</ele>
        <time>2022-08-29T23:28:05.611Z</time>
      </trkpt>
      <trkpt lat="42.94675" lon="-1.00955">
        <ele>1257.053384</ele>
        <time>2022-08-29T23:28:10.922Z</time>
      </trkpt>
      <trkpt lat="42.94657" lon="-1.00954">
        <ele>1255.295975</ele>
        <time>2022-08-29T23:28:13.425Z</time>
      </trkpt>
      <trkpt lat="42.94646" lon="-1.00947">
        <ele>1254.095367</ele>
        <time>2022-08-29T23:28:15.124Z</time>
      </trkpt>
      <trkpt lat="42.94632" lon="-1.00928">
        <ele>1252.173197</ele>
        <time>2022-08-29T23:28:17.892Z</time>
      </trkpt>
      <trkpt lat="42.94622" lon="-1.00839">
        <ele>1245.868328</ele>
        <time>2022-08-29T23:28:27.484Z</time>
      </trkpt>
      <trkpt lat="42.94612" lon="-1.00807">
        <ele>1243.713624</ele>
        <time>2022-08-29T23:28:31.371Z</time>
      </trkpt>
      <trkpt lat="42.94601" lon="-1.00789">
        <ele>1242.198908</ele>
        <time>2022-08-29T23:28:34.129Z</time>
      </trkpt>
      <trkpt lat="42.94573" lon="-1.00773">
        <ele>1239.649739</ele>
        <time>2022-08-29T23:28:38.774Z</time>
      </trkpt>
      <trkpt lat="42.94394" lon="-1.00719">
        <ele>1221.525213</ele>
        <time>2022-08-29T23:29:04.777Z</time>
      </trkpt>
      <trkpt lat="42.94312" lon="-1.00668">
        <ele>1211.092155</ele>
        <time>2022-08-29T23:29:17.147Z</time>
      </trkpt>
      <trkpt lat="42.94274" lon="-1.00658">
        <ele>1206.668783</ele>
        <time>2022-08-29T23:29:22.363Z</time>
      </trkpt>
      <trkpt lat="42.94201" lon="-1.0068">
        <ele>1197.962197</ele>
        <time>2022-08-29T23:29:32.667Z</time>
      </trkpt>
      <trkpt lat="42.94138" lon="-1.00676">
        <ele>1190.712705</ele>
        <time>2022-08-29T23:29:41.512Z</time>
      </trkpt>
      <trkpt lat="42.94079" lon="-1.00686">
        <ele>1185.790642</ele>
        <time>2022-08-29T23:29:50.443Z</time>
      </trkpt>
      <trkpt lat="42.94053" lon="-1.00695">
        <ele>1183.652804</ele>
        <time>2022-08-29T23:29:54.609Z</time>
      </trkpt>
      <trkpt lat="42.94014" lon="-1.00726">
        <ele>1180.167445</ele>
        <time>2022-08-29T23:30:01.017Z</time>
      </trkpt>
      <trkpt lat="42.93937" lon="-1.00758">
        <ele>1173.504776</ele>
        <time>2022-08-29T23:30:12.979Z</time>
      </trkpt>
      <trkpt lat="42.9392" lon="-1.00751">
        <ele>1171.895667</ele>
        <time>2022-08-29T23:30:15.774Z</time>
      </trkpt>
      <trkpt lat="42.93916" lon="-1.00735">
        <ele>1170.786143</ele>
        <time>2022-08-29T23:30:17.563Z</time>
      </trkpt>
      <trkpt lat="42.93919" lon="-1.00724">
        <ele>1170.019002</ele>
        <time>2022-08-29T23:30:18.713Z</time>
      </trkpt>
      <trkpt lat="42.93928" lon="-1.00714">
        <ele>1168.924533</ele>
        <time>2022-08-29T23:30:20.672Z</time>
      </trkpt>
      <trkpt lat="42.93994" lon="-1.00675">
        <ele>1162.37824</ele>
        <time>2022-08-29T23:30:31.017Z</time>
      </trkpt>
      <trkpt lat="42.94046" lon="-1.00628">
        <ele>1156.59729</ele>
        <time>2022-08-29T23:30:39.558Z</time>
      </trkpt>
      <trkpt lat="42.94097" lon="-1.00542">
        <ele>1148.855433</ele>
        <time>2022-08-29T23:30:51.134Z</time>
      </trkpt>
      <trkpt lat="42.94118" lon="-1.00463">
        <ele>1142.896389</ele>
        <time>2022-08-29T23:31:00.050Z</time>
      </trkpt>
      <trkpt lat="42.94127" lon="-1.00444">
        <ele>1141.500896</ele>
        <time>2022-08-29T23:31:02.405Z</time>
      </trkpt>
      <trkpt lat="42.94199" lon="-1.00374">
        <ele>1134.463205</ele>
        <time>2022-08-29T23:31:15.410Z</time>
      </trkpt>
      <trkpt lat="42.94234" lon="-1.00286">
        <ele>1128.643541</ele>
        <time>2022-08-29T23:31:26.264Z</time>
      </trkpt>
      <trkpt lat="42.94281" lon="-1.00205">
        <ele>1122.005535</ele>
        <time>2022-08-29T23:31:37.318Z</time>
      </trkpt>
      <trkpt lat="42.94291" lon="-1.00146">
        <ele>1118.02237</ele>
        <time>2022-08-29T23:31:43.746Z</time>
      </trkpt>
      <trkpt lat="42.94286" lon="-1.00056">
        <ele>1112.125825</ele>
        <time>2022-08-29T23:31:53.190Z</time>
      </trkpt>
      <trkpt lat="42.94304" lon="-0.99975">
        <ele>1103.14192</ele>
        <time>2022-08-29T23:32:01.930Z</time>
      </trkpt>
      <trkpt lat="42.94302" lon="-0.999">
        <ele>1095.024039</ele>
        <time>2022-08-29T23:32:09.386Z</time>
      </trkpt>
      <trkpt lat="42.94296" lon="-0.99862">
        <ele>1090.769972</ele>
        <time>2022-08-29T23:32:13.155Z</time>
      </trkpt>
      <trkpt lat="42.94276" lon="-0.99796">
        <ele>1082.418767</ele>
        <time>2022-08-29T23:32:20.014Z</time>
      </trkpt>
      <trkpt lat="42.94256" lon="-0.99753">
        <ele>1075.487949</ele>
        <time>2022-08-29T23:32:24.904Z</time>
      </trkpt>
      <trkpt lat="42.94229" lon="-0.99714">
        <ele>1068.248458</ele>
        <time>2022-08-29T23:32:30.007Z</time>
      </trkpt>
      <trkpt lat="42.94198" lon="-0.99668">
        <ele>1059.65816</ele>
        <time>2022-08-29T23:32:36.109Z</time>
      </trkpt>
      <trkpt lat="42.9416" lon="-0.99637">
        <ele>1051.798273</ele>
        <time>2022-08-29T23:32:41.866Z</time>
      </trkpt>
      <trkpt lat="42.94159" lon="-0.99617">
        <ele>1050.585052</ele>
        <time>2022-08-29T23:32:43.905Z</time>
      </trkpt>
      <trkpt lat="42.94167" lon="-0.99606">
        <ele>1049.674228</ele>
        <time>2022-08-29T23:32:45.405Z</time>
      </trkpt>
      <trkpt lat="42.94211" lon="-0.99616">
        <ele>1046.129727</ele>
        <time>2022-08-29T23:32:51.527Z</time>
      </trkpt>
      <trkpt lat="42.94268" lon="-0.99613">
        <ele>1041.52</ele>
        <time>2022-08-29T23:33:00.782Z</time>
      </trkpt>
      <trkpt lat="42.94324" lon="-0.99596">
        <ele>1037.327587</ele>
        <time>2022-08-29T23:33:10.836Z</time>
      </trkpt>
      <trkpt lat="42.94392" lon="-0.99588">
        <ele>1035.450757</ele>
        <time>2022-08-29T23:33:23.966Z</time>
      </trkpt>
      <trkpt lat="42.94441" lon="-0.99621">
        <ele>1033.947745</ele>
        <time>2022-08-29T23:33:34.435Z</time>
      </trkpt>
      <trkpt lat="42.94485" lon="-0.99669">
        <ele>1032.083618</ele>
        <time>2022-08-29T23:33:43.675Z</time>
      </trkpt>
      <trkpt lat="42.94499" lon="-0.99672">
        <ele>1031.1043</ele>
        <time>2022-08-29T23:33:45.733Z</time>
      </trkpt>
      <trkpt lat="42.94508" lon="-0.99659">
        <ele>1030.196143</ele>
        <time>2022-08-29T23:33:47.752Z</time>
      </trkpt>
      <trkpt lat="42.94503" lon="-0.99642">
        <ele>1029.270401</ele>
        <time>2022-08-29T23:33:49.764Z</time>
      </trkpt>
      <trkpt lat="42.94474" lon="-0.99618">
        <ele>1026.886869</ele>
        <time>2022-08-29T23:33:54.922Z</time>
      </trkpt>
      <trkpt lat="42.94437" lon="-0.99558">
        <ele>1022.88234</ele>
        <time>2022-08-29T23:34:03.397Z</time>
      </trkpt>
      <trkpt lat="42.94414" lon="-0.99537">
        <ele>1020.912926</ele>
        <time>2022-08-29T23:34:07.476Z</time>
      </trkpt>
      <trkpt lat="42.94355" lon="-0.99513">
        <ele>1015.951277</ele>
        <time>2022-08-29T23:34:16.297Z</time>
      </trkpt>
      <trkpt lat="42.94332" lon="-0.99514">
        <ele>1013.965958</ele>
        <time>2022-08-29T23:34:19.593Z</time>
      </trkpt>
      <trkpt lat="42.94291" lon="-0.9953">
        <ele>1010.355562</ele>
        <time>2022-08-29T23:34:25.690Z</time>
      </trkpt>
      <trkpt lat="42.94272" lon="-0.99523">
        <ele>1008.676203</ele>
        <time>2022-08-29T23:34:28.560Z</time>
      </trkpt>
      <trkpt lat="42.94257" lon="-0.99506">
        <ele>1006.971554</ele>
        <time>2022-08-29T23:34:31.654Z</time>
      </trkpt>
      <trkpt lat="42.94225" lon="-0.99445">
        <ele>1002.766856</ele>
        <time>2022-08-29T23:34:39.790Z</time>
      </trkpt>
      <trkpt lat="42.94213" lon="-0.99435">
        <ele>1001.781653</ele>
        <time>2022-08-29T23:34:41.877Z</time>
      </trkpt>
      <trkpt lat="42.94183" lon="-0.99425">
        <ele>999.612905</ele>
        <time>2022-08-29T23:34:46.468Z</time>
      </trkpt>
      <trkpt lat="42.94062" lon="-0.99452">
        <ele>991.405913</ele>
        <time>2022-08-29T23:35:04.780Z</time>
      </trkpt>
      <trkpt lat="42.9396" lon="-0.99435">
        <ele>986.707698</ele>
        <time>2022-08-29T23:35:21.132Z</time>
      </trkpt>
      <trkpt lat="42.93943" lon="-0.99437">
        <ele>985.943031</ele>
        <time>2022-08-29T23:35:23.917Z</time>
      </trkpt>
      <trkpt lat="42.93843" lon="-0.99489">
        <ele>983.718643</ele>
        <time>2022-08-29T23:35:42.877Z</time>
      </trkpt>
      <trkpt lat="42.93776" lon="-0.99511">
        <ele>983.523196</ele>
        <time>2022-08-29T23:35:56.984Z</time>
      </trkpt>
      <trkpt lat="42.93761" lon="-0.99522">
        <ele>983.474248</ele>
        <time>2022-08-29T23:36:02.491Z</time>
      </trkpt>
      <trkpt lat="42.9375" lon="-0.99541">
        <ele>983.424325</ele>
        <time>2022-08-29T23:36:08.236Z</time>
      </trkpt>
      <trkpt lat="42.93748" lon="-0.99576">
        <ele>983.834372</ele>
        <time>2022-08-29T23:36:17.869Z</time>
      </trkpt>
      <trkpt lat="42.93785" lon="-0.99637">
        <ele>986.18165</ele>
        <time>2022-08-29T23:36:43.392Z</time>
      </trkpt>
      <trkpt lat="42.93785" lon="-0.99692">
        <ele>987.800193</ele>
        <time>2022-08-29T23:37:05.249Z</time>
      </trkpt>
      <trkpt lat="42.93849" lon="-0.99817">
        <ele>988.933353</ele>
        <time>2022-08-29T23:37:51.672Z</time>
      </trkpt>
      <trkpt lat="42.93852" lon="-0.99834">
        <ele>988.356154</ele>
        <time>2022-08-29T23:37:54.530Z</time>
      </trkpt>
      <trkpt lat="42.93848" lon="-0.99849">
        <ele>987.854547</ele>
        <time>2022-08-29T23:37:56.695Z</time>
      </trkpt>
      <trkpt lat="42.93833" lon="-0.99854">
        <ele>987.176421</ele>
        <time>2022-08-29T23:37:59.338Z</time>
      </trkpt>
      <trkpt lat="42.93795" lon="-0.99828">
        <ele>985.342328</ele>
        <time>2022-08-29T23:38:05.703Z</time>
      </trkpt>
      <trkpt lat="42.93721" lon="-0.99802">
        <ele>980.839056</ele>
        <time>2022-08-29T23:38:16.483Z</time>
      </trkpt>
      <trkpt lat="42.93649" lon="-0.9976">
        <ele>972.557116</ele>
        <time>2022-08-29T23:38:27.374Z</time>
      </trkpt>
      <trkpt lat="42.9361" lon="-0.99756">
        <ele>968.493585</ele>
        <time>2022-08-29T23:38:32.790Z</time>
      </trkpt>
      <trkpt lat="42.93599" lon="-0.99768">
        <ele>966.96057</ele>
        <time>2022-08-29T23:38:34.877Z</time>
      </trkpt>
      <trkpt lat="42.93598" lon="-0.99786">
        <ele>965.588251</ele>
        <time>2022-08-29T23:38:36.713Z</time>
      </trkpt>
      <trkpt lat="42.93606" lon="-0.998">
        <ele>964.225414</ele>
        <time>2022-08-29T23:38:38.609Z</time>
      </trkpt>
      <trkpt lat="42.93634" lon="-0.9982">
        <ele>961.340176</ele>
        <time>2022-08-29T23:38:43.200Z</time>
      </trkpt>
      <trkpt lat="42.93651" lon="-0.99843">
        <ele>959.16556</ele>
        <time>2022-08-29T23:38:46.718Z</time>
      </trkpt>
      <trkpt lat="42.93655" lon="-0.99864">
        <ele>957.746979</ele>
        <time>2022-08-29T23:38:49.030Z</time>
      </trkpt>
      <trkpt lat="42.93647" lon="-0.99883">
        <ele>956.24426</ele>
        <time>2022-08-29T23:38:51.463Z</time>
      </trkpt>
      <trkpt lat="42.93629" lon="-0.99889">
        <ele>954.637318</ele>
        <time>2022-08-29T23:38:54.053Z</time>
      </trkpt>
      <trkpt lat="42.93584" lon="-0.99882">
        <ele>950.493951</ele>
        <time>2022-08-29T23:39:00.657Z</time>
      </trkpt>
      <trkpt lat="42.9356" lon="-0.99885">
        <ele>948.312919</ele>
        <time>2022-08-29T23:39:04.134Z</time>
      </trkpt>
      <trkpt lat="42.93483" lon="-0.99946">
        <ele>938.635069</ele>
        <time>2022-08-29T23:39:16.405Z</time>
      </trkpt>
      <trkpt lat="42.93426" lon="-0.99951">
        <ele>932.256329</ele>
        <time>2022-08-29T23:39:24.363Z</time>
      </trkpt>
      <trkpt lat="42.93404" lon="-0.99959">
        <ele>929.683033</ele>
        <time>2022-08-29T23:39:27.545Z</time>
      </trkpt>
      <trkpt lat="42.93387" lon="-0.99978">
        <ele>927.352496</ele>
        <time>2022-08-29T23:39:30.634Z</time>
      </trkpt>
      <trkpt lat="42.93365" lon="-1.0002">
        <ele>924.376652</ele>
        <time>2022-08-29T23:39:35.981Z</time>
      </trkpt>
      <trkpt lat="42.93315" lon="-1.00135">
        <ele>916.641935</ele>
        <time>2022-08-29T23:39:50.489Z</time>
      </trkpt>
      <trkpt lat="42.93276" lon="-1.00178">
        <ele>913.091302</ele>
        <time>2022-08-29T23:39:58.170Z</time>
      </trkpt>
      <trkpt lat="42.93221" lon="-1.00224">
        <ele>910.728532</ele>
        <time>2022-08-29T23:40:08.527Z</time>
      </trkpt>
      <trkpt lat="42.93139" lon="-1.00335">
        <ele>906.731693</ele>
        <time>2022-08-29T23:40:28.932Z</time>
      </trkpt>
      <trkpt lat="42.93113" lon="-1.00352">
        <ele>906.346156</ele>
        <time>2022-08-29T23:40:34.236Z</time>
      </trkpt>
      <trkpt lat="42.93075" lon="-1.00359">
        <ele>905.829836</ele>
        <time>2022-08-29T23:40:41.405Z</time>
      </trkpt>
      <trkpt lat="42.93057" lon="-1.00369">
        <ele>905.567169</ele>
        <time>2022-08-29T23:40:45.014Z</time>
      </trkpt>
      <trkpt lat="42.92957" lon="-1.00489">
        <ele>905.489455</ele>
        <time>2022-08-29T23:41:12.341Z</time>
      </trkpt>
      <trkpt lat="42.92908" lon="-1.00535">
        <ele>906.75388</ele>
        <time>2022-08-29T23:41:33.524Z</time>
      </trkpt>
      <trkpt lat="42.92893" lon="-1.00541">
        <ele>907.086011</ele>
        <time>2022-08-29T23:41:37.581Z</time>
      </trkpt>
      <trkpt lat="42.92883" lon="-1.00504">
        <ele>907.695923</ele>
        <time>2022-08-29T23:41:49.404Z</time>
      </trkpt>
      <trkpt lat="42.92872" lon="-1.00489">
        <ele>908.026512</ele>
        <time>2022-08-29T23:41:55.927Z</time>
      </trkpt>
      <trkpt lat="42.92865" lon="-1.00484">
        <ele>908.186677</ele>
        <time>2022-08-29T23:42:00.029Z</time>
      </trkpt>
      <trkpt lat="42.92849" lon="-1.00485">
        <ele>908.822941</ele>
        <time>2022-08-29T23:42:05.887Z</time>
      </trkpt>
      <trkpt lat="42.92769" lon="-1.00545">
        <ele>912.786912</ele>
        <time>2022-08-29T23:42:52.996Z</time>
      </trkpt>
      <trkpt lat="42.92696" lon="-1.00576">
        <ele>916.09001</ele>
        <time>2022-08-29T23:43:25.055Z</time>
      </trkpt>
      <trkpt lat="42.92606" lon="-1.006">
        <ele>916.518585</ele>
        <time>2022-08-29T23:43:51.496Z</time>
      </trkpt>
      <trkpt lat="42.92373" lon="-1.00695">
        <ele>916.228572</ele>
        <time>2022-08-29T23:44:39.289Z</time>
      </trkpt>
      <trkpt lat="42.92352" lon="-1.00694">
        <ele>916.136858</ele>
        <time>2022-08-29T23:44:44.565Z</time>
      </trkpt>
      <trkpt lat="42.92347" lon="-1.00685">
        <ele>916.309652</ele>
        <time>2022-08-29T23:44:47.249Z</time>
      </trkpt>
      <trkpt lat="42.9235" lon="-1.00658">
        <ele>917.204195</ele>
        <time>2022-08-29T23:44:53.904Z</time>
      </trkpt>
      <trkpt lat="42.92367" lon="-1.00624">
        <ele>918.556922</ele>
        <time>2022-08-29T23:45:05.405Z</time>
      </trkpt>
      <trkpt lat="42.92395" lon="-1.00518">
        <ele>922.275086</ele>
        <time>2022-08-29T23:45:42.887Z</time>
      </trkpt>
      <trkpt lat="42.92407" lon="-1.00494">
        <ele>923.237984</ele>
        <time>2022-08-29T23:45:54.960Z</time>
      </trkpt>
      <trkpt lat="42.92426" lon="-1.00488">
        <ele>924.117495</ele>
        <time>2022-08-29T23:46:06.588Z</time>
      </trkpt>
      <trkpt lat="42.92508" lon="-1.005">
        <ele>930.684657</ele>
        <time>2022-08-29T23:46:58.415Z</time>
      </trkpt>
      <trkpt lat="42.92522" lon="-1.00497">
        <ele>931.901627</ele>
        <time>2022-08-29T23:47:07.688Z</time>
      </trkpt>
      <trkpt lat="42.92567" lon="-1.00464">
        <ele>936.009218</ele>
        <time>2022-08-29T23:47:41.568Z</time>
      </trkpt>
      <trkpt lat="42.92591" lon="-1.00425">
        <ele>939.077227</ele>
        <time>2022-08-29T23:48:04.698Z</time>
      </trkpt>
      <trkpt lat="42.92617" lon="-1.00337">
        <ele>946.102055</ele>
        <time>2022-08-29T23:48:49.341Z</time>
      </trkpt>
      <trkpt lat="42.92623" lon="-1.00304">
        <ele>948.590004</ele>
        <time>2022-08-29T23:49:06.904Z</time>
      </trkpt>
      <trkpt lat="42.92618" lon="-1.00171">
        <ele>959.074513</ele>
        <time>2022-08-29T23:50:22.313Z</time>
      </trkpt>
      <trkpt lat="42.92625" lon="-1.00139">
        <ele>962.616503</ele>
        <time>2022-08-29T23:50:45.068Z</time>
      </trkpt>
      <trkpt lat="42.92646" lon="-1.00113">
        <ele>966.800572</ele>
        <time>2022-08-29T23:51:12.889Z</time>
      </trkpt>
      <trkpt lat="42.92709" lon="-1.00061">
        <ele>977.476735</ele>
        <time>2022-08-29T23:52:25.292Z</time>
      </trkpt>
      <trkpt lat="42.92729" lon="-1.00034">
        <ele>981.575981</ele>
        <time>2022-08-29T23:52:54.001Z</time>
      </trkpt>
      <trkpt lat="42.92743" lon="-0.99999">
        <ele>985.967662</ele>
        <time>2022-08-29T23:53:24.537Z</time>
      </trkpt>
      <trkpt lat="42.92754" lon="-0.99937">
        <ele>992.846302</ele>
        <time>2022-08-29T23:54:10.481Z</time>
      </trkpt>
      <trkpt lat="42.92784" lon="-0.99861">
        <ele>1002.436187</ele>
        <time>2022-08-29T23:55:16.330Z</time>
      </trkpt>
      <trkpt lat="42.92786" lon="-0.9983">
        <ele>1005.853363</ele>
        <time>2022-08-29T23:55:37.752Z</time>
      </trkpt>
      <trkpt lat="42.92773" lon="-0.99646">
        <ele>1021.134393</ele>
        <time>2022-08-29T23:57:32.353Z</time>
      </trkpt>
      <trkpt lat="42.92731" lon="-0.99515">
        <ele>1028.128606</ele>
        <time>2022-08-29T23:58:37.323Z</time>
      </trkpt>
      <trkpt lat="42.92721" lon="-0.99438">
        <ele>1027.214643</ele>
        <time>2022-08-29T23:58:49.545Z</time>
      </trkpt>
      <trkpt lat="42.92709" lon="-0.99434">
        <ele>1027.024101</ele>
        <time>2022-08-29T23:58:51.476Z</time>
      </trkpt>
      <trkpt lat="42.92693" lon="-0.99462">
        <ele>1026.610053</ele>
        <time>2022-08-29T23:58:55.530Z</time>
      </trkpt>
      <trkpt lat="42.9265" lon="-0.9967">
        <ele>1020.473197</ele>
        <time>2022-08-29T23:59:18.922Z</time>
      </trkpt>
      <trkpt lat="42.92631" lon="-0.99716">
        <ele>1018.551897</ele>
        <time>2022-08-29T23:59:25.104Z</time>
      </trkpt>
      <trkpt lat="42.92604" lon="-0.99735">
        <ele>1017.010048</ele>
        <time>2022-08-29T23:59:30.922Z</time>
      </trkpt>
      <trkpt lat="42.92543" lon="-0.99751">
        <ele>1021.09894</ele>
        <time>2022-08-29T23:59:52.384Z</time>
      </trkpt>
      <trkpt lat="42.92522" lon="-0.99751">
        <ele>1022.734988</ele>
        <time>2022-08-30T00:00:04.726Z</time>
      </trkpt>
      <trkpt lat="42.92505" lon="-0.99743">
        <ele>1024.038996</ele>
        <time>2022-08-30T00:00:16.560Z</time>
      </trkpt>
      <trkpt lat="42.92492" lon="-0.99709">
        <ele>1026.187952</ele>
        <time>2022-08-30T00:00:37.813Z</time>
      </trkpt>
      <trkpt lat="42.92483" lon="-0.99629">
        <ele>1030.967985</ele>
        <time>2022-08-30T00:01:27.106Z</time>
      </trkpt>
      <trkpt lat="42.92475" lon="-0.996">
        <ele>1034.617148</ele>
        <time>2022-08-30T00:01:48.162Z</time>
      </trkpt>
      <trkpt lat="42.92472" lon="-0.99555">
        <ele>1039.750158</ele>
        <time>2022-08-30T00:02:19.723Z</time>
      </trkpt>
      <trkpt lat="42.92479" lon="-0.99443">
        <ele>1052.793668</ele>
        <time>2022-08-30T00:03:46.682Z</time>
      </trkpt>
      <trkpt lat="42.92508" lon="-0.99334">
        <ele>1065.065168</ele>
        <time>2022-08-30T00:05:21.874Z</time>
      </trkpt>
      <trkpt lat="42.92511" lon="-0.99303">
        <ele>1068.142784</ele>
        <time>2022-08-30T00:05:45.007Z</time>
      </trkpt>
      <trkpt lat="42.92508" lon="-0.99234">
        <ele>1074.960121</ele>
        <time>2022-08-30T00:06:31.706Z</time>
      </trkpt>
      <trkpt lat="42.92496" lon="-0.99191">
        <ele>1079.53785</ele>
        <time>2022-08-30T00:06:57.981Z</time>
      </trkpt>
      <trkpt lat="42.92489" lon="-0.99099">
        <ele>1084.342246</ele>
        <time>2022-08-30T00:07:39.555Z</time>
      </trkpt>
      <trkpt lat="42.92481" lon="-0.9908">
        <ele>1084.88527</ele>
        <time>2022-08-30T00:07:47.134Z</time>
      </trkpt>
      <trkpt lat="42.92467" lon="-0.99068">
        <ele>1085.444996</ele>
        <time>2022-08-30T00:07:54.744Z</time>
      </trkpt>
      <trkpt lat="42.92383" lon="-0.99028">
        <ele>1088.422479</ele>
        <time>2022-08-30T00:08:18.854Z</time>
      </trkpt>
      <trkpt lat="42.92313" lon="-0.99028">
        <ele>1088.799934</ele>
        <time>2022-08-30T00:08:32.902Z</time>
      </trkpt>
      <trkpt lat="42.92277" lon="-0.9905">
        <ele>1088.691295</ele>
        <time>2022-08-30T00:08:41.147Z</time>
      </trkpt>
      <trkpt lat="42.92249" lon="-0.9905">
        <ele>1088.615084</ele>
        <time>2022-08-30T00:08:47.131Z</time>
      </trkpt>
      <trkpt lat="42.92146" lon="-0.99004">
        <ele>1088.036744</ele>
        <time>2022-08-30T00:09:11.093Z</time>
      </trkpt>
      <trkpt lat="42.92065" lon="-0.98993">
        <ele>1087.345696</ele>
        <time>2022-08-30T00:09:27.195Z</time>
      </trkpt>
      <trkpt lat="42.92049" lon="-0.9898">
        <ele>1087.192822</ele>
        <time>2022-08-30T00:09:30.659Z</time>
      </trkpt>
      <trkpt lat="42.9204" lon="-0.98952">
        <ele>1086.998286</ele>
        <time>2022-08-30T00:09:35.149Z</time>
      </trkpt>
      <trkpt lat="42.92047" lon="-0.98908">
        <ele>1086.854068</ele>
        <time>2022-08-30T00:09:41.644Z</time>
      </trkpt>
      <trkpt lat="42.92082" lon="-0.98843">
        <ele>1086.668804</ele>
        <time>2022-08-30T00:09:53.246Z</time>
      </trkpt>
      <trkpt lat="42.92104" lon="-0.98817">
        <ele>1086.574571</ele>
        <time>2022-08-30T00:09:59.211Z</time>
      </trkpt>
      <trkpt lat="42.92139" lon="-0.98792">
        <ele>1086.451916</ele>
        <time>2022-08-30T00:10:07.262Z</time>
      </trkpt>
      <trkpt lat="42.92149" lon="-0.98791">
        <ele>1086.419284</ele>
        <time>2022-08-30T00:10:09.718Z</time>
      </trkpt>
      <trkpt lat="42.92263" lon="-0.98835">
        <ele>1088.648846</ele>
        <time>2022-08-30T00:10:49.677Z</time>
      </trkpt>
      <trkpt lat="42.92312" lon="-0.98802">
        <ele>1089.863223</ele>
        <time>2022-08-30T00:11:10.366Z</time>
      </trkpt>
      <trkpt lat="42.92327" lon="-0.98804">
        <ele>1090.210873</ele>
        <time>2022-08-30T00:11:15.973Z</time>
      </trkpt>
      <trkpt lat="42.92371" lon="-0.98829">
        <ele>1089.569969</ele>
        <time>2022-08-30T00:11:33.358Z</time>
      </trkpt>
      <trkpt lat="42.92444" lon="-0.98838">
        <ele>1088.050371</ele>
        <time>2022-08-30T00:11:48.555Z</time>
      </trkpt>
      <trkpt lat="42.92506" lon="-0.98833">
        <ele>1086.735935</ele>
        <time>2022-08-30T00:11:58.940Z</time>
      </trkpt>
      <trkpt lat="42.92519" lon="-0.98815">
        <ele>1084.340979</ele>
        <time>2022-08-30T00:12:01.639Z</time>
      </trkpt>
      <trkpt lat="42.92516" lon="-0.98795">
        <ele>1081.762902</ele>
        <time>2022-08-30T00:12:03.738Z</time>
      </trkpt>
      <trkpt lat="42.92511" lon="-0.98788">
        <ele>1080.51624</ele>
        <time>2022-08-30T00:12:04.774Z</time>
      </trkpt>
      <trkpt lat="42.92456" lon="-0.98762">
        <ele>1070.593003</ele>
        <time>2022-08-30T00:12:12.504Z</time>
      </trkpt>
      <trkpt lat="42.92413" lon="-0.98727">
        <ele>1062.107069</ele>
        <time>2022-08-30T00:12:19.019Z</time>
      </trkpt>
      <trkpt lat="42.92378" lon="-0.98655">
        <ele>1050.394467</ele>
        <time>2022-08-30T00:12:27.269Z</time>
      </trkpt>
      <trkpt lat="42.92339" lon="-0.98625">
        <ele>1041.450917</ele>
        <time>2022-08-30T00:12:32.996Z</time>
      </trkpt>
      <trkpt lat="42.92319" lon="-0.9858">
        <ele>1033.573464</ele>
        <time>2022-08-30T00:12:38.053Z</time>
      </trkpt>
      <trkpt lat="42.92259" lon="-0.98514">
        <ele>1018.893949</ele>
        <time>2022-08-30T00:12:48.109Z</time>
      </trkpt>
      <trkpt lat="42.92252" lon="-0.98492">
        <ele>1017.250291</ele>
        <time>2022-08-30T00:12:50.585Z</time>
      </trkpt>
      <trkpt lat="42.92261" lon="-0.98433">
        <ele>1013.267812</ele>
        <time>2022-08-30T00:12:56.803Z</time>
      </trkpt>
      <trkpt lat="42.92254" lon="-0.98415">
        <ele>1011.968681</ele>
        <time>2022-08-30T00:12:58.864Z</time>
      </trkpt>
      <trkpt lat="42.92239" lon="-0.98409">
        <ele>1010.50337</ele>
        <time>2022-08-30T00:13:01.241Z</time>
      </trkpt>
      <trkpt lat="42.92178" lon="-0.98415">
        <ele>1004.94884</ele>
        <time>2022-08-30T00:13:10.634Z</time>
      </trkpt>
      <trkpt lat="42.92163" lon="-0.98404">
        <ele>1003.416699</ele>
        <time>2022-08-30T00:13:13.489Z</time>
      </trkpt>
      <trkpt lat="42.92154" lon="-0.98387">
        <ele>1003.056048</ele>
        <time>2022-08-30T00:13:16.045Z</time>
      </trkpt>
      <trkpt lat="42.92131" lon="-0.98275">
        <ele>1001.536397</ele>
        <time>2022-08-30T00:13:32.437Z</time>
      </trkpt>
      <trkpt lat="42.92144" lon="-0.98212">
        <ele>1000.683992</ele>
        <time>2022-08-30T00:13:43.456Z</time>
      </trkpt>
      <trkpt lat="42.92135" lon="-0.98198">
        <ele>1000.4511</ele>
        <time>2022-08-30T00:13:46.412Z</time>
      </trkpt>
      <trkpt lat="42.9211" lon="-0.98179">
        <ele>999.57647</ele>
        <time>2022-08-30T00:13:52.129Z</time>
      </trkpt>
      <trkpt lat="42.92103" lon="-0.98159">
        <ele>998.712117</ele>
        <time>2022-08-30T00:13:55.057Z</time>
      </trkpt>
      <trkpt lat="42.921" lon="-0.9809">
        <ele>995.964421</ele>
        <time>2022-08-30T00:14:03.223Z</time>
      </trkpt>
      <trkpt lat="42.92078" lon="-0.98033">
        <ele>993.433055</ele>
        <time>2022-08-30T00:14:10.295Z</time>
      </trkpt>
      <trkpt lat="42.92076" lon="-0.98018">
        <ele>992.802198</ele>
        <time>2022-08-30T00:14:12.096Z</time>
      </trkpt>
      <trkpt lat="42.92084" lon="-0.97957">
        <ele>990.370014</ele>
        <time>2022-08-30T00:14:18.723Z</time>
      </trkpt>
      <trkpt lat="42.92081" lon="-0.97935">
        <ele>989.344732</ele>
        <time>2022-08-30T00:14:21.127Z</time>
      </trkpt>
      <trkpt lat="42.92058" lon="-0.97872">
        <ele>986.191372</ele>
        <time>2022-08-30T00:14:28.764Z</time>
      </trkpt>
      <trkpt lat="42.92034" lon="-0.9782">
        <ele>983.44646</ele>
        <time>2022-08-30T00:14:35.435Z</time>
      </trkpt>
      <trkpt lat="42.92029" lon="-0.97794">
        <ele>982.214225</ele>
        <time>2022-08-30T00:14:38.509Z</time>
      </trkpt>
      <trkpt lat="42.92033" lon="-0.97783">
        <ele>981.681913</ele>
        <time>2022-08-30T00:14:39.884Z</time>
      </trkpt>
      <trkpt lat="42.92051" lon="-0.97772">
        <ele>980.490189</ele>
        <time>2022-08-30T00:14:42.930Z</time>
      </trkpt>
      <trkpt lat="42.92139" lon="-0.97762">
        <ele>977.916072</ele>
        <time>2022-08-30T00:14:59.698Z</time>
      </trkpt>
      <trkpt lat="42.92207" lon="-0.97736">
        <ele>976.461764</ele>
        <time>2022-08-30T00:15:13.772Z</time>
      </trkpt>
      <trkpt lat="42.92215" lon="-0.97721">
        <ele>976.182334</ele>
        <time>2022-08-30T00:15:16.338Z</time>
      </trkpt>
      <trkpt lat="42.92212" lon="-0.97707">
        <ele>975.973231</ele>
        <time>2022-08-30T00:15:18.170Z</time>
      </trkpt>
      <trkpt lat="42.92199" lon="-0.97702">
        <ele>975.683163</ele>
        <time>2022-08-30T00:15:20.507Z</time>
      </trkpt>
      <trkpt lat="42.92144" lon="-0.97709">
        <ele>973.459456</ele>
        <time>2022-08-30T00:15:29.894Z</time>
      </trkpt>
      <trkpt lat="42.92046" lon="-0.97695">
        <ele>969.452999</ele>
        <time>2022-08-30T00:15:45.560Z</time>
      </trkpt>
      <trkpt lat="42.91949" lon="-0.97697">
        <ele>966.642879</ele>
        <time>2022-08-30T00:16:01.356Z</time>
      </trkpt>
      <trkpt lat="42.91851" lon="-0.97646">
        <ele>964.081558</ele>
        <time>2022-08-30T00:16:21.019Z</time>
      </trkpt>
      <trkpt lat="42.91838" lon="-0.9763">
        <ele>964.000372</ele>
        <time>2022-08-30T00:16:24.820Z</time>
      </trkpt>
      <trkpt lat="42.91833" lon="-0.97609">
        <ele>964.095081</ele>
        <time>2022-08-30T00:16:28.504Z</time>
      </trkpt>
      <trkpt lat="42.91824" lon="-0.9754">
        <ele>964.387148</ele>
        <time>2022-08-30T00:16:41.366Z</time>
      </trkpt>
      <trkpt lat="42.91827" lon="-0.97484">
        <ele>964.624502</ele>
        <time>2022-08-30T00:16:52.764Z</time>
      </trkpt>
      <trkpt lat="42.91823" lon="-0.9746">
        <ele>964.725145</ele>
        <time>2022-08-30T00:16:57.787Z</time>
      </trkpt>
      <trkpt lat="42.91814" lon="-0.97443">
        <ele>964.816178</ele>
        <time>2022-08-30T00:17:02.410Z</time>
      </trkpt>
      <trkpt lat="42.9177" lon="-0.97393">
        <ele>964.886614</ele>
        <time>2022-08-30T00:17:18.568Z</time>
      </trkpt>
      <trkpt lat="42.91739" lon="-0.9732">
        <ele>964.734505</ele>
        <time>2022-08-30T00:17:34.348Z</time>
      </trkpt>
      <trkpt lat="42.91705" lon="-0.97273">
        <ele>964.615465</ele>
        <time>2022-08-30T00:17:44.433Z</time>
      </trkpt>
      <trkpt lat="42.91673" lon="-0.97244">
        <ele>964.519818</ele>
        <time>2022-08-30T00:17:51.700Z</time>
      </trkpt>
      <trkpt lat="42.91614" lon="-0.97221">
        <ele>962.480218</ele>
        <time>2022-08-30T00:18:02.356Z</time>
      </trkpt>
      <trkpt lat="42.91491" lon="-0.97201">
        <ele>958.492307</ele>
        <time>2022-08-30T00:18:22.746Z</time>
      </trkpt>
      <trkpt lat="42.91423" lon="-0.97205">
        <ele>957.828284</ele>
        <time>2022-08-30T00:18:34.445Z</time>
      </trkpt>
      <trkpt lat="42.91398" lon="-0.97197">
        <ele>957.569661</ele>
        <time>2022-08-30T00:18:39.438Z</time>
      </trkpt>
      <trkpt lat="42.91254" lon="-0.96999">
        <ele>956.769662</ele>
        <time>2022-08-30T00:19:39.905Z</time>
      </trkpt>
      <trkpt lat="42.91186" lon="-0.96875">
        <ele>951.890878</ele>
        <time>2022-08-30T00:19:59.772Z</time>
      </trkpt>
      <trkpt lat="42.91149" lon="-0.96789">
        <ele>945.741604</ele>
        <time>2022-08-30T00:20:10.022Z</time>
      </trkpt>
      <trkpt lat="42.91127" lon="-0.96773">
        <ele>943.604254</ele>
        <time>2022-08-30T00:20:13.565Z</time>
      </trkpt>
      <trkpt lat="42.91072" lon="-0.96752">
        <ele>938.148318</ele>
        <time>2022-08-30T00:20:21.287Z</time>
      </trkpt>
      <trkpt lat="42.91027" lon="-0.96703">
        <ele>932.061592</ele>
        <time>2022-08-30T00:20:29.185Z</time>
      </trkpt>
      <trkpt lat="42.91011" lon="-0.96692">
        <ele>930.160732</ele>
        <time>2022-08-30T00:20:31.629Z</time>
      </trkpt>
      <trkpt lat="42.90957" lon="-0.96681">
        <ele>924.518621</ele>
        <time>2022-08-30T00:20:39.598Z</time>
      </trkpt>
      <trkpt lat="42.90936" lon="-0.96683">
        <ele>922.482747</ele>
        <time>2022-08-30T00:20:42.660Z</time>
      </trkpt>
      <trkpt lat="42.90881" lon="-0.96697">
        <ele>919.786783</ele>
        <time>2022-08-30T00:20:52.152Z</time>
      </trkpt>
      <trkpt lat="42.90849" lon="-0.96683">
        <ele>918.133808</ele>
        <time>2022-08-30T00:20:57.741Z</time>
      </trkpt>
      <trkpt lat="42.90818" lon="-0.96667">
        <ele>916.557081</ele>
        <time>2022-08-30T00:21:03.060Z</time>
      </trkpt>
      <trkpt lat="42.90807" lon="-0.96663">
        <ele>915.986823</ele>
        <time>2022-08-30T00:21:04.685Z</time>
      </trkpt>
      <trkpt lat="42.90782" lon="-0.96669">
        <ele>914.776419</ele>
        <time>2022-08-30T00:21:09.180Z</time>
      </trkpt>
      <trkpt lat="42.90749" lon="-0.96691">
        <ele>912.928733</ele>
        <time>2022-08-30T00:21:15.323Z</time>
      </trkpt>
      <trkpt lat="42.90715" lon="-0.96725">
        <ele>910.779662</ele>
        <time>2022-08-30T00:21:22.096Z</time>
      </trkpt>
      <trkpt lat="42.90671" lon="-0.96745">
        <ele>908.451751</ele>
        <time>2022-08-30T00:21:28.999Z</time>
      </trkpt>
      <trkpt lat="42.90637" lon="-0.96745">
        <ele>906.698945</ele>
        <time>2022-08-30T00:21:34.308Z</time>
      </trkpt>
      <trkpt lat="42.90609" lon="-0.96727">
        <ele>905.142024</ele>
        <time>2022-08-30T00:21:39.190Z</time>
      </trkpt>
      <trkpt lat="42.90589" lon="-0.96701">
        <ele>904.124447</ele>
        <time>2022-08-30T00:21:43.820Z</time>
      </trkpt>
      <trkpt lat="42.90579" lon="-0.96669">
        <ele>903.307104</ele>
        <time>2022-08-30T00:21:48.126Z</time>
      </trkpt>
      <trkpt lat="42.90559" lon="-0.96546">
        <ele>900.361517</ele>
        <time>2022-08-30T00:22:04.325Z</time>
      </trkpt>
      <trkpt lat="42.90541" lon="-0.96476">
        <ele>898.724399</ele>
        <time>2022-08-30T00:22:13.780Z</time>
      </trkpt>
      <trkpt lat="42.90538" lon="-0.96407">
        <ele>897.513996</ele>
        <time>2022-08-30T00:22:22.496Z</time>
      </trkpt>
      <trkpt lat="42.9053" lon="-0.96377">
        <ele>896.960919</ele>
        <time>2022-08-30T00:22:26.514Z</time>
      </trkpt>
      <trkpt lat="42.90513" lon="-0.96354">
        <ele>896.389482</ele>
        <time>2022-08-30T00:22:30.922Z</time>
      </trkpt>
      <trkpt lat="42.90473" lon="-0.96276">
        <ele>894.716162</ele>
        <time>2022-08-30T00:22:43.978Z</time>
      </trkpt>
      <trkpt lat="42.90457" lon="-0.96256">
        <ele>894.208039</ele>
        <time>2022-08-30T00:22:47.991Z</time>
      </trkpt>
      <trkpt lat="42.90412" lon="-0.96215">
        <ele>892.91186</ele>
        <time>2022-08-30T00:22:58.027Z</time>
      </trkpt>
      <trkpt lat="42.90383" lon="-0.96158">
        <ele>891.707626</ele>
        <time>2022-08-30T00:23:06.961Z</time>
      </trkpt>
      <trkpt lat="42.90354" lon="-0.96118">
        <ele>890.722381</ele>
        <time>2022-08-30T00:23:14.282Z</time>
      </trkpt>
      <trkpt lat="42.90301" lon="-0.96074">
        <ele>888.743849</ele>
        <time>2022-08-30T00:23:24.943Z</time>
      </trkpt>
      <trkpt lat="42.90196" lon="-0.95966">
        <ele>884.357785</ele>
        <time>2022-08-30T00:23:46.815Z</time>
      </trkpt>
      <trkpt lat="42.90169" lon="-0.95948">
        <ele>883.720477</ele>
        <time>2022-08-30T00:23:51.968Z</time>
      </trkpt>
      <trkpt lat="42.90089" lon="-0.9591">
        <ele>881.930654</ele>
        <time>2022-08-30T00:24:07.208Z</time>
      </trkpt>
      <trkpt lat="42.9005" lon="-0.95885">
        <ele>881.021158</ele>
        <time>2022-08-30T00:24:15.532Z</time>
      </trkpt>
      <trkpt lat="42.89986" lon="-0.95831">
        <ele>880.142556</ele>
        <time>2022-08-30T00:24:30.963Z</time>
      </trkpt>
      <trkpt lat="42.89968" lon="-0.95802">
        <ele>879.903205</ele>
        <time>2022-08-30T00:24:37.057Z</time>
      </trkpt>
      <trkpt lat="42.89918" lon="-0.95564">
        <ele>877.25836</ele>
        <time>2022-08-30T00:25:12.979Z</time>
      </trkpt>
      <trkpt lat="42.89904" lon="-0.95529">
        <ele>876.63342</ele>
        <time>2022-08-30T00:25:18.070Z</time>
      </trkpt>
      <trkpt lat="42.89865" lon="-0.95472">
        <ele>875.412546</ele>
        <time>2022-08-30T00:25:27.619Z</time>
      </trkpt>
      <trkpt lat="42.89768" lon="-0.95411">
        <ele>873.353279</ele>
        <time>2022-08-30T00:25:46.147Z</time>
      </trkpt>
      <trkpt lat="42.89746" lon="-0.9539">
        <ele>872.845289</ele>
        <time>2022-08-30T00:25:51.723Z</time>
      </trkpt>
      <trkpt lat="42.89733" lon="-0.95372">
        <ele>872.486097</ele>
        <time>2022-08-30T00:25:56.154Z</time>
      </trkpt>
      <trkpt lat="42.89725" lon="-0.95349">
        <ele>872.133877</ele>
        <time>2022-08-30T00:25:59.772Z</time>
      </trkpt>
      <trkpt lat="42.89722" lon="-0.95335">
        <ele>871.924755</ele>
        <time>2022-08-30T00:26:02.557Z</time>
      </trkpt>
      <trkpt lat="42.8972" lon="-0.95316">
        <ele>871.755017</ele>
        <time>2022-08-30T00:26:05.310Z</time>
      </trkpt>
      <trkpt lat="42.897" lon="-0.95264">
        <ele>871.499907</ele>
        <time>2022-08-30T00:26:13.889Z</time>
      </trkpt>
      <trkpt lat="42.89659" lon="-0.95222">
        <ele>871.195758</ele>
        <time>2022-08-30T00:26:24.767Z</time>
      </trkpt>
      <trkpt lat="42.89604" lon="-0.95169">
        <ele>870.789949</ele>
        <time>2022-08-30T00:26:40.514Z</time>
      </trkpt>
      <trkpt lat="42.89581" lon="-0.95137">
        <ele>870.11326</ele>
        <time>2022-08-30T00:26:46.956Z</time>
      </trkpt>
      <trkpt lat="42.89537" lon="-0.95051">
        <ele>868.03481</ele>
        <time>2022-08-30T00:26:59.764Z</time>
      </trkpt>
      <trkpt lat="42.89507" lon="-0.94963">
        <ele>866.084465</ele>
        <time>2022-08-30T00:27:12.006Z</time>
      </trkpt>
      <trkpt lat="42.89462" lon="-0.94832">
        <ele>863.930968</ele>
        <time>2022-08-30T00:27:30.866Z</time>
      </trkpt>
      <trkpt lat="42.89379" lon="-0.94667">
        <ele>861.932448</ele>
        <time>2022-08-30T00:27:59.111Z</time>
      </trkpt>
      <trkpt lat="42.89375" lon="-0.94628">
        <ele>861.7761</ele>
        <time>2022-08-30T00:28:05.106Z</time>
      </trkpt>
      <trkpt lat="42.89375" lon="-0.94481">
        <ele>861.844776</ele>
        <time>2022-08-30T00:28:28.058Z</time>
      </trkpt>
      <trkpt lat="42.89322" lon="-0.94332">
        <ele>865.250807</ele>
        <time>2022-08-30T00:29:08.264Z</time>
      </trkpt>
      <trkpt lat="42.89316" lon="-0.94289">
        <ele>866.161613</ele>
        <time>2022-08-30T00:29:25.565Z</time>
      </trkpt>
      <trkpt lat="42.89321" lon="-0.94261">
        <ele>867.091311</ele>
        <time>2022-08-30T00:29:37.200Z</time>
      </trkpt>
      <trkpt lat="42.89356" lon="-0.94141">
        <ele>872.111713</ele>
        <time>2022-08-30T00:30:27.670Z</time>
      </trkpt>
      <trkpt lat="42.89368" lon="-0.94091">
        <ele>874.187132</ele>
        <time>2022-08-30T00:30:47.902Z</time>
      </trkpt>
      <trkpt lat="42.89362" lon="-0.94059">
        <ele>875.447142</ele>
        <time>2022-08-30T00:30:58.586Z</time>
      </trkpt>
      <trkpt lat="42.89344" lon="-0.94037">
        <ele>875.655322</ele>
        <time>2022-08-30T00:31:08.772Z</time>
      </trkpt>
      <trkpt lat="42.89263" lon="-0.93977">
        <ele>874.305171</ele>
        <time>2022-08-30T00:31:34.203Z</time>
      </trkpt>
      <trkpt lat="42.89228" lon="-0.93956">
        <ele>873.736841</ele>
        <time>2022-08-30T00:31:40.073Z</time>
      </trkpt>
      <trkpt lat="42.89155" lon="-0.93938">
        <ele>872.473134</ele>
        <time>2022-08-30T00:31:51.127Z</time>
      </trkpt>
      <trkpt lat="42.89129" lon="-0.9394">
        <ele>871.990129</ele>
        <time>2022-08-30T00:31:55.292Z</time>
      </trkpt>
      <trkpt lat="42.89093" lon="-0.9396">
        <ele>871.268301</ele>
        <time>2022-08-30T00:32:02.280Z</time>
      </trkpt>
      <trkpt lat="42.89066" lon="-0.93969">
        <ele>870.743411</ele>
        <time>2022-08-30T00:32:11.139Z</time>
      </trkpt>
      <trkpt lat="42.89034" lon="-0.93969">
        <ele>870.142708</ele>
        <time>2022-08-30T00:32:23.285Z</time>
      </trkpt>
      <trkpt lat="42.89012" lon="-0.93953">
        <ele>869.867201</ele>
        <time>2022-08-30T00:32:31.741Z</time>
      </trkpt>
      <trkpt lat="42.88995" lon="-0.93923">
        <ele>869.878202</ele>
        <time>2022-08-30T00:32:41.680Z</time>
      </trkpt>
      <trkpt lat="42.88984" lon="-0.93889">
        <ele>869.8887</ele>
        <time>2022-08-30T00:32:49.093Z</time>
      </trkpt>
      <trkpt lat="42.88962" lon="-0.9385">
        <ele>869.902846</ele>
        <time>2022-08-30T00:33:00.532Z</time>
      </trkpt>
      <trkpt lat="42.8894" lon="-0.93835">
        <ele>869.912538</ele>
        <time>2022-08-30T00:33:08.195Z</time>
      </trkpt>
      <trkpt lat="42.88922" lon="-0.93832">
        <ele>869.919458</ele>
        <time>2022-08-30T00:33:13.233Z</time>
      </trkpt>
      <trkpt lat="42.88889" lon="-0.93848">
        <ele>869.933414</ele>
        <time>2022-08-30T00:33:20.410Z</time>
      </trkpt>
      <trkpt lat="42.88799" lon="-0.93985">
        <ele>858.089206</ele>
        <time>2022-08-30T00:33:39.374Z</time>
      </trkpt>
      <trkpt lat="42.88778" lon="-0.94052">
        <ele>853.740495</ele>
        <time>2022-08-30T00:33:46.797Z</time>
      </trkpt>
      <trkpt lat="42.88768" lon="-0.94068">
        <ele>853.166662</ele>
        <time>2022-08-30T00:33:49.063Z</time>
      </trkpt>
      <trkpt lat="42.88733" lon="-0.9408">
        <ele>851.805959</ele>
        <time>2022-08-30T00:33:54.483Z</time>
      </trkpt>
      <trkpt lat="42.88674" lon="-0.94079">
        <ele>849.541012</ele>
        <time>2022-08-30T00:34:04.336Z</time>
      </trkpt>
      <trkpt lat="42.88638" lon="-0.94058">
        <ele>848.087257</ele>
        <time>2022-08-30T00:34:12.711Z</time>
      </trkpt>
      <trkpt lat="42.88614" lon="-0.94022">
        <ele>847.483757</ele>
        <time>2022-08-30T00:34:24.866Z</time>
      </trkpt>
      <trkpt lat="42.88595" lon="-0.93924">
        <ele>849.141448</ele>
        <time>2022-08-30T00:34:48.700Z</time>
      </trkpt>
      <trkpt lat="42.88586" lon="-0.93903">
        <ele>849.532447</ele>
        <time>2022-08-30T00:34:54.035Z</time>
      </trkpt>
      <trkpt lat="42.88496" lon="-0.93821">
        <ele>852.115931</ele>
        <time>2022-08-30T00:35:33.514Z</time>
      </trkpt>
      <trkpt lat="42.8847" lon="-0.93775">
        <ele>853.315015</ele>
        <time>2022-08-30T00:35:52.456Z</time>
      </trkpt>
      <trkpt lat="42.88408" lon="-0.93621">
        <ele>855.087791</ele>
        <time>2022-08-30T00:36:38.438Z</time>
      </trkpt>
      <trkpt lat="42.88387" lon="-0.93585">
        <ele>853.510898</ele>
        <time>2022-08-30T00:36:45.223Z</time>
      </trkpt>
      <trkpt lat="42.88364" lon="-0.93564">
        <ele>852.198238</ele>
        <time>2022-08-30T00:36:50.042Z</time>
      </trkpt>
      <trkpt lat="42.88217" lon="-0.93482">
        <ele>841.433574</ele>
        <time>2022-08-30T00:37:13.060Z</time>
      </trkpt>
      <trkpt lat="42.88195" lon="-0.93461">
        <ele>838.884447</ele>
        <time>2022-08-30T00:37:16.700Z</time>
      </trkpt>
      <trkpt lat="42.88136" lon="-0.93386">
        <ele>831.132863</ele>
        <time>2022-08-30T00:37:28.080Z</time>
      </trkpt>
      <trkpt lat="42.88086" lon="-0.93342">
        <ele>829.915302</ele>
        <time>2022-08-30T00:37:36.848Z</time>
      </trkpt>
      <trkpt lat="42.8804" lon="-0.93316">
        <ele>829.469895</ele>
        <time>2022-08-30T00:37:45.412Z</time>
      </trkpt>
      <trkpt lat="42.8802" lon="-0.93289">
        <ele>829.219316</ele>
        <time>2022-08-30T00:37:54.894Z</time>
      </trkpt>
      <trkpt lat="42.87985" lon="-0.93196">
        <ele>831.040044</ele>
        <time>2022-08-30T00:38:38.889Z</time>
      </trkpt>
      <trkpt lat="42.87937" lon="-0.93078">
        <ele>839.452526</ele>
        <time>2022-08-30T00:39:47.757Z</time>
      </trkpt>
      <trkpt lat="42.87923" lon="-0.93058">
        <ele>841.18571</ele>
        <time>2022-08-30T00:40:01.282Z</time>
      </trkpt>
      <trkpt lat="42.87894" lon="-0.93033">
        <ele>844.077111</ele>
        <time>2022-08-30T00:40:25.183Z</time>
      </trkpt>
      <trkpt lat="42.87854" lon="-0.93012">
        <ele>845.145467</ele>
        <time>2022-08-30T00:40:53.070Z</time>
      </trkpt>
      <trkpt lat="42.87807" lon="-0.93">
        <ele>846.328658</ele>
        <time>2022-08-30T00:41:13.412Z</time>
      </trkpt>
      <trkpt lat="42.87685" lon="-0.929">
        <ele>847.029496</ele>
        <time>2022-08-30T00:41:40.086Z</time>
      </trkpt>
      <trkpt lat="42.87639" lon="-0.92872">
        <ele>845.598773</ele>
        <time>2022-08-30T00:41:49.042Z</time>
      </trkpt>
      <trkpt lat="42.87565" lon="-0.92843">
        <ele>843.371323</ele>
        <time>2022-08-30T00:42:01.984Z</time>
      </trkpt>
      <trkpt lat="42.87508" lon="-0.92791">
        <ele>839.224758</ele>
        <time>2022-08-30T00:42:12.803Z</time>
      </trkpt>
      <trkpt lat="42.87479" lon="-0.92771">
        <ele>837.199557</ele>
        <time>2022-08-30T00:42:18.030Z</time>
      </trkpt>
      <trkpt lat="42.87458" lon="-0.92764">
        <ele>835.92373</ele>
        <time>2022-08-30T00:42:21.218Z</time>
      </trkpt>
      <trkpt lat="42.87383" lon="-0.92772">
        <ele>831.268775</ele>
        <time>2022-08-30T00:42:32.292Z</time>
      </trkpt>
      <trkpt lat="42.87339" lon="-0.9277">
        <ele>828.413208</ele>
        <time>2022-08-30T00:42:38.570Z</time>
      </trkpt>
      <trkpt lat="42.87253" lon="-0.92758">
        <ele>822.732363</ele>
        <time>2022-08-30T00:42:51.687Z</time>
      </trkpt>
      <trkpt lat="42.87201" lon="-0.92742">
        <ele>820.41468</ele>
        <time>2022-08-30T00:43:00.578Z</time>
      </trkpt>
      <trkpt lat="42.87136" lon="-0.92695">
        <ele>819.314405</ele>
        <time>2022-08-30T00:43:16.188Z</time>
      </trkpt>
      <trkpt lat="42.87045" lon="-0.9257">
        <ele>815.707725</ele>
        <time>2022-08-30T00:43:41.960Z</time>
      </trkpt>
      <trkpt lat="42.87026" lon="-0.9255">
        <ele>814.466837</ele>
        <time>2022-08-30T00:43:46.239Z</time>
      </trkpt>
      <trkpt lat="42.86996" lon="-0.92543">
        <ele>812.883237</ele>
        <time>2022-08-30T00:43:51.285Z</time>
      </trkpt>
      <trkpt lat="42.86967" lon="-0.92548">
        <ele>811.371371</ele>
        <time>2022-08-30T00:43:55.688Z</time>
      </trkpt>
      <trkpt lat="42.86948" lon="-0.92559">
        <ele>810.293854</ele>
        <time>2022-08-30T00:43:58.683Z</time>
      </trkpt>
      <trkpt lat="42.86875" lon="-0.92623">
        <ele>804.267401</ele>
        <time>2022-08-30T00:44:10.914Z</time>
      </trkpt>
      <trkpt lat="42.86828" lon="-0.92638">
        <ele>800.44792</ele>
        <time>2022-08-30T00:44:17.864Z</time>
      </trkpt>
      <trkpt lat="42.86722" lon="-0.92653">
        <ele>793.728978</ele>
        <time>2022-08-30T00:44:34.239Z</time>
      </trkpt>
      <trkpt lat="42.86639" lon="-0.92638">
        <ele>791.604505</ele>
        <time>2022-08-30T00:44:49.422Z</time>
      </trkpt>
      <trkpt lat="42.8662" lon="-0.92629">
        <ele>791.066044</ele>
        <time>2022-08-30T00:44:53.723Z</time>
      </trkpt>
      <trkpt lat="42.86607" lon="-0.92614">
        <ele>790.652553</ele>
        <time>2022-08-30T00:44:56.973Z</time>
      </trkpt>
      <trkpt lat="42.86585" lon="-0.92562">
        <ele>789.756293</ele>
        <time>2022-08-30T00:45:06.027Z</time>
      </trkpt>
      <trkpt lat="42.86498" lon="-0.92362">
        <ele>787.977907</ele>
        <time>2022-08-30T00:45:39.042Z</time>
      </trkpt>
      <trkpt lat="42.86478" lon="-0.92339">
        <ele>788.253373</ele>
        <time>2022-08-30T00:45:44.280Z</time>
      </trkpt>
      <trkpt lat="42.86433" lon="-0.92307">
        <ele>788.797826</ele>
        <time>2022-08-30T00:45:56.129Z</time>
      </trkpt>
      <trkpt lat="42.86411" lon="-0.92271">
        <ele>789.169379</ele>
        <time>2022-08-30T00:46:05.950Z</time>
      </trkpt>
      <trkpt lat="42.8641" lon="-0.92267">
        <ele>789.198841</ele>
        <time>2022-08-30T00:46:06.841Z</time>
      </trkpt>
      <trkpt lat="42.864" lon="-0.92254">
        <ele>789.343203</ele>
        <time>2022-08-30T00:46:11.024Z</time>
      </trkpt>
      <trkpt lat="42.86393" lon="-0.92243">
        <ele>789.46151</ele>
        <time>2022-08-30T00:46:14.927Z</time>
      </trkpt>
      <trkpt lat="42.86367" lon="-0.92201">
        <ele>790.127695</ele>
        <time>2022-08-30T00:46:30.098Z</time>
      </trkpt>
      <trkpt lat="42.86386" lon="-0.92083">
        <ele>794.071439</ele>
        <time>2022-08-30T00:47:06.578Z</time>
      </trkpt>
      <trkpt lat="42.86385" lon="-0.92069">
        <ele>794.522787</ele>
        <time>2022-08-30T00:47:11.216Z</time>
      </trkpt>
      <trkpt lat="42.86377" lon="-0.92065">
        <ele>794.897292</ele>
        <time>2022-08-30T00:47:16.397Z</time>
      </trkpt>
      <trkpt lat="42.8637" lon="-0.9207">
        <ele>795.267866</ele>
        <time>2022-08-30T00:47:20.407Z</time>
      </trkpt>
      <trkpt lat="42.86358" lon="-0.92131">
        <ele>797.321949</ele>
        <time>2022-08-30T00:47:43.096Z</time>
      </trkpt>
      <trkpt lat="42.86352" lon="-0.92144">
        <ele>797.83542</ele>
        <time>2022-08-30T00:47:48.553Z</time>
      </trkpt>
      <trkpt lat="42.86328" lon="-0.92158">
        <ele>799.105887</ele>
        <time>2022-08-30T00:48:00.937Z</time>
      </trkpt>
      <trkpt lat="42.86275" lon="-0.92173">
        <ele>801.744795</ele>
        <time>2022-08-30T00:48:29.540Z</time>
      </trkpt>
      <trkpt lat="42.86256" lon="-0.92195">
        <ele>802.95336</ele>
        <time>2022-08-30T00:48:43.504Z</time>
      </trkpt>
      <trkpt lat="42.86233" lon="-0.92218">
        <ele>804.36978</ele>
        <time>2022-08-30T00:48:59.282Z</time>
      </trkpt>
      <trkpt lat="42.86204" lon="-0.9225">
        <ele>806.22268</ele>
        <time>2022-08-30T00:49:14.489Z</time>
      </trkpt>
      <trkpt lat="42.86195" lon="-0.9226">
        <ele>806.557869</ele>
        <time>2022-08-30T00:49:17.557Z</time>
      </trkpt>
      <trkpt lat="42.86157" lon="-0.92261">
        <ele>805.170345</ele>
        <time>2022-08-30T00:49:30.889Z</time>
      </trkpt>
      <trkpt lat="42.86137" lon="-0.92257">
        <ele>804.441187</ele>
        <time>2022-08-30T00:49:34.103Z</time>
      </trkpt>
      <trkpt lat="42.86108" lon="-0.92253">
        <ele>803.350187</ele>
        <time>2022-08-30T00:49:38.925Z</time>
      </trkpt>
      <trkpt lat="42.86098" lon="-0.92261">
        <ele>802.934541</ele>
        <time>2022-08-30T00:49:40.741Z</time>
      </trkpt>
      <trkpt lat="42.86092" lon="-0.92273">
        <ele>802.527645</ele>
        <time>2022-08-30T00:49:42.540Z</time>
      </trkpt>
      <trkpt lat="42.86087" lon="-0.9227">
        <ele>802.326591</ele>
        <time>2022-08-30T00:49:43.420Z</time>
      </trkpt>
      <trkpt lat="42.86077" lon="-0.92266">
        <ele>801.94384</ele>
        <time>2022-08-30T00:49:44.979Z</time>
      </trkpt>
      <trkpt lat="42.86052" lon="-0.92274">
        <ele>801.004463</ele>
        <time>2022-08-30T00:49:49.165Z</time>
      </trkpt>
      <trkpt lat="42.86046" lon="-0.92277">
        <ele>800.778941</ele>
        <time>2022-08-30T00:49:50.070Z</time>
      </trkpt>
      <trkpt lat="42.86045" lon="-0.92286">
        <ele>800.541982</ele>
        <time>2022-08-30T00:49:51.042Z</time>
      </trkpt>
      <trkpt lat="42.86026" lon="-0.92288">
        <ele>799.701301</ele>
        <time>2022-08-30T00:49:54.203Z</time>
      </trkpt>
      <trkpt lat="42.86023" lon="-0.92296">
        <ele>799.279859</ele>
        <time>2022-08-30T00:49:55.149Z</time>
      </trkpt>
      <trkpt lat="42.86012" lon="-0.92306">
        <ele>798.403649</ele>
        <time>2022-08-30T00:49:57.147Z</time>
      </trkpt>
      <trkpt lat="42.85967" lon="-0.92324">
        <ele>795.37987</ele>
        <time>2022-08-30T00:50:04.218Z</time>
      </trkpt>
      <trkpt lat="42.85918" lon="-0.92274">
        <ele>791.437837</ele>
        <time>2022-08-30T00:50:13.660Z</time>
      </trkpt>
      <trkpt lat="42.8592" lon="-0.92259">
        <ele>790.683174</ele>
        <time>2022-08-30T00:50:17.754Z</time>
      </trkpt>
      <trkpt lat="42.85908" lon="-0.92244">
        <ele>789.625936</ele>
        <time>2022-08-30T00:50:22.195Z</time>
      </trkpt>
      <trkpt lat="42.85904" lon="-0.9223">
        <ele>788.912068</ele>
        <time>2022-08-30T00:50:25.277Z</time>
      </trkpt>
      <trkpt lat="42.85868" lon="-0.92227">
        <ele>788.636312</ele>
        <time>2022-08-30T00:50:37.762Z</time>
      </trkpt>
      <trkpt lat="42.85859" lon="-0.92232">
        <ele>788.719795</ele>
        <time>2022-08-30T00:50:42.437Z</time>
      </trkpt>
      <trkpt lat="42.85855" lon="-0.92161">
        <ele>789.142849</ele>
        <time>2022-08-30T00:50:58.188Z</time>
      </trkpt>
      <trkpt lat="42.85829" lon="-0.92053">
        <ele>789.815833</ele>
        <time>2022-08-30T00:51:27.358Z</time>
      </trkpt>
      <trkpt lat="42.85841" lon="-0.92002">
        <ele>790.865305</ele>
        <time>2022-08-30T00:51:43.711Z</time>
      </trkpt>
      <trkpt lat="42.85876" lon="-0.91919">
        <ele>792.994715</ele>
        <time>2022-08-30T00:52:10.134Z</time>
      </trkpt>
      <trkpt lat="42.85883" lon="-0.91869">
        <ele>794.130068</ele>
        <time>2022-08-30T00:52:24.917Z</time>
      </trkpt>
      <trkpt lat="42.85884" lon="-0.91838">
        <ele>794.825224</ele>
        <time>2022-08-30T00:52:34.902Z</time>
      </trkpt>
      <trkpt lat="42.85869" lon="-0.91767">
        <ele>797.026069</ele>
        <time>2022-08-30T00:52:58.050Z</time>
      </trkpt>
      <trkpt lat="42.85861" lon="-0.91654">
        <ele>800.830139</ele>
        <time>2022-08-30T00:53:38.491Z</time>
      </trkpt>
      <trkpt lat="42.85867" lon="-0.91582">
        <ele>803.247683</ele>
        <time>2022-08-30T00:54:04.744Z</time>
      </trkpt>
      <trkpt lat="42.85914" lon="-0.91497">
        <ele>807.537773</ele>
        <time>2022-08-30T00:54:44.716Z</time>
      </trkpt>
      <trkpt lat="42.8593" lon="-0.9143">
        <ele>810.414548</ele>
        <time>2022-08-30T00:55:11.183Z</time>
      </trkpt>
      <trkpt lat="42.85961" lon="-0.91255">
        <ele>819.075857</ele>
        <time>2022-08-30T00:56:24.687Z</time>
      </trkpt>
      <trkpt lat="42.85973" lon="-0.91235">
        <ele>820.529797</ele>
        <time>2022-08-30T00:56:37.940Z</time>
      </trkpt>
      <trkpt lat="42.86045" lon="-0.91184">
        <ele>826.4454</ele>
        <time>2022-08-30T00:57:29.461Z</time>
      </trkpt>
      <trkpt lat="42.86071" lon="-0.91158">
        <ele>829.123965</ele>
        <time>2022-08-30T00:57:55.193Z</time>
      </trkpt>
      <trkpt lat="42.8608" lon="-0.91135">
        <ele>830.804262</ele>
        <time>2022-08-30T00:58:10.519Z</time>
      </trkpt>
      <trkpt lat="42.86082" lon="-0.90986">
        <ele>840.166969</ele>
        <time>2022-08-30T00:59:42.813Z</time>
      </trkpt>
      <trkpt lat="42.86094" lon="-0.90883">
        <ele>846.030732</ele>
        <time>2022-08-30T01:00:37.343Z</time>
      </trkpt>
      <trkpt lat="42.86099" lon="-0.90708">
        <ele>855.299906</ele>
        <time>2022-08-30T01:02:10.938Z</time>
      </trkpt>
      <trkpt lat="42.86117" lon="-0.90451">
        <ele>868.379806</ele>
        <time>2022-08-30T01:04:28.979Z</time>
      </trkpt>
      <trkpt lat="42.86126" lon="-0.90411">
        <ele>869.895268</ele>
        <time>2022-08-30T01:04:49.098Z</time>
      </trkpt>
      <trkpt lat="42.86151" lon="-0.90343">
        <ele>872.650325</ele>
        <time>2022-08-30T01:05:25.685Z</time>
      </trkpt>
      <trkpt lat="42.86158" lon="-0.90296">
        <ele>874.381516</ele>
        <time>2022-08-30T01:05:46.698Z</time>
      </trkpt>
      <trkpt lat="42.86161" lon="-0.90232">
        <ele>876.703301</ele>
        <time>2022-08-30T01:06:11.968Z</time>
      </trkpt>
      <trkpt lat="42.86163" lon="-0.90201">
        <ele>877.348495</ele>
        <time>2022-08-30T01:06:23.343Z</time>
      </trkpt>
      <trkpt lat="42.86169" lon="-0.9019">
        <ele>877.623027</ele>
        <time>2022-08-30T01:06:28.386Z</time>
      </trkpt>
      <trkpt lat="42.86197" lon="-0.90153">
        <ele>878.71095</ele>
        <time>2022-08-30T01:06:47.399Z</time>
      </trkpt>
      <trkpt lat="42.86237" lon="-0.90085">
        <ele>880.505556</ele>
        <time>2022-08-30T01:07:19.866Z</time>
      </trkpt>
      <trkpt lat="42.86284" lon="-0.89956">
        <ele>887.08988</ele>
        <time>2022-08-30T01:08:13.892Z</time>
      </trkpt>
      <trkpt lat="42.86294" lon="-0.89934">
        <ele>888.779652</ele>
        <time>2022-08-30T01:08:23.813Z</time>
      </trkpt>
      <trkpt lat="42.86333" lon="-0.89892">
        <ele>893.120846</ele>
        <time>2022-08-30T01:09:11.432Z</time>
      </trkpt>
      <trkpt lat="42.8635" lon="-0.89864">
        <ele>895.530225</ele>
        <time>2022-08-30T01:09:44.200Z</time>
      </trkpt>
      <trkpt lat="42.8639" lon="-0.89763">
        <ele>905.507111</ele>
        <time>2022-08-30T01:11:14.318Z</time>
      </trkpt>
      <trkpt lat="42.8641" lon="-0.89734">
        <ele>909.289196</ele>
        <time>2022-08-30T01:11:48.575Z</time>
      </trkpt>
      <trkpt lat="42.86431" lon="-0.89669">
        <ele>916.11531</ele>
        <time>2022-08-30T01:12:38.238Z</time>
      </trkpt>
      <trkpt lat="42.86442" lon="-0.89655">
        <ele>918.094292</ele>
        <time>2022-08-30T01:12:55.098Z</time>
      </trkpt>
      <trkpt lat="42.86495" lon="-0.89612">
        <ele>923.010041</ele>
        <time>2022-08-30T01:13:53.956Z</time>
      </trkpt>
      <trkpt lat="42.86554" lon="-0.89628">
        <ele>926.034996</ele>
        <time>2022-08-30T01:14:28.937Z</time>
      </trkpt>
      <trkpt lat="42.8658" lon="-0.89663">
        <ele>927.860003</ele>
        <time>2022-08-30T01:14:43.593Z</time>
      </trkpt>
      <trkpt lat="42.8659" lon="-0.89668">
        <ele>928.414028</ele>
        <time>2022-08-30T01:14:48.466Z</time>
      </trkpt>
      <trkpt lat="42.86629" lon="-0.89659">
        <ele>930.311022</ele>
        <time>2022-08-30T01:15:06.019Z</time>
      </trkpt>
      <trkpt lat="42.86702" lon="-0.89655">
        <ele>933.365149</ele>
        <time>2022-08-30T01:15:44.438Z</time>
      </trkpt>
      <trkpt lat="42.86741" lon="-0.89665">
        <ele>935.027162</ele>
        <time>2022-08-30T01:16:09.129Z</time>
      </trkpt>
      <trkpt lat="42.86758" lon="-0.89663">
        <ele>935.746275</ele>
        <time>2022-08-30T01:16:20.109Z</time>
      </trkpt>
      <trkpt lat="42.86799" lon="-0.89633">
        <ele>937.781423</ele>
        <time>2022-08-30T01:16:51.175Z</time>
      </trkpt>
      <trkpt lat="42.86817" lon="-0.89612">
        <ele>939.441629</ele>
        <time>2022-08-30T01:17:05.961Z</time>
      </trkpt>
      <trkpt lat="42.86868" lon="-0.8952">
        <ele>945.441569</ele>
        <time>2022-08-30T01:18:04.119Z</time>
      </trkpt>
      <trkpt lat="42.86928" lon="-0.89457">
        <ele>951.116128</ele>
        <time>2022-08-30T01:19:02.784Z</time>
      </trkpt>
      <trkpt lat="42.86934" lon="-0.89443">
        <ele>952.387544</ele>
        <time>2022-08-30T01:19:12.371Z</time>
      </trkpt>
      <trkpt lat="42.86952" lon="-0.89298">
        <ele>964.41999</ele>
        <time>2022-08-30T01:20:52.307Z</time>
      </trkpt>
      <trkpt lat="42.86961" lon="-0.89266">
        <ele>967.275845</ele>
        <time>2022-08-30T01:21:17.006Z</time>
      </trkpt>
      <trkpt lat="42.86994" lon="-0.89194">
        <ele>974.230678</ele>
        <time>2022-08-30T01:22:21.412Z</time>
      </trkpt>
      <trkpt lat="42.87029" lon="-0.89148">
        <ele>979.58769</ele>
        <time>2022-08-30T01:23:13.877Z</time>
      </trkpt>
      <trkpt lat="42.87053" lon="-0.89073">
        <ele>986.243526</ele>
        <time>2022-08-30T01:24:10.616Z</time>
      </trkpt>
      <trkpt lat="42.8709" lon="-0.88998">
        <ele>991.971262</ele>
        <time>2022-08-30T01:24:57.517Z</time>
      </trkpt>
      <trkpt lat="42.87106" lon="-0.88974">
        <ele>993.260641</ele>
        <time>2022-08-30T01:25:12.323Z</time>
      </trkpt>
      <trkpt lat="42.87117" lon="-0.88948">
        <ele>994.413085</ele>
        <time>2022-08-30T01:25:26.843Z</time>
      </trkpt>
      <trkpt lat="42.87126" lon="-0.8891">
        <ele>995.94506</ele>
        <time>2022-08-30T01:25:46.644Z</time>
      </trkpt>
      <trkpt lat="42.87137" lon="-0.88824">
        <ele>999.34296</ele>
        <time>2022-08-30T01:26:25.114Z</time>
      </trkpt>
      <trkpt lat="42.87146" lon="-0.88804">
        <ele>1000.135918</ele>
        <time>2022-08-30T01:26:33.484Z</time>
      </trkpt>
      <trkpt lat="42.87198" lon="-0.8873">
        <ele>1002.321205</ele>
        <time>2022-08-30T01:27:09.897Z</time>
      </trkpt>
      <trkpt lat="42.87272" lon="-0.8858">
        <ele>1006.21438</ele>
        <time>2022-08-30T01:28:19.264Z</time>
      </trkpt>
      <trkpt lat="42.87306" lon="-0.88449">
        <ele>1009.346959</ele>
        <time>2022-08-30T01:29:08.914Z</time>
      </trkpt>
      <trkpt lat="42.87333" lon="-0.88392">
        <ele>1010.970264</ele>
        <time>2022-08-30T01:29:37.789Z</time>
      </trkpt>
      <trkpt lat="42.87349" lon="-0.88373">
        <ele>1012.049825</ele>
        <time>2022-08-30T01:29:50.218Z</time>
      </trkpt>
      <trkpt lat="42.87402" lon="-0.88352">
        <ele>1014.8223</ele>
        <time>2022-08-30T01:30:25.267Z</time>
      </trkpt>
      <trkpt lat="42.87427" lon="-0.88352">
        <ele>1016.065709</ele>
        <time>2022-08-30T01:30:40.524Z</time>
      </trkpt>
      <trkpt lat="42.87488" lon="-0.88335">
        <ele>1019.22696</ele>
        <time>2022-08-30T01:31:22.052Z</time>
      </trkpt>
      <trkpt lat="42.87499" lon="-0.88328">
        <ele>1019.827309</ele>
        <time>2022-08-30T01:31:30.267Z</time>
      </trkpt>
      <trkpt lat="42.87527" lon="-0.88285">
        <ele>1021.019524</ele>
        <time>2022-08-30T01:31:56.971Z</time>
      </trkpt>
      <trkpt lat="42.87566" lon="-0.88172">
        <ele>1023.60433</ele>
        <time>2022-08-30T01:32:40.394Z</time>
      </trkpt>
      <trkpt lat="42.87578" lon="-0.8812">
        <ele>1024.722548</ele>
        <time>2022-08-30T01:32:55.968Z</time>
      </trkpt>
      <trkpt lat="42.87574" lon="-0.88049">
        <ele>1026.229915</ele>
        <time>2022-08-30T01:33:20.303Z</time>
      </trkpt>
      <trkpt lat="42.87581" lon="-0.88002">
        <ele>1027.243014</ele>
        <time>2022-08-30T01:33:40.162Z</time>
      </trkpt>
      <trkpt lat="42.87597" lon="-0.87996">
        <ele>1027.718821</ele>
        <time>2022-08-30T01:33:48.496Z</time>
      </trkpt>
      <trkpt lat="42.87622" lon="-0.87966">
        <ele>1028.660872</ele>
        <time>2022-08-30T01:34:06.147Z</time>
      </trkpt>
      <trkpt lat="42.87638" lon="-0.87914">
        <ele>1029.854869</ele>
        <time>2022-08-30T01:34:28.374Z</time>
      </trkpt>
      <trkpt lat="42.8765" lon="-0.87871">
        <ele>1031.229745</ele>
        <time>2022-08-30T01:34:45.979Z</time>
      </trkpt>
      <trkpt lat="42.87657" lon="-0.87866">
        <ele>1031.545504</ele>
        <time>2022-08-30T01:34:51.575Z</time>
      </trkpt>
      <trkpt lat="42.87668" lon="-0.87802">
        <ele>1033.632291</ele>
        <time>2022-08-30T01:35:11.287Z</time>
      </trkpt>
      <trkpt lat="42.87713" lon="-0.87661">
        <ele>1038.339177</ele>
        <time>2022-08-30T01:36:06.139Z</time>
      </trkpt>
      <trkpt lat="42.87733" lon="-0.87587">
        <ele>1040.054141</ele>
        <time>2022-08-30T01:36:27.762Z</time>
      </trkpt>
      <trkpt lat="42.8774" lon="-0.8753">
        <ele>1041.313147</ele>
        <time>2022-08-30T01:36:44.264Z</time>
      </trkpt>
      <trkpt lat="42.87773" lon="-0.87161">
        <ele>1045.871045</ele>
        <time>2022-08-30T01:38:07.297Z</time>
      </trkpt>
      <trkpt lat="42.87773" lon="-0.87118">
        <ele>1045.736564</ele>
        <time>2022-08-30T01:38:13.902Z</time>
      </trkpt>
      <trkpt lat="42.87756" lon="-0.87016">
        <ele>1045.415897</ele>
        <time>2022-08-30T01:38:29.006Z</time>
      </trkpt>
      <trkpt lat="42.87687" lon="-0.8667">
        <ele>1043.797011</ele>
        <time>2022-08-30T01:39:20.968Z</time>
      </trkpt>
      <trkpt lat="42.8768" lon="-0.86554">
        <ele>1044.531982</ele>
        <time>2022-08-30T01:39:44.039Z</time>
      </trkpt>
      <trkpt lat="42.87679" lon="-0.86207">
        <ele>1049.625153</ele>
        <time>2022-08-30T01:41:09.604Z</time>
      </trkpt>
      <trkpt lat="42.87634" lon="-0.85855">
        <ele>1056.509912</ele>
        <time>2022-08-30T01:42:43.433Z</time>
      </trkpt>
      <trkpt lat="42.87622" lon="-0.85808">
        <ele>1057.461206</ele>
        <time>2022-08-30T01:42:56.917Z</time>
      </trkpt>
      <trkpt lat="42.87567" lon="-0.85671">
        <ele>1059.91531</ele>
        <time>2022-08-30T01:43:34.851Z</time>
      </trkpt>
      <trkpt lat="42.87559" lon="-0.85638">
        <ele>1060.393105</ele>
        <time>2022-08-30T01:43:43.075Z</time>
      </trkpt>
      <trkpt lat="42.87547" lon="-0.85534">
        <ele>1061.829376</ele>
        <time>2022-08-30T01:44:06.037Z</time>
      </trkpt>
      <trkpt lat="42.87557" lon="-0.85393">
        <ele>1063.747897</ele>
        <time>2022-08-30T01:44:36.377Z</time>
      </trkpt>
      <trkpt lat="42.87538" lon="-0.85255">
        <ele>1065.95318</ele>
        <time>2022-08-30T01:45:10.861Z</time>
      </trkpt>
      <trkpt lat="42.87501" lon="-0.85064">
        <ele>1070.51571</ele>
        <time>2022-08-30T01:46:06.782Z</time>
      </trkpt>
      <trkpt lat="42.87347" lon="-0.84436">
        <ele>1088.434607</ele>
        <time>2022-08-30T01:49:23.338Z</time>
      </trkpt>
      <trkpt lat="42.87297" lon="-0.8417">
        <ele>1096.730507</ele>
        <time>2022-08-30T01:50:52.884Z</time>
      </trkpt>
      <trkpt lat="42.87295" lon="-0.84148">
        <ele>1097.4079</ele>
        <time>2022-08-30T01:50:59.014Z</time>
      </trkpt>
      <trkpt lat="42.873" lon="-0.84054">
        <ele>1100.260146</ele>
        <time>2022-08-30T01:51:27.754Z</time>
      </trkpt>
      <trkpt lat="42.87293" lon="-0.8396">
        <ele>1103.091108</ele>
        <time>2022-08-30T01:51:56.078Z</time>
      </trkpt>
      <trkpt lat="42.87275" lon="-0.83894">
        <ele>1105.177177</ele>
        <time>2022-08-30T01:52:18.252Z</time>
      </trkpt>
      <trkpt lat="42.87266" lon="-0.83837">
        <ele>1107.177704</ele>
        <time>2022-08-30T01:52:38.348Z</time>
      </trkpt>
      <trkpt lat="42.87247" lon="-0.83758">
        <ele>1110.25901</ele>
        <time>2022-08-30T01:53:06.815Z</time>
      </trkpt>
      <trkpt lat="42.87242" lon="-0.83711">
        <ele>1112.028326</ele>
        <time>2022-08-30T01:53:23.746Z</time>
      </trkpt>
      <trkpt lat="42.87221" lon="-0.83663">
        <ele>1114.134522</ele>
        <time>2022-08-30T01:53:43.897Z</time>
      </trkpt>
      <trkpt lat="42.87207" lon="-0.83572">
        <ele>1117.683979</ele>
        <time>2022-08-30T01:54:17.264Z</time>
      </trkpt>
      <trkpt lat="42.87208" lon="-0.8348">
        <ele>1121.198688</ele>
        <time>2022-08-30T01:54:50.782Z</time>
      </trkpt>
      <trkpt lat="42.87148" lon="-0.83339">
        <ele>1128.093892</ele>
        <time>2022-08-30T01:55:46.818Z</time>
      </trkpt>
      <trkpt lat="42.87137" lon="-0.83307">
        <ele>1129.732172</ele>
        <time>2022-08-30T01:55:58.960Z</time>
      </trkpt>
      <trkpt lat="42.87127" lon="-0.83242">
        <ele>1132.822696</ele>
        <time>2022-08-30T01:56:24.325Z</time>
      </trkpt>
      <trkpt lat="42.87137" lon="-0.83082">
        <ele>1142.443032</ele>
        <time>2022-08-30T01:57:42.402Z</time>
      </trkpt>
      <trkpt lat="42.87166" lon="-0.82994">
        <ele>1149.17884</ele>
        <time>2022-08-30T01:58:31.458Z</time>
      </trkpt>
      <trkpt lat="42.87201" lon="-0.82919">
        <ele>1156.23516</ele>
        <time>2022-08-30T01:59:19.473Z</time>
      </trkpt>
      <trkpt lat="42.8724" lon="-0.8286">
        <ele>1163.902783</ele>
        <time>2022-08-30T02:00:09.637Z</time>
      </trkpt>
      <trkpt lat="42.87306" lon="-0.82801">
        <ele>1174.294799</ele>
        <time>2022-08-30T02:01:20.445Z</time>
      </trkpt>
      <trkpt lat="42.87382" lon="-0.82702">
        <ele>1190.711928</ele>
        <time>2022-08-30T02:03:10.882Z</time>
      </trkpt>
      <trkpt lat="42.87458" lon="-0.82619">
        <ele>1206.37115</ele>
        <time>2022-08-30T02:04:56.858Z</time>
      </trkpt>
      <trkpt lat="42.87482" lon="-0.82587">
        <ele>1210.91266</ele>
        <time>2022-08-30T02:05:27.573Z</time>
      </trkpt>
      <trkpt lat="42.87506" lon="-0.82537">
        <ele>1216.801643</ele>
        <time>2022-08-30T02:06:01.877Z</time>
      </trkpt>
      <trkpt lat="42.87521" lon="-0.82516">
        <ele>1219.762097</ele>
        <time>2022-08-30T02:06:19.022Z</time>
      </trkpt>
      <trkpt lat="42.87541" lon="-0.82514">
        <ele>1222.49649</ele>
        <time>2022-08-30T02:06:32.433Z</time>
      </trkpt>
      <trkpt lat="42.87565" lon="-0.82496">
        <ele>1226.130081</ele>
        <time>2022-08-30T02:07:02.769Z</time>
      </trkpt>
      <trkpt lat="42.87579" lon="-0.8247">
        <ele>1229.33063</ele>
        <time>2022-08-30T02:07:25.928Z</time>
      </trkpt>
      <trkpt lat="42.87592" lon="-0.82424">
        <ele>1234.10949</ele>
        <time>2022-08-30T02:08:00.058Z</time>
      </trkpt>
      <trkpt lat="42.87594" lon="-0.82399">
        <ele>1236.567277</ele>
        <time>2022-08-30T02:08:14.060Z</time>
      </trkpt>
      <trkpt lat="42.87587" lon="-0.82377">
        <ele>1238.884505</ele>
        <time>2022-08-30T02:08:33.162Z</time>
      </trkpt>
      <trkpt lat="42.87579" lon="-0.82371">
        <ele>1240.058245</ele>
        <time>2022-08-30T02:08:41.177Z</time>
      </trkpt>
      <trkpt lat="42.87563" lon="-0.82369">
        <ele>1242.180556</ele>
        <time>2022-08-30T02:08:48.869Z</time>
      </trkpt>
      <trkpt lat="42.87549" lon="-0.8238">
        <ele>1244.338023</ele>
        <time>2022-08-30T02:09:09.144Z</time>
      </trkpt>
      <trkpt lat="42.87528" lon="-0.82409">
        <ele>1248.264737</ele>
        <time>2022-08-30T02:09:32.555Z</time>
      </trkpt>
      <trkpt lat="42.87469" lon="-0.82439">
        <ele>1255.777022</ele>
        <time>2022-08-30T02:10:25.736Z</time>
      </trkpt>
      <trkpt lat="42.87438" lon="-0.82465">
        <ele>1259.15884</ele>
        <time>2022-08-30T02:10:59.825Z</time>
      </trkpt>
      <trkpt lat="42.87351" lon="-0.82473">
        <ele>1267.289816</ele>
        <time>2022-08-30T02:11:57.208Z</time>
      </trkpt>
      <trkpt lat="42.87294" lon="-0.82494">
        <ele>1271.320507</ele>
        <time>2022-08-30T02:12:26.323Z</time>
      </trkpt>
      <trkpt lat="42.87234" lon="-0.82485">
        <ele>1273.085947</ele>
        <time>2022-08-30T02:12:52.928Z</time>
      </trkpt>
      <trkpt lat="42.87196" lon="-0.82501">
        <ele>1274.249755</ele>
        <time>2022-08-30T02:13:06.063Z</time>
      </trkpt>
      <trkpt lat="42.87141" lon="-0.82498">
        <ele>1275.860478</ele>
        <time>2022-08-30T02:13:18.404Z</time>
      </trkpt>
      <trkpt lat="42.87126" lon="-0.82512">
        <ele>1276.613723</ele>
        <time>2022-08-30T02:13:21.904Z</time>
      </trkpt>
      <trkpt lat="42.87105" lon="-0.8255">
        <ele>1278.141473</ele>
        <time>2022-08-30T02:13:31.417Z</time>
      </trkpt>
      <trkpt lat="42.87085" lon="-0.82564">
        <ele>1279.130282</ele>
        <time>2022-08-30T02:13:40.047Z</time>
      </trkpt>
      <trkpt lat="42.87053" lon="-0.82536">
        <ele>1280.799093</ele>
        <time>2022-08-30T02:13:57.479Z</time>
      </trkpt>
      <trkpt lat="42.87006" lon="-0.82531">
        <ele>1282.892433</ele>
        <time>2022-08-30T02:14:23.259Z</time>
      </trkpt>
      <trkpt lat="42.86941" lon="-0.82453">
        <ele>1289.623745</ele>
        <time>2022-08-30T02:15:21.953Z</time>
      </trkpt>
      <trkpt lat="42.86897" lon="-0.82412">
        <ele>1294.267896</ele>
        <time>2022-08-30T02:15:59.662Z</time>
      </trkpt>
      <trkpt lat="42.86881" lon="-0.82405">
        <ele>1295.744268</ele>
        <time>2022-08-30T02:16:13.741Z</time>
      </trkpt>
      <trkpt lat="42.86872" lon="-0.82408">
        <ele>1296.6041</ele>
        <time>2022-08-30T02:16:20.922Z</time>
      </trkpt>
      <trkpt lat="42.86858" lon="-0.82424">
        <ele>1298.206253</ele>
        <time>2022-08-30T02:16:34.203Z</time>
      </trkpt>
      <trkpt lat="42.8684" lon="-0.82458">
        <ele>1299.637225</ele>
        <time>2022-08-30T02:16:53.119Z</time>
      </trkpt>
      <trkpt lat="42.86822" lon="-0.82539">
        <ele>1299.355161</ele>
        <time>2022-08-30T02:17:18.586Z</time>
      </trkpt>
      <trkpt lat="42.86783" lon="-0.82568">
        <ele>1299.152445</ele>
        <time>2022-08-30T02:17:26.789Z</time>
      </trkpt>
      <trkpt lat="42.86767" lon="-0.82586">
        <ele>1299.056091</ele>
        <time>2022-08-30T02:17:30.129Z</time>
      </trkpt>
      <trkpt lat="42.86743" lon="-0.82658">
        <ele>1296.930449</ele>
        <time>2022-08-30T02:17:38.703Z</time>
      </trkpt>
      <trkpt lat="42.86728" lon="-0.8267">
        <ele>1295.12435</ele>
        <time>2022-08-30T02:17:41.210Z</time>
      </trkpt>
      <trkpt lat="42.86671" lon="-0.82686">
        <ele>1288.941821</ele>
        <time>2022-08-30T02:17:49.353Z</time>
      </trkpt>
      <trkpt lat="42.86619" lon="-0.82701">
        <ele>1283.401432</ele>
        <time>2022-08-30T02:17:56.690Z</time>
      </trkpt>
      <trkpt lat="42.866" lon="-0.82701">
        <ele>1281.389953</ele>
        <time>2022-08-30T02:17:59.335Z</time>
      </trkpt>
      <trkpt lat="42.86589" lon="-0.82694">
        <ele>1280.066729</ele>
        <time>2022-08-30T02:18:01.101Z</time>
      </trkpt>
      <trkpt lat="42.86582" lon="-0.82678">
        <ele>1278.566943</ele>
        <time>2022-08-30T02:18:02.917Z</time>
      </trkpt>
      <trkpt lat="42.86586" lon="-0.82655">
        <ele>1276.599566</ele>
        <time>2022-08-30T02:18:05.315Z</time>
      </trkpt>
      <trkpt lat="42.86602" lon="-0.82614">
        <ele>1272.712278</ele>
        <time>2022-08-30T02:18:10.088Z</time>
      </trkpt>
      <trkpt lat="42.86602" lon="-0.82595">
        <ele>1271.174546</ele>
        <time>2022-08-30T02:18:11.986Z</time>
      </trkpt>
      <trkpt lat="42.86596" lon="-0.82581">
        <ele>1269.797367</ele>
        <time>2022-08-30T02:18:13.690Z</time>
      </trkpt>
      <trkpt lat="42.86569" lon="-0.82567">
        <ele>1266.583007</ele>
        <time>2022-08-30T02:18:17.634Z</time>
      </trkpt>
      <trkpt lat="42.86562" lon="-0.82551">
        <ele>1264.993009</ele>
        <time>2022-08-30T02:18:19.588Z</time>
      </trkpt>
      <trkpt lat="42.86553" lon="-0.82462">
        <ele>1257.60216</ele>
        <time>2022-08-30T02:18:28.802Z</time>
      </trkpt>
      <trkpt lat="42.86513" lon="-0.82345">
        <ele>1247.134921</ele>
        <time>2022-08-30T02:18:42.113Z</time>
      </trkpt>
      <trkpt lat="42.86493" lon="-0.82264">
        <ele>1240.241691</ele>
        <time>2022-08-30T02:18:50.780Z</time>
      </trkpt>
      <trkpt lat="42.86472" lon="-0.82202">
        <ele>1235.195144</ele>
        <time>2022-08-30T02:18:57.757Z</time>
      </trkpt>
      <trkpt lat="42.86469" lon="-0.82178">
        <ele>1233.372107</ele>
        <time>2022-08-30T02:19:00.343Z</time>
      </trkpt>
      <trkpt lat="42.8649" lon="-0.8201">
        <ele>1221.133977</ele>
        <time>2022-08-30T02:19:18.218Z</time>
      </trkpt>
      <trkpt lat="42.86488" lon="-0.81885">
        <ele>1214.539028</ele>
        <time>2022-08-30T02:19:31.468Z</time>
      </trkpt>
      <trkpt lat="42.86493" lon="-0.81789">
        <ele>1209.453485</ele>
        <time>2022-08-30T02:19:42.246Z</time>
      </trkpt>
      <trkpt lat="42.86513" lon="-0.81687">
        <ele>1207.526196</ele>
        <time>2022-08-30T02:19:55.527Z</time>
      </trkpt>
      <trkpt lat="42.86502" lon="-0.81672">
        <ele>1207.252395</ele>
        <time>2022-08-30T02:19:58.354Z</time>
      </trkpt>
      <trkpt lat="42.86491" lon="-0.81676">
        <ele>1207.039025</ele>
        <time>2022-08-30T02:20:00.558Z</time>
      </trkpt>
      <trkpt lat="42.86422" lon="-0.81787">
        <ele>1205.449872</ele>
        <time>2022-08-30T02:20:24.012Z</time>
      </trkpt>
      <trkpt lat="42.86411" lon="-0.81851">
        <ele>1205.314874</ele>
        <time>2022-08-30T02:20:36.295Z</time>
      </trkpt>
      <trkpt lat="42.86394" lon="-0.81895">
        <ele>1205.210918</ele>
        <time>2022-08-30T02:20:45.272Z</time>
      </trkpt>
      <trkpt lat="42.86328" lon="-0.82003">
        <ele>1204.844731</ele>
        <time>2022-08-30T02:21:06.445Z</time>
      </trkpt>
      <trkpt lat="42.86287" lon="-0.82137">
        <ele>1204.257139</ele>
        <time>2022-08-30T02:21:28.583Z</time>
      </trkpt>
      <trkpt lat="42.86284" lon="-0.82152">
        <ele>1204.191907</ele>
        <time>2022-08-30T02:21:31.139Z</time>
      </trkpt>
      <trkpt lat="42.86285" lon="-0.82191">
        <ele>1204.0341</ele>
        <time>2022-08-30T02:21:38.075Z</time>
      </trkpt>
      <trkpt lat="42.86281" lon="-0.82202">
        <ele>1204.214391</ele>
        <time>2022-08-30T02:21:40.295Z</time>
      </trkpt>
      <trkpt lat="42.8627" lon="-0.82208">
        <ele>1204.681718</ele>
        <time>2022-08-30T02:21:43.649Z</time>
      </trkpt>
      <trkpt lat="42.86241" lon="-0.82204">
        <ele>1205.831791</ele>
        <time>2022-08-30T02:21:52.312Z</time>
      </trkpt>
      <trkpt lat="42.86215" lon="-0.82224">
        <ele>1207.033236</ele>
        <time>2022-08-30T02:22:02.807Z</time>
      </trkpt>
      <trkpt lat="42.86176" lon="-0.82222">
        <ele>1208.581827</ele>
        <time>2022-08-30T02:22:19.795Z</time>
      </trkpt>
      <trkpt lat="42.86131" lon="-0.82247">
        <ele>1210.523455</ele>
        <time>2022-08-30T02:22:46.264Z</time>
      </trkpt>
      <trkpt lat="42.86067" lon="-0.82261">
        <ele>1215.034384</ele>
        <time>2022-08-30T02:23:26.784Z</time>
      </trkpt>
      <trkpt lat="42.86027" lon="-0.82249">
        <ele>1218.300856</ele>
        <time>2022-08-30T02:23:56.797Z</time>
      </trkpt>
      <trkpt lat="42.86011" lon="-0.82251">
        <ele>1219.646368</ele>
        <time>2022-08-30T02:24:08.585Z</time>
      </trkpt>
      <trkpt lat="42.85989" lon="-0.82263">
        <ele>1221.513049</ele>
        <time>2022-08-30T02:24:25.399Z</time>
      </trkpt>
      <trkpt lat="42.85947" lon="-0.82307">
        <ele>1225.587988</ele>
        <time>2022-08-30T02:24:59.611Z</time>
      </trkpt>
      <trkpt lat="42.85917" lon="-0.82331">
        <ele>1225.355979</ele>
        <time>2022-08-30T02:25:16.432Z</time>
      </trkpt>
      <trkpt lat="42.85879" lon="-0.82452">
        <ele>1224.709887</ele>
        <time>2022-08-30T02:25:38.241Z</time>
      </trkpt>
      <trkpt lat="42.85846" lon="-0.82518">
        <ele>1223.01777</ele>
        <time>2022-08-30T02:25:47.560Z</time>
      </trkpt>
      <trkpt lat="42.85835" lon="-0.82536">
        <ele>1221.066348</ele>
        <time>2022-08-30T02:25:50.075Z</time>
      </trkpt>
      <trkpt lat="42.85805" lon="-0.82565">
        <ele>1216.795826</ele>
        <time>2022-08-30T02:25:55.496Z</time>
      </trkpt>
      <trkpt lat="42.85618" lon="-0.82679">
        <ele>1193.068055</ele>
        <time>2022-08-30T02:26:24.805Z</time>
      </trkpt>
      <trkpt lat="42.85518" lon="-0.82646">
        <ele>1181.493303</ele>
        <time>2022-08-30T02:26:39.950Z</time>
      </trkpt>
      <trkpt lat="42.85476" lon="-0.82647">
        <ele>1178.13472</ele>
        <time>2022-08-30T02:26:46.239Z</time>
      </trkpt>
      <trkpt lat="42.85425" lon="-0.82663">
        <ele>1173.863986</ele>
        <time>2022-08-30T02:26:54.443Z</time>
      </trkpt>
      <trkpt lat="42.85405" lon="-0.82663">
        <ele>1172.241262</ele>
        <time>2022-08-30T02:26:57.570Z</time>
      </trkpt>
      <trkpt lat="42.85386" lon="-0.82653">
        <ele>1170.594395</ele>
        <time>2022-08-30T02:27:00.736Z</time>
      </trkpt>
      <trkpt lat="42.85345" lon="-0.82616">
        <ele>1167.179792</ele>
        <time>2022-08-30T02:27:08.476Z</time>
      </trkpt>
      <trkpt lat="42.85306" lon="-0.82607">
        <ele>1165.142497</ele>
        <time>2022-08-30T02:27:14.884Z</time>
      </trkpt>
      <trkpt lat="42.85255" lon="-0.82577">
        <ele>1162.275044</ele>
        <time>2022-08-30T02:27:24.042Z</time>
      </trkpt>
      <trkpt lat="42.85225" lon="-0.82574">
        <ele>1160.710378</ele>
        <time>2022-08-30T02:27:29.259Z</time>
      </trkpt>
      <trkpt lat="42.85171" lon="-0.82588">
        <ele>1158.037945</ele>
        <time>2022-08-30T02:27:38.825Z</time>
      </trkpt>
      <trkpt lat="42.85154" lon="-0.82579">
        <ele>1157.237025</ele>
        <time>2022-08-30T02:27:41.968Z</time>
      </trkpt>
      <trkpt lat="42.8511" lon="-0.82541">
        <ele>1154.882058</ele>
        <time>2022-08-30T02:27:51.109Z</time>
      </trkpt>
      <trkpt lat="42.85088" lon="-0.82537">
        <ele>1153.880863</ele>
        <time>2022-08-30T02:27:54.892Z</time>
      </trkpt>
      <trkpt lat="42.85071" lon="-0.82541">
        <ele>1153.143949</ele>
        <time>2022-08-30T02:27:57.644Z</time>
      </trkpt>
      <trkpt lat="42.85034" lon="-0.82574">
        <ele>1151.134733</ele>
        <time>2022-08-30T02:28:05.088Z</time>
      </trkpt>
      <trkpt lat="42.85004" lon="-0.82614">
        <ele>1149.226027</ele>
        <time>2022-08-30T02:28:11.861Z</time>
      </trkpt>
      <trkpt lat="42.84952" lon="-0.82629">
        <ele>1146.7456</ele>
        <time>2022-08-30T02:28:20.670Z</time>
      </trkpt>
      <trkpt lat="42.84895" lon="-0.82679">
        <ele>1143.5519</ele>
        <time>2022-08-30T02:28:32.037Z</time>
      </trkpt>
      <trkpt lat="42.84781" lon="-0.82642">
        <ele>1140.473511</ele>
        <time>2022-08-30T02:28:53.496Z</time>
      </trkpt>
      <trkpt lat="42.84635" lon="-0.82643">
        <ele>1136.859594</ele>
        <time>2022-08-30T02:29:23.731Z</time>
      </trkpt>
      <trkpt lat="42.84592" lon="-0.82652">
        <ele>1135.53622</ele>
        <time>2022-08-30T02:29:31.463Z</time>
      </trkpt>
      <trkpt lat="42.84569" lon="-0.82672">
        <ele>1134.718691</ele>
        <time>2022-08-30T02:29:36.017Z</time>
      </trkpt>
      <trkpt lat="42.84542" lon="-0.82718">
        <ele>1133.408178</ele>
        <time>2022-08-30T02:29:43.269Z</time>
      </trkpt>
      <trkpt lat="42.84527" lon="-0.82734">
        <ele>1132.952241</ele>
        <time>2022-08-30T02:29:46.649Z</time>
      </trkpt>
      <trkpt lat="42.84428" lon="-0.82756">
        <ele>1131.042545</ele>
        <time>2022-08-30T02:30:04.417Z</time>
      </trkpt>
      <trkpt lat="42.8439" lon="-0.82784">
        <ele>1130.205624</ele>
        <time>2022-08-30T02:30:14.014Z</time>
      </trkpt>
      <trkpt lat="42.84349" lon="-0.82827">
        <ele>1129.705618</ele>
        <time>2022-08-30T02:30:30.114Z</time>
      </trkpt>
      <trkpt lat="42.84273" lon="-0.82849">
        <ele>1129.612935</ele>
        <time>2022-08-30T02:30:57.241Z</time>
      </trkpt>
      <trkpt lat="42.84239" lon="-0.82888">
        <ele>1129.561045</ele>
        <time>2022-08-30T02:31:07.302Z</time>
      </trkpt>
      <trkpt lat="42.84205" lon="-0.82904">
        <ele>1129.056727</ele>
        <time>2022-08-30T02:31:13.830Z</time>
      </trkpt>
      <trkpt lat="42.84121" lon="-0.82973">
        <ele>1121.198015</ele>
        <time>2022-08-30T02:31:29.305Z</time>
      </trkpt>
      <trkpt lat="42.84072" lon="-0.83029">
        <ele>1116.110139</ele>
        <time>2022-08-30T02:31:38.718Z</time>
      </trkpt>
      <trkpt lat="42.83976" lon="-0.83055">
        <ele>1105.386688</ele>
        <time>2022-08-30T02:31:52.892Z</time>
      </trkpt>
      <trkpt lat="42.83965" lon="-0.83063">
        <ele>1103.955124</ele>
        <time>2022-08-30T02:31:54.716Z</time>
      </trkpt>
      <trkpt lat="42.83851" lon="-0.83231">
        <ele>1083.83559</ele>
        <time>2022-08-30T02:32:19.333Z</time>
      </trkpt>
      <trkpt lat="42.83842" lon="-0.83279">
        <ele>1079.341248</ele>
        <time>2022-08-30T02:32:24.504Z</time>
      </trkpt>
      <trkpt lat="42.83856" lon="-0.83337">
        <ele>1073.754871</ele>
        <time>2022-08-30T02:32:30.909Z</time>
      </trkpt>
      <trkpt lat="42.83854" lon="-0.83384">
        <ele>1069.454734</ele>
        <time>2022-08-30T02:32:35.728Z</time>
      </trkpt>
      <trkpt lat="42.83842" lon="-0.83419">
        <ele>1065.869585</ele>
        <time>2022-08-30T02:32:39.698Z</time>
      </trkpt>
      <trkpt lat="42.83809" lon="-0.83448">
        <ele>1060.827875</ele>
        <time>2022-08-30T02:32:45.338Z</time>
      </trkpt>
      <trkpt lat="42.83778" lon="-0.83451">
        <ele>1056.906545</ele>
        <time>2022-08-30T02:32:49.723Z</time>
      </trkpt>
      <trkpt lat="42.83712" lon="-0.83435">
        <ele>1048.664505</ele>
        <time>2022-08-30T02:32:59.461Z</time>
      </trkpt>
      <trkpt lat="42.83588" lon="-0.83447">
        <ele>1037.679834</ele>
        <time>2022-08-30T02:33:18.412Z</time>
      </trkpt>
      <trkpt lat="42.83552" lon="-0.83469">
        <ele>1034.247578</ele>
        <time>2022-08-30T02:33:24.486Z</time>
      </trkpt>
      <trkpt lat="42.83511" lon="-0.83519">
        <ele>1030.034289</ele>
        <time>2022-08-30T02:33:33.147Z</time>
      </trkpt>
      <trkpt lat="42.83471" lon="-0.83548">
        <ele>1026.686159</ele>
        <time>2022-08-30T02:33:40.264Z</time>
      </trkpt>
      <trkpt lat="42.83418" lon="-0.83607">
        <ele>1021.686458</ele>
        <time>2022-08-30T02:33:50.695Z</time>
      </trkpt>
      <trkpt lat="42.83398" lon="-0.83603">
        <ele>1020.166457</ele>
        <time>2022-08-30T02:33:54.024Z</time>
      </trkpt>
      <trkpt lat="42.83376" lon="-0.83563">
        <ele>1018.536997</ele>
        <time>2022-08-30T02:33:59.950Z</time>
      </trkpt>
      <trkpt lat="42.83336" lon="-0.83539">
        <ele>1016.613566</ele>
        <time>2022-08-30T02:34:07.165Z</time>
      </trkpt>
      <trkpt lat="42.83327" lon="-0.8354">
        <ele>1016.202492</ele>
        <time>2022-08-30T02:34:08.687Z</time>
      </trkpt>
      <trkpt lat="42.8326" lon="-0.83604">
        <ele>1012.564976</ele>
        <time>2022-08-30T02:34:23.096Z</time>
      </trkpt>
      <trkpt lat="42.83139" lon="-0.83731">
        <ele>1009.829597</ele>
        <time>2022-08-30T02:34:53.063Z</time>
      </trkpt>
      <trkpt lat="42.831" lon="-0.83747">
        <ele>1009.214118</ele>
        <time>2022-08-30T02:35:01.736Z</time>
      </trkpt>
      <trkpt lat="42.83084" lon="-0.83743">
        <ele>1009.112224</ele>
        <time>2022-08-30T02:35:05.190Z</time>
      </trkpt>
      <trkpt lat="42.83038" lon="-0.83717">
        <ele>1008.791775</ele>
        <time>2022-08-30T02:35:16.053Z</time>
      </trkpt>
      <trkpt lat="42.83001" lon="-0.83685">
        <ele>1008.509483</ele>
        <time>2022-08-30T02:35:25.971Z</time>
      </trkpt>
      <trkpt lat="42.82904" lon="-0.83576">
        <ele>1007.083176</ele>
        <time>2022-08-30T02:35:52.723Z</time>
      </trkpt>
      <trkpt lat="42.82816" lon="-0.83514">
        <ele>1005.455252</ele>
        <time>2022-08-30T02:36:11.473Z</time>
      </trkpt>
      <trkpt lat="42.82748" lon="-0.83429">
        <ele>1003.57355</ele>
        <time>2022-08-30T02:36:28.859Z</time>
      </trkpt>
      <trkpt lat="42.82701" lon="-0.8335">
        <ele>1001.950778</ele>
        <time>2022-08-30T02:36:43.088Z</time>
      </trkpt>
      <trkpt lat="42.82538" lon="-0.83279">
        <ele>998.929787</ele>
        <time>2022-08-30T02:37:16.471Z</time>
      </trkpt>
      <trkpt lat="42.825" lon="-0.83256">
        <ele>998.237646</ele>
        <time>2022-08-30T02:37:25.838Z</time>
      </trkpt>
      <trkpt lat="42.82423" lon="-0.83186">
        <ele>995.848886</ele>
        <time>2022-08-30T02:37:43.137Z</time>
      </trkpt>
      <trkpt lat="42.8241" lon="-0.83173">
        <ele>995.443399</ele>
        <time>2022-08-30T02:37:45.973Z</time>
      </trkpt>
      <trkpt lat="42.82398" lon="-0.83165">
        <ele>995.094174</ele>
        <time>2022-08-30T02:37:48.050Z</time>
      </trkpt>
      <trkpt lat="42.82379" lon="-0.83153">
        <ele>994.563457</ele>
        <time>2022-08-30T02:37:51.307Z</time>
      </trkpt>
      <trkpt lat="42.82366" lon="-0.83148">
        <ele>994.23092</ele>
        <time>2022-08-30T02:37:53.292Z</time>
      </trkpt>
      <trkpt lat="42.82277" lon="-0.83159">
        <ele>996.352098</ele>
        <time>2022-08-30T02:38:21.637Z</time>
      </trkpt>
      <trkpt lat="42.82265" lon="-0.83158">
        <ele>996.829779</ele>
        <time>2022-08-30T02:38:23.836Z</time>
      </trkpt>
      <trkpt lat="42.82251" lon="-0.83143">
        <ele>997.550009</ele>
        <time>2022-08-30T02:38:34.499Z</time>
      </trkpt>
      <trkpt lat="42.82227" lon="-0.83118">
        <ele>998.826253</ele>
        <time>2022-08-30T02:38:50.466Z</time>
      </trkpt>
      <trkpt lat="42.82204" lon="-0.831">
        <ele>999.891297</ele>
        <time>2022-08-30T02:39:03.604Z</time>
      </trkpt>
      <trkpt lat="42.82193" lon="-0.83074">
        <ele>1000.783043</ele>
        <time>2022-08-30T02:39:22.297Z</time>
      </trkpt>
      <trkpt lat="42.82182" lon="-0.83011">
        <ele>1003.377982</ele>
        <time>2022-08-30T02:39:51.315Z</time>
      </trkpt>
      <trkpt lat="42.82162" lon="-0.82987">
        <ele>1004.852469</ele>
        <time>2022-08-30T02:40:14.068Z</time>
      </trkpt>
      <trkpt lat="42.82154" lon="-0.82986">
        <ele>1005.34072</ele>
        <time>2022-08-30T02:40:16.685Z</time>
      </trkpt>
      <trkpt lat="42.82096" lon="-0.83015">
        <ele>1008.752837</ele>
        <time>2022-08-30T02:41:04.456Z</time>
      </trkpt>
      <trkpt lat="42.82038" lon="-0.83056">
        <ele>1009.702799</ele>
        <time>2022-08-30T02:41:15.693Z</time>
      </trkpt>
      <trkpt lat="42.81991" lon="-0.83073">
        <ele>1007.08846</ele>
        <time>2022-08-30T02:41:23.132Z</time>
      </trkpt>
      <trkpt lat="42.81975" lon="-0.8307">
        <ele>1006.208503</ele>
        <time>2022-08-30T02:41:25.642Z</time>
      </trkpt>
      <trkpt lat="42.81898" lon="-0.83028">
        <ele>1001.703508</ele>
        <time>2022-08-30T02:41:38.639Z</time>
      </trkpt>
      <trkpt lat="42.81795" lon="-0.83022">
        <ele>1002.366337</ele>
        <time>2022-08-30T02:41:59.787Z</time>
      </trkpt>
      <trkpt lat="42.81785" lon="-0.83029">
        <ele>1002.49201</ele>
        <time>2022-08-30T02:42:05.440Z</time>
      </trkpt>
      <trkpt lat="42.81771" lon="-0.83065">
        <ele>1002.82436</ele>
        <time>2022-08-30T02:42:18.257Z</time>
      </trkpt>
      <trkpt lat="42.81764" lon="-0.83071">
        <ele>1002.913561</ele>
        <time>2022-08-30T02:42:23.471Z</time>
      </trkpt>
      <trkpt lat="42.81687" lon="-0.83093">
        <ele>1006.198285</ele>
        <time>2022-08-30T02:43:00.489Z</time>
      </trkpt>
      <trkpt lat="42.81634" lon="-0.83143">
        <ele>1010.531199</ele>
        <time>2022-08-30T02:43:37.726Z</time>
      </trkpt>
      <trkpt lat="42.81593" lon="-0.83161">
        <ele>1013.403812</ele>
        <time>2022-08-30T02:44:01.387Z</time>
      </trkpt>
      <trkpt lat="42.81454" lon="-0.83069">
        <ele>1027.320239</ele>
        <time>2022-08-30T02:45:47.527Z</time>
      </trkpt>
      <trkpt lat="42.81432" lon="-0.83062">
        <ele>1029.507177</ele>
        <time>2022-08-30T02:46:08.264Z</time>
      </trkpt>
      <trkpt lat="42.81417" lon="-0.83064">
        <ele>1030.959997</ele>
        <time>2022-08-30T02:46:20.178Z</time>
      </trkpt>
      <trkpt lat="42.8136" lon="-0.8311">
        <ele>1032.222673</ele>
        <time>2022-08-30T02:47:09.073Z</time>
      </trkpt>
      <trkpt lat="42.81335" lon="-0.83121">
        <ele>1032.090466</ele>
        <time>2022-08-30T02:47:25.354Z</time>
      </trkpt>
      <trkpt lat="42.81298" lon="-0.83128">
        <ele>1031.899793</ele>
        <time>2022-08-30T02:47:35.565Z</time>
      </trkpt>
      <trkpt lat="42.81243" lon="-0.83183">
        <ele>1031.088531</ele>
        <time>2022-08-30T02:47:45.690Z</time>
      </trkpt>
      <trkpt lat="42.8121" lon="-0.83204">
        <ele>1024.157594</ele>
        <time>2022-08-30T02:47:50.693Z</time>
      </trkpt>
      <trkpt lat="42.81184" lon="-0.83232">
        <ele>1017.678652</ele>
        <time>2022-08-30T02:47:55.262Z</time>
      </trkpt>
      <trkpt lat="42.81127" lon="-0.83257">
        <ele>1006.27368</ele>
        <time>2022-08-30T02:48:03.323Z</time>
      </trkpt>
      <trkpt lat="42.81048" lon="-0.83307">
        <ele>994.908886</ele>
        <time>2022-08-30T02:48:15.244Z</time>
      </trkpt>
      <trkpt lat="42.8101" lon="-0.83302">
        <ele>992.889366</ele>
        <time>2022-08-30T02:48:20.792Z</time>
      </trkpt>
      <trkpt lat="42.80939" lon="-0.83242">
        <ele>988.444406</ele>
        <time>2022-08-30T02:48:45.142Z</time>
      </trkpt>
      <trkpt lat="42.80891" lon="-0.83247">
        <ele>988.308883</ele>
        <time>2022-08-30T02:49:16.588Z</time>
      </trkpt>
      <trkpt lat="42.80861" lon="-0.83208">
        <ele>989.567638</ele>
        <time>2022-08-30T02:49:42.866Z</time>
      </trkpt>
      <trkpt lat="42.80833" lon="-0.83181">
        <ele>990.623394</ele>
        <time>2022-08-30T02:50:00.604Z</time>
      </trkpt>
      <trkpt lat="42.80813" lon="-0.83186">
        <ele>991.248622</ele>
        <time>2022-08-30T02:50:09.624Z</time>
      </trkpt>
      <trkpt lat="42.80778" lon="-0.83205">
        <ele>992.37784</ele>
        <time>2022-08-30T02:50:17.772Z</time>
      </trkpt>
      <trkpt lat="42.80687" lon="-0.83273">
        <ele>986.026016</ele>
        <time>2022-08-30T02:50:34.588Z</time>
      </trkpt>
      <trkpt lat="42.80663" lon="-0.83274">
        <ele>984.086618</ele>
        <time>2022-08-30T02:50:38.121Z</time>
      </trkpt>
      <trkpt lat="42.80638" lon="-0.83265">
        <ele>982.064724</ele>
        <time>2022-08-30T02:50:41.805Z</time>
      </trkpt>
      <trkpt lat="42.80566" lon="-0.83265">
        <ele>976.639574</ele>
        <time>2022-08-30T02:50:52.553Z</time>
      </trkpt>
      <trkpt lat="42.80544" lon="-0.83269">
        <ele>975.156304</ele>
        <time>2022-08-30T02:50:55.945Z</time>
      </trkpt>
      <trkpt lat="42.80491" lon="-0.83295">
        <ele>971.376405</ele>
        <time>2022-08-30T02:51:04.706Z</time>
      </trkpt>
      <trkpt lat="42.80454" lon="-0.83281">
        <ele>968.754309</ele>
        <time>2022-08-30T02:51:11.369Z</time>
      </trkpt>
      <trkpt lat="42.80373" lon="-0.83254">
        <ele>964.361621</ele>
        <time>2022-08-30T02:51:25.583Z</time>
      </trkpt>
      <trkpt lat="42.80349" lon="-0.83236">
        <ele>963.16041</ele>
        <time>2022-08-30T02:51:30.147Z</time>
      </trkpt>
      <trkpt lat="42.80303" lon="-0.83249">
        <ele>961.194641</ele>
        <time>2022-08-30T02:51:37.746Z</time>
      </trkpt>
      <trkpt lat="42.80242" lon="-0.83308">
        <ele>959.372288</ele>
        <time>2022-08-30T02:51:50.629Z</time>
      </trkpt>
      <trkpt lat="42.80229" lon="-0.8331">
        <ele>959.770483</ele>
        <time>2022-08-30T02:51:54.157Z</time>
      </trkpt>
      <trkpt lat="42.80217" lon="-0.83305">
        <ele>960.182058</ele>
        <time>2022-08-30T02:51:57.032Z</time>
      </trkpt>
      <trkpt lat="42.80126" lon="-0.83206">
        <ele>963.824709</ele>
        <time>2022-08-30T02:52:51.807Z</time>
      </trkpt>
      <trkpt lat="42.80081" lon="-0.83176">
        <ele>964.827225</ele>
        <time>2022-08-30T02:53:23.879Z</time>
      </trkpt>
      <trkpt lat="42.80011" lon="-0.83149">
        <ele>965.744802</ele>
        <time>2022-08-30T02:54:01.055Z</time>
      </trkpt>
      <trkpt lat="42.79982" lon="-0.83147">
        <ele>966.115109</ele>
        <time>2022-08-30T02:54:09.093Z</time>
      </trkpt>
      <trkpt lat="42.79911" lon="-0.83179">
        <ele>963.319095</ele>
        <time>2022-08-30T02:54:20.815Z</time>
      </trkpt>
      <trkpt lat="42.79816" lon="-0.83193">
        <ele>951.533765</ele>
        <time>2022-08-30T02:54:34.428Z</time>
      </trkpt>
      <trkpt lat="42.79751" lon="-0.83182">
        <ele>943.784214</ele>
        <time>2022-08-30T02:54:43.685Z</time>
      </trkpt>
      <trkpt lat="42.79665" lon="-0.83134">
        <ele>935.929851</ele>
        <time>2022-08-30T02:54:57.328Z</time>
      </trkpt>
      <trkpt lat="42.79591" lon="-0.83068">
        <ele>929.18601</ele>
        <time>2022-08-30T02:55:12.392Z</time>
      </trkpt>
      <trkpt lat="42.79422" lon="-0.82942">
        <ele>925.751625</ele>
        <time>2022-08-30T02:55:50.930Z</time>
      </trkpt>
      <trkpt lat="42.79251" lon="-0.82852">
        <ele>924.127738</ele>
        <time>2022-08-30T02:56:28.772Z</time>
      </trkpt>
      <trkpt lat="42.79123" lon="-0.82752">
        <ele>923.990762</ele>
        <time>2022-08-30T02:57:07.081Z</time>
      </trkpt>
      <trkpt lat="42.79089" lon="-0.82739">
        <ele>923.49195</ele>
        <time>2022-08-30T02:57:14.672Z</time>
      </trkpt>
      <trkpt lat="42.79047" lon="-0.8276">
        <ele>922.765985</ele>
        <time>2022-08-30T02:57:22.874Z</time>
      </trkpt>
      <trkpt lat="42.79009" lon="-0.82763">
        <ele>922.157319</ele>
        <time>2022-08-30T02:57:29.223Z</time>
      </trkpt>
      <trkpt lat="42.78922" lon="-0.82737">
        <ele>921.738347</ele>
        <time>2022-08-30T02:57:47.499Z</time>
      </trkpt>
      <trkpt lat="42.78874" lon="-0.82731">
        <ele>923.256527</ele>
        <time>2022-08-30T02:58:04.075Z</time>
      </trkpt>
      <trkpt lat="42.78775" lon="-0.82604">
        <ele>927.019277</ele>
        <time>2022-08-30T02:59:07.810Z</time>
      </trkpt>
      <trkpt lat="42.78767" lon="-0.82584">
        <ele>927.22287</ele>
        <time>2022-08-30T02:59:15.746Z</time>
      </trkpt>
      <trkpt lat="42.78746" lon="-0.82568">
        <ele>927.516001</ele>
        <time>2022-08-30T02:59:30.333Z</time>
      </trkpt>
      <trkpt lat="42.78721" lon="-0.82573">
        <ele>927.814836</ele>
        <time>2022-08-30T02:59:41.570Z</time>
      </trkpt>
      <trkpt lat="42.78682" lon="-0.8257">
        <ele>928.290426</ele>
        <time>2022-08-30T02:59:53.098Z</time>
      </trkpt>
      <trkpt lat="42.78574" lon="-0.82608">
        <ele>924.993347</ele>
        <time>2022-08-30T03:00:11.269Z</time>
      </trkpt>
      <trkpt lat="42.7848" lon="-0.82607">
        <ele>919.167081</ele>
        <time>2022-08-30T03:00:25.825Z</time>
      </trkpt>
      <trkpt lat="42.78318" lon="-0.82526">
        <ele>912.166001</ele>
        <time>2022-08-30T03:00:54.999Z</time>
      </trkpt>
      <trkpt lat="42.78171" lon="-0.82521">
        <ele>912.756218</ele>
        <time>2022-08-30T03:01:30.463Z</time>
      </trkpt>
      <trkpt lat="42.78142" lon="-0.82531">
        <ele>913.202213</ele>
        <time>2022-08-30T03:01:42.109Z</time>
      </trkpt>
      <trkpt lat="42.78059" lon="-0.82517">
        <ele>916.677552</ele>
        <time>2022-08-30T03:02:21.649Z</time>
      </trkpt>
      <trkpt lat="42.77976" lon="-0.82466">
        <ele>922.112846</ele>
        <time>2022-08-30T03:03:14.734Z</time>
      </trkpt>
      <trkpt lat="42.77954" lon="-0.82458">
        <ele>923.500911</ele>
        <time>2022-08-30T03:03:28.693Z</time>
      </trkpt>
      <trkpt lat="42.77938" lon="-0.82456">
        <ele>924.458644</ele>
        <time>2022-08-30T03:03:38.086Z</time>
      </trkpt>
      <trkpt lat="42.77867" lon="-0.82478">
        <ele>925.494858</ele>
        <time>2022-08-30T03:04:11.956Z</time>
      </trkpt>
      <trkpt lat="42.77836" lon="-0.82497">
        <ele>925.992486</ele>
        <time>2022-08-30T03:04:22.749Z</time>
      </trkpt>
      <trkpt lat="42.77781" lon="-0.82564">
        <ele>926.987516</ele>
        <time>2022-08-30T03:04:37.453Z</time>
      </trkpt>
      <trkpt lat="42.77718" lon="-0.82616">
        <ele>921.599582</ele>
        <time>2022-08-30T03:04:49.565Z</time>
      </trkpt>
      <trkpt lat="42.77596" lon="-0.8267">
        <ele>912.389916</ele>
        <time>2022-08-30T03:05:08.695Z</time>
      </trkpt>
      <trkpt lat="42.77514" lon="-0.82723">
        <ele>906.118412</ele>
        <time>2022-08-30T03:05:22.614Z</time>
      </trkpt>
      <trkpt lat="42.77497" lon="-0.8273">
        <ele>904.874647</ele>
        <time>2022-08-30T03:05:25.539Z</time>
      </trkpt>
      <trkpt lat="42.77412" lon="-0.82732">
        <ele>901.14787</ele>
        <time>2022-08-30T03:05:40.159Z</time>
      </trkpt>
      <trkpt lat="42.77348" lon="-0.82741">
        <ele>900.44829</ele>
        <time>2022-08-30T03:05:54.496Z</time>
      </trkpt>
      <trkpt lat="42.7728" lon="-0.82724">
        <ele>899.693883</ele>
        <time>2022-08-30T03:06:12.662Z</time>
      </trkpt>
      <trkpt lat="42.77245" lon="-0.82725">
        <ele>899.217372</ele>
        <time>2022-08-30T03:06:20.463Z</time>
      </trkpt>
      <trkpt lat="42.77185" lon="-0.82775">
        <ele>898.179264</ele>
        <time>2022-08-30T03:06:34.502Z</time>
      </trkpt>
      <trkpt lat="42.77112" lon="-0.82821">
        <ele>896.995241</ele>
        <time>2022-08-30T03:06:49.621Z</time>
      </trkpt>
      <trkpt lat="42.77036" lon="-0.82846">
        <ele>895.815199</ele>
        <time>2022-08-30T03:07:04.591Z</time>
      </trkpt>
      <trkpt lat="42.76888" lon="-0.82832">
        <ele>892.7723</ele>
        <time>2022-08-30T03:07:35.644Z</time>
      </trkpt>
      <trkpt lat="42.76872" lon="-0.82835">
        <ele>892.189282</ele>
        <time>2022-08-30T03:07:38.769Z</time>
      </trkpt>
      <trkpt lat="42.76813" lon="-0.82866">
        <ele>890.003923</ele>
        <time>2022-08-30T03:07:49.711Z</time>
      </trkpt>
      <trkpt lat="42.76728" lon="-0.82897">
        <ele>887.037219</ele>
        <time>2022-08-30T03:08:04.206Z</time>
      </trkpt>
      <trkpt lat="42.76637" lon="-0.82939">
        <ele>884.12</ele>
        <time>2022-08-30T03:08:20.290Z</time>
      </trkpt>
      <trkpt lat="42.76599" lon="-0.82946">
        <ele>882.92585</ele>
        <time>2022-08-30T03:08:28.682Z</time>
      </trkpt>
      <trkpt lat="42.7655" lon="-0.82944">
        <ele>883.33738</ele>
        <time>2022-08-30T03:08:44.208Z</time>
      </trkpt>
      <trkpt lat="42.76505" lon="-0.82922">
        <ele>884.619031</ele>
        <time>2022-08-30T03:09:01.825Z</time>
      </trkpt>
      <trkpt lat="42.76477" lon="-0.82916">
        <ele>885.359103</ele>
        <time>2022-08-30T03:09:13.313Z</time>
      </trkpt>
      <trkpt lat="42.76422" lon="-0.82946">
        <ele>886.940016</ele>
        <time>2022-08-30T03:09:36.915Z</time>
      </trkpt>
      <trkpt lat="42.76406" lon="-0.82948">
        <ele>887.404509</ele>
        <time>2022-08-30T03:09:44.080Z</time>
      </trkpt>
      <trkpt lat="42.76381" lon="-0.82936">
        <ele>888.169013</ele>
        <time>2022-08-30T03:09:55.621Z</time>
      </trkpt>
      <trkpt lat="42.763" lon="-0.82917">
        <ele>890.598643</ele>
        <time>2022-08-30T03:10:28.950Z</time>
      </trkpt>
      <trkpt lat="42.76251" lon="-0.82889">
        <ele>892.177134</ele>
        <time>2022-08-30T03:10:46.254Z</time>
      </trkpt>
      <trkpt lat="42.76238" lon="-0.82889">
        <ele>892.557999</ele>
        <time>2022-08-30T03:10:50.950Z</time>
      </trkpt>
      <trkpt lat="42.76181" lon="-0.82917">
        <ele>893.388039</ele>
        <time>2022-08-30T03:11:10.894Z</time>
      </trkpt>
      <trkpt lat="42.76021" lon="-0.82917">
        <ele>892.723282</ele>
        <time>2022-08-30T03:11:58.514Z</time>
      </trkpt>
      <trkpt lat="42.76004" lon="-0.82911">
        <ele>891.698635</ele>
        <time>2022-08-30T03:12:01.627Z</time>
      </trkpt>
      <trkpt lat="42.75966" lon="-0.82879">
        <ele>889.199201</ele>
        <time>2022-08-30T03:12:08.828Z</time>
      </trkpt>
      <trkpt lat="42.75917" lon="-0.82852">
        <ele>886.205201</ele>
        <time>2022-08-30T03:12:16.874Z</time>
      </trkpt>
      <trkpt lat="42.75856" lon="-0.8286">
        <ele>880.974989</ele>
        <time>2022-08-30T03:12:25.315Z</time>
      </trkpt>
      <trkpt lat="42.75782" lon="-0.82822">
        <ele>872.697217</ele>
        <time>2022-08-30T03:12:36.394Z</time>
      </trkpt>
      <trkpt lat="42.75747" lon="-0.82809">
        <ele>868.835817</ele>
        <time>2022-08-30T03:12:41.560Z</time>
      </trkpt>
      <trkpt lat="42.75733" lon="-0.82808">
        <ele>867.419763</ele>
        <time>2022-08-30T03:12:43.486Z</time>
      </trkpt>
      <trkpt lat="42.75719" lon="-0.82804">
        <ele>865.99039</ele>
        <time>2022-08-30T03:12:45.476Z</time>
      </trkpt>
      <trkpt lat="42.75697" lon="-0.82781">
        <ele>864.353321</ele>
        <time>2022-08-30T03:12:49.805Z</time>
      </trkpt>
      <trkpt lat="42.75683" lon="-0.82752">
        <ele>862.813079</ele>
        <time>2022-08-30T03:12:54.034Z</time>
      </trkpt>
      <trkpt lat="42.75646" lon="-0.82767">
        <ele>860.588633</ele>
        <time>2022-08-30T03:13:00.274Z</time>
      </trkpt>
      <trkpt lat="42.75639" lon="-0.82769">
        <ele>860.131755</ele>
        <time>2022-08-30T03:13:01.558Z</time>
      </trkpt>
      <trkpt lat="42.75629" lon="-0.82773">
        <ele>859.548481</ele>
        <time>2022-08-30T03:13:03.249Z</time>
      </trkpt>
      <trkpt lat="42.75614" lon="-0.82784">
        <ele>858.548756</ele>
        <time>2022-08-30T03:13:06.160Z</time>
      </trkpt>
      <trkpt lat="42.75599" lon="-0.82794">
        <ele>857.528218</ele>
        <time>2022-08-30T03:13:09.037Z</time>
      </trkpt>
      <trkpt lat="42.75593" lon="-0.82799">
        <ele>857.148058</ele>
        <time>2022-08-30T03:13:10.206Z</time>
      </trkpt>
      <trkpt lat="42.75579" lon="-0.8281">
        <ele>856.184452</ele>
        <time>2022-08-30T03:13:13.024Z</time>
      </trkpt>
      <trkpt lat="42.75536" lon="-0.82843">
        <ele>853.326982</ele>
        <time>2022-08-30T03:13:21.437Z</time>
      </trkpt>
      <trkpt lat="42.75514" lon="-0.82856">
        <ele>851.889715</ele>
        <time>2022-08-30T03:13:25.405Z</time>
      </trkpt>
      <trkpt lat="42.75492" lon="-0.82867">
        <ele>850.535262</ele>
        <time>2022-08-30T03:13:29.149Z</time>
      </trkpt>
      <trkpt lat="42.75488" lon="-0.82876">
        <ele>850.091588</ele>
        <time>2022-08-30T03:13:30.305Z</time>
      </trkpt>
      <trkpt lat="42.75481" lon="-0.82881">
        <ele>849.631856</ele>
        <time>2022-08-30T03:13:31.570Z</time>
      </trkpt>
      <trkpt lat="42.75481" lon="-0.8289">
        <ele>849.258677</ele>
        <time>2022-08-30T03:13:32.606Z</time>
      </trkpt>
      <trkpt lat="42.75462" lon="-0.82904">
        <ele>847.992785</ele>
        <time>2022-08-30T03:13:36.073Z</time>
      </trkpt>
      <trkpt lat="42.7545" lon="-0.82904">
        <ele>847.311808</ele>
        <time>2022-08-30T03:13:37.979Z</time>
      </trkpt>
      <trkpt lat="42.75439" lon="-0.82889">
        <ele>846.41845</ele>
        <time>2022-08-30T03:13:40.479Z</time>
      </trkpt>
      <trkpt lat="42.75411" lon="-0.8291">
        <ele>844.586874</ele>
        <time>2022-08-30T03:13:45.593Z</time>
      </trkpt>
      <trkpt lat="42.75396" lon="-0.82918">
        <ele>843.707509</ele>
        <time>2022-08-30T03:13:48.183Z</time>
      </trkpt>
      <trkpt lat="42.75362" lon="-0.82935">
        <ele>841.789089</ele>
        <time>2022-08-30T03:13:54.022Z</time>
      </trkpt>
      <trkpt lat="42.75327" lon="-0.82933">
        <ele>839.902251</ele>
        <time>2022-08-30T03:13:59.818Z</time>
      </trkpt>
      <trkpt lat="42.75301" lon="-0.8294">
        <ele>838.482484</ele>
        <time>2022-08-30T03:14:04.305Z</time>
      </trkpt>
      <trkpt lat="42.75289" lon="-0.82955">
        <ele>837.604623</ele>
        <time>2022-08-30T03:14:07.037Z</time>
      </trkpt>
      <trkpt lat="42.75256" lon="-0.82927">
        <ele>835.557387</ele>
        <time>2022-08-30T03:14:13.468Z</time>
      </trkpt>
      <trkpt lat="42.7525" lon="-0.82928">
        <ele>835.243939</ele>
        <time>2022-08-30T03:14:14.511Z</time>
      </trkpt>
      <trkpt lat="42.75246" lon="-0.82937">
        <ele>834.814209</ele>
        <time>2022-08-30T03:14:15.907Z</time>
      </trkpt>
      <trkpt lat="42.75231" lon="-0.82936">
        <ele>834.063981</ele>
        <time>2022-08-30T03:14:18.274Z</time>
      </trkpt>
      <trkpt lat="42.7518" lon="-0.82952">
        <ele>831.44977</ele>
        <time>2022-08-30T03:14:26.458Z</time>
      </trkpt>
      <trkpt lat="42.75143" lon="-0.82937">
        <ele>829.522157</ele>
        <time>2022-08-30T03:14:32.455Z</time>
      </trkpt>
      <trkpt lat="42.75117" lon="-0.82912">
        <ele>827.895325</ele>
        <time>2022-08-30T03:14:37.575Z</time>
      </trkpt>
      <trkpt lat="42.75079" lon="-0.82835">
        <ele>825.054772</ele>
        <time>2022-08-30T03:14:48.348Z</time>
      </trkpt>
      <trkpt lat="42.74993" lon="-0.82655">
        <ele>819.838375</ele>
        <time>2022-08-30T03:15:15.379Z</time>
      </trkpt>
      <trkpt lat="42.74961" lon="-0.82612">
        <ele>819.17661</ele>
        <time>2022-08-30T03:15:24.068Z</time>
      </trkpt>
      <trkpt lat="42.7495" lon="-0.82615">
        <ele>819.003299</ele>
        <time>2022-08-30T03:15:26.053Z</time>
      </trkpt>
      <trkpt lat="42.74944" lon="-0.82604">
        <ele>818.857483</ele>
        <time>2022-08-30T03:15:28.081Z</time>
      </trkpt>
      <trkpt lat="42.74947" lon="-0.82594">
        <ele>818.741916</ele>
        <time>2022-08-30T03:15:31.060Z</time>
      </trkpt>
      <trkpt lat="42.74748" lon="-0.82377">
        <ele>813.72337</ele>
        <time>2022-08-30T03:16:20.629Z</time>
      </trkpt>
      <trkpt lat="42.74596" lon="-0.82252">
        <ele>802.777669</ele>
        <time>2022-08-30T03:16:47.280Z</time>
      </trkpt>
      <trkpt lat="42.74554" lon="-0.8221">
        <ele>799.993879</ele>
        <time>2022-08-30T03:16:54.820Z</time>
      </trkpt>
      <trkpt lat="42.7434" lon="-0.81945">
        <ele>790.667992</ele>
        <time>2022-08-30T03:17:42.807Z</time>
      </trkpt>
      <trkpt lat="42.74078" lon="-0.81614">
        <ele>804.430794</ele>
        <time>2022-08-30T03:20:36.976Z</time>
      </trkpt>
      <trkpt lat="42.74043" lon="-0.81581">
        <ele>805.890857</ele>
        <time>2022-08-30T03:20:48.583Z</time>
      </trkpt>
      <trkpt lat="42.74004" lon="-0.81573">
        <ele>804.771655</ele>
        <time>2022-08-30T03:20:56.899Z</time>
      </trkpt>
      <trkpt lat="42.73923" lon="-0.81606">
        <ele>802.373713</ele>
        <time>2022-08-30T03:21:11.708Z</time>
      </trkpt>
      <trkpt lat="42.73895" lon="-0.81609">
        <ele>801.578713</ele>
        <time>2022-08-30T03:21:16.121Z</time>
      </trkpt>
      <trkpt lat="42.73786" lon="-0.8157">
        <ele>794.232307</ele>
        <time>2022-08-30T03:21:33.218Z</time>
      </trkpt>
      <trkpt lat="42.73666" lon="-0.81559">
        <ele>785.463298</ele>
        <time>2022-08-30T03:21:50.718Z</time>
      </trkpt>
      <trkpt lat="42.7364" lon="-0.81552">
        <ele>783.773858</ele>
        <time>2022-08-30T03:21:54.476Z</time>
      </trkpt>
      <trkpt lat="42.73613" lon="-0.81532">
        <ele>781.749802</ele>
        <time>2022-08-30T03:21:59.009Z</time>
      </trkpt>
      <trkpt lat="42.73606" lon="-0.81549">
        <ele>780.805665</ele>
        <time>2022-08-30T03:22:01.160Z</time>
      </trkpt>
      <trkpt lat="42.73581" lon="-0.81541">
        <ele>779.099098</ele>
        <time>2022-08-30T03:22:05.126Z</time>
      </trkpt>
      <trkpt lat="42.73578" lon="-0.8154">
        <ele>778.897386</ele>
        <time>2022-08-30T03:22:05.593Z</time>
      </trkpt>
      <trkpt lat="42.73511" lon="-0.81521">
        <ele>775.191857</ele>
        <time>2022-08-30T03:22:16.680Z</time>
      </trkpt>
      <trkpt lat="42.73466" lon="-0.81509">
        <ele>774.221219</ele>
        <time>2022-08-30T03:22:24.841Z</time>
      </trkpt>
      <trkpt lat="42.73373" lon="-0.81465">
        <ele>772.145197</ele>
        <time>2022-08-30T03:22:43.800Z</time>
      </trkpt>
      <trkpt lat="42.73294" lon="-0.81428">
        <ele>770.675296</ele>
        <time>2022-08-30T03:23:00.147Z</time>
      </trkpt>
      <trkpt lat="42.73097" lon="-0.81439">
        <ele>767.719102</ele>
        <time>2022-08-30T03:23:36.593Z</time>
      </trkpt>
      <trkpt lat="42.73032" lon="-0.81386">
        <ele>766.703551</ele>
        <time>2022-08-30T03:23:51.522Z</time>
      </trkpt>
      <trkpt lat="42.73019" lon="-0.81381">
        <ele>766.531263</ele>
        <time>2022-08-30T03:23:54.175Z</time>
      </trkpt>
      <trkpt lat="42.72979" lon="-0.81407">
        <ele>766.978856</ele>
        <time>2022-08-30T03:24:03.445Z</time>
      </trkpt>
      <trkpt lat="42.72963" lon="-0.81407">
        <ele>767.224402</ele>
        <time>2022-08-30T03:24:07.004Z</time>
      </trkpt>
      <trkpt lat="42.72858" lon="-0.81333">
        <ele>769.005474</ele>
        <time>2022-08-30T03:24:43.338Z</time>
      </trkpt>
      <trkpt lat="42.72795" lon="-0.81301">
        <ele>771.53407</ele>
        <time>2022-08-30T03:25:16.231Z</time>
      </trkpt>
      <trkpt lat="42.72757" lon="-0.81274">
        <ele>773.324847</ele>
        <time>2022-08-30T03:25:36.555Z</time>
      </trkpt>
      <trkpt lat="42.72741" lon="-0.8124">
        <ele>774.52277</ele>
        <time>2022-08-30T03:25:50.660Z</time>
      </trkpt>
      <trkpt lat="42.72697" lon="-0.81203">
        <ele>776.494077</ele>
        <time>2022-08-30T03:26:11.713Z</time>
      </trkpt>
      <trkpt lat="42.72602" lon="-0.81189">
        <ele>774.902296</ele>
        <time>2022-08-30T03:26:39.463Z</time>
      </trkpt>
      <trkpt lat="42.72405" lon="-0.81086">
        <ele>766.301467</ele>
        <time>2022-08-30T03:27:11.803Z</time>
      </trkpt>
      <trkpt lat="42.72293" lon="-0.81044">
        <ele>762.017978</ele>
        <time>2022-08-30T03:27:30.631Z</time>
      </trkpt>
      <trkpt lat="42.7225" lon="-0.81014">
        <ele>760.965531</ele>
        <time>2022-08-30T03:27:39.547Z</time>
      </trkpt>
      <trkpt lat="42.72231" lon="-0.8099">
        <ele>760.401508</ele>
        <time>2022-08-30T03:27:44.761Z</time>
      </trkpt>
      <trkpt lat="42.72191" lon="-0.80919">
        <ele>759.60767</ele>
        <time>2022-08-30T03:27:59.795Z</time>
      </trkpt>
      <trkpt lat="42.72154" lon="-0.80806">
        <ele>759.902976</ele>
        <time>2022-08-30T03:28:24.180Z</time>
      </trkpt>
      <trkpt lat="42.72141" lon="-0.80781">
        <ele>759.977159</ele>
        <time>2022-08-30T03:28:29.902Z</time>
      </trkpt>
      <trkpt lat="42.72007" lon="-0.80681">
        <ele>759.298514</ele>
        <time>2022-08-30T03:29:02.369Z</time>
      </trkpt>
      <trkpt lat="42.71989" lon="-0.80658">
        <ele>759.122814</ele>
        <time>2022-08-30T03:29:07.165Z</time>
      </trkpt>
      <trkpt lat="42.71948" lon="-0.80576">
        <ele>758.333132</ele>
        <time>2022-08-30T03:29:21.157Z</time>
      </trkpt>
      <trkpt lat="42.71793" lon="-0.80403">
        <ele>755.651882</ele>
        <time>2022-08-30T03:29:58.706Z</time>
      </trkpt>
      <trkpt lat="42.71691" lon="-0.80219">
        <ele>754.434268</ele>
        <time>2022-08-30T03:30:35.295Z</time>
      </trkpt>
      <trkpt lat="42.71626" lon="-0.80077">
        <ele>753.432922</ele>
        <time>2022-08-30T03:31:00.586Z</time>
      </trkpt>
      <trkpt lat="42.71558" lon="-0.79963">
        <ele>750.957709</ele>
        <time>2022-08-30T03:31:20.170Z</time>
      </trkpt>
      <trkpt lat="42.71528" lon="-0.79928">
        <ele>749.941102</ele>
        <time>2022-08-30T03:31:26.943Z</time>
      </trkpt>
      <trkpt lat="42.71495" lon="-0.79901">
        <ele>748.96006</ele>
        <time>2022-08-30T03:31:33.348Z</time>
      </trkpt>
      <trkpt lat="42.71372" lon="-0.79841">
        <ele>746.451637</ele>
        <time>2022-08-30T03:31:56.310Z</time>
      </trkpt>
      <trkpt lat="42.71344" lon="-0.79818">
        <ele>745.83321</ele>
        <time>2022-08-30T03:32:02.644Z</time>
      </trkpt>
      <trkpt lat="42.71332" lon="-0.79793">
        <ele>745.413793</ele>
        <time>2022-08-30T03:32:07.175Z</time>
      </trkpt>
      <trkpt lat="42.71274" lon="-0.79588">
        <ele>747.95847</ele>
        <time>2022-08-30T03:32:54.394Z</time>
      </trkpt>
      <trkpt lat="42.71248" lon="-0.79404">
        <ele>753.734991</ele>
        <time>2022-08-30T03:33:54.573Z</time>
      </trkpt>
      <trkpt lat="42.71204" lon="-0.79281">
        <ele>758.437105</ele>
        <time>2022-08-30T03:34:47.086Z</time>
      </trkpt>
      <trkpt lat="42.7117" lon="-0.79229">
        <ele>760.816929</ele>
        <time>2022-08-30T03:35:12.797Z</time>
      </trkpt>
      <trkpt lat="42.7115" lon="-0.79206">
        <ele>762.051956</ele>
        <time>2022-08-30T03:35:25.354Z</time>
      </trkpt>
      <trkpt lat="42.71069" lon="-0.79149">
        <ele>765.057567</ele>
        <time>2022-08-30T03:36:02.185Z</time>
      </trkpt>
      <trkpt lat="42.70974" lon="-0.79103">
        <ele>764.609425</ele>
        <time>2022-08-30T03:36:25.463Z</time>
      </trkpt>
      <trkpt lat="42.70936" lon="-0.79088">
        <ele>764.431193</ele>
        <time>2022-08-30T03:36:32.555Z</time>
      </trkpt>
      <trkpt lat="42.70816" lon="-0.79072">
        <ele>759.515944</ele>
        <time>2022-08-30T03:36:51.565Z</time>
      </trkpt>
      <trkpt lat="42.70711" lon="-0.79063">
        <ele>755.973294</ele>
        <time>2022-08-30T03:37:08.254Z</time>
      </trkpt>
      <trkpt lat="42.70656" lon="-0.79049">
        <ele>755.830913</ele>
        <time>2022-08-30T03:37:18.371Z</time>
      </trkpt>
      <trkpt lat="42.70594" lon="-0.79024">
        <ele>755.664413</ele>
        <time>2022-08-30T03:37:37.537Z</time>
      </trkpt>
      <trkpt lat="42.70575" lon="-0.79013">
        <ele>755.612937</ele>
        <time>2022-08-30T03:37:46.216Z</time>
      </trkpt>
      <trkpt lat="42.70553" lon="-0.78991">
        <ele>756.375932</ele>
        <time>2022-08-30T03:37:58.111Z</time>
      </trkpt>
      <trkpt lat="42.7055" lon="-0.78986">
        <ele>756.580079</ele>
        <time>2022-08-30T03:38:00.759Z</time>
      </trkpt>
      <trkpt lat="42.70531" lon="-0.78962">
        <ele>757.639137</ele>
        <time>2022-08-30T03:38:12.399Z</time>
      </trkpt>
      <trkpt lat="42.70503" lon="-0.7896">
        <ele>758.808064</ele>
        <time>2022-08-30T03:38:25.999Z</time>
      </trkpt>
      <trkpt lat="42.70482" lon="-0.78955">
        <ele>759.696739</ele>
        <time>2022-08-30T03:38:37.483Z</time>
      </trkpt>
      <trkpt lat="42.70413" lon="-0.78917">
        <ele>762.775586</ele>
        <time>2022-08-30T03:39:13.836Z</time>
      </trkpt>
      <trkpt lat="42.70301" lon="-0.78882">
        <ele>759.500426</ele>
        <time>2022-08-30T03:39:37.308Z</time>
      </trkpt>
      <trkpt lat="42.7022" lon="-0.78886">
        <ele>756.324249</ele>
        <time>2022-08-30T03:39:49.170Z</time>
      </trkpt>
      <trkpt lat="42.70145" lon="-0.78885">
        <ele>749.619052</ele>
        <time>2022-08-30T03:39:59.718Z</time>
      </trkpt>
      <trkpt lat="42.70123" lon="-0.78889">
        <ele>747.685861</ele>
        <time>2022-08-30T03:40:02.802Z</time>
      </trkpt>
      <trkpt lat="42.70098" lon="-0.78908">
        <ele>745.046427</ele>
        <time>2022-08-30T03:40:07.027Z</time>
      </trkpt>
      <trkpt lat="42.70078" lon="-0.78937">
        <ele>742.452834</ele>
        <time>2022-08-30T03:40:11.195Z</time>
      </trkpt>
      <trkpt lat="42.70069" lon="-0.78974">
        <ele>740.84075</ele>
        <time>2022-08-30T03:40:15.420Z</time>
      </trkpt>
      <trkpt lat="42.70062" lon="-0.7899">
        <ele>740.573716</ele>
        <time>2022-08-30T03:40:17.711Z</time>
      </trkpt>
      <trkpt lat="42.70036" lon="-0.78995">
        <ele>740.035568</ele>
        <time>2022-08-30T03:40:22.060Z</time>
      </trkpt>
      <trkpt lat="42.69985" lon="-0.78979">
        <ele>738.986774</ele>
        <time>2022-08-30T03:40:32.581Z</time>
      </trkpt>
      <trkpt lat="42.69923" lon="-0.7894">
        <ele>737.629796</ele>
        <time>2022-08-30T03:40:49.364Z</time>
      </trkpt>
      <trkpt lat="42.69858" lon="-0.78933">
        <ele>737.453974</ele>
        <time>2022-08-30T03:41:07.978Z</time>
      </trkpt>
      <trkpt lat="42.69807" lon="-0.78915">
        <ele>737.402414</ele>
        <time>2022-08-30T03:41:20.547Z</time>
      </trkpt>
      <trkpt lat="42.69766" lon="-0.78863">
        <ele>737.347408</ele>
        <time>2022-08-30T03:41:31.575Z</time>
      </trkpt>
      <trkpt lat="42.6972" lon="-0.78791">
        <ele>736.470643</ele>
        <time>2022-08-30T03:41:44.703Z</time>
      </trkpt>
      <trkpt lat="42.69677" lon="-0.78701">
        <ele>735.310179</ele>
        <time>2022-08-30T03:41:59.425Z</time>
      </trkpt>
      <trkpt lat="42.6964" lon="-0.78646">
        <ele>734.718759</ele>
        <time>2022-08-30T03:42:10.004Z</time>
      </trkpt>
      <trkpt lat="42.69625" lon="-0.7863">
        <ele>734.780015</ele>
        <time>2022-08-30T03:42:13.871Z</time>
      </trkpt>
      <trkpt lat="42.6958" lon="-0.78626">
        <ele>734.918513</ele>
        <time>2022-08-30T03:42:23.206Z</time>
      </trkpt>
      <trkpt lat="42.69533" lon="-0.78576">
        <ele>735.106639</ele>
        <time>2022-08-30T03:42:38.678Z</time>
      </trkpt>
      <trkpt lat="42.69444" lon="-0.78523">
        <ele>736.057927</ele>
        <time>2022-08-30T03:43:08.820Z</time>
      </trkpt>
      <trkpt lat="42.69416" lon="-0.78515">
        <ele>736.492805</ele>
        <time>2022-08-30T03:43:17.943Z</time>
      </trkpt>
      <trkpt lat="42.69374" lon="-0.78514">
        <ele>737.135315</ele>
        <time>2022-08-30T03:43:31.703Z</time>
      </trkpt>
      <trkpt lat="42.69309" lon="-0.78485">
        <ele>737.906035</ele>
        <time>2022-08-30T03:43:50.524Z</time>
      </trkpt>
      <trkpt lat="42.69295" lon="-0.78492">
        <ele>737.795819</ele>
        <time>2022-08-30T03:43:54.723Z</time>
      </trkpt>
      <trkpt lat="42.69256" lon="-0.78538">
        <ele>737.431646</ele>
        <time>2022-08-30T03:44:06.606Z</time>
      </trkpt>
      <trkpt lat="42.69238" lon="-0.78544">
        <ele>737.300417</ele>
        <time>2022-08-30T03:44:10.586Z</time>
      </trkpt>
      <trkpt lat="42.69227" lon="-0.78526">
        <ele>737.175628</ele>
        <time>2022-08-30T03:44:13.812Z</time>
      </trkpt>
      <trkpt lat="42.69226" lon="-0.78455">
        <ele>736.8052</ele>
        <time>2022-08-30T03:44:23.415Z</time>
      </trkpt>
      <trkpt lat="42.69217" lon="-0.78427">
        <ele>736.648963</ele>
        <time>2022-08-30T03:44:27.338Z</time>
      </trkpt>
      <trkpt lat="42.69202" lon="-0.78415">
        <ele>736.530995</ele>
        <time>2022-08-30T03:44:30.507Z</time>
      </trkpt>
      <trkpt lat="42.69124" lon="-0.78387">
        <ele>735.992685</ele>
        <time>2022-08-30T03:44:45.404Z</time>
      </trkpt>
      <trkpt lat="42.69062" lon="-0.7832">
        <ele>735.636571</ele>
        <time>2022-08-30T03:45:06.746Z</time>
      </trkpt>
      <trkpt lat="42.69025" lon="-0.78304">
        <ele>736.280341</ele>
        <time>2022-08-30T03:45:19.422Z</time>
      </trkpt>
      <trkpt lat="42.69013" lon="-0.78306">
        <ele>736.479769</ele>
        <time>2022-08-30T03:45:23.241Z</time>
      </trkpt>
      <trkpt lat="42.69" lon="-0.78321">
        <ele>736.767663</ele>
        <time>2022-08-30T03:45:30.486Z</time>
      </trkpt>
      <trkpt lat="42.68991" lon="-0.78383">
        <ele>737.536013</ele>
        <time>2022-08-30T03:45:44.841Z</time>
      </trkpt>
      <trkpt lat="42.68975" lon="-0.7843">
        <ele>738.169843</ele>
        <time>2022-08-30T03:45:56.297Z</time>
      </trkpt>
      <trkpt lat="42.68952" lon="-0.78472">
        <ele>738.408626</ele>
        <time>2022-08-30T03:46:07.542Z</time>
      </trkpt>
      <trkpt lat="42.68933" lon="-0.78484">
        <ele>738.318929</ele>
        <time>2022-08-30T03:46:14.198Z</time>
      </trkpt>
      <trkpt lat="42.68926" lon="-0.78481">
        <ele>738.288399</ele>
        <time>2022-08-30T03:46:15.657Z</time>
      </trkpt>
      <trkpt lat="42.68916" lon="-0.78464">
        <ele>738.221057</ele>
        <time>2022-08-30T03:46:18.609Z</time>
      </trkpt>
      <trkpt lat="42.68905" lon="-0.78405">
        <ele>738.031289</ele>
        <time>2022-08-30T03:46:27.787Z</time>
      </trkpt>
      <trkpt lat="42.68926" lon="-0.7833">
        <ele>737.77884</ele>
        <time>2022-08-30T03:46:38.892Z</time>
      </trkpt>
      <trkpt lat="42.68926" lon="-0.78311">
        <ele>737.738039</ele>
        <time>2022-08-30T03:46:41.563Z</time>
      </trkpt>
      <trkpt lat="42.68918" lon="-0.78296">
        <ele>737.884989</ele>
        <time>2022-08-30T03:46:43.950Z</time>
      </trkpt>
      <trkpt lat="42.68903" lon="-0.78291">
        <ele>738.053425</ele>
        <time>2022-08-30T03:46:46.887Z</time>
      </trkpt>
      <trkpt lat="42.68877" lon="-0.78292">
        <ele>738.336729</ele>
        <time>2022-08-30T03:46:52.871Z</time>
      </trkpt>
      <trkpt lat="42.68833" lon="-0.78323">
        <ele>738.880493</ele>
        <time>2022-08-30T03:47:07.514Z</time>
      </trkpt>
      <trkpt lat="42.68819" lon="-0.78317">
        <ele>739.040473</ele>
        <time>2022-08-30T03:47:11.690Z</time>
      </trkpt>
      <trkpt lat="42.68787" lon="-0.78286">
        <ele>739.475058</ele>
        <time>2022-08-30T03:47:25.147Z</time>
      </trkpt>
      <trkpt lat="42.68775" lon="-0.78284">
        <ele>739.611056</ele>
        <time>2022-08-30T03:47:30.142Z</time>
      </trkpt>
      <trkpt lat="42.68755" lon="-0.78305">
        <ele>740.135453</ele>
        <time>2022-08-30T03:47:39.683Z</time>
      </trkpt>
      <trkpt lat="42.68744" lon="-0.78309">
        <ele>740.423391</ele>
        <time>2022-08-30T03:47:44.481Z</time>
      </trkpt>
      <trkpt lat="42.68725" lon="-0.78271">
        <ele>741.247956</ele>
        <time>2022-08-30T03:47:56.616Z</time>
      </trkpt>
      <trkpt lat="42.6871" lon="-0.78264">
        <ele>741.6514</ele>
        <time>2022-08-30T03:48:02.553Z</time>
      </trkpt>
      <trkpt lat="42.68693" lon="-0.78279">
        <ele>742.142425</ele>
        <time>2022-08-30T03:48:10.024Z</time>
      </trkpt>
      <trkpt lat="42.68687" lon="-0.78299">
        <ele>742.537882</ele>
        <time>2022-08-30T03:48:16.009Z</time>
      </trkpt>
      <trkpt lat="42.68686" lon="-0.78359">
        <ele>743.62692</ele>
        <time>2022-08-30T03:48:31.575Z</time>
      </trkpt>
      <trkpt lat="42.68678" lon="-0.78378">
        <ele>744.027238</ele>
        <time>2022-08-30T03:48:36.757Z</time>
      </trkpt>
      <trkpt lat="42.68665" lon="-0.78389">
        <ele>743.99147</ele>
        <time>2022-08-30T03:48:41.007Z</time>
      </trkpt>
      <trkpt lat="42.68649" lon="-0.78385">
        <ele>743.702095</ele>
        <time>2022-08-30T03:48:45.068Z</time>
      </trkpt>
      <trkpt lat="42.68625" lon="-0.78365">
        <ele>743.208132</ele>
        <time>2022-08-30T03:48:51.504Z</time>
      </trkpt>
      <trkpt lat="42.68607" lon="-0.7836">
        <ele>742.883259</ele>
        <time>2022-08-30T03:48:55.479Z</time>
      </trkpt>
      <trkpt lat="42.68574" lon="-0.78379">
        <ele>742.25134</ele>
        <time>2022-08-30T03:49:01.996Z</time>
      </trkpt>
      <trkpt lat="42.68558" lon="-0.78381">
        <ele>741.954732</ele>
        <time>2022-08-30T03:49:04.866Z</time>
      </trkpt>
      <trkpt lat="42.68452" lon="-0.78331">
        <ele>739.545228</ele>
        <time>2022-08-30T03:49:22.894Z</time>
      </trkpt>
      <trkpt lat="42.6843" lon="-0.78326">
        <ele>738.971508</ele>
        <time>2022-08-30T03:49:26.305Z</time>
      </trkpt>
      <trkpt lat="42.683" lon="-0.78337">
        <ele>736.231115</ele>
        <time>2022-08-30T03:49:53.134Z</time>
      </trkpt>
      <trkpt lat="42.68275" lon="-0.78346">
        <ele>736.076122</ele>
        <time>2022-08-30T03:49:57.637Z</time>
      </trkpt>
      <trkpt lat="42.68266" lon="-0.78364">
        <ele>735.980563</ele>
        <time>2022-08-30T03:50:06.422Z</time>
      </trkpt>
      <trkpt lat="42.68263" lon="-0.78488">
        <ele>735.424795</ele>
        <time>2022-08-30T03:50:24.484Z</time>
      </trkpt>
      <trkpt lat="42.68255" lon="-0.78504">
        <ele>735.335356</ele>
        <time>2022-08-30T03:50:30.705Z</time>
      </trkpt>
      <trkpt lat="42.68242" lon="-0.78512">
        <ele>734.882403</ele>
        <time>2022-08-30T03:50:32.958Z</time>
      </trkpt>
      <trkpt lat="42.6823" lon="-0.78506">
        <ele>734.368711</ele>
        <time>2022-08-30T03:50:35.203Z</time>
      </trkpt>
      <trkpt lat="42.68213" lon="-0.78465">
        <ele>732.996085</ele>
        <time>2022-08-30T03:50:41.537Z</time>
      </trkpt>
      <trkpt lat="42.68188" lon="-0.78337">
        <ele>729.115746</ele>
        <time>2022-08-30T03:50:56.777Z</time>
      </trkpt>
      <trkpt lat="42.68155" lon="-0.78289">
        <ele>727.624668</ele>
        <time>2022-08-30T03:51:04.422Z</time>
      </trkpt>
      <trkpt lat="42.6813" lon="-0.78267">
        <ele>726.956579</ele>
        <time>2022-08-30T03:51:09.297Z</time>
      </trkpt>
      <trkpt lat="42.68109" lon="-0.78266">
        <ele>726.474515</ele>
        <time>2022-08-30T03:51:13.057Z</time>
      </trkpt>
      <trkpt lat="42.68092" lon="-0.78274">
        <ele>726.060811</ele>
        <time>2022-08-30T03:51:16.491Z</time>
      </trkpt>
      <trkpt lat="42.67798" lon="-0.78443">
        <ele>719.842599</ele>
        <time>2022-08-30T03:52:21.070Z</time>
      </trkpt>
      <trkpt lat="42.67783" lon="-0.7844">
        <ele>719.081319</ele>
        <time>2022-08-30T03:52:23.517Z</time>
      </trkpt>
      <trkpt lat="42.67769" lon="-0.78426">
        <ele>718.229555</ele>
        <time>2022-08-30T03:52:26.073Z</time>
      </trkpt>
      <trkpt lat="42.67733" lon="-0.78355">
        <ele>715.159601</ele>
        <time>2022-08-30T03:52:35.563Z</time>
      </trkpt>
      <trkpt lat="42.67691" lon="-0.78305">
        <ele>712.790719</ele>
        <time>2022-08-30T03:52:44.047Z</time>
      </trkpt>
      <trkpt lat="42.67673" lon="-0.78292">
        <ele>712.100817</ele>
        <time>2022-08-30T03:52:47.083Z</time>
      </trkpt>
      <trkpt lat="42.67649" lon="-0.78295">
        <ele>711.284941</ele>
        <time>2022-08-30T03:52:51.042Z</time>
      </trkpt>
      <trkpt lat="42.67601" lon="-0.78317">
        <ele>709.567768</ele>
        <time>2022-08-30T03:52:59.910Z</time>
      </trkpt>
      <trkpt lat="42.67536" lon="-0.78367">
        <ele>707.829113</ele>
        <time>2022-08-30T03:53:14.468Z</time>
      </trkpt>
      <trkpt lat="42.67514" lon="-0.78398">
        <ele>708.449371</ele>
        <time>2022-08-30T03:53:21.463Z</time>
      </trkpt>
      <trkpt lat="42.67488" lon="-0.78461">
        <ele>709.481422</ele>
        <time>2022-08-30T03:53:35.371Z</time>
      </trkpt>
      <trkpt lat="42.67469" lon="-0.78487">
        <ele>710.001843</ele>
        <time>2022-08-30T03:53:44.889Z</time>
      </trkpt>
      <trkpt lat="42.67445" lon="-0.78495">
        <ele>710.479964</ele>
        <time>2022-08-30T03:53:54.211Z</time>
      </trkpt>
      <trkpt lat="42.67386" lon="-0.78486">
        <ele>714.322909</ele>
        <time>2022-08-30T03:54:21.961Z</time>
      </trkpt>
      <trkpt lat="42.67326" lon="-0.78521">
        <ele>721.272344</ele>
        <time>2022-08-30T03:55:07.037Z</time>
      </trkpt>
      <trkpt lat="42.67278" lon="-0.78593">
        <ele>728.938171</ele>
        <time>2022-08-30T03:56:14.178Z</time>
      </trkpt>
      <trkpt lat="42.67271" lon="-0.78651">
        <ele>733.892163</ele>
        <time>2022-08-30T03:56:58.415Z</time>
      </trkpt>
      <trkpt lat="42.67209" lon="-0.78698">
        <ele>742.377588</ele>
        <time>2022-08-30T03:58:03.440Z</time>
      </trkpt>
      <trkpt lat="42.67174" lon="-0.78762">
        <ele>749.285018</ele>
        <time>2022-08-30T03:58:47.578Z</time>
      </trkpt>
      <trkpt lat="42.67143" lon="-0.78779">
        <ele>751.79366</ele>
        <time>2022-08-30T03:59:07.973Z</time>
      </trkpt>
      <trkpt lat="42.67126" lon="-0.7877">
        <ele>752.108549</ele>
        <time>2022-08-30T03:59:17.070Z</time>
      </trkpt>
      <trkpt lat="42.67112" lon="-0.78709">
        <ele>752.8959</ele>
        <time>2022-08-30T03:59:34.060Z</time>
      </trkpt>
      <trkpt lat="42.67097" lon="-0.78689">
        <ele>753.253745</ele>
        <time>2022-08-30T03:59:38.904Z</time>
      </trkpt>
      <trkpt lat="42.67081" lon="-0.7869">
        <ele>753.511755</ele>
        <time>2022-08-30T03:59:42.394Z</time>
      </trkpt>
      <trkpt lat="42.67051" lon="-0.78712">
        <ele>754.083324</ele>
        <time>2022-08-30T03:59:49.231Z</time>
      </trkpt>
      <trkpt lat="42.67035" lon="-0.78713">
        <ele>754.357941</ele>
        <time>2022-08-30T03:59:52.149Z</time>
      </trkpt>
      <trkpt lat="42.66989" lon="-0.78692">
        <ele>752.819477</ele>
        <time>2022-08-30T04:00:00.547Z</time>
      </trkpt>
      <trkpt lat="42.66954" lon="-0.78639">
        <ele>750.197823</ele>
        <time>2022-08-30T04:00:09.045Z</time>
      </trkpt>
      <trkpt lat="42.66931" lon="-0.78621">
        <ele>748.872805</ele>
        <time>2022-08-30T04:00:13.149Z</time>
      </trkpt>
      <trkpt lat="42.66899" lon="-0.78614">
        <ele>747.251563</ele>
        <time>2022-08-30T04:00:18.086Z</time>
      </trkpt>
      <trkpt lat="42.66859" lon="-0.78584">
        <ele>744.608452</ele>
        <time>2022-08-30T04:00:24.963Z</time>
      </trkpt>
      <trkpt lat="42.66802" lon="-0.78558">
        <ele>739.815727</ele>
        <time>2022-08-30T04:00:33.877Z</time>
      </trkpt>
      <trkpt lat="42.66744" lon="-0.7856">
        <ele>735.169378</ele>
        <time>2022-08-30T04:00:42.279Z</time>
      </trkpt>
      <trkpt lat="42.66716" lon="-0.78503">
        <ele>731.096342</ele>
        <time>2022-08-30T04:00:49.585Z</time>
      </trkpt>
      <trkpt lat="42.66649" lon="-0.78429">
        <ele>723.730502</ele>
        <time>2022-08-30T04:01:02.114Z</time>
      </trkpt>
      <trkpt lat="42.66609" lon="-0.78367">
        <ele>718.562122</ele>
        <time>2022-08-30T04:01:10.838Z</time>
      </trkpt>
      <trkpt lat="42.66592" lon="-0.78351">
        <ele>716.778002</ele>
        <time>2022-08-30T04:01:13.928Z</time>
      </trkpt>
      <trkpt lat="42.66578" lon="-0.78349">
        <ele>715.654128</ele>
        <time>2022-08-30T04:01:15.884Z</time>
      </trkpt>
      <trkpt lat="42.66141" lon="-0.78393">
        <ele>693.049261</ele>
        <time>2022-08-30T04:02:23.894Z</time>
      </trkpt>
      <trkpt lat="42.66133" lon="-0.78404">
        <ele>692.855979</ele>
        <time>2022-08-30T04:02:26.289Z</time>
      </trkpt>
      <trkpt lat="42.66131" lon="-0.78424">
        <ele>692.592372</ele>
        <time>2022-08-30T04:02:29.486Z</time>
      </trkpt>
      <trkpt lat="42.66132" lon="-0.78492">
        <ele>691.731031</ele>
        <time>2022-08-30T04:02:43.800Z</time>
      </trkpt>
      <trkpt lat="42.66186" lon="-0.78638">
        <ele>691.390112</ele>
        <time>2022-08-30T04:03:30.984Z</time>
      </trkpt>
      <trkpt lat="42.66187" lon="-0.78662">
        <ele>691.398191</ele>
        <time>2022-08-30T04:03:34.672Z</time>
      </trkpt>
      <trkpt lat="42.66183" lon="-0.78671">
        <ele>691.401725</ele>
        <time>2022-08-30T04:03:36.800Z</time>
      </trkpt>
      <trkpt lat="42.66162" lon="-0.78687">
        <ele>691.412419</ele>
        <time>2022-08-30T04:03:41.068Z</time>
      </trkpt>
      <trkpt lat="42.66138" lon="-0.78677">
        <ele>691.423755</ele>
        <time>2022-08-30T04:03:45.111Z</time>
      </trkpt>
      <trkpt lat="42.66122" lon="-0.78661">
        <ele>690.365378</ele>
        <time>2022-08-30T04:03:48.157Z</time>
      </trkpt>
      <trkpt lat="42.66079" lon="-0.78597">
        <ele>684.930355</ele>
        <time>2022-08-30T04:03:57.685Z</time>
      </trkpt>
      <trkpt lat="42.66035" lon="-0.78522">
        <ele>678.990795</ele>
        <time>2022-08-30T04:04:07.583Z</time>
      </trkpt>
      <trkpt lat="42.66012" lon="-0.78444">
        <ele>674.726882</ele>
        <time>2022-08-30T04:04:16.323Z</time>
      </trkpt>
      <trkpt lat="42.66002" lon="-0.78433">
        <ele>674.060181</ele>
        <time>2022-08-30T04:04:18.170Z</time>
      </trkpt>
      <trkpt lat="42.6598" lon="-0.78429">
        <ele>672.919985</ele>
        <time>2022-08-30T04:04:21.404Z</time>
      </trkpt>
      <trkpt lat="42.65963" lon="-0.78437">
        <ele>672.023179</ele>
        <time>2022-08-30T04:04:23.950Z</time>
      </trkpt>
      <trkpt lat="42.65901" lon="-0.78525">
        <ele>667.420177</ele>
        <time>2022-08-30T04:04:40.310Z</time>
      </trkpt>
      <trkpt lat="42.6584" lon="-0.78572">
        <ele>668.890959</ele>
        <time>2022-08-30T04:04:55.473Z</time>
      </trkpt>
      <trkpt lat="42.65813" lon="-0.78596">
        <ele>669.909223</ele>
        <time>2022-08-30T04:05:04.410Z</time>
      </trkpt>
      <trkpt lat="42.65791" lon="-0.78616">
        <ele>670.737888</ele>
        <time>2022-08-30T04:05:12.889Z</time>
      </trkpt>
      <trkpt lat="42.65777" lon="-0.78622">
        <ele>671.198936</ele>
        <time>2022-08-30T04:05:19.384Z</time>
      </trkpt>
      <trkpt lat="42.65755" lon="-0.78619">
        <ele>671.883753</ele>
        <time>2022-08-30T04:05:30.591Z</time>
      </trkpt>
      <trkpt lat="42.65729" lon="-0.78597">
        <ele>673.336737</ele>
        <time>2022-08-30T04:05:51.565Z</time>
      </trkpt>
      <trkpt lat="42.65709" lon="-0.78593">
        <ele>675.444041</ele>
        <time>2022-08-30T04:06:07.524Z</time>
      </trkpt>
      <trkpt lat="42.65656" lon="-0.78626">
        <ele>681.532993</ele>
        <time>2022-08-30T04:06:58.925Z</time>
      </trkpt>
      <trkpt lat="42.65581" lon="-0.78613">
        <ele>689.446352</ele>
        <time>2022-08-30T04:07:58.187Z</time>
      </trkpt>
      <trkpt lat="42.65523" lon="-0.78613">
        <ele>692.056585</ele>
        <time>2022-08-30T04:08:33.723Z</time>
      </trkpt>
      <trkpt lat="42.65491" lon="-0.78619">
        <ele>692.645295</ele>
        <time>2022-08-30T04:08:50.363Z</time>
      </trkpt>
      <trkpt lat="42.65479" lon="-0.7864">
        <ele>692.996264</ele>
        <time>2022-08-30T04:08:57.841Z</time>
      </trkpt>
      <trkpt lat="42.65472" lon="-0.787">
        <ele>693.819745</ele>
        <time>2022-08-30T04:09:07.706Z</time>
      </trkpt>
      <trkpt lat="42.65455" lon="-0.78748">
        <ele>694.529426</ele>
        <time>2022-08-30T04:09:14.144Z</time>
      </trkpt>
      <trkpt lat="42.65445" lon="-0.7882">
        <ele>691.303085</ele>
        <time>2022-08-30T04:09:22.175Z</time>
      </trkpt>
      <trkpt lat="42.65429" lon="-0.78858">
        <ele>689.12408</ele>
        <time>2022-08-30T04:09:26.733Z</time>
      </trkpt>
      <trkpt lat="42.65414" lon="-0.78878">
        <ele>687.698855</ele>
        <time>2022-08-30T04:09:29.780Z</time>
      </trkpt>
      <trkpt lat="42.65404" lon="-0.78889">
        <ele>686.809153</ele>
        <time>2022-08-30T04:09:31.713Z</time>
      </trkpt>
      <trkpt lat="42.65357" lon="-0.789">
        <ele>683.57206</ele>
        <time>2022-08-30T04:09:38.953Z</time>
      </trkpt>
      <trkpt lat="42.65346" lon="-0.78908">
        <ele>682.753964</ele>
        <time>2022-08-30T04:09:40.846Z</time>
      </trkpt>
      <trkpt lat="42.65313" lon="-0.78965">
        <ele>680.468286</ele>
        <time>2022-08-30T04:09:49.440Z</time>
      </trkpt>
      <trkpt lat="42.65277" lon="-0.78992">
        <ele>678.785926</ele>
        <time>2022-08-30T04:09:56.427Z</time>
      </trkpt>
      <trkpt lat="42.65257" lon="-0.79015">
        <ele>677.72678</ele>
        <time>2022-08-30T04:10:00.772Z</time>
      </trkpt>
      <trkpt lat="42.65211" lon="-0.79045">
        <ele>675.658014</ele>
        <time>2022-08-30T04:10:09.295Z</time>
      </trkpt>
      <trkpt lat="42.65105" lon="-0.79073">
        <ele>672.288192</ele>
        <time>2022-08-30T04:10:27.664Z</time>
      </trkpt>
      <trkpt lat="42.65014" lon="-0.79189">
        <ele>669.308762</ele>
        <time>2022-08-30T04:10:49.601Z</time>
      </trkpt>
      <trkpt lat="42.64998" lon="-0.79257">
        <ele>668.712432</ele>
        <time>2022-08-30T04:10:59.328Z</time>
      </trkpt>
      <trkpt lat="42.64982" lon="-0.79291">
        <ele>668.381602</ele>
        <time>2022-08-30T04:11:05.062Z</time>
      </trkpt>
      <trkpt lat="42.64945" lon="-0.7933">
        <ele>667.856004</ele>
        <time>2022-08-30T04:11:15.443Z</time>
      </trkpt>
      <trkpt lat="42.64894" lon="-0.79359">
        <ele>668.252538</ele>
        <time>2022-08-30T04:11:31.491Z</time>
      </trkpt>
      <trkpt lat="42.64866" lon="-0.79389">
        <ele>668.673317</ele>
        <time>2022-08-30T04:11:42.578Z</time>
      </trkpt>
      <trkpt lat="42.64854" lon="-0.79422">
        <ele>668.994019</ele>
        <time>2022-08-30T04:11:51.210Z</time>
      </trkpt>
      <trkpt lat="42.64847" lon="-0.79493">
        <ele>669.616681</ele>
        <time>2022-08-30T04:12:06.208Z</time>
      </trkpt>
      <trkpt lat="42.6482" lon="-0.79615">
        <ele>670.503053</ele>
        <time>2022-08-30T04:12:29.728Z</time>
      </trkpt>
      <trkpt lat="42.648" lon="-0.79659">
        <ele>670.840381</ele>
        <time>2022-08-30T04:12:39.409Z</time>
      </trkpt>
      <trkpt lat="42.64793" lon="-0.79704">
        <ele>671.139142</ele>
        <time>2022-08-30T04:12:48.353Z</time>
      </trkpt>
      <trkpt lat="42.6477" lon="-0.79787">
        <ele>672.337288</ele>
        <time>2022-08-30T04:13:06.915Z</time>
      </trkpt>
      <trkpt lat="42.64747" lon="-0.79823">
        <ele>673.370981</ele>
        <time>2022-08-30T04:13:18.358Z</time>
      </trkpt>
      <trkpt lat="42.64735" lon="-0.79835">
        <ele>673.813395</ele>
        <time>2022-08-30T04:13:23.637Z</time>
      </trkpt>
      <trkpt lat="42.64697" lon="-0.79849">
        <ele>674.965737</ele>
        <time>2022-08-30T04:13:38.746Z</time>
      </trkpt>
      <trkpt lat="42.64646" lon="-0.79848">
        <ele>676.44329</ele>
        <time>2022-08-30T04:14:00.009Z</time>
      </trkpt>
      <trkpt lat="42.64577" lon="-0.79831">
        <ele>679.495465</ele>
        <time>2022-08-30T04:14:32.792Z</time>
      </trkpt>
      <trkpt lat="42.64473" lon="-0.79831">
        <ele>684.148045</ele>
        <time>2022-08-30T04:15:22.297Z</time>
      </trkpt>
      <trkpt lat="42.64451" lon="-0.79839">
        <ele>684.617158</ele>
        <time>2022-08-30T04:15:31.739Z</time>
      </trkpt>
      <trkpt lat="42.64414" lon="-0.79887">
        <ele>683.531261</ele>
        <time>2022-08-30T04:15:49.700Z</time>
      </trkpt>
      <trkpt lat="42.64384" lon="-0.79912">
        <ele>682.79651</ele>
        <time>2022-08-30T04:15:57.246Z</time>
      </trkpt>
      <trkpt lat="42.64326" lon="-0.80007">
        <ele>680.320159</ele>
        <time>2022-08-30T04:16:11.366Z</time>
      </trkpt>
      <trkpt lat="42.64288" lon="-0.80048">
        <ele>675.162639</ele>
        <time>2022-08-30T04:16:18.129Z</time>
      </trkpt>
      <trkpt lat="42.6425" lon="-0.80101">
        <ele>669.284164</ele>
        <time>2022-08-30T04:16:25.655Z</time>
      </trkpt>
      <trkpt lat="42.64191" lon="-0.80202">
        <ele>659.495017</ele>
        <time>2022-08-30T04:16:38.744Z</time>
      </trkpt>
      <trkpt lat="42.64108" lon="-0.80298">
        <ele>649.753461</ele>
        <time>2022-08-30T04:16:54.453Z</time>
      </trkpt>
      <trkpt lat="42.64071" lon="-0.80381">
        <ele>644.268716</ele>
        <time>2022-08-30T04:17:05.302Z</time>
      </trkpt>
      <trkpt lat="42.63972" lon="-0.80491">
        <ele>637.332138</ele>
        <time>2022-08-30T04:17:25.269Z</time>
      </trkpt>
      <trkpt lat="42.63897" lon="-0.80639">
        <ele>632.425278</ele>
        <time>2022-08-30T04:17:47.086Z</time>
      </trkpt>
      <trkpt lat="42.63851" lon="-0.80675">
        <ele>630.717569</ele>
        <time>2022-08-30T04:17:56.558Z</time>
      </trkpt>
      <trkpt lat="42.63825" lon="-0.80689">
        <ele>629.913464</ele>
        <time>2022-08-30T04:18:01.728Z</time>
      </trkpt>
      <trkpt lat="42.63723" lon="-0.80709">
        <ele>628.35884</ele>
        <time>2022-08-30T04:18:21.866Z</time>
      </trkpt>
      <trkpt lat="42.63647" lon="-0.80744">
        <ele>627.121781</ele>
        <time>2022-08-30T04:18:37.009Z</time>
      </trkpt>
      <trkpt lat="42.63585" lon="-0.80754">
        <ele>625.979472</ele>
        <time>2022-08-30T04:18:48.570Z</time>
      </trkpt>
      <trkpt lat="42.63506" lon="-0.808">
        <ele>624.406425</ele>
        <time>2022-08-30T04:19:04.473Z</time>
      </trkpt>
      <trkpt lat="42.63477" lon="-0.80827">
        <ele>623.846739</ele>
        <time>2022-08-30T04:19:10.996Z</time>
      </trkpt>
      <trkpt lat="42.6347" lon="-0.80847">
        <ele>623.642739</ele>
        <time>2022-08-30T04:19:14.172Z</time>
      </trkpt>
      <trkpt lat="42.63464" lon="-0.80927">
        <ele>622.919567</ele>
        <time>2022-08-30T04:19:25.305Z</time>
      </trkpt>
      <trkpt lat="42.63447" lon="-0.81003">
        <ele>622.191208</ele>
        <time>2022-08-30T04:19:37.223Z</time>
      </trkpt>
      <trkpt lat="42.63428" lon="-0.81049">
        <ele>621.718918</ele>
        <time>2022-08-30T04:19:45.042Z</time>
      </trkpt>
      <trkpt lat="42.634" lon="-0.81088">
        <ele>621.237409</ele>
        <time>2022-08-30T04:19:52.979Z</time>
      </trkpt>
      <trkpt lat="42.63321" lon="-0.81141">
        <ele>620.166519</ele>
        <time>2022-08-30T04:20:10.002Z</time>
      </trkpt>
      <trkpt lat="42.63255" lon="-0.81158">
        <ele>619.360857</ele>
        <time>2022-08-30T04:20:22.818Z</time>
      </trkpt>
      <trkpt lat="42.63244" lon="-0.81177">
        <ele>619.140503</ele>
        <time>2022-08-30T04:20:26.236Z</time>
      </trkpt>
      <trkpt lat="42.63211" lon="-0.81267">
        <ele>618.231461</ele>
        <time>2022-08-30T04:20:40.777Z</time>
      </trkpt>
      <trkpt lat="42.63188" lon="-0.81309">
        <ele>617.751169</ele>
        <time>2022-08-30T04:20:48.428Z</time>
      </trkpt>
      <trkpt lat="42.63161" lon="-0.81341">
        <ele>617.308832</ele>
        <time>2022-08-30T04:20:55.159Z</time>
      </trkpt>
      <trkpt lat="42.6308" lon="-0.814">
        <ele>616.035673</ele>
        <time>2022-08-30T04:21:13.030Z</time>
      </trkpt>
      <trkpt lat="42.63046" lon="-0.81449">
        <ele>615.354167</ele>
        <time>2022-08-30T04:21:22.463Z</time>
      </trkpt>
      <trkpt lat="42.63032" lon="-0.81461">
        <ele>615.129866</ele>
        <time>2022-08-30T04:21:25.586Z</time>
      </trkpt>
      <trkpt lat="42.6301" lon="-0.81472">
        <ele>614.810902</ele>
        <time>2022-08-30T04:21:30.032Z</time>
      </trkpt>
      <trkpt lat="42.6296" lon="-0.8148">
        <ele>614.154266</ele>
        <time>2022-08-30T04:21:39.759Z</time>
      </trkpt>
      <trkpt lat="42.62952" lon="-0.81486">
        <ele>614.034416</ele>
        <time>2022-08-30T04:21:41.499Z</time>
      </trkpt>
      <trkpt lat="42.62929" lon="-0.81562">
        <ele>613.251082</ele>
        <time>2022-08-30T04:21:53.221Z</time>
      </trkpt>
      <trkpt lat="42.62898" lon="-0.81629">
        <ele>612.520612</ele>
        <time>2022-08-30T04:22:04.787Z</time>
      </trkpt>
      <trkpt lat="42.62846" lon="-0.8176">
        <ele>611.466907</ele>
        <time>2022-08-30T04:22:26.632Z</time>
      </trkpt>
      <trkpt lat="42.62802" lon="-0.81818">
        <ele>610.877489</ele>
        <time>2022-08-30T04:22:38.823Z</time>
      </trkpt>
      <trkpt lat="42.62775" lon="-0.81877">
        <ele>610.470681</ele>
        <time>2022-08-30T04:22:49.109Z</time>
      </trkpt>
      <trkpt lat="42.62734" lon="-0.8194">
        <ele>609.978151</ele>
        <time>2022-08-30T04:23:01.782Z</time>
      </trkpt>
      <trkpt lat="42.62648" lon="-0.8204">
        <ele>610.926324</ele>
        <time>2022-08-30T04:23:24.986Z</time>
      </trkpt>
      <trkpt lat="42.62618" lon="-0.8206">
        <ele>612.024199</ele>
        <time>2022-08-30T04:23:32.055Z</time>
      </trkpt>
      <trkpt lat="42.62604" lon="-0.82059">
        <ele>612.467258</ele>
        <time>2022-08-30T04:23:34.820Z</time>
      </trkpt>
      <trkpt lat="42.625" lon="-0.81889">
        <ele>623.435977</ele>
        <time>2022-08-30T04:25:10.672Z</time>
      </trkpt>
      <trkpt lat="42.62467" lon="-0.81834">
        <ele>629.038689</ele>
        <time>2022-08-30T04:25:58.244Z</time>
      </trkpt>
      <trkpt lat="42.62446" lon="-0.81814">
        <ele>631.758778</ele>
        <time>2022-08-30T04:26:17.746Z</time>
      </trkpt>
      <trkpt lat="42.62422" lon="-0.81808">
        <ele>634.461183</ele>
        <time>2022-08-30T04:26:38.573Z</time>
      </trkpt>
      <trkpt lat="42.62397" lon="-0.81817">
        <ele>637.198553</ele>
        <time>2022-08-30T04:27:05.874Z</time>
      </trkpt>
      <trkpt lat="42.62361" lon="-0.81916">
        <ele>645.826476</ele>
        <time>2022-08-30T04:28:15.532Z</time>
      </trkpt>
      <trkpt lat="42.62341" lon="-0.81936">
        <ele>648.510192</ele>
        <time>2022-08-30T04:28:34.399Z</time>
      </trkpt>
      <trkpt lat="42.62293" lon="-0.81965">
        <ele>653.982621</ele>
        <time>2022-08-30T04:29:04.759Z</time>
      </trkpt>
      <trkpt lat="42.62252" lon="-0.81972">
        <ele>656.591646</ele>
        <time>2022-08-30T04:29:22.147Z</time>
      </trkpt>
      <trkpt lat="42.62226" lon="-0.81988">
        <ele>658.311588</ele>
        <time>2022-08-30T04:29:34.762Z</time>
      </trkpt>
      <trkpt lat="42.62201" lon="-0.81995">
        <ele>659.905581</ele>
        <time>2022-08-30T04:29:50.098Z</time>
      </trkpt>
      <trkpt lat="42.62172" lon="-0.81983">
        <ele>661.805003</ele>
        <time>2022-08-30T04:30:09.530Z</time>
      </trkpt>
      <trkpt lat="42.62165" lon="-0.81965">
        <ele>662.699615</ele>
        <time>2022-08-30T04:30:16.945Z</time>
      </trkpt>
      <trkpt lat="42.62168" lon="-0.81919">
        <ele>664.823536</ele>
        <time>2022-08-30T04:30:35.751Z</time>
      </trkpt>
      <trkpt lat="42.62184" lon="-0.81877">
        <ele>666.747786</ele>
        <time>2022-08-30T04:30:54.121Z</time>
      </trkpt>
      <trkpt lat="42.62186" lon="-0.81849">
        <ele>667.864979</ele>
        <time>2022-08-30T04:31:06.473Z</time>
      </trkpt>
      <trkpt lat="42.62185" lon="-0.81845">
        <ele>668.001338</ele>
        <time>2022-08-30T04:31:07.609Z</time>
      </trkpt>
      <trkpt lat="42.62181" lon="-0.8182">
        <ele>669.024972</ele>
        <time>2022-08-30T04:31:16.530Z</time>
      </trkpt>
      <trkpt lat="42.62192" lon="-0.81794">
        <ele>670.240846</ele>
        <time>2022-08-30T04:31:28.456Z</time>
      </trkpt>
      <trkpt lat="42.62201" lon="-0.81767">
        <ele>671.422582</ele>
        <time>2022-08-30T04:31:39.545Z</time>
      </trkpt>
      <trkpt lat="42.62202" lon="-0.81742">
        <ele>672.407947</ele>
        <time>2022-08-30T04:31:47.943Z</time>
      </trkpt>
      <trkpt lat="42.62206" lon="-0.81741">
        <ele>672.657767</ele>
        <time>2022-08-30T04:31:49.920Z</time>
      </trkpt>
      <trkpt lat="42.62191" lon="-0.81729">
        <ele>673.60782</ele>
        <time>2022-08-30T04:32:00.108Z</time>
      </trkpt>
      <trkpt lat="42.62049" lon="-0.81647">
        <ele>678.608419</ele>
        <time>2022-08-30T04:33:21.960Z</time>
      </trkpt>
      <trkpt lat="42.62028" lon="-0.81623">
        <ele>679.385322</ele>
        <time>2022-08-30T04:33:34.124Z</time>
      </trkpt>
      <trkpt lat="42.61992" lon="-0.81536">
        <ele>680.499275</ele>
        <time>2022-08-30T04:34:06.598Z</time>
      </trkpt>
      <trkpt lat="42.61967" lon="-0.81523">
        <ele>680.771362</ele>
        <time>2022-08-30T04:34:18.302Z</time>
      </trkpt>
      <trkpt lat="42.61723" lon="-0.81449">
        <ele>682.436611</ele>
        <time>2022-08-30T04:35:58.371Z</time>
      </trkpt>
      <trkpt lat="42.61509" lon="-0.81126">
        <ele>683.351603</ele>
        <time>2022-08-30T04:37:57.563Z</time>
      </trkpt>
      <trkpt lat="42.61382" lon="-0.81034">
        <ele>685.576001</ele>
        <time>2022-08-30T04:39:00.499Z</time>
      </trkpt>
      <trkpt lat="42.61276" lon="-0.80939">
        <ele>689.498793</ele>
        <time>2022-08-30T04:40:07.234Z</time>
      </trkpt>
      <trkpt lat="42.6126" lon="-0.80911">
        <ele>691.043036</ele>
        <time>2022-08-30T04:40:22.264Z</time>
      </trkpt>
      <trkpt lat="42.6111" lon="-0.80342">
        <ele>716.879868</ele>
        <time>2022-08-30T04:45:29.032Z</time>
      </trkpt>
      <trkpt lat="42.6111" lon="-0.80304">
        <ele>718.404833</ele>
        <time>2022-08-30T04:45:45.685Z</time>
      </trkpt>
      <trkpt lat="42.61133" lon="-0.80186">
        <ele>718.948264</ele>
        <time>2022-08-30T04:46:31.968Z</time>
      </trkpt>
      <trkpt lat="42.61028" lon="-0.80132">
        <ele>718.06054</ele>
        <time>2022-08-30T04:47:06.762Z</time>
      </trkpt>
      <trkpt lat="42.60935" lon="-0.79971">
        <ele>711.284974</ele>
        <time>2022-08-30T04:47:49.812Z</time>
      </trkpt>
      <trkpt lat="42.60926" lon="-0.79951">
        <ele>710.495462</ele>
        <time>2022-08-30T04:47:54.940Z</time>
      </trkpt>
      <trkpt lat="42.60959" lon="-0.79898">
        <ele>710.112104</ele>
        <time>2022-08-30T04:48:10.932Z</time>
      </trkpt>
      <trkpt lat="42.6097" lon="-0.79857">
        <ele>710.113912</ele>
        <time>2022-08-30T04:48:22.274Z</time>
      </trkpt>
      <trkpt lat="42.60964" lon="-0.79851">
        <ele>710.11435</ele>
        <time>2022-08-30T04:48:25.767Z</time>
      </trkpt>
      <trkpt lat="42.60942" lon="-0.79854">
        <ele>710.115543</ele>
        <time>2022-08-30T04:48:34.394Z</time>
      </trkpt>
      <trkpt lat="42.60926" lon="-0.79847">
        <ele>710.116532</ele>
        <time>2022-08-30T04:48:43.063Z</time>
      </trkpt>
      <trkpt lat="42.6089" lon="-0.79791">
        <ele>710.119556</ele>
        <time>2022-08-30T04:49:09.917Z</time>
      </trkpt>
      <trkpt lat="42.60884" lon="-0.79767">
        <ele>710.273023</ele>
        <time>2022-08-30T04:49:19.336Z</time>
      </trkpt>
      <trkpt lat="42.60892" lon="-0.79741">
        <ele>710.483549</ele>
        <time>2022-08-30T04:49:28.667Z</time>
      </trkpt>
      <trkpt lat="42.60873" lon="-0.79718">
        <ele>710.736699</ele>
        <time>2022-08-30T04:49:40.803Z</time>
      </trkpt>
      <trkpt lat="42.60837" lon="-0.79731">
        <ele>711.117673</ele>
        <time>2022-08-30T04:49:57.343Z</time>
      </trkpt>
      <trkpt lat="42.60798" lon="-0.79763">
        <ele>711.57512</ele>
        <time>2022-08-30T04:50:15.315Z</time>
      </trkpt>
      <trkpt lat="42.60772" lon="-0.79768">
        <ele>711.83734</ele>
        <time>2022-08-30T04:50:24.869Z</time>
      </trkpt>
      <trkpt lat="42.60726" lon="-0.79758">
        <ele>711.512895</ele>
        <time>2022-08-30T04:50:41.308Z</time>
      </trkpt>
      <trkpt lat="42.60614" lon="-0.79683">
        <ele>710.11367</ele>
        <time>2022-08-30T04:51:23.466Z</time>
      </trkpt>
      <trkpt lat="42.6054" lon="-0.7962">
        <ele>708.813129</ele>
        <time>2022-08-30T04:51:52.394Z</time>
      </trkpt>
      <trkpt lat="42.60471" lon="-0.79541">
        <ele>707.372546</ele>
        <time>2022-08-30T04:52:22.761Z</time>
      </trkpt>
      <trkpt lat="42.60393" lon="-0.79414">
        <ele>704.170138</ele>
        <time>2022-08-30T04:53:02.085Z</time>
      </trkpt>
      <trkpt lat="42.60028" lon="-0.79721">
        <ele>689.950811</ele>
        <time>2022-08-30T04:55:11.238Z</time>
      </trkpt>
      <trkpt lat="42.5994" lon="-0.79224">
        <ele>691.814275</ele>
        <time>2022-08-30T04:57:44.621Z</time>
      </trkpt>
      <trkpt lat="42.59941" lon="-0.79182">
        <ele>692.321668</ele>
        <time>2022-08-30T04:57:58.547Z</time>
      </trkpt>
      <trkpt lat="42.59965" lon="-0.79018">
        <ele>694.309645</ele>
        <time>2022-08-30T04:58:55.479Z</time>
      </trkpt>
      <trkpt lat="42.59968" lon="-0.78914">
        <ele>695.48236</ele>
        <time>2022-08-30T04:59:30.507Z</time>
      </trkpt>
      <trkpt lat="42.59935" lon="-0.7883">
        <ele>696.539064</ele>
        <time>2022-08-30T05:00:00.881Z</time>
      </trkpt>
      <trkpt lat="42.59897" lon="-0.78763">
        <ele>697.515665</ele>
        <time>2022-08-30T05:00:29.027Z</time>
      </trkpt>
      <trkpt lat="42.59828" lon="-0.78665">
        <ele>699.348409</ele>
        <time>2022-08-30T05:01:12.984Z</time>
      </trkpt>
      <trkpt lat="42.59811" lon="-0.78636">
        <ele>699.849482</ele>
        <time>2022-08-30T05:01:26.425Z</time>
      </trkpt>
      <trkpt lat="42.59775" lon="-0.78636">
        <ele>700.526519</ele>
        <time>2022-08-30T05:01:38.672Z</time>
      </trkpt>
      <trkpt lat="42.59729" lon="-0.78642">
        <ele>701.595609</ele>
        <time>2022-08-30T05:01:54.420Z</time>
      </trkpt>
      <trkpt lat="42.59707" lon="-0.78577">
        <ele>702.839893</ele>
        <time>2022-08-30T05:02:15.155Z</time>
      </trkpt>
      <trkpt lat="42.59691" lon="-0.7851">
        <ele>704.076795</ele>
        <time>2022-08-30T05:02:32.792Z</time>
      </trkpt>
      <trkpt lat="42.59689" lon="-0.78498">
        <ele>704.298783</ele>
        <time>2022-08-30T05:02:35.588Z</time>
      </trkpt>
      <trkpt lat="42.59687" lon="-0.78487">
        <ele>704.501786</ele>
        <time>2022-08-30T05:02:38.295Z</time>
      </trkpt>
      <trkpt lat="42.59683" lon="-0.78456">
        <ele>704.878749</ele>
        <time>2022-08-30T05:02:44.757Z</time>
      </trkpt>
      <trkpt lat="42.59681" lon="-0.78429">
        <ele>704.838105</ele>
        <time>2022-08-30T05:02:50.905Z</time>
      </trkpt>
      <trkpt lat="42.59669" lon="-0.78379">
        <ele>704.761077</ele>
        <time>2022-08-30T05:03:00.774Z</time>
      </trkpt>
      <trkpt lat="42.59645" lon="-0.78339">
        <ele>704.684372</ele>
        <time>2022-08-30T05:03:09.052Z</time>
      </trkpt>
      <trkpt lat="42.59624" lon="-0.78325">
        <ele>704.638355</ele>
        <time>2022-08-30T05:03:13.751Z</time>
      </trkpt>
      <trkpt lat="42.59525" lon="-0.78288">
        <ele>703.286845</ele>
        <time>2022-08-30T05:03:33.109Z</time>
      </trkpt>
      <trkpt lat="42.59497" lon="-0.78273">
        <ele>702.534478</ele>
        <time>2022-08-30T05:03:38.315Z</time>
      </trkpt>
      <trkpt lat="42.59443" lon="-0.78261">
        <ele>701.131508</ele>
        <time>2022-08-30T05:03:48.007Z</time>
      </trkpt>
      <trkpt lat="42.5936" lon="-0.78245">
        <ele>698.54992</ele>
        <time>2022-08-30T05:04:02.310Z</time>
      </trkpt>
      <trkpt lat="42.59314" lon="-0.78244">
        <ele>696.809493</ele>
        <time>2022-08-30T05:04:10.070Z</time>
      </trkpt>
      <trkpt lat="42.59002" lon="-0.78305">
        <ele>684.338051</ele>
        <time>2022-08-30T05:05:01.687Z</time>
      </trkpt>
      <trkpt lat="42.58898" lon="-0.78336">
        <ele>680.642981</ele>
        <time>2022-08-30T05:05:19.723Z</time>
      </trkpt>
      <trkpt lat="42.58321" lon="-0.7848">
        <ele>663.94268</ele>
        <time>2022-08-30T05:07:01.751Z</time>
      </trkpt>
      <trkpt lat="42.58036" lon="-0.78604">
        <ele>659.455576</ele>
        <time>2022-08-30T05:07:59.795Z</time>
      </trkpt>
      <trkpt lat="42.57821" lon="-0.78673">
        <ele>655.663842</ele>
        <time>2022-08-30T05:08:40.542Z</time>
      </trkpt>
      <trkpt lat="42.57716" lon="-0.78674">
        <ele>654.416894</ele>
        <time>2022-08-30T05:09:00.877Z</time>
      </trkpt>
      <trkpt lat="42.57311" lon="-0.78637">
        <ele>650.736046</ele>
        <time>2022-08-30T05:10:22.568Z</time>
      </trkpt>
      <trkpt lat="42.57267" lon="-0.78624">
        <ele>650.428999</ele>
        <time>2022-08-30T05:10:31.945Z</time>
      </trkpt>
      <trkpt lat="42.57156" lon="-0.78557">
        <ele>650.048265</ele>
        <time>2022-08-30T05:10:58.121Z</time>
      </trkpt>
      <trkpt lat="42.57131" lon="-0.7854">
        <ele>649.963076</ele>
        <time>2022-08-30T05:11:04.134Z</time>
      </trkpt>
      <trkpt lat="42.57073" lon="-0.78527">
        <ele>649.495615</ele>
        <time>2022-08-30T05:11:17.139Z</time>
      </trkpt>
      <trkpt lat="42.56936" lon="-0.78524">
        <ele>648.088343</ele>
        <time>2022-08-30T05:11:44.274Z</time>
      </trkpt>
      <trkpt lat="42.56484" lon="-0.78521">
        <ele>633.626513</ele>
        <time>2022-08-30T05:13:02.382Z</time>
      </trkpt>
      <trkpt lat="42.56415" lon="-0.78529">
        <ele>630.550174</ele>
        <time>2022-08-30T05:13:13.167Z</time>
      </trkpt>
      <trkpt lat="42.5637" lon="-0.78544">
        <ele>627.884368</ele>
        <time>2022-08-30T05:13:20.206Z</time>
      </trkpt>
      <trkpt lat="42.56337" lon="-0.78562">
        <ele>625.409022</ele>
        <time>2022-08-30T05:13:25.540Z</time>
      </trkpt>
      <trkpt lat="42.56279" lon="-0.78611">
        <ele>620.621841</ele>
        <time>2022-08-30T05:13:35.726Z</time>
      </trkpt>
      <trkpt lat="42.5621" lon="-0.78681">
        <ele>615.549657</ele>
        <time>2022-08-30T05:13:48.420Z</time>
      </trkpt>
      <trkpt lat="42.56107" lon="-0.78787">
        <ele>610.066601</ele>
        <time>2022-08-30T05:14:09.833Z</time>
      </trkpt>
      <trkpt lat="42.56068" lon="-0.78829">
        <ele>608.865954</ele>
        <time>2022-08-30T05:14:19.596Z</time>
      </trkpt>
      <trkpt lat="42.56059" lon="-0.78823">
        <ele>608.72928</ele>
        <time>2022-08-30T05:14:21.581Z</time>
      </trkpt>
      <trkpt lat="42.56016" lon="-0.788">
        <ele>608.092434</ele>
        <time>2022-08-30T05:14:30.410Z</time>
      </trkpt>
      <trkpt lat="42.55982" lon="-0.78783">
        <ele>607.589247</ele>
        <time>2022-08-30T05:14:37.402Z</time>
      </trkpt>
      <trkpt lat="42.5597" lon="-0.78777">
        <ele>607.405793</ele>
        <time>2022-08-30T05:14:39.928Z</time>
      </trkpt>
      <trkpt lat="42.55958" lon="-0.78772">
        <ele>607.227304</ele>
        <time>2022-08-30T05:14:42.483Z</time>
      </trkpt>
      <trkpt lat="42.55887" lon="-0.78739">
        <ele>606.084811</ele>
        <time>2022-08-30T05:14:57.573Z</time>
      </trkpt>
      <trkpt lat="42.55853" lon="-0.78723">
        <ele>605.50013</ele>
        <time>2022-08-30T05:15:04.634Z</time>
      </trkpt>
      <trkpt lat="42.55833" lon="-0.78713">
        <ele>605.165375</ele>
        <time>2022-08-30T05:15:08.506Z</time>
      </trkpt>
      <trkpt lat="42.55813" lon="-0.78704">
        <ele>604.830234</ele>
        <time>2022-08-30T05:15:12.280Z</time>
      </trkpt>
      <trkpt lat="42.55786" lon="-0.78692">
        <ele>604.367286</ele>
        <time>2022-08-30T05:15:17.422Z</time>
      </trkpt>
      <trkpt lat="42.55716" lon="-0.78659">
        <ele>604.171356</ele>
        <time>2022-08-30T05:15:30.996Z</time>
      </trkpt>
      <trkpt lat="42.55655" lon="-0.78629">
        <ele>604.49824</ele>
        <time>2022-08-30T05:15:43.575Z</time>
      </trkpt>
      <trkpt lat="42.55626" lon="-0.78614">
        <ele>604.653443</ele>
        <time>2022-08-30T05:15:52.904Z</time>
      </trkpt>
      <trkpt lat="42.55623" lon="-0.78612">
        <ele>604.670939</ele>
        <time>2022-08-30T05:15:54.127Z</time>
      </trkpt>
      <trkpt lat="42.55617" lon="-0.78605">
        <ele>604.711884</ele>
        <time>2022-08-30T05:15:57.068Z</time>
      </trkpt>
      <trkpt lat="42.55601" lon="-0.78603">
        <ele>604.792893</ele>
        <time>2022-08-30T05:16:03.611Z</time>
      </trkpt>
      <trkpt lat="42.55588" lon="-0.78603">
        <ele>605.101729</ele>
        <time>2022-08-30T05:16:09.478Z</time>
      </trkpt>
      <trkpt lat="42.55578" lon="-0.78592">
        <ele>606.17581</ele>
        <time>2022-08-30T05:16:15.366Z</time>
      </trkpt>
      <trkpt lat="42.55562" lon="-0.7859">
        <ele>607.526</ele>
        <time>2022-08-30T05:16:25.147Z</time>
      </trkpt>
      <trkpt lat="42.55541" lon="-0.78594">
        <ele>609.296375</ele>
        <time>2022-08-30T05:16:37.308Z</time>
      </trkpt>
      <trkpt lat="42.55427" lon="-0.78595">
        <ele>618.935009</ele>
        <time>2022-08-30T05:17:56.341Z</time>
      </trkpt>
      <trkpt lat="42.55409" lon="-0.78595">
        <ele>620.479427</ele>
        <time>2022-08-30T05:18:11.649Z</time>
      </trkpt>
      <trkpt lat="42.55389" lon="-0.78764">
        <ele>632.573939</ele>
        <time>2022-08-30T05:19:51.070Z</time>
      </trkpt>
      <trkpt lat="42.55339" lon="-0.7895">
        <ele>640.95182</ele>
        <time>2022-08-30T05:21:06.422Z</time>
      </trkpt>
      <trkpt lat="42.55326" lon="-0.79025">
        <ele>643.161767</ele>
        <time>2022-08-30T05:21:27.075Z</time>
      </trkpt>
      <trkpt lat="42.55318" lon="-0.79195">
        <ele>641.635629</ele>
        <time>2022-08-30T05:21:52.410Z</time>
      </trkpt>
      <trkpt lat="42.55311" lon="-0.79238">
        <ele>640.832699</ele>
        <time>2022-08-30T05:21:57.716Z</time>
      </trkpt>
      <trkpt lat="42.553" lon="-0.79274">
        <ele>640.109297</ele>
        <time>2022-08-30T05:22:02.287Z</time>
      </trkpt>
      <trkpt lat="42.55283" lon="-0.79311">
        <ele>638.794876</ele>
        <time>2022-08-30T05:22:07.264Z</time>
      </trkpt>
      <trkpt lat="42.5526" lon="-0.79339">
        <ele>636.845271</ele>
        <time>2022-08-30T05:22:12.027Z</time>
      </trkpt>
      <trkpt lat="42.55229" lon="-0.79365">
        <ele>634.580393</ele>
        <time>2022-08-30T05:22:17.486Z</time>
      </trkpt>
      <trkpt lat="42.55172" lon="-0.79385">
        <ele>630.933645</ele>
        <time>2022-08-30T05:22:26.246Z</time>
      </trkpt>
      <trkpt lat="42.55089" lon="-0.79394">
        <ele>627.124168</ele>
        <time>2022-08-30T05:22:39.147Z</time>
      </trkpt>
      <trkpt lat="42.55056" lon="-0.79388">
        <ele>626.120238</ele>
        <time>2022-08-30T05:22:44.575Z</time>
      </trkpt>
      <trkpt lat="42.54968" lon="-0.79345">
        <ele>623.36457</ele>
        <time>2022-08-30T05:23:01.914Z</time>
      </trkpt>
      <trkpt lat="42.54873" lon="-0.7934">
        <ele>623.930494</ele>
        <time>2022-08-30T05:23:26.736Z</time>
      </trkpt>
      <trkpt lat="42.54836" lon="-0.79318">
        <ele>624.351066</ele>
        <time>2022-08-30T05:23:38.981Z</time>
      </trkpt>
      <trkpt lat="42.54749" lon="-0.79205">
        <ele>626.256537</ele>
        <time>2022-08-30T05:24:16.718Z</time>
      </trkpt>
      <trkpt lat="42.54724" lon="-0.79182">
        <ele>626.879372</ele>
        <time>2022-08-30T05:24:26.527Z</time>
      </trkpt>
      <trkpt lat="42.54647" lon="-0.7915">
        <ele>628.528835</ele>
        <time>2022-08-30T05:24:53.274Z</time>
      </trkpt>
      <trkpt lat="42.54622" lon="-0.79148">
        <ele>628.993031</ele>
        <time>2022-08-30T05:25:01.800Z</time>
      </trkpt>
      <trkpt lat="42.54596" lon="-0.79153">
        <ele>629.488248</ele>
        <time>2022-08-30T05:25:10.813Z</time>
      </trkpt>
      <trkpt lat="42.54556" lon="-0.79183">
        <ele>630.341906</ele>
        <time>2022-08-30T05:25:25.838Z</time>
      </trkpt>
      <trkpt lat="42.54528" lon="-0.79233">
        <ele>631.196605</ele>
        <time>2022-08-30T05:25:39.871Z</time>
      </trkpt>
      <trkpt lat="42.5452" lon="-0.79268">
        <ele>631.704132</ele>
        <time>2022-08-30T05:25:47.912Z</time>
      </trkpt>
      <trkpt lat="42.54509" lon="-0.79396">
        <ele>632.913126</ele>
        <time>2022-08-30T05:26:14.062Z</time>
      </trkpt>
      <trkpt lat="42.54495" lon="-0.79466">
        <ele>633.54638</ele>
        <time>2022-08-30T05:26:28.558Z</time>
      </trkpt>
      <trkpt lat="42.54474" lon="-0.79522">
        <ele>634.117713</ele>
        <time>2022-08-30T05:26:41.290Z</time>
      </trkpt>
      <trkpt lat="42.54439" lon="-0.7958">
        <ele>635.718258</ele>
        <time>2022-08-30T05:26:58.774Z</time>
      </trkpt>
      <trkpt lat="42.54415" lon="-0.79608">
        <ele>636.616538</ele>
        <time>2022-08-30T05:27:09.723Z</time>
      </trkpt>
      <trkpt lat="42.54374" lon="-0.79643">
        <ele>638.025347</ele>
        <time>2022-08-30T05:27:28.440Z</time>
      </trkpt>
      <trkpt lat="42.54094" lon="-0.79837">
        <ele>650.605521</ele>
        <time>2022-08-30T05:29:47.882Z</time>
      </trkpt>
      <trkpt lat="42.53899" lon="-0.79964">
        <ele>658.141432</ele>
        <time>2022-08-30T05:31:09.555Z</time>
      </trkpt>
      <trkpt lat="42.53772" lon="-0.80038">
        <ele>662.824148</ele>
        <time>2022-08-30T05:32:05.767Z</time>
      </trkpt>
      <trkpt lat="42.53623" lon="-0.80125">
        <ele>667.236724</ele>
        <time>2022-08-30T05:33:09.175Z</time>
      </trkpt>
      <trkpt lat="42.53201" lon="-0.80393">
        <ele>674.037271</ele>
        <time>2022-08-30T05:35:22.139Z</time>
      </trkpt>
      <trkpt lat="42.53102" lon="-0.80438">
        <ele>674.506626</ele>
        <time>2022-08-30T05:35:46.160Z</time>
      </trkpt>
      <trkpt lat="42.52984" lon="-0.80466">
        <ele>675.325013</ele>
        <time>2022-08-30T05:36:15.190Z</time>
      </trkpt>
      <trkpt lat="42.52974" lon="-0.80468">
        <ele>675.449661</ele>
        <time>2022-08-30T05:36:17.940Z</time>
      </trkpt>
      <trkpt lat="42.5279" lon="-0.80506">
        <ele>678.051515</ele>
        <time>2022-08-30T05:37:13.662Z</time>
      </trkpt>
      <trkpt lat="42.52712" lon="-0.80536">
        <ele>679.503973</ele>
        <time>2022-08-30T05:37:39.657Z</time>
      </trkpt>
      <trkpt lat="42.52647" lon="-0.8058">
        <ele>680.725589</ele>
        <time>2022-08-30T05:38:02.575Z</time>
      </trkpt>
      <trkpt lat="42.52244" lon="-0.80914">
        <ele>686.900339</ele>
        <time>2022-08-30T05:40:22.295Z</time>
      </trkpt>
      <trkpt lat="42.52162" lon="-0.80955">
        <ele>686.892358</ele>
        <time>2022-08-30T05:40:39.581Z</time>
      </trkpt>
      <trkpt lat="42.52072" lon="-0.80979">
        <ele>686.307626</ele>
        <time>2022-08-30T05:40:57.282Z</time>
      </trkpt>
      <trkpt lat="42.51717" lon="-0.81071">
        <ele>688.316106</ele>
        <time>2022-08-30T05:42:28.361Z</time>
      </trkpt>
      <trkpt lat="42.51234" lon="-0.81193">
        <ele>698.7262</ele>
        <time>2022-08-30T05:45:07.450Z</time>
      </trkpt>
      <trkpt lat="42.51169" lon="-0.8121">
        <ele>700.739013</ele>
        <time>2022-08-30T05:45:35.234Z</time>
      </trkpt>
      <trkpt lat="42.51129" lon="-0.81223">
        <ele>702.349636</ele>
        <time>2022-08-30T05:45:53.075Z</time>
      </trkpt>
      <trkpt lat="42.51111" lon="-0.81231">
        <ele>703.224105</ele>
        <time>2022-08-30T05:46:01.782Z</time>
      </trkpt>
      <trkpt lat="42.51058" lon="-0.81271">
        <ele>706.06837</ele>
        <time>2022-08-30T05:46:30.351Z</time>
      </trkpt>
      <trkpt lat="42.51019" lon="-0.81321">
        <ele>708.596196</ele>
        <time>2022-08-30T05:46:54.652Z</time>
      </trkpt>
      <trkpt lat="42.50959" lon="-0.81416">
        <ele>713.432659</ele>
        <time>2022-08-30T05:47:37.835Z</time>
      </trkpt>
      <trkpt lat="42.50936" lon="-0.81455">
        <ele>715.453507</ele>
        <time>2022-08-30T05:47:56.155Z</time>
      </trkpt>
      <trkpt lat="42.50921" lon="-0.81499">
        <ele>717.400666</ele>
        <time>2022-08-30T05:48:14.252Z</time>
      </trkpt>
      <trkpt lat="42.50903" lon="-0.81502">
        <ele>718.416642</ele>
        <time>2022-08-30T05:48:23.996Z</time>
      </trkpt>
      <trkpt lat="42.50857" lon="-0.81498">
        <ele>721.065109</ele>
        <time>2022-08-30T05:48:47.820Z</time>
      </trkpt>
      <trkpt lat="42.50712" lon="-0.81532">
        <ele>730.041097</ele>
        <time>2022-08-30T05:50:07.879Z</time>
      </trkpt>
      <trkpt lat="42.50608" lon="-0.81553">
        <ele>735.842977</ele>
        <time>2022-08-30T05:50:57.200Z</time>
      </trkpt>
      <trkpt lat="42.50562" lon="-0.81572">
        <ele>738.494054</ele>
        <time>2022-08-30T05:51:20.983Z</time>
      </trkpt>
      <trkpt lat="42.50507" lon="-0.81613">
        <ele>742.256865</ele>
        <time>2022-08-30T05:51:53.695Z</time>
      </trkpt>
      <trkpt lat="42.50462" lon="-0.8167">
        <ele>746.371588</ele>
        <time>2022-08-30T05:52:28.063Z</time>
      </trkpt>
      <trkpt lat="42.50378" lon="-0.81792">
        <ele>754.778726</ele>
        <time>2022-08-30T05:53:38.621Z</time>
      </trkpt>
      <trkpt lat="42.50347" lon="-0.81825">
        <ele>757.53801</ele>
        <time>2022-08-30T05:54:01.254Z</time>
      </trkpt>
      <trkpt lat="42.50324" lon="-0.81842">
        <ele>759.425871</ele>
        <time>2022-08-30T05:54:16.540Z</time>
      </trkpt>
      <trkpt lat="42.50283" lon="-0.81858">
        <ele>762.447052</ele>
        <time>2022-08-30T05:54:41.009Z</time>
      </trkpt>
      <trkpt lat="42.50233" lon="-0.81861">
        <ele>766.081313</ele>
        <time>2022-08-30T05:55:09.846Z</time>
      </trkpt>
      <trkpt lat="42.50199" lon="-0.8185">
        <ele>768.874089</ele>
        <time>2022-08-30T05:55:31.040Z</time>
      </trkpt>
      <trkpt lat="42.5016" lon="-0.81827">
        <ele>772.237331</ele>
        <time>2022-08-30T05:55:57.438Z</time>
      </trkpt>
      <trkpt lat="42.50127" lon="-0.81791">
        <ele>775.534628</ele>
        <time>2022-08-30T05:56:24.137Z</time>
      </trkpt>
      <trkpt lat="42.50102" lon="-0.81746">
        <ele>778.789658</ele>
        <time>2022-08-30T05:56:50.537Z</time>
      </trkpt>
      <trkpt lat="42.50089" lon="-0.81707">
        <ele>781.371858</ele>
        <time>2022-08-30T05:57:10.338Z</time>
      </trkpt>
      <trkpt lat="42.50079" lon="-0.81651">
        <ele>784.932278</ele>
        <time>2022-08-30T05:57:36.950Z</time>
      </trkpt>
      <trkpt lat="42.50079" lon="-0.81591">
        <ele>788.540398</ele>
        <time>2022-08-30T05:58:05.723Z</time>
      </trkpt>
      <trkpt lat="42.50108" lon="-0.81445">
        <ele>797.232503</ele>
        <time>2022-08-30T05:59:16.695Z</time>
      </trkpt>
      <trkpt lat="42.50113" lon="-0.81386">
        <ele>800.280739</ele>
        <time>2022-08-30T05:59:43.039Z</time>
      </trkpt>
      <trkpt lat="42.50107" lon="-0.81312">
        <ele>804.150658</ele>
        <time>2022-08-30T06:00:14.364Z</time>
      </trkpt>
      <trkpt lat="42.50092" lon="-0.81247">
        <ele>807.256152</ele>
        <time>2022-08-30T06:00:41.988Z</time>
      </trkpt>
      <trkpt lat="42.50018" lon="-0.80988">
        <ele>814.797411</ele>
        <time>2022-08-30T06:02:00.198Z</time>
      </trkpt>
      <trkpt lat="42.50004" lon="-0.80956">
        <ele>815.762768</ele>
        <time>2022-08-30T06:02:07.953Z</time>
      </trkpt>
      <trkpt lat="42.49985" lon="-0.80933">
        <ele>816.666081</ele>
        <time>2022-08-30T06:02:16.468Z</time>
      </trkpt>
      <trkpt lat="42.4996" lon="-0.8092">
        <ele>817.63717</ele>
        <time>2022-08-30T06:02:26.604Z</time>
      </trkpt>
      <trkpt lat="42.49871" lon="-0.80899">
        <ele>822.071765</ele>
        <time>2022-08-30T06:03:07.738Z</time>
      </trkpt>
      <trkpt lat="42.49689" lon="-0.80922">
        <ele>836.760014</ele>
        <time>2022-08-30T06:05:07.851Z</time>
      </trkpt>
      <trkpt lat="42.49623" lon="-0.80912">
        <ele>842.659782</ele>
        <time>2022-08-30T06:05:54.943Z</time>
      </trkpt>
      <trkpt lat="42.49566" lon="-0.80884">
        <ele>848.090426</ele>
        <time>2022-08-30T06:06:36.137Z</time>
      </trkpt>
      <trkpt lat="42.4947" lon="-0.80799">
        <ele>855.466817</ele>
        <time>2022-08-30T06:07:45.182Z</time>
      </trkpt>
      <trkpt lat="42.49413" lon="-0.80764">
        <ele>859.114637</ele>
        <time>2022-08-30T06:08:14.687Z</time>
      </trkpt>
      <trkpt lat="42.49407" lon="-0.80761">
        <ele>859.482501</ele>
        <time>2022-08-30T06:08:17.244Z</time>
      </trkpt>
      <trkpt lat="42.493" lon="-0.80739">
        <ele>860.560865</ele>
        <time>2022-08-30T06:08:51.604Z</time>
      </trkpt>
      <trkpt lat="42.49181" lon="-0.80714">
        <ele>859.46816</ele>
        <time>2022-08-30T06:09:13.244Z</time>
      </trkpt>
      <trkpt lat="42.49109" lon="-0.80682">
        <ele>856.722034</ele>
        <time>2022-08-30T06:09:26.047Z</time>
      </trkpt>
      <trkpt lat="42.48995" lon="-0.80621">
        <ele>850.973814</ele>
        <time>2022-08-30T06:09:46.012Z</time>
      </trkpt>
      <trkpt lat="42.48906" lon="-0.80594">
        <ele>845.149949</ele>
        <time>2022-08-30T06:09:59.966Z</time>
      </trkpt>
      <trkpt lat="42.48617" lon="-0.80565">
        <ele>821.855474</ele>
        <time>2022-08-30T06:10:41.905Z</time>
      </trkpt>
      <trkpt lat="42.48539" lon="-0.80571">
        <ele>816.107857</ele>
        <time>2022-08-30T06:10:53.703Z</time>
      </trkpt>
      <trkpt lat="42.48455" lon="-0.80597">
        <ele>811.407674</ele>
        <time>2022-08-30T06:11:07.075Z</time>
      </trkpt>
      <trkpt lat="42.4836" lon="-0.80627">
        <ele>807.043453</ele>
        <time>2022-08-30T06:11:23.262Z</time>
      </trkpt>
      <trkpt lat="42.48328" lon="-0.80632">
        <ele>805.641315</ele>
        <time>2022-08-30T06:11:28.659Z</time>
      </trkpt>
      <trkpt lat="42.48282" lon="-0.80627">
        <ele>803.912286</ele>
        <time>2022-08-30T06:11:36.369Z</time>
      </trkpt>
      <trkpt lat="42.4824" lon="-0.80612">
        <ele>802.273756</ele>
        <time>2022-08-30T06:11:43.698Z</time>
      </trkpt>
      <trkpt lat="42.48176" lon="-0.80562">
        <ele>799.495503</ele>
        <time>2022-08-30T06:11:55.991Z</time>
      </trkpt>
      <trkpt lat="42.47899" lon="-0.80287">
        <ele>785.917867</ele>
        <time>2022-08-30T06:12:51.458Z</time>
      </trkpt>
      <trkpt lat="42.47728" lon="-0.80158">
        <ele>785.13962</ele>
        <time>2022-08-30T06:13:39.167Z</time>
      </trkpt>
      <trkpt lat="42.47663" lon="-0.80096">
        <ele>784.545928</ele>
        <time>2022-08-30T06:13:58.905Z</time>
      </trkpt>
      <trkpt lat="42.47606" lon="-0.80015">
        <ele>783.785302</ele>
        <time>2022-08-30T06:14:15.070Z</time>
      </trkpt>
      <trkpt lat="42.47531" lon="-0.79891">
        <ele>780.734242</ele>
        <time>2022-08-30T06:14:35.553Z</time>
      </trkpt>
      <trkpt lat="42.47491" lon="-0.79843">
        <ele>779.021702</ele>
        <time>2022-08-30T06:14:44.535Z</time>
      </trkpt>
      <trkpt lat="42.47437" lon="-0.79803">
        <ele>777.074361</ele>
        <time>2022-08-30T06:14:54.790Z</time>
      </trkpt>
      <trkpt lat="42.47348" lon="-0.79771">
        <ele>774.081262</ele>
        <time>2022-08-30T06:15:11.042Z</time>
      </trkpt>
      <trkpt lat="42.47297" lon="-0.79755">
        <ele>772.41023</ele>
        <time>2022-08-30T06:15:19.851Z</time>
      </trkpt>
      <trkpt lat="42.47236" lon="-0.79725">
        <ele>769.802522</ele>
        <time>2022-08-30T06:15:30.466Z</time>
      </trkpt>
      <trkpt lat="42.47206" lon="-0.79706">
        <ele>768.356088</ele>
        <time>2022-08-30T06:15:36.019Z</time>
      </trkpt>
      <trkpt lat="42.47175" lon="-0.79671">
        <ele>766.692955</ele>
        <time>2022-08-30T06:15:42.335Z</time>
      </trkpt>
      <trkpt lat="42.47118" lon="-0.79586">
        <ele>763.300939</ele>
        <time>2022-08-30T06:15:56.221Z</time>
      </trkpt>
      <trkpt lat="42.47101" lon="-0.79578">
        <ele>762.682174</ele>
        <time>2022-08-30T06:15:59.167Z</time>
      </trkpt>
      <trkpt lat="42.47087" lon="-0.7958">
        <ele>762.175866</ele>
        <time>2022-08-30T06:16:01.517Z</time>
      </trkpt>
      <trkpt lat="42.47074" lon="-0.79594">
        <ele>761.599669</ele>
        <time>2022-08-30T06:16:04.170Z</time>
      </trkpt>
      <trkpt lat="42.47068" lon="-0.79614">
        <ele>761.048659</ele>
        <time>2022-08-30T06:16:06.859Z</time>
      </trkpt>
      <trkpt lat="42.47081" lon="-0.79701">
        <ele>758.743228</ele>
        <time>2022-08-30T06:16:18.683Z</time>
      </trkpt>
      <trkpt lat="42.47081" lon="-0.79725">
        <ele>758.128013</ele>
        <time>2022-08-30T06:16:22.037Z</time>
      </trkpt>
      <trkpt lat="42.47068" lon="-0.79749">
        <ele>757.019612</ele>
        <time>2022-08-30T06:16:25.795Z</time>
      </trkpt>
      <trkpt lat="42.47041" lon="-0.79758">
        <ele>755.53264</ele>
        <time>2022-08-30T06:16:30.361Z</time>
      </trkpt>
      <trkpt lat="42.4703" lon="-0.79753">
        <ele>754.930331</ele>
        <time>2022-08-30T06:16:32.126Z</time>
      </trkpt>
      <trkpt lat="42.47016" lon="-0.79736">
        <ele>753.956272</ele>
        <time>2022-08-30T06:16:35.086Z</time>
      </trkpt>
      <trkpt lat="42.46968" lon="-0.79658">
        <ele>750.040563</ele>
        <time>2022-08-30T06:16:46.670Z</time>
      </trkpt>
      <trkpt lat="42.46945" lon="-0.79641">
        <ele>748.696092</ele>
        <time>2022-08-30T06:16:50.473Z</time>
      </trkpt>
      <trkpt lat="42.46885" lon="-0.79624">
        <ele>745.182072</ele>
        <time>2022-08-30T06:16:59.828Z</time>
      </trkpt>
      <trkpt lat="42.46856" lon="-0.7963">
        <ele>743.4804</ele>
        <time>2022-08-30T06:17:04.364Z</time>
      </trkpt>
      <trkpt lat="42.46821" lon="-0.79654">
        <ele>741.242152</ele>
        <time>2022-08-30T06:17:10.236Z</time>
      </trkpt>
      <trkpt lat="42.46777" lon="-0.7972">
        <ele>737.932317</ele>
        <time>2022-08-30T06:17:21.060Z</time>
      </trkpt>
      <trkpt lat="42.46757" lon="-0.79731">
        <ele>737.32626</ele>
        <time>2022-08-30T06:17:24.774Z</time>
      </trkpt>
      <trkpt lat="42.46722" lon="-0.79738">
        <ele>736.363301</ele>
        <time>2022-08-30T06:17:30.943Z</time>
      </trkpt>
      <trkpt lat="42.46683" lon="-0.79732">
        <ele>735.265153</ele>
        <time>2022-08-30T06:17:37.933Z</time>
      </trkpt>
      <trkpt lat="42.46634" lon="-0.79705">
        <ele>733.779613</ele>
        <time>2022-08-30T06:17:47.611Z</time>
      </trkpt>
      <trkpt lat="42.4662" lon="-0.79687">
        <ele>733.289568</ele>
        <time>2022-08-30T06:17:50.930Z</time>
      </trkpt>
      <trkpt lat="42.466" lon="-0.79636">
        <ele>732.523925</ele>
        <time>2022-08-30T06:17:58.797Z</time>
      </trkpt>
      <trkpt lat="42.4657" lon="-0.79603">
        <ele>731.845445</ele>
        <time>2022-08-30T06:18:05.734Z</time>
      </trkpt>
      <trkpt lat="42.46383" lon="-0.79468">
        <ele>729.126813</ele>
        <time>2022-08-30T06:18:46.486Z</time>
      </trkpt>
      <trkpt lat="42.46361" lon="-0.79432">
        <ele>728.822384</ele>
        <time>2022-08-30T06:18:54.091Z</time>
      </trkpt>
      <trkpt lat="42.46321" lon="-0.79331">
        <ele>728.871925</ele>
        <time>2022-08-30T06:19:13.527Z</time>
      </trkpt>
      <trkpt lat="42.46295" lon="-0.79298">
        <ele>729.052554</ele>
        <time>2022-08-30T06:19:22.030Z</time>
      </trkpt>
      <trkpt lat="42.46111" lon="-0.792">
        <ele>730.979079</ele>
        <time>2022-08-30T06:20:14.741Z</time>
      </trkpt>
      <trkpt lat="42.45988" lon="-0.79158">
        <ele>731.834177</ele>
        <time>2022-08-30T06:20:55.912Z</time>
      </trkpt>
      <trkpt lat="42.45969" lon="-0.79161">
        <ele>731.80394</ele>
        <time>2022-08-30T06:21:02.001Z</time>
      </trkpt>
      <trkpt lat="42.45935" lon="-0.79179">
        <ele>731.746813</ele>
        <time>2022-08-30T06:21:11.802Z</time>
      </trkpt>
      <trkpt lat="42.45906" lon="-0.79207">
        <ele>731.68965</ele>
        <time>2022-08-30T06:21:18.979Z</time>
      </trkpt>
      <trkpt lat="42.45899" lon="-0.79231">
        <ele>731.660209</ele>
        <time>2022-08-30T06:21:22.226Z</time>
      </trkpt>
      <trkpt lat="42.45895" lon="-0.7931">
        <ele>728.283388</ele>
        <time>2022-08-30T06:21:31.634Z</time>
      </trkpt>
      <trkpt lat="42.45886" lon="-0.79333">
        <ele>726.888559</ele>
        <time>2022-08-30T06:21:34.496Z</time>
      </trkpt>
      <trkpt lat="42.45875" lon="-0.79345">
        <ele>725.855431</ele>
        <time>2022-08-30T06:21:36.637Z</time>
      </trkpt>
      <trkpt lat="42.45755" lon="-0.79433">
        <ele>716.214612</ele>
        <time>2022-08-30T06:21:56.152Z</time>
      </trkpt>
      <trkpt lat="42.45727" lon="-0.79439">
        <ele>714.247325</ele>
        <time>2022-08-30T06:22:00.320Z</time>
      </trkpt>
      <trkpt lat="42.45622" lon="-0.79437">
        <ele>707.115778</ele>
        <time>2022-08-30T06:22:16.331Z</time>
      </trkpt>
      <trkpt lat="42.45585" lon="-0.79451">
        <ele>705.785705</ele>
        <time>2022-08-30T06:22:22.948Z</time>
      </trkpt>
      <trkpt lat="42.45532" lon="-0.79491">
        <ele>704.442197</ele>
        <time>2022-08-30T06:22:33.996Z</time>
      </trkpt>
      <trkpt lat="42.45482" lon="-0.79563">
        <ele>702.819881</ele>
        <time>2022-08-30T06:22:47.700Z</time>
      </trkpt>
      <trkpt lat="42.45455" lon="-0.79586">
        <ele>702.440348</ele>
        <time>2022-08-30T06:22:54.109Z</time>
      </trkpt>
      <trkpt lat="42.45436" lon="-0.79592">
        <ele>702.457528</ele>
        <time>2022-08-30T06:22:58.165Z</time>
      </trkpt>
      <trkpt lat="42.45411" lon="-0.79591">
        <ele>702.480181</ele>
        <time>2022-08-30T06:23:03.655Z</time>
      </trkpt>
      <trkpt lat="42.45347" lon="-0.79574">
        <ele>702.538403</ele>
        <time>2022-08-30T06:23:19.149Z</time>
      </trkpt>
      <trkpt lat="42.4529" lon="-0.79578">
        <ele>702.58826</ele>
        <time>2022-08-30T06:23:34.239Z</time>
      </trkpt>
      <trkpt lat="42.45253" lon="-0.79588">
        <ele>702.335823</ele>
        <time>2022-08-30T06:23:44.277Z</time>
      </trkpt>
      <trkpt lat="42.4517" lon="-0.79638">
        <ele>701.744432</ele>
        <time>2022-08-30T06:24:03.902Z</time>
      </trkpt>
      <trkpt lat="42.45085" lon="-0.79652">
        <ele>699.902531</ele>
        <time>2022-08-30T06:24:19.292Z</time>
      </trkpt>
      <trkpt lat="42.45046" lon="-0.79652">
        <ele>698.152996</ele>
        <time>2022-08-30T06:24:25.808Z</time>
      </trkpt>
      <trkpt lat="42.44945" lon="-0.79621">
        <ele>693.630082</ele>
        <time>2022-08-30T06:24:41.886Z</time>
      </trkpt>
      <trkpt lat="42.44924" lon="-0.79608">
        <ele>692.553684</ele>
        <time>2022-08-30T06:24:45.430Z</time>
      </trkpt>
      <trkpt lat="42.44749" lon="-0.79404">
        <ele>683.093748</ele>
        <time>2022-08-30T06:25:22.902Z</time>
      </trkpt>
      <trkpt lat="42.44728" lon="-0.79386">
        <ele>682.392164</ele>
        <time>2022-08-30T06:25:27.203Z</time>
      </trkpt>
      <trkpt lat="42.44701" lon="-0.79384">
        <ele>681.613153</ele>
        <time>2022-08-30T06:25:32.086Z</time>
      </trkpt>
      <trkpt lat="42.44652" lon="-0.79411">
        <ele>680.079281</ele>
        <time>2022-08-30T06:25:42.272Z</time>
      </trkpt>
      <trkpt lat="42.4459" lon="-0.79446">
        <ele>678.955753</ele>
        <time>2022-08-30T06:25:55.501Z</time>
      </trkpt>
      <trkpt lat="42.44561" lon="-0.79451">
        <ele>678.482656</ele>
        <time>2022-08-30T06:26:01.377Z</time>
      </trkpt>
      <trkpt lat="42.44428" lon="-0.79406">
        <ele>675.542694</ele>
        <time>2022-08-30T06:26:26.318Z</time>
      </trkpt>
      <trkpt lat="42.44362" lon="-0.79391">
        <ele>673.523862</ele>
        <time>2022-08-30T06:26:37.871Z</time>
      </trkpt>
      <trkpt lat="42.44284" lon="-0.79381">
        <ele>671.151111</ele>
        <time>2022-08-30T06:26:50.815Z</time>
      </trkpt>
      <trkpt lat="42.4413" lon="-0.79292">
        <ele>665.975166</ele>
        <time>2022-08-30T06:27:19.195Z</time>
      </trkpt>
      <trkpt lat="42.43969" lon="-0.79191">
        <ele>665.20549</ele>
        <time>2022-08-30T06:27:57.300Z</time>
      </trkpt>
      <trkpt lat="42.43947" lon="-0.79183">
        <ele>665.21103</ele>
        <time>2022-08-30T06:28:04.382Z</time>
      </trkpt>
      <trkpt lat="42.43926" lon="-0.79188">
        <ele>665.216058</ele>
        <time>2022-08-30T06:28:10.833Z</time>
      </trkpt>
      <trkpt lat="42.43901" lon="-0.79207">
        <ele>665.222882</ele>
        <time>2022-08-30T06:28:18.966Z</time>
      </trkpt>
      <trkpt lat="42.43891" lon="-0.79223">
        <ele>665.226637</ele>
        <time>2022-08-30T06:28:22.912Z</time>
      </trkpt>
      <trkpt lat="42.43869" lon="-0.79285">
        <ele>665.238669</ele>
        <time>2022-08-30T06:28:33.514Z</time>
      </trkpt>
      <trkpt lat="42.43834" lon="-0.79342">
        <ele>665.12023</ele>
        <time>2022-08-30T06:28:44.308Z</time>
      </trkpt>
      <trkpt lat="42.43814" lon="-0.7937">
        <ele>664.871044</ele>
        <time>2022-08-30T06:28:49.884Z</time>
      </trkpt>
      <trkpt lat="42.43763" lon="-0.7942">
        <ele>664.316876</ele>
        <time>2022-08-30T06:29:02.108Z</time>
      </trkpt>
      <trkpt lat="42.43731" lon="-0.79429">
        <ele>664.033678</ele>
        <time>2022-08-30T06:29:08.858Z</time>
      </trkpt>
      <trkpt lat="42.43658" lon="-0.79406">
        <ele>663.286099</ele>
        <time>2022-08-30T06:29:24.762Z</time>
      </trkpt>
      <trkpt lat="42.43607" lon="-0.79409">
        <ele>662.715044</ele>
        <time>2022-08-30T06:29:35.938Z</time>
      </trkpt>
      <trkpt lat="42.4359" lon="-0.79425">
        <ele>662.481661</ele>
        <time>2022-08-30T06:29:40.343Z</time>
      </trkpt>
      <trkpt lat="42.4357" lon="-0.79478">
        <ele>661.989491</ele>
        <time>2022-08-30T06:29:48.812Z</time>
      </trkpt>
      <trkpt lat="42.43553" lon="-0.79506">
        <ele>661.690495</ele>
        <time>2022-08-30T06:29:53.609Z</time>
      </trkpt>
      <trkpt lat="42.43534" lon="-0.79522">
        <ele>660.769637</ele>
        <time>2022-08-30T06:29:57.524Z</time>
      </trkpt>
      <trkpt lat="42.43514" lon="-0.79527">
        <ele>659.847739</ele>
        <time>2022-08-30T06:30:00.971Z</time>
      </trkpt>
      <trkpt lat="42.43432" lon="-0.79527">
        <ele>656.091906</ele>
        <time>2022-08-30T06:30:13.902Z</time>
      </trkpt>
      <trkpt lat="42.43357" lon="-0.79513">
        <ele>652.725667</ele>
        <time>2022-08-30T06:30:25.616Z</time>
      </trkpt>
      <trkpt lat="42.43293" lon="-0.79525">
        <ele>650.08629</ele>
        <time>2022-08-30T06:30:36.098Z</time>
      </trkpt>
      <trkpt lat="42.43217" lon="-0.79507">
        <ele>646.983974</ele>
        <time>2022-08-30T06:30:49.068Z</time>
      </trkpt>
      <trkpt lat="42.43172" lon="-0.79507">
        <ele>645.303311</ele>
        <time>2022-08-30T06:30:56.854Z</time>
      </trkpt>
      <trkpt lat="42.43075" lon="-0.79494">
        <ele>641.95526</ele>
        <time>2022-08-30T06:31:13.456Z</time>
      </trkpt>
      <trkpt lat="42.42971" lon="-0.79456">
        <ele>638.577415</ele>
        <time>2022-08-30T06:31:31.524Z</time>
      </trkpt>
      <trkpt lat="42.42856" lon="-0.79395">
        <ele>635.062714</ele>
        <time>2022-08-30T06:31:53.042Z</time>
      </trkpt>
      <trkpt lat="42.42768" lon="-0.79365">
        <ele>633.790082</ele>
        <time>2022-08-30T06:32:10.422Z</time>
      </trkpt>
      <trkpt lat="42.42683" lon="-0.79317">
        <ele>632.605845</ele>
        <time>2022-08-30T06:32:29.323Z</time>
      </trkpt>
      <trkpt lat="42.42652" lon="-0.79304">
        <ele>631.940298</ele>
        <time>2022-08-30T06:32:35.619Z</time>
      </trkpt>
      <trkpt lat="42.42632" lon="-0.79309">
        <ele>631.504746</ele>
        <time>2022-08-30T06:32:39.356Z</time>
      </trkpt>
      <trkpt lat="42.42614" lon="-0.79323">
        <ele>631.050642</ele>
        <time>2022-08-30T06:32:43.297Z</time>
      </trkpt>
      <trkpt lat="42.42595" lon="-0.79341">
        <ele>630.545923</ele>
        <time>2022-08-30T06:32:47.468Z</time>
      </trkpt>
      <trkpt lat="42.42586" lon="-0.79358">
        <ele>630.219706</ele>
        <time>2022-08-30T06:32:50.210Z</time>
      </trkpt>
      <trkpt lat="42.42534" lon="-0.79576">
        <ele>625.704209</ele>
        <time>2022-08-30T06:33:19.491Z</time>
      </trkpt>
      <trkpt lat="42.42523" lon="-0.79596">
        <ele>625.143488</ele>
        <time>2022-08-30T06:33:22.637Z</time>
      </trkpt>
      <trkpt lat="42.42505" lon="-0.79605">
        <ele>624.552699</ele>
        <time>2022-08-30T06:33:25.914Z</time>
      </trkpt>
      <trkpt lat="42.42484" lon="-0.79592">
        <ele>623.845641</ele>
        <time>2022-08-30T06:33:29.917Z</time>
      </trkpt>
      <trkpt lat="42.42465" lon="-0.79521">
        <ele>622.082119</ele>
        <time>2022-08-30T06:33:39.433Z</time>
      </trkpt>
      <trkpt lat="42.4245" lon="-0.79492">
        <ele>621.21632</ele>
        <time>2022-08-30T06:33:44.073Z</time>
      </trkpt>
      <trkpt lat="42.42376" lon="-0.79434">
        <ele>618.42157</ele>
        <time>2022-08-30T06:33:58.963Z</time>
      </trkpt>
      <trkpt lat="42.42341" lon="-0.79418">
        <ele>617.208514</ele>
        <time>2022-08-30T06:34:04.963Z</time>
      </trkpt>
      <trkpt lat="42.42272" lon="-0.79408">
        <ele>614.38397</ele>
        <time>2022-08-30T06:34:16.114Z</time>
      </trkpt>
      <trkpt lat="42.42206" lon="-0.79361">
        <ele>611.306264</ele>
        <time>2022-08-30T06:34:27.937Z</time>
      </trkpt>
      <trkpt lat="42.4216" lon="-0.79338">
        <ele>609.945192</ele>
        <time>2022-08-30T06:34:36.239Z</time>
      </trkpt>
      <trkpt lat="42.42095" lon="-0.79317">
        <ele>609.962303</ele>
        <time>2022-08-30T06:34:50.550Z</time>
      </trkpt>
      <trkpt lat="42.4201" lon="-0.79302">
        <ele>609.984303</ele>
        <time>2022-08-30T06:35:16.519Z</time>
      </trkpt>
      <trkpt lat="42.41998" lon="-0.79292">
        <ele>609.971441</ele>
        <time>2022-08-30T06:35:19.333Z</time>
      </trkpt>
      <trkpt lat="42.41988" lon="-0.79272">
        <ele>609.851731</ele>
        <time>2022-08-30T06:35:26.530Z</time>
      </trkpt>
      <trkpt lat="42.41982" lon="-0.79243">
        <ele>609.703596</ele>
        <time>2022-08-30T06:35:31.820Z</time>
      </trkpt>
      <trkpt lat="42.41979" lon="-0.79227">
        <ele>609.622757</ele>
        <time>2022-08-30T06:35:37.440Z</time>
      </trkpt>
      <trkpt lat="42.41937" lon="-0.78857">
        <ele>605.472973</ele>
        <time>2022-08-30T06:36:28.716Z</time>
      </trkpt>
      <trkpt lat="42.41936" lon="-0.78759">
        <ele>603.349586</ele>
        <time>2022-08-30T06:36:40.943Z</time>
      </trkpt>
      <trkpt lat="42.41931" lon="-0.78728">
        <ele>602.563432</ele>
        <time>2022-08-30T06:36:44.841Z</time>
      </trkpt>
      <trkpt lat="42.4192" lon="-0.78705">
        <ele>601.863474</ele>
        <time>2022-08-30T06:36:48.315Z</time>
      </trkpt>
      <trkpt lat="42.41901" lon="-0.78687">
        <ele>601.084156</ele>
        <time>2022-08-30T06:36:52.185Z</time>
      </trkpt>
      <trkpt lat="42.41777" lon="-0.78631">
        <ele>596.659128</ele>
        <time>2022-08-30T06:37:14.229Z</time>
      </trkpt>
      <trkpt lat="42.41721" lon="-0.78615">
        <ele>594.777763</ele>
        <time>2022-08-30T06:37:23.746Z</time>
      </trkpt>
      <trkpt lat="42.41664" lon="-0.78613">
        <ele>592.887593</ele>
        <time>2022-08-30T06:37:33.647Z</time>
      </trkpt>
      <trkpt lat="42.41633" lon="-0.7862">
        <ele>592.16373</ele>
        <time>2022-08-30T06:37:39.221Z</time>
      </trkpt>
      <trkpt lat="42.41563" lon="-0.78649">
        <ele>590.58466</ele>
        <time>2022-08-30T06:37:52.542Z</time>
      </trkpt>
      <trkpt lat="42.41331" lon="-0.78663">
        <ele>585.924174</ele>
        <time>2022-08-30T06:38:35.445Z</time>
      </trkpt>
      <trkpt lat="42.41271" lon="-0.78674">
        <ele>584.740252</ele>
        <time>2022-08-30T06:38:46.473Z</time>
      </trkpt>
      <trkpt lat="42.41237" lon="-0.78693">
        <ele>583.977072</ele>
        <time>2022-08-30T06:38:53.384Z</time>
      </trkpt>
      <trkpt lat="42.4121" lon="-0.78716">
        <ele>583.336383</ele>
        <time>2022-08-30T06:38:59.121Z</time>
      </trkpt>
      <trkpt lat="42.41162" lon="-0.78753">
        <ele>582.209047</ele>
        <time>2022-08-30T06:39:09.241Z</time>
      </trkpt>
      <trkpt lat="42.41" lon="-0.78859">
        <ele>578.259719</ele>
        <time>2022-08-30T06:39:41.609Z</time>
      </trkpt>
      <trkpt lat="42.40983" lon="-0.78863">
        <ele>577.87437</ele>
        <time>2022-08-30T06:39:44.782Z</time>
      </trkpt>
      <trkpt lat="42.40944" lon="-0.78848">
        <ele>577.102543</ele>
        <time>2022-08-30T06:39:52.096Z</time>
      </trkpt>
      <trkpt lat="42.40921" lon="-0.78821">
        <ele>576.52108</ele>
        <time>2022-08-30T06:39:57.774Z</time>
      </trkpt>
      <trkpt lat="42.40898" lon="-0.78783">
        <ele>575.837441</ele>
        <time>2022-08-30T06:40:04.512Z</time>
      </trkpt>
      <trkpt lat="42.40884" lon="-0.78753">
        <ele>575.347341</ele>
        <time>2022-08-30T06:40:09.331Z</time>
      </trkpt>
      <trkpt lat="42.40879" lon="-0.78727">
        <ele>574.97176</ele>
        <time>2022-08-30T06:40:13.045Z</time>
      </trkpt>
      <trkpt lat="42.40884" lon="-0.7865">
        <ele>574.0762</ele>
        <time>2022-08-30T06:40:23.693Z</time>
      </trkpt>
      <trkpt lat="42.40897" lon="-0.78548">
        <ele>573.171623</ele>
        <time>2022-08-30T06:40:38.491Z</time>
      </trkpt>
      <trkpt lat="42.40904" lon="-0.78515">
        <ele>572.872863</ele>
        <time>2022-08-30T06:40:43.394Z</time>
      </trkpt>
      <trkpt lat="42.4098" lon="-0.78249">
        <ele>571.660948</ele>
        <time>2022-08-30T06:41:27.387Z</time>
      </trkpt>
      <trkpt lat="42.40981" lon="-0.7816">
        <ele>571.650818</ele>
        <time>2022-08-30T06:41:42.910Z</time>
      </trkpt>
      <trkpt lat="42.40968" lon="-0.78101">
        <ele>571.723279</ele>
        <time>2022-08-30T06:41:54.050Z</time>
      </trkpt>
      <trkpt lat="42.40911" lon="-0.77942">
        <ele>571.606861</ele>
        <time>2022-08-30T06:42:23.938Z</time>
      </trkpt>
      <trkpt lat="42.40677" lon="-0.77534">
        <ele>568.501865</ele>
        <time>2022-08-30T06:43:40.463Z</time>
      </trkpt>
      <trkpt lat="42.40589" lon="-0.7734">
        <ele>566.737159</ele>
        <time>2022-08-30T06:44:14.190Z</time>
      </trkpt>
      <trkpt lat="42.40578" lon="-0.77287">
        <ele>566.186319</ele>
        <time>2022-08-30T06:44:21.846Z</time>
      </trkpt>
      <trkpt lat="42.40552" lon="-0.7708">
        <ele>564.164031</ele>
        <time>2022-08-30T06:44:51.162Z</time>
      </trkpt>
      <trkpt lat="42.40521" lon="-0.76922">
        <ele>562.676056</ele>
        <time>2022-08-30T06:45:15.027Z</time>
      </trkpt>
      <trkpt lat="42.40434" lon="-0.76791">
        <ele>560.907894</ele>
        <time>2022-08-30T06:45:41.029Z</time>
      </trkpt>
      <trkpt lat="42.40296" lon="-0.76632">
        <ele>557.423572</ele>
        <time>2022-08-30T06:46:13.558Z</time>
      </trkpt>
      <trkpt lat="42.40183" lon="-0.7641">
        <ele>554.478086</ele>
        <time>2022-08-30T06:46:50.994Z</time>
      </trkpt>
      <trkpt lat="42.40149" lon="-0.76329">
        <ele>554.263835</ele>
        <time>2022-08-30T06:47:06.935Z</time>
      </trkpt>
      <trkpt lat="42.40133" lon="-0.7629">
        <ele>554.317669</ele>
        <time>2022-08-30T06:47:15.325Z</time>
      </trkpt>
      <trkpt lat="42.40066" lon="-0.76118">
        <ele>553.944112</ele>
        <time>2022-08-30T06:47:50.292Z</time>
      </trkpt>
      <trkpt lat="42.39941" lon="-0.75755">
        <ele>549.407679</ele>
        <time>2022-08-30T06:48:45.053Z</time>
      </trkpt>
      <trkpt lat="42.39891" lon="-0.75651">
        <ele>548.553549</ele>
        <time>2022-08-30T06:49:02.473Z</time>
      </trkpt>
      <trkpt lat="42.39589" lon="-0.75046">
        <ele>545.583821</ele>
        <time>2022-08-30T06:50:55.473Z</time>
      </trkpt>
      <trkpt lat="42.395" lon="-0.7488">
        <ele>545.123123</ele>
        <time>2022-08-30T06:51:29.358Z</time>
      </trkpt>
      <trkpt lat="42.3947" lon="-0.74842">
        <ele>544.901276</ele>
        <time>2022-08-30T06:51:37.815Z</time>
      </trkpt>
      <trkpt lat="42.39395" lon="-0.7479">
        <ele>544.445794</ele>
        <time>2022-08-30T06:51:54.471Z</time>
      </trkpt>
      <trkpt lat="42.39361" lon="-0.74766">
        <ele>544.49388</ele>
        <time>2022-08-30T06:52:02.647Z</time>
      </trkpt>
      <trkpt lat="42.39276" lon="-0.74702">
        <ele>544.916146</ele>
        <time>2022-08-30T06:52:24.565Z</time>
      </trkpt>
      <trkpt lat="42.39242" lon="-0.74671">
        <ele>545.093765</ele>
        <time>2022-08-30T06:52:36.108Z</time>
      </trkpt>
      <trkpt lat="42.39234" lon="-0.74663">
        <ele>545.138865</ele>
        <time>2022-08-30T06:52:39.377Z</time>
      </trkpt>
      <trkpt lat="42.39201" lon="-0.74623">
        <ele>545.998307</ele>
        <time>2022-08-30T06:52:53.519Z</time>
      </trkpt>
      <trkpt lat="42.39079" lon="-0.74412">
        <ele>549.552265</ele>
        <time>2022-08-30T06:54:01.364Z</time>
      </trkpt>
      <trkpt lat="42.3903" lon="-0.74187">
        <ele>549.905622</ele>
        <time>2022-08-30T06:54:41.399Z</time>
      </trkpt>
      <trkpt lat="42.39049" lon="-0.7412">
        <ele>549.148206</ele>
        <time>2022-08-30T06:54:51.234Z</time>
      </trkpt>
      <trkpt lat="42.39098" lon="-0.74052">
        <ele>548.140558</ele>
        <time>2022-08-30T06:55:03.915Z</time>
      </trkpt>
      <trkpt lat="42.39113" lon="-0.74016">
        <ele>547.454151</ele>
        <time>2022-08-30T06:55:09.318Z</time>
      </trkpt>
      <trkpt lat="42.3912" lon="-0.73985">
        <ele>546.869456</ele>
        <time>2022-08-30T06:55:13.414Z</time>
      </trkpt>
      <trkpt lat="42.39122" lon="-0.73977">
        <ele>546.717266</ele>
        <time>2022-08-30T06:55:14.486Z</time>
      </trkpt>
      <trkpt lat="42.39127" lon="-0.7394">
        <ele>546.030074</ele>
        <time>2022-08-30T06:55:19.318Z</time>
      </trkpt>
      <trkpt lat="42.39104" lon="-0.73889">
        <ele>544.93669</ele>
        <time>2022-08-30T06:55:27.127Z</time>
      </trkpt>
      <trkpt lat="42.39086" lon="-0.73878">
        <ele>544.461993</ele>
        <time>2022-08-30T06:55:30.588Z</time>
      </trkpt>
      <trkpt lat="42.39066" lon="-0.73875">
        <ele>543.956578</ele>
        <time>2022-08-30T06:55:34.325Z</time>
      </trkpt>
      <trkpt lat="42.38892" lon="-0.73862">
        <ele>541.128787</ele>
        <time>2022-08-30T06:56:06.787Z</time>
      </trkpt>
      <trkpt lat="42.38788" lon="-0.73885">
        <ele>540.484593</ele>
        <time>2022-08-30T06:56:29.236Z</time>
      </trkpt>
      <trkpt lat="42.38753" lon="-0.73876">
        <ele>540.349991</ele>
        <time>2022-08-30T06:56:36.764Z</time>
      </trkpt>
      <trkpt lat="42.38692" lon="-0.73834">
        <ele>540.023911</ele>
        <time>2022-08-30T06:56:51.680Z</time>
      </trkpt>
      <trkpt lat="42.386" lon="-0.73811">
        <ele>538.987283</ele>
        <time>2022-08-30T06:57:12.463Z</time>
      </trkpt>
      <trkpt lat="42.38436" lon="-0.7377">
        <ele>538.904985</ele>
        <time>2022-08-30T06:57:42.121Z</time>
      </trkpt>
      <trkpt lat="42.38424" lon="-0.73767">
        <ele>539.00827</ele>
        <time>2022-08-30T06:57:45.335Z</time>
      </trkpt>
      <trkpt lat="42.38389" lon="-0.73758">
        <ele>539.31272</ele>
        <time>2022-08-30T06:58:00.262Z</time>
      </trkpt>
      <trkpt lat="42.38365" lon="-0.73755">
        <ele>539.511525</ele>
        <time>2022-08-30T06:58:11.812Z</time>
      </trkpt>
      <trkpt lat="42.38352" lon="-0.73765">
        <ele>539.632985</ele>
        <time>2022-08-30T06:58:16.905Z</time>
      </trkpt>
      <trkpt lat="42.3835" lon="-0.73757">
        <ele>540.045959</ele>
        <time>2022-08-30T06:58:21.506Z</time>
      </trkpt>
      <trkpt lat="42.38354" lon="-0.73749">
        <ele>540.827235</ele>
        <time>2022-08-30T06:58:25.690Z</time>
      </trkpt>
      <trkpt lat="42.38384" lon="-0.73742">
        <ele>544.201874</ele>
        <time>2022-08-30T06:58:42.282Z</time>
      </trkpt>
      <trkpt lat="42.38396" lon="-0.7373">
        <ele>545.917799</ele>
        <time>2022-08-30T06:58:50.922Z</time>
      </trkpt>
      <trkpt lat="42.38407" lon="-0.73687">
        <ele>549.726715</ele>
        <time>2022-08-30T06:59:11.183Z</time>
      </trkpt>
      <trkpt lat="42.38407" lon="-0.73624">
        <ele>554.89267</ele>
        <time>2022-08-30T06:59:51.815Z</time>
      </trkpt>
      <trkpt lat="42.38404" lon="-0.73611">
        <ele>556.063926</ele>
        <time>2022-08-30T07:00:07.167Z</time>
      </trkpt>
      <trkpt lat="42.3838" lon="-0.73576">
        <ele>560.055085</ele>
        <time>2022-08-30T07:00:54.402Z</time>
      </trkpt>
      <trkpt lat="42.38364" lon="-0.73563">
        <ele>562.451102</ele>
        <time>2022-08-30T07:01:13.422Z</time>
      </trkpt>
      <trkpt lat="42.38339" lon="-0.73557">
        <ele>565.608017</ele>
        <time>2022-08-30T07:01:48.782Z</time>
      </trkpt>
      <trkpt lat="42.38321" lon="-0.73561">
        <ele>567.976347</ele>
        <time>2022-08-30T07:02:00.402Z</time>
      </trkpt>
      <trkpt lat="42.38314" lon="-0.73568">
        <ele>569.079926</ele>
        <time>2022-08-30T07:02:13.114Z</time>
      </trkpt>
      <trkpt lat="42.383" lon="-0.73603">
        <ele>572.865827</ele>
        <time>2022-08-30T07:02:32.397Z</time>
      </trkpt>
      <trkpt lat="42.38295" lon="-0.73604">
        <ele>573.55845</ele>
        <time>2022-08-30T07:02:40.780Z</time>
      </trkpt>
      <trkpt lat="42.38303" lon="-0.73571">
        <ele>576.84136</ele>
        <time>2022-08-30T07:02:57.009Z</time>
      </trkpt>
      <trkpt lat="42.38298" lon="-0.73539">
        <ele>579.885837</ele>
        <time>2022-08-30T07:03:23.823Z</time>
      </trkpt>
      <trkpt lat="42.38327" lon="-0.73465">
        <ele>583.165872</ele>
        <time>2022-08-30T07:04:13.606Z</time>
      </trkpt>
      <trkpt lat="42.38333" lon="-0.73425">
        <ele>583.384633</ele>
        <time>2022-08-30T07:04:24.392Z</time>
      </trkpt>
      <trkpt lat="42.38314" lon="-0.73349">
        <ele>583.813352</ele>
        <time>2022-08-30T07:04:44.532Z</time>
      </trkpt>
      <trkpt lat="42.38279" lon="-0.73144">
        <ele>581.426266</ele>
        <time>2022-08-30T07:05:30.486Z</time>
      </trkpt>
      <trkpt lat="42.38217" lon="-0.72938">
        <ele>578.668327</ele>
        <time>2022-08-30T07:06:27.825Z</time>
      </trkpt>
      <trkpt lat="42.38116" lon="-0.72526">
        <ele>575.862578</ele>
        <time>2022-08-30T07:08:20.563Z</time>
      </trkpt>
      <trkpt lat="42.38054" lon="-0.72237">
        <ele>571.243702</ele>
        <time>2022-08-30T07:09:33.629Z</time>
      </trkpt>
      <trkpt lat="42.38015" lon="-0.72004">
        <ele>564.642103</ele>
        <time>2022-08-30T07:10:26.310Z</time>
      </trkpt>
      <trkpt lat="42.38007" lon="-0.71914">
        <ele>561.55735</ele>
        <time>2022-08-30T07:10:45.450Z</time>
      </trkpt>
      <trkpt lat="42.38007" lon="-0.71812">
        <ele>558.134068</ele>
        <time>2022-08-30T07:11:06.877Z</time>
      </trkpt>
      <trkpt lat="42.38015" lon="-0.71441">
        <ele>548.536714</ele>
        <time>2022-08-30T07:12:27.920Z</time>
      </trkpt>
      <trkpt lat="42.38027" lon="-0.71323">
        <ele>550.513006</ele>
        <time>2022-08-30T07:13:09.422Z</time>
      </trkpt>
      <trkpt lat="42.3797" lon="-0.71331">
        <ele>553.654685</ele>
        <time>2022-08-30T07:13:48.884Z</time>
      </trkpt>
      <trkpt lat="42.37847" lon="-0.71298">
        <ele>561.479087</ele>
        <time>2022-08-30T07:15:27.927Z</time>
      </trkpt>
      <trkpt lat="42.37841" lon="-0.7129">
        <ele>562.063432</ele>
        <time>2022-08-30T07:15:34.764Z</time>
      </trkpt>
      <trkpt lat="42.37828" lon="-0.71274">
        <ele>563.311255</ele>
        <time>2022-08-30T07:15:48.022Z</time>
      </trkpt>
      <trkpt lat="42.37812" lon="-0.71238">
        <ele>565.510147</ele>
        <time>2022-08-30T07:16:10.244Z</time>
      </trkpt>
      <trkpt lat="42.37806" lon="-0.71127">
        <ele>571.433524</ele>
        <time>2022-08-30T07:17:03.050Z</time>
      </trkpt>
      <trkpt lat="42.37774" lon="-0.71057">
        <ele>576.046887</ele>
        <time>2022-08-30T07:17:47.950Z</time>
      </trkpt>
      <trkpt lat="42.37773" lon="-0.71018">
        <ele>578.228491</ele>
        <time>2022-08-30T07:18:08.193Z</time>
      </trkpt>
      <trkpt lat="42.37753" lon="-0.70936">
        <ele>583.135397</ele>
        <time>2022-08-30T07:18:58.241Z</time>
      </trkpt>
      <trkpt lat="42.37748" lon="-0.70934">
        <ele>583.498998</ele>
        <time>2022-08-30T07:19:02.445Z</time>
      </trkpt>
      <trkpt lat="42.37738" lon="-0.70928">
        <ele>584.28988</ele>
        <time>2022-08-30T07:19:11.887Z</time>
      </trkpt>
      <trkpt lat="42.37726" lon="-0.70919">
        <ele>585.271103</ele>
        <time>2022-08-30T07:19:23.950Z</time>
      </trkpt>
      <trkpt lat="42.37716" lon="-0.70899">
        <ele>586.588448</ele>
        <time>2022-08-30T07:19:39.019Z</time>
      </trkpt>
      <trkpt lat="42.37692" lon="-0.7084">
        <ele>590.167446</ele>
        <time>2022-08-30T07:20:24.295Z</time>
      </trkpt>
      <trkpt lat="42.37471" lon="-0.70057">
        <ele>633.095831</ele>
        <time>2022-08-30T07:27:41.537Z</time>
      </trkpt>
      <trkpt lat="42.37441" lon="-0.69991">
        <ele>634.61829</ele>
        <time>2022-08-30T07:28:15.356Z</time>
      </trkpt>
      <trkpt lat="42.37419" lon="-0.69958">
        <ele>635.049095</ele>
        <time>2022-08-30T07:28:30.563Z</time>
      </trkpt>
      <trkpt lat="42.37393" lon="-0.69885">
        <ele>635.83069</ele>
        <time>2022-08-30T07:28:52.626Z</time>
      </trkpt>
      <trkpt lat="42.37386" lon="-0.6988">
        <ele>635.928399</ele>
        <time>2022-08-30T07:28:54.894Z</time>
      </trkpt>
      <trkpt lat="42.37365" lon="-0.69887">
        <ele>636.220275</ele>
        <time>2022-08-30T07:29:03.897Z</time>
      </trkpt>
      <trkpt lat="42.37339" lon="-0.69903">
        <ele>636.168531</ele>
        <time>2022-08-30T07:29:13.251Z</time>
      </trkpt>
      <trkpt lat="42.37305" lon="-0.69944">
        <ele>635.122275</ele>
        <time>2022-08-30T07:29:28.323Z</time>
      </trkpt>
      <trkpt lat="42.37292" lon="-0.69952">
        <ele>634.802685</ele>
        <time>2022-08-30T07:29:32.644Z</time>
      </trkpt>
      <trkpt lat="42.3727" lon="-0.69952">
        <ele>634.302847</ele>
        <time>2022-08-30T07:29:40.432Z</time>
      </trkpt>
      <trkpt lat="42.37237" lon="-0.69933">
        <ele>633.491557</ele>
        <time>2022-08-30T07:29:52.318Z</time>
      </trkpt>
      <trkpt lat="42.37226" lon="-0.69934">
        <ele>633.242973</ele>
        <time>2022-08-30T07:29:55.517Z</time>
      </trkpt>
      <trkpt lat="42.3719" lon="-0.69982">
        <ele>632.255043</ele>
        <time>2022-08-30T07:30:09.767Z</time>
      </trkpt>
      <trkpt lat="42.37053" lon="-0.70069">
        <ele>630.968409</ele>
        <time>2022-08-30T07:31:01.172Z</time>
      </trkpt>
      <trkpt lat="42.3701" lon="-0.70161">
        <ele>635.206884</ele>
        <time>2022-08-30T07:31:48.210Z</time>
      </trkpt>
      <trkpt lat="42.36994" lon="-0.70181">
        <ele>636.71301</ele>
        <time>2022-08-30T07:32:03.484Z</time>
      </trkpt>
      <trkpt lat="42.36965" lon="-0.70204">
        <ele>639.003209</ele>
        <time>2022-08-30T07:32:33.624Z</time>
      </trkpt>
      <trkpt lat="42.36945" lon="-0.70288">
        <ele>643.450748</ele>
        <time>2022-08-30T07:33:28.851Z</time>
      </trkpt>
      <trkpt lat="42.36925" lon="-0.7033">
        <ele>645.16395</ele>
        <time>2022-08-30T07:33:59.848Z</time>
      </trkpt>
      <trkpt lat="42.36901" lon="-0.70353">
        <ele>646.494013</ele>
        <time>2022-08-30T07:34:19.772Z</time>
      </trkpt>
      <trkpt lat="42.36895" lon="-0.70366">
        <ele>647.016506</ele>
        <time>2022-08-30T07:34:31.877Z</time>
      </trkpt>
      <trkpt lat="42.36888" lon="-0.70364">
        <ele>647.368451</ele>
        <time>2022-08-30T07:34:34.473Z</time>
      </trkpt>
      <trkpt lat="42.36887" lon="-0.70353">
        <ele>647.721173</ele>
        <time>2022-08-30T07:34:38.550Z</time>
      </trkpt>
      <trkpt lat="42.3691" lon="-0.70282">
        <ele>650.384898</ele>
        <time>2022-08-30T07:35:10.320Z</time>
      </trkpt>
      <trkpt lat="42.36904" lon="-0.70248">
        <ele>651.559897</ele>
        <time>2022-08-30T07:35:18.371Z</time>
      </trkpt>
      <trkpt lat="42.36907" lon="-0.70199">
        <ele>650.39272</ele>
        <time>2022-08-30T07:35:30.570Z</time>
      </trkpt>
      <trkpt lat="42.36893" lon="-0.70104">
        <ele>648.009658</ele>
        <time>2022-08-30T07:35:51.453Z</time>
      </trkpt>
      <trkpt lat="42.3688" lon="-0.70071">
        <ele>647.083786</ele>
        <time>2022-08-30T07:35:59.364Z</time>
      </trkpt>
      <trkpt lat="42.36833" lon="-0.70022">
        <ele>645.704656</ele>
        <time>2022-08-30T07:36:17.139Z</time>
      </trkpt>
      <trkpt lat="42.36822" lon="-0.69985">
        <ele>645.929331</ele>
        <time>2022-08-30T07:36:26.504Z</time>
      </trkpt>
      <trkpt lat="42.36809" lon="-0.6998">
        <ele>646.031413</ele>
        <time>2022-08-30T07:36:31.011Z</time>
      </trkpt>
      <trkpt lat="42.36789" lon="-0.69998">
        <ele>646.218049</ele>
        <time>2022-08-30T07:36:40.466Z</time>
      </trkpt>
      <trkpt lat="42.36776" lon="-0.70001">
        <ele>646.315804</ele>
        <time>2022-08-30T07:36:45.800Z</time>
      </trkpt>
      <trkpt lat="42.36772" lon="-0.69991">
        <ele>646.379566</ele>
        <time>2022-08-30T07:36:49.734Z</time>
      </trkpt>
      <trkpt lat="42.36776" lon="-0.69964">
        <ele>646.532254</ele>
        <time>2022-08-30T07:36:59.629Z</time>
      </trkpt>
      <trkpt lat="42.3677" lon="-0.69951">
        <ele>646.617749</ele>
        <time>2022-08-30T07:37:05.315Z</time>
      </trkpt>
      <trkpt lat="42.36691" lon="-0.69874">
        <ele>650.444525</ele>
        <time>2022-08-30T07:38:01.803Z</time>
      </trkpt>
      <trkpt lat="42.36626" lon="-0.69822">
        <ele>655.460927</ele>
        <time>2022-08-30T07:39:00.170Z</time>
      </trkpt>
      <trkpt lat="42.36608" lon="-0.69817">
        <ele>656.683802</ele>
        <time>2022-08-30T07:39:12.882Z</time>
      </trkpt>
      <trkpt lat="42.36594" lon="-0.69822">
        <ele>657.648665</ele>
        <time>2022-08-30T07:39:25.165Z</time>
      </trkpt>
      <trkpt lat="42.36575" lon="-0.69836">
        <ele>659.138101</ele>
        <time>2022-08-30T07:39:40.693Z</time>
      </trkpt>
      <trkpt lat="42.36563" lon="-0.69864">
        <ele>661.092974</ele>
        <time>2022-08-30T07:39:59.379Z</time>
      </trkpt>
      <trkpt lat="42.36556" lon="-0.6987">
        <ele>661.827929</ele>
        <time>2022-08-30T07:40:05.489Z</time>
      </trkpt>
      <trkpt lat="42.36549" lon="-0.69868">
        <ele>662.427681</ele>
        <time>2022-08-30T07:40:10.553Z</time>
      </trkpt>
      <trkpt lat="42.36541" lon="-0.69853">
        <ele>663.526991</ele>
        <time>2022-08-30T07:40:22.257Z</time>
      </trkpt>
      <trkpt lat="42.36526" lon="-0.69831">
        <ele>665.366661</ele>
        <time>2022-08-30T07:40:37.598Z</time>
      </trkpt>
      <trkpt lat="42.36511" lon="-0.69791">
        <ele>668.078424</ele>
        <time>2022-08-30T07:41:03.053Z</time>
      </trkpt>
      <trkpt lat="42.36491" lon="-0.69765">
        <ele>670.380293</ele>
        <time>2022-08-30T07:41:26.152Z</time>
      </trkpt>
      <trkpt lat="42.36439" lon="-0.69725">
        <ele>675.450151</ele>
        <time>2022-08-30T07:42:18.155Z</time>
      </trkpt>
      <trkpt lat="42.3638" lon="-0.69704">
        <ele>681.036564</ele>
        <time>2022-08-30T07:43:02.002Z</time>
      </trkpt>
      <trkpt lat="42.36366" lon="-0.69687">
        <ele>682.737135</ele>
        <time>2022-08-30T07:43:15.810Z</time>
      </trkpt>
      <trkpt lat="42.36341" lon="-0.69675">
        <ele>685.16458</ele>
        <time>2022-08-30T07:43:38.466Z</time>
      </trkpt>
      <trkpt lat="42.36323" lon="-0.69649">
        <ele>687.582399</ele>
        <time>2022-08-30T07:44:02.588Z</time>
      </trkpt>
      <trkpt lat="42.36298" lon="-0.69628">
        <ele>690.244523</ele>
        <time>2022-08-30T07:44:29.636Z</time>
      </trkpt>
      <trkpt lat="42.36272" lon="-0.6958">
        <ele>694.665007</ele>
        <time>2022-08-30T07:45:09.675Z</time>
      </trkpt>
      <trkpt lat="42.36256" lon="-0.69579">
        <ele>696.249259</ele>
        <time>2022-08-30T07:45:24.188Z</time>
      </trkpt>
      <trkpt lat="42.36213" lon="-0.69598">
        <ele>700.803227</ele>
        <time>2022-08-30T07:46:05.700Z</time>
      </trkpt>
      <trkpt lat="42.36142" lon="-0.69658">
        <ele>708.868384</ele>
        <time>2022-08-30T07:47:15.940Z</time>
      </trkpt>
      <trkpt lat="42.3613" lon="-0.69664">
        <ele>709.631051</ele>
        <time>2022-08-30T07:47:25.940Z</time>
      </trkpt>
      <trkpt lat="42.36123" lon="-0.6966">
        <ele>710.104179</ele>
        <time>2022-08-30T07:47:32.683Z</time>
      </trkpt>
      <trkpt lat="42.36109" lon="-0.69586">
        <ele>713.608357</ele>
        <time>2022-08-30T07:48:13.680Z</time>
      </trkpt>
      <trkpt lat="42.36093" lon="-0.69551">
        <ele>715.497769</ele>
        <time>2022-08-30T07:48:31.716Z</time>
      </trkpt>
      <trkpt lat="42.36095" lon="-0.69539">
        <ele>716.03285</ele>
        <time>2022-08-30T07:48:37.042Z</time>
      </trkpt>
      <trkpt lat="42.36113" lon="-0.69507">
        <ele>717.864006</ele>
        <time>2022-08-30T07:48:54.606Z</time>
      </trkpt>
      <trkpt lat="42.36111" lon="-0.69494">
        <ele>718.493079</ele>
        <time>2022-08-30T07:49:00.958Z</time>
      </trkpt>
      <trkpt lat="42.36056" lon="-0.69462">
        <ele>721.82449</ele>
        <time>2022-08-30T07:49:35.545Z</time>
      </trkpt>
      <trkpt lat="42.36033" lon="-0.69433">
        <ele>723.521219</ele>
        <time>2022-08-30T07:49:54.284Z</time>
      </trkpt>
      <trkpt lat="42.35983" lon="-0.69418">
        <ele>726.310436</ele>
        <time>2022-08-30T07:50:27.228Z</time>
      </trkpt>
      <trkpt lat="42.35985" lon="-0.69386">
        <ele>727.623961</ele>
        <time>2022-08-30T07:50:43.882Z</time>
      </trkpt>
      <trkpt lat="42.35981" lon="-0.69367">
        <ele>728.416541</ele>
        <time>2022-08-30T07:50:54.262Z</time>
      </trkpt>
      <trkpt lat="42.35972" lon="-0.69349">
        <ele>729.336265</ele>
        <time>2022-08-30T07:51:05.667Z</time>
      </trkpt>
      <trkpt lat="42.35942" lon="-0.69328">
        <ele>731.539884</ele>
        <time>2022-08-30T07:51:29.945Z</time>
      </trkpt>
      <trkpt lat="42.35929" lon="-0.69313">
        <ele>732.666218</ele>
        <time>2022-08-30T07:51:43.114Z</time>
      </trkpt>
      <trkpt lat="42.35908" lon="-0.69231">
        <ele>736.915152</ele>
        <time>2022-08-30T07:52:30.208Z</time>
      </trkpt>
      <trkpt lat="42.35838" lon="-0.69143">
        <ele>742.239685</ele>
        <time>2022-08-30T07:53:33.565Z</time>
      </trkpt>
      <trkpt lat="42.35814" lon="-0.69128">
        <ele>743.274042</ele>
        <time>2022-08-30T07:53:49.700Z</time>
      </trkpt>
      <trkpt lat="42.35822" lon="-0.69085">
        <ele>744.538774</ele>
        <time>2022-08-30T07:54:08.121Z</time>
      </trkpt>
      <trkpt lat="42.3582" lon="-0.69071">
        <ele>744.943984</ele>
        <time>2022-08-30T07:54:13.731Z</time>
      </trkpt>
      <trkpt lat="42.35793" lon="-0.69054">
        <ele>746.110367</ele>
        <time>2022-08-30T07:54:26.887Z</time>
      </trkpt>
      <trkpt lat="42.35792" lon="-0.69015">
        <ele>747.203376</ele>
        <time>2022-08-30T07:54:41.700Z</time>
      </trkpt>
      <trkpt lat="42.35786" lon="-0.68984">
        <ele>748.084286</ele>
        <time>2022-08-30T07:54:55.239Z</time>
      </trkpt>
      <trkpt lat="42.3575" lon="-0.68913">
        <ele>750.332661</ele>
        <time>2022-08-30T07:55:28.410Z</time>
      </trkpt>
      <trkpt lat="42.35726" lon="-0.68896">
        <ele>751.28663</ele>
        <time>2022-08-30T07:55:41.221Z</time>
      </trkpt>
      <trkpt lat="42.35668" lon="-0.68897">
        <ele>753.363147</ele>
        <time>2022-08-30T07:56:12.491Z</time>
      </trkpt>
      <trkpt lat="42.35657" lon="-0.68889">
        <ele>753.807839</ele>
        <time>2022-08-30T07:56:18.744Z</time>
      </trkpt>
      <trkpt lat="42.35632" lon="-0.68847">
        <ele>756.256028</ele>
        <time>2022-08-30T07:56:46.616Z</time>
      </trkpt>
      <trkpt lat="42.35622" lon="-0.68845">
        <ele>757.036967</ele>
        <time>2022-08-30T07:56:53.984Z</time>
      </trkpt>
      <trkpt lat="42.35621" lon="-0.68857">
        <ele>757.687736</ele>
        <time>2022-08-30T07:57:01.091Z</time>
      </trkpt>
      <trkpt lat="42.35659" lon="-0.68931">
        <ele>762.567904</ele>
        <time>2022-08-30T07:57:51.846Z</time>
      </trkpt>
      <trkpt lat="42.35689" lon="-0.68966">
        <ele>765.468684</ele>
        <time>2022-08-30T07:58:21.032Z</time>
      </trkpt>
      <trkpt lat="42.35687" lon="-0.68975">
        <ele>765.956498</ele>
        <time>2022-08-30T07:58:29.223Z</time>
      </trkpt>
      <trkpt lat="42.35676" lon="-0.68976">
        <ele>766.767147</ele>
        <time>2022-08-30T07:58:36.384Z</time>
      </trkpt>
      <trkpt lat="42.35605" lon="-0.68908">
        <ele>773.63336</ele>
        <time>2022-08-30T07:59:45.073Z</time>
      </trkpt>
      <trkpt lat="42.35553" lon="-0.6888">
        <ele>778.068355</ele>
        <time>2022-08-30T08:00:33.677Z</time>
      </trkpt>
      <trkpt lat="42.35512" lon="-0.68845">
        <ele>781.72724</ele>
        <time>2022-08-30T08:01:05.070Z</time>
      </trkpt>
      <trkpt lat="42.35438" lon="-0.68813">
        <ele>784.493087</ele>
        <time>2022-08-30T08:01:52.764Z</time>
      </trkpt>
      <trkpt lat="42.35425" lon="-0.68797">
        <ele>785.110793</ele>
        <time>2022-08-30T08:02:02.315Z</time>
      </trkpt>
      <trkpt lat="42.35409" lon="-0.68763">
        <ele>786.183255</ele>
        <time>2022-08-30T08:02:17.024Z</time>
      </trkpt>
      <trkpt lat="42.35364" lon="-0.6874">
        <ele>787.890084</ele>
        <time>2022-08-30T08:02:38.869Z</time>
      </trkpt>
      <trkpt lat="42.35329" lon="-0.68706">
        <ele>788.844067</ele>
        <time>2022-08-30T08:02:57.552Z</time>
      </trkpt>
      <trkpt lat="42.35313" lon="-0.68698">
        <ele>789.206904</ele>
        <time>2022-08-30T08:03:04.616Z</time>
      </trkpt>
      <trkpt lat="42.35233" lon="-0.68697">
        <ele>790.908722</ele>
        <time>2022-08-30T08:03:38.754Z</time>
      </trkpt>
      <trkpt lat="42.35195" lon="-0.68683">
        <ele>791.7473</ele>
        <time>2022-08-30T08:03:58.956Z</time>
      </trkpt>
      <trkpt lat="42.35159" lon="-0.68658">
        <ele>794.712315</ele>
        <time>2022-08-30T08:04:24.683Z</time>
      </trkpt>
      <trkpt lat="42.35146" lon="-0.68641">
        <ele>796.130797</ele>
        <time>2022-08-30T08:04:37.995Z</time>
      </trkpt>
      <trkpt lat="42.35135" lon="-0.68607">
        <ele>798.314291</ele>
        <time>2022-08-30T08:04:59.097Z</time>
      </trkpt>
      <trkpt lat="42.3512" lon="-0.68591">
        <ele>799.882986</ele>
        <time>2022-08-30T08:05:14.808Z</time>
      </trkpt>
      <trkpt lat="42.35124" lon="-0.68531">
        <ele>803.399068</ele>
        <time>2022-08-30T08:05:53.324Z</time>
      </trkpt>
      <trkpt lat="42.3508" lon="-0.68513">
        <ele>807.375785</ele>
        <time>2022-08-30T08:06:34.524Z</time>
      </trkpt>
      <trkpt lat="42.34983" lon="-0.68501">
        <ele>817.296088</ele>
        <time>2022-08-30T08:08:02.251Z</time>
      </trkpt>
      <trkpt lat="42.34912" lon="-0.68478">
        <ele>824.760942</ele>
        <time>2022-08-30T08:09:05.889Z</time>
      </trkpt>
      <trkpt lat="42.34891" lon="-0.68466">
        <ele>826.919395</ele>
        <time>2022-08-30T08:09:24.448Z</time>
      </trkpt>
      <trkpt lat="42.3485" lon="-0.68483">
        <ele>831.084287</ele>
        <time>2022-08-30T08:10:00.395Z</time>
      </trkpt>
      <trkpt lat="42.34783" lon="-0.68494">
        <ele>837.690061</ele>
        <time>2022-08-30T08:10:56.226Z</time>
      </trkpt>
      <trkpt lat="42.34702" lon="-0.68457">
        <ele>847.562453</ele>
        <time>2022-08-30T08:12:11.695Z</time>
      </trkpt>
      <trkpt lat="42.34667" lon="-0.68424">
        <ele>853.407291</ele>
        <time>2022-08-30T08:12:59.320Z</time>
      </trkpt>
      <trkpt lat="42.34646" lon="-0.68381">
        <ele>858.512515</ele>
        <time>2022-08-30T08:13:44.504Z</time>
      </trkpt>
      <trkpt lat="42.34632" lon="-0.68364">
        <ele>861.123905</ele>
        <time>2022-08-30T08:14:05.978Z</time>
      </trkpt>
      <trkpt lat="42.34554" lon="-0.68351">
        <ele>871.02455</ele>
        <time>2022-08-30T08:15:29.203Z</time>
      </trkpt>
      <trkpt lat="42.34535" lon="-0.6836">
        <ele>873.366842</ele>
        <time>2022-08-30T08:15:52.114Z</time>
      </trkpt>
      <trkpt lat="42.34522" lon="-0.68379">
        <ele>875.557995</ele>
        <time>2022-08-30T08:16:08.683Z</time>
      </trkpt>
      <trkpt lat="42.34494" lon="-0.68447">
        <ele>882.311339</ele>
        <time>2022-08-30T08:17:05.608Z</time>
      </trkpt>
      <trkpt lat="42.34485" lon="-0.68483">
        <ele>885.555369</ele>
        <time>2022-08-30T08:17:29.285Z</time>
      </trkpt>
      <trkpt lat="42.34484" lon="-0.68524">
        <ele>888.595504</ele>
        <time>2022-08-30T08:17:52.895Z</time>
      </trkpt>
      <trkpt lat="42.34468" lon="-0.68554">
        <ele>890.962624</ele>
        <time>2022-08-30T08:18:12.991Z</time>
      </trkpt>
      <trkpt lat="42.3444" lon="-0.68592">
        <ele>894.375115</ele>
        <time>2022-08-30T08:18:38.364Z</time>
      </trkpt>
      <trkpt lat="42.34389" lon="-0.68614">
        <ele>898.955258</ele>
        <time>2022-08-30T08:19:16.815Z</time>
      </trkpt>
      <trkpt lat="42.34385" lon="-0.68624">
        <ele>899.705812</ele>
        <time>2022-08-30T08:19:24.754Z</time>
      </trkpt>
      <trkpt lat="42.34354" lon="-0.68671">
        <ele>904.613257</ele>
        <time>2022-08-30T08:20:08.331Z</time>
      </trkpt>
      <trkpt lat="42.34313" lon="-0.68715">
        <ele>913.338024</ele>
        <time>2022-08-30T08:21:04.463Z</time>
      </trkpt>
      <trkpt lat="42.3423" lon="-0.68792">
        <ele>930.057925</ele>
        <time>2022-08-30T08:23:17.236Z</time>
      </trkpt>
      <trkpt lat="42.34162" lon="-0.68839">
        <ele>944.310069</ele>
        <time>2022-08-30T08:24:59.578Z</time>
      </trkpt>
      <trkpt lat="42.34133" lon="-0.68884">
        <ele>952.855391</ele>
        <time>2022-08-30T08:26:03.930Z</time>
      </trkpt>
      <trkpt lat="42.34103" lon="-0.6896">
        <ele>965.117245</ele>
        <time>2022-08-30T08:27:31.142Z</time>
      </trkpt>
      <trkpt lat="42.3408" lon="-0.68985">
        <ele>969.214296</ele>
        <time>2022-08-30T08:28:06.729Z</time>
      </trkpt>
      <trkpt lat="42.34068" lon="-0.69045">
        <ele>973.988664</ele>
        <time>2022-08-30T08:28:56.741Z</time>
      </trkpt>
      <trkpt lat="42.34028" lon="-0.69056">
        <ele>978.188099</ele>
        <time>2022-08-30T08:29:32.417Z</time>
      </trkpt>
      <trkpt lat="42.34011" lon="-0.69073">
        <ele>980.372839</ele>
        <time>2022-08-30T08:29:49.162Z</time>
      </trkpt>
      <trkpt lat="42.34003" lon="-0.6908">
        <ele>981.375342</ele>
        <time>2022-08-30T08:29:57.535Z</time>
      </trkpt>
      <trkpt lat="42.33916" lon="-0.69196">
        <ele>986.803044</ele>
        <time>2022-08-30T08:31:04.285Z</time>
      </trkpt>
      <trkpt lat="42.33869" lon="-0.69245">
        <ele>987.402617</ele>
        <time>2022-08-30T08:31:24.369Z</time>
      </trkpt>
      <trkpt lat="42.33853" lon="-0.69281">
        <ele>987.711013</ele>
        <time>2022-08-30T08:31:34.642Z</time>
      </trkpt>
      <trkpt lat="42.33818" lon="-0.69308">
        <ele>987.716449</ele>
        <time>2022-08-30T08:31:48.578Z</time>
      </trkpt>
      <trkpt lat="42.33708" lon="-0.69306">
        <ele>987.223399</ele>
        <time>2022-08-30T08:32:27.764Z</time>
      </trkpt>
      <trkpt lat="42.33574" lon="-0.69345">
        <ele>987.253571</ele>
        <time>2022-08-30T08:33:20.328Z</time>
      </trkpt>
      <trkpt lat="42.3352" lon="-0.69329">
        <ele>987.381041</ele>
        <time>2022-08-30T08:33:41.836Z</time>
      </trkpt>
      <trkpt lat="42.33475" lon="-0.693">
        <ele>987.470598</ele>
        <time>2022-08-30T08:34:01.131Z</time>
      </trkpt>
      <trkpt lat="42.33469" lon="-0.69304">
        <ele>987.477833</ele>
        <time>2022-08-30T08:34:03.877Z</time>
      </trkpt>
      <trkpt lat="42.33455" lon="-0.69362">
        <ele>987.525925</ele>
        <time>2022-08-30T08:34:20.377Z</time>
      </trkpt>
      <trkpt lat="42.33424" lon="-0.69433">
        <ele>987.591139</ele>
        <time>2022-08-30T08:34:43.984Z</time>
      </trkpt>
      <trkpt lat="42.33408" lon="-0.69437">
        <ele>987.608449</ele>
        <time>2022-08-30T08:34:50.229Z</time>
      </trkpt>
      <trkpt lat="42.33368" lon="-0.69422">
        <ele>987.640629</ele>
        <time>2022-08-30T08:35:05.562Z</time>
      </trkpt>
      <trkpt lat="42.33354" lon="-0.69422">
        <ele>987.640852</ele>
        <time>2022-08-30T08:35:10.711Z</time>
      </trkpt>
      <trkpt lat="42.3325" lon="-0.69472">
        <ele>987.642576</ele>
        <time>2022-08-30T08:35:49.575Z</time>
      </trkpt>
      <trkpt lat="42.33181" lon="-0.6946">
        <ele>988.254817</ele>
        <time>2022-08-30T08:36:18.555Z</time>
      </trkpt>
      <trkpt lat="42.33109" lon="-0.69414">
        <ele>990.154003</ele>
        <time>2022-08-30T08:36:57.448Z</time>
      </trkpt>
      <trkpt lat="42.33069" lon="-0.69384">
        <ele>991.241635</ele>
        <time>2022-08-30T08:37:21.889Z</time>
      </trkpt>
      <trkpt lat="42.32987" lon="-0.69296">
        <ele>993.269113</ele>
        <time>2022-08-30T08:38:17.437Z</time>
      </trkpt>
      <trkpt lat="42.3294" lon="-0.69266">
        <ele>994.184683</ele>
        <time>2022-08-30T08:38:40.859Z</time>
      </trkpt>
      <trkpt lat="42.32916" lon="-0.6926">
        <ele>994.617596</ele>
        <time>2022-08-30T08:38:51.348Z</time>
      </trkpt>
      <trkpt lat="42.32894" lon="-0.69272">
        <ele>995.025113</ele>
        <time>2022-08-30T08:39:00.234Z</time>
      </trkpt>
      <trkpt lat="42.32883" lon="-0.69271">
        <ele>994.930573</ele>
        <time>2022-08-30T08:39:04.723Z</time>
      </trkpt>
      <trkpt lat="42.32851" lon="-0.69246">
        <ele>993.985106</ele>
        <time>2022-08-30T08:39:17.892Z</time>
      </trkpt>
      <trkpt lat="42.32807" lon="-0.69181">
        <ele>992.346755</ele>
        <time>2022-08-30T08:39:37.195Z</time>
      </trkpt>
      <trkpt lat="42.32775" lon="-0.69093">
        <ele>990.516006</ele>
        <time>2022-08-30T08:39:59.030Z</time>
      </trkpt>
      <trkpt lat="42.32764" lon="-0.69033">
        <ele>990.211276</ele>
        <time>2022-08-30T08:40:13.560Z</time>
      </trkpt>
      <trkpt lat="42.32773" lon="-0.69006">
        <ele>990.068561</ele>
        <time>2022-08-30T08:40:21.762Z</time>
      </trkpt>
      <trkpt lat="42.32785" lon="-0.68987">
        <ele>989.942816</ele>
        <time>2022-08-30T08:40:27.524Z</time>
      </trkpt>
      <trkpt lat="42.32801" lon="-0.68969">
        <ele>989.807008</ele>
        <time>2022-08-30T08:40:37.522Z</time>
      </trkpt>
      <trkpt lat="42.32808" lon="-0.68951">
        <ele>989.70527</ele>
        <time>2022-08-30T08:40:42.091Z</time>
      </trkpt>
      <trkpt lat="42.3283" lon="-0.68853">
        <ele>989.586682</ele>
        <time>2022-08-30T08:41:14.693Z</time>
      </trkpt>
      <trkpt lat="42.32832" lon="-0.68798">
        <ele>990.12171</ele>
        <time>2022-08-30T08:41:36.999Z</time>
      </trkpt>
      <trkpt lat="42.32845" lon="-0.68752">
        <ele>990.607443</ele>
        <time>2022-08-30T08:41:58.155Z</time>
      </trkpt>
      <trkpt lat="42.32843" lon="-0.68736">
        <ele>990.763744</ele>
        <time>2022-08-30T08:42:04.160Z</time>
      </trkpt>
      <trkpt lat="42.32837" lon="-0.68729">
        <ele>990.873231</ele>
        <time>2022-08-30T08:42:08.616Z</time>
      </trkpt>
      <trkpt lat="42.32799" lon="-0.6872">
        <ele>991.388306</ele>
        <time>2022-08-30T08:42:24.830Z</time>
      </trkpt>
      <trkpt lat="42.32764" lon="-0.68739">
        <ele>990.939111</ele>
        <time>2022-08-30T08:42:37.002Z</time>
      </trkpt>
      <trkpt lat="42.3274" lon="-0.68739">
        <ele>989.445109</ele>
        <time>2022-08-30T08:42:44.226Z</time>
      </trkpt>
      <trkpt lat="42.3268" lon="-0.68693">
        <ele>985.209751</ele>
        <time>2022-08-30T08:43:03.535Z</time>
      </trkpt>
      <trkpt lat="42.32652" lon="-0.68681">
        <ele>983.382617</ele>
        <time>2022-08-30T08:43:11.445Z</time>
      </trkpt>
      <trkpt lat="42.32589" lon="-0.68671">
        <ele>979.407479</ele>
        <time>2022-08-30T08:43:27.700Z</time>
      </trkpt>
      <trkpt lat="42.32541" lon="-0.68677">
        <ele>976.088418</ele>
        <time>2022-08-30T08:43:40.292Z</time>
      </trkpt>
      <trkpt lat="42.32487" lon="-0.68645">
        <ele>971.98191</ele>
        <time>2022-08-30T08:43:56.223Z</time>
      </trkpt>
      <trkpt lat="42.32482" lon="-0.68625">
        <ele>970.928382</ele>
        <time>2022-08-30T08:44:00.517Z</time>
      </trkpt>
      <trkpt lat="42.32524" lon="-0.68545">
        <ele>968.24625</ele>
        <time>2022-08-30T08:44:23.096Z</time>
      </trkpt>
      <trkpt lat="42.32538" lon="-0.68452">
        <ele>968.144392</ele>
        <time>2022-08-30T08:44:49.063Z</time>
      </trkpt>
      <trkpt lat="42.32547" lon="-0.68423">
        <ele>968.110518</ele>
        <time>2022-08-30T08:44:59.593Z</time>
      </trkpt>
      <trkpt lat="42.32567" lon="-0.68398">
        <ele>968.070816</ele>
        <time>2022-08-30T08:45:11.981Z</time>
      </trkpt>
      <trkpt lat="42.32572" lon="-0.68367">
        <ele>968.036647</ele>
        <time>2022-08-30T08:45:22.996Z</time>
      </trkpt>
      <trkpt lat="42.32565" lon="-0.68339">
        <ele>967.933254</ele>
        <time>2022-08-30T08:45:33.506Z</time>
      </trkpt>
      <trkpt lat="42.3253" lon="-0.68319">
        <ele>967.740554</ele>
        <time>2022-08-30T08:45:49.284Z</time>
      </trkpt>
      <trkpt lat="42.32519" lon="-0.68306">
        <ele>967.662838</ele>
        <time>2022-08-30T08:45:54.711Z</time>
      </trkpt>
      <trkpt lat="42.32471" lon="-0.682">
        <ele>967.192296</ele>
        <time>2022-08-30T08:46:26.443Z</time>
      </trkpt>
      <trkpt lat="42.32423" lon="-0.6814">
        <ele>964.752936</ele>
        <time>2022-08-30T08:46:46.593Z</time>
      </trkpt>
      <trkpt lat="42.3235" lon="-0.68108">
        <ele>961.07805</ele>
        <time>2022-08-30T08:47:08.254Z</time>
      </trkpt>
      <trkpt lat="42.32309" lon="-0.6807">
        <ele>958.711619</ele>
        <time>2022-08-30T08:47:22.139Z</time>
      </trkpt>
      <trkpt lat="42.32295" lon="-0.68072">
        <ele>957.856858</ele>
        <time>2022-08-30T08:47:26.111Z</time>
      </trkpt>
      <trkpt lat="42.32278" lon="-0.68118">
        <ele>955.391161</ele>
        <time>2022-08-30T08:47:36.848Z</time>
      </trkpt>
      <trkpt lat="42.32215" lon="-0.68183">
        <ele>950.201146</ele>
        <time>2022-08-30T08:47:59.228Z</time>
      </trkpt>
      <trkpt lat="42.32202" lon="-0.68188">
        <ele>949.355274</ele>
        <time>2022-08-30T08:48:02.856Z</time>
      </trkpt>
      <trkpt lat="42.32183" lon="-0.68181">
        <ele>948.084605</ele>
        <time>2022-08-30T08:48:07.820Z</time>
      </trkpt>
      <trkpt lat="42.3214" lon="-0.68125">
        <ele>943.705314</ele>
        <time>2022-08-30T08:48:23.818Z</time>
      </trkpt>
      <trkpt lat="42.32081" lon="-0.68081">
        <ele>938.556468</ele>
        <time>2022-08-30T08:48:42.042Z</time>
      </trkpt>
      <trkpt lat="42.32065" lon="-0.68076">
        <ele>937.27588</ele>
        <time>2022-08-30T08:48:46.399Z</time>
      </trkpt>
      <trkpt lat="42.32046" lon="-0.68068">
        <ele>935.75606</ele>
        <time>2022-08-30T08:48:51.920Z</time>
      </trkpt>
      <trkpt lat="42.32024" lon="-0.68044">
        <ele>933.565177</ele>
        <time>2022-08-30T08:48:59.685Z</time>
      </trkpt>
      <trkpt lat="42.31985" lon="-0.68026">
        <ele>929.755484</ele>
        <time>2022-08-30T08:49:10.904Z</time>
      </trkpt>
      <trkpt lat="42.31904" lon="-0.68003">
        <ele>921.712811</ele>
        <time>2022-08-30T08:49:32.341Z</time>
      </trkpt>
      <trkpt lat="42.31864" lon="-0.67999">
        <ele>917.826923</ele>
        <time>2022-08-30T08:49:42.448Z</time>
      </trkpt>
      <trkpt lat="42.31841" lon="-0.67984">
        <ele>915.311996</ele>
        <time>2022-08-30T08:49:48.914Z</time>
      </trkpt>
      <trkpt lat="42.3181" lon="-0.6795">
        <ele>910.207025</ele>
        <time>2022-08-30T08:49:58.981Z</time>
      </trkpt>
      <trkpt lat="42.31776" lon="-0.67916">
        <ele>904.839132</ele>
        <time>2022-08-30T08:50:09.415Z</time>
      </trkpt>
      <trkpt lat="42.31754" lon="-0.67877">
        <ele>900.293539</ele>
        <time>2022-08-30T08:50:18.200Z</time>
      </trkpt>
      <trkpt lat="42.31746" lon="-0.67848">
        <ele>897.413557</ele>
        <time>2022-08-30T08:50:23.789Z</time>
      </trkpt>
      <trkpt lat="42.31741" lon="-0.67825">
        <ele>895.095907</ele>
        <time>2022-08-30T08:50:28.198Z</time>
      </trkpt>
      <trkpt lat="42.3173" lon="-0.67675">
        <ele>882.365817</ele>
        <time>2022-08-30T08:50:56.101Z</time>
      </trkpt>
      <trkpt lat="42.31715" lon="-0.67613">
        <ele>876.955114</ele>
        <time>2022-08-30T08:51:09.119Z</time>
      </trkpt>
      <trkpt lat="42.31704" lon="-0.67601">
        <ele>875.393491</ele>
        <time>2022-08-30T08:51:12.560Z</time>
      </trkpt>
      <trkpt lat="42.31689" lon="-0.67598">
        <ele>873.614126</ele>
        <time>2022-08-30T08:51:16.534Z</time>
      </trkpt>
      <trkpt lat="42.31666" lon="-0.67577">
        <ele>870.260619</ele>
        <time>2022-08-30T08:51:23.371Z</time>
      </trkpt>
      <trkpt lat="42.31637" lon="-0.6752">
        <ele>863.717501</ele>
        <time>2022-08-30T08:51:35.915Z</time>
      </trkpt>
      <trkpt lat="42.31601" lon="-0.6751">
        <ele>858.926073</ele>
        <time>2022-08-30T08:51:45.098Z</time>
      </trkpt>
      <trkpt lat="42.3158" lon="-0.67496">
        <ele>855.925206</ele>
        <time>2022-08-30T08:51:50.757Z</time>
      </trkpt>
      <trkpt lat="42.31562" lon="-0.67468">
        <ele>852.464338</ele>
        <time>2022-08-30T08:51:57.609Z</time>
      </trkpt>
      <trkpt lat="42.31554" lon="-0.67462">
        <ele>851.259357</ele>
        <time>2022-08-30T08:51:59.902Z</time>
      </trkpt>
      <trkpt lat="42.31529" lon="-0.67424">
        <ele>846.066259</ele>
        <time>2022-08-30T08:52:09.437Z</time>
      </trkpt>
      <trkpt lat="42.31527" lon="-0.6736">
        <ele>839.401203</ele>
        <time>2022-08-30T08:52:21.060Z</time>
      </trkpt>
      <trkpt lat="42.31493" lon="-0.67277">
        <ele>829.371993</ele>
        <time>2022-08-30T08:52:37.864Z</time>
      </trkpt>
      <trkpt lat="42.31473" lon="-0.67242">
        <ele>824.707239</ele>
        <time>2022-08-30T08:52:45.925Z</time>
      </trkpt>
      <trkpt lat="42.31442" lon="-0.67216">
        <ele>819.235827</ele>
        <time>2022-08-30T08:52:54.927Z</time>
      </trkpt>
      <trkpt lat="42.31394" lon="-0.67176">
        <ele>810.559629</ele>
        <time>2022-08-30T08:53:08.772Z</time>
      </trkpt>
      <trkpt lat="42.31377" lon="-0.67152">
        <ele>806.854879</ele>
        <time>2022-08-30T08:53:14.647Z</time>
      </trkpt>
      <trkpt lat="42.31363" lon="-0.67103">
        <ele>800.879865</ele>
        <time>2022-08-30T08:53:23.940Z</time>
      </trkpt>
      <trkpt lat="42.31368" lon="-0.67069">
        <ele>797.015484</ele>
        <time>2022-08-30T08:53:29.904Z</time>
      </trkpt>
      <trkpt lat="42.3137" lon="-0.67012">
        <ele>790.487721</ele>
        <time>2022-08-30T08:53:39.909Z</time>
      </trkpt>
      <trkpt lat="42.31361" lon="-0.66962">
        <ele>784.497173</ele>
        <time>2022-08-30T08:53:49.297Z</time>
      </trkpt>
      <trkpt lat="42.31337" lon="-0.66952">
        <ele>780.557975</ele>
        <time>2022-08-30T08:53:55.374Z</time>
      </trkpt>
      <trkpt lat="42.31319" lon="-0.66914">
        <ele>775.318057</ele>
        <time>2022-08-30T08:54:03.468Z</time>
      </trkpt>
      <trkpt lat="42.31321" lon="-0.66871">
        <ele>770.293938</ele>
        <time>2022-08-30T08:54:11.154Z</time>
      </trkpt>
      <trkpt lat="42.31297" lon="-0.66846">
        <ele>766.704932</ele>
        <time>2022-08-30T08:54:18.287Z</time>
      </trkpt>
      <trkpt lat="42.31289" lon="-0.66802">
        <ele>763.324705</ele>
        <time>2022-08-30T08:54:26.524Z</time>
      </trkpt>
      <trkpt lat="42.31287" lon="-0.66777">
        <ele>761.45321</ele>
        <time>2022-08-30T08:54:31.206Z</time>
      </trkpt>
      <trkpt lat="42.31301" lon="-0.66725">
        <ele>757.364011</ele>
        <time>2022-08-30T08:54:41.685Z</time>
      </trkpt>
      <trkpt lat="42.31301" lon="-0.66704">
        <ele>755.736041</ele>
        <time>2022-08-30T08:54:45.861Z</time>
      </trkpt>
      <trkpt lat="42.31286" lon="-0.66678">
        <ele>753.337105</ele>
        <time>2022-08-30T08:54:52.509Z</time>
      </trkpt>
      <trkpt lat="42.31249" lon="-0.66587">
        <ele>749.942347</ele>
        <time>2022-08-30T08:55:14.973Z</time>
      </trkpt>
      <trkpt lat="42.31234" lon="-0.66515">
        <ele>749.329267</ele>
        <time>2022-08-30T08:55:34.746Z</time>
      </trkpt>
      <trkpt lat="42.31225" lon="-0.66493">
        <ele>749.132512</ele>
        <time>2022-08-30T08:55:43.070Z</time>
      </trkpt>
      <trkpt lat="42.31186" lon="-0.66462">
        <ele>748.629299</ele>
        <time>2022-08-30T08:56:04.713Z</time>
      </trkpt>
      <trkpt lat="42.31158" lon="-0.66423">
        <ele>747.94181</ele>
        <time>2022-08-30T08:56:22.246Z</time>
      </trkpt>
      <trkpt lat="42.31092" lon="-0.66388">
        <ele>746.554996</ele>
        <time>2022-08-30T08:56:46.986Z</time>
      </trkpt>
      <trkpt lat="42.31057" lon="-0.66324">
        <ele>745.394916</ele>
        <time>2022-08-30T08:57:04.912Z</time>
      </trkpt>
      <trkpt lat="42.3104" lon="-0.66291">
        <ele>744.395202</ele>
        <time>2022-08-30T08:57:13.287Z</time>
      </trkpt>
      <trkpt lat="42.31019" lon="-0.66279">
        <ele>742.58153</ele>
        <time>2022-08-30T08:57:19.877Z</time>
      </trkpt>
      <trkpt lat="42.30989" lon="-0.66267">
        <ele>740.215774</ele>
        <time>2022-08-30T08:57:28.320Z</time>
      </trkpt>
      <trkpt lat="42.3097" lon="-0.66252">
        <ele>738.512402</ele>
        <time>2022-08-30T08:57:34.315Z</time>
      </trkpt>
      <trkpt lat="42.30975" lon="-0.66214">
        <ele>736.331142</ele>
        <time>2022-08-30T08:57:41.920Z</time>
      </trkpt>
      <trkpt lat="42.30961" lon="-0.66179">
        <ele>734.058912</ele>
        <time>2022-08-30T08:57:49.769Z</time>
      </trkpt>
      <trkpt lat="42.30955" lon="-0.66124">
        <ele>730.814179</ele>
        <time>2022-08-30T08:58:00.252Z</time>
      </trkpt>
      <trkpt lat="42.30958" lon="-0.66091">
        <ele>728.314518</ele>
        <time>2022-08-30T08:58:06.379Z</time>
      </trkpt>
      <trkpt lat="42.3098" lon="-0.65994">
        <ele>720.592595</ele>
        <time>2022-08-30T08:58:25.246Z</time>
      </trkpt>
      <trkpt lat="42.30976" lon="-0.65944">
        <ele>716.713194</ele>
        <time>2022-08-30T08:58:34.807Z</time>
      </trkpt>
      <trkpt lat="42.30963" lon="-0.6592">
        <ele>714.420106</ele>
        <time>2022-08-30T08:58:40.491Z</time>
      </trkpt>
      <trkpt lat="42.3096" lon="-0.65876">
        <ele>711.981124</ele>
        <time>2022-08-30T08:58:49.070Z</time>
      </trkpt>
      <trkpt lat="42.3094" lon="-0.65764">
        <ele>708.729134</ele>
        <time>2022-08-30T08:59:12.882Z</time>
      </trkpt>
      <trkpt lat="42.30957" lon="-0.65693">
        <ele>706.631967</ele>
        <time>2022-08-30T08:59:31.320Z</time>
      </trkpt>
      <trkpt lat="42.30957" lon="-0.65662">
        <ele>705.760673</ele>
        <time>2022-08-30T08:59:40.672Z</time>
      </trkpt>
      <trkpt lat="42.30974" lon="-0.65638">
        <ele>706.342541</ele>
        <time>2022-08-30T08:59:53.030Z</time>
      </trkpt>
      <trkpt lat="42.31042" lon="-0.65573">
        <ele>708.886961</ele>
        <time>2022-08-30T09:00:38.144Z</time>
      </trkpt>
      <trkpt lat="42.31041" lon="-0.65554">
        <ele>709.31565</ele>
        <time>2022-08-30T09:00:46.172Z</time>
      </trkpt>
      <trkpt lat="42.31046" lon="-0.6554">
        <ele>709.664069</ele>
        <time>2022-08-30T09:00:53.346Z</time>
      </trkpt>
      <trkpt lat="42.31062" lon="-0.65531">
        <ele>710.191443</ele>
        <time>2022-08-30T09:01:03.420Z</time>
      </trkpt>
      <trkpt lat="42.3107" lon="-0.65498">
        <ele>710.961601</ele>
        <time>2022-08-30T09:01:18.535Z</time>
      </trkpt>
      <trkpt lat="42.31085" lon="-0.6547">
        <ele>711.814569</ele>
        <time>2022-08-30T09:01:30.320Z</time>
      </trkpt>
      <trkpt lat="42.31085" lon="-0.65454">
        <ele>712.219915</ele>
        <time>2022-08-30T09:01:37.239Z</time>
      </trkpt>
      <trkpt lat="42.31037" lon="-0.65368">
        <ele>714.971016</ele>
        <time>2022-08-30T09:02:18.361Z</time>
      </trkpt>
      <trkpt lat="42.31032" lon="-0.65347">
        <ele>715.509203</ele>
        <time>2022-08-30T09:02:26.382Z</time>
      </trkpt>
      <trkpt lat="42.31045" lon="-0.65265">
        <ele>717.712587</ele>
        <time>2022-08-30T09:03:02.988Z</time>
      </trkpt>
      <trkpt lat="42.31069" lon="-0.65181">
        <ele>720.58815</ele>
        <time>2022-08-30T09:03:40.331Z</time>
      </trkpt>
      <trkpt lat="42.31087" lon="-0.65096">
        <ele>723.390107</ele>
        <time>2022-08-30T09:04:18.991Z</time>
      </trkpt>
      <trkpt lat="42.31141" lon="-0.65007">
        <ele>727.300807</ele>
        <time>2022-08-30T09:05:10.996Z</time>
      </trkpt>
      <trkpt lat="42.31166" lon="-0.64939">
        <ele>730.009497</ele>
        <time>2022-08-30T09:05:45.338Z</time>
      </trkpt>
      <trkpt lat="42.31212" lon="-0.6484">
        <ele>734.149995</ele>
        <time>2022-08-30T09:06:38.394Z</time>
      </trkpt>
      <trkpt lat="42.31214" lon="-0.64824">
        <ele>734.643088</ele>
        <time>2022-08-30T09:06:45.846Z</time>
      </trkpt>
      <trkpt lat="42.31201" lon="-0.64736">
        <ele>737.449065</ele>
        <time>2022-08-30T09:07:27.377Z</time>
      </trkpt>
      <trkpt lat="42.31199" lon="-0.64694">
        <ele>738.789371</ele>
        <time>2022-08-30T09:07:42.502Z</time>
      </trkpt>
      <trkpt lat="42.31186" lon="-0.64668">
        <ele>739.77556</ele>
        <time>2022-08-30T09:07:53.984Z</time>
      </trkpt>
      <trkpt lat="42.31165" lon="-0.64598">
        <ele>741.067783</ele>
        <time>2022-08-30T09:08:14.976Z</time>
      </trkpt>
      <trkpt lat="42.31163" lon="-0.64591">
        <ele>740.979179</ele>
        <time>2022-08-30T09:08:16.333Z</time>
      </trkpt>
      <trkpt lat="42.31142" lon="-0.64532">
        <ele>740.12245</ele>
        <time>2022-08-30T09:08:26.530Z</time>
      </trkpt>
      <trkpt lat="42.31145" lon="-0.64488">
        <ele>739.543154</ele>
        <time>2022-08-30T09:08:37.129Z</time>
      </trkpt>
      <trkpt lat="42.31144" lon="-0.64466">
        <ele>739.26563</ele>
        <time>2022-08-30T09:08:41.830Z</time>
      </trkpt>
      <trkpt lat="42.31149" lon="-0.64444">
        <ele>738.960126</ele>
        <time>2022-08-30T09:08:47.267Z</time>
      </trkpt>
      <trkpt lat="42.31179" lon="-0.64381">
        <ele>737.682875</ele>
        <time>2022-08-30T09:09:03.412Z</time>
      </trkpt>
      <trkpt lat="42.31196" lon="-0.64317">
        <ele>735.659868</ele>
        <time>2022-08-30T09:09:17.787Z</time>
      </trkpt>
      <trkpt lat="42.31191" lon="-0.64228">
        <ele>732.989642</ele>
        <time>2022-08-30T09:09:36.466Z</time>
      </trkpt>
      <trkpt lat="42.31207" lon="-0.64154">
        <ele>730.979221</ele>
        <time>2022-08-30T09:09:54.818Z</time>
      </trkpt>
      <trkpt lat="42.31199" lon="-0.63971">
        <ele>731.459181</ele>
        <time>2022-08-30T09:10:49.024Z</time>
      </trkpt>
      <trkpt lat="42.31239" lon="-0.63762">
        <ele>733.033929</ele>
        <time>2022-08-30T09:12:00.764Z</time>
      </trkpt>
      <trkpt lat="42.31235" lon="-0.63672">
        <ele>733.743132</ele>
        <time>2022-08-30T09:12:27.568Z</time>
      </trkpt>
      <trkpt lat="42.31255" lon="-0.6342">
        <ele>734.550353</ele>
        <time>2022-08-30T09:13:37.797Z</time>
      </trkpt>
      <trkpt lat="42.31263" lon="-0.63398">
        <ele>734.898805</ele>
        <time>2022-08-30T09:13:46.127Z</time>
      </trkpt>
      <trkpt lat="42.31324" lon="-0.63331">
        <ele>736.396654</ele>
        <time>2022-08-30T09:14:22.180Z</time>
      </trkpt>
      <trkpt lat="42.31333" lon="-0.63306">
        <ele>736.782872</ele>
        <time>2022-08-30T09:14:31.808Z</time>
      </trkpt>
      <trkpt lat="42.31328" lon="-0.63279">
        <ele>737.187744</ele>
        <time>2022-08-30T09:14:42.524Z</time>
      </trkpt>
      <trkpt lat="42.31324" lon="-0.63251">
        <ele>737.575863</ele>
        <time>2022-08-30T09:14:50.295Z</time>
      </trkpt>
      <trkpt lat="42.31337" lon="-0.63195">
        <ele>739.273559</ele>
        <time>2022-08-30T09:15:07.647Z</time>
      </trkpt>
      <trkpt lat="42.31335" lon="-0.63137">
        <ele>741.038193</ele>
        <time>2022-08-30T09:15:25.677Z</time>
      </trkpt>
      <trkpt lat="42.31355" lon="-0.62871">
        <ele>750.263155</ele>
        <time>2022-08-30T09:16:58.889Z</time>
      </trkpt>
      <trkpt lat="42.31371" lon="-0.62823">
        <ele>752.282361</ele>
        <time>2022-08-30T09:17:18.680Z</time>
      </trkpt>
      <trkpt lat="42.3137" lon="-0.6279">
        <ele>753.529882</ele>
        <time>2022-08-30T09:17:30.914Z</time>
      </trkpt>
      <trkpt lat="42.31354" lon="-0.62749">
        <ele>755.143649</ele>
        <time>2022-08-30T09:17:48.142Z</time>
      </trkpt>
      <trkpt lat="42.3132" lon="-0.62662">
        <ele>758.239718</ele>
        <time>2022-08-30T09:18:24.598Z</time>
      </trkpt>
      <trkpt lat="42.31284" lon="-0.62538">
        <ele>761.977726</ele>
        <time>2022-08-30T09:19:04.723Z</time>
      </trkpt>
      <trkpt lat="42.31226" lon="-0.62458">
        <ele>761.373478</ele>
        <time>2022-08-30T09:19:22.598Z</time>
      </trkpt>
      <trkpt lat="42.31201" lon="-0.62424">
        <ele>761.110219</ele>
        <time>2022-08-30T09:19:29.343Z</time>
      </trkpt>
      <trkpt lat="42.31174" lon="-0.62387">
        <ele>760.821871</ele>
        <time>2022-08-30T09:19:36.356Z</time>
      </trkpt>
      <trkpt lat="42.31127" lon="-0.62396">
        <ele>759.602678</ele>
        <time>2022-08-30T09:19:50.882Z</time>
      </trkpt>
      <trkpt lat="42.31048" lon="-0.62397">
        <ele>756.949692</ele>
        <time>2022-08-30T09:20:14.297Z</time>
      </trkpt>
      <trkpt lat="42.31035" lon="-0.62403">
        <ele>756.499796</ele>
        <time>2022-08-30T09:20:18.221Z</time>
      </trkpt>
      <trkpt lat="42.30961" lon="-0.62489">
        <ele>753.655396</ele>
        <time>2022-08-30T09:20:48.846Z</time>
      </trkpt>
      <trkpt lat="42.30935" lon="-0.62526">
        <ele>752.766476</ele>
        <time>2022-08-30T09:21:01.249Z</time>
      </trkpt>
      <trkpt lat="42.30914" lon="-0.62544">
        <ele>752.176104</ele>
        <time>2022-08-30T09:21:09.274Z</time>
      </trkpt>
      <trkpt lat="42.309" lon="-0.62548">
        <ele>751.830881</ele>
        <time>2022-08-30T09:21:13.960Z</time>
      </trkpt>
      <trkpt lat="42.30871" lon="-0.62506">
        <ele>750.833744</ele>
        <time>2022-08-30T09:21:27.504Z</time>
      </trkpt>
      <trkpt lat="42.30856" lon="-0.62502">
        <ele>750.462497</ele>
        <time>2022-08-30T09:21:32.374Z</time>
      </trkpt>
      <trkpt lat="42.30817" lon="-0.62513">
        <ele>749.191544</ele>
        <time>2022-08-30T09:21:44.800Z</time>
      </trkpt>
      <trkpt lat="42.30779" lon="-0.62509">
        <ele>747.938697</ele>
        <time>2022-08-30T09:21:57.065Z</time>
      </trkpt>
      <trkpt lat="42.30749" lon="-0.62494">
        <ele>746.889961</ele>
        <time>2022-08-30T09:22:07.218Z</time>
      </trkpt>
      <trkpt lat="42.30711" lon="-0.62457">
        <ele>745.339526</ele>
        <time>2022-08-30T09:22:21.729Z</time>
      </trkpt>
      <trkpt lat="42.30603" lon="-0.62393">
        <ele>738.379851</ele>
        <time>2022-08-30T09:22:54.922Z</time>
      </trkpt>
      <trkpt lat="42.30581" lon="-0.62374">
        <ele>736.682061</ele>
        <time>2022-08-30T09:23:01.915Z</time>
      </trkpt>
      <trkpt lat="42.30576" lon="-0.62363">
        <ele>736.031125</ele>
        <time>2022-08-30T09:23:04.553Z</time>
      </trkpt>
      <trkpt lat="42.3054" lon="-0.6235">
        <ele>733.541991</ele>
        <time>2022-08-30T09:23:14.609Z</time>
      </trkpt>
      <trkpt lat="42.3042" lon="-0.62288">
        <ele>724.64428</ele>
        <time>2022-08-30T09:23:48.833Z</time>
      </trkpt>
      <trkpt lat="42.30303" lon="-0.62271">
        <ele>717.873326</ele>
        <time>2022-08-30T09:24:22.065Z</time>
      </trkpt>
      <trkpt lat="42.29956" lon="-0.62138">
        <ele>705.748361</ele>
        <time>2022-08-30T09:26:12.165Z</time>
      </trkpt>
      <trkpt lat="42.29916" lon="-0.62111">
        <ele>705.056934</ele>
        <time>2022-08-30T09:26:27.297Z</time>
      </trkpt>
      <trkpt lat="42.29843" lon="-0.62017">
        <ele>703.766395</ele>
        <time>2022-08-30T09:27:03.427Z</time>
      </trkpt>
      <trkpt lat="42.29742" lon="-0.62022">
        <ele>703.702539</ele>
        <time>2022-08-30T09:27:40.912Z</time>
      </trkpt>
      <trkpt lat="42.29685" lon="-0.62007">
        <ele>703.665376</ele>
        <time>2022-08-30T09:28:02.443Z</time>
      </trkpt>
      <trkpt lat="42.29623" lon="-0.62004">
        <ele>703.591035</ele>
        <time>2022-08-30T09:28:25.279Z</time>
      </trkpt>
      <trkpt lat="42.29536" lon="-0.62015">
        <ele>703.483869</ele>
        <time>2022-08-30T09:28:57.580Z</time>
      </trkpt>
      <trkpt lat="42.29489" lon="-0.62013">
        <ele>703.253327</ele>
        <time>2022-08-30T09:29:14.718Z</time>
      </trkpt>
      <trkpt lat="42.29459" lon="-0.62001">
        <ele>702.834847</ele>
        <time>2022-08-30T09:29:25.736Z</time>
      </trkpt>
      <trkpt lat="42.29371" lon="-0.61912">
        <ele>701.357733</ele>
        <time>2022-08-30T09:30:02.710Z</time>
      </trkpt>
      <trkpt lat="42.29356" lon="-0.61904">
        <ele>701.150842</ele>
        <time>2022-08-30T09:30:07.632Z</time>
      </trkpt>
      <trkpt lat="42.29114" lon="-0.61844">
        <ele>696.904546</ele>
        <time>2022-08-30T09:31:26.723Z</time>
      </trkpt>
      <trkpt lat="42.28899" lon="-0.61768">
        <ele>697.147857</ele>
        <time>2022-08-30T09:32:54.290Z</time>
      </trkpt>
      <trkpt lat="42.28876" lon="-0.61766">
        <ele>697.326994</ele>
        <time>2022-08-30T09:33:04.392Z</time>
      </trkpt>
      <trkpt lat="42.28839" lon="-0.61773">
        <ele>697.623518</ele>
        <time>2022-08-30T09:33:20.787Z</time>
      </trkpt>
      <trkpt lat="42.28729" lon="-0.61784">
        <ele>698.786179</ele>
        <time>2022-08-30T09:34:07.613Z</time>
      </trkpt>
      <trkpt lat="42.28604" lon="-0.61756">
        <ele>700.46825</ele>
        <time>2022-08-30T09:35:00.825Z</time>
      </trkpt>
      <trkpt lat="42.28538" lon="-0.61705">
        <ele>701.886394</ele>
        <time>2022-08-30T09:35:35.731Z</time>
      </trkpt>
      <trkpt lat="42.2851" lon="-0.61644">
        <ele>702.888716</ele>
        <time>2022-08-30T09:36:02.195Z</time>
      </trkpt>
      <trkpt lat="42.28431" lon="-0.61548">
        <ele>705.181082</ele>
        <time>2022-08-30T09:36:55.190Z</time>
      </trkpt>
      <trkpt lat="42.28405" lon="-0.61535">
        <ele>705.781286</ele>
        <time>2022-08-30T09:37:08.555Z</time>
      </trkpt>
      <trkpt lat="42.28317" lon="-0.6152">
        <ele>707.41854</ele>
        <time>2022-08-30T09:37:49.218Z</time>
      </trkpt>
      <trkpt lat="42.28295" lon="-0.61511">
        <ele>707.672678</ele>
        <time>2022-08-30T09:37:59.206Z</time>
      </trkpt>
      <trkpt lat="42.28115" lon="-0.61362">
        <ele>709.047855</ele>
        <time>2022-08-30T09:39:26.422Z</time>
      </trkpt>
      <trkpt lat="42.28083" lon="-0.61328">
        <ele>709.0318</ele>
        <time>2022-08-30T09:39:41.116Z</time>
      </trkpt>
      <trkpt lat="42.28058" lon="-0.61311">
        <ele>709.020922</ele>
        <time>2022-08-30T09:39:50.764Z</time>
      </trkpt>
      <trkpt lat="42.28015" lon="-0.61263">
        <ele>708.58117</ele>
        <time>2022-08-30T09:40:09.854Z</time>
      </trkpt>
      <trkpt lat="42.2798" lon="-0.61238">
        <ele>707.98041</ele>
        <time>2022-08-30T09:40:23.257Z</time>
      </trkpt>
      <trkpt lat="42.27956" lon="-0.61219">
        <ele>707.563675</ele>
        <time>2022-08-30T09:40:32.320Z</time>
      </trkpt>
      <trkpt lat="42.27879" lon="-0.61134">
        <ele>706.133637</ele>
        <time>2022-08-30T09:41:05.211Z</time>
      </trkpt>
      <trkpt lat="42.27843" lon="-0.61073">
        <ele>705.528543</ele>
        <time>2022-08-30T09:41:24.530Z</time>
      </trkpt>
      <trkpt lat="42.27737" lon="-0.60959">
        <ele>703.969467</ele>
        <time>2022-08-30T09:42:12.358Z</time>
      </trkpt>
      <trkpt lat="42.27714" lon="-0.60925">
        <ele>703.434571</ele>
        <time>2022-08-30T09:42:24.078Z</time>
      </trkpt>
      <trkpt lat="42.27699" lon="-0.60902">
        <ele>703.083041</ele>
        <time>2022-08-30T09:42:31.894Z</time>
      </trkpt>
      <trkpt lat="42.27689" lon="-0.60876">
        <ele>702.743106</ele>
        <time>2022-08-30T09:42:39.198Z</time>
      </trkpt>
      <trkpt lat="42.27674" lon="-0.60832">
        <ele>702.187003</ele>
        <time>2022-08-30T09:42:50.950Z</time>
      </trkpt>
      <trkpt lat="42.27658" lon="-0.60824">
        <ele>701.932124</ele>
        <time>2022-08-30T09:42:56.264Z</time>
      </trkpt>
      <trkpt lat="42.27643" lon="-0.60808">
        <ele>701.627274</ele>
        <time>2022-08-30T09:43:02.425Z</time>
      </trkpt>
      <trkpt lat="42.27615" lon="-0.60743">
        <ele>699.186938</ele>
        <time>2022-08-30T09:43:19.598Z</time>
      </trkpt>
      <trkpt lat="42.27604" lon="-0.60727">
        <ele>698.479746</ele>
        <time>2022-08-30T09:43:24.336Z</time>
      </trkpt>
      <trkpt lat="42.27559" lon="-0.60687">
        <ele>696.103694</ele>
        <time>2022-08-30T09:43:39.598Z</time>
      </trkpt>
      <trkpt lat="42.27469" lon="-0.60635">
        <ele>690.868966</ele>
        <time>2022-08-30T09:44:07.723Z</time>
      </trkpt>
      <trkpt lat="42.27434" lon="-0.60603">
        <ele>688.10531</ele>
        <time>2022-08-30T09:44:19.519Z</time>
      </trkpt>
      <trkpt lat="42.27421" lon="-0.6058">
        <ele>686.728632</ele>
        <time>2022-08-30T09:44:25.458Z</time>
      </trkpt>
      <trkpt lat="42.27396" lon="-0.6048">
        <ele>681.571277</ele>
        <time>2022-08-30T09:44:46.655Z</time>
      </trkpt>
      <trkpt lat="42.27391" lon="-0.60441">
        <ele>678.723292</ele>
        <time>2022-08-30T09:44:54.621Z</time>
      </trkpt>
      <trkpt lat="42.27308" lon="-0.60332">
        <ele>667.717885</ele>
        <time>2022-08-30T09:45:24.637Z</time>
      </trkpt>
      <trkpt lat="42.27291" lon="-0.60279">
        <ele>663.507977</ele>
        <time>2022-08-30T09:45:35.328Z</time>
      </trkpt>
      <trkpt lat="42.2727" lon="-0.60239">
        <ele>659.608258</ele>
        <time>2022-08-30T09:45:44.453Z</time>
      </trkpt>
      <trkpt lat="42.2717" lon="-0.60106">
        <ele>644.959892</ele>
        <time>2022-08-30T09:46:20.073Z</time>
      </trkpt>
      <trkpt lat="42.27124" lon="-0.59901">
        <ele>633.46456</ele>
        <time>2022-08-30T09:47:03.259Z</time>
      </trkpt>
      <trkpt lat="42.27108" lon="-0.59858">
        <ele>631.403104</ele>
        <time>2022-08-30T09:47:13.560Z</time>
      </trkpt>
      <trkpt lat="42.27087" lon="-0.59687">
        <ele>625.049947</ele>
        <time>2022-08-30T09:47:50.527Z</time>
      </trkpt>
      <trkpt lat="42.27085" lon="-0.59642">
        <ele>623.522989</ele>
        <time>2022-08-30T09:48:00.244Z</time>
      </trkpt>
      <trkpt lat="42.27093" lon="-0.59541">
        <ele>621.3684</ele>
        <time>2022-08-30T09:48:22.991Z</time>
      </trkpt>
      <trkpt lat="42.27081" lon="-0.59425">
        <ele>618.89424</ele>
        <time>2022-08-30T09:48:50.652Z</time>
      </trkpt>
      <trkpt lat="42.27086" lon="-0.59374">
        <ele>618.3415</ele>
        <time>2022-08-30T09:49:03.547Z</time>
      </trkpt>
      <trkpt lat="42.27083" lon="-0.59367">
        <ele>618.293513</ele>
        <time>2022-08-30T09:49:05.815Z</time>
      </trkpt>
      <trkpt lat="42.27045" lon="-0.59345">
        <ele>617.995682</ele>
        <time>2022-08-30T09:49:19.953Z</time>
      </trkpt>
      <trkpt lat="42.26987" lon="-0.59322">
        <ele>617.55167</ele>
        <time>2022-08-30T09:49:41.550Z</time>
      </trkpt>
      <trkpt lat="42.26968" lon="-0.59305">
        <ele>617.380907</ele>
        <time>2022-08-30T09:49:50.060Z</time>
      </trkpt>
      <trkpt lat="42.26956" lon="-0.59276">
        <ele>617.207614</ele>
        <time>2022-08-30T09:49:59.019Z</time>
      </trkpt>
      <trkpt lat="42.26939" lon="-0.59103">
        <ele>617.066813</ele>
        <time>2022-08-30T09:50:46.928Z</time>
      </trkpt>
      <trkpt lat="42.26873" lon="-0.58793">
        <ele>616.657603</ele>
        <time>2022-08-30T09:52:14.195Z</time>
      </trkpt>
      <trkpt lat="42.2687" lon="-0.58777">
        <ele>616.618653</ele>
        <time>2022-08-30T09:52:18.343Z</time>
      </trkpt>
      <trkpt lat="42.26793" lon="-0.5862">
        <ele>616.148113</ele>
        <time>2022-08-30T09:53:08.530Z</time>
      </trkpt>
      <trkpt lat="42.2673" lon="-0.58466">
        <ele>615.869375</ele>
        <time>2022-08-30T09:53:56.032Z</time>
      </trkpt>
      <trkpt lat="42.26684" lon="-0.58318">
        <ele>615.639236</ele>
        <time>2022-08-30T09:54:39.774Z</time>
      </trkpt>
      <trkpt lat="42.26632" lon="-0.58105">
        <ele>615.300915</ele>
        <time>2022-08-30T09:55:40.208Z</time>
      </trkpt>
      <trkpt lat="42.26558" lon="-0.5793">
        <ele>614.965364</ele>
        <time>2022-08-30T09:56:34.175Z</time>
      </trkpt>
      <trkpt lat="42.26533" lon="-0.57855">
        <ele>614.939508</ele>
        <time>2022-08-30T09:56:56.708Z</time>
      </trkpt>
      <trkpt lat="42.26525" lon="-0.57811">
        <ele>614.925455</ele>
        <time>2022-08-30T09:57:08.999Z</time>
      </trkpt>
      <trkpt lat="42.26498" lon="-0.57749">
        <ele>614.902971</ele>
        <time>2022-08-30T09:57:28.764Z</time>
      </trkpt>
      <trkpt lat="42.26483" lon="-0.57689">
        <ele>614.884559</ele>
        <time>2022-08-30T09:57:46.180Z</time>
      </trkpt>
      <trkpt lat="42.26445" lon="-0.57477">
        <ele>614.829725</ele>
        <time>2022-08-30T09:58:45.877Z</time>
      </trkpt>
      <trkpt lat="42.26437" lon="-0.57434">
        <ele>614.878984</ele>
        <time>2022-08-30T09:58:57.859Z</time>
      </trkpt>
      <trkpt lat="42.2642" lon="-0.57348">
        <ele>614.979611</ele>
        <time>2022-08-30T09:59:22.955Z</time>
      </trkpt>
      <trkpt lat="42.26392" lon="-0.57267">
        <ele>615.079631</ele>
        <time>2022-08-30T09:59:47.938Z</time>
      </trkpt>
      <trkpt lat="42.26367" lon="-0.57213">
        <ele>615.151824</ele>
        <time>2022-08-30T10:00:06.124Z</time>
      </trkpt>
      <trkpt lat="42.26354" lon="-0.5718">
        <ele>615.193528</ele>
        <time>2022-08-30T10:00:16.456Z</time>
      </trkpt>
      <trkpt lat="42.26341" lon="-0.57111">
        <ele>615.275048</ele>
        <time>2022-08-30T10:00:36.700Z</time>
      </trkpt>
      <trkpt lat="42.26328" lon="-0.57078">
        <ele>615.316624</ele>
        <time>2022-08-30T10:00:47.029Z</time>
      </trkpt>
      <trkpt lat="42.26277" lon="-0.57001">
        <ele>615.349141</ele>
        <time>2022-08-30T10:01:15.557Z</time>
      </trkpt>
      <trkpt lat="42.2626" lon="-0.5695">
        <ele>615.318966</ele>
        <time>2022-08-30T10:01:31.032Z</time>
      </trkpt>
      <trkpt lat="42.26218" lon="-0.56875">
        <ele>615.268558</ele>
        <time>2022-08-30T10:01:56.784Z</time>
      </trkpt>
      <trkpt lat="42.2613" lon="-0.56697">
        <ele>614.507428</ele>
        <time>2022-08-30T10:02:53.905Z</time>
      </trkpt>
      <trkpt lat="42.26068" lon="-0.56558">
        <ele>613.552799</ele>
        <time>2022-08-30T10:03:34.935Z</time>
      </trkpt>
      <trkpt lat="42.25996" lon="-0.56445">
        <ele>612.488387</ele>
        <time>2022-08-30T10:04:12.792Z</time>
      </trkpt>
      <trkpt lat="42.26026" lon="-0.5637">
        <ele>613.120512</ele>
        <time>2022-08-30T10:04:27.354Z</time>
      </trkpt>
      <trkpt lat="42.26006" lon="-0.5635">
        <ele>613.382589</ele>
        <time>2022-08-30T10:04:33.884Z</time>
      </trkpt>
      <trkpt lat="42.25977" lon="-0.5632">
        <ele>613.76569</ele>
        <time>2022-08-30T10:04:44.631Z</time>
      </trkpt>
      <trkpt lat="42.25973" lon="-0.56315">
        <ele>613.82671</ele>
        <time>2022-08-30T10:04:46.456Z</time>
      </trkpt>
      <trkpt lat="42.25908" lon="-0.56244">
        <ele>615.178644</ele>
        <time>2022-08-30T10:05:15.803Z</time>
      </trkpt>
      <trkpt lat="42.25851" lon="-0.56156">
        <ele>617.370682</ele>
        <time>2022-08-30T10:05:45.305Z</time>
      </trkpt>
      <trkpt lat="42.25843" lon="-0.56141">
        <ele>617.71363</ele>
        <time>2022-08-30T10:05:50.183Z</time>
      </trkpt>
      <trkpt lat="42.25832" lon="-0.5612">
        <ele>618.167617</ele>
        <time>2022-08-30T10:05:56.670Z</time>
      </trkpt>
      <trkpt lat="42.25818" lon="-0.56089">
        <ele>618.855995</ele>
        <time>2022-08-30T10:06:06.568Z</time>
      </trkpt>
      <trkpt lat="42.25833" lon="-0.56089">
        <ele>619.323294</ele>
        <time>2022-08-30T10:06:11.930Z</time>
      </trkpt>
      <trkpt lat="42.25846" lon="-0.56078">
        <ele>619.807541</ele>
        <time>2022-08-30T10:06:17.491Z</time>
      </trkpt>
      <trkpt lat="42.25853" lon="-0.56059">
        <ele>620.313309</ele>
        <time>2022-08-30T10:06:23.257Z</time>
      </trkpt>
      <trkpt lat="42.25878" lon="-0.55854">
        <ele>626.054399</ele>
        <time>2022-08-30T10:07:19.874Z</time>
      </trkpt>
      <trkpt lat="42.25908" lon="-0.55701">
        <ele>634.926261</ele>
        <time>2022-08-30T10:08:27.058Z</time>
      </trkpt>
      <trkpt lat="42.25919" lon="-0.5564">
        <ele>638.558915</ele>
        <time>2022-08-30T10:09:02.152Z</time>
      </trkpt>
      <trkpt lat="42.25941" lon="-0.55519">
        <ele>649.290718</ele>
        <time>2022-08-30T10:10:23.780Z</time>
      </trkpt>
      <trkpt lat="42.25938" lon="-0.55495">
        <ele>651.3547</ele>
        <time>2022-08-30T10:10:40.124Z</time>
      </trkpt>
      <trkpt lat="42.25932" lon="-0.5544">
        <ele>656.184863</ele>
        <time>2022-08-30T10:11:16.200Z</time>
      </trkpt>
      <trkpt lat="42.25925" lon="-0.55394">
        <ele>659.326159</ele>
        <time>2022-08-30T10:11:42.945Z</time>
      </trkpt>
      <trkpt lat="42.25928" lon="-0.55388">
        <ele>659.438376</ele>
        <time>2022-08-30T10:11:46.685Z</time>
      </trkpt>
      <trkpt lat="42.25914" lon="-0.55281">
        <ele>660.934386</ele>
        <time>2022-08-30T10:12:22.830Z</time>
      </trkpt>
      <trkpt lat="42.25932" lon="-0.55256">
        <ele>661.418425</ele>
        <time>2022-08-30T10:12:29.710Z</time>
      </trkpt>
      <trkpt lat="42.25927" lon="-0.55251">
        <ele>661.530614</ele>
        <time>2022-08-30T10:12:31.205Z</time>
      </trkpt>
      <trkpt lat="42.25909" lon="-0.55234">
        <ele>661.945331</ele>
        <time>2022-08-30T10:12:35.718Z</time>
      </trkpt>
      <trkpt lat="42.25913" lon="-0.55226">
        <ele>662.075916</ele>
        <time>2022-08-30T10:12:36.943Z</time>
      </trkpt>
      <trkpt lat="42.2591" lon="-0.55219">
        <ele>662.197408</ele>
        <time>2022-08-30T10:12:38.144Z</time>
      </trkpt>
      <trkpt lat="42.25875" lon="-0.55191">
        <ele>660.248564</ele>
        <time>2022-08-30T10:12:44.560Z</time>
      </trkpt>
      <trkpt lat="42.25831" lon="-0.55137">
        <ele>654.118229</ele>
        <time>2022-08-30T10:12:53.387Z</time>
      </trkpt>
      <trkpt lat="42.25824" lon="-0.55123">
        <ele>652.875115</ele>
        <time>2022-08-30T10:12:55.160Z</time>
      </trkpt>
      <trkpt lat="42.2582" lon="-0.55071">
        <ele>648.940527</ele>
        <time>2022-08-30T10:13:00.738Z</time>
      </trkpt>
      <trkpt lat="42.25814" lon="-0.55055">
        <ele>647.557207</ele>
        <time>2022-08-30T10:13:02.683Z</time>
      </trkpt>
      <trkpt lat="42.25783" lon="-0.54984">
        <ele>640.878852</ele>
        <time>2022-08-30T10:13:11.560Z</time>
      </trkpt>
      <trkpt lat="42.25764" lon="-0.54947">
        <ele>636.966722</ele>
        <time>2022-08-30T10:13:16.341Z</time>
      </trkpt>
      <trkpt lat="42.25753" lon="-0.54934">
        <ele>635.260303</ele>
        <time>2022-08-30T10:13:18.404Z</time>
      </trkpt>
      <trkpt lat="42.2574" lon="-0.54927">
        <ele>633.55838</ele>
        <time>2022-08-30T10:13:20.463Z</time>
      </trkpt>
      <trkpt lat="42.2572" lon="-0.54944">
        <ele>630.732525</ele>
        <time>2022-08-30T10:13:23.897Z</time>
      </trkpt>
      <trkpt lat="42.25713" lon="-0.54916">
        <ele>628.182488</ele>
        <time>2022-08-30T10:13:27.002Z</time>
      </trkpt>
      <trkpt lat="42.25706" lon="-0.5488">
        <ele>624.909711</ele>
        <time>2022-08-30T10:13:31.029Z</time>
      </trkpt>
      <trkpt lat="42.2571" lon="-0.54858">
        <ele>622.951458</ele>
        <time>2022-08-30T10:13:33.534Z</time>
      </trkpt>
      <trkpt lat="42.25687" lon="-0.54812">
        <ele>619.878107</ele>
        <time>2022-08-30T10:13:39.708Z</time>
      </trkpt>
      <trkpt lat="42.25665" lon="-0.54805">
        <ele>618.153583</ele>
        <time>2022-08-30T10:13:43.246Z</time>
      </trkpt>
      <trkpt lat="42.25655" lon="-0.54754">
        <ele>615.225894</ele>
        <time>2022-08-30T10:13:53.757Z</time>
      </trkpt>
      <trkpt lat="42.25632" lon="-0.54752">
        <ele>613.529326</ele>
        <time>2022-08-30T10:13:59.831Z</time>
      </trkpt>
      <trkpt lat="42.25585" lon="-0.54729">
        <ele>609.732667</ele>
        <time>2022-08-30T10:14:14.029Z</time>
      </trkpt>
      <trkpt lat="42.25509" lon="-0.54703">
        <ele>605.48956</ele>
        <time>2022-08-30T10:14:36.137Z</time>
      </trkpt>
      <trkpt lat="42.25473" lon="-0.54672">
        <ele>603.185842</ele>
        <time>2022-08-30T10:14:48.614Z</time>
      </trkpt>
      <trkpt lat="42.25401" lon="-0.54646">
        <ele>599.22821</ele>
        <time>2022-08-30T10:15:09.774Z</time>
      </trkpt>
      <trkpt lat="42.25283" lon="-0.54593">
        <ele>592.661804</ele>
        <time>2022-08-30T10:15:45.364Z</time>
      </trkpt>
      <trkpt lat="42.25237" lon="-0.54581">
        <ele>590.187798</ele>
        <time>2022-08-30T10:15:58.616Z</time>
      </trkpt>
      <trkpt lat="42.25152" lon="-0.54534">
        <ele>585.520429</ele>
        <time>2022-08-30T10:16:25.106Z</time>
      </trkpt>
      <trkpt lat="42.2511" lon="-0.54532">
        <ele>583.379707</ele>
        <time>2022-08-30T10:16:37.251Z</time>
      </trkpt>
      <trkpt lat="42.25015" lon="-0.54569">
        <ele>578.870997</ele>
        <time>2022-08-30T10:17:05.777Z</time>
      </trkpt>
      <trkpt lat="42.25003" lon="-0.54569">
        <ele>578.358277</ele>
        <time>2022-08-30T10:17:09.211Z</time>
      </trkpt>
      <trkpt lat="42.2488" lon="-0.54461">
        <ele>572.568314</ele>
        <time>2022-08-30T10:17:53.167Z</time>
      </trkpt>
      <trkpt lat="42.24824" lon="-0.54436">
        <ele>570.820677</ele>
        <time>2022-08-30T10:18:11.290Z</time>
      </trkpt>
      <trkpt lat="42.24767" lon="-0.54429">
        <ele>569.119292</ele>
        <time>2022-08-30T10:18:29.338Z</time>
      </trkpt>
      <trkpt lat="42.24758" lon="-0.54435">
        <ele>568.831092</ele>
        <time>2022-08-30T10:18:32.499Z</time>
      </trkpt>
      <trkpt lat="42.24748" lon="-0.54455">
        <ele>568.299735</ele>
        <time>2022-08-30T10:18:38.157Z</time>
      </trkpt>
      <trkpt lat="42.24727" lon="-0.5444">
        <ele>567.82088</ele>
        <time>2022-08-30T10:18:46.040Z</time>
      </trkpt>
      <trkpt lat="42.24561" lon="-0.54335">
        <ele>564.376621</ele>
        <time>2022-08-30T10:19:46.336Z</time>
      </trkpt>
      <trkpt lat="42.24284" lon="-0.54162">
        <ele>559.483084</ele>
        <time>2022-08-30T10:21:27.706Z</time>
      </trkpt>
      <trkpt lat="42.24252" lon="-0.54132">
        <ele>558.866603</ele>
        <time>2022-08-30T10:21:41.024Z</time>
      </trkpt>
      <trkpt lat="42.24168" lon="-0.54024">
        <ele>557.020717</ele>
        <time>2022-08-30T10:22:19.803Z</time>
      </trkpt>
      <trkpt lat="42.24131" lon="-0.53992">
        <ele>556.318707</ele>
        <time>2022-08-30T10:22:34.348Z</time>
      </trkpt>
      <trkpt lat="42.23762" lon="-0.53819">
        <ele>548.284115</ele>
        <time>2022-08-30T10:24:40.022Z</time>
      </trkpt>
      <trkpt lat="42.23741" lon="-0.538">
        <ele>548.074169</ele>
        <time>2022-08-30T10:24:48.672Z</time>
      </trkpt>
      <trkpt lat="42.23684" lon="-0.53716">
        <ele>547.366969</ele>
        <time>2022-08-30T10:25:18.629Z</time>
      </trkpt>
      <trkpt lat="42.23601" lon="-0.53655">
        <ele>546.799692</ele>
        <time>2022-08-30T10:25:53.157Z</time>
      </trkpt>
      <trkpt lat="42.23368" lon="-0.53299">
        <ele>545.463858</ele>
        <time>2022-08-30T10:27:59.486Z</time>
      </trkpt>
      <trkpt lat="42.2331" lon="-0.53237">
        <ele>545.253376</ele>
        <time>2022-08-30T10:28:26.042Z</time>
      </trkpt>
      <trkpt lat="42.23291" lon="-0.53204">
        <ele>545.164145</ele>
        <time>2022-08-30T10:28:37.366Z</time>
      </trkpt>
      <trkpt lat="42.23198" lon="-0.53075">
        <ele>545.020792</ele>
        <time>2022-08-30T10:29:26.297Z</time>
      </trkpt>
      <trkpt lat="42.23154" lon="-0.53019">
        <ele>544.999245</ele>
        <time>2022-08-30T10:29:48.405Z</time>
      </trkpt>
      <trkpt lat="42.23117" lon="-0.52982">
        <ele>545.065333</ele>
        <time>2022-08-30T10:30:06.187Z</time>
      </trkpt>
      <trkpt lat="42.23051" lon="-0.52887">
        <ele>545.389364</ele>
        <time>2022-08-30T10:30:43.420Z</time>
      </trkpt>
      <trkpt lat="42.23025" lon="-0.52855">
        <ele>545.508342</ele>
        <time>2022-08-30T10:30:57.284Z</time>
      </trkpt>
      <trkpt lat="42.22936" lon="-0.52725">
        <ele>546.125316</ele>
        <time>2022-08-30T10:31:49.417Z</time>
      </trkpt>
      <trkpt lat="42.22871" lon="-0.52581">
        <ele>546.580224</ele>
        <time>2022-08-30T10:32:38.706Z</time>
      </trkpt>
      <trkpt lat="42.22847" lon="-0.52542">
        <ele>546.636222</ele>
        <time>2022-08-30T10:32:53.045Z</time>
      </trkpt>
      <trkpt lat="42.22798" lon="-0.52473">
        <ele>546.742475</ele>
        <time>2022-08-30T10:33:19.789Z</time>
      </trkpt>
      <trkpt lat="42.22686" lon="-0.52334">
        <ele>545.697612</ele>
        <time>2022-08-30T10:34:13.733Z</time>
      </trkpt>
      <trkpt lat="42.22652" lon="-0.523">
        <ele>545.342677</ele>
        <time>2022-08-30T10:34:28.121Z</time>
      </trkpt>
      <trkpt lat="42.22635" lon="-0.52296">
        <ele>545.124562</ele>
        <time>2022-08-30T10:34:33.708Z</time>
      </trkpt>
      <trkpt lat="42.22531" lon="-0.52353">
        <ele>543.319571</ele>
        <time>2022-08-30T10:35:11.139Z</time>
      </trkpt>
      <trkpt lat="42.22509" lon="-0.52357">
        <ele>542.962345</ele>
        <time>2022-08-30T10:35:18.539Z</time>
      </trkpt>
      <trkpt lat="42.22469" lon="-0.52353">
        <ele>542.333671</ele>
        <time>2022-08-30T10:35:31.685Z</time>
      </trkpt>
      <trkpt lat="42.22414" lon="-0.52373">
        <ele>541.522061</ele>
        <time>2022-08-30T10:35:50.706Z</time>
      </trkpt>
      <trkpt lat="42.22357" lon="-0.52424">
        <ele>540.543687</ele>
        <time>2022-08-30T10:36:13.823Z</time>
      </trkpt>
      <trkpt lat="42.22267" lon="-0.52531">
        <ele>539.023204</ele>
        <time>2022-08-30T10:36:54.384Z</time>
      </trkpt>
      <trkpt lat="42.22232" lon="-0.52559">
        <ele>538.550097</ele>
        <time>2022-08-30T10:37:08.152Z</time>
      </trkpt>
      <trkpt lat="42.22214" lon="-0.52559">
        <ele>538.343377</ele>
        <time>2022-08-30T10:37:14.165Z</time>
      </trkpt>
      <trkpt lat="42.22178" lon="-0.52522">
        <ele>537.821174</ele>
        <time>2022-08-30T10:37:29.631Z</time>
      </trkpt>
      <trkpt lat="42.22153" lon="-0.52517">
        <ele>537.836126</ele>
        <time>2022-08-30T10:37:38.399Z</time>
      </trkpt>
      <trkpt lat="42.22116" lon="-0.52515">
        <ele>537.996684</ele>
        <time>2022-08-30T10:37:51.711Z</time>
      </trkpt>
      <trkpt lat="42.22103" lon="-0.52508">
        <ele>538.056018</ele>
        <time>2022-08-30T10:37:56.797Z</time>
      </trkpt>
      <trkpt lat="42.2209" lon="-0.52486">
        <ele>538.146802</ele>
        <time>2022-08-30T10:38:04.887Z</time>
      </trkpt>
      <trkpt lat="42.22082" lon="-0.52456">
        <ele>538.249721</ele>
        <time>2022-08-30T10:38:14.555Z</time>
      </trkpt>
      <trkpt lat="42.22076" lon="-0.52401">
        <ele>538.427997</ele>
        <time>2022-08-30T10:38:31.996Z</time>
      </trkpt>
      <trkpt lat="42.2207" lon="-0.52375">
        <ele>538.51604</ele>
        <time>2022-08-30T10:38:40.963Z</time>
      </trkpt>
      <trkpt lat="42.22069" lon="-0.5237">
        <ele>538.551823</ele>
        <time>2022-08-30T10:38:42.836Z</time>
      </trkpt>
      <trkpt lat="42.22076" lon="-0.5233">
        <ele>539.59321</ele>
        <time>2022-08-30T10:38:57.030Z</time>
      </trkpt>
      <trkpt lat="42.22118" lon="-0.52286">
        <ele>541.418254</ele>
        <time>2022-08-30T10:39:23.999Z</time>
      </trkpt>
      <trkpt lat="42.22174" lon="-0.52127">
        <ele>546.663422</ele>
        <time>2022-08-30T10:40:40.902Z</time>
      </trkpt>
      <trkpt lat="42.22277" lon="-0.51865">
        <ele>559.674874</ele>
        <time>2022-08-30T10:43:08.121Z</time>
      </trkpt>
      <trkpt lat="42.22287" lon="-0.51768">
        <ele>564.498515</ele>
        <time>2022-08-30T10:44:01.430Z</time>
      </trkpt>
      <trkpt lat="42.22292" lon="-0.51603">
        <ele>572.071271</ele>
        <time>2022-08-30T10:45:27.642Z</time>
      </trkpt>
      <trkpt lat="42.223" lon="-0.51553">
        <ele>574.382059</ele>
        <time>2022-08-30T10:45:53.338Z</time>
      </trkpt>
      <trkpt lat="42.22298" lon="-0.5152">
        <ele>575.885826</ele>
        <time>2022-08-30T10:46:09.483Z</time>
      </trkpt>
      <trkpt lat="42.22287" lon="-0.51483">
        <ele>577.643789</ele>
        <time>2022-08-30T10:46:28.045Z</time>
      </trkpt>
      <trkpt lat="42.22249" lon="-0.51412">
        <ele>579.914182</ele>
        <time>2022-08-30T10:47:06.690Z</time>
      </trkpt>
      <trkpt lat="42.22217" lon="-0.51365">
        <ele>581.536958</ele>
        <time>2022-08-30T10:47:32.083Z</time>
      </trkpt>
      <trkpt lat="42.22149" lon="-0.51329">
        <ele>583.869404</ele>
        <time>2022-08-30T10:48:09.121Z</time>
      </trkpt>
      <trkpt lat="42.22077" lon="-0.51277">
        <ele>584.186443</ele>
        <time>2022-08-30T10:48:43.213Z</time>
      </trkpt>
      <trkpt lat="42.2204" lon="-0.51241">
        <ele>584.361166</ele>
        <time>2022-08-30T10:48:59.879Z</time>
      </trkpt>
      <trkpt lat="42.22006" lon="-0.5122">
        <ele>584.508227</ele>
        <time>2022-08-30T10:49:13.229Z</time>
      </trkpt>
      <trkpt lat="42.21994" lon="-0.51211">
        <ele>584.457804</ele>
        <time>2022-08-30T10:49:17.545Z</time>
      </trkpt>
      <trkpt lat="42.21971" lon="-0.51205">
        <ele>584.114771</ele>
        <time>2022-08-30T10:49:25.729Z</time>
      </trkpt>
      <trkpt lat="42.21849" lon="-0.5124">
        <ele>582.279677</ele>
        <time>2022-08-30T10:50:07.086Z</time>
      </trkpt>
      <trkpt lat="42.21803" lon="-0.51247">
        <ele>581.500704</ele>
        <time>2022-08-30T10:50:22.463Z</time>
      </trkpt>
      <trkpt lat="42.21776" lon="-0.51244">
        <ele>580.942629</ele>
        <time>2022-08-30T10:50:31.682Z</time>
      </trkpt>
      <trkpt lat="42.2176" lon="-0.51237">
        <ele>580.619051</ele>
        <time>2022-08-30T10:50:37.024Z</time>
      </trkpt>
      <trkpt lat="42.21734" lon="-0.51196">
        <ele>579.806368</ele>
        <time>2022-08-30T10:50:50.348Z</time>
      </trkpt>
      <trkpt lat="42.2172" lon="-0.51186">
        <ele>579.492524</ele>
        <time>2022-08-30T10:50:55.445Z</time>
      </trkpt>
      <trkpt lat="42.21396" lon="-0.51156">
        <ele>571.82576</ele>
        <time>2022-08-30T10:52:38.608Z</time>
      </trkpt>
      <trkpt lat="42.2135" lon="-0.51112">
        <ele>570.507372</ele>
        <time>2022-08-30T10:52:56.639Z</time>
      </trkpt>
      <trkpt lat="42.21283" lon="-0.51067">
        <ele>568.870099</ele>
        <time>2022-08-30T10:53:20.902Z</time>
      </trkpt>
      <trkpt lat="42.20524" lon="-0.51068">
        <ele>553.883569</ele>
        <time>2022-08-30T10:57:27.846Z</time>
      </trkpt>
      <trkpt lat="42.20347" lon="-0.5108">
        <ele>551.373014</ele>
        <time>2022-08-30T10:58:26.672Z</time>
      </trkpt>
      <trkpt lat="42.20236" lon="-0.51096">
        <ele>550.362428</ele>
        <time>2022-08-30T10:59:06.047Z</time>
      </trkpt>
      <trkpt lat="42.2019" lon="-0.5109">
        <ele>550.35896</ele>
        <time>2022-08-30T10:59:23.274Z</time>
      </trkpt>
      <trkpt lat="42.20134" lon="-0.51067">
        <ele>550.354587</ele>
        <time>2022-08-30T10:59:45.864Z</time>
      </trkpt>
      <trkpt lat="42.20075" lon="-0.51059">
        <ele>550.350131</ele>
        <time>2022-08-30T11:00:08.698Z</time>
      </trkpt>
      <trkpt lat="42.19984" lon="-0.5107">
        <ele>549.698822</ele>
        <time>2022-08-30T11:00:41.687Z</time>
      </trkpt>
      <trkpt lat="42.19961" lon="-0.51057">
        <ele>549.494255</ele>
        <time>2022-08-30T11:00:50.522Z</time>
      </trkpt>
      <trkpt lat="42.19943" lon="-0.51035">
        <ele>549.300436</ele>
        <time>2022-08-30T11:00:58.713Z</time>
      </trkpt>
      <trkpt lat="42.1993" lon="-0.51002">
        <ele>549.076882</ele>
        <time>2022-08-30T11:01:08.053Z</time>
      </trkpt>
      <trkpt lat="42.19901" lon="-0.50948">
        <ele>548.322949</ele>
        <time>2022-08-30T11:01:24.440Z</time>
      </trkpt>
      <trkpt lat="42.19794" lon="-0.50883">
        <ele>545.808985</ele>
        <time>2022-08-30T11:02:02.060Z</time>
      </trkpt>
      <trkpt lat="42.1974" lon="-0.50852">
        <ele>544.527924</ele>
        <time>2022-08-30T11:02:20.685Z</time>
      </trkpt>
      <trkpt lat="42.19715" lon="-0.50859">
        <ele>543.946901</ele>
        <time>2022-08-30T11:02:28.881Z</time>
      </trkpt>
      <trkpt lat="42.19714" lon="-0.50877">
        <ele>543.640377</ele>
        <time>2022-08-30T11:02:33.149Z</time>
      </trkpt>
      <trkpt lat="42.19673" lon="-0.50891">
        <ele>542.68417</ele>
        <time>2022-08-30T11:02:46.578Z</time>
      </trkpt>
      <trkpt lat="42.19658" lon="-0.5089">
        <ele>542.339354</ele>
        <time>2022-08-30T11:02:51.496Z</time>
      </trkpt>
      <trkpt lat="42.19642" lon="-0.50854">
        <ele>541.634993</ele>
        <time>2022-08-30T11:03:01.422Z</time>
      </trkpt>
      <trkpt lat="42.19622" lon="-0.50845">
        <ele>541.156857</ele>
        <time>2022-08-30T11:03:08.175Z</time>
      </trkpt>
      <trkpt lat="42.19518" lon="-0.50873">
        <ele>539.343385</ele>
        <time>2022-08-30T11:03:42.810Z</time>
      </trkpt>
      <trkpt lat="42.19302" lon="-0.50916">
        <ele>536.410032</ele>
        <time>2022-08-30T11:04:56.744Z</time>
      </trkpt>
      <trkpt lat="42.19219" lon="-0.50941">
        <ele>535.385432</ele>
        <time>2022-08-30T11:05:26.358Z</time>
      </trkpt>
      <trkpt lat="42.19175" lon="-0.50966">
        <ele>534.794048</ele>
        <time>2022-08-30T11:05:42.667Z</time>
      </trkpt>
      <trkpt lat="42.18966" lon="-0.51007">
        <ele>532.371557</ele>
        <time>2022-08-30T11:06:53.573Z</time>
      </trkpt>
      <trkpt lat="42.18943" lon="-0.51016">
        <ele>532.118305</ele>
        <time>2022-08-30T11:07:01.586Z</time>
      </trkpt>
      <trkpt lat="42.18942" lon="-0.51014">
        <ele>532.102351</ele>
        <time>2022-08-30T11:07:01.879Z</time>
      </trkpt>
      <trkpt lat="42.18247" lon="-0.49886">
        <ele>532.232594</ele>
        <time>2022-08-30T11:11:05.234Z</time>
      </trkpt>
      <trkpt lat="42.1812" lon="-0.4968">
        <ele>533.750919</ele>
        <time>2022-08-30T11:11:59.491Z</time>
      </trkpt>
      <trkpt lat="42.18073" lon="-0.49594">
        <ele>532.962446</ele>
        <time>2022-08-30T11:12:17.593Z</time>
      </trkpt>
      <trkpt lat="42.17661" lon="-0.48672">
        <ele>523.331909</ele>
        <time>2022-08-30T11:14:51.024Z</time>
      </trkpt>
      <trkpt lat="42.1744" lon="-0.48177">
        <ele>521.001214</ele>
        <time>2022-08-30T11:16:21.479Z</time>
      </trkpt>
      <trkpt lat="42.17037" lon="-0.47274">
        <ele>512.767488</ele>
        <time>2022-08-30T11:18:55.479Z</time>
      </trkpt>
      <trkpt lat="42.16718" lon="-0.46558">
        <ele>506.065893</ele>
        <time>2022-08-30T11:20:56.869Z</time>
      </trkpt>
      <trkpt lat="42.16666" lon="-0.46442">
        <ele>506.727569</ele>
        <time>2022-08-30T11:21:23.568Z</time>
      </trkpt>
      <trkpt lat="42.16654" lon="-0.46414">
        <ele>506.889601</ele>
        <time>2022-08-30T11:21:30.524Z</time>
      </trkpt>
      <trkpt lat="42.16614" lon="-0.46325">
        <ele>507.196289</ele>
        <time>2022-08-30T11:21:51.708Z</time>
      </trkpt>
      <trkpt lat="42.16601" lon="-0.46337">
        <ele>507.147101</ele>
        <time>2022-08-30T11:21:55.624Z</time>
      </trkpt>
      <trkpt lat="42.16578" lon="-0.46335">
        <ele>507.071049</ele>
        <time>2022-08-30T11:22:01.200Z</time>
      </trkpt>
      <trkpt lat="42.16529" lon="-0.46332">
        <ele>506.913957</ele>
        <time>2022-08-30T11:22:11.989Z</time>
      </trkpt>
      <trkpt lat="42.16447" lon="-0.46404">
        <ele>506.261648</ele>
        <time>2022-08-30T11:22:32.229Z</time>
      </trkpt>
      <trkpt lat="42.16436" lon="-0.46417">
        <ele>506.041168</ele>
        <time>2022-08-30T11:22:35.022Z</time>
      </trkpt>
      <trkpt lat="42.16403" lon="-0.4642">
        <ele>505.521384</ele>
        <time>2022-08-30T11:22:41.550Z</time>
      </trkpt>
      <trkpt lat="42.16342" lon="-0.46353">
        <ele>504.290297</ele>
        <time>2022-08-30T11:22:56.795Z</time>
      </trkpt>
      <trkpt lat="42.16337" lon="-0.46349">
        <ele>504.186047</ele>
        <time>2022-08-30T11:22:58.083Z</time>
      </trkpt>
      <trkpt lat="42.16333" lon="-0.46346">
        <ele>504.123456</ele>
        <time>2022-08-30T11:22:58.856Z</time>
      </trkpt>
      <trkpt lat="42.1631" lon="-0.46326">
        <ele>503.723068</ele>
        <time>2022-08-30T11:23:04.236Z</time>
      </trkpt>
      <trkpt lat="42.16293" lon="-0.4632">
        <ele>503.491025</ele>
        <time>2022-08-30T11:23:07.795Z</time>
      </trkpt>
      <trkpt lat="42.16273" lon="-0.4631">
        <ele>503.212456</ele>
        <time>2022-08-30T11:23:12.065Z</time>
      </trkpt>
      <trkpt lat="42.16263" lon="-0.46298">
        <ele>503.043311</ele>
        <time>2022-08-30T11:23:14.665Z</time>
      </trkpt>
      <trkpt lat="42.16232" lon="-0.4628">
        <ele>502.604859</ele>
        <time>2022-08-30T11:23:21.471Z</time>
      </trkpt>
      <trkpt lat="42.16199" lon="-0.46252">
        <ele>502.09446</ele>
        <time>2022-08-30T11:23:29.581Z</time>
      </trkpt>
      <trkpt lat="42.16166" lon="-0.46244">
        <ele>501.660041</ele>
        <time>2022-08-30T11:23:36.568Z</time>
      </trkpt>
      <trkpt lat="42.16113" lon="-0.46255">
        <ele>501.178344</ele>
        <time>2022-08-30T11:23:47.631Z</time>
      </trkpt>
      <trkpt lat="42.16074" lon="-0.46261">
        <ele>500.852743</ele>
        <time>2022-08-30T11:23:55.670Z</time>
      </trkpt>
      <trkpt lat="42.16063" lon="-0.46255">
        <ele>500.755218</ele>
        <time>2022-08-30T11:23:58.149Z</time>
      </trkpt>
      <trkpt lat="42.15992" lon="-0.46206">
        <ele>500.102773</ele>
        <time>2022-08-30T11:24:14.463Z</time>
      </trkpt>
      <trkpt lat="42.15889" lon="-0.46177">
        <ele>499.051086</ele>
        <time>2022-08-30T11:24:35.825Z</time>
      </trkpt>
      <trkpt lat="42.15849" lon="-0.46169">
        <ele>498.645693</ele>
        <time>2022-08-30T11:24:43.685Z</time>
      </trkpt>
      <trkpt lat="42.15762" lon="-0.46186">
        <ele>497.575518</ele>
        <time>2022-08-30T11:25:00.575Z</time>
      </trkpt>
      <trkpt lat="42.15564" lon="-0.46169">
        <ele>495.118588</ele>
        <time>2022-08-30T11:25:38.601Z</time>
      </trkpt>
      <trkpt lat="42.15445" lon="-0.46185">
        <ele>494.017467</ele>
        <time>2022-08-30T11:26:02.991Z</time>
      </trkpt>
      <trkpt lat="42.15296" lon="-0.46181">
        <ele>493.454269</ele>
        <time>2022-08-30T11:26:34.835Z</time>
      </trkpt>
      <trkpt lat="42.1528" lon="-0.46162">
        <ele>493.373944</ele>
        <time>2022-08-30T11:26:39.409Z</time>
      </trkpt>
      <trkpt lat="42.15272" lon="-0.46164">
        <ele>493.33485</ele>
        <time>2022-08-30T11:26:41.152Z</time>
      </trkpt>
      <trkpt lat="42.14862" lon="-0.45531">
        <ele>490.032988</ele>
        <time>2022-08-30T11:28:56.280Z</time>
      </trkpt>
      <trkpt lat="42.14305" lon="-0.4467">
        <ele>486.603475</ele>
        <time>2022-08-30T11:32:03.527Z</time>
      </trkpt>
      <trkpt lat="42.14097" lon="-0.44348">
        <ele>485.349796</ele>
        <time>2022-08-30T11:33:13.450Z</time>
      </trkpt>
      <trkpt lat="42.14056" lon="-0.44274">
        <ele>484.797997</ele>
        <time>2022-08-30T11:33:28.562Z</time>
      </trkpt>
      <trkpt lat="42.1402" lon="-0.44186">
        <ele>484.164682</ele>
        <time>2022-08-30T11:33:44.524Z</time>
      </trkpt>
      <trkpt lat="42.13993" lon="-0.44102">
        <ele>483.41166</ele>
        <time>2022-08-30T11:33:57.973Z</time>
      </trkpt>
      <trkpt lat="42.13976" lon="-0.44026">
        <ele>482.460094</ele>
        <time>2022-08-30T11:34:09.453Z</time>
      </trkpt>
      <trkpt lat="42.13962" lon="-0.43934">
        <ele>481.338221</ele>
        <time>2022-08-30T11:34:22.869Z</time>
      </trkpt>
      <trkpt lat="42.13809" lon="-0.42311">
        <ele>468.641113</ele>
        <time>2022-08-30T11:38:33.718Z</time>
      </trkpt>
      <trkpt lat="42.13797" lon="-0.42195">
        <ele>468.223036</ele>
        <time>2022-08-30T11:38:53.392Z</time>
      </trkpt>
      <trkpt lat="42.13781" lon="-0.42103">
        <ele>468.525981</ele>
        <time>2022-08-30T11:39:10.504Z</time>
      </trkpt>
      <trkpt lat="42.13755" lon="-0.42007">
        <ele>468.853105</ele>
        <time>2022-08-30T11:39:30.231Z</time>
      </trkpt>
      <trkpt lat="42.13716" lon="-0.41908">
        <ele>469.367495</ele>
        <time>2022-08-30T11:39:53.756Z</time>
      </trkpt>
      <trkpt lat="42.13702" lon="-0.41878">
        <ele>469.547855</ele>
        <time>2022-08-30T11:40:01.527Z</time>
      </trkpt>
      <trkpt lat="42.13715" lon="-0.41857">
        <ele>469.686742</ele>
        <time>2022-08-30T11:40:07.300Z</time>
      </trkpt>
      <trkpt lat="42.13709" lon="-0.41845">
        <ele>469.757289</ele>
        <time>2022-08-30T11:40:10.152Z</time>
      </trkpt>
      <trkpt lat="42.13672" lon="-0.41782">
        <ele>470.16441</ele>
        <time>2022-08-30T11:40:24.820Z</time>
      </trkpt>
      <trkpt lat="42.13668" lon="-0.41775">
        <ele>470.148485</ele>
        <time>2022-08-30T11:40:26.188Z</time>
      </trkpt>
      <trkpt lat="42.13691" lon="-0.41739">
        <ele>470.04404</ele>
        <time>2022-08-30T11:40:34.101Z</time>
      </trkpt>
      <trkpt lat="42.13696" lon="-0.4173">
        <ele>470.018197</ele>
        <time>2022-08-30T11:40:36.091Z</time>
      </trkpt>
      <trkpt lat="42.1369" lon="-0.41724">
        <ele>469.995367</ele>
        <time>2022-08-30T11:40:37.731Z</time>
      </trkpt>
      <trkpt lat="42.13684" lon="-0.41716">
        <ele>469.968741</ele>
        <time>2022-08-30T11:40:39.667Z</time>
      </trkpt>
      <trkpt lat="42.13644" lon="-0.4167">
        <ele>469.812408</ele>
        <time>2022-08-30T11:40:51.341Z</time>
      </trkpt>
      <trkpt lat="42.13636" lon="-0.41661">
        <ele>469.779368</ele>
        <time>2022-08-30T11:40:53.716Z</time>
      </trkpt>
      <trkpt lat="42.13629" lon="-0.41653">
        <ele>469.753634</ele>
        <time>2022-08-30T11:40:55.519Z</time>
      </trkpt>
      <trkpt lat="42.13571" lon="-0.41586">
        <ele>469.154834</ele>
        <time>2022-08-30T11:41:12.379Z</time>
      </trkpt>
      <trkpt lat="42.13542" lon="-0.41553">
        <ele>468.63513</ele>
        <time>2022-08-30T11:41:20.035Z</time>
      </trkpt>
      <trkpt lat="42.13528" lon="-0.41537">
        <ele>468.380563</ele>
        <time>2022-08-30T11:41:23.777Z</time>
      </trkpt>
      <trkpt lat="42.13521" lon="-0.41528">
        <ele>468.245088</ele>
        <time>2022-08-30T11:41:25.644Z</time>
      </trkpt>
      <trkpt lat="42.13522" lon="-0.41523">
        <ele>468.190736</ele>
        <time>2022-08-30T11:41:26.433Z</time>
      </trkpt>
      <trkpt lat="42.13536" lon="-0.41458">
        <ele>467.499478</ele>
        <time>2022-08-30T11:41:36.320Z</time>
      </trkpt>
      <trkpt lat="42.13539" lon="-0.41445">
        <ele>467.354281</ele>
        <time>2022-08-30T11:41:38.282Z</time>
      </trkpt>
      <trkpt lat="42.13529" lon="-0.41441">
        <ele>467.208524</ele>
        <time>2022-08-30T11:41:40.144Z</time>
      </trkpt>
      <trkpt lat="42.13478" lon="-0.41421">
        <ele>466.665632</ele>
        <time>2022-08-30T11:41:49.823Z</time>
      </trkpt>
      <trkpt lat="42.13442" lon="-0.41406">
        <ele>466.291174</ele>
        <time>2022-08-30T11:41:57.249Z</time>
      </trkpt>
      <trkpt lat="42.13417" lon="-0.41396">
        <ele>466.030426</ele>
        <time>2022-08-30T11:42:02.667Z</time>
      </trkpt>
      <trkpt lat="42.13411" lon="-0.41393">
        <ele>465.965343</ele>
        <time>2022-08-30T11:42:04.042Z</time>
      </trkpt>
      <trkpt lat="42.13408" lon="-0.41392">
        <ele>465.941609</ele>
        <time>2022-08-30T11:42:04.491Z</time>
      </trkpt>
      <trkpt lat="42.13394" lon="-0.41392">
        <ele>465.798883</ele>
        <time>2022-08-30T11:42:07.348Z</time>
      </trkpt>
      <trkpt lat="42.13372" lon="-0.41382">
        <ele>465.571829</ele>
        <time>2022-08-30T11:42:12.014Z</time>
      </trkpt>
      <trkpt lat="42.13376" lon="-0.41374">
        <ele>465.505831</ele>
        <time>2022-08-30T11:42:13.351Z</time>
      </trkpt>
      <trkpt lat="42.1339" lon="-0.41343">
        <ele>465.486093</ele>
        <time>2022-08-30T11:42:19.634Z</time>
      </trkpt>
      <trkpt lat="42.13393" lon="-0.41338">
        <ele>465.528678</ele>
        <time>2022-08-30T11:42:20.570Z</time>
      </trkpt>
      <trkpt lat="42.13416" lon="-0.41289">
        <ele>465.964698</ele>
        <time>2022-08-30T11:42:31.912Z</time>
      </trkpt>
      <trkpt lat="42.13427" lon="-0.41263">
        <ele>466.191106</ele>
        <time>2022-08-30T11:42:38.682Z</time>
      </trkpt>
      <trkpt lat="42.13478" lon="-0.41153">
        <ele>467.156851</ele>
        <time>2022-08-30T11:43:08.968Z</time>
      </trkpt>
      <trkpt lat="42.13493" lon="-0.41121">
        <ele>466.944277</ele>
        <time>2022-08-30T11:43:15.723Z</time>
      </trkpt>
      <trkpt lat="42.13488" lon="-0.41116">
        <ele>466.894789</ele>
        <time>2022-08-30T11:43:17.047Z</time>
      </trkpt>
      <trkpt lat="42.1349" lon="-0.41111">
        <ele>466.857176</ele>
        <time>2022-08-30T11:43:18.539Z</time>
      </trkpt>
      <trkpt lat="42.13418" lon="-0.41054">
        <ele>466.165321</ele>
        <time>2022-08-30T11:43:36.024Z</time>
      </trkpt>
      <trkpt lat="42.13392" lon="-0.41014">
        <ele>465.839675</ele>
        <time>2022-08-30T11:43:43.690Z</time>
      </trkpt>
      <trkpt lat="42.13384" lon="-0.40997">
        <ele>465.715704</ele>
        <time>2022-08-30T11:43:46.509Z</time>
      </trkpt>
      <trkpt lat="42.1337" lon="-0.40934">
        <ele>464.667565</ele>
        <time>2022-08-30T11:43:55.683Z</time>
      </trkpt>
      <trkpt lat="42.13366" lon="-0.40916">
        <ele>464.341212</ele>
        <time>2022-08-30T11:43:58.292Z</time>
      </trkpt>
      <trkpt lat="42.13366" lon="-0.40912">
        <ele>464.281523</ele>
        <time>2022-08-30T11:43:58.780Z</time>
      </trkpt>
      <trkpt lat="42.1336" lon="-0.40909">
        <ele>464.145581</ele>
        <time>2022-08-30T11:43:59.853Z</time>
      </trkpt>
      <trkpt lat="42.1332" lon="-0.40763">
        <ele>461.542471</ele>
        <time>2022-08-30T11:44:21.583Z</time>
      </trkpt>
      <trkpt lat="42.13319" lon="-0.40758">
        <ele>461.489959</ele>
        <time>2022-08-30T11:44:22.450Z</time>
      </trkpt>
      <trkpt lat="42.13316" lon="-0.40759">
        <ele>461.460464</ele>
        <time>2022-08-30T11:44:22.912Z</time>
      </trkpt>
      <trkpt lat="42.13306" lon="-0.40756">
        <ele>461.328163</ele>
        <time>2022-08-30T11:44:24.841Z</time>
      </trkpt>
      <trkpt lat="42.13303" lon="-0.40737">
        <ele>461.145947</ele>
        <time>2022-08-30T11:44:27.506Z</time>
      </trkpt>
      <trkpt lat="42.1331" lon="-0.4073">
        <ele>461.04046</ele>
        <time>2022-08-30T11:44:29.157Z</time>
      </trkpt>
      <trkpt lat="42.13313" lon="-0.40729">
        <ele>461.000902</ele>
        <time>2022-08-30T11:44:29.772Z</time>
      </trkpt>
      <trkpt lat="42.13311" lon="-0.40718">
        <ele>460.895949</ele>
        <time>2022-08-30T11:44:31.351Z</time>
      </trkpt>
      <trkpt lat="42.1332" lon="-0.40604">
        <ele>459.854918</ele>
        <time>2022-08-30T11:44:48.484Z</time>
      </trkpt>
      <trkpt lat="42.13329" lon="-0.40585">
        <ele>459.646532</ele>
        <time>2022-08-30T11:44:52.463Z</time>
      </trkpt>
      <trkpt lat="42.13332" lon="-0.40581">
        <ele>459.594273</ele>
        <time>2022-08-30T11:44:53.409Z</time>
      </trkpt>
      <trkpt lat="42.13332" lon="-0.40576">
        <ele>459.549635</ele>
        <time>2022-08-30T11:44:54.198Z</time>
      </trkpt>
      <trkpt lat="42.13344" lon="-0.40559">
        <ele>459.371242</ele>
        <time>2022-08-30T11:44:58.098Z</time>
      </trkpt>
      <trkpt lat="42.13355" lon="-0.40535">
        <ele>459.401168</ele>
        <time>2022-08-30T11:45:03.195Z</time>
      </trkpt>
      <trkpt lat="42.13354" lon="-0.40501">
        <ele>459.437715</ele>
        <time>2022-08-30T11:45:08.757Z</time>
      </trkpt>
      <trkpt lat="42.13352" lon="-0.40476">
        <ele>459.464949</ele>
        <time>2022-08-30T11:45:13.277Z</time>
      </trkpt>
      <trkpt lat="42.13339" lon="-0.40468">
        <ele>459.486605</ele>
        <time>2022-08-30T11:45:16.815Z</time>
      </trkpt>
      <trkpt lat="42.13342" lon="-0.4045">
        <ele>459.507599</ele>
        <time>2022-08-30T11:45:20.504Z</time>
      </trkpt>
      <trkpt lat="42.13357" lon="-0.40452">
        <ele>459.52926</ele>
        <time>2022-08-30T11:45:23.746Z</time>
      </trkpt>
      <trkpt lat="42.13361" lon="-0.4043">
        <ele>459.553629</ele>
        <time>2022-08-30T11:45:28.032Z</time>
      </trkpt>
      <trkpt lat="42.13361" lon="-0.40429">
        <ele>459.55465</ele>
        <time>2022-08-30T11:45:28.200Z</time>
      </trkpt>
      <trkpt lat="42.13366" lon="-0.40428">
        <ele>459.562363</ele>
        <time>2022-08-30T11:45:29.601Z</time>
      </trkpt>
      <trkpt lat="42.13386" lon="-0.40301">
        <ele>459.190495</ele>
        <time>2022-08-30T11:45:51.986Z</time>
      </trkpt>
      <trkpt lat="42.13388" lon="-0.40292">
        <ele>459.12987</ele>
        <time>2022-08-30T11:45:53.545Z</time>
      </trkpt>
      <trkpt lat="42.13389" lon="-0.40278">
        <ele>459.037106</ele>
        <time>2022-08-30T11:45:55.825Z</time>
      </trkpt>
      <trkpt lat="42.13403" lon="-0.4019">
        <ele>458.454782</ele>
        <time>2022-08-30T11:46:09.588Z</time>
      </trkpt>
      <trkpt lat="42.13409" lon="-0.40151">
        <ele>458.195635</ele>
        <time>2022-08-30T11:46:15.476Z</time>
      </trkpt>
      <trkpt lat="42.13417" lon="-0.40145">
        <ele>458.115608</ele>
        <time>2022-08-30T11:46:17.238Z</time>
      </trkpt>
      <trkpt lat="42.13424" lon="-0.40143">
        <ele>458.050609</ele>
        <time>2022-08-30T11:46:19.121Z</time>
      </trkpt>
      <trkpt lat="42.13428" lon="-0.40141">
        <ele>457.972788</ele>
        <time>2022-08-30T11:46:20.246Z</time>
      </trkpt>
      <trkpt lat="42.13426" lon="-0.40133">
        <ele>457.856155</ele>
        <time>2022-08-30T11:46:21.491Z</time>
      </trkpt>
      <trkpt lat="42.13424" lon="-0.40123">
        <ele>457.718802</ele>
        <time>2022-08-30T11:46:22.935Z</time>
      </trkpt>
      <trkpt lat="42.13423" lon="-0.40116">
        <ele>457.619042</ele>
        <time>2022-08-30T11:46:23.961Z</time>
      </trkpt>
      <trkpt lat="42.13418" lon="-0.40117">
        <ele>457.541134</ele>
        <time>2022-08-30T11:46:24.800Z</time>
      </trkpt>
      <trkpt lat="42.13385" lon="-0.40114">
        <ele>456.941145</ele>
        <time>2022-08-30T11:46:31.157Z</time>
      </trkpt>
      <trkpt lat="42.13351" lon="-0.40143">
        <ele>456.224194</ele>
        <time>2022-08-30T11:46:38.820Z</time>
      </trkpt>
      <trkpt lat="42.13259" lon="-0.40182">
        <ele>454.614237</ele>
        <time>2022-08-30T11:46:57.810Z</time>
      </trkpt>
      <trkpt lat="42.13254" lon="-0.40185">
        <ele>454.559548</ele>
        <time>2022-08-30T11:46:58.851Z</time>
      </trkpt>
      <trkpt lat="42.13252" lon="-0.40187">
        <ele>454.529393</ele>
        <time>2022-08-30T11:46:59.427Z</time>
      </trkpt>
      <trkpt lat="42.13214" lon="-0.40104">
        <ele>453.757664</ele>
        <time>2022-08-30T11:47:14.083Z</time>
      </trkpt>
      <trkpt lat="42.13212" lon="-0.40099">
        <ele>453.70999</ele>
        <time>2022-08-30T11:47:14.989Z</time>
      </trkpt>
      <trkpt lat="42.13178" lon="-0.40025">
        <ele>453.013117</ele>
        <time>2022-08-30T11:47:28.506Z</time>
      </trkpt>
      <trkpt lat="42.13175" lon="-0.40018">
        <ele>452.950606</ele>
        <time>2022-08-30T11:47:29.756Z</time>
      </trkpt>
      <trkpt lat="42.13124" lon="-0.39904">
        <ele>452.417882</ele>
        <time>2022-08-30T11:47:51.705Z</time>
      </trkpt>
      <trkpt lat="42.13063" lon="-0.39769">
        <ele>451.800881</ele>
        <time>2022-08-30T11:48:17.210Z</time>
      </trkpt>
      <trkpt lat="42.13053" lon="-0.39751">
        <ele>451.703041</ele>
        <time>2022-08-30T11:48:20.797Z</time>
      </trkpt>
      <trkpt lat="42.13041" lon="-0.3974">
        <ele>451.613892</ele>
        <time>2022-08-30T11:48:24.070Z</time>
      </trkpt>
      <trkpt lat="42.13022" lon="-0.39737">
        <ele>451.502161</ele>
        <time>2022-08-30T11:48:28.098Z</time>
      </trkpt>
      <trkpt lat="42.13024" lon="-0.39733">
        <ele>451.47951</ele>
        <time>2022-08-30T11:48:29.218Z</time>
      </trkpt>
      <trkpt lat="42.1303" lon="-0.39722">
        <ele>451.422678</ele>
        <time>2022-08-30T11:48:31.928Z</time>
      </trkpt>
      <trkpt lat="42.13017" lon="-0.39718">
        <ele>451.347505</ele>
        <time>2022-08-30T11:48:34.573Z</time>
      </trkpt>
      <trkpt lat="42.13017" lon="-0.39707">
        <ele>451.299694</ele>
        <time>2022-08-30T11:48:36.382Z</time>
      </trkpt>
      <trkpt lat="42.13023" lon="-0.397">
        <ele>451.251363</ele>
        <time>2022-08-30T11:48:38.246Z</time>
      </trkpt>
      <trkpt lat="42.13016" lon="-0.39676">
        <ele>451.13979</ele>
        <time>2022-08-30T11:48:42.210Z</time>
      </trkpt>
      <trkpt lat="42.12962" lon="-0.39565">
        <ele>450.651977</ele>
        <time>2022-08-30T11:49:03.644Z</time>
      </trkpt>
      <trkpt lat="42.12959" lon="-0.39533">
        <ele>450.548953</ele>
        <time>2022-08-30T11:49:08.795Z</time>
      </trkpt>
      <trkpt lat="42.12965" lon="-0.39482">
        <ele>450.381615</ele>
        <time>2022-08-30T11:49:17.124Z</time>
      </trkpt>
      <trkpt lat="42.12963" lon="-0.39463">
        <ele>450.318282</ele>
        <time>2022-08-30T11:49:20.519Z</time>
      </trkpt>
      <trkpt lat="42.12938" lon="-0.39394">
        <ele>450.087316</ele>
        <time>2022-08-30T11:49:33.323Z</time>
      </trkpt>
      <trkpt lat="42.12898" lon="-0.39319">
        <ele>449.854536</ele>
        <time>2022-08-30T11:49:49.070Z</time>
      </trkpt>
      <trkpt lat="42.12895" lon="-0.39292">
        <ele>449.785635</ele>
        <time>2022-08-30T11:49:53.866Z</time>
      </trkpt>
      <trkpt lat="42.12907" lon="-0.39197">
        <ele>449.543818</ele>
        <time>2022-08-30T11:50:09.445Z</time>
      </trkpt>
      <trkpt lat="42.12876" lon="-0.39099">
        <ele>448.853168</ele>
        <time>2022-08-30T11:50:25.899Z</time>
      </trkpt>
      <trkpt lat="42.12871" lon="-0.39038">
        <ele>448.43486</ele>
        <time>2022-08-30T11:50:35.433Z</time>
      </trkpt>
      <trkpt lat="42.1287" lon="-0.38971">
        <ele>447.984175</ele>
        <time>2022-08-30T11:50:45.685Z</time>
      </trkpt>
      <trkpt lat="42.12808" lon="-0.38889">
        <ele>447.532521</ele>
        <time>2022-08-30T11:51:16.216Z</time>
      </trkpt>
      <trkpt lat="42.1273" lon="-0.38825">
        <ele>447.105685</ele>
        <time>2022-08-30T11:51:49.486Z</time>
      </trkpt>
      <trkpt lat="42.12711" lon="-0.38819">
        <ele>447.015458</ele>
        <time>2022-08-30T11:51:56.749Z</time>
      </trkpt>
      <trkpt lat="42.12675" lon="-0.38837">
        <ele>446.84283</ele>
        <time>2022-08-30T11:52:10.644Z</time>
      </trkpt>
      <trkpt lat="42.12663" lon="-0.38834">
        <ele>446.790533</ele>
        <time>2022-08-30T11:52:13.137Z</time>
      </trkpt>
      <trkpt lat="42.12631" lon="-0.3885">
        <ele>446.633675</ele>
        <time>2022-08-30T11:52:25.649Z</time>
      </trkpt>
      <trkpt lat="42.12605" lon="-0.38852">
        <ele>446.517115</ele>
        <time>2022-08-30T11:52:34.976Z</time>
      </trkpt>
      <trkpt lat="42.12593" lon="-0.38872">
        <ele>446.433199</ele>
        <time>2022-08-30T11:52:41.542Z</time>
      </trkpt>
      <trkpt lat="42.12562" lon="-0.38897">
        <ele>446.270857</ele>
        <time>2022-08-30T11:52:54.323Z</time>
      </trkpt>
      <trkpt lat="42.12545" lon="-0.38902">
        <ele>446.180639</ele>
        <time>2022-08-30T11:53:00.797Z</time>
      </trkpt>
      <trkpt lat="42.12531" lon="-0.38898">
        <ele>446.105728</ele>
        <time>2022-08-30T11:53:05.652Z</time>
      </trkpt>
      <trkpt lat="42.12489" lon="-0.38869">
        <ele>445.853184</ele>
        <time>2022-08-30T11:53:22.331Z</time>
      </trkpt>
      <trkpt lat="42.12426" lon="-0.38817">
        <ele>445.459445</ele>
        <time>2022-08-30T11:53:48.611Z</time>
      </trkpt>
      <trkpt lat="42.12386" lon="-0.38768">
        <ele>445.164296</ele>
        <time>2022-08-30T11:54:07.851Z</time>
      </trkpt>
      <trkpt lat="42.12325" lon="-0.38731">
        <ele>444.774729</ele>
        <time>2022-08-30T11:54:31.966Z</time>
      </trkpt>
      <trkpt lat="42.12236" lon="-0.38628">
        <ele>443.985349</ele>
        <time>2022-08-30T11:55:13.241Z</time>
      </trkpt>
      <trkpt lat="42.12187" lon="-0.38595">
        <ele>443.407489</ele>
        <time>2022-08-30T11:55:32.410Z</time>
      </trkpt>
      <trkpt lat="42.12106" lon="-0.38511">
        <ele>442.342256</ele>
        <time>2022-08-30T11:56:07.014Z</time>
      </trkpt>
      <trkpt lat="42.12031" lon="-0.38413">
        <ele>441.010038</ele>
        <time>2022-08-30T11:56:42.104Z</time>
      </trkpt>
      <trkpt lat="42.11912" lon="-0.38371">
        <ele>439.54136</ele>
        <time>2022-08-30T11:57:24.093Z</time>
      </trkpt>
      <trkpt lat="42.11827" lon="-0.38362">
        <ele>438.637052</ele>
        <time>2022-08-30T11:57:53.338Z</time>
      </trkpt>
      <trkpt lat="42.11801" lon="-0.38367">
        <ele>438.358028</ele>
        <time>2022-08-30T11:58:02.369Z</time>
      </trkpt>
      <trkpt lat="42.11717" lon="-0.384">
        <ele>437.53499</ele>
        <time>2022-08-30T11:58:32.797Z</time>
      </trkpt>
      <trkpt lat="42.11609" lon="-0.38432">
        <ele>436.53852</ele>
        <time>2022-08-30T11:59:11.285Z</time>
      </trkpt>
      <trkpt lat="42.11575" lon="-0.38466">
        <ele>436.20841</ele>
        <time>2022-08-30T11:59:25.953Z</time>
      </trkpt>
      <trkpt lat="42.11505" lon="-0.38509">
        <ele>435.605603</ele>
        <time>2022-08-30T11:59:52.897Z</time>
      </trkpt>
      <trkpt lat="42.11435" lon="-0.38566">
        <ele>434.950836</ele>
        <time>2022-08-30T12:00:21.593Z</time>
      </trkpt>
      <trkpt lat="42.11394" lon="-0.38575">
        <ele>434.600937</ele>
        <time>2022-08-30T12:00:36.223Z</time>
      </trkpt>
      <trkpt lat="42.11303" lon="-0.38583">
        <ele>433.83573</ele>
        <time>2022-08-30T12:01:07.994Z</time>
      </trkpt>
      <trkpt lat="42.11246" lon="-0.38571">
        <ele>433.419791</ele>
        <time>2022-08-30T12:01:28.078Z</time>
      </trkpt>
      <trkpt lat="42.11239" lon="-0.38575">
        <ele>433.372036</ele>
        <time>2022-08-30T12:01:30.708Z</time>
      </trkpt>
      <trkpt lat="42.11176" lon="-0.3852">
        <ele>432.908171</ele>
        <time>2022-08-30T12:01:56.723Z</time>
      </trkpt>
      <trkpt lat="42.11057" lon="-0.38386">
        <ele>432.073275</ele>
        <time>2022-08-30T12:02:52.797Z</time>
      </trkpt>
      <trkpt lat="42.10963" lon="-0.38274">
        <ele>431.283723</ele>
        <time>2022-08-30T12:03:37.405Z</time>
      </trkpt>
      <trkpt lat="42.10931" lon="-0.38251">
        <ele>430.89882</ele>
        <time>2022-08-30T12:03:50.002Z</time>
      </trkpt>
      <trkpt lat="42.1081" lon="-0.38274">
        <ele>429.643386</ele>
        <time>2022-08-30T12:04:31.019Z</time>
      </trkpt>
      <trkpt lat="42.10571" lon="-0.38234">
        <ele>427.784999</ele>
        <time>2022-08-30T12:05:55.483Z</time>
      </trkpt>
      <trkpt lat="42.10534" lon="-0.38231">
        <ele>427.58386</ele>
        <time>2022-08-30T12:06:09.024Z</time>
      </trkpt>
      <trkpt lat="42.1049" lon="-0.38211">
        <ele>427.328531</ele>
        <time>2022-08-30T12:06:25.958Z</time>
      </trkpt>
      <trkpt lat="42.10428" lon="-0.382">
        <ele>426.777688</ele>
        <time>2022-08-30T12:06:38.690Z</time>
      </trkpt>
      <trkpt lat="42.10405" lon="-0.38212">
        <ele>426.51006</ele>
        <time>2022-08-30T12:06:43.660Z</time>
      </trkpt>
      <trkpt lat="42.10403" lon="-0.38214">
        <ele>426.477868</ele>
        <time>2022-08-30T12:06:44.249Z</time>
      </trkpt>
      <trkpt lat="42.10395" lon="-0.38244">
        <ele>426.219738</ele>
        <time>2022-08-30T12:06:48.899Z</time>
      </trkpt>
      <trkpt lat="42.10396" lon="-0.38248">
        <ele>426.193297</ele>
        <time>2022-08-30T12:06:49.382Z</time>
      </trkpt>
      <trkpt lat="42.10392" lon="-0.38272">
        <ele>425.987856</ele>
        <time>2022-08-30T12:06:53.034Z</time>
      </trkpt>
      <trkpt lat="42.10381" lon="-0.38285">
        <ele>425.83261</ele>
        <time>2022-08-30T12:06:55.759Z</time>
      </trkpt>
      <trkpt lat="42.10362" lon="-0.38285">
        <ele>425.625507</ele>
        <time>2022-08-30T12:06:59.374Z</time>
      </trkpt>
      <trkpt lat="42.10275" lon="-0.38282">
        <ele>424.761327</ele>
        <time>2022-08-30T12:07:15.789Z</time>
      </trkpt>
      <trkpt lat="42.0944" lon="-0.38311">
        <ele>417.133819</ele>
        <time>2022-08-30T12:10:03.920Z</time>
      </trkpt>
      <trkpt lat="42.09266" lon="-0.38315">
        <ele>415.836333</ele>
        <time>2022-08-30T12:10:39.246Z</time>
      </trkpt>
      <trkpt lat="42.09156" lon="-0.38321">
        <ele>415.217776</ele>
        <time>2022-08-30T12:11:02.193Z</time>
      </trkpt>
      <trkpt lat="42.08769" lon="-0.38335">
        <ele>413.392048</ele>
        <time>2022-08-30T12:12:23.927Z</time>
      </trkpt>
      <trkpt lat="42.07777" lon="-0.38368">
        <ele>404.924835</ele>
        <time>2022-08-30T12:15:43.427Z</time>
      </trkpt>
      <trkpt lat="42.07682" lon="-0.38373">
        <ele>404.378046</ele>
        <time>2022-08-30T12:16:03.915Z</time>
      </trkpt>
      <trkpt lat="42.07578" lon="-0.38342">
        <ele>404.11895</ele>
        <time>2022-08-30T12:16:27.733Z</time>
      </trkpt>
      <trkpt lat="42.07554" lon="-0.38352">
        <ele>404.138838</ele>
        <time>2022-08-30T12:16:33.565Z</time>
      </trkpt>
      <trkpt lat="42.07537" lon="-0.38366">
        <ele>404.154206</ele>
        <time>2022-08-30T12:16:38.129Z</time>
      </trkpt>
      <trkpt lat="42.0752" lon="-0.38369">
        <ele>404.167102</ele>
        <time>2022-08-30T12:16:42.050Z</time>
      </trkpt>
      <trkpt lat="42.07393" lon="-0.38377">
        <ele>404.628668</ele>
        <time>2022-08-30T12:17:14.162Z</time>
      </trkpt>
      <trkpt lat="42.0724" lon="-0.38447">
        <ele>405.03406</ele>
        <time>2022-08-30T12:17:58.652Z</time>
      </trkpt>
      <trkpt lat="42.07208" lon="-0.38465">
        <ele>404.76652</ele>
        <time>2022-08-30T12:18:06.466Z</time>
      </trkpt>
      <trkpt lat="42.07179" lon="-0.38509">
        <ele>404.430282</ele>
        <time>2022-08-30T12:18:15.417Z</time>
      </trkpt>
      <trkpt lat="42.07161" lon="-0.38512">
        <ele>404.29205</ele>
        <time>2022-08-30T12:18:18.940Z</time>
      </trkpt>
      <trkpt lat="42.07157" lon="-0.38513">
        <ele>404.257108</ele>
        <time>2022-08-30T12:18:19.825Z</time>
      </trkpt>
      <trkpt lat="42.07131" lon="-0.38516">
        <ele>404.055615</ele>
        <time>2022-08-30T12:18:24.831Z</time>
      </trkpt>
      <trkpt lat="42.07124" lon="-0.38517">
        <ele>404.006166</ele>
        <time>2022-08-30T12:18:26.063Z</time>
      </trkpt>
      <trkpt lat="42.0711" lon="-0.3852">
        <ele>403.608909</ele>
        <time>2022-08-30T12:18:28.851Z</time>
      </trkpt>
      <trkpt lat="42.07079" lon="-0.38606">
        <ele>401.63675</ele>
        <time>2022-08-30T12:18:41.575Z</time>
      </trkpt>
      <trkpt lat="42.07064" lon="-0.38624">
        <ele>401.054416</ele>
        <time>2022-08-30T12:18:45.239Z</time>
      </trkpt>
      <trkpt lat="42.07021" lon="-0.38718">
        <ele>398.877323</ele>
        <time>2022-08-30T12:18:59.333Z</time>
      </trkpt>
      <trkpt lat="42.0699" lon="-0.38743">
        <ele>398.482457</ele>
        <time>2022-08-30T12:19:05.764Z</time>
      </trkpt>
      <trkpt lat="42.06963" lon="-0.38761">
        <ele>398.144679</ele>
        <time>2022-08-30T12:19:11.468Z</time>
      </trkpt>
      <trkpt lat="42.06851" lon="-0.38803">
        <ele>396.999395</ele>
        <time>2022-08-30T12:19:35.782Z</time>
      </trkpt>
      <trkpt lat="42.06726" lon="-0.38829">
        <ele>397.60413</ele>
        <time>2022-08-30T12:20:08.256Z</time>
      </trkpt>
      <trkpt lat="42.06714" lon="-0.38843">
        <ele>397.67879</ele>
        <time>2022-08-30T12:20:12.264Z</time>
      </trkpt>
      <trkpt lat="42.06709" lon="-0.38861">
        <ele>397.747728</ele>
        <time>2022-08-30T12:20:16.236Z</time>
      </trkpt>
      <trkpt lat="42.06722" lon="-0.38953">
        <ele>397.840499</ele>
        <time>2022-08-30T12:20:33.463Z</time>
      </trkpt>
      <trkpt lat="42.06711" lon="-0.38972">
        <ele>397.849071</ele>
        <time>2022-08-30T12:20:37.504Z</time>
      </trkpt>
      <trkpt lat="42.0669" lon="-0.38984">
        <ele>397.860375</ele>
        <time>2022-08-30T12:20:43.088Z</time>
      </trkpt>
      <trkpt lat="42.06689" lon="-0.38985">
        <ele>397.860955</ele>
        <time>2022-08-30T12:20:43.333Z</time>
      </trkpt>
      <trkpt lat="42.06686" lon="-0.38987">
        <ele>397.862579</ele>
        <time>2022-08-30T12:20:44.047Z</time>
      </trkpt>
      <trkpt lat="42.06671" lon="-0.38995">
        <ele>397.870483</ele>
        <time>2022-08-30T12:20:47.583Z</time>
      </trkpt>
      <trkpt lat="42.06668" lon="-0.38996">
        <ele>397.871912</ele>
        <time>2022-08-30T12:20:48.662Z</time>
      </trkpt>
      <trkpt lat="42.06628" lon="-0.39022">
        <ele>397.893676</ele>
        <time>2022-08-30T12:21:04.991Z</time>
      </trkpt>
      <trkpt lat="42.06374" lon="-0.39243">
        <ele>395.20446</ele>
        <time>2022-08-30T12:22:49.239Z</time>
      </trkpt>
      <trkpt lat="42.06326" lon="-0.3926">
        <ele>394.713907</ele>
        <time>2022-08-30T12:23:06.394Z</time>
      </trkpt>
      <trkpt lat="42.06079" lon="-0.39316">
        <ele>392.270512</ele>
        <time>2022-08-30T12:24:33.182Z</time>
      </trkpt>
      <trkpt lat="42.06062" lon="-0.39308">
        <ele>392.090938</ele>
        <time>2022-08-30T12:24:39.364Z</time>
      </trkpt>
      <trkpt lat="42.05857" lon="-0.39149">
        <ele>389.916869</ele>
        <time>2022-08-30T12:26:01.027Z</time>
      </trkpt>
      <trkpt lat="42.05527" lon="-0.39146">
        <ele>387.688624</ele>
        <time>2022-08-30T12:27:58.568Z</time>
      </trkpt>
      <trkpt lat="42.05519" lon="-0.39148">
        <ele>387.611106</ele>
        <time>2022-08-30T12:28:01.149Z</time>
      </trkpt>
      <trkpt lat="42.05515" lon="-0.39155">
        <ele>387.547767</ele>
        <time>2022-08-30T12:28:03.570Z</time>
      </trkpt>
      <trkpt lat="42.05511" lon="-0.39245">
        <ele>386.928433</ele>
        <time>2022-08-30T12:28:26.060Z</time>
      </trkpt>
      <trkpt lat="42.05504" lon="-0.39276">
        <ele>386.645347</ele>
        <time>2022-08-30T12:28:34.647Z</time>
      </trkpt>
      <trkpt lat="42.05494" lon="-0.39272">
        <ele>386.520852</ele>
        <time>2022-08-30T12:28:37.757Z</time>
      </trkpt>
      <trkpt lat="42.05444" lon="-0.39221">
        <ele>385.735944</ele>
        <time>2022-08-30T12:28:59.251Z</time>
      </trkpt>
      <trkpt lat="42.05424" lon="-0.39214">
        <ele>385.477325</ele>
        <time>2022-08-30T12:29:06.060Z</time>
      </trkpt>
      <trkpt lat="42.05348" lon="-0.39224">
        <ele>384.654276</ele>
        <time>2022-08-30T12:29:31.820Z</time>
      </trkpt>
      <trkpt lat="42.05314" lon="-0.39266">
        <ele>384.766588</ele>
        <time>2022-08-30T12:29:48.593Z</time>
      </trkpt>
      <trkpt lat="42.05307" lon="-0.3928">
        <ele>384.796262</ele>
        <time>2022-08-30T12:29:53.081Z</time>
      </trkpt>
      <trkpt lat="42.05267" lon="-0.39329">
        <ele>384.929704</ele>
        <time>2022-08-30T12:30:14.394Z</time>
      </trkpt>
      <trkpt lat="42.05257" lon="-0.3933">
        <ele>384.953307</ele>
        <time>2022-08-30T12:30:18.323Z</time>
      </trkpt>
      <trkpt lat="42.05198" lon="-0.39285">
        <ele>385.420435</ele>
        <time>2022-08-30T12:30:46.665Z</time>
      </trkpt>
      <trkpt lat="42.05177" lon="-0.3925">
        <ele>386.037421</ele>
        <time>2022-08-30T12:31:01.282Z</time>
      </trkpt>
      <trkpt lat="42.05163" lon="-0.39237">
        <ele>386.355422</ele>
        <time>2022-08-30T12:31:09.126Z</time>
      </trkpt>
      <trkpt lat="42.05133" lon="-0.39218">
        <ele>386.969502</ele>
        <time>2022-08-30T12:31:25.172Z</time>
      </trkpt>
      <trkpt lat="42.05094" lon="-0.39208">
        <ele>387.697752</ele>
        <time>2022-08-30T12:31:44.858Z</time>
      </trkpt>
      <trkpt lat="42.0508" lon="-0.39218">
        <ele>387.99849</ele>
        <time>2022-08-30T12:31:52.746Z</time>
      </trkpt>
      <trkpt lat="42.05025" lon="-0.3928">
        <ele>389.012669</ele>
        <time>2022-08-30T12:32:26.859Z</time>
      </trkpt>
      <trkpt lat="42.04991" lon="-0.39295">
        <ele>389.444763</ele>
        <time>2022-08-30T12:32:42.713Z</time>
      </trkpt>
      <trkpt lat="42.04985" lon="-0.39317">
        <ele>389.65879</ele>
        <time>2022-08-30T12:32:50.124Z</time>
      </trkpt>
      <trkpt lat="42.0497" lon="-0.39337">
        <ele>389.920636</ele>
        <time>2022-08-30T12:32:59.160Z</time>
      </trkpt>
      <trkpt lat="42.04949" lon="-0.3935">
        <ele>390.197607</ele>
        <time>2022-08-30T12:33:08.588Z</time>
      </trkpt>
      <trkpt lat="42.04909" lon="-0.3935">
        <ele>390.534853</ele>
        <time>2022-08-30T12:33:25.167Z</time>
      </trkpt>
      <trkpt lat="42.04443" lon="-0.39172">
        <ele>386.249271</ele>
        <time>2022-08-30T12:36:11.899Z</time>
      </trkpt>
      <trkpt lat="42.044" lon="-0.39155">
        <ele>385.81923</ele>
        <time>2022-08-30T12:36:27.524Z</time>
      </trkpt>
      <trkpt lat="42.04396" lon="-0.39154">
        <ele>385.785059</ele>
        <time>2022-08-30T12:36:28.836Z</time>
      </trkpt>
      <trkpt lat="42.04384" lon="-0.39149">
        <ele>385.695291</ele>
        <time>2022-08-30T12:36:33.303Z</time>
      </trkpt>
      <trkpt lat="42.04056" lon="-0.39023">
        <ele>383.734549</ele>
        <time>2022-08-30T12:38:33.713Z</time>
      </trkpt>
      <trkpt lat="42.04039" lon="-0.39016">
        <ele>383.845492</ele>
        <time>2022-08-30T12:38:40.655Z</time>
      </trkpt>
      <trkpt lat="42.03346" lon="-0.38752">
        <ele>391.092673</ele>
        <time>2022-08-30T12:43:47.471Z</time>
      </trkpt>
      <trkpt lat="42.03308" lon="-0.3873">
        <ele>391.104977</ele>
        <time>2022-08-30T12:44:03.065Z</time>
      </trkpt>
      <trkpt lat="42.03123" lon="-0.38596">
        <ele>391.203335</ele>
        <time>2022-08-30T12:45:19.409Z</time>
      </trkpt>
      <trkpt lat="42.02875" lon="-0.38417">
        <ele>392.600024</ele>
        <time>2022-08-30T12:47:09.063Z</time>
      </trkpt>
      <trkpt lat="42.02871" lon="-0.38414">
        <ele>392.711732</ele>
        <time>2022-08-30T12:47:11.035Z</time>
      </trkpt>
      <trkpt lat="42.02864" lon="-0.38409">
        <ele>392.922064</ele>
        <time>2022-08-30T12:47:14.769Z</time>
      </trkpt>
      <trkpt lat="42.02862" lon="-0.38407">
        <ele>392.994985</ele>
        <time>2022-08-30T12:47:16.045Z</time>
      </trkpt>
      <trkpt lat="42.02859" lon="-0.38405">
        <ele>393.091269</ele>
        <time>2022-08-30T12:47:17.764Z</time>
      </trkpt>
      <trkpt lat="42.02634" lon="-0.38243">
        <ele>399.900869</ele>
        <time>2022-08-30T12:49:32.040Z</time>
      </trkpt>
      <trkpt lat="42.02619" lon="-0.3824">
        <ele>400.317265</ele>
        <time>2022-08-30T12:49:39.611Z</time>
      </trkpt>
      <trkpt lat="42.02542" lon="-0.38245">
        <ele>402.245515</ele>
        <time>2022-08-30T12:50:17.234Z</time>
      </trkpt>
      <trkpt lat="42.02509" lon="-0.38238">
        <ele>402.729617</ele>
        <time>2022-08-30T12:50:32.239Z</time>
      </trkpt>
      <trkpt lat="42.02477" lon="-0.38228">
        <ele>403.208404</ele>
        <time>2022-08-30T12:50:41.963Z</time>
      </trkpt>
      <trkpt lat="42.02455" lon="-0.38179">
        <ele>403.834639</ele>
        <time>2022-08-30T12:50:54.438Z</time>
      </trkpt>
      <trkpt lat="42.02421" lon="-0.38081">
        <ele>404.818476</ele>
        <time>2022-08-30T12:51:18.075Z</time>
      </trkpt>
      <trkpt lat="42.02418" lon="-0.38065">
        <ele>404.898163</ele>
        <time>2022-08-30T12:51:21.649Z</time>
      </trkpt>
      <trkpt lat="42.0241" lon="-0.38032">
        <ele>405.057008</ele>
        <time>2022-08-30T12:51:28.762Z</time>
      </trkpt>
      <trkpt lat="42.02443" lon="-0.37963">
        <ele>405.439572</ele>
        <time>2022-08-30T12:51:44.308Z</time>
      </trkpt>
      <trkpt lat="42.02443" lon="-0.37955">
        <ele>405.47833</ele>
        <time>2022-08-30T12:51:45.789Z</time>
      </trkpt>
      <trkpt lat="42.02444" lon="-0.3794">
        <ele>405.54697</ele>
        <time>2022-08-30T12:51:48.468Z</time>
      </trkpt>
      <trkpt lat="42.02438" lon="-0.37891">
        <ele>405.776242</ele>
        <time>2022-08-30T12:51:57.476Z</time>
      </trkpt>
      <trkpt lat="42.02424" lon="-0.37886">
        <ele>405.782675</ele>
        <time>2022-08-30T12:52:01.193Z</time>
      </trkpt>
      <trkpt lat="42.02407" lon="-0.37871">
        <ele>405.725713</ele>
        <time>2022-08-30T12:52:06.415Z</time>
      </trkpt>
      <trkpt lat="42.02363" lon="-0.37822">
        <ele>405.566661</ele>
        <time>2022-08-30T12:52:20.292Z</time>
      </trkpt>
      <trkpt lat="42.02337" lon="-0.3779">
        <ele>405.469155</ele>
        <time>2022-08-30T12:52:27.751Z</time>
      </trkpt>
      <trkpt lat="42.02332" lon="-0.37789">
        <ele>405.453381</ele>
        <time>2022-08-30T12:52:29.047Z</time>
      </trkpt>
      <trkpt lat="42.02312" lon="-0.37758">
        <ele>405.369092</ele>
        <time>2022-08-30T12:52:35.438Z</time>
      </trkpt>
      <trkpt lat="42.02293" lon="-0.37708">
        <ele>405.014834</ele>
        <time>2022-08-30T12:52:44.144Z</time>
      </trkpt>
      <trkpt lat="42.02274" lon="-0.37691">
        <ele>404.670464</ele>
        <time>2022-08-30T12:52:48.552Z</time>
      </trkpt>
      <trkpt lat="42.02262" lon="-0.37678">
        <ele>404.44377</ele>
        <time>2022-08-30T12:52:51.578Z</time>
      </trkpt>
      <trkpt lat="42.02248" lon="-0.37656">
        <ele>404.12426</ele>
        <time>2022-08-30T12:52:55.598Z</time>
      </trkpt>
      <trkpt lat="42.02237" lon="-0.3765">
        <ele>403.947704</ele>
        <time>2022-08-30T12:52:57.922Z</time>
      </trkpt>
      <trkpt lat="42.02194" lon="-0.37645">
        <ele>403.291708</ele>
        <time>2022-08-30T12:53:06.157Z</time>
      </trkpt>
      <trkpt lat="42.02167" lon="-0.37633">
        <ele>402.862047</ele>
        <time>2022-08-30T12:53:11.331Z</time>
      </trkpt>
      <trkpt lat="42.01986" lon="-0.37592">
        <ele>399.382769</ele>
        <time>2022-08-30T12:53:44.769Z</time>
      </trkpt>
      <trkpt lat="42.01389" lon="-0.37458">
        <ele>394.056495</ele>
        <time>2022-08-30T12:55:44.068Z</time>
      </trkpt>
      <trkpt lat="42.01372" lon="-0.37455">
        <ele>394.346182</ele>
        <time>2022-08-30T12:55:48.514Z</time>
      </trkpt>
      <trkpt lat="42.00896" lon="-0.37348">
        <ele>402.850308</ele>
        <time>2022-08-30T12:58:30.976Z</time>
      </trkpt>
      <trkpt lat="42.00792" lon="-0.37316">
        <ele>402.059476</ele>
        <time>2022-08-30T12:58:53.175Z</time>
      </trkpt>
      <trkpt lat="42.00734" lon="-0.37292">
        <ele>401.60842</ele>
        <time>2022-08-30T12:59:04.453Z</time>
      </trkpt>
      <trkpt lat="42.00631" lon="-0.37233">
        <ele>397.59225</ele>
        <time>2022-08-30T12:59:23.501Z</time>
      </trkpt>
      <trkpt lat="42.00418" lon="-0.37084">
        <ele>388.261492</ele>
        <time>2022-08-30T13:00:02.292Z</time>
      </trkpt>
      <trkpt lat="42.00416" lon="-0.37083">
        <ele>388.199295</ele>
        <time>2022-08-30T13:00:02.558Z</time>
      </trkpt>
      <trkpt lat="42.00405" lon="-0.37075">
        <ele>387.881577</ele>
        <time>2022-08-30T13:00:04.877Z</time>
      </trkpt>
      <trkpt lat="42.004" lon="-0.37071">
        <ele>387.836435</ele>
        <time>2022-08-30T13:00:05.815Z</time>
      </trkpt>
      <trkpt lat="41.99863" lon="-0.36697">
        <ele>383.841129</ele>
        <time>2022-08-30T13:02:11.354Z</time>
      </trkpt>
      <trkpt lat="41.99808" lon="-0.3666">
        <ele>383.764226</ele>
        <time>2022-08-30T13:02:25.803Z</time>
      </trkpt>
      <trkpt lat="41.99771" lon="-0.36642">
        <ele>383.714983</ele>
        <time>2022-08-30T13:02:35.085Z</time>
      </trkpt>
      <trkpt lat="41.99676" lon="-0.36561">
        <ele>383.720134</ele>
        <time>2022-08-30T13:03:01.295Z</time>
      </trkpt>
      <trkpt lat="41.99643" lon="-0.36556">
        <ele>383.722244</ele>
        <time>2022-08-30T13:03:08.757Z</time>
      </trkpt>
      <trkpt lat="41.99617" lon="-0.36559">
        <ele>383.72387</ele>
        <time>2022-08-30T13:03:14.386Z</time>
      </trkpt>
      <trkpt lat="41.99588" lon="-0.36547">
        <ele>383.484633</ele>
        <time>2022-08-30T13:03:20.810Z</time>
      </trkpt>
      <trkpt lat="41.99479" lon="-0.36497">
        <ele>382.144417</ele>
        <time>2022-08-30T13:03:43.203Z</time>
      </trkpt>
      <trkpt lat="41.9946" lon="-0.36483">
        <ele>381.894926</ele>
        <time>2022-08-30T13:03:47.318Z</time>
      </trkpt>
      <trkpt lat="41.99418" lon="-0.36451">
        <ele>381.08315</ele>
        <time>2022-08-30T13:03:56.386Z</time>
      </trkpt>
      <trkpt lat="41.99392" lon="-0.3643">
        <ele>380.444409</ele>
        <time>2022-08-30T13:04:01.958Z</time>
      </trkpt>
      <trkpt lat="41.99382" lon="-0.36422">
        <ele>380.192815</ele>
        <time>2022-08-30T13:04:04.103Z</time>
      </trkpt>
      <trkpt lat="41.99341" lon="-0.36392">
        <ele>379.186568</ele>
        <time>2022-08-30T13:04:12.585Z</time>
      </trkpt>
      <trkpt lat="41.99324" lon="-0.36385">
        <ele>378.7991</ele>
        <time>2022-08-30T13:04:15.784Z</time>
      </trkpt>
      <trkpt lat="41.99263" lon="-0.36382">
        <ele>377.484228</ele>
        <time>2022-08-30T13:04:26.535Z</time>
      </trkpt>
      <trkpt lat="41.99192" lon="-0.36382">
        <ele>375.80249</ele>
        <time>2022-08-30T13:04:39.542Z</time>
      </trkpt>
      <trkpt lat="41.99186" lon="-0.36382">
        <ele>375.677818</ele>
        <time>2022-08-30T13:04:40.509Z</time>
      </trkpt>
      <trkpt lat="41.99117" lon="-0.36381">
        <ele>374.050111</ele>
        <time>2022-08-30T13:04:52.937Z</time>
      </trkpt>
      <trkpt lat="41.9898" lon="-0.36379">
        <ele>369.926351</ele>
        <time>2022-08-30T13:05:16.940Z</time>
      </trkpt>
      <trkpt lat="41.98673" lon="-0.36379">
        <ele>358.739535</ele>
        <time>2022-08-30T13:06:07.851Z</time>
      </trkpt>
      <trkpt lat="41.98651" lon="-0.36373">
        <ele>357.899878</ele>
        <time>2022-08-30T13:06:11.710Z</time>
      </trkpt>
      <trkpt lat="41.9864" lon="-0.3638">
        <ele>357.479362</ele>
        <time>2022-08-30T13:06:13.604Z</time>
      </trkpt>
      <trkpt lat="41.98546" lon="-0.3638">
        <ele>354.207013</ele>
        <time>2022-08-30T13:06:29.553Z</time>
      </trkpt>
      <trkpt lat="41.98506" lon="-0.36389">
        <ele>353.220338</ele>
        <time>2022-08-30T13:06:36.545Z</time>
      </trkpt>
      <trkpt lat="41.98479" lon="-0.36387">
        <ele>352.575518</ele>
        <time>2022-08-30T13:06:41.183Z</time>
      </trkpt>
      <trkpt lat="41.98123" lon="-0.36398">
        <ele>345.828542</ele>
        <time>2022-08-30T13:07:47.216Z</time>
      </trkpt>
      <trkpt lat="41.98036" lon="-0.364">
        <ele>344.687213</ele>
        <time>2022-08-30T13:08:04.499Z</time>
      </trkpt>
      <trkpt lat="41.9757" lon="-0.36411">
        <ele>342.203377</ele>
        <time>2022-08-30T13:09:41.167Z</time>
      </trkpt>
      <trkpt lat="41.97397" lon="-0.36415">
        <ele>342.213989</ele>
        <time>2022-08-30T13:10:21.116Z</time>
      </trkpt>
      <trkpt lat="41.97208" lon="-0.36419">
        <ele>343.573225</ele>
        <time>2022-08-30T13:11:06.716Z</time>
      </trkpt>
      <trkpt lat="41.96734" lon="-0.36428">
        <ele>351.923049</ele>
        <time>2022-08-30T13:13:41.315Z</time>
      </trkpt>
      <trkpt lat="41.96668" lon="-0.36429">
        <ele>351.866786</ele>
        <time>2022-08-30T13:13:57.034Z</time>
      </trkpt>
      <trkpt lat="41.96652" lon="-0.36429">
        <ele>351.852678</ele>
        <time>2022-08-30T13:14:00.608Z</time>
      </trkpt>
      <trkpt lat="41.96199" lon="-0.36438">
        <ele>346.171188</ele>
        <time>2022-08-30T13:15:26.468Z</time>
      </trkpt>
      <trkpt lat="41.95644" lon="-0.36448">
        <ele>341.562825</ele>
        <time>2022-08-30T13:17:19.831Z</time>
      </trkpt>
      <trkpt lat="41.95644" lon="-0.36439">
        <ele>341.476509</ele>
        <time>2022-08-30T13:17:21.047Z</time>
      </trkpt>
      <trkpt lat="41.95626" lon="-0.36433">
        <ele>341.21964</ele>
        <time>2022-08-30T13:17:24.366Z</time>
      </trkpt>
      <trkpt lat="41.95412" lon="-0.36422">
        <ele>338.708918</ele>
        <time>2022-08-30T13:18:05.137Z</time>
      </trkpt>
      <trkpt lat="41.95245" lon="-0.36435">
        <ele>337.611624</ele>
        <time>2022-08-30T13:18:41.121Z</time>
      </trkpt>
      <trkpt lat="41.95211" lon="-0.36431">
        <ele>337.47009</ele>
        <time>2022-08-30T13:18:48.591Z</time>
      </trkpt>
      <trkpt lat="41.95184" lon="-0.36449">
        <ele>337.345337</ele>
        <time>2022-08-30T13:18:55.042Z</time>
      </trkpt>
      <trkpt lat="41.9514" lon="-0.36449">
        <ele>337.058215</ele>
        <time>2022-08-30T13:19:03.961Z</time>
      </trkpt>
      <trkpt lat="41.94724" lon="-0.36444">
        <ele>331.370511</ele>
        <time>2022-08-30T13:20:23.547Z</time>
      </trkpt>
      <trkpt lat="41.9468" lon="-0.36451">
        <ele>330.836819</ele>
        <time>2022-08-30T13:20:32.086Z</time>
      </trkpt>
      <trkpt lat="41.94664" lon="-0.36461">
        <ele>330.620033</ele>
        <time>2022-08-30T13:20:35.545Z</time>
      </trkpt>
      <trkpt lat="41.9466" lon="-0.36465">
        <ele>330.552859</ele>
        <time>2022-08-30T13:20:36.657Z</time>
      </trkpt>
      <trkpt lat="41.94649" lon="-0.3647">
        <ele>330.418736</ele>
        <time>2022-08-30T13:20:38.846Z</time>
      </trkpt>
      <trkpt lat="41.9463" lon="-0.3646">
        <ele>330.157408</ele>
        <time>2022-08-30T13:20:43.050Z</time>
      </trkpt>
      <trkpt lat="41.94626" lon="-0.36454">
        <ele>330.089538</ele>
        <time>2022-08-30T13:20:44.157Z</time>
      </trkpt>
      <trkpt lat="41.94612" lon="-0.36443">
        <ele>329.90329</ele>
        <time>2022-08-30T13:20:47.315Z</time>
      </trkpt>
      <trkpt lat="41.94571" lon="-0.36435">
        <ele>329.426421</ele>
        <time>2022-08-30T13:20:55.680Z</time>
      </trkpt>
      <trkpt lat="41.94555" lon="-0.36435">
        <ele>329.247372</ele>
        <time>2022-08-30T13:20:58.859Z</time>
      </trkpt>
      <trkpt lat="41.94273" lon="-0.36432">
        <ele>325.738877</ele>
        <time>2022-08-30T13:21:53.596Z</time>
      </trkpt>
      <trkpt lat="41.94223" lon="-0.36448">
        <ele>325.100277</ele>
        <time>2022-08-30T13:22:03.417Z</time>
      </trkpt>
      <trkpt lat="41.94219" lon="-0.36452">
        <ele>325.04396</ele>
        <time>2022-08-30T13:22:04.323Z</time>
      </trkpt>
      <trkpt lat="41.94214" lon="-0.36456">
        <ele>324.969683</ele>
        <time>2022-08-30T13:22:05.494Z</time>
      </trkpt>
      <trkpt lat="41.94193" lon="-0.36453">
        <ele>324.715789</ele>
        <time>2022-08-30T13:22:09.560Z</time>
      </trkpt>
      <trkpt lat="41.94189" lon="-0.36451">
        <ele>324.66454</ele>
        <time>2022-08-30T13:22:10.397Z</time>
      </trkpt>
      <trkpt lat="41.9417" lon="-0.36437">
        <ele>324.401152</ele>
        <time>2022-08-30T13:22:14.647Z</time>
      </trkpt>
      <trkpt lat="41.94128" lon="-0.36427">
        <ele>323.888811</ele>
        <time>2022-08-30T13:22:22.871Z</time>
      </trkpt>
      <trkpt lat="41.94035" lon="-0.36426">
        <ele>323.045032</ele>
        <time>2022-08-30T13:22:41.524Z</time>
      </trkpt>
      <trkpt lat="41.94015" lon="-0.36425">
        <ele>322.904666</ele>
        <time>2022-08-30T13:22:45.711Z</time>
      </trkpt>
      <trkpt lat="41.93969" lon="-0.36439">
        <ele>322.577021</ele>
        <time>2022-08-30T13:22:55.723Z</time>
      </trkpt>
      <trkpt lat="41.93966" lon="-0.36441">
        <ele>322.556078</ele>
        <time>2022-08-30T13:22:56.381Z</time>
      </trkpt>
      <trkpt lat="41.93964" lon="-0.36443">
        <ele>322.535009</ele>
        <time>2022-08-30T13:22:57.030Z</time>
      </trkpt>
      <trkpt lat="41.93955" lon="-0.36445">
        <ele>322.471857</ele>
        <time>2022-08-30T13:22:58.948Z</time>
      </trkpt>
      <trkpt lat="41.93942" lon="-0.36438">
        <ele>322.377603</ele>
        <time>2022-08-30T13:23:01.802Z</time>
      </trkpt>
      <trkpt lat="41.93938" lon="-0.36431">
        <ele>322.328481</ele>
        <time>2022-08-30T13:23:03.287Z</time>
      </trkpt>
      <trkpt lat="41.93898" lon="-0.36419">
        <ele>321.996176</ele>
        <time>2022-08-30T13:23:11.499Z</time>
      </trkpt>
      <trkpt lat="41.93807" lon="-0.36418">
        <ele>321.094512</ele>
        <time>2022-08-30T13:23:29.555Z</time>
      </trkpt>
      <trkpt lat="41.93771" lon="-0.36417">
        <ele>320.729481</ele>
        <time>2022-08-30T13:23:36.782Z</time>
      </trkpt>
      <trkpt lat="41.93718" lon="-0.36416">
        <ele>320.194559</ele>
        <time>2022-08-30T13:23:47.129Z</time>
      </trkpt>
      <trkpt lat="41.93688" lon="-0.36424">
        <ele>319.882328</ele>
        <time>2022-08-30T13:23:53.045Z</time>
      </trkpt>
      <trkpt lat="41.93673" lon="-0.36439">
        <ele>319.690829</ele>
        <time>2022-08-30T13:23:56.683Z</time>
      </trkpt>
      <trkpt lat="41.9366" lon="-0.36449">
        <ele>319.533039</ele>
        <time>2022-08-30T13:23:59.662Z</time>
      </trkpt>
      <trkpt lat="41.93645" lon="-0.36446">
        <ele>319.376696</ele>
        <time>2022-08-30T13:24:02.632Z</time>
      </trkpt>
      <trkpt lat="41.93631" lon="-0.36422">
        <ele>319.144507</ele>
        <time>2022-08-30T13:24:07.042Z</time>
      </trkpt>
      <trkpt lat="41.93631" lon="-0.36412">
        <ele>319.065226</ele>
        <time>2022-08-30T13:24:08.553Z</time>
      </trkpt>
      <trkpt lat="41.93627" lon="-0.36384">
        <ele>318.847517</ele>
        <time>2022-08-30T13:24:12.764Z</time>
      </trkpt>
      <trkpt lat="41.93618" lon="-0.36364">
        <ele>318.663829</ele>
        <time>2022-08-30T13:24:16.328Z</time>
      </trkpt>
      <trkpt lat="41.93595" lon="-0.36309">
        <ele>318.487935</ele>
        <time>2022-08-30T13:24:25.866Z</time>
      </trkpt>
      <trkpt lat="41.93209" lon="-0.35077">
        <ele>317.080847</ele>
        <time>2022-08-30T13:28:03.925Z</time>
      </trkpt>
      <trkpt lat="41.93176" lon="-0.34987">
        <ele>316.896759</ele>
        <time>2022-08-30T13:28:19.828Z</time>
      </trkpt>
      <trkpt lat="41.93136" lon="-0.34904">
        <ele>316.633369</ele>
        <time>2022-08-30T13:28:35.405Z</time>
      </trkpt>
      <trkpt lat="41.93107" lon="-0.34853">
        <ele>316.463193</ele>
        <time>2022-08-30T13:28:45.481Z</time>
      </trkpt>
      <trkpt lat="41.93048" lon="-0.34771">
        <ele>316.275673</ele>
        <time>2022-08-30T13:29:03.825Z</time>
      </trkpt>
      <trkpt lat="41.91993" lon="-0.33496">
        <ele>314.487451</ele>
        <time>2022-08-30T13:34:14.269Z</time>
      </trkpt>
      <trkpt lat="41.91163" lon="-0.32495">
        <ele>312.896954</ele>
        <time>2022-08-30T13:38:17.530Z</time>
      </trkpt>
      <trkpt lat="41.90336" lon="-0.31497">
        <ele>312.814668</ele>
        <time>2022-08-30T13:42:24.563Z</time>
      </trkpt>
      <trkpt lat="41.90315" lon="-0.31473">
        <ele>312.818904</ele>
        <time>2022-08-30T13:42:31.050Z</time>
      </trkpt>
      <trkpt lat="41.90296" lon="-0.3145">
        <ele>312.82262</ele>
        <time>2022-08-30T13:42:36.802Z</time>
      </trkpt>
      <trkpt lat="41.89413" lon="-0.30381">
        <ele>311.551226</ele>
        <time>2022-08-30T13:46:57.121Z</time>
      </trkpt>
      <trkpt lat="41.89298" lon="-0.30216">
        <ele>311.342872</ele>
        <time>2022-08-30T13:47:34.486Z</time>
      </trkpt>
      <trkpt lat="41.88882" lon="-0.2952">
        <ele>309.588301</ele>
        <time>2022-08-30T13:49:57.739Z</time>
      </trkpt>
      <trkpt lat="41.88299" lon="-0.28544">
        <ele>300.726435</ele>
        <time>2022-08-30T13:53:03.517Z</time>
      </trkpt>
      <trkpt lat="41.88238" lon="-0.28458">
        <ele>299.745023</ele>
        <time>2022-08-30T13:53:20.961Z</time>
      </trkpt>
      <trkpt lat="41.88176" lon="-0.28402">
        <ele>298.821176</ele>
        <time>2022-08-30T13:53:35.374Z</time>
      </trkpt>
      <trkpt lat="41.88136" lon="-0.28373">
        <ele>298.177678</ele>
        <time>2022-08-30T13:53:43.940Z</time>
      </trkpt>
      <trkpt lat="41.88009" lon="-0.28281">
        <ele>296.39964</ele>
        <time>2022-08-30T13:54:11.609Z</time>
      </trkpt>
      <trkpt lat="41.87837" lon="-0.28158">
        <ele>294.848262</ele>
        <time>2022-08-30T13:54:52.058Z</time>
      </trkpt>
      <trkpt lat="41.87808" lon="-0.28146">
        <ele>294.596177</ele>
        <time>2022-08-30T13:54:58.239Z</time>
      </trkpt>
      <trkpt lat="41.87784" lon="-0.28147">
        <ele>294.392383</ele>
        <time>2022-08-30T13:55:03.139Z</time>
      </trkpt>
      <trkpt lat="41.87778" lon="-0.28149">
        <ele>294.345934</ele>
        <time>2022-08-30T13:55:04.269Z</time>
      </trkpt>
      <trkpt lat="41.87762" lon="-0.28146">
        <ele>294.210151</ele>
        <time>2022-08-30T13:55:07.524Z</time>
      </trkpt>
      <trkpt lat="41.87748" lon="-0.28125">
        <ele>294.030191</ele>
        <time>2022-08-30T13:55:11.802Z</time>
      </trkpt>
      <trkpt lat="41.87746" lon="-0.28117">
        <ele>293.983935</ele>
        <time>2022-08-30T13:55:12.892Z</time>
      </trkpt>
      <trkpt lat="41.87733" lon="-0.28091">
        <ele>293.780997</ele>
        <time>2022-08-30T13:55:17.494Z</time>
      </trkpt>
      <trkpt lat="41.87703" lon="-0.2806">
        <ele>293.365033</ele>
        <time>2022-08-30T13:55:24.887Z</time>
      </trkpt>
      <trkpt lat="41.87298" lon="-0.2777">
        <ele>288.530863</ele>
        <time>2022-08-30T13:56:55.535Z</time>
      </trkpt>
      <trkpt lat="41.87219" lon="-0.27713">
        <ele>288.118429</ele>
        <time>2022-08-30T13:57:13.744Z</time>
      </trkpt>
      <trkpt lat="41.86438" lon="-0.27154">
        <ele>287.526066</ele>
        <time>2022-08-30T14:00:30.736Z</time>
      </trkpt>
      <trkpt lat="41.86085" lon="-0.26898">
        <ele>283.671105</ele>
        <time>2022-08-30T14:01:52.315Z</time>
      </trkpt>
      <trkpt lat="41.86042" lon="-0.2686">
        <ele>282.597987</ele>
        <time>2022-08-30T14:02:01.229Z</time>
      </trkpt>
      <trkpt lat="41.86031" lon="-0.2685">
        <ele>282.315778</ele>
        <time>2022-08-30T14:02:03.550Z</time>
      </trkpt>
      <trkpt lat="41.85982" lon="-0.26796">
        <ele>280.874168</ele>
        <time>2022-08-30T14:02:14.277Z</time>
      </trkpt>
      <trkpt lat="41.85911" lon="-0.26701">
        <ele>278.284788</ele>
        <time>2022-08-30T14:02:31.458Z</time>
      </trkpt>
      <trkpt lat="41.85865" lon="-0.26632">
        <ele>276.929993</ele>
        <time>2022-08-30T14:02:44.412Z</time>
      </trkpt>
      <trkpt lat="41.85843" lon="-0.26598">
        <ele>277.067163</ele>
        <time>2022-08-30T14:02:51.377Z</time>
      </trkpt>
      <trkpt lat="41.85487" lon="-0.26069">
        <ele>279.688036</ele>
        <time>2022-08-30T14:05:08.382Z</time>
      </trkpt>
      <trkpt lat="41.85415" lon="-0.25982">
        <ele>279.929014</ele>
        <time>2022-08-30T14:05:31.440Z</time>
      </trkpt>
      <trkpt lat="41.85356" lon="-0.25932">
        <ele>279.849023</ele>
        <time>2022-08-30T14:05:46.606Z</time>
      </trkpt>
      <trkpt lat="41.84759" lon="-0.25495">
        <ele>274.832822</ele>
        <time>2022-08-30T14:08:04.688Z</time>
      </trkpt>
      <trkpt lat="41.8469" lon="-0.25459">
        <ele>274.391565</ele>
        <time>2022-08-30T14:08:19.922Z</time>
      </trkpt>
      <trkpt lat="41.84643" lon="-0.25446">
        <ele>274.116323</ele>
        <time>2022-08-30T14:08:30.070Z</time>
      </trkpt>
      <trkpt lat="41.84368" lon="-0.25405">
        <ele>272.738682</ele>
        <time>2022-08-30T14:09:27.777Z</time>
      </trkpt>
      <trkpt lat="41.84334" lon="-0.25393">
        <ele>272.698552</ele>
        <time>2022-08-30T14:09:35.045Z</time>
      </trkpt>
      <trkpt lat="41.84306" lon="-0.25375">
        <ele>272.661944</ele>
        <time>2022-08-30T14:09:41.956Z</time>
      </trkpt>
      <trkpt lat="41.84273" lon="-0.25355">
        <ele>272.620648</ele>
        <time>2022-08-30T14:09:50.104Z</time>
      </trkpt>
      <trkpt lat="41.84262" lon="-0.25357">
        <ele>272.607993</ele>
        <time>2022-08-30T14:09:52.698Z</time>
      </trkpt>
      <trkpt lat="41.84247" lon="-0.25349">
        <ele>272.589242</ele>
        <time>2022-08-30T14:09:56.211Z</time>
      </trkpt>
      <trkpt lat="41.8424" lon="-0.25328">
        <ele>272.568952</ele>
        <time>2022-08-30T14:10:00.484Z</time>
      </trkpt>
      <trkpt lat="41.84241" lon="-0.25316">
        <ele>272.567126</ele>
        <time>2022-08-30T14:10:02.254Z</time>
      </trkpt>
      <trkpt lat="41.8423" lon="-0.25273">
        <ele>272.736223</ele>
        <time>2022-08-30T14:10:10.310Z</time>
      </trkpt>
      <trkpt lat="41.84219" lon="-0.25237">
        <ele>272.877682</ele>
        <time>2022-08-30T14:10:17.374Z</time>
      </trkpt>
      <trkpt lat="41.84205" lon="-0.25192">
        <ele>273.057975</ele>
        <time>2022-08-30T14:10:26.397Z</time>
      </trkpt>
      <trkpt lat="41.84198" lon="-0.25169">
        <ele>273.148461</ele>
        <time>2022-08-30T14:10:30.708Z</time>
      </trkpt>
      <trkpt lat="41.84108" lon="-0.24885">
        <ele>274.984585</ele>
        <time>2022-08-30T14:11:31.428Z</time>
      </trkpt>
      <trkpt lat="41.84084" lon="-0.24816">
        <ele>275.396017</ele>
        <time>2022-08-30T14:11:47.624Z</time>
      </trkpt>
      <trkpt lat="41.84074" lon="-0.24789">
        <ele>275.552732</ele>
        <time>2022-08-30T14:11:53.905Z</time>
      </trkpt>
      <trkpt lat="41.84065" lon="-0.24771">
        <ele>275.664045</ele>
        <time>2022-08-30T14:11:58.366Z</time>
      </trkpt>
      <trkpt lat="41.84034" lon="-0.24702">
        <ele>276.073032</ele>
        <time>2022-08-30T14:12:14.200Z</time>
      </trkpt>
      <trkpt lat="41.83881" lon="-0.24402">
        <ele>275.734483</ele>
        <time>2022-08-30T14:13:12.547Z</time>
      </trkpt>
      <trkpt lat="41.83842" lon="-0.24307">
        <ele>275.445427</ele>
        <time>2022-08-30T14:13:29.466Z</time>
      </trkpt>
      <trkpt lat="41.83821" lon="-0.24218">
        <ele>275.213255</ele>
        <time>2022-08-30T14:13:44.343Z</time>
      </trkpt>
      <trkpt lat="41.83734" lon="-0.2366">
        <ele>274.173761</ele>
        <time>2022-08-30T14:15:15.364Z</time>
      </trkpt>
      <trkpt lat="41.83725" lon="-0.23621">
        <ele>274.146128</ele>
        <time>2022-08-30T14:15:22.211Z</time>
      </trkpt>
      <trkpt lat="41.83692" lon="-0.23523">
        <ele>274.127445</ele>
        <time>2022-08-30T14:15:40.784Z</time>
      </trkpt>
      <trkpt lat="41.83646" lon="-0.23435">
        <ele>274.25504</ele>
        <time>2022-08-30T14:15:59.629Z</time>
      </trkpt>
      <trkpt lat="41.83429" lon="-0.23172">
        <ele>274.581726</ele>
        <time>2022-08-30T14:17:05.955Z</time>
      </trkpt>
      <trkpt lat="41.83283" lon="-0.23001">
        <ele>274.679949</ele>
        <time>2022-08-30T14:17:49.410Z</time>
      </trkpt>
      <trkpt lat="41.83241" lon="-0.22958">
        <ele>274.687891</ele>
        <time>2022-08-30T14:18:01.085Z</time>
      </trkpt>
      <trkpt lat="41.82944" lon="-0.22699">
        <ele>274.536094</ele>
        <time>2022-08-30T14:19:19.968Z</time>
      </trkpt>
      <trkpt lat="41.8285" lon="-0.22606">
        <ele>274.198807</ele>
        <time>2022-08-30T14:19:44.800Z</time>
      </trkpt>
      <trkpt lat="41.82795" lon="-0.22542">
        <ele>273.769487</ele>
        <time>2022-08-30T14:19:59.887Z</time>
      </trkpt>
      <trkpt lat="41.8274" lon="-0.22466">
        <ele>273.293282</ele>
        <time>2022-08-30T14:20:16.081Z</time>
      </trkpt>
      <trkpt lat="41.82584" lon="-0.22216">
        <ele>271.556666</ele>
        <time>2022-08-30T14:21:05.336Z</time>
      </trkpt>
      <trkpt lat="41.82538" lon="-0.22154">
        <ele>271.193323</ele>
        <time>2022-08-30T14:21:18.976Z</time>
      </trkpt>
      <trkpt lat="41.82478" lon="-0.22086">
        <ele>270.824125</ele>
        <time>2022-08-30T14:21:35.858Z</time>
      </trkpt>
      <trkpt lat="41.82223" lon="-0.2184">
        <ele>269.66045</ele>
        <time>2022-08-30T14:22:42.907Z</time>
      </trkpt>
      <trkpt lat="41.82147" lon="-0.21758">
        <ele>268.8225</ele>
        <time>2022-08-30T14:23:02.581Z</time>
      </trkpt>
      <trkpt lat="41.82049" lon="-0.21639">
        <ele>267.578633</ele>
        <time>2022-08-30T14:23:28.545Z</time>
      </trkpt>
      <trkpt lat="41.81961" lon="-0.2152">
        <ele>266.386072</ele>
        <time>2022-08-30T14:23:53.440Z</time>
      </trkpt>
      <trkpt lat="41.81868" lon="-0.21375">
        <ele>265.263942</ele>
        <time>2022-08-30T14:24:22.535Z</time>
      </trkpt>
      <trkpt lat="41.81807" lon="-0.21273">
        <ele>264.511501</ele>
        <time>2022-08-30T14:24:42.264Z</time>
      </trkpt>
      <trkpt lat="41.81665" lon="-0.21008">
        <ele>263.235498</ele>
        <time>2022-08-30T14:25:31.752Z</time>
      </trkpt>
      <trkpt lat="41.81644" lon="-0.20962">
        <ele>263.16615</ele>
        <time>2022-08-30T14:25:41.257Z</time>
      </trkpt>
      <trkpt lat="41.81632" lon="-0.20916">
        <ele>263.12199</ele>
        <time>2022-08-30T14:25:50.308Z</time>
      </trkpt>
      <trkpt lat="41.81624" lon="-0.20864">
        <ele>263.966587</ele>
        <time>2022-08-30T14:26:01.251Z</time>
      </trkpt>
      <trkpt lat="41.81623" lon="-0.20811">
        <ele>264.808781</ele>
        <time>2022-08-30T14:26:13.437Z</time>
      </trkpt>
      <trkpt lat="41.81629" lon="-0.2076">
        <ele>265.635768</ele>
        <time>2022-08-30T14:26:26.588Z</time>
      </trkpt>
      <trkpt lat="41.81641" lon="-0.20711">
        <ele>266.465719</ele>
        <time>2022-08-30T14:26:40.264Z</time>
      </trkpt>
      <trkpt lat="41.81762" lon="-0.20328">
        <ele>277.51156</ele>
        <time>2022-08-30T14:28:45.616Z</time>
      </trkpt>
      <trkpt lat="41.81773" lon="-0.2027">
        <ele>279.232651</ele>
        <time>2022-08-30T14:29:04.356Z</time>
      </trkpt>
      <trkpt lat="41.81775" lon="-0.20209">
        <ele>281.193278</ele>
        <time>2022-08-30T14:29:24.264Z</time>
      </trkpt>
      <trkpt lat="41.81768" lon="-0.20148">
        <ele>283.473237</ele>
        <time>2022-08-30T14:29:45.565Z</time>
      </trkpt>
      <trkpt lat="41.81748" lon="-0.20075">
        <ele>286.325205</ele>
        <time>2022-08-30T14:30:13.177Z</time>
      </trkpt>
      <trkpt lat="41.81701" lon="-0.19939">
        <ele>291.737327</ele>
        <time>2022-08-30T14:31:07.879Z</time>
      </trkpt>
      <trkpt lat="41.8165" lon="-0.19823">
        <ele>296.418041</ele>
        <time>2022-08-30T14:31:54.887Z</time>
      </trkpt>
      <trkpt lat="41.81596" lon="-0.19722">
        <ele>299.058113</ele>
        <time>2022-08-30T14:32:30.318Z</time>
      </trkpt>
      <trkpt lat="41.81551" lon="-0.19651">
        <ele>300.545646</ele>
        <time>2022-08-30T14:32:52.185Z</time>
      </trkpt>
      <trkpt lat="41.81469" lon="-0.19546">
        <ele>301.354697</ele>
        <time>2022-08-30T14:33:21.139Z</time>
      </trkpt>
      <trkpt lat="41.81386" lon="-0.1946">
        <ele>301.156752</ele>
        <time>2022-08-30T14:33:43.088Z</time>
      </trkpt>
      <trkpt lat="41.80942" lon="-0.19086">
        <ele>292.450358</ele>
        <time>2022-08-30T14:35:21.017Z</time>
      </trkpt>
      <trkpt lat="41.80886" lon="-0.19074">
        <ele>291.690275</ele>
        <time>2022-08-30T14:35:31.930Z</time>
      </trkpt>
      <trkpt lat="41.80874" lon="-0.19072">
        <ele>291.542867</ele>
        <time>2022-08-30T14:35:34.369Z</time>
      </trkpt>
      <trkpt lat="41.80864" lon="-0.1907">
        <ele>291.4301</ele>
        <time>2022-08-30T14:35:36.269Z</time>
      </trkpt>
      <trkpt lat="41.80848" lon="-0.19056">
        <ele>291.207311</ele>
        <time>2022-08-30T14:35:39.963Z</time>
      </trkpt>
      <trkpt lat="41.80841" lon="-0.19033">
        <ele>290.984842</ele>
        <time>2022-08-30T14:35:43.695Z</time>
      </trkpt>
      <trkpt lat="41.80844" lon="-0.1901">
        <ele>290.778995</ele>
        <time>2022-08-30T14:35:47.103Z</time>
      </trkpt>
      <trkpt lat="41.80854" lon="-0.18993">
        <ele>290.587651</ele>
        <time>2022-08-30T14:35:50.315Z</time>
      </trkpt>
      <trkpt lat="41.80878" lon="-0.18954">
        <ele>290.144113</ele>
        <time>2022-08-30T14:35:57.762Z</time>
      </trkpt>
      <trkpt lat="41.8089" lon="-0.18916">
        <ele>289.875303</ele>
        <time>2022-08-30T14:36:03.729Z</time>
      </trkpt>
      <trkpt lat="41.80894" lon="-0.18778">
        <ele>289.179445</ele>
        <time>2022-08-30T14:36:24.358Z</time>
      </trkpt>
      <trkpt lat="41.80884" lon="-0.18633">
        <ele>289.251938</ele>
        <time>2022-08-30T14:36:47.825Z</time>
      </trkpt>
      <trkpt lat="41.80865" lon="-0.18495">
        <ele>290.273228</ele>
        <time>2022-08-30T14:37:17.522Z</time>
      </trkpt>
      <trkpt lat="41.80828" lon="-0.18285">
        <ele>292.999665</ele>
        <time>2022-08-30T14:38:09.854Z</time>
      </trkpt>
      <trkpt lat="41.80782" lon="-0.18132">
        <ele>294.416437</ele>
        <time>2022-08-30T14:38:46.063Z</time>
      </trkpt>
      <trkpt lat="41.80582" lon="-0.17619">
        <ele>297.801103</ele>
        <time>2022-08-30T14:40:34.438Z</time>
      </trkpt>
      <trkpt lat="41.80499" lon="-0.1741">
        <ele>300.40074</ele>
        <time>2022-08-30T14:41:28.879Z</time>
      </trkpt>
      <trkpt lat="41.8037" lon="-0.1708">
        <ele>303.97204</ele>
        <time>2022-08-30T14:42:50.284Z</time>
      </trkpt>
      <trkpt lat="41.80302" lon="-0.16929">
        <ele>304.846186</ele>
        <time>2022-08-30T14:43:22.183Z</time>
      </trkpt>
      <trkpt lat="41.80289" lon="-0.16908">
        <ele>304.83249</ele>
        <time>2022-08-30T14:43:26.996Z</time>
      </trkpt>
      <trkpt lat="41.80266" lon="-0.16878">
        <ele>304.8119</ele>
        <time>2022-08-30T14:43:33.999Z</time>
      </trkpt>
      <trkpt lat="41.80231" lon="-0.16839">
        <ele>304.782315</ele>
        <time>2022-08-30T14:43:44.047Z</time>
      </trkpt>
      <trkpt lat="41.80192" lon="-0.16806">
        <ele>304.752209</ele>
        <time>2022-08-30T14:43:54.218Z</time>
      </trkpt>
      <trkpt lat="41.80182" lon="-0.16799">
        <ele>304.744904</ele>
        <time>2022-08-30T14:43:56.678Z</time>
      </trkpt>
      <trkpt lat="41.80066" lon="-0.1673">
        <ele>304.108086</ele>
        <time>2022-08-30T14:44:23.320Z</time>
      </trkpt>
      <trkpt lat="41.79983" lon="-0.16684">
        <ele>303.511842</ele>
        <time>2022-08-30T14:44:41.405Z</time>
      </trkpt>
      <trkpt lat="41.79898" lon="-0.16636">
        <ele>302.631569</ele>
        <time>2022-08-30T14:44:59.677Z</time>
      </trkpt>
      <trkpt lat="41.79738" lon="-0.16536">
        <ele>301.281333</ele>
        <time>2022-08-30T14:45:35.213Z</time>
      </trkpt>
      <trkpt lat="41.79628" lon="-0.16483">
        <ele>300.78741</ele>
        <time>2022-08-30T14:46:00.443Z</time>
      </trkpt>
      <trkpt lat="41.79573" lon="-0.16457">
        <ele>300.708944</ele>
        <time>2022-08-30T14:46:13.137Z</time>
      </trkpt>
      <trkpt lat="41.79537" lon="-0.16452">
        <ele>300.659523</ele>
        <time>2022-08-30T14:46:21.167Z</time>
      </trkpt>
      <trkpt lat="41.79478" lon="-0.16445">
        <ele>300.505044</ele>
        <time>2022-08-30T14:46:34.239Z</time>
      </trkpt>
      <trkpt lat="41.79385" lon="-0.16406">
        <ele>300.115564</ele>
        <time>2022-08-30T14:46:55.042Z</time>
      </trkpt>
      <trkpt lat="41.79364" lon="-0.16383">
        <ele>300.009783</ele>
        <time>2022-08-30T14:47:00.560Z</time>
      </trkpt>
      <trkpt lat="41.79343" lon="-0.16391">
        <ele>299.923097</ele>
        <time>2022-08-30T14:47:05.139Z</time>
      </trkpt>
      <trkpt lat="41.7932" lon="-0.16383">
        <ele>299.791957</ele>
        <time>2022-08-30T14:47:10.285Z</time>
      </trkpt>
      <trkpt lat="41.79254" lon="-0.16346">
        <ele>299.367916</ele>
        <time>2022-08-30T14:47:25.652Z</time>
      </trkpt>
      <trkpt lat="41.79173" lon="-0.16357">
        <ele>298.886485</ele>
        <time>2022-08-30T14:47:43.108Z</time>
      </trkpt>
      <trkpt lat="41.79148" lon="-0.16359">
        <ele>298.809789</ele>
        <time>2022-08-30T14:47:48.749Z</time>
      </trkpt>
      <trkpt lat="41.79121" lon="-0.16341">
        <ele>298.771262</ele>
        <time>2022-08-30T14:47:55.361Z</time>
      </trkpt>
      <trkpt lat="41.79027" lon="-0.16125">
        <ele>298.540837</ele>
        <time>2022-08-30T14:48:38.632Z</time>
      </trkpt>
      <trkpt lat="41.78983" lon="-0.16154">
        <ele>298.486364</ele>
        <time>2022-08-30T14:48:49.563Z</time>
      </trkpt>
      <trkpt lat="41.78968" lon="-0.16163">
        <ele>298.468385</ele>
        <time>2022-08-30T14:48:53.132Z</time>
      </trkpt>
      <trkpt lat="41.78886" lon="-0.16197">
        <ele>298.256385</ele>
        <time>2022-08-30T14:49:11.716Z</time>
      </trkpt>
      <trkpt lat="41.78854" lon="-0.16209">
        <ele>298.062412</ele>
        <time>2022-08-30T14:49:18.698Z</time>
      </trkpt>
      <trkpt lat="41.78774" lon="-0.16257">
        <ele>297.54537</ele>
        <time>2022-08-30T14:49:36.603Z</time>
      </trkpt>
      <trkpt lat="41.78618" lon="-0.16351">
        <ele>296.388187</ele>
        <time>2022-08-30T14:50:11.458Z</time>
      </trkpt>
      <trkpt lat="41.78515" lon="-0.1642">
        <ele>295.735696</ele>
        <time>2022-08-30T14:50:35.377Z</time>
      </trkpt>
      <trkpt lat="41.78398" lon="-0.165">
        <ele>295.089319</ele>
        <time>2022-08-30T14:51:03.073Z</time>
      </trkpt>
      <trkpt lat="41.77577" lon="-0.17054">
        <ele>290.615978</ele>
        <time>2022-08-30T14:54:15.486Z</time>
      </trkpt>
      <trkpt lat="41.77522" lon="-0.16955">
        <ele>290.194889</ele>
        <time>2022-08-30T14:54:34.825Z</time>
      </trkpt>
      <trkpt lat="41.77494" lon="-0.16919">
        <ele>290.014387</ele>
        <time>2022-08-30T14:54:43.065Z</time>
      </trkpt>
      <trkpt lat="41.7736" lon="-0.16862">
        <ele>289.365978</ele>
        <time>2022-08-30T14:55:12.828Z</time>
      </trkpt>
      <trkpt lat="41.77265" lon="-0.16848">
        <ele>288.908236</ele>
        <time>2022-08-30T14:55:32.657Z</time>
      </trkpt>
      <trkpt lat="41.76984" lon="-0.1681">
        <ele>287.55472</ele>
        <time>2022-08-30T14:56:31.813Z</time>
      </trkpt>
      <trkpt lat="41.76709" lon="-0.16775">
        <ele>286.554643</ele>
        <time>2022-08-30T14:57:30.831Z</time>
      </trkpt>
      <trkpt lat="41.76611" lon="-0.16761">
        <ele>286.173792</ele>
        <time>2022-08-30T14:57:51.522Z</time>
      </trkpt>
      <trkpt lat="41.76556" lon="-0.16753">
        <ele>285.923382</ele>
        <time>2022-08-30T14:58:03.160Z</time>
      </trkpt>
      <trkpt lat="41.76523" lon="-0.16741">
        <ele>285.761362</ele>
        <time>2022-08-30T14:58:10.384Z</time>
      </trkpt>
      <trkpt lat="41.75596" lon="-0.16187">
        <ele>281.009877</ele>
        <time>2022-08-30T15:01:43.323Z</time>
      </trkpt>
      <trkpt lat="41.74722" lon="-0.15667">
        <ele>276.711091</ele>
        <time>2022-08-30T15:05:04.698Z</time>
      </trkpt>
      <trkpt lat="41.74552" lon="-0.15567">
        <ele>275.542508</ele>
        <time>2022-08-30T15:05:42.950Z</time>
      </trkpt>
      <trkpt lat="41.74515" lon="-0.15545">
        <ele>275.251828</ele>
        <time>2022-08-30T15:05:51.415Z</time>
      </trkpt>
      <trkpt lat="41.74379" lon="-0.15463">
        <ele>273.586826</ele>
        <time>2022-08-30T15:06:21.236Z</time>
      </trkpt>
      <trkpt lat="41.74362" lon="-0.15452">
        <ele>273.318888</ele>
        <time>2022-08-30T15:06:24.757Z</time>
      </trkpt>
      <trkpt lat="41.74282" lon="-0.1536">
        <ele>271.759238</ele>
        <time>2022-08-30T15:06:44.297Z</time>
      </trkpt>
      <trkpt lat="41.74259" lon="-0.15367">
        <ele>271.368649</ele>
        <time>2022-08-30T15:06:48.841Z</time>
      </trkpt>
      <trkpt lat="41.7424" lon="-0.15362">
        <ele>271.05454</ele>
        <time>2022-08-30T15:06:52.443Z</time>
      </trkpt>
      <trkpt lat="41.74147" lon="-0.15295">
        <ele>269.313385</ele>
        <time>2022-08-30T15:07:13.534Z</time>
      </trkpt>
      <trkpt lat="41.74116" lon="-0.1529">
        <ele>269.086671</ele>
        <time>2022-08-30T15:07:19.800Z</time>
      </trkpt>
      <trkpt lat="41.74056" lon="-0.15311">
        <ele>268.642392</ele>
        <time>2022-08-30T15:07:33.037Z</time>
      </trkpt>
      <trkpt lat="41.74032" lon="-0.15326">
        <ele>268.44708</ele>
        <time>2022-08-30T15:07:38.935Z</time>
      </trkpt>
      <trkpt lat="41.73991" lon="-0.1537">
        <ele>268.069164</ele>
        <time>2022-08-30T15:07:50.558Z</time>
      </trkpt>
      <trkpt lat="41.73964" lon="-0.15373">
        <ele>267.904439</ele>
        <time>2022-08-30T15:07:56.410Z</time>
      </trkpt>
      <trkpt lat="41.73905" lon="-0.1535">
        <ele>267.544217</ele>
        <time>2022-08-30T15:08:10.070Z</time>
      </trkpt>
      <trkpt lat="41.73885" lon="-0.15348">
        <ele>267.429601</ele>
        <time>2022-08-30T15:08:14.422Z</time>
      </trkpt>
      <trkpt lat="41.73844" lon="-0.15351">
        <ele>267.189482</ele>
        <time>2022-08-30T15:08:23.422Z</time>
      </trkpt>
      <trkpt lat="41.73814" lon="-0.15368">
        <ele>267.000047</ele>
        <time>2022-08-30T15:08:30.374Z</time>
      </trkpt>
      <trkpt lat="41.73747" lon="-0.15371">
        <ele>265.995999</ele>
        <time>2022-08-30T15:08:44.078Z</time>
      </trkpt>
      <trkpt lat="41.73692" lon="-0.15359">
        <ele>265.090505</ele>
        <time>2022-08-30T15:08:55.246Z</time>
      </trkpt>
      <trkpt lat="41.73669" lon="-0.15375">
        <ele>264.668854</ele>
        <time>2022-08-30T15:09:00.333Z</time>
      </trkpt>
      <trkpt lat="41.73547" lon="-0.1533">
        <ele>261.668607</ele>
        <time>2022-08-30T15:09:23.925Z</time>
      </trkpt>
      <trkpt lat="41.73484" lon="-0.1532">
        <ele>259.931441</ele>
        <time>2022-08-30T15:09:35.410Z</time>
      </trkpt>
      <trkpt lat="41.73443" lon="-0.15332">
        <ele>258.749912</ele>
        <time>2022-08-30T15:09:43.037Z</time>
      </trkpt>
      <trkpt lat="41.73437" lon="-0.15429">
        <ele>256.585713</ele>
        <time>2022-08-30T15:09:56.244Z</time>
      </trkpt>
      <trkpt lat="41.73421" lon="-0.15502">
        <ele>254.9088</ele>
        <time>2022-08-30T15:10:06.461Z</time>
      </trkpt>
      <trkpt lat="41.73425" lon="-0.15883">
        <ele>245.769618</ele>
        <time>2022-08-30T15:10:57.552Z</time>
      </trkpt>
      <trkpt lat="41.73473" lon="-0.16147">
        <ele>239.470753</ele>
        <time>2022-08-30T15:11:33.137Z</time>
      </trkpt>
      <trkpt lat="41.73482" lon="-0.16192">
        <ele>238.560471</ele>
        <time>2022-08-30T15:11:39.616Z</time>
      </trkpt>
      <trkpt lat="41.73499" lon="-0.16294">
        <ele>237.073902</ele>
        <time>2022-08-30T15:11:55.231Z</time>
      </trkpt>
      <trkpt lat="41.73525" lon="-0.16574">
        <ele>236.765568</ele>
        <time>2022-08-30T15:12:44.353Z</time>
      </trkpt>
      <trkpt lat="41.73426" lon="-0.16575">
        <ele>237.038403</ele>
        <time>2022-08-30T15:13:22.882Z</time>
      </trkpt>
      <trkpt lat="41.73358" lon="-0.16568">
        <ele>237.281635</ele>
        <time>2022-08-30T15:13:49.581Z</time>
      </trkpt>
      <trkpt lat="41.73264" lon="-0.16548">
        <ele>237.665488</ele>
        <time>2022-08-30T15:14:26.593Z</time>
      </trkpt>
      <trkpt lat="41.73226" lon="-0.1653">
        <ele>237.830615</ele>
        <time>2022-08-30T15:14:42.399Z</time>
      </trkpt>
      <trkpt lat="41.73194" lon="-0.16501">
        <ele>238.233316</ele>
        <time>2022-08-30T15:14:57.550Z</time>
      </trkpt>
      <trkpt lat="41.73167" lon="-0.16454">
        <ele>238.709458</ele>
        <time>2022-08-30T15:15:15.588Z</time>
      </trkpt>
      <trkpt lat="41.73122" lon="-0.16422">
        <ele>239.252261</ele>
        <time>2022-08-30T15:15:36.838Z</time>
      </trkpt>
      <trkpt lat="41.73105" lon="-0.1642">
        <ele>239.433102</ele>
        <time>2022-08-30T15:15:44.200Z</time>
      </trkpt>
      <trkpt lat="41.7309" lon="-0.16432">
        <ele>239.615683</ele>
        <time>2022-08-30T15:15:52.052Z</time>
      </trkpt>
      <trkpt lat="41.73022" lon="-0.16547">
        <ele>242.165019</ele>
        <time>2022-08-30T15:16:45.912Z</time>
      </trkpt>
      <trkpt lat="41.73003" lon="-0.16566">
        <ele>242.739302</ele>
        <time>2022-08-30T15:16:57.733Z</time>
      </trkpt>
      <trkpt lat="41.72991" lon="-0.16569">
        <ele>243.046041</ele>
        <time>2022-08-30T15:17:04.394Z</time>
      </trkpt>
      <trkpt lat="41.72923" lon="-0.16557">
        <ele>244.581795</ele>
        <time>2022-08-30T15:17:39.672Z</time>
      </trkpt>
      <trkpt lat="41.72846" lon="-0.16523">
        <ele>245.985693</ele>
        <time>2022-08-30T15:18:20.137Z</time>
      </trkpt>
      <trkpt lat="41.72833" lon="-0.16527">
        <ele>246.207803</ele>
        <time>2022-08-30T15:18:25.943Z</time>
      </trkpt>
      <trkpt lat="41.72803" lon="-0.16561">
        <ele>246.87466</ele>
        <time>2022-08-30T15:18:42.573Z</time>
      </trkpt>
      <trkpt lat="41.72788" lon="-0.1657">
        <ele>247.158239</ele>
        <time>2022-08-30T15:18:49.198Z</time>
      </trkpt>
      <trkpt lat="41.72777" lon="-0.16565">
        <ele>247.263002</ele>
        <time>2022-08-30T15:18:53.560Z</time>
      </trkpt>
      <trkpt lat="41.7271" lon="-0.16472">
        <ele>246.048367</ele>
        <time>2022-08-30T15:19:26.932Z</time>
      </trkpt>
      <trkpt lat="41.72696" lon="-0.16462">
        <ele>245.849265</ele>
        <time>2022-08-30T15:19:32.164Z</time>
      </trkpt>
      <trkpt lat="41.72623" lon="-0.16431">
        <ele>244.721962</ele>
        <time>2022-08-30T15:19:56.994Z</time>
      </trkpt>
      <trkpt lat="41.72572" lon="-0.16424">
        <ele>243.435874</ele>
        <time>2022-08-30T15:20:12.981Z</time>
      </trkpt>
      <trkpt lat="41.7254" lon="-0.16391">
        <ele>242.414494</ele>
        <time>2022-08-30T15:20:25.581Z</time>
      </trkpt>
      <trkpt lat="41.72503" lon="-0.16392">
        <ele>241.468474</ele>
        <time>2022-08-30T15:20:37.366Z</time>
      </trkpt>
      <trkpt lat="41.72484" lon="-0.16387">
        <ele>240.990498</ele>
        <time>2022-08-30T15:20:43.305Z</time>
      </trkpt>
      <trkpt lat="41.72446" lon="-0.16346">
        <ele>240.235455</ele>
        <time>2022-08-30T15:20:58.925Z</time>
      </trkpt>
      <trkpt lat="41.72386" lon="-0.16303">
        <ele>239.6312</ele>
        <time>2022-08-30T15:21:21.764Z</time>
      </trkpt>
      <trkpt lat="41.72355" lon="-0.16298">
        <ele>239.348222</ele>
        <time>2022-08-30T15:21:33.019Z</time>
      </trkpt>
      <trkpt lat="41.72314" lon="-0.16274">
        <ele>238.95273</ele>
        <time>2022-08-30T15:21:49.787Z</time>
      </trkpt>
      <trkpt lat="41.7229" lon="-0.16285">
        <ele>239.188843</ele>
        <time>2022-08-30T15:22:00.241Z</time>
      </trkpt>
      <trkpt lat="41.72282" lon="-0.16284">
        <ele>239.321424</ele>
        <time>2022-08-30T15:22:03.823Z</time>
      </trkpt>
      <trkpt lat="41.72262" lon="-0.16256">
        <ele>239.786994</ele>
        <time>2022-08-30T15:22:16.529Z</time>
      </trkpt>
      <trkpt lat="41.72212" lon="-0.16233">
        <ele>240.630849</ele>
        <time>2022-08-30T15:22:40.894Z</time>
      </trkpt>
      <trkpt lat="41.72184" lon="-0.16199">
        <ele>241.229944</ele>
        <time>2022-08-30T15:22:58.874Z</time>
      </trkpt>
      <trkpt lat="41.72177" lon="-0.16168">
        <ele>241.61949</ele>
        <time>2022-08-30T15:23:10.591Z</time>
      </trkpt>
      <trkpt lat="41.72135" lon="-0.16069">
        <ele>242.702949</ele>
        <time>2022-08-30T15:23:49.789Z</time>
      </trkpt>
      <trkpt lat="41.72122" lon="-0.16044">
        <ele>242.993559</ele>
        <time>2022-08-30T15:24:00.111Z</time>
      </trkpt>
      <trkpt lat="41.72104" lon="-0.16025">
        <ele>243.27473</ele>
        <time>2022-08-30T15:24:09.695Z</time>
      </trkpt>
      <trkpt lat="41.72057" lon="-0.1593">
        <ele>243.895655</ele>
        <time>2022-08-30T15:24:43.190Z</time>
      </trkpt>
      <trkpt lat="41.72033" lon="-0.15926">
        <ele>243.797822</ele>
        <time>2022-08-30T15:24:52.384Z</time>
      </trkpt>
      <trkpt lat="41.72002" lon="-0.15939">
        <ele>243.66453</ele>
        <time>2022-08-30T15:25:04.450Z</time>
      </trkpt>
      <trkpt lat="41.71956" lon="-0.15992">
        <ele>243.422418</ele>
        <time>2022-08-30T15:25:25.585Z</time>
      </trkpt>
      <trkpt lat="41.71922" lon="-0.15988">
        <ele>243.284578</ele>
        <time>2022-08-30T15:25:37.371Z</time>
      </trkpt>
      <trkpt lat="41.71898" lon="-0.15981">
        <ele>242.981152</ele>
        <time>2022-08-30T15:25:45.723Z</time>
      </trkpt>
      <trkpt lat="41.7186" lon="-0.15956">
        <ele>242.417443</ele>
        <time>2022-08-30T15:26:00.256Z</time>
      </trkpt>
      <trkpt lat="41.71823" lon="-0.15915">
        <ele>241.793795</ele>
        <time>2022-08-30T15:26:16.252Z</time>
      </trkpt>
      <trkpt lat="41.71786" lon="-0.15865">
        <ele>241.107735</ele>
        <time>2022-08-30T15:26:33.754Z</time>
      </trkpt>
      <trkpt lat="41.71744" lon="-0.15861">
        <ele>240.571684</ele>
        <time>2022-08-30T15:26:47.874Z</time>
      </trkpt>
      <trkpt lat="41.71703" lon="-0.15888">
        <ele>239.996459</ele>
        <time>2022-08-30T15:27:03.428Z</time>
      </trkpt>
      <trkpt lat="41.71692" lon="-0.15889">
        <ele>239.853781</ele>
        <time>2022-08-30T15:27:07.310Z</time>
      </trkpt>
      <trkpt lat="41.71675" lon="-0.15868">
        <ele>239.569947</ele>
        <time>2022-08-30T15:27:15.226Z</time>
      </trkpt>
      <trkpt lat="41.71656" lon="-0.1583">
        <ele>239.148092</ele>
        <time>2022-08-30T15:27:26.820Z</time>
      </trkpt>
      <trkpt lat="41.71646" lon="-0.15783">
        <ele>238.691528</ele>
        <time>2022-08-30T15:27:39.323Z</time>
      </trkpt>
      <trkpt lat="41.71645" lon="-0.15766">
        <ele>238.514961</ele>
        <time>2022-08-30T15:27:43.629Z</time>
      </trkpt>
      <trkpt lat="41.7163" lon="-0.15713">
        <ele>237.929578</ele>
        <time>2022-08-30T15:27:57.922Z</time>
      </trkpt>
      <trkpt lat="41.71607" lon="-0.15661">
        <ele>237.303631</ele>
        <time>2022-08-30T15:28:13.088Z</time>
      </trkpt>
      <trkpt lat="41.71582" lon="-0.15564">
        <ele>236.240682</ele>
        <time>2022-08-30T15:28:38.739Z</time>
      </trkpt>
      <trkpt lat="41.71567" lon="-0.15428">
        <ele>234.918312</ele>
        <time>2022-08-30T15:29:13.392Z</time>
      </trkpt>
      <trkpt lat="41.71559" lon="-0.15393">
        <ele>234.564739</ele>
        <time>2022-08-30T15:29:22.841Z</time>
      </trkpt>
      <trkpt lat="41.71541" lon="-0.15377">
        <ele>234.288292</ele>
        <time>2022-08-30T15:29:30.178Z</time>
      </trkpt>
      <trkpt lat="41.71531" lon="-0.15376">
        <ele>234.15948</ele>
        <time>2022-08-30T15:29:33.639Z</time>
      </trkpt>
      <trkpt lat="41.71522" lon="-0.15382">
        <ele>234.022886</ele>
        <time>2022-08-30T15:29:37.221Z</time>
      </trkpt>
      <trkpt lat="41.71491" lon="-0.15449">
        <ele>233.305316</ele>
        <time>2022-08-30T15:29:57.188Z</time>
      </trkpt>
      <trkpt lat="41.71456" lon="-0.1547">
        <ele>232.849358</ele>
        <time>2022-08-30T15:30:09.996Z</time>
      </trkpt>
      <trkpt lat="41.71404" lon="-0.15514">
        <ele>232.097842</ele>
        <time>2022-08-30T15:30:31.075Z</time>
      </trkpt>
      <trkpt lat="41.71353" lon="-0.15517">
        <ele>231.533055</ele>
        <time>2022-08-30T15:30:48.374Z</time>
      </trkpt>
      <trkpt lat="41.7128" lon="-0.1553">
        <ele>230.856842</ele>
        <time>2022-08-30T15:31:13.779Z</time>
      </trkpt>
      <trkpt lat="41.71218" lon="-0.15567">
        <ele>230.233052</ele>
        <time>2022-08-30T15:31:37.305Z</time>
      </trkpt>
      <trkpt lat="41.71177" lon="-0.1558">
        <ele>230.004144</ele>
        <time>2022-08-30T15:31:52.422Z</time>
      </trkpt>
      <trkpt lat="41.71169" lon="-0.1557">
        <ele>229.987506</ele>
        <time>2022-08-30T15:31:55.943Z</time>
      </trkpt>
      <trkpt lat="41.71165" lon="-0.1554">
        <ele>229.951821</ele>
        <time>2022-08-30T15:32:04.315Z</time>
      </trkpt>
      <trkpt lat="41.71173" lon="-0.15476">
        <ele>229.875329</ele>
        <time>2022-08-30T15:32:21.754Z</time>
      </trkpt>
      <trkpt lat="41.71169" lon="-0.15467">
        <ele>229.862909</ele>
        <time>2022-08-30T15:32:24.723Z</time>
      </trkpt>
      <trkpt lat="41.71151" lon="-0.15457">
        <ele>229.833038</ele>
        <time>2022-08-30T15:32:32.290Z</time>
      </trkpt>
      <trkpt lat="41.71052" lon="-0.15481">
        <ele>229.926891</ele>
        <time>2022-08-30T15:33:09.823Z</time>
      </trkpt>
      <trkpt lat="41.71007" lon="-0.15506">
        <ele>230.098002</ele>
        <time>2022-08-30T15:33:29.078Z</time>
      </trkpt>
      <trkpt lat="41.70949" lon="-0.15522">
        <ele>230.305422</ele>
        <time>2022-08-30T15:33:52.422Z</time>
      </trkpt>
      <trkpt lat="41.70905" lon="-0.15524">
        <ele>230.462107</ele>
        <time>2022-08-30T15:34:09.831Z</time>
      </trkpt>
      <trkpt lat="41.70741" lon="-0.15507">
        <ele>231.059941</ele>
        <time>2022-08-30T15:35:14.068Z</time>
      </trkpt>
      <trkpt lat="41.70709" lon="-0.15496">
        <ele>231.144202</ele>
        <time>2022-08-30T15:35:26.588Z</time>
      </trkpt>
      <trkpt lat="41.7068" lon="-0.15498">
        <ele>231.217182</ele>
        <time>2022-08-30T15:35:37.341Z</time>
      </trkpt>
      <trkpt lat="41.70646" lon="-0.1548">
        <ele>231.311062</ele>
        <time>2022-08-30T15:35:51.190Z</time>
      </trkpt>
      <trkpt lat="41.70603" lon="-0.15446">
        <ele>231.438036</ele>
        <time>2022-08-30T15:36:09.825Z</time>
      </trkpt>
      <trkpt lat="41.70566" lon="-0.15409">
        <ele>231.844619</ele>
        <time>2022-08-30T15:36:27.744Z</time>
      </trkpt>
      <trkpt lat="41.705" lon="-0.15327">
        <ele>233.292365</ele>
        <time>2022-08-30T15:37:07.053Z</time>
      </trkpt>
      <trkpt lat="41.70481" lon="-0.1536">
        <ele>233.777109</ele>
        <time>2022-08-30T15:37:21.752Z</time>
      </trkpt>
      <trkpt lat="41.70451" lon="-0.15377">
        <ele>234.310538</ele>
        <time>2022-08-30T15:37:38.443Z</time>
      </trkpt>
      <trkpt lat="41.70346" lon="-0.15413">
        <ele>237.122127</ele>
        <time>2022-08-30T15:38:33.687Z</time>
      </trkpt>
      <trkpt lat="41.70294" lon="-0.15411">
        <ele>238.493367</ele>
        <time>2022-08-30T15:39:00.440Z</time>
      </trkpt>
      <trkpt lat="41.70234" lon="-0.15454">
        <ele>239.797634</ele>
        <time>2022-08-30T15:39:33.328Z</time>
      </trkpt>
      <trkpt lat="41.69842" lon="-0.15473">
        <ele>244.810374</ele>
        <time>2022-08-30T15:42:21.570Z</time>
      </trkpt>
      <trkpt lat="41.69816" lon="-0.15471">
        <ele>245.110152</ele>
        <time>2022-08-30T15:42:32.568Z</time>
      </trkpt>
      <trkpt lat="41.69793" lon="-0.15478">
        <ele>245.383989</ele>
        <time>2022-08-30T15:42:42.718Z</time>
      </trkpt>
      <trkpt lat="41.69663" lon="-0.15549">
        <ele>247.316711</ele>
        <time>2022-08-30T15:43:43.154Z</time>
      </trkpt>
      <trkpt lat="41.69608" lon="-0.15543">
        <ele>248.152304</ele>
        <time>2022-08-30T15:44:08.422Z</time>
      </trkpt>
      <trkpt lat="41.69447" lon="-0.15631">
        <ele>251.314946</ele>
        <time>2022-08-30T15:45:29.884Z</time>
      </trkpt>
      <trkpt lat="41.69413" lon="-0.15638">
        <ele>251.954355</ele>
        <time>2022-08-30T15:45:45.678Z</time>
      </trkpt>
      <trkpt lat="41.69325" lon="-0.15636">
        <ele>253.534488</ele>
        <time>2022-08-30T15:46:26.292Z</time>
      </trkpt>
      <trkpt lat="41.69246" lon="-0.1567">
        <ele>255.012346</ele>
        <time>2022-08-30T15:47:03.986Z</time>
      </trkpt>
      <trkpt lat="41.69049" lon="-0.15683">
        <ele>259.005322</ele>
        <time>2022-08-30T15:48:36.914Z</time>
      </trkpt>
      <trkpt lat="41.68883" lon="-0.15639">
        <ele>263.147231</ele>
        <time>2022-08-30T15:50:00.746Z</time>
      </trkpt>
      <trkpt lat="41.68612" lon="-0.1548">
        <ele>270.593626</ele>
        <time>2022-08-30T15:52:28.905Z</time>
      </trkpt>
      <trkpt lat="41.68525" lon="-0.15477">
        <ele>272.630786</ele>
        <time>2022-08-30T15:53:10.017Z</time>
      </trkpt>
      <trkpt lat="41.68492" lon="-0.15494">
        <ele>273.419034</ele>
        <time>2022-08-30T15:53:26.795Z</time>
      </trkpt>
      <trkpt lat="41.68475" lon="-0.15497">
        <ele>273.790132</ele>
        <time>2022-08-30T15:53:34.741Z</time>
      </trkpt>
      <trkpt lat="41.68334" lon="-0.1547">
        <ele>277.074254</ele>
        <time>2022-08-30T15:54:44.009Z</time>
      </trkpt>
      <trkpt lat="41.68293" lon="-0.15451">
        <ele>278.304108</ele>
        <time>2022-08-30T15:55:06.269Z</time>
      </trkpt>
      <trkpt lat="41.68196" lon="-0.15424">
        <ele>281.067844</ele>
        <time>2022-08-30T15:55:57.524Z</time>
      </trkpt>
      <trkpt lat="41.68179" lon="-0.15408">
        <ele>281.68311</ele>
        <time>2022-08-30T15:56:08.292Z</time>
      </trkpt>
      <trkpt lat="41.68171" lon="-0.15377">
        <ele>282.441157</ele>
        <time>2022-08-30T15:56:20.928Z</time>
      </trkpt>
      <trkpt lat="41.68181" lon="-0.15315">
        <ele>283.938395</ele>
        <time>2022-08-30T15:56:45.405Z</time>
      </trkpt>
      <trkpt lat="41.68172" lon="-0.15224">
        <ele>286.074168</ele>
        <time>2022-08-30T15:57:21.598Z</time>
      </trkpt>
      <trkpt lat="41.68156" lon="-0.15197">
        <ele>286.873974</ele>
        <time>2022-08-30T15:57:35.713Z</time>
      </trkpt>
      <trkpt lat="41.68138" lon="-0.15181">
        <ele>287.562116</ele>
        <time>2022-08-30T15:57:47.956Z</time>
      </trkpt>
      <trkpt lat="41.68109" lon="-0.15172">
        <ele>288.503375</ele>
        <time>2022-08-30T15:58:04.277Z</time>
      </trkpt>
      <trkpt lat="41.68081" lon="-0.15174">
        <ele>289.368907</ele>
        <time>2022-08-30T15:58:18.933Z</time>
      </trkpt>
      <trkpt lat="41.68035" lon="-0.15214">
        <ele>291.100131</ele>
        <time>2022-08-30T15:58:47.904Z</time>
      </trkpt>
      <trkpt lat="41.6802" lon="-0.15217">
        <ele>291.583209</ele>
        <time>2022-08-30T15:58:55.527Z</time>
      </trkpt>
      <trkpt lat="41.68005" lon="-0.15216">
        <ele>292.058957</ele>
        <time>2022-08-30T15:59:03.376Z</time>
      </trkpt>
      <trkpt lat="41.67987" lon="-0.15202">
        <ele>292.710065</ele>
        <time>2022-08-30T15:59:13.463Z</time>
      </trkpt>
      <trkpt lat="41.67973" lon="-0.15198">
        <ele>293.202222</ele>
        <time>2022-08-30T15:59:20.785Z</time>
      </trkpt>
      <trkpt lat="41.67959" lon="-0.15213">
        <ele>293.815213</ele>
        <time>2022-08-30T15:59:29.746Z</time>
      </trkpt>
      <trkpt lat="41.67946" lon="-0.15226">
        <ele>294.377025</ele>
        <time>2022-08-30T15:59:38.254Z</time>
      </trkpt>
      <trkpt lat="41.67936" lon="-0.15224">
        <ele>294.730222</ele>
        <time>2022-08-30T15:59:43.736Z</time>
      </trkpt>
      <trkpt lat="41.67931" lon="-0.15209">
        <ele>295.168381</ele>
        <time>2022-08-30T15:59:50.412Z</time>
      </trkpt>
      <trkpt lat="41.67953" lon="-0.15157">
        <ele>296.72491</ele>
        <time>2022-08-30T16:00:15.405Z</time>
      </trkpt>
      <trkpt lat="41.67947" lon="-0.15131">
        <ele>297.438143</ele>
        <time>2022-08-30T16:00:26.774Z</time>
      </trkpt>
      <trkpt lat="41.67933" lon="-0.15123">
        <ele>297.970436</ele>
        <time>2022-08-30T16:00:35.132Z</time>
      </trkpt>
      <trkpt lat="41.67915" lon="-0.15125">
        <ele>298.584408</ele>
        <time>2022-08-30T16:00:44.948Z</time>
      </trkpt>
      <trkpt lat="41.67884" lon="-0.15149">
        <ele>300.202893</ele>
        <time>2022-08-30T16:01:05.496Z</time>
      </trkpt>
      <trkpt lat="41.67837" lon="-0.15198">
        <ele>303.055452</ele>
        <time>2022-08-30T16:01:40.706Z</time>
      </trkpt>
      <trkpt lat="41.67813" lon="-0.15208">
        <ele>304.278828</ele>
        <time>2022-08-30T16:01:56.558Z</time>
      </trkpt>
      <trkpt lat="41.67785" lon="-0.15231">
        <ele>305.868356</ele>
        <time>2022-08-30T16:02:18.073Z</time>
      </trkpt>
      <trkpt lat="41.67719" lon="-0.15222">
        <ele>308.940341</ele>
        <time>2022-08-30T16:03:01.203Z</time>
      </trkpt>
      <trkpt lat="41.67697" lon="-0.15228">
        <ele>309.977565</ele>
        <time>2022-08-30T16:03:15.545Z</time>
      </trkpt>
      <trkpt lat="41.67658" lon="-0.15266">
        <ele>312.154107</ele>
        <time>2022-08-30T16:03:44.307Z</time>
      </trkpt>
      <trkpt lat="41.6762" lon="-0.15285">
        <ele>313.994394</ele>
        <time>2022-08-30T16:04:08.310Z</time>
      </trkpt>
      <trkpt lat="41.67584" lon="-0.15347">
        <ele>316.099215</ele>
        <time>2022-08-30T16:04:40.706Z</time>
      </trkpt>
      <trkpt lat="41.67568" lon="-0.15361">
        <ele>316.471547</ele>
        <time>2022-08-30T16:04:50.558Z</time>
      </trkpt>
      <trkpt lat="41.67554" lon="-0.15358">
        <ele>316.753886</ele>
        <time>2022-08-30T16:04:57.950Z</time>
      </trkpt>
      <trkpt lat="41.6752" lon="-0.15331">
        <ele>317.538733</ele>
        <time>2022-08-30T16:05:16.843Z</time>
      </trkpt>
      <trkpt lat="41.67501" lon="-0.15334">
        <ele>317.926235</ele>
        <time>2022-08-30T16:05:25.409Z</time>
      </trkpt>
      <trkpt lat="41.67458" lon="-0.15329">
        <ele>318.773867</ele>
        <time>2022-08-30T16:05:43.218Z</time>
      </trkpt>
      <trkpt lat="41.67421" lon="-0.15365">
        <ele>319.667182</ele>
        <time>2022-08-30T16:06:01.348Z</time>
      </trkpt>
      <trkpt lat="41.67405" lon="-0.15373">
        <ele>320.003526</ele>
        <time>2022-08-30T16:06:08.366Z</time>
      </trkpt>
      <trkpt lat="41.67389" lon="-0.15372">
        <ele>320.320178</ele>
        <time>2022-08-30T16:06:15.037Z</time>
      </trkpt>
      <trkpt lat="41.67381" lon="-0.15362">
        <ele>320.539212</ele>
        <time>2022-08-30T16:06:19.767Z</time>
      </trkpt>
      <trkpt lat="41.67372" lon="-0.15331">
        <ele>321.011728</ele>
        <time>2022-08-30T16:06:30.047Z</time>
      </trkpt>
      <trkpt lat="41.6736" lon="-0.15319">
        <ele>321.316928</ele>
        <time>2022-08-30T16:06:36.876Z</time>
      </trkpt>
      <trkpt lat="41.6734" lon="-0.15319">
        <ele>321.707271</ele>
        <time>2022-08-30T16:06:45.780Z</time>
      </trkpt>
      <trkpt lat="41.67324" lon="-0.15308">
        <ele>322.054165</ele>
        <time>2022-08-30T16:06:53.968Z</time>
      </trkpt>
      <trkpt lat="41.67284" lon="-0.15248">
        <ele>324.034183</ele>
        <time>2022-08-30T16:07:28.774Z</time>
      </trkpt>
      <trkpt lat="41.67256" lon="-0.15217">
        <ele>326.014767</ele>
        <time>2022-08-30T16:07:53.035Z</time>
      </trkpt>
      <trkpt lat="41.67218" lon="-0.15184">
        <ele>328.430692</ele>
        <time>2022-08-30T16:08:23.132Z</time>
      </trkpt>
      <trkpt lat="41.67185" lon="-0.15171">
        <ele>330.239898</ele>
        <time>2022-08-30T16:08:46.137Z</time>
      </trkpt>
      <trkpt lat="41.67145" lon="-0.15182">
        <ele>332.442874</ele>
        <time>2022-08-30T16:09:13.769Z</time>
      </trkpt>
      <trkpt lat="41.67077" lon="-0.15237">
        <ele>335.568392</ele>
        <time>2022-08-30T16:10:02.708Z</time>
      </trkpt>
      <trkpt lat="41.67063" lon="-0.15255">
        <ele>336.35059</ele>
        <time>2022-08-30T16:10:14.382Z</time>
      </trkpt>
      <trkpt lat="41.67046" lon="-0.15262">
        <ele>337.072578</ele>
        <time>2022-08-30T16:10:24.412Z</time>
      </trkpt>
      <trkpt lat="41.66981" lon="-0.15241">
        <ele>339.645783</ele>
        <time>2022-08-30T16:10:56.399Z</time>
      </trkpt>
      <trkpt lat="41.66956" lon="-0.15253">
        <ele>340.377665</ele>
        <time>2022-08-30T16:11:09.341Z</time>
      </trkpt>
      <trkpt lat="41.66925" lon="-0.15252">
        <ele>341.197908</ele>
        <time>2022-08-30T16:11:24.394Z</time>
      </trkpt>
      <trkpt lat="41.669" lon="-0.15275">
        <ele>342.028143</ele>
        <time>2022-08-30T16:11:40.011Z</time>
      </trkpt>
      <trkpt lat="41.66838" lon="-0.15259">
        <ele>343.734902</ele>
        <time>2022-08-30T16:12:12.394Z</time>
      </trkpt>
      <trkpt lat="41.66812" lon="-0.15258">
        <ele>344.468042</ele>
        <time>2022-08-30T16:12:25.736Z</time>
      </trkpt>
      <trkpt lat="41.66762" lon="-0.15237">
        <ele>346.877942</ele>
        <time>2022-08-30T16:12:53.634Z</time>
      </trkpt>
      <trkpt lat="41.66718" lon="-0.15191">
        <ele>349.46888</ele>
        <time>2022-08-30T16:13:25.588Z</time>
      </trkpt>
      <trkpt lat="41.66679" lon="-0.15164">
        <ele>351.481892</ele>
        <time>2022-08-30T16:13:53.404Z</time>
      </trkpt>
      <trkpt lat="41.66666" lon="-0.15162">
        <ele>352.099024</ele>
        <time>2022-08-30T16:14:03.058Z</time>
      </trkpt>
      <trkpt lat="41.66635" lon="-0.15177">
        <ele>354.313983</ele>
        <time>2022-08-30T16:14:26.185Z</time>
      </trkpt>
      <trkpt lat="41.66612" lon="-0.15181">
        <ele>356.20073</ele>
        <time>2022-08-30T16:14:43.190Z</time>
      </trkpt>
      <trkpt lat="41.66555" lon="-0.15243">
        <ele>362.208315</ele>
        <time>2022-08-30T16:15:42.093Z</time>
      </trkpt>
      <trkpt lat="41.6647" lon="-0.15288">
        <ele>369.186208</ele>
        <time>2022-08-30T16:16:57.721Z</time>
      </trkpt>
      <trkpt lat="41.66448" lon="-0.15305">
        <ele>370.866871</ele>
        <time>2022-08-30T16:17:17.963Z</time>
      </trkpt>
      <trkpt lat="41.66425" lon="-0.15362">
        <ele>374.013906</ele>
        <time>2022-08-30T16:17:53.524Z</time>
      </trkpt>
      <trkpt lat="41.66407" lon="-0.15393">
        <ele>375.913795</ele>
        <time>2022-08-30T16:18:12.815Z</time>
      </trkpt>
      <trkpt lat="41.66383" lon="-0.15483">
        <ele>379.442016</ele>
        <time>2022-08-30T16:18:54.300Z</time>
      </trkpt>
      <trkpt lat="41.66379" lon="-0.15512">
        <ele>379.778396</ele>
        <time>2022-08-30T16:19:05.369Z</time>
      </trkpt>
      <trkpt lat="41.66384" lon="-0.15627">
        <ele>381.081669</ele>
        <time>2022-08-30T16:19:44.060Z</time>
      </trkpt>
      <trkpt lat="41.66391" lon="-0.15634">
        <ele>381.21317</ele>
        <time>2022-08-30T16:19:47.631Z</time>
      </trkpt>
      <trkpt lat="41.66397" lon="-0.15625">
        <ele>381.350469</ele>
        <time>2022-08-30T16:19:50.879Z</time>
      </trkpt>
      <trkpt lat="41.66392" lon="-0.15538">
        <ele>381.394592</ele>
        <time>2022-08-30T16:20:13.547Z</time>
      </trkpt>
      <trkpt lat="41.66398" lon="-0.15506">
        <ele>381.091008</ele>
        <time>2022-08-30T16:20:21.813Z</time>
      </trkpt>
      <trkpt lat="41.66425" lon="-0.15468">
        <ele>380.625506</ele>
        <time>2022-08-30T16:20:34.193Z</time>
      </trkpt>
      <trkpt lat="41.66456" lon="-0.15412">
        <ele>379.998975</ele>
        <time>2022-08-30T16:20:50.606Z</time>
      </trkpt>
      <trkpt lat="41.6647" lon="-0.15396">
        <ele>379.772976</ele>
        <time>2022-08-30T16:20:57.382Z</time>
      </trkpt>
      <trkpt lat="41.66491" lon="-0.15384">
        <ele>380.374915</ele>
        <time>2022-08-30T16:21:05.239Z</time>
      </trkpt>
      <trkpt lat="41.66558" lon="-0.15359">
        <ele>384.55739</ele>
        <time>2022-08-30T16:21:40.484Z</time>
      </trkpt>
      <trkpt lat="41.66564" lon="-0.15366">
        <ele>385.068481</ele>
        <time>2022-08-30T16:21:46.907Z</time>
      </trkpt>
      <trkpt lat="41.66562" lon="-0.15403">
        <ele>386.703582</ele>
        <time>2022-08-30T16:22:07.338Z</time>
      </trkpt>
      <trkpt lat="41.66567" lon="-0.15419">
        <ele>387.486245</ele>
        <time>2022-08-30T16:22:19.103Z</time>
      </trkpt>
      <trkpt lat="41.66569" lon="-0.15501">
        <ele>391.705818</ele>
        <time>2022-08-30T16:23:14.828Z</time>
      </trkpt>
      <trkpt lat="41.66582" lon="-0.15571">
        <ele>397.485671</ele>
        <time>2022-08-30T16:24:08.813Z</time>
      </trkpt>
      <trkpt lat="41.66607" lon="-0.15651">
        <ele>404.300122</ele>
        <time>2022-08-30T16:25:10.384Z</time>
      </trkpt>
      <trkpt lat="41.66606" lon="-0.15686">
        <ele>407.059453</ele>
        <time>2022-08-30T16:25:33.017Z</time>
      </trkpt>
      <trkpt lat="41.66591" lon="-0.15745">
        <ele>410.332231</ele>
        <time>2022-08-30T16:26:10.968Z</time>
      </trkpt>
      <trkpt lat="41.66594" lon="-0.15789">
        <ele>411.434897</ele>
        <time>2022-08-30T16:26:31.609Z</time>
      </trkpt>
      <trkpt lat="41.66592" lon="-0.15834">
        <ele>412.544404</ele>
        <time>2022-08-30T16:26:49.211Z</time>
      </trkpt>
      <trkpt lat="41.66559" lon="-0.1589">
        <ele>414.301674</ele>
        <time>2022-08-30T16:27:12.053Z</time>
      </trkpt>
      <trkpt lat="41.66543" lon="-0.15975">
        <ele>415.3336</ele>
        <time>2022-08-30T16:27:37.078Z</time>
      </trkpt>
      <trkpt lat="41.66462" lon="-0.16101">
        <ele>414.628354</ele>
        <time>2022-08-30T16:28:19.627Z</time>
      </trkpt>
      <trkpt lat="41.66415" lon="-0.16144">
        <ele>414.953519</ele>
        <time>2022-08-30T16:28:39.945Z</time>
      </trkpt>
      <trkpt lat="41.66348" lon="-0.16199">
        <ele>416.165302</ele>
        <time>2022-08-30T16:29:12.950Z</time>
      </trkpt>
      <trkpt lat="41.66333" lon="-0.16246">
        <ele>416.750521</ele>
        <time>2022-08-30T16:29:31.555Z</time>
      </trkpt>
      <trkpt lat="41.66296" lon="-0.16309">
        <ele>418.727949</ele>
        <time>2022-08-30T16:30:04.713Z</time>
      </trkpt>
      <trkpt lat="41.66271" lon="-0.16368">
        <ele>421.492126</ele>
        <time>2022-08-30T16:30:35.854Z</time>
      </trkpt>
      <trkpt lat="41.6624" lon="-0.16412">
        <ele>423.960159</ele>
        <time>2022-08-30T16:31:05.190Z</time>
      </trkpt>
      <trkpt lat="41.66168" lon="-0.1644">
        <ele>428.950028</ele>
        <time>2022-08-30T16:31:56.937Z</time>
      </trkpt>
      <trkpt lat="41.66147" lon="-0.16464">
        <ele>431.734741</ele>
        <time>2022-08-30T16:32:19.348Z</time>
      </trkpt>
      <trkpt lat="41.66109" lon="-0.16463">
        <ele>435.684966</ele>
        <time>2022-08-30T16:32:56.616Z</time>
      </trkpt>
      <trkpt lat="41.6607" lon="-0.16487">
        <ele>440.003703</ele>
        <time>2022-08-30T16:33:36.144Z</time>
      </trkpt>
      <trkpt lat="41.65999" lon="-0.16505">
        <ele>446.978536</ele>
        <time>2022-08-30T16:34:43.137Z</time>
      </trkpt>
      <trkpt lat="41.65977" lon="-0.16511">
        <ele>448.903017</ele>
        <time>2022-08-30T16:35:06.848Z</time>
      </trkpt>
      <trkpt lat="41.65958" lon="-0.16524">
        <ele>450.631534</ele>
        <time>2022-08-30T16:35:24.167Z</time>
      </trkpt>
      <trkpt lat="41.65936" lon="-0.16561">
        <ele>453.587256</ele>
        <time>2022-08-30T16:35:54.560Z</time>
      </trkpt>
      <trkpt lat="41.65919" lon="-0.16568">
        <ele>455.019092</ele>
        <time>2022-08-30T16:36:10.070Z</time>
      </trkpt>
      <trkpt lat="41.65899" lon="-0.16571">
        <ele>456.705833</ele>
        <time>2022-08-30T16:36:24.881Z</time>
      </trkpt>
      <trkpt lat="41.65837" lon="-0.16542">
        <ele>460.406974</ele>
        <time>2022-08-30T16:37:04.953Z</time>
      </trkpt>
      <trkpt lat="41.65792" lon="-0.1654">
        <ele>460.576657</ele>
        <time>2022-08-30T16:37:21.144Z</time>
      </trkpt>
      <trkpt lat="41.65701" lon="-0.16551">
        <ele>460.923553</ele>
        <time>2022-08-30T16:37:53.374Z</time>
      </trkpt>
      <trkpt lat="41.65674" lon="-0.1656">
        <ele>460.922338</ele>
        <time>2022-08-30T16:38:02.695Z</time>
      </trkpt>
      <trkpt lat="41.65653" lon="-0.16584">
        <ele>460.601494</ele>
        <time>2022-08-30T16:38:11.642Z</time>
      </trkpt>
      <trkpt lat="41.6563" lon="-0.16655">
        <ele>459.923026</ele>
        <time>2022-08-30T16:38:31.206Z</time>
      </trkpt>
      <trkpt lat="41.6561" lon="-0.1668">
        <ele>459.608491</ele>
        <time>2022-08-30T16:38:40.361Z</time>
      </trkpt>
      <trkpt lat="41.65549" lon="-0.16696">
        <ele>458.884944</ele>
        <time>2022-08-30T16:39:01.981Z</time>
      </trkpt>
      <trkpt lat="41.65446" lon="-0.16835">
        <ele>458.005123</ele>
        <time>2022-08-30T16:39:53.767Z</time>
      </trkpt>
      <trkpt lat="41.65416" lon="-0.16895">
        <ele>457.785622</ele>
        <time>2022-08-30T16:40:13.198Z</time>
      </trkpt>
      <trkpt lat="41.65415" lon="-0.16987">
        <ele>457.693867</ele>
        <time>2022-08-30T16:40:38.078Z</time>
      </trkpt>
      <trkpt lat="41.65368" lon="-0.17127">
        <ele>457.774198</ele>
        <time>2022-08-30T16:41:20.733Z</time>
      </trkpt>
      <trkpt lat="41.65356" lon="-0.17189">
        <ele>458.144747</ele>
        <time>2022-08-30T16:41:39.830Z</time>
      </trkpt>
      <trkpt lat="41.65343" lon="-0.17214">
        <ele>458.320328</ele>
        <time>2022-08-30T16:41:48.984Z</time>
      </trkpt>
      <trkpt lat="41.65329" lon="-0.1723">
        <ele>458.47197</ele>
        <time>2022-08-30T16:41:57.183Z</time>
      </trkpt>
      <trkpt lat="41.65279" lon="-0.17259">
        <ele>458.889591</ele>
        <time>2022-08-30T16:42:19.772Z</time>
      </trkpt>
      <trkpt lat="41.65271" lon="-0.17279">
        <ele>459.043472</ele>
        <time>2022-08-30T16:42:27.254Z</time>
      </trkpt>
      <trkpt lat="41.65265" lon="-0.17446">
        <ele>460.515462</ele>
        <time>2022-08-30T16:43:22.558Z</time>
      </trkpt>
      <trkpt lat="41.6523" lon="-0.17568">
        <ele>460.945626</ele>
        <time>2022-08-30T16:44:03.002Z</time>
      </trkpt>
      <trkpt lat="41.65052" lon="-0.17843">
        <ele>459.305161</ele>
        <time>2022-08-30T16:45:37.703Z</time>
      </trkpt>
      <trkpt lat="41.64918" lon="-0.18017">
        <ele>457.46451</ele>
        <time>2022-08-30T16:46:41.886Z</time>
      </trkpt>
      <trkpt lat="41.64832" lon="-0.18119">
        <ele>456.531407</ele>
        <time>2022-08-30T16:47:21.660Z</time>
      </trkpt>
      <trkpt lat="41.64791" lon="-0.1815">
        <ele>456.183563</ele>
        <time>2022-08-30T16:47:38.213Z</time>
      </trkpt>
      <trkpt lat="41.64712" lon="-0.18175">
        <ele>455.751572</ele>
        <time>2022-08-30T16:48:07.167Z</time>
      </trkpt>
      <trkpt lat="41.64686" lon="-0.18197">
        <ele>455.688536</ele>
        <time>2022-08-30T16:48:18.810Z</time>
      </trkpt>
      <trkpt lat="41.64579" lon="-0.18301">
        <ele>455.32283</ele>
        <time>2022-08-30T16:49:07.644Z</time>
      </trkpt>
      <trkpt lat="41.64562" lon="-0.18319">
        <ele>455.126354</ele>
        <time>2022-08-30T16:49:15.542Z</time>
      </trkpt>
      <trkpt lat="41.64515" lon="-0.1846">
        <ele>454.084225</ele>
        <time>2022-08-30T16:49:55.591Z</time>
      </trkpt>
      <trkpt lat="41.64478" lon="-0.18517">
        <ele>453.266218</ele>
        <time>2022-08-30T16:50:13.920Z</time>
      </trkpt>
      <trkpt lat="41.64454" lon="-0.18569">
        <ele>452.326862</ele>
        <time>2022-08-30T16:50:28.562Z</time>
      </trkpt>
      <trkpt lat="41.64406" lon="-0.18739">
        <ele>449.707262</ele>
        <time>2022-08-30T16:51:12.244Z</time>
      </trkpt>
      <trkpt lat="41.64292" lon="-0.18926">
        <ele>447.386769</ele>
        <time>2022-08-30T16:52:13.320Z</time>
      </trkpt>
      <trkpt lat="41.64191" lon="-0.19047">
        <ele>446.842726</ele>
        <time>2022-08-30T16:53:02.792Z</time>
      </trkpt>
      <trkpt lat="41.6416" lon="-0.19076">
        <ele>446.856692</ele>
        <time>2022-08-30T16:53:16.909Z</time>
      </trkpt>
      <trkpt lat="41.63828" lon="-0.19288">
        <ele>448.186517</ele>
        <time>2022-08-30T16:55:40.950Z</time>
      </trkpt>
      <trkpt lat="41.63621" lon="-0.19383">
        <ele>449.251129</ele>
        <time>2022-08-30T16:57:06.106Z</time>
      </trkpt>
      <trkpt lat="41.63507" lon="-0.19445">
        <ele>450.247329</ele>
        <time>2022-08-30T16:57:56.364Z</time>
      </trkpt>
      <trkpt lat="41.63348" lon="-0.19506">
        <ele>452.887733</ele>
        <time>2022-08-30T16:59:12.045Z</time>
      </trkpt>
      <trkpt lat="41.63268" lon="-0.19553">
        <ele>454.239948</ele>
        <time>2022-08-30T16:59:53.035Z</time>
      </trkpt>
      <trkpt lat="41.62971" lon="-0.19727">
        <ele>457.792527</ele>
        <time>2022-08-30T17:02:11.948Z</time>
      </trkpt>
      <trkpt lat="41.6289" lon="-0.19743">
        <ele>457.875823</ele>
        <time>2022-08-30T17:02:41.866Z</time>
      </trkpt>
      <trkpt lat="41.62836" lon="-0.19746">
        <ele>457.927392</ele>
        <time>2022-08-30T17:03:01.422Z</time>
      </trkpt>
      <trkpt lat="41.6279" lon="-0.19746">
        <ele>457.953695</ele>
        <time>2022-08-30T17:03:17.654Z</time>
      </trkpt>
      <trkpt lat="41.62738" lon="-0.19759">
        <ele>457.984055</ele>
        <time>2022-08-30T17:03:36.920Z</time>
      </trkpt>
      <trkpt lat="41.62651" lon="-0.19779">
        <ele>458.159175</ele>
        <time>2022-08-30T17:04:11.685Z</time>
      </trkpt>
      <trkpt lat="41.62541" lon="-0.19841">
        <ele>459.247962</ele>
        <time>2022-08-30T17:05:01.933Z</time>
      </trkpt>
      <trkpt lat="41.62465" lon="-0.19882">
        <ele>460.104712</ele>
        <time>2022-08-30T17:05:36.749Z</time>
      </trkpt>
      <trkpt lat="41.62287" lon="-0.20002">
        <ele>462.859818</ele>
        <time>2022-08-30T17:07:02.598Z</time>
      </trkpt>
      <trkpt lat="41.62234" lon="-0.20069">
        <ele>464.231724</ele>
        <time>2022-08-30T17:07:36.989Z</time>
      </trkpt>
      <trkpt lat="41.62141" lon="-0.20106">
        <ele>466.281385</ele>
        <time>2022-08-30T17:08:24.703Z</time>
      </trkpt>
      <trkpt lat="41.62007" lon="-0.20274">
        <ele>470.30661</ele>
        <time>2022-08-30T17:09:54.700Z</time>
      </trkpt>
      <trkpt lat="41.61948" lon="-0.20384">
        <ele>471.984258</ele>
        <time>2022-08-30T17:10:41.455Z</time>
      </trkpt>
      <trkpt lat="41.61943" lon="-0.20423">
        <ele>472.480992</ele>
        <time>2022-08-30T17:10:53.879Z</time>
      </trkpt>
      <trkpt lat="41.61945" lon="-0.2051">
        <ele>472.018342</ele>
        <time>2022-08-30T17:11:18.019Z</time>
      </trkpt>
      <trkpt lat="41.61939" lon="-0.2059">
        <ele>471.594529</ele>
        <time>2022-08-30T17:11:38.583Z</time>
      </trkpt>
      <trkpt lat="41.61912" lon="-0.20715">
        <ele>470.476158</ele>
        <time>2022-08-30T17:12:10.859Z</time>
      </trkpt>
      <trkpt lat="41.61913" lon="-0.2077">
        <ele>469.776415</ele>
        <time>2022-08-30T17:12:24.142Z</time>
      </trkpt>
      <trkpt lat="41.61902" lon="-0.20819">
        <ele>469.118543</ele>
        <time>2022-08-30T17:12:36.741Z</time>
      </trkpt>
      <trkpt lat="41.61867" lon="-0.20873">
        <ele>468.215199</ele>
        <time>2022-08-30T17:12:54.325Z</time>
      </trkpt>
      <trkpt lat="41.61854" lon="-0.20912">
        <ele>467.898963</ele>
        <time>2022-08-30T17:13:05.104Z</time>
      </trkpt>
      <trkpt lat="41.61844" lon="-0.20989">
        <ele>467.39352</ele>
        <time>2022-08-30T17:13:25.343Z</time>
      </trkpt>
      <trkpt lat="41.6184" lon="-0.21075">
        <ele>466.837664</ele>
        <time>2022-08-30T17:13:48.009Z</time>
      </trkpt>
      <trkpt lat="41.61824" lon="-0.21127">
        <ele>466.577105</ele>
        <time>2022-08-30T17:14:03.103Z</time>
      </trkpt>
      <trkpt lat="41.61815" lon="-0.21246">
        <ele>466.56331</ele>
        <time>2022-08-30T17:14:35.859Z</time>
      </trkpt>
      <trkpt lat="41.61817" lon="-0.21295">
        <ele>466.557654</ele>
        <time>2022-08-30T17:14:49.721Z</time>
      </trkpt>
      <trkpt lat="41.61664" lon="-0.22448">
        <ele>470.281688</ele>
        <time>2022-08-30T17:18:27.341Z</time>
      </trkpt>
      <trkpt lat="41.61668" lon="-0.22496">
        <ele>470.276841</ele>
        <time>2022-08-30T17:18:34.973Z</time>
      </trkpt>
      <trkpt lat="41.61797" lon="-0.22896">
        <ele>466.595487</ele>
        <time>2022-08-30T17:19:37.680Z</time>
      </trkpt>
      <trkpt lat="41.61799" lon="-0.22919">
        <ele>466.405721</ele>
        <time>2022-08-30T17:19:41.042Z</time>
      </trkpt>
      <trkpt lat="41.61809" lon="-0.22943">
        <ele>466.174047</ele>
        <time>2022-08-30T17:19:45.274Z</time>
      </trkpt>
      <trkpt lat="41.61821" lon="-0.23007">
        <ele>466.00276</ele>
        <time>2022-08-30T17:19:55.815Z</time>
      </trkpt>
      <trkpt lat="41.61814" lon="-0.23056">
        <ele>466.184767</ele>
        <time>2022-08-30T17:20:04.274Z</time>
      </trkpt>
      <trkpt lat="41.61816" lon="-0.23089">
        <ele>466.307601</ele>
        <time>2022-08-30T17:20:10.234Z</time>
      </trkpt>
      <trkpt lat="41.61835" lon="-0.23181">
        <ele>466.655129</ele>
        <time>2022-08-30T17:20:29.928Z</time>
      </trkpt>
      <trkpt lat="41.61812" lon="-0.23303">
        <ele>468.174245</ele>
        <time>2022-08-30T17:21:00.588Z</time>
      </trkpt>
      <trkpt lat="41.61795" lon="-0.23389">
        <ele>469.466142</ele>
        <time>2022-08-30T17:21:23.246Z</time>
      </trkpt>
      <trkpt lat="41.61795" lon="-0.23415">
        <ele>469.855139</ele>
        <time>2022-08-30T17:21:30.292Z</time>
      </trkpt>
      <trkpt lat="41.61798" lon="-0.23447">
        <ele>470.307941</ele>
        <time>2022-08-30T17:21:38.369Z</time>
      </trkpt>
      <trkpt lat="41.61817" lon="-0.2351">
        <ele>471.000279</ele>
        <time>2022-08-30T17:21:55.162Z</time>
      </trkpt>
      <trkpt lat="41.6183" lon="-0.23553">
        <ele>471.469496</ele>
        <time>2022-08-30T17:22:05.723Z</time>
      </trkpt>
      <trkpt lat="41.61839" lon="-0.23643">
        <ele>472.386812</ele>
        <time>2022-08-30T17:22:24.762Z</time>
      </trkpt>
      <trkpt lat="41.61826" lon="-0.23711">
        <ele>472.638067</ele>
        <time>2022-08-30T17:22:38.945Z</time>
      </trkpt>
      <trkpt lat="41.61822" lon="-0.23755">
        <ele>472.536223</ele>
        <time>2022-08-30T17:22:47.394Z</time>
      </trkpt>
      <trkpt lat="41.61826" lon="-0.23767">
        <ele>472.504677</ele>
        <time>2022-08-30T17:22:49.764Z</time>
      </trkpt>
      <trkpt lat="41.61834" lon="-0.2379">
        <ele>472.445541</ele>
        <time>2022-08-30T17:22:54.218Z</time>
      </trkpt>
      <trkpt lat="41.61845" lon="-0.23802">
        <ele>472.402191</ele>
        <time>2022-08-30T17:22:57.310Z</time>
      </trkpt>
      <trkpt lat="41.61853" lon="-0.23807">
        <ele>472.375873</ele>
        <time>2022-08-30T17:22:59.178Z</time>
      </trkpt>
      <trkpt lat="41.61847" lon="-0.23916">
        <ele>471.851451</ele>
        <time>2022-08-30T17:23:15.672Z</time>
      </trkpt>
      <trkpt lat="41.61824" lon="-0.23981">
        <ele>470.651249</ele>
        <time>2022-08-30T17:23:26.468Z</time>
      </trkpt>
      <trkpt lat="41.61771" lon="-0.24068">
        <ele>468.757554</ele>
        <time>2022-08-30T17:23:42.259Z</time>
      </trkpt>
      <trkpt lat="41.6179" lon="-0.24103">
        <ele>467.97577</ele>
        <time>2022-08-30T17:23:48.014Z</time>
      </trkpt>
      <trkpt lat="41.61813" lon="-0.24155">
        <ele>466.436303</ele>
        <time>2022-08-30T17:23:55.803Z</time>
      </trkpt>
      <trkpt lat="41.618" lon="-0.24205">
        <ele>465.086263</ele>
        <time>2022-08-30T17:24:02.703Z</time>
      </trkpt>
      <trkpt lat="41.61796" lon="-0.24256">
        <ele>463.788745</ele>
        <time>2022-08-30T17:24:09.512Z</time>
      </trkpt>
      <trkpt lat="41.61786" lon="-0.24249">
        <ele>463.39409</ele>
        <time>2022-08-30T17:24:13.096Z</time>
      </trkpt>
      <trkpt lat="41.61772" lon="-0.24255">
        <ele>462.891081</ele>
        <time>2022-08-30T17:24:17.713Z</time>
      </trkpt>
      <trkpt lat="41.61748" lon="-0.24273">
        <ele>461.983852</ele>
        <time>2022-08-30T17:24:25.966Z</time>
      </trkpt>
      <trkpt lat="41.61763" lon="-0.24312">
        <ele>461.349212</ele>
        <time>2022-08-30T17:24:31.545Z</time>
      </trkpt>
      <trkpt lat="41.61819" lon="-0.24514">
        <ele>458.514349</ele>
        <time>2022-08-30T17:25:01.749Z</time>
      </trkpt>
      <trkpt lat="41.61822" lon="-0.24536">
        <ele>458.530437</ele>
        <time>2022-08-30T17:25:05.359Z</time>
      </trkpt>
      <trkpt lat="41.61816" lon="-0.24566">
        <ele>458.552995</ele>
        <time>2022-08-30T17:25:10.491Z</time>
      </trkpt>
      <trkpt lat="41.61801" lon="-0.24585">
        <ele>458.57258</ele>
        <time>2022-08-30T17:25:14.963Z</time>
      </trkpt>
      <trkpt lat="41.61583" lon="-0.24729">
        <ele>459.813481</ele>
        <time>2022-08-30T17:26:17.861Z</time>
      </trkpt>
      <trkpt lat="41.61561" lon="-0.24725">
        <ele>459.989433</ele>
        <time>2022-08-30T17:26:23.489Z</time>
      </trkpt>
      <trkpt lat="41.61491" lon="-0.24681">
        <ele>461.125211</ele>
        <time>2022-08-30T17:26:45.091Z</time>
      </trkpt>
      <trkpt lat="41.61471" lon="-0.24672">
        <ele>461.477618</ele>
        <time>2022-08-30T17:26:51.338Z</time>
      </trkpt>
      <trkpt lat="41.61457" lon="-0.24674">
        <ele>461.716231</ele>
        <time>2022-08-30T17:26:55.438Z</time>
      </trkpt>
      <trkpt lat="41.61435" lon="-0.24696">
        <ele>462.182811</ele>
        <time>2022-08-30T17:27:03.889Z</time>
      </trkpt>
      <trkpt lat="41.61337" lon="-0.25022">
        <ele>467.89143</ele>
        <time>2022-08-30T17:28:34.950Z</time>
      </trkpt>
      <trkpt lat="41.61234" lon="-0.2648">
        <ele>485.736573</ele>
        <time>2022-08-30T17:34:05.519Z</time>
      </trkpt>
      <trkpt lat="41.61224" lon="-0.26624">
        <ele>487.79007</ele>
        <time>2022-08-30T17:34:38.976Z</time>
      </trkpt>
      <trkpt lat="41.61071" lon="-0.27187">
        <ele>498.767787</ele>
        <time>2022-08-30T17:37:15.795Z</time>
      </trkpt>
      <trkpt lat="41.6106" lon="-0.27259">
        <ele>499.979604</ele>
        <time>2022-08-30T17:37:34.007Z</time>
      </trkpt>
      <trkpt lat="41.61051" lon="-0.27406">
        <ele>502.406981</ele>
        <time>2022-08-30T17:38:09.387Z</time>
      </trkpt>
      <trkpt lat="41.61061" lon="-0.2745">
        <ele>503.181461</ele>
        <time>2022-08-30T17:38:20.338Z</time>
      </trkpt>
      <trkpt lat="41.61168" lon="-0.2779">
        <ele>509.866654</ele>
        <time>2022-08-30T17:39:55.517Z</time>
      </trkpt>
      <trkpt lat="41.61199" lon="-0.27999">
        <ele>514.485902</ele>
        <time>2022-08-30T17:40:55.282Z</time>
      </trkpt>
      <trkpt lat="41.612" lon="-0.2821">
        <ele>518.769736</ele>
        <time>2022-08-30T17:41:51.392Z</time>
      </trkpt>
      <trkpt lat="41.61107" lon="-0.28565">
        <ele>526.031648</ele>
        <time>2022-08-30T17:43:30.741Z</time>
      </trkpt>
      <trkpt lat="41.61105" lon="-0.28591">
        <ele>526.484515</ele>
        <time>2022-08-30T17:43:37.058Z</time>
      </trkpt>
      <trkpt lat="41.61106" lon="-0.28785">
        <ele>529.815245</ele>
        <time>2022-08-30T17:44:25.524Z</time>
      </trkpt>
      <trkpt lat="41.61111" lon="-0.28855">
        <ele>530.974069</ele>
        <time>2022-08-30T17:44:43.815Z</time>
      </trkpt>
      <trkpt lat="41.61147" lon="-0.28958">
        <ele>532.854694</ele>
        <time>2022-08-30T17:45:12.035Z</time>
      </trkpt>
      <trkpt lat="41.61185" lon="-0.29023">
        <ele>534.130078</ele>
        <time>2022-08-30T17:45:30.751Z</time>
      </trkpt>
      <trkpt lat="41.61197" lon="-0.29072">
        <ele>534.936473</ele>
        <time>2022-08-30T17:45:42.907Z</time>
      </trkpt>
      <trkpt lat="41.61228" lon="-0.29219">
        <ele>537.578746</ele>
        <time>2022-08-30T17:46:20.774Z</time>
      </trkpt>
      <trkpt lat="41.61231" lon="-0.29489">
        <ele>543.980772</ele>
        <time>2022-08-30T17:47:39.787Z</time>
      </trkpt>
      <trkpt lat="41.61157" lon="-0.29666">
        <ele>548.946623</ele>
        <time>2022-08-30T17:48:38.764Z</time>
      </trkpt>
      <trkpt lat="41.61161" lon="-0.29833">
        <ele>552.667137</ele>
        <time>2022-08-30T17:49:24.443Z</time>
      </trkpt>
      <trkpt lat="41.61188" lon="-0.3014">
        <ele>559.121081</ele>
        <time>2022-08-30T17:50:51.583Z</time>
      </trkpt>
      <trkpt lat="41.6126" lon="-0.30474">
        <ele>559.269116</ele>
        <time>2022-08-30T17:51:59.407Z</time>
      </trkpt>
      <trkpt lat="41.61187" lon="-0.30575">
        <ele>556.336407</ele>
        <time>2022-08-30T17:52:16.358Z</time>
      </trkpt>
      <trkpt lat="41.61139" lon="-0.30623">
        <ele>552.470652</ele>
        <time>2022-08-30T17:52:25.453Z</time>
      </trkpt>
      <trkpt lat="41.61079" lon="-0.30799">
        <ele>542.924327</ele>
        <time>2022-08-30T17:52:47.206Z</time>
      </trkpt>
      <trkpt lat="41.61105" lon="-0.30843">
        <ele>539.956095</ele>
        <time>2022-08-30T17:52:53.542Z</time>
      </trkpt>
      <trkpt lat="41.61104" lon="-0.3086">
        <ele>539.079515</ele>
        <time>2022-08-30T17:52:55.422Z</time>
      </trkpt>
      <trkpt lat="41.61012" lon="-0.30938">
        <ele>531.087814</ele>
        <time>2022-08-30T17:53:11.639Z</time>
      </trkpt>
      <trkpt lat="41.60916" lon="-0.30925">
        <ele>523.639473</ele>
        <time>2022-08-30T17:53:25.716Z</time>
      </trkpt>
      <trkpt lat="41.60864" lon="-0.30944">
        <ele>519.468533</ele>
        <time>2022-08-30T17:53:33.649Z</time>
      </trkpt>
      <trkpt lat="41.60801" lon="-0.30934">
        <ele>516.216539</ele>
        <time>2022-08-30T17:53:43.134Z</time>
      </trkpt>
      <trkpt lat="41.60723" lon="-0.31002">
        <ele>511.433332</ele>
        <time>2022-08-30T17:53:58.167Z</time>
      </trkpt>
      <trkpt lat="41.60679" lon="-0.31025">
        <ele>510.050495</ele>
        <time>2022-08-30T17:54:06.624Z</time>
      </trkpt>
      <trkpt lat="41.60658" lon="-0.31068">
        <ele>509.686591</ele>
        <time>2022-08-30T17:54:13.787Z</time>
      </trkpt>
      <trkpt lat="41.60651" lon="-0.31071">
        <ele>509.615174</ele>
        <time>2022-08-30T17:54:15.338Z</time>
      </trkpt>
      <trkpt lat="41.60639" lon="-0.31068">
        <ele>509.506893</ele>
        <time>2022-08-30T17:54:17.527Z</time>
      </trkpt>
      <trkpt lat="41.60635" lon="-0.31056">
        <ele>509.414278</ele>
        <time>2022-08-30T17:54:19.616Z</time>
      </trkpt>
      <trkpt lat="41.60639" lon="-0.31039">
        <ele>509.28573</ele>
        <time>2022-08-30T17:54:22.667Z</time>
      </trkpt>
      <trkpt lat="41.60667" lon="-0.31002">
        <ele>508.912213</ele>
        <time>2022-08-30T17:54:31.575Z</time>
      </trkpt>
      <trkpt lat="41.60724" lon="-0.30952">
        <ele>508.385159</ele>
        <time>2022-08-30T17:54:47.861Z</time>
      </trkpt>
      <trkpt lat="41.60733" lon="-0.30935">
        <ele>508.29298</ele>
        <time>2022-08-30T17:54:51.807Z</time>
      </trkpt>
      <trkpt lat="41.60734" lon="-0.30916">
        <ele>508.210346</ele>
        <time>2022-08-30T17:54:55.535Z</time>
      </trkpt>
      <trkpt lat="41.60721" lon="-0.30896">
        <ele>508.099704</ele>
        <time>2022-08-30T17:55:00.070Z</time>
      </trkpt>
      <trkpt lat="41.60708" lon="-0.30889">
        <ele>508.015944</ele>
        <time>2022-08-30T17:55:03.165Z</time>
      </trkpt>
      <trkpt lat="41.60632" lon="-0.3092">
        <ele>507.559695</ele>
        <time>2022-08-30T17:55:18.529Z</time>
      </trkpt>
      <trkpt lat="41.60601" lon="-0.30941">
        <ele>506.242697</ele>
        <time>2022-08-30T17:55:24.848Z</time>
      </trkpt>
      <trkpt lat="41.60577" lon="-0.3097">
        <ele>504.88398</ele>
        <time>2022-08-30T17:55:30.565Z</time>
      </trkpt>
      <trkpt lat="41.60566" lon="-0.30995">
        <ele>503.999389</ele>
        <time>2022-08-30T17:55:34.106Z</time>
      </trkpt>
      <trkpt lat="41.60539" lon="-0.31161">
        <ele>497.961426</ele>
        <time>2022-08-30T17:55:54.039Z</time>
      </trkpt>
      <trkpt lat="41.60496" lon="-0.3129">
        <ele>491.195631</ele>
        <time>2022-08-30T17:56:09.894Z</time>
      </trkpt>
      <trkpt lat="41.60471" lon="-0.31362">
        <ele>487.75292</ele>
        <time>2022-08-30T17:56:18.848Z</time>
      </trkpt>
      <trkpt lat="41.60451" lon="-0.31378">
        <ele>486.72483</ele>
        <time>2022-08-30T17:56:22.399Z</time>
      </trkpt>
      <trkpt lat="41.603" lon="-0.31353">
        <ele>480.049816</ele>
        <time>2022-08-30T17:56:47.565Z</time>
      </trkpt>
      <trkpt lat="41.60244" lon="-0.31331">
        <ele>478.123742</ele>
        <time>2022-08-30T17:56:57.660Z</time>
      </trkpt>
      <trkpt lat="41.60146" lon="-0.31304">
        <ele>474.797386</ele>
        <time>2022-08-30T17:57:14.866Z</time>
      </trkpt>
      <trkpt lat="41.60131" lon="-0.31298">
        <ele>474.306891</ele>
        <time>2022-08-30T17:57:17.392Z</time>
      </trkpt>
      <trkpt lat="41.59865" lon="-0.31273">
        <ele>466.453451</ele>
        <time>2022-08-30T17:58:03.282Z</time>
      </trkpt>
      <trkpt lat="41.59753" lon="-0.31233">
        <ele>463.540799</ele>
        <time>2022-08-30T17:58:24.162Z</time>
      </trkpt>
      <trkpt lat="41.59658" lon="-0.31245">
        <ele>461.54848</ele>
        <time>2022-08-30T17:58:42.142Z</time>
      </trkpt>
      <trkpt lat="41.59551" lon="-0.31263">
        <ele>458.726551</ele>
        <time>2022-08-30T17:59:01.300Z</time>
      </trkpt>
      <trkpt lat="41.59253" lon="-0.31363">
        <ele>448.761416</ele>
        <time>2022-08-30T17:59:53.001Z</time>
      </trkpt>
      <trkpt lat="41.59216" lon="-0.3139">
        <ele>448.332106</ele>
        <time>2022-08-30T18:00:00.838Z</time>
      </trkpt>
      <trkpt lat="41.59184" lon="-0.31427">
        <ele>447.903356</ele>
        <time>2022-08-30T18:00:09.104Z</time>
      </trkpt>
      <trkpt lat="41.59039" lon="-0.31606">
        <ele>446.469499</ele>
        <time>2022-08-30T18:00:52.649Z</time>
      </trkpt>
      <trkpt lat="41.58988" lon="-0.31745">
        <ele>445.147069</ele>
        <time>2022-08-30T18:01:15.917Z</time>
      </trkpt>
      <trkpt lat="41.58725" lon="-0.32478">
        <ele>430.324165</ele>
        <time>2022-08-30T18:03:03.310Z</time>
      </trkpt>
      <trkpt lat="41.58717" lon="-0.32511">
        <ele>429.700329</ele>
        <time>2022-08-30T18:03:07.963Z</time>
      </trkpt>
      <trkpt lat="41.58747" lon="-0.33086">
        <ele>420.745988</ele>
        <time>2022-08-30T18:04:26.948Z</time>
      </trkpt>
      <trkpt lat="41.58699" lon="-0.33152">
        <ele>419.043014</ele>
        <time>2022-08-30T18:04:39.476Z</time>
      </trkpt>
      <trkpt lat="41.58667" lon="-0.33177">
        <ele>418.130405</ele>
        <time>2022-08-30T18:04:46.037Z</time>
      </trkpt>
      <trkpt lat="41.58637" lon="-0.33191">
        <ele>417.337551</ele>
        <time>2022-08-30T18:04:51.698Z</time>
      </trkpt>
      <trkpt lat="41.58345" lon="-0.33208">
        <ele>409.338135</ele>
        <time>2022-08-30T18:05:41.869Z</time>
      </trkpt>
      <trkpt lat="41.58335" lon="-0.33182">
        <ele>408.859792</ele>
        <time>2022-08-30T18:05:45.797Z</time>
      </trkpt>
      <trkpt lat="41.58518" lon="-0.34059">
        <ele>403.432374</ele>
        <time>2022-08-30T18:08:02.534Z</time>
      </trkpt>
      <trkpt lat="41.58903" lon="-0.34982">
        <ele>410.80973</ele>
        <time>2022-08-30T18:11:44.101Z</time>
      </trkpt>
      <trkpt lat="41.59098" lon="-0.3569">
        <ele>412.657319</ele>
        <time>2022-08-30T18:13:57.583Z</time>
      </trkpt>
      <trkpt lat="41.59153" lon="-0.35783">
        <ele>412.420861</ele>
        <time>2022-08-30T18:14:17.774Z</time>
      </trkpt>
      <trkpt lat="41.59304" lon="-0.36042">
        <ele>411.214519</ele>
        <time>2022-08-30T18:15:08.053Z</time>
      </trkpt>
      <trkpt lat="41.60591" lon="-0.37909">
        <ele>404.45331</ele>
        <time>2022-08-30T18:21:51.859Z</time>
      </trkpt>
      <trkpt lat="41.6069" lon="-0.38024">
        <ele>404.094209</ele>
        <time>2022-08-30T18:22:20.440Z</time>
      </trkpt>
      <trkpt lat="41.61072" lon="-0.38432">
        <ele>403.037134</ele>
        <time>2022-08-30T18:24:05.560Z</time>
      </trkpt>
      <trkpt lat="41.61179" lon="-0.38508">
        <ele>403.223211</ele>
        <time>2022-08-30T18:24:33.445Z</time>
      </trkpt>
      <trkpt lat="41.61331" lon="-0.3863">
        <ele>403.668271</ele>
        <time>2022-08-30T18:25:16.473Z</time>
      </trkpt>
      <trkpt lat="41.61352" lon="-0.38654">
        <ele>403.737138</ele>
        <time>2022-08-30T18:25:23.325Z</time>
      </trkpt>
      <trkpt lat="41.61477" lon="-0.38828">
        <ele>403.651841</ele>
        <time>2022-08-30T18:26:03.443Z</time>
      </trkpt>
      <trkpt lat="41.6162" lon="-0.38995">
        <ele>403.412956</ele>
        <time>2022-08-30T18:26:42.756Z</time>
      </trkpt>
      <trkpt lat="41.6189" lon="-0.39308">
        <ele>405.745046</ele>
        <time>2022-08-30T18:28:19.251Z</time>
      </trkpt>
      <trkpt lat="41.62136" lon="-0.39752">
        <ele>405.168892</ele>
        <time>2022-08-30T18:29:49.106Z</time>
      </trkpt>
      <trkpt lat="41.62267" lon="-0.3999">
        <ele>402.678498</ele>
        <time>2022-08-30T18:30:30.820Z</time>
      </trkpt>
      <trkpt lat="41.63074" lon="-0.41435">
        <ele>401.63881</ele>
        <time>2022-08-30T18:35:28.371Z</time>
      </trkpt>
      <trkpt lat="41.63231" lon="-0.41726">
        <ele>405.195758</ele>
        <time>2022-08-30T18:36:41.935Z</time>
      </trkpt>
      <trkpt lat="41.63259" lon="-0.41758">
        <ele>406.60787</ele>
        <time>2022-08-30T18:36:55.458Z</time>
      </trkpt>
      <trkpt lat="41.63456" lon="-0.41882">
        <ele>417.278257</ele>
        <time>2022-08-30T18:38:41.540Z</time>
      </trkpt>
      <trkpt lat="41.63502" lon="-0.4189">
        <ele>419.985841</ele>
        <time>2022-08-30T18:39:08.119Z</time>
      </trkpt>
      <trkpt lat="41.6354" lon="-0.41874">
        <ele>422.214591</ele>
        <time>2022-08-30T18:39:30.841Z</time>
      </trkpt>
      <trkpt lat="41.63632" lon="-0.41807">
        <ele>427.684353</ele>
        <time>2022-08-30T18:40:27.098Z</time>
      </trkpt>
      <trkpt lat="41.63649" lon="-0.41801">
        <ele>428.624611</ele>
        <time>2022-08-30T18:40:34.706Z</time>
      </trkpt>
      <trkpt lat="41.63682" lon="-0.41801">
        <ele>430.344474</ele>
        <time>2022-08-30T18:40:47.981Z</time>
      </trkpt>
      <trkpt lat="41.63695" lon="-0.4179">
        <ele>430.640708</ele>
        <time>2022-08-30T18:40:53.616Z</time>
      </trkpt>
      <trkpt lat="41.63698" lon="-0.41782">
        <ele>430.581958</ele>
        <time>2022-08-30T18:40:55.856Z</time>
      </trkpt>
      <trkpt lat="41.63707" lon="-0.41775">
        <ele>430.490622</ele>
        <time>2022-08-30T18:40:58.782Z</time>
      </trkpt>
      <trkpt lat="41.63717" lon="-0.41776">
        <ele>430.399707</ele>
        <time>2022-08-30T18:41:01.517Z</time>
      </trkpt>
      <trkpt lat="41.63726" lon="-0.41787">
        <ele>430.283147</ele>
        <time>2022-08-30T18:41:05.241Z</time>
      </trkpt>
      <trkpt lat="41.63727" lon="-0.41799">
        <ele>430.2002</ele>
        <time>2022-08-30T18:41:07.371Z</time>
      </trkpt>
      <trkpt lat="41.63734" lon="-0.41823">
        <ele>430.032397</ele>
        <time>2022-08-30T18:41:11.269Z</time>
      </trkpt>
      <trkpt lat="41.63759" lon="-0.41938">
        <ele>429.218036</ele>
        <time>2022-08-30T18:41:27.425Z</time>
      </trkpt>
      <trkpt lat="41.63836" lon="-0.42123">
        <ele>423.699737</ele>
        <time>2022-08-30T18:41:53.371Z</time>
      </trkpt>
      <trkpt lat="41.63909" lon="-0.4229">
        <ele>419.524848</ele>
        <time>2022-08-30T18:42:18.259Z</time>
      </trkpt>
      <trkpt lat="41.63991" lon="-0.42483">
        <ele>415.781839</ele>
        <time>2022-08-30T18:42:48.790Z</time>
      </trkpt>
      <trkpt lat="41.64111" lon="-0.42695">
        <ele>412.315128</ele>
        <time>2022-08-30T18:43:25.428Z</time>
      </trkpt>
      <trkpt lat="41.64742" lon="-0.43818">
        <ele>400.885158</ele>
        <time>2022-08-30T18:46:51.716Z</time>
      </trkpt>
      <trkpt lat="41.64879" lon="-0.4406">
        <ele>401.31536</ele>
        <time>2022-08-30T18:47:49.223Z</time>
      </trkpt>
      <trkpt lat="41.64993" lon="-0.4413">
        <ele>400.981143</ele>
        <time>2022-08-30T18:48:17.897Z</time>
      </trkpt>
      <trkpt lat="41.65213" lon="-0.44427">
        <ele>397.771587</ele>
        <time>2022-08-30T18:49:17.876Z</time>
      </trkpt>
      <trkpt lat="41.65564" lon="-0.45141">
        <ele>397.507474</ele>
        <time>2022-08-30T18:51:42.223Z</time>
      </trkpt>
      <trkpt lat="41.65592" lon="-0.452">
        <ele>397.467152</ele>
        <time>2022-08-30T18:51:53.386Z</time>
      </trkpt>
      <trkpt lat="41.65741" lon="-0.45502">
        <ele>396.686385</ele>
        <time>2022-08-30T18:52:50.165Z</time>
      </trkpt>
      <trkpt lat="41.66098" lon="-0.4615">
        <ele>398.725071</ele>
        <time>2022-08-30T18:55:16.550Z</time>
      </trkpt>
      <trkpt lat="41.66473" lon="-0.46781">
        <ele>399.906815</ele>
        <time>2022-08-30T18:57:35.909Z</time>
      </trkpt>
      <trkpt lat="41.66493" lon="-0.46818">
        <ele>399.969355</ele>
        <time>2022-08-30T18:57:44.024Z</time>
      </trkpt>
      <trkpt lat="41.668" lon="-0.47393">
        <ele>400.554573</ele>
        <time>2022-08-30T18:59:46.277Z</time>
      </trkpt>
      <trkpt lat="41.66998" lon="-0.47749">
        <ele>398.555286</ele>
        <time>2022-08-30T19:00:54.399Z</time>
      </trkpt>
      <trkpt lat="41.67236" lon="-0.48183">
        <ele>394.416927</ele>
        <time>2022-08-30T19:02:13.484Z</time>
      </trkpt>
      <trkpt lat="41.67297" lon="-0.4838">
        <ele>393.648705</ele>
        <time>2022-08-30T19:02:45.662Z</time>
      </trkpt>
      <trkpt lat="41.67873" lon="-0.49947">
        <ele>400.010018</ele>
        <time>2022-08-30T19:08:08.591Z</time>
      </trkpt>
      <trkpt lat="41.67948" lon="-0.50151">
        <ele>402.578859</ele>
        <time>2022-08-30T19:09:00.843Z</time>
      </trkpt>
      <trkpt lat="41.68012" lon="-0.50325">
        <ele>405.29127</ele>
        <time>2022-08-30T19:09:49.073Z</time>
      </trkpt>
      <trkpt lat="41.68036" lon="-0.50382">
        <ele>406.135337</ele>
        <time>2022-08-30T19:10:04.741Z</time>
      </trkpt>
      <trkpt lat="41.68066" lon="-0.50465">
        <ele>407.322723</ele>
        <time>2022-08-30T19:10:25.297Z</time>
      </trkpt>
      <trkpt lat="41.68069" lon="-0.50482">
        <ele>407.493033</ele>
        <time>2022-08-30T19:10:29.114Z</time>
      </trkpt>
      <trkpt lat="41.68091" lon="-0.50627">
        <ele>407.626214</ele>
        <time>2022-08-30T19:10:56.108Z</time>
      </trkpt>
      <trkpt lat="41.68099" lon="-0.50687">
        <ele>407.681091</ele>
        <time>2022-08-30T19:11:05.672Z</time>
      </trkpt>
      <trkpt lat="41.68106" lon="-0.50756">
        <ele>407.355276</ele>
        <time>2022-08-30T19:11:16.058Z</time>
      </trkpt>
      <trkpt lat="41.68065" lon="-0.50942">
        <ele>405.77407</ele>
        <time>2022-08-30T19:11:44.410Z</time>
      </trkpt>
      <trkpt lat="41.6805" lon="-0.50999">
        <ele>405.249881</ele>
        <time>2022-08-30T19:11:53.149Z</time>
      </trkpt>
      <trkpt lat="41.68029" lon="-0.51105">
        <ele>404.296466</ele>
        <time>2022-08-30T19:12:09.080Z</time>
      </trkpt>
      <trkpt lat="41.68007" lon="-0.5132">
        <ele>402.570485</ele>
        <time>2022-08-30T19:12:40.996Z</time>
      </trkpt>
      <trkpt lat="41.67969" lon="-0.51643">
        <ele>400.442569</ele>
        <time>2022-08-30T19:13:30.369Z</time>
      </trkpt>
      <trkpt lat="41.67961" lon="-0.51718">
        <ele>399.742652</ele>
        <time>2022-08-30T19:13:41.711Z</time>
      </trkpt>
      <trkpt lat="41.67921" lon="-0.52076">
        <ele>396.379018</ele>
        <time>2022-08-30T19:14:33.183Z</time>
      </trkpt>
      <trkpt lat="41.67875" lon="-0.5249">
        <ele>395.544225</ele>
        <time>2022-08-30T19:15:40.881Z</time>
      </trkpt>
      <trkpt lat="41.67856" lon="-0.52655">
        <ele>395.809145</ele>
        <time>2022-08-30T19:16:12.063Z</time>
      </trkpt>
      <trkpt lat="41.67839" lon="-0.52805">
        <ele>396.208244</ele>
        <time>2022-08-30T19:16:39.009Z</time>
      </trkpt>
      <trkpt lat="41.67824" lon="-0.5284">
        <ele>396.315919</ele>
        <time>2022-08-30T19:16:45.721Z</time>
      </trkpt>
      <trkpt lat="41.67634" lon="-0.53302">
        <ele>398.007784</ele>
        <time>2022-08-30T19:18:18.078Z</time>
      </trkpt>
      <trkpt lat="41.67636" lon="-0.53351">
        <ele>398.854395</ele>
        <time>2022-08-30T19:18:29.343Z</time>
      </trkpt>
      <trkpt lat="41.67645" lon="-0.53375">
        <ele>399.321588</ele>
        <time>2022-08-30T19:18:35.774Z</time>
      </trkpt>
      <trkpt lat="41.67653" lon="-0.5339">
        <ele>399.636185</ele>
        <time>2022-08-30T19:18:40.598Z</time>
      </trkpt>
      <trkpt lat="41.67738" lon="-0.53488">
        <ele>403.158611</ele>
        <time>2022-08-30T19:19:26.899Z</time>
      </trkpt>
      <trkpt lat="41.67749" lon="-0.53511">
        <ele>404.191185</ele>
        <time>2022-08-30T19:19:36.532Z</time>
      </trkpt>
      <trkpt lat="41.67812" lon="-0.53718">
        <ele>412.123931</ele>
        <time>2022-08-30T19:21:01.864Z</time>
      </trkpt>
      <trkpt lat="41.67824" lon="-0.53771">
        <ele>413.826769</ele>
        <time>2022-08-30T19:21:21.438Z</time>
      </trkpt>
      <trkpt lat="41.67831" lon="-0.53824">
        <ele>415.480196</ele>
        <time>2022-08-30T19:21:38.530Z</time>
      </trkpt>
      <trkpt lat="41.67844" lon="-0.53877">
        <ele>417.190137</ele>
        <time>2022-08-30T19:21:54.639Z</time>
      </trkpt>
      <trkpt lat="41.67898" lon="-0.53959">
        <ele>418.734524</ele>
        <time>2022-08-30T19:22:20.670Z</time>
      </trkpt>
      <trkpt lat="41.68191" lon="-0.54408">
        <ele>425.142739</ele>
        <time>2022-08-30T19:24:28.351Z</time>
      </trkpt>
      <trkpt lat="41.68499" lon="-0.54871">
        <ele>432.593653</ele>
        <time>2022-08-30T19:26:51.535Z</time>
      </trkpt>
      <trkpt lat="41.68731" lon="-0.55213">
        <ele>436.117525</ele>
        <time>2022-08-30T19:28:22.261Z</time>
      </trkpt>
      <trkpt lat="41.68832" lon="-0.55362">
        <ele>438.28783</ele>
        <time>2022-08-30T19:29:07.211Z</time>
      </trkpt>
      <trkpt lat="41.68948" lon="-0.55546">
        <ele>441.854799</ele>
        <time>2022-08-30T19:30:05.428Z</time>
      </trkpt>
      <trkpt lat="41.69078" lon="-0.55755">
        <ele>446.473739</ele>
        <time>2022-08-30T19:31:13.282Z</time>
      </trkpt>
      <trkpt lat="41.69111" lon="-0.55826">
        <ele>448.037146</ele>
        <time>2022-08-30T19:31:35.078Z</time>
      </trkpt>
      <trkpt lat="41.69116" lon="-0.55846">
        <ele>448.431744</ele>
        <time>2022-08-30T19:31:40.764Z</time>
      </trkpt>
      <trkpt lat="41.69214" lon="-0.56306">
        <ele>457.402147</ele>
        <time>2022-08-30T19:33:49.915Z</time>
      </trkpt>
      <trkpt lat="41.69526" lon="-0.57122">
        <ele>463.075368</ele>
        <time>2022-08-30T19:36:45.611Z</time>
      </trkpt>
      <trkpt lat="41.70013" lon="-0.58396">
        <ele>471.446978</ele>
        <time>2022-08-30T19:41:29.905Z</time>
      </trkpt>
      <trkpt lat="41.70058" lon="-0.58554">
        <ele>470.826888</ele>
        <time>2022-08-30T19:41:55.190Z</time>
      </trkpt>
      <trkpt lat="41.70093" lon="-0.58788">
        <ele>468.290513</ele>
        <time>2022-08-30T19:42:28.371Z</time>
      </trkpt>
      <trkpt lat="41.7016" lon="-0.59457">
        <ele>464.04484</ele>
        <time>2022-08-30T19:44:11.085Z</time>
      </trkpt>
      <trkpt lat="41.70171" lon="-0.59566">
        <ele>462.62984</ele>
        <time>2022-08-30T19:44:27.384Z</time>
      </trkpt>
      <trkpt lat="41.70353" lon="-0.61424">
        <ele>438.008242</ele>
        <time>2022-08-30T19:48:47.175Z</time>
      </trkpt>
      <trkpt lat="41.70414" lon="-0.62051">
        <ele>431.735643</ele>
        <time>2022-08-30T19:50:18.690Z</time>
      </trkpt>
      <trkpt lat="41.70594" lon="-0.63895">
        <ele>420.138585</ele>
        <time>2022-08-30T19:54:57.203Z</time>
      </trkpt>
      <trkpt lat="41.70679" lon="-0.64786">
        <ele>429.35938</ele>
        <time>2022-08-30T19:58:14.157Z</time>
      </trkpt>
      <trkpt lat="41.70687" lon="-0.64825">
        <ele>430.158581</ele>
        <time>2022-08-30T19:58:24.932Z</time>
      </trkpt>
      <trkpt lat="41.70696" lon="-0.64848">
        <ele>430.658075</ele>
        <time>2022-08-30T19:58:31.986Z</time>
      </trkpt>
      <trkpt lat="41.71033" lon="-0.65345">
        <ele>445.887632</ele>
        <time>2022-08-30T20:01:49.843Z</time>
      </trkpt>
      <trkpt lat="41.71063" lon="-0.65395">
        <ele>446.492607</ele>
        <time>2022-08-30T20:02:03.075Z</time>
      </trkpt>
      <trkpt lat="41.71078" lon="-0.65432">
        <ele>446.898434</ele>
        <time>2022-08-30T20:02:10.609Z</time>
      </trkpt>
      <trkpt lat="41.71093" lon="-0.65491">
        <ele>447.239981</ele>
        <time>2022-08-30T20:02:20.236Z</time>
      </trkpt>
      <trkpt lat="41.71122" lon="-0.65756">
        <ele>443.910564</ele>
        <time>2022-08-30T20:02:56.861Z</time>
      </trkpt>
      <trkpt lat="41.71391" lon="-0.68438">
        <ele>414.919076</ele>
        <time>2022-08-30T20:09:23.114Z</time>
      </trkpt>
      <trkpt lat="41.71418" lon="-0.68699">
        <ele>412.41736</ele>
        <time>2022-08-30T20:10:05.394Z</time>
      </trkpt>
      <trkpt lat="41.71595" lon="-0.69527">
        <ele>399.387967</ele>
        <time>2022-08-30T20:12:01.053Z</time>
      </trkpt>
      <trkpt lat="41.71642" lon="-0.70307">
        <ele>390.169125</ele>
        <time>2022-08-30T20:13:51.553Z</time>
      </trkpt>
      <trkpt lat="41.71653" lon="-0.70331">
        <ele>389.921125</ele>
        <time>2022-08-30T20:13:55.943Z</time>
      </trkpt>
      <trkpt lat="41.71669" lon="-0.70356">
        <ele>389.63855</ele>
        <time>2022-08-30T20:14:00.800Z</time>
      </trkpt>
      <trkpt lat="41.71667" lon="-0.70362">
        <ele>389.578635</ele>
        <time>2022-08-30T20:14:01.846Z</time>
      </trkpt>
      <trkpt lat="41.71636" lon="-0.70452">
        <ele>388.716625</ele>
        <time>2022-08-30T20:14:16.905Z</time>
      </trkpt>
      <trkpt lat="41.71607" lon="-0.70532">
        <ele>387.016631</ele>
        <time>2022-08-30T20:14:29.313Z</time>
      </trkpt>
      <trkpt lat="41.71624" lon="-0.70548">
        <ele>386.479633</ele>
        <time>2022-08-30T20:14:33.155Z</time>
      </trkpt>
      <trkpt lat="41.71625" lon="-0.70612">
        <ele>385.237406</ele>
        <time>2022-08-30T20:14:41.772Z</time>
      </trkpt>
      <trkpt lat="41.71627" lon="-0.70691">
        <ele>383.581977</ele>
        <time>2022-08-30T20:14:52.047Z</time>
      </trkpt>
      <trkpt lat="41.71627" lon="-0.70745">
        <ele>382.095857</ele>
        <time>2022-08-30T20:14:59.172Z</time>
      </trkpt>
      <trkpt lat="41.71618" lon="-0.70781">
        <ele>381.07157</ele>
        <time>2022-08-30T20:15:04.024Z</time>
      </trkpt>
      <trkpt lat="41.71542" lon="-0.70931">
        <ele>376.205258</ele>
        <time>2022-08-30T20:15:27.866Z</time>
      </trkpt>
      <trkpt lat="41.71541" lon="-0.70969">
        <ele>375.231308</ele>
        <time>2022-08-30T20:15:32.953Z</time>
      </trkpt>
      <trkpt lat="41.71549" lon="-0.71043">
        <ele>373.317609</ele>
        <time>2022-08-30T20:15:42.989Z</time>
      </trkpt>
      <trkpt lat="41.71593" lon="-0.71163">
        <ele>370.264359</ele>
        <time>2022-08-30T20:16:00.297Z</time>
      </trkpt>
      <trkpt lat="41.71583" lon="-0.71197">
        <ele>369.561704</ele>
        <time>2022-08-30T20:16:05.062Z</time>
      </trkpt>
      <trkpt lat="41.71536" lon="-0.71291">
        <ele>367.358091</ele>
        <time>2022-08-30T20:16:20.591Z</time>
      </trkpt>
      <trkpt lat="41.71487" lon="-0.71388">
        <ele>367.009271</ele>
        <time>2022-08-30T20:16:40.269Z</time>
      </trkpt>
      <trkpt lat="41.71395" lon="-0.71428">
        <ele>367.558984</ele>
        <time>2022-08-30T20:17:09.264Z</time>
      </trkpt>
      <trkpt lat="41.7131" lon="-0.71453">
        <ele>366.838047</ele>
        <time>2022-08-30T20:17:34.228Z</time>
      </trkpt>
      <trkpt lat="41.71256" lon="-0.7151">
        <ele>365.934633</ele>
        <time>2022-08-30T20:17:47.920Z</time>
      </trkpt>
      <trkpt lat="41.71211" lon="-0.71572">
        <ele>364.370128</ele>
        <time>2022-08-30T20:17:59.109Z</time>
      </trkpt>
      <trkpt lat="41.71197" lon="-0.71662">
        <ele>360.701641</ele>
        <time>2022-08-30T20:18:10.353Z</time>
      </trkpt>
      <trkpt lat="41.71139" lon="-0.7176">
        <ele>355.67022</ele>
        <time>2022-08-30T20:18:25.530Z</time>
      </trkpt>
      <trkpt lat="41.71123" lon="-0.71771">
        <ele>354.829367</ele>
        <time>2022-08-30T20:18:28.394Z</time>
      </trkpt>
      <trkpt lat="41.71089" lon="-0.7177">
        <ele>353.239856</ele>
        <time>2022-08-30T20:18:33.920Z</time>
      </trkpt>
      <trkpt lat="41.71051" lon="-0.71756">
        <ele>351.378468</ele>
        <time>2022-08-30T20:18:40.535Z</time>
      </trkpt>
      <trkpt lat="41.71009" lon="-0.71838">
        <ele>347.896294</ele>
        <time>2022-08-30T20:18:52.601Z</time>
      </trkpt>
      <trkpt lat="41.70983" lon="-0.71916">
        <ele>345.797494</ele>
        <time>2022-08-30T20:19:03.499Z</time>
      </trkpt>
      <trkpt lat="41.70973" lon="-0.7197">
        <ele>344.607976</ele>
        <time>2022-08-30T20:19:10.841Z</time>
      </trkpt>
      <trkpt lat="41.70966" lon="-0.72033">
        <ele>343.232123</ele>
        <time>2022-08-30T20:19:19.430Z</time>
      </trkpt>
      <trkpt lat="41.70965" lon="-0.72088">
        <ele>342.048494</ele>
        <time>2022-08-30T20:19:26.733Z</time>
      </trkpt>
      <trkpt lat="41.70972" lon="-0.72178">
        <ele>339.441462</ele>
        <time>2022-08-30T20:19:38.392Z</time>
      </trkpt>
      <trkpt lat="41.71035" lon="-0.72683">
        <ele>324.741026</ele>
        <time>2022-08-30T20:20:41.052Z</time>
      </trkpt>
      <trkpt lat="41.71032" lon="-0.72818">
        <ele>320.988596</ele>
        <time>2022-08-30T20:20:58.136Z</time>
      </trkpt>
      <trkpt lat="41.71026" lon="-0.72872">
        <ele>319.631298</ele>
        <time>2022-08-30T20:21:05.093Z</time>
      </trkpt>
      <trkpt lat="41.71007" lon="-0.72972">
        <ele>317.027062</ele>
        <time>2022-08-30T20:21:18.394Z</time>
      </trkpt>
      <trkpt lat="41.70978" lon="-0.73066">
        <ele>314.308739</ele>
        <time>2022-08-30T20:21:31.035Z</time>
      </trkpt>
      <trkpt lat="41.70939" lon="-0.73155">
        <ele>311.223361</ele>
        <time>2022-08-30T20:21:43.512Z</time>
      </trkpt>
      <trkpt lat="41.70861" lon="-0.73302">
        <ele>306.942348</ele>
        <time>2022-08-30T20:22:05.815Z</time>
      </trkpt>
      <trkpt lat="41.70806" lon="-0.73407">
        <ele>304.98728</ele>
        <time>2022-08-30T20:22:23.539Z</time>
      </trkpt>
      <trkpt lat="41.70642" lon="-0.7372">
        <ele>305.161625</ele>
        <time>2022-08-30T20:23:35.460Z</time>
      </trkpt>
      <trkpt lat="41.70577" lon="-0.73873">
        <ele>304.552024</ele>
        <time>2022-08-30T20:24:02.963Z</time>
      </trkpt>
      <trkpt lat="41.70495" lon="-0.74139">
        <ele>300.441027</ele>
        <time>2022-08-30T20:24:42.093Z</time>
      </trkpt>
      <trkpt lat="41.70453" lon="-0.74213">
        <ele>298.822396</ele>
        <time>2022-08-30T20:24:54.532Z</time>
      </trkpt>
      <trkpt lat="41.70381" lon="-0.74305">
        <ele>296.440909</ele>
        <time>2022-08-30T20:25:12.116Z</time>
      </trkpt>
      <trkpt lat="41.70266" lon="-0.74404">
        <ele>293.153667</ele>
        <time>2022-08-30T20:25:36.570Z</time>
      </trkpt>
      <trkpt lat="41.7023" lon="-0.74442">
        <ele>292.19311</ele>
        <time>2022-08-30T20:25:44.825Z</time>
      </trkpt>
      <trkpt lat="41.70195" lon="-0.74483">
        <ele>291.201435</ele>
        <time>2022-08-30T20:25:53.456Z</time>
      </trkpt>
      <trkpt lat="41.70171" lon="-0.74521">
        <ele>290.430419</ele>
        <time>2022-08-30T20:26:00.203Z</time>
      </trkpt>
      <trkpt lat="41.70138" lon="-0.7458">
        <ele>289.211387</ele>
        <time>2022-08-30T20:26:10.445Z</time>
      </trkpt>
      <trkpt lat="41.70116" lon="-0.74635">
        <ele>288.093804</ele>
        <time>2022-08-30T20:26:18.807Z</time>
      </trkpt>
      <trkpt lat="41.70069" lon="-0.74798">
        <ele>285.003415</ele>
        <time>2022-08-30T20:26:41.688Z</time>
      </trkpt>
      <trkpt lat="41.70052" lon="-0.74862">
        <ele>284.101812</ele>
        <time>2022-08-30T20:26:50.859Z</time>
      </trkpt>
      <trkpt lat="41.70013" lon="-0.74966">
        <ele>282.57686</ele>
        <time>2022-08-30T20:27:06.910Z</time>
      </trkpt>
      <trkpt lat="41.69938" lon="-0.75144">
        <ele>281.964354</ele>
        <time>2022-08-30T20:27:39.657Z</time>
      </trkpt>
      <trkpt lat="41.69912" lon="-0.75193">
        <ele>281.930566</ele>
        <time>2022-08-30T20:27:50.759Z</time>
      </trkpt>
      <trkpt lat="41.69888" lon="-0.75227">
        <ele>282.066271</ele>
        <time>2022-08-30T20:27:59.894Z</time>
      </trkpt>
      <trkpt lat="41.69848" lon="-0.75279">
        <ele>282.414858</ele>
        <time>2022-08-30T20:28:14.759Z</time>
      </trkpt>
      <trkpt lat="41.69665" lon="-0.75448">
        <ele>283.269853</ele>
        <time>2022-08-30T20:29:09.823Z</time>
      </trkpt>
      <trkpt lat="41.69435" lon="-0.7571">
        <ele>281.229848</ele>
        <time>2022-08-30T20:30:13.127Z</time>
      </trkpt>
      <trkpt lat="41.69404" lon="-0.75749">
        <ele>280.374863</ele>
        <time>2022-08-30T20:30:20.963Z</time>
      </trkpt>
      <trkpt lat="41.6937" lon="-0.75807">
        <ele>279.27473</ele>
        <time>2022-08-30T20:30:30.563Z</time>
      </trkpt>
      <trkpt lat="41.69337" lon="-0.75878">
        <ele>276.920616</ele>
        <time>2022-08-30T20:30:40.986Z</time>
      </trkpt>
      <trkpt lat="41.69302" lon="-0.75972">
        <ele>273.380249</ele>
        <time>2022-08-30T20:30:53.616Z</time>
      </trkpt>
      <trkpt lat="41.69258" lon="-0.76063">
        <ele>269.688426</ele>
        <time>2022-08-30T20:31:06.187Z</time>
      </trkpt>
      <trkpt lat="41.69165" lon="-0.76222">
        <ele>262.578236</ele>
        <time>2022-08-30T20:31:30.496Z</time>
      </trkpt>
      <trkpt lat="41.69142" lon="-0.76276">
        <ele>261.04881</ele>
        <time>2022-08-30T20:31:38.134Z</time>
      </trkpt>
      <trkpt lat="41.69127" lon="-0.7632">
        <ele>259.92308</ele>
        <time>2022-08-30T20:31:44.200Z</time>
      </trkpt>
      <trkpt lat="41.6908" lon="-0.76523">
        <ele>255.328352</ele>
        <time>2022-08-30T20:32:12.509Z</time>
      </trkpt>
      <trkpt lat="41.6906" lon="-0.76594">
        <ele>253.892962</ele>
        <time>2022-08-30T20:32:22.632Z</time>
      </trkpt>
      <trkpt lat="41.69027" lon="-0.76661">
        <ele>252.374983</ele>
        <time>2022-08-30T20:32:33.264Z</time>
      </trkpt>
      <trkpt lat="41.68942" lon="-0.76807">
        <ele>247.920159</ele>
        <time>2022-08-30T20:32:57.134Z</time>
      </trkpt>
      <trkpt lat="41.68948" lon="-0.76811">
        <ele>247.695002</ele>
        <time>2022-08-30T20:32:58.405Z</time>
      </trkpt>
      <trkpt lat="41.68946" lon="-0.76822">
        <ele>247.394303</ele>
        <time>2022-08-30T20:32:59.978Z</time>
      </trkpt>
      <trkpt lat="41.6892" lon="-0.76849">
        <ele>246.325602</ele>
        <time>2022-08-30T20:33:05.581Z</time>
      </trkpt>
      <trkpt lat="41.68917" lon="-0.76885">
        <ele>245.26499</ele>
        <time>2022-08-30T20:33:10.167Z</time>
      </trkpt>
      <trkpt lat="41.689" lon="-0.76952">
        <ele>243.170367</ele>
        <time>2022-08-30T20:33:19.167Z</time>
      </trkpt>
      <trkpt lat="41.68898" lon="-0.76981">
        <ele>242.303254</ele>
        <time>2022-08-30T20:33:22.981Z</time>
      </trkpt>
      <trkpt lat="41.68896" lon="-0.77021">
        <ele>241.115574</ele>
        <time>2022-08-30T20:33:28.177Z</time>
      </trkpt>
      <trkpt lat="41.68861" lon="-0.77035">
        <ele>239.651617</ele>
        <time>2022-08-30T20:33:34.634Z</time>
      </trkpt>
      <trkpt lat="41.68843" lon="-0.77052">
        <ele>238.888778</ele>
        <time>2022-08-30T20:33:38.356Z</time>
      </trkpt>
      <trkpt lat="41.68802" lon="-0.77149">
        <ele>236.405892</ele>
        <time>2022-08-30T20:33:53.093Z</time>
      </trkpt>
      <trkpt lat="41.68818" lon="-0.77174">
        <ele>235.673737</ele>
        <time>2022-08-30T20:33:57.539Z</time>
      </trkpt>
      <trkpt lat="41.68763" lon="-0.77219">
        <ele>233.751875</ele>
        <time>2022-08-30T20:34:09.790Z</time>
      </trkpt>
      <trkpt lat="41.68682" lon="-0.77284">
        <ele>231.616964</ele>
        <time>2022-08-30T20:34:27.928Z</time>
      </trkpt>
      <trkpt lat="41.68658" lon="-0.77307">
        <ele>230.956819</ele>
        <time>2022-08-30T20:34:33.389Z</time>
      </trkpt>
      <trkpt lat="41.68651" lon="-0.77314">
        <ele>230.759988</ele>
        <time>2022-08-30T20:34:35.042Z</time>
      </trkpt>
      <trkpt lat="41.68653" lon="-0.77329">
        <ele>230.49026</ele>
        <time>2022-08-30T20:34:37.195Z</time>
      </trkpt>
      <trkpt lat="41.6863" lon="-0.77462">
        <ele>228.248672</ele>
        <time>2022-08-30T20:34:55.996Z</time>
      </trkpt>
      <trkpt lat="41.68611" lon="-0.77562">
        <ele>226.568824</ele>
        <time>2022-08-30T20:35:10.593Z</time>
      </trkpt>
      <trkpt lat="41.68568" lon="-0.77555">
        <ele>225.668351</ele>
        <time>2022-08-30T20:35:19.315Z</time>
      </trkpt>
      <trkpt lat="41.6853" lon="-0.77549">
        <ele>225.106291</ele>
        <time>2022-08-30T20:35:26.851Z</time>
      </trkpt>
      <trkpt lat="41.68524" lon="-0.77574">
        <ele>224.815776</ele>
        <time>2022-08-30T20:35:30.693Z</time>
      </trkpt>
      <trkpt lat="41.68494" lon="-0.77562">
        <ele>224.345913</ele>
        <time>2022-08-30T20:35:37.111Z</time>
      </trkpt>
      <trkpt lat="41.68453" lon="-0.77546">
        <ele>223.710469</ele>
        <time>2022-08-30T20:35:45.956Z</time>
      </trkpt>
      <trkpt lat="41.68428" lon="-0.77536">
        <ele>223.329743</ele>
        <time>2022-08-30T20:35:51.185Z</time>
      </trkpt>
      <trkpt lat="41.68397" lon="-0.77523">
        <ele>222.702266</ele>
        <time>2022-08-30T20:35:57.703Z</time>
      </trkpt>
      <trkpt lat="41.68234" lon="-0.77802">
        <ele>217.158909</ele>
        <time>2022-08-30T20:36:44.815Z</time>
      </trkpt>
      <trkpt lat="41.68216" lon="-0.77847">
        <ele>216.430896</ele>
        <time>2022-08-30T20:36:51.973Z</time>
      </trkpt>
      <trkpt lat="41.68049" lon="-0.7828">
        <ele>213.588896</ele>
        <time>2022-08-30T20:38:06.333Z</time>
      </trkpt>
      <trkpt lat="41.67968" lon="-0.78491">
        <ele>213.512412</ele>
        <time>2022-08-30T20:38:46.678Z</time>
      </trkpt>
      <trkpt lat="41.67931" lon="-0.78588">
        <ele>213.560103</ele>
        <time>2022-08-30T20:39:05.177Z</time>
      </trkpt>
      <trkpt lat="41.67905" lon="-0.78686">
        <ele>213.596606</ele>
        <time>2022-08-30T20:39:22.486Z</time>
      </trkpt>
      <trkpt lat="41.67738" lon="-0.79337">
        <ele>213.871819</ele>
        <time>2022-08-30T20:41:17.802Z</time>
      </trkpt>
      <trkpt lat="41.67733" lon="-0.79357">
        <ele>213.890106</ele>
        <time>2022-08-30T20:41:21.598Z</time>
      </trkpt>
      <trkpt lat="41.6768" lon="-0.79567">
        <ele>214.093267</ele>
        <time>2022-08-30T20:42:00.307Z</time>
      </trkpt>
      <trkpt lat="41.67559" lon="-0.80041">
        <ele>214.137931</ele>
        <time>2022-08-30T20:43:23.540Z</time>
      </trkpt>
      <trkpt lat="41.67422" lon="-0.80567">
        <ele>213.440095</ele>
        <time>2022-08-30T20:44:54.244Z</time>
      </trkpt>
      <trkpt lat="41.67358" lon="-0.80804">
        <ele>212.387362</ele>
        <time>2022-08-30T20:45:32.667Z</time>
      </trkpt>
      <trkpt lat="41.67334" lon="-0.80867">
        <ele>212.430695</ele>
        <time>2022-08-30T20:45:44.522Z</time>
      </trkpt>
      <trkpt lat="41.67225" lon="-0.81077">
        <ele>212.382641</ele>
        <time>2022-08-30T20:46:30.002Z</time>
      </trkpt>
      <trkpt lat="41.67142" lon="-0.81233">
        <ele>211.885469</ele>
        <time>2022-08-30T20:46:59.458Z</time>
      </trkpt>
      <trkpt lat="41.67125" lon="-0.81282">
        <ele>211.711822</ele>
        <time>2022-08-30T20:47:07.315Z</time>
      </trkpt>
      <trkpt lat="41.67112" lon="-0.81351">
        <ele>211.486997</ele>
        <time>2022-08-30T20:47:18.126Z</time>
      </trkpt>
      <trkpt lat="41.67111" lon="-0.81459">
        <ele>211.361596</ele>
        <time>2022-08-30T20:47:36.876Z</time>
      </trkpt>
      <trkpt lat="41.67112" lon="-0.8153">
        <ele>211.748837</ele>
        <time>2022-08-30T20:47:50.241Z</time>
      </trkpt>
      <trkpt lat="41.67109" lon="-0.81566">
        <ele>211.950244</ele>
        <time>2022-08-30T20:47:57.384Z</time>
      </trkpt>
      <trkpt lat="41.67101" lon="-0.81636">
        <ele>212.337799</ele>
        <time>2022-08-30T20:48:11.631Z</time>
      </trkpt>
      <trkpt lat="41.67103" lon="-0.8166">
        <ele>212.472908</ele>
        <time>2022-08-30T20:48:16.795Z</time>
      </trkpt>
      <trkpt lat="41.67109" lon="-0.81667">
        <ele>212.528114</ele>
        <time>2022-08-30T20:48:18.943Z</time>
      </trkpt>
      <trkpt lat="41.67114" lon="-0.81695">
        <ele>212.618362</ele>
        <time>2022-08-30T20:48:25.124Z</time>
      </trkpt>
      <trkpt lat="41.6711" lon="-0.81706">
        <ele>212.65041</ele>
        <time>2022-08-30T20:48:27.555Z</time>
      </trkpt>
      <trkpt lat="41.67095" lon="-0.8172">
        <ele>212.716656</ele>
        <time>2022-08-30T20:48:32.320Z</time>
      </trkpt>
      <trkpt lat="41.67077" lon="-0.81716">
        <ele>212.783788</ele>
        <time>2022-08-30T20:48:37.060Z</time>
      </trkpt>
      <trkpt lat="41.67045" lon="-0.81734">
        <ele>212.910832</ele>
        <time>2022-08-30T20:48:45.468Z</time>
      </trkpt>
      <trkpt lat="41.67042" lon="-0.81739">
        <ele>212.928393</ele>
        <time>2022-08-30T20:48:46.596Z</time>
      </trkpt>
      <trkpt lat="41.66953" lon="-0.8185">
        <ele>213.120872</ele>
        <time>2022-08-30T20:49:13.075Z</time>
      </trkpt>
      <trkpt lat="41.66907" lon="-0.81905">
        <ele>213.001618</ele>
        <time>2022-08-30T20:49:26.417Z</time>
      </trkpt>
      <trkpt lat="41.66897" lon="-0.81931">
        <ele>212.959789</ele>
        <time>2022-08-30T20:49:31.030Z</time>
      </trkpt>
      <trkpt lat="41.66895" lon="-0.81961">
        <ele>212.916174</ele>
        <time>2022-08-30T20:49:35.958Z</time>
      </trkpt>
      <trkpt lat="41.66891" lon="-0.81968">
        <ele>212.904183</ele>
        <time>2022-08-30T20:49:37.295Z</time>
      </trkpt>
      <trkpt lat="41.66902" lon="-0.81999">
        <ele>212.867139</ele>
        <time>2022-08-30T20:49:42.922Z</time>
      </trkpt>
      <trkpt lat="41.66916" lon="-0.8203">
        <ele>212.902903</ele>
        <time>2022-08-30T20:49:48.746Z</time>
      </trkpt>
      <trkpt lat="41.66945" lon="-0.82102">
        <ele>212.985614</ele>
        <time>2022-08-30T20:50:02.586Z</time>
      </trkpt>
      <trkpt lat="41.66988" lon="-0.82277">
        <ele>213.129604</ele>
        <time>2022-08-30T20:50:35.333Z</time>
      </trkpt>
      <trkpt lat="41.66989" lon="-0.82282">
        <ele>213.131711</ele>
        <time>2022-08-30T20:50:36.338Z</time>
      </trkpt>
      <trkpt lat="41.66991" lon="-0.82288">
        <ele>213.134444</ele>
        <time>2022-08-30T20:50:37.644Z</time>
      </trkpt>
      <trkpt lat="41.67032" lon="-0.82466">
        <ele>213.115682</ele>
        <time>2022-08-30T20:51:08.700Z</time>
      </trkpt>
      <trkpt lat="41.67079" lon="-0.82626">
        <ele>212.523459</ele>
        <time>2022-08-30T20:51:34.772Z</time>
      </trkpt>
      <trkpt lat="41.67136" lon="-0.8279">
        <ele>212.514392</ele>
        <time>2022-08-30T20:52:04.073Z</time>
      </trkpt>
      <trkpt lat="41.67182" lon="-0.82922">
        <ele>212.733969</ele>
        <time>2022-08-30T20:52:31.843Z</time>
      </trkpt>
      <trkpt lat="41.67187" lon="-0.82939">
        <ele>212.780644</ele>
        <time>2022-08-30T20:52:35.417Z</time>
      </trkpt>
      <trkpt lat="41.672" lon="-0.82974">
        <ele>212.88105</ele>
        <time>2022-08-30T20:52:43.035Z</time>
      </trkpt>
      <trkpt lat="41.67201" lon="-0.82977">
        <ele>212.891762</ele>
        <time>2022-08-30T20:52:43.864Z</time>
      </trkpt>
      <trkpt lat="41.67247" lon="-0.83076">
        <ele>213.1948</ele>
        <time>2022-08-30T20:53:04.863Z</time>
      </trkpt>
      <trkpt lat="41.67279" lon="-0.83131">
        <ele>212.905313</ele>
        <time>2022-08-30T20:53:15.609Z</time>
      </trkpt>
      <trkpt lat="41.67294" lon="-0.83147">
        <ele>212.717093</ele>
        <time>2022-08-30T20:53:19.682Z</time>
      </trkpt>
      <trkpt lat="41.67315" lon="-0.83147">
        <ele>212.505124</ele>
        <time>2022-08-30T20:53:24.034Z</time>
      </trkpt>
      <trkpt lat="41.67291" lon="-0.83219">
        <ele>211.915557</ele>
        <time>2022-08-30T20:53:35.593Z</time>
      </trkpt>
      <trkpt lat="41.67287" lon="-0.83238">
        <ele>211.774183</ele>
        <time>2022-08-30T20:53:38.297Z</time>
      </trkpt>
      <trkpt lat="41.67284" lon="-0.8326">
        <ele>211.609041</ele>
        <time>2022-08-30T20:53:41.404Z</time>
      </trkpt>
      <trkpt lat="41.67277" lon="-0.83339">
        <ele>210.760622</ele>
        <time>2022-08-30T20:53:52.815Z</time>
      </trkpt>
      <trkpt lat="41.67276" lon="-0.83347">
        <ele>210.674622</ele>
        <time>2022-08-30T20:53:53.866Z</time>
      </trkpt>
      <trkpt lat="41.67264" lon="-0.83445">
        <ele>209.518936</ele>
        <time>2022-08-30T20:54:07.665Z</time>
      </trkpt>
      <trkpt lat="41.67237" lon="-0.83523">
        <ele>208.545522</ele>
        <time>2022-08-30T20:54:20.127Z</time>
      </trkpt>
      <trkpt lat="41.67226" lon="-0.83577">
        <ele>208.018559</ele>
        <time>2022-08-30T20:54:28.129Z</time>
      </trkpt>
      <trkpt lat="41.6723" lon="-0.83603">
        <ele>207.766153</ele>
        <time>2022-08-30T20:54:31.915Z</time>
      </trkpt>
      <trkpt lat="41.67219" lon="-0.83625">
        <ele>207.514937</ele>
        <time>2022-08-30T20:54:35.723Z</time>
      </trkpt>
      <trkpt lat="41.67205" lon="-0.8363">
        <ele>207.334766</ele>
        <time>2022-08-30T20:54:38.463Z</time>
      </trkpt>
      <trkpt lat="41.67183" lon="-0.83648">
        <ele>207.013332</ele>
        <time>2022-08-30T20:54:43.315Z</time>
      </trkpt>
      <trkpt lat="41.67173" lon="-0.83656">
        <ele>206.858377</ele>
        <time>2022-08-30T20:54:45.664Z</time>
      </trkpt>
      <trkpt lat="41.67162" lon="-0.83672">
        <ele>206.65395</ele>
        <time>2022-08-30T20:54:48.728Z</time>
      </trkpt>
      <trkpt lat="41.67096" lon="-0.83784">
        <ele>205.858993</ele>
        <time>2022-08-30T20:55:10.231Z</time>
      </trkpt>
      <trkpt lat="41.67079" lon="-0.83813">
        <ele>205.690391</ele>
        <time>2022-08-30T20:55:16.289Z</time>
      </trkpt>
      <trkpt lat="41.67066" lon="-0.83837">
        <ele>205.551823</ele>
        <time>2022-08-30T20:55:21.134Z</time>
      </trkpt>
      <trkpt lat="41.67036" lon="-0.83863">
        <ele>205.33064</ele>
        <time>2022-08-30T20:55:28.784Z</time>
      </trkpt>
      <trkpt lat="41.67029" lon="-0.83867">
        <ele>205.286075</ele>
        <time>2022-08-30T20:55:30.374Z</time>
      </trkpt>
      <trkpt lat="41.67021" lon="-0.83872">
        <ele>205.198534</ele>
        <time>2022-08-30T20:55:32.149Z</time>
      </trkpt>
      <trkpt lat="41.6699" lon="-0.83892">
        <ele>204.807172</ele>
        <time>2022-08-30T20:55:39.300Z</time>
      </trkpt>
      <trkpt lat="41.66985" lon="-0.83903">
        <ele>204.695201</ele>
        <time>2022-08-30T20:55:41.341Z</time>
      </trkpt>
      <trkpt lat="41.66983" lon="-0.83923">
        <ele>204.525886</ele>
        <time>2022-08-30T20:55:44.262Z</time>
      </trkpt>
      <trkpt lat="41.67038" lon="-0.84004">
        <ele>203.601759</ele>
        <time>2022-08-30T20:56:00.060Z</time>
      </trkpt>
      <trkpt lat="41.67049" lon="-0.84019">
        <ele>203.430071</ele>
        <time>2022-08-30T20:56:03.157Z</time>
      </trkpt>
      <trkpt lat="41.67075" lon="-0.84056">
        <ele>202.996719</ele>
        <time>2022-08-30T20:56:10.399Z</time>
      </trkpt>
      <trkpt lat="41.6709" lon="-0.84114">
        <ele>202.466608</ele>
        <time>2022-08-30T20:56:18.848Z</time>
      </trkpt>
      <trkpt lat="41.67106" lon="-0.84287">
        <ele>201.221308</ele>
        <time>2022-08-30T20:56:44.710Z</time>
      </trkpt>
      <trkpt lat="41.67107" lon="-0.84327">
        <ele>201.279656</ele>
        <time>2022-08-30T20:56:51.703Z</time>
      </trkpt>
      <trkpt lat="41.67103" lon="-0.84372">
        <ele>201.346982</ele>
        <time>2022-08-30T20:57:00.193Z</time>
      </trkpt>
      <trkpt lat="41.67099" lon="-0.84389">
        <ele>201.371775</ele>
        <time>2022-08-30T20:57:03.193Z</time>
      </trkpt>
      <trkpt lat="41.67085" lon="-0.84419">
        <ele>201.424857</ele>
        <time>2022-08-30T20:57:10.017Z</time>
      </trkpt>
      <trkpt lat="41.67068" lon="-0.84462">
        <ele>201.495513</ele>
        <time>2022-08-30T20:57:19.124Z</time>
      </trkpt>
      <trkpt lat="41.6706" lon="-0.84482">
        <ele>201.528933</ele>
        <time>2022-08-30T20:57:23.415Z</time>
      </trkpt>
      <trkpt lat="41.67057" lon="-0.84487">
        <ele>201.537464</ele>
        <time>2022-08-30T20:57:24.535Z</time>
      </trkpt>
      <trkpt lat="41.67062" lon="-0.84503">
        <ele>201.521165</ele>
        <time>2022-08-30T20:57:28.188Z</time>
      </trkpt>
      <trkpt lat="41.67061" lon="-0.84518">
        <ele>201.507171</ele>
        <time>2022-08-30T20:57:30.871Z</time>
      </trkpt>
      <trkpt lat="41.67021" lon="-0.84617">
        <ele>201.399359</ele>
        <time>2022-08-30T20:57:49.764Z</time>
      </trkpt>
      <trkpt lat="41.66991" lon="-0.84689">
        <ele>201.320623</ele>
        <time>2022-08-30T20:58:03.560Z</time>
      </trkpt>
      <trkpt lat="41.66944" lon="-0.84798">
        <ele>200.532425</ele>
        <time>2022-08-30T20:58:24.116Z</time>
      </trkpt>
      <trkpt lat="41.66938" lon="-0.84805">
        <ele>200.459267</ele>
        <time>2022-08-30T20:58:25.721Z</time>
      </trkpt>
      <trkpt lat="41.66925" lon="-0.84803">
        <ele>200.336832</ele>
        <time>2022-08-30T20:58:28.547Z</time>
      </trkpt>
      <trkpt lat="41.66909" lon="-0.84841">
        <ele>200.038727</ele>
        <time>2022-08-30T20:58:34.790Z</time>
      </trkpt>
      <trkpt lat="41.66919" lon="-0.84847">
        <ele>199.937335</ele>
        <time>2022-08-30T20:58:36.953Z</time>
      </trkpt>
      <trkpt lat="41.66906" lon="-0.84877">
        <ele>199.693786</ele>
        <time>2022-08-30T20:58:41.986Z</time>
      </trkpt>
      <trkpt lat="41.66904" lon="-0.84881">
        <ele>199.661383</ele>
        <time>2022-08-30T20:58:42.657Z</time>
      </trkpt>
      <trkpt lat="41.6689" lon="-0.84916">
        <ele>199.272078</ele>
        <time>2022-08-30T20:58:48.471Z</time>
      </trkpt>
      <trkpt lat="41.6686" lon="-0.84987">
        <ele>198.442261</ele>
        <time>2022-08-30T20:59:00.198Z</time>
      </trkpt>
      <trkpt lat="41.66811" lon="-0.85104">
        <ele>197.174388</ele>
        <time>2022-08-30T20:59:19.412Z</time>
      </trkpt>
      <trkpt lat="41.66807" lon="-0.85114">
        <ele>197.136826</ele>
        <time>2022-08-30T20:59:21.200Z</time>
      </trkpt>
      <trkpt lat="41.66799" lon="-0.85131">
        <ele>197.076295</ele>
        <time>2022-08-30T20:59:24.068Z</time>
      </trkpt>
      <trkpt lat="41.66785" lon="-0.85166">
        <ele>196.954963</ele>
        <time>2022-08-30T20:59:30.254Z</time>
      </trkpt>
      <trkpt lat="41.6677" lon="-0.85202">
        <ele>196.824849</ele>
        <time>2022-08-30T20:59:36.922Z</time>
      </trkpt>
      <trkpt lat="41.6676" lon="-0.85196">
        <ele>196.780293</ele>
        <time>2022-08-30T20:59:39.323Z</time>
      </trkpt>
      <trkpt lat="41.66751" lon="-0.85215">
        <ele>196.711582</ele>
        <time>2022-08-30T20:59:43.070Z</time>
      </trkpt>
      <trkpt lat="41.66743" lon="-0.85235">
        <ele>196.641186</ele>
        <time>2022-08-30T20:59:46.859Z</time>
      </trkpt>
      <trkpt lat="41.66752" lon="-0.8524">
        <ele>196.601515</ele>
        <time>2022-08-30T20:59:49.236Z</time>
      </trkpt>
      <trkpt lat="41.66748" lon="-0.85259">
        <ele>196.542085</ele>
        <time>2022-08-30T20:59:52.782Z</time>
      </trkpt>
      <trkpt lat="41.66719" lon="-0.85328">
        <ele>196.649231</ele>
        <time>2022-08-30T21:00:07.139Z</time>
      </trkpt>
      <trkpt lat="41.66699" lon="-0.85374">
        <ele>196.827968</ele>
        <time>2022-08-30T21:00:16.246Z</time>
      </trkpt>
      <trkpt lat="41.66683" lon="-0.85413">
        <ele>196.979809</ele>
        <time>2022-08-30T21:00:24.739Z</time>
      </trkpt>
      <trkpt lat="41.6667" lon="-0.85444">
        <ele>197.100191</ele>
        <time>2022-08-30T21:00:32.159Z</time>
      </trkpt>
      <trkpt lat="41.66635" lon="-0.85529">
        <ele>197.577004</ele>
        <time>2022-08-30T21:00:52.384Z</time>
      </trkpt>
      <trkpt lat="41.66624" lon="-0.85542">
        <ele>197.714609</ele>
        <time>2022-08-30T21:00:56.157Z</time>
      </trkpt>
      <trkpt lat="41.66611" lon="-0.8555">
        <ele>197.836807</ele>
        <time>2022-08-30T21:00:59.905Z</time>
      </trkpt>
      <trkpt lat="41.66595" lon="-0.85588">
        <ele>198.134061</ele>
        <time>2022-08-30T21:01:08.711Z</time>
      </trkpt>
      <trkpt lat="41.6659" lon="-0.85599">
        <ele>198.22303</ele>
        <time>2022-08-30T21:01:11.723Z</time>
      </trkpt>
      <trkpt lat="41.66573" lon="-0.8564">
        <ele>198.538704</ele>
        <time>2022-08-30T21:01:22.164Z</time>
      </trkpt>
      <trkpt lat="41.66566" lon="-0.85635">
        <ele>198.61458</ele>
        <time>2022-08-30T21:01:24.440Z</time>
      </trkpt>
      <trkpt lat="41.66562" lon="-0.85642">
        <ele>198.676345</ele>
        <time>2022-08-30T21:01:26.208Z</time>
      </trkpt>
      <trkpt lat="41.66536" lon="-0.857">
        <ele>198.794264</ele>
        <time>2022-08-30T21:01:39.509Z</time>
      </trkpt>
      <trkpt lat="41.66519" lon="-0.85722">
        <ele>198.690302</ele>
        <time>2022-08-30T21:01:45.124Z</time>
      </trkpt>
      <trkpt lat="41.66472" lon="-0.85738">
        <ele>198.479614</ele>
        <time>2022-08-30T21:01:55.728Z</time>
      </trkpt>
      <trkpt lat="41.66466" lon="-0.85738">
        <ele>198.452177</ele>
        <time>2022-08-30T21:01:57.111Z</time>
      </trkpt>
      <trkpt lat="41.66434" lon="-0.85731">
        <ele>198.311406</ele>
        <time>2022-08-30T21:02:03.797Z</time>
      </trkpt>
      <trkpt lat="41.66399" lon="-0.85709">
        <ele>198.14237</ele>
        <time>2022-08-30T21:02:11.894Z</time>
      </trkpt>
      <trkpt lat="41.66319" lon="-0.85649">
        <ele>197.417725</ele>
        <time>2022-08-30T21:02:30.292Z</time>
      </trkpt>
      <trkpt lat="41.66271" lon="-0.85612">
        <ele>196.973885</ele>
        <time>2022-08-30T21:02:41.229Z</time>
      </trkpt>
      <trkpt lat="41.66264" lon="-0.85582">
        <ele>196.779793</ele>
        <time>2022-08-30T21:02:47.053Z</time>
      </trkpt>
      <trkpt lat="41.66259" lon="-0.85565">
        <ele>196.671133</ele>
        <time>2022-08-30T21:02:50.627Z</time>
      </trkpt>
      <trkpt lat="41.66262" lon="-0.85551">
        <ele>196.80655</ele>
        <time>2022-08-30T21:02:53.928Z</time>
      </trkpt>
      <trkpt lat="41.66256" lon="-0.85545">
        <ele>196.910557</ele>
        <time>2022-08-30T21:02:55.932Z</time>
      </trkpt>
      <trkpt lat="41.66247" lon="-0.85565">
        <ele>197.154659</ele>
        <time>2022-08-30T21:03:01.292Z</time>
      </trkpt>
      <trkpt lat="41.66252" lon="-0.85573">
        <ele>197.261404</ele>
        <time>2022-08-30T21:03:03.843Z</time>
      </trkpt>
      <trkpt lat="41.66257" lon="-0.85596">
        <ele>197.506952</ele>
        <time>2022-08-30T21:03:09.093Z</time>
      </trkpt>
      <trkpt lat="41.66255" lon="-0.85613">
        <ele>197.687106</ele>
        <time>2022-08-30T21:03:13.073Z</time>
      </trkpt>
      <trkpt lat="41.6625" lon="-0.85627">
        <ele>197.848593</ele>
        <time>2022-08-30T21:03:16.746Z</time>
      </trkpt>
      <trkpt lat="41.66231" lon="-0.85644">
        <ele>198.160418</ele>
        <time>2022-08-30T21:03:23.456Z</time>
      </trkpt>
      <trkpt lat="41.66214" lon="-0.85644">
        <ele>198.396797</ele>
        <time>2022-08-30T21:03:28.779Z</time>
      </trkpt>
      <trkpt lat="41.66199" lon="-0.85656">
        <ele>198.645455</ele>
        <time>2022-08-30T21:03:34.397Z</time>
      </trkpt>
      <trkpt lat="41.66188" lon="-0.85673">
        <ele>198.866573</ele>
        <time>2022-08-30T21:03:39.708Z</time>
      </trkpt>
      <trkpt lat="41.66179" lon="-0.85718">
        <ele>199.179245</ele>
        <time>2022-08-30T21:03:50.308Z</time>
      </trkpt>
      <trkpt lat="41.66148" lon="-0.85715">
        <ele>199.246305</ele>
        <time>2022-08-30T21:03:59.206Z</time>
      </trkpt>
      <trkpt lat="41.66112" lon="-0.85719">
        <ele>199.322431</ele>
        <time>2022-08-30T21:04:08.575Z</time>
      </trkpt>
      <trkpt lat="41.66069" lon="-0.85723">
        <ele>199.416158</ele>
        <time>2022-08-30T21:04:18.167Z</time>
      </trkpt>
      <trkpt lat="41.66069" lon="-0.85733">
        <ele>199.432975</ele>
        <time>2022-08-30T21:04:19.624Z</time>
      </trkpt>
      <trkpt lat="41.66076" lon="-0.85886">
        <ele>199.127687</ele>
        <time>2022-08-30T21:04:42.466Z</time>
      </trkpt>
      <trkpt lat="41.66039" lon="-0.85889">
        <ele>198.904942</ele>
        <time>2022-08-30T21:04:50.139Z</time>
      </trkpt>
      <trkpt lat="41.65959" lon="-0.85896">
        <ele>198.406257</ele>
        <time>2022-08-30T21:05:07.185Z</time>
      </trkpt>
      <trkpt lat="41.65933" lon="-0.85897">
        <ele>198.19874</ele>
        <time>2022-08-30T21:05:12.764Z</time>
      </trkpt>
      <trkpt lat="41.6592" lon="-0.85898">
        <ele>198.094981</ele>
        <time>2022-08-30T21:05:16.109Z</time>
      </trkpt>
      <trkpt lat="41.65881" lon="-0.85901">
        <ele>197.782636</ele>
        <time>2022-08-30T21:05:24.285Z</time>
      </trkpt>
      <trkpt lat="41.65878" lon="-0.85901">
        <ele>197.753648</ele>
        <time>2022-08-30T21:05:24.853Z</time>
      </trkpt>
      <trkpt lat="41.65878" lon="-0.85911">
        <ele>197.6954</ele>
        <time>2022-08-30T21:05:26.203Z</time>
      </trkpt>
      <trkpt lat="41.65873" lon="-0.85913">
        <ele>197.654229</ele>
        <time>2022-08-30T21:05:27.729Z</time>
      </trkpt>
      <trkpt lat="41.65863" lon="-0.85914">
        <ele>197.572114</ele>
        <time>2022-08-30T21:05:30.473Z</time>
      </trkpt>
      <trkpt lat="41.65856" lon="-0.85921">
        <ele>197.505751</ele>
        <time>2022-08-30T21:05:32.989Z</time>
      </trkpt>
      <trkpt lat="41.6586" lon="-0.86019">
        <ele>196.870387</ele>
        <time>2022-08-30T21:05:47.706Z</time>
      </trkpt>
      <trkpt lat="41.65856" lon="-0.86019">
        <ele>196.814616</ele>
        <time>2022-08-30T21:05:48.428Z</time>
      </trkpt>
      <trkpt lat="41.65851" lon="-0.8602">
        <ele>196.756216</ele>
        <time>2022-08-30T21:05:49.195Z</time>
      </trkpt>
      <trkpt lat="41.65856" lon="-0.86109">
        <ele>195.926086</ele>
        <time>2022-08-30T21:06:02.731Z</time>
      </trkpt>
      <trkpt lat="41.65853" lon="-0.86118">
        <ele>195.836718</ele>
        <time>2022-08-30T21:06:04.017Z</time>
      </trkpt>
      <trkpt lat="41.65817" lon="-0.86126">
        <ele>195.38392</ele>
        <time>2022-08-30T21:06:11.468Z</time>
      </trkpt>
      <trkpt lat="41.65812" lon="-0.86129">
        <ele>195.314493</ele>
        <time>2022-08-30T21:06:12.907Z</time>
      </trkpt>
      <trkpt lat="41.65807" lon="-0.86132">
        <ele>195.245112</ele>
        <time>2022-08-30T21:06:14.307Z</time>
      </trkpt>
      <trkpt lat="41.65801" lon="-0.86125">
        <ele>195.150214</ele>
        <time>2022-08-30T21:06:16.111Z</time>
      </trkpt>
      <trkpt lat="41.65797" lon="-0.86131">
        <ele>195.075103</ele>
        <time>2022-08-30T21:06:17.405Z</time>
      </trkpt>
      <trkpt lat="41.65794" lon="-0.86135">
        <ele>195.025215</ele>
        <time>2022-08-30T21:06:18.060Z</time>
      </trkpt>
      <trkpt lat="41.6579" lon="-0.86131">
        <ele>194.95835</ele>
        <time>2022-08-30T21:06:18.971Z</time>
      </trkpt>
      <trkpt lat="41.65748" lon="-0.86088">
        <ele>194.822157</ele>
        <time>2022-08-30T21:06:30.915Z</time>
      </trkpt>
      <trkpt lat="41.65704" lon="-0.8606">
        <ele>194.885072</ele>
        <time>2022-08-30T21:06:42.124Z</time>
      </trkpt>
      <trkpt lat="41.65656" lon="-0.86047">
        <ele>194.948058</ele>
        <time>2022-08-30T21:06:54.524Z</time>
      </trkpt>
      <trkpt lat="41.65602" lon="-0.86049">
        <ele>195.019464</ele>
        <time>2022-08-30T21:07:07.861Z</time>
      </trkpt>
      <trkpt lat="41.65561" lon="-0.86064">
        <ele>195.08657</ele>
        <time>2022-08-30T21:07:17.154Z</time>
      </trkpt>
      <trkpt lat="41.65499" lon="-0.86102">
        <ele>195.193033</ele>
        <time>2022-08-30T21:07:32.055Z</time>
      </trkpt>
      <trkpt lat="41.65448" lon="-0.86137">
        <ele>195.282282</ele>
        <time>2022-08-30T21:07:45.989Z</time>
      </trkpt>
      <trkpt lat="41.65433" lon="-0.86147">
        <ele>195.44121</ele>
        <time>2022-08-30T21:07:49.889Z</time>
      </trkpt>
      <trkpt lat="41.65427" lon="-0.86152">
        <ele>195.524091</ele>
        <time>2022-08-30T21:07:51.644Z</time>
      </trkpt>
      <trkpt lat="41.65152" lon="-0.86336">
        <ele>198.999831</ele>
        <time>2022-08-30T21:09:23.063Z</time>
      </trkpt>
      <trkpt lat="41.65089" lon="-0.86381">
        <ele>199.682918</ele>
        <time>2022-08-30T21:09:41.767Z</time>
      </trkpt>
      <trkpt lat="41.65051" lon="-0.86407">
        <ele>200.023864</ele>
        <time>2022-08-30T21:09:53.211Z</time>
      </trkpt>
      <trkpt lat="41.65048" lon="-0.86409">
        <ele>200.056292</ele>
        <time>2022-08-30T21:09:54.381Z</time>
      </trkpt>
      <trkpt lat="41.6503" lon="-0.86422">
        <ele>200.220636</ele>
        <time>2022-08-30T21:10:00.042Z</time>
      </trkpt>
      <trkpt lat="41.65023" lon="-0.86426">
        <ele>200.28306</ele>
        <time>2022-08-30T21:10:02.460Z</time>
      </trkpt>
      <trkpt lat="41.64995" lon="-0.86446">
        <ele>200.531716</ele>
        <time>2022-08-30T21:10:11.320Z</time>
      </trkpt>
      <trkpt lat="41.64968" lon="-0.86474">
        <ele>200.806011</ele>
        <time>2022-08-30T21:10:20.598Z</time>
      </trkpt>
      <trkpt lat="41.64939" lon="-0.86518">
        <ele>200.953332</ele>
        <time>2022-08-30T21:10:31.785Z</time>
      </trkpt>
      <trkpt lat="41.64915" lon="-0.86575">
        <ele>201.11469</ele>
        <time>2022-08-30T21:10:42.945Z</time>
      </trkpt>
      <trkpt lat="41.64887" lon="-0.86687">
        <ele>201.421134</ele>
        <time>2022-08-30T21:11:04.389Z</time>
      </trkpt>
      <trkpt lat="41.64869" lon="-0.86762">
        <ele>202.11058</ele>
        <time>2022-08-30T21:11:19.994Z</time>
      </trkpt>
      <trkpt lat="41.64847" lon="-0.86853">
        <ele>202.9456</ele>
        <time>2022-08-30T21:11:40.302Z</time>
      </trkpt>
      <trkpt lat="41.6481" lon="-0.87012">
        <ele>205.977475</ele>
        <time>2022-08-30T21:12:22.583Z</time>
      </trkpt>
      <trkpt lat="41.64807" lon="-0.87028">
        <ele>206.398335</ele>
        <time>2022-08-30T21:12:27.810Z</time>
      </trkpt>
      <trkpt lat="41.64801" lon="-0.8705">
        <ele>206.945486</ele>
        <time>2022-08-30T21:12:35.035Z</time>
      </trkpt>
      <trkpt lat="41.64778" lon="-0.87131">
        <ele>209.036432</ele>
        <time>2022-08-30T21:13:03.695Z</time>
      </trkpt>
      <trkpt lat="41.64744" lon="-0.87208">
        <ele>211.696399</ele>
        <time>2022-08-30T21:13:33.208Z</time>
      </trkpt>
      <trkpt lat="41.64738" lon="-0.87223">
        <ele>212.212434</ele>
        <time>2022-08-30T21:13:38.504Z</time>
      </trkpt>
      <trkpt lat="41.64704" lon="-0.87297">
        <ele>214.831847</ele>
        <time>2022-08-30T21:14:05.195Z</time>
      </trkpt>
      <trkpt lat="41.64702" lon="-0.87302">
        <ele>215.034953</ele>
        <time>2022-08-30T21:14:07.371Z</time>
      </trkpt>
      <trkpt lat="41.64698" lon="-0.87312">
        <ele>215.359999</ele>
        <time>2022-08-30T21:14:11.073Z</time>
      </trkpt>
      <trkpt lat="41.6469" lon="-0.8733">
        <ele>215.987044</ele>
        <time>2022-08-30T21:14:18.210Z</time>
      </trkpt>
      <trkpt lat="41.64654" lon="-0.87413">
        <ele>218.057835</ele>
        <time>2022-08-30T21:14:51.280Z</time>
      </trkpt>
      <trkpt lat="41.64648" lon="-0.87427">
        <ele>218.37154</ele>
        <time>2022-08-30T21:14:56.598Z</time>
      </trkpt>
      <trkpt lat="41.64584" lon="-0.87567">
        <ele>221.115908</ele>
        <time>2022-08-30T21:15:36.213Z</time>
      </trkpt>
      <trkpt lat="41.64573" lon="-0.87589">
        <ele>220.948053</ele>
        <time>2022-08-30T21:15:40.588Z</time>
      </trkpt>
      <trkpt lat="41.64519" lon="-0.87707">
        <ele>220.061358</ele>
        <time>2022-08-30T21:16:01.325Z</time>
      </trkpt>
      <trkpt lat="41.64517" lon="-0.87714">
        <ele>220.012335</ele>
        <time>2022-08-30T21:16:02.473Z</time>
      </trkpt>
      <trkpt lat="41.6452" lon="-0.87748">
        <ele>219.792283</ele>
        <time>2022-08-30T21:16:07.257Z</time>
      </trkpt>
      <trkpt lat="41.64516" lon="-0.87755">
        <ele>219.734804</ele>
        <time>2022-08-30T21:16:08.644Z</time>
      </trkpt>
      <trkpt lat="41.645" lon="-0.87788">
        <ele>219.57131</ele>
        <time>2022-08-30T21:16:14.126Z</time>
      </trkpt>
      <trkpt lat="41.64498" lon="-0.87795">
        <ele>219.546865</ele>
        <time>2022-08-30T21:16:15.187Z</time>
      </trkpt>
      <trkpt lat="41.6448" lon="-0.87797">
        <ele>219.46608</ele>
        <time>2022-08-30T21:16:18.539Z</time>
      </trkpt>
      <trkpt lat="41.64473" lon="-0.87803">
        <ele>219.429308</ele>
        <time>2022-08-30T21:16:20.708Z</time>
      </trkpt>
      <trkpt lat="41.64448" lon="-0.8785">
        <ele>219.232991</ele>
        <time>2022-08-30T21:16:32.588Z</time>
      </trkpt>
      <trkpt lat="41.64409" lon="-0.8793">
        <ele>218.905668</ele>
        <time>2022-08-30T21:16:53.999Z</time>
      </trkpt>
      <trkpt lat="41.64385" lon="-0.87979">
        <ele>218.892791</ele>
        <time>2022-08-30T21:17:08.565Z</time>
      </trkpt>
      <trkpt lat="41.64379" lon="-0.87992">
        <ele>218.908355</ele>
        <time>2022-08-30T21:17:12.267Z</time>
      </trkpt>
      <trkpt lat="41.64341" lon="-0.88071">
        <ele>219.005205</ele>
        <time>2022-08-30T21:17:33.313Z</time>
      </trkpt>
      <trkpt lat="41.64311" lon="-0.88128">
        <ele>219.077077</ele>
        <time>2022-08-30T21:17:47.820Z</time>
      </trkpt>
      <trkpt lat="41.64306" lon="-0.88138">
        <ele>219.089329</ele>
        <time>2022-08-30T21:17:50.353Z</time>
      </trkpt>
      <trkpt lat="41.64282" lon="-0.88174">
        <ele>219.738647</ele>
        <time>2022-08-30T21:18:00.984Z</time>
      </trkpt>
      <trkpt lat="41.64273" lon="-0.88183">
        <ele>219.978644</ele>
        <time>2022-08-30T21:18:04.805Z</time>
      </trkpt>
      <trkpt lat="41.64259" lon="-0.88201">
        <ele>220.395785</ele>
        <time>2022-08-30T21:18:11.412Z</time>
      </trkpt>
      <trkpt lat="41.64232" lon="-0.88236">
        <ele>221.193554</ele>
        <time>2022-08-30T21:18:25.660Z</time>
      </trkpt>
      <trkpt lat="41.6422" lon="-0.88251">
        <ele>221.54665</ele>
        <time>2022-08-30T21:18:32.586Z</time>
      </trkpt>
      <trkpt lat="41.64213" lon="-0.88261">
        <ele>221.757043</ele>
        <time>2022-08-30T21:18:36.632Z</time>
      </trkpt>
      <trkpt lat="41.64143" lon="-0.88355">
        <ele>224.584249</ele>
        <time>2022-08-30T21:19:26.971Z</time>
      </trkpt>
      <trkpt lat="41.64121" lon="-0.88382">
        <ele>225.681316</ele>
        <time>2022-08-30T21:19:42.675Z</time>
      </trkpt>
      <trkpt lat="41.6412" lon="-0.88385">
        <ele>225.788372</ele>
        <time>2022-08-30T21:19:44.088Z</time>
      </trkpt>
      <trkpt lat="41.6412" lon="-0.88401">
        <ele>226.227702</ele>
        <time>2022-08-30T21:19:49.147Z</time>
      </trkpt>
      <trkpt lat="41.64113" lon="-0.88411">
        <ele>226.603221</ele>
        <time>2022-08-30T21:19:53.963Z</time>
      </trkpt>
      <trkpt lat="41.64111" lon="-0.88414">
        <ele>226.711579</ele>
        <time>2022-08-30T21:19:55.290Z</time>
      </trkpt>
      <trkpt lat="41.64108" lon="-0.88418">
        <ele>226.85445</ele>
        <time>2022-08-30T21:19:57.035Z</time>
      </trkpt>
      <trkpt lat="41.64102" lon="-0.88416">
        <ele>227.079606</ele>
        <time>2022-08-30T21:19:59.583Z</time>
      </trkpt>
      <trkpt lat="41.64098" lon="-0.88416">
        <ele>227.228849</ele>
        <time>2022-08-30T21:20:01.216Z</time>
      </trkpt>
      <trkpt lat="41.6408" lon="-0.88436">
        <ele>228.089971</ele>
        <time>2022-08-30T21:20:11.152Z</time>
      </trkpt>
      <trkpt lat="41.64053" lon="-0.88489">
        <ele>229.692701</ele>
        <time>2022-08-30T21:20:29.157Z</time>
      </trkpt>
      <trkpt lat="41.64045" lon="-0.88507">
        <ele>229.837824</ele>
        <time>2022-08-30T21:20:34.466Z</time>
      </trkpt>
      <trkpt lat="41.64001" lon="-0.88626">
        <ele>230.782008</ele>
        <time>2022-08-30T21:21:02.512Z</time>
      </trkpt>
      <trkpt lat="41.63999" lon="-0.88639">
        <ele>230.872409</ele>
        <time>2022-08-30T21:21:04.718Z</time>
      </trkpt>
      <trkpt lat="41.63998" lon="-0.8865">
        <ele>230.95418</ele>
        <time>2022-08-30T21:21:06.670Z</time>
      </trkpt>
      <trkpt lat="41.63998" lon="-0.8866">
        <ele>231.024198</ele>
        <time>2022-08-30T21:21:08.399Z</time>
      </trkpt>
      <trkpt lat="41.63998" lon="-0.88665">
        <ele>231.056742</ele>
        <time>2022-08-30T21:21:09.210Z</time>
      </trkpt>
      <trkpt lat="41.63998" lon="-0.88673">
        <ele>231.115008</ele>
        <time>2022-08-30T21:21:10.611Z</time>
      </trkpt>
      <trkpt lat="41.63993" lon="-0.8868">
        <ele>231.184917</ele>
        <time>2022-08-30T21:21:12.236Z</time>
      </trkpt>
      <trkpt lat="41.63991" lon="-0.88683">
        <ele>231.213347</ele>
        <time>2022-08-30T21:21:12.866Z</time>
      </trkpt>
      <trkpt lat="41.63987" lon="-0.88689">
        <ele>231.273499</ele>
        <time>2022-08-30T21:21:14.208Z</time>
      </trkpt>
      <trkpt lat="41.63985" lon="-0.88692">
        <ele>231.299215</ele>
        <time>2022-08-30T21:21:14.780Z</time>
      </trkpt>
      <trkpt lat="41.63916" lon="-0.88798">
        <ele>230.765642</ele>
        <time>2022-08-30T21:21:37.068Z</time>
      </trkpt>
      <trkpt lat="41.63877" lon="-0.88855">
        <ele>230.449261</ele>
        <time>2022-08-30T21:21:48.866Z</time>
      </trkpt>
      <trkpt lat="41.63861" lon="-0.88883">
        <ele>230.305814</ele>
        <time>2022-08-30T21:21:53.983Z</time>
      </trkpt>
      <trkpt lat="41.63841" lon="-0.88937">
        <ele>230.049131</ele>
        <time>2022-08-30T21:22:02.861Z</time>
      </trkpt>
      <trkpt lat="41.63775" lon="-0.89034">
        <ele>229.486344</ele>
        <time>2022-08-30T21:22:23.555Z</time>
      </trkpt>
      <trkpt lat="41.63749" lon="-0.89069">
        <ele>229.338308</ele>
        <time>2022-08-30T21:22:31.280Z</time>
      </trkpt>
      <trkpt lat="41.63683" lon="-0.89145">
        <ele>229.610565</ele>
        <time>2022-08-30T21:22:51.428Z</time>
      </trkpt>
      <trkpt lat="41.63679" lon="-0.89149">
        <ele>229.627633</ele>
        <time>2022-08-30T21:22:52.693Z</time>
      </trkpt>
      <trkpt lat="41.63637" lon="-0.89194">
        <ele>229.792502</ele>
        <time>2022-08-30T21:23:04.961Z</time>
      </trkpt>
      <trkpt lat="41.63634" lon="-0.89197">
        <ele>229.804888</ele>
        <time>2022-08-30T21:23:06.012Z</time>
      </trkpt>
      <trkpt lat="41.63618" lon="-0.89214">
        <ele>229.868524</ele>
        <time>2022-08-30T21:23:11.377Z</time>
      </trkpt>
      <trkpt lat="41.63586" lon="-0.89248">
        <ele>230.454231</ele>
        <time>2022-08-30T21:23:23.325Z</time>
      </trkpt>
      <trkpt lat="41.63577" lon="-0.89257">
        <ele>230.628251</ele>
        <time>2022-08-30T21:23:26.790Z</time>
      </trkpt>
      <trkpt lat="41.63534" lon="-0.89303">
        <ele>231.474047</ele>
        <time>2022-08-30T21:23:41.887Z</time>
      </trkpt>
      <trkpt lat="41.63528" lon="-0.89309">
        <ele>231.578882</ele>
        <time>2022-08-30T21:23:44.012Z</time>
      </trkpt>
      <trkpt lat="41.63515" lon="-0.89315">
        <ele>231.793266</ele>
        <time>2022-08-30T21:23:48.035Z</time>
      </trkpt>
      <trkpt lat="41.63487" lon="-0.89293">
        <ele>232.291963</ele>
        <time>2022-08-30T21:23:57.838Z</time>
      </trkpt>
      <trkpt lat="41.63456" lon="-0.89269">
        <ele>233.212266</ele>
        <time>2022-08-30T21:24:10.004Z</time>
      </trkpt>
      <trkpt lat="41.63446" lon="-0.89261">
        <ele>233.669715</ele>
        <time>2022-08-30T21:24:13.672Z</time>
      </trkpt>
      <trkpt lat="41.63371" lon="-0.89204">
        <ele>237.225839</ele>
        <time>2022-08-30T21:24:52.080Z</time>
      </trkpt>
      <trkpt lat="41.6334" lon="-0.8918">
        <ele>238.688471</ele>
        <time>2022-08-30T21:25:09.514Z</time>
      </trkpt>
      <trkpt lat="41.63332" lon="-0.89173">
        <ele>239.083401</ele>
        <time>2022-08-30T21:25:14.336Z</time>
      </trkpt>
      <trkpt lat="41.6333" lon="-0.8917">
        <ele>239.214223</ele>
        <time>2022-08-30T21:25:15.813Z</time>
      </trkpt>
      <trkpt lat="41.63328" lon="-0.89171">
        <ele>239.319535</ele>
        <time>2022-08-30T21:25:16.945Z</time>
      </trkpt>
      <trkpt lat="41.63318" lon="-0.89174">
        <ele>239.733456</ele>
        <time>2022-08-30T21:25:21.402Z</time>
      </trkpt>
      <trkpt lat="41.63261" lon="-0.89169">
        <ele>241.863171</ele>
        <time>2022-08-30T21:25:47.581Z</time>
      </trkpt>
      <trkpt lat="41.63232" lon="-0.89164">
        <ele>242.919232</ele>
        <time>2022-08-30T21:26:00.550Z</time>
      </trkpt>
      <trkpt lat="41.63194" lon="-0.89161">
        <ele>244.30807</ele>
        <time>2022-08-30T21:26:17.295Z</time>
      </trkpt>
      <trkpt lat="41.63111" lon="-0.89188">
        <ele>246.703728</ele>
        <time>2022-08-30T21:26:48.721Z</time>
      </trkpt>
      <trkpt lat="41.63019" lon="-0.89225">
        <ele>247.247494</ele>
        <time>2022-08-30T21:27:13.356Z</time>
      </trkpt>
      <trkpt lat="41.62995" lon="-0.8925">
        <ele>247.418896</ele>
        <time>2022-08-30T21:27:20.096Z</time>
      </trkpt>
      <trkpt lat="41.62981" lon="-0.89292">
        <ele>247.543823</ele>
        <time>2022-08-30T21:27:27.530Z</time>
      </trkpt>
      <trkpt lat="41.62964" lon="-0.89573">
        <ele>245.546541</ele>
        <time>2022-08-30T21:28:11.325Z</time>
      </trkpt>
      <trkpt lat="41.62948" lon="-0.89616">
        <ele>245.238448</ele>
        <time>2022-08-30T21:28:18.581Z</time>
      </trkpt>
      <trkpt lat="41.62848" lon="-0.8976">
        <ele>244.539701</ele>
        <time>2022-08-30T21:28:49.922Z</time>
      </trkpt>
      <trkpt lat="41.62814" lon="-0.89785">
        <ele>244.759088</ele>
        <time>2022-08-30T21:28:58.731Z</time>
      </trkpt>
      <trkpt lat="41.62718" lon="-0.8982">
        <ele>245.333099</ele>
        <time>2022-08-30T21:29:27.228Z</time>
      </trkpt>
      <trkpt lat="41.6268" lon="-0.89841">
        <ele>246.242753</ele>
        <time>2022-08-30T21:29:41.007Z</time>
      </trkpt>
      <trkpt lat="41.62501" lon="-0.90042">
        <ele>251.198919</ele>
        <time>2022-08-30T21:31:05.529Z</time>
      </trkpt>
      <trkpt lat="41.62313" lon="-0.90188">
        <ele>252.646769</ele>
        <time>2022-08-30T21:32:05.195Z</time>
      </trkpt>
      <trkpt lat="41.62213" lon="-0.90342">
        <ele>251.312813</ele>
        <time>2022-08-30T21:32:34.160Z</time>
      </trkpt>
      <trkpt lat="41.62199" lon="-0.9038">
        <ele>250.903156</ele>
        <time>2022-08-30T21:32:40.769Z</time>
      </trkpt>
      <trkpt lat="41.62194" lon="-0.90432">
        <ele>250.399986</ele>
        <time>2022-08-30T21:32:49.588Z</time>
      </trkpt>
      <trkpt lat="41.62196" lon="-0.90442">
        <ele>250.315977</ele>
        <time>2022-08-30T21:32:51.129Z</time>
      </trkpt>
      <trkpt lat="41.62193" lon="-0.9044">
        <ele>250.318001</ele>
        <time>2022-08-30T21:32:52.167Z</time>
      </trkpt>
      <trkpt lat="41.62189" lon="-0.9044">
        <ele>250.320293</ele>
        <time>2022-08-30T21:32:53.188Z</time>
      </trkpt>
      <trkpt lat="41.62171" lon="-0.90446">
        <ele>250.331267</ele>
        <time>2022-08-30T21:32:58.450Z</time>
      </trkpt>
      <trkpt lat="41.62162" lon="-0.90449">
        <ele>250.336424</ele>
        <time>2022-08-30T21:33:00.320Z</time>
      </trkpt>
      <trkpt lat="41.62135" lon="-0.90457">
        <ele>250.35284</ele>
        <time>2022-08-30T21:33:08.297Z</time>
      </trkpt>
      <trkpt lat="41.62109" lon="-0.90458">
        <ele>250.368431</ele>
        <time>2022-08-30T21:33:14.637Z</time>
      </trkpt>
      <trkpt lat="41.62107" lon="-0.90452">
        <ele>250.371151</ele>
        <time>2022-08-30T21:33:16.394Z</time>
      </trkpt>
      <trkpt lat="41.62099" lon="-0.90452">
        <ele>250.375916</ele>
        <time>2022-08-30T21:33:18.162Z</time>
      </trkpt>
      <trkpt lat="41.62089" lon="-0.9048">
        <ele>250.389763</ele>
        <time>2022-08-30T21:33:23.361Z</time>
      </trkpt>
      <trkpt lat="41.62075" lon="-0.9053">
        <ele>250.412961</ele>
        <time>2022-08-30T21:33:33.188Z</time>
      </trkpt>
      <trkpt lat="41.62056" lon="-0.9057">
        <ele>249.843775</ele>
        <time>2022-08-30T21:33:40.642Z</time>
      </trkpt>
      <trkpt lat="41.61996" lon="-0.90652">
        <ele>247.56899</ele>
        <time>2022-08-30T21:33:56.075Z</time>
      </trkpt>
      <trkpt lat="41.61981" lon="-0.90672">
        <ele>247.00331</ele>
        <time>2022-08-30T21:33:59.619Z</time>
      </trkpt>
      <trkpt lat="41.61958" lon="-0.90703">
        <ele>246.148979</ele>
        <time>2022-08-30T21:34:04.846Z</time>
      </trkpt>
      <trkpt lat="41.6189" lon="-0.90788">
        <ele>243.638946</ele>
        <time>2022-08-30T21:34:20.121Z</time>
      </trkpt>
      <trkpt lat="41.61789" lon="-0.90888">
        <ele>240.820477</ele>
        <time>2022-08-30T21:34:43.267Z</time>
      </trkpt>
      <trkpt lat="41.61609" lon="-0.9108">
        <ele>241.267434</ele>
        <time>2022-08-30T21:35:39.976Z</time>
      </trkpt>
      <trkpt lat="41.61581" lon="-0.9115">
        <ele>241.607353</ele>
        <time>2022-08-30T21:35:56.172Z</time>
      </trkpt>
      <trkpt lat="41.6155" lon="-0.9121">
        <ele>241.925045</ele>
        <time>2022-08-30T21:36:09.585Z</time>
      </trkpt>
      <trkpt lat="41.61525" lon="-0.91287">
        <ele>242.410492</ele>
        <time>2022-08-30T21:36:24.142Z</time>
      </trkpt>
      <trkpt lat="41.61511" lon="-0.91323">
        <ele>242.644128</ele>
        <time>2022-08-30T21:36:31.797Z</time>
      </trkpt>
      <trkpt lat="41.61487" lon="-0.91367">
        <ele>242.955443</ele>
        <time>2022-08-30T21:36:42.864Z</time>
      </trkpt>
      <trkpt lat="41.61451" lon="-0.91418">
        <ele>243.516699</ele>
        <time>2022-08-30T21:36:57.675Z</time>
      </trkpt>
      <trkpt lat="41.61442" lon="-0.91427">
        <ele>243.748065</ele>
        <time>2022-08-30T21:37:01.004Z</time>
      </trkpt>
      <trkpt lat="41.614" lon="-0.91457">
        <ele>244.769068</ele>
        <time>2022-08-30T21:37:15.264Z</time>
      </trkpt>
      <trkpt lat="41.61388" lon="-0.91471">
        <ele>245.10485</ele>
        <time>2022-08-30T21:37:20.042Z</time>
      </trkpt>
      <trkpt lat="41.61384" lon="-0.91476">
        <ele>245.225907</ele>
        <time>2022-08-30T21:37:21.909Z</time>
      </trkpt>
      <trkpt lat="41.61379" lon="-0.91478">
        <ele>245.336522</ele>
        <time>2022-08-30T21:37:23.662Z</time>
      </trkpt>
      <trkpt lat="41.61374" lon="-0.91475">
        <ele>245.452398</ele>
        <time>2022-08-30T21:37:25.466Z</time>
      </trkpt>
      <trkpt lat="41.61349" lon="-0.91494">
        <ele>246.056205</ele>
        <time>2022-08-30T21:37:35.280Z</time>
      </trkpt>
      <trkpt lat="41.61183" lon="-0.91523">
        <ele>251.266994</ele>
        <time>2022-08-30T21:38:40.664Z</time>
      </trkpt>
      <trkpt lat="41.61083" lon="-0.91574">
        <ele>255.146127</ele>
        <time>2022-08-30T21:39:27.593Z</time>
      </trkpt>
      <trkpt lat="41.61031" lon="-0.91617">
        <ele>257.467951</ele>
        <time>2022-08-30T21:39:56.239Z</time>
      </trkpt>
      <trkpt lat="41.60985" lon="-0.9164">
        <ele>259.333631</ele>
        <time>2022-08-30T21:40:15.547Z</time>
      </trkpt>
      <trkpt lat="41.6096" lon="-0.9166">
        <ele>260.302181</ele>
        <time>2022-08-30T21:40:26.473Z</time>
      </trkpt>
      <trkpt lat="41.60929" lon="-0.91666">
        <ele>260.736745</ele>
        <time>2022-08-30T21:40:38.183Z</time>
      </trkpt>
      <trkpt lat="41.60868" lon="-0.91746">
        <ele>261.933612</ele>
        <time>2022-08-30T21:41:15.282Z</time>
      </trkpt>
      <trkpt lat="41.60808" lon="-0.91825">
        <ele>262.931911</ele>
        <time>2022-08-30T21:41:48.042Z</time>
      </trkpt>
      <trkpt lat="41.60774" lon="-0.91856">
        <ele>263.249599</ele>
        <time>2022-08-30T21:42:03.991Z</time>
      </trkpt>
      <trkpt lat="41.60763" lon="-0.91872">
        <ele>263.3748</ele>
        <time>2022-08-30T21:42:10.695Z</time>
      </trkpt>
      <trkpt lat="41.6075" lon="-0.9191">
        <ele>263.608965</ele>
        <time>2022-08-30T21:42:23.978Z</time>
      </trkpt>
      <trkpt lat="41.60733" lon="-0.91934">
        <ele>263.797866</ele>
        <time>2022-08-30T21:42:34.848Z</time>
      </trkpt>
      <trkpt lat="41.60643" lon="-0.92016">
        <ele>264.702183</ele>
        <time>2022-08-30T21:43:19.690Z</time>
      </trkpt>
      <trkpt lat="41.60606" lon="-0.92059">
        <ele>265.125043</ele>
        <time>2022-08-30T21:43:39.565Z</time>
      </trkpt>
      <trkpt lat="41.60565" lon="-0.921">
        <ele>265.573158</ele>
        <time>2022-08-30T21:43:59.886Z</time>
      </trkpt>
      <trkpt lat="41.6034" lon="-0.92259">
        <ele>270.442225</ele>
        <time>2022-08-30T21:45:54.507Z</time>
      </trkpt>
      <trkpt lat="41.60272" lon="-0.92269">
        <ele>272.681188</ele>
        <time>2022-08-30T21:46:33.672Z</time>
      </trkpt>
      <trkpt lat="41.60227" lon="-0.92282">
        <ele>274.203672</ele>
        <time>2022-08-30T21:47:01.764Z</time>
      </trkpt>
      <trkpt lat="41.60196" lon="-0.923">
        <ele>275.200486</ele>
        <time>2022-08-30T21:47:21.394Z</time>
      </trkpt>
      <trkpt lat="41.60125" lon="-0.92381">
        <ele>277.981035</ele>
        <time>2022-08-30T21:48:12.922Z</time>
      </trkpt>
      <trkpt lat="41.60033" lon="-0.92502">
        <ele>279.577546</ele>
        <time>2022-08-30T21:49:07.387Z</time>
      </trkpt>
      <trkpt lat="41.60005" lon="-0.92531">
        <ele>279.569976</ele>
        <time>2022-08-30T21:49:19.953Z</time>
      </trkpt>
      <trkpt lat="41.59998" lon="-0.92535">
        <ele>279.568324</ele>
        <time>2022-08-30T21:49:21.534Z</time>
      </trkpt>
      <trkpt lat="41.59992" lon="-0.92537">
        <ele>279.56696</ele>
        <time>2022-08-30T21:49:22.897Z</time>
      </trkpt>
      <trkpt lat="41.59979" lon="-0.92542">
        <ele>279.564216</ele>
        <time>2022-08-30T21:49:25.762Z</time>
      </trkpt>
      <trkpt lat="41.59907" lon="-0.92571">
        <ele>279.227218</ele>
        <time>2022-08-30T21:49:41.547Z</time>
      </trkpt>
      <trkpt lat="41.59894" lon="-0.9258">
        <ele>279.084051</ele>
        <time>2022-08-30T21:49:44.251Z</time>
      </trkpt>
      <trkpt lat="41.5987" lon="-0.92595">
        <ele>278.820007</ele>
        <time>2022-08-30T21:49:49.958Z</time>
      </trkpt>
      <trkpt lat="41.59861" lon="-0.92601">
        <ele>278.717676</ele>
        <time>2022-08-30T21:49:51.902Z</time>
      </trkpt>
      <trkpt lat="41.59803" lon="-0.92629">
        <ele>278.102589</ele>
        <time>2022-08-30T21:50:04.930Z</time>
      </trkpt>
      <trkpt lat="41.598" lon="-0.92643">
        <ele>277.989431</ele>
        <time>2022-08-30T21:50:06.917Z</time>
      </trkpt>
      <trkpt lat="41.59786" lon="-0.92642">
        <ele>277.854634</ele>
        <time>2022-08-30T21:50:09.899Z</time>
      </trkpt>
      <trkpt lat="41.59711" lon="-0.92711">
        <ele>276.820435</ele>
        <time>2022-08-30T21:50:28.818Z</time>
      </trkpt>
      <trkpt lat="41.59685" lon="-0.92732">
        <ele>276.47161</ele>
        <time>2022-08-30T21:50:35.331Z</time>
      </trkpt>
      <trkpt lat="41.59646" lon="-0.9277">
        <ele>275.917595</ele>
        <time>2022-08-30T21:50:45.012Z</time>
      </trkpt>
      <trkpt lat="41.59609" lon="-0.92786">
        <ele>275.432629</ele>
        <time>2022-08-30T21:50:52.667Z</time>
      </trkpt>
      <trkpt lat="41.5956" lon="-0.92828">
        <ele>274.64163</ele>
        <time>2022-08-30T21:51:04.292Z</time>
      </trkpt>
      <trkpt lat="41.59521" lon="-0.92899">
        <ele>273.735976</ele>
        <time>2022-08-30T21:51:17.427Z</time>
      </trkpt>
      <trkpt lat="41.59493" lon="-0.92937">
        <ele>273.227959</ele>
        <time>2022-08-30T21:51:25.627Z</time>
      </trkpt>
      <trkpt lat="41.59464" lon="-0.92969">
        <ele>273.284517</ele>
        <time>2022-08-30T21:51:33.348Z</time>
      </trkpt>
      <trkpt lat="41.59407" lon="-0.93008">
        <ele>273.382021</ele>
        <time>2022-08-30T21:51:47.272Z</time>
      </trkpt>
      <trkpt lat="41.59397" lon="-0.93013">
        <ele>273.397037</ele>
        <time>2022-08-30T21:51:49.568Z</time>
      </trkpt>
      <trkpt lat="41.59362" lon="-0.93026">
        <ele>273.451933</ele>
        <time>2022-08-30T21:51:59.218Z</time>
      </trkpt>
      <trkpt lat="41.59349" lon="-0.93027">
        <ele>273.472519</ele>
        <time>2022-08-30T21:52:03.453Z</time>
      </trkpt>
      <trkpt lat="41.59296" lon="-0.93053">
        <ele>275.371665</ele>
        <time>2022-08-30T21:52:24.030Z</time>
      </trkpt>
      <trkpt lat="41.59261" lon="-0.93069">
        <ele>277.02352</ele>
        <time>2022-08-30T21:52:39.899Z</time>
      </trkpt>
      <trkpt lat="41.59263" lon="-0.9308">
        <ele>277.39935</ele>
        <time>2022-08-30T21:52:43.621Z</time>
      </trkpt>
      <trkpt lat="41.59233" lon="-0.9308">
        <ele>278.775521</ele>
        <time>2022-08-30T21:52:59.484Z</time>
      </trkpt>
      <trkpt lat="41.59126" lon="-0.93072">
        <ele>283.705473</ele>
        <time>2022-08-30T21:53:56.206Z</time>
      </trkpt>
      <trkpt lat="41.59099" lon="-0.93056">
        <ele>285.12843</ele>
        <time>2022-08-30T21:54:10.884Z</time>
      </trkpt>
      <trkpt lat="41.5904" lon="-0.9307">
        <ele>287.981639</ele>
        <time>2022-08-30T21:54:39.532Z</time>
      </trkpt>
      <trkpt lat="41.58982" lon="-0.931">
        <ele>290.404606</ele>
        <time>2022-08-30T21:55:05.483Z</time>
      </trkpt>
      <trkpt lat="41.58972" lon="-0.93111">
        <ele>290.559444</ele>
        <time>2022-08-30T21:55:10.170Z</time>
      </trkpt>
      <trkpt lat="41.58941" lon="-0.93131">
        <ele>290.953369</ele>
        <time>2022-08-30T21:55:21.456Z</time>
      </trkpt>
      <trkpt lat="41.58901" lon="-0.9317">
        <ele>291.529393</ele>
        <time>2022-08-30T21:55:38.106Z</time>
      </trkpt>
      <trkpt lat="41.58819" lon="-0.93227">
        <ele>291.888662</ele>
        <time>2022-08-30T21:55:57.433Z</time>
      </trkpt>
      <trkpt lat="41.58762" lon="-0.93237">
        <ele>290.899006</ele>
        <time>2022-08-30T21:56:08.399Z</time>
      </trkpt>
      <trkpt lat="41.58727" lon="-0.93278">
        <ele>290.10366</ele>
        <time>2022-08-30T21:56:16.693Z</time>
      </trkpt>
      <trkpt lat="41.58719" lon="-0.9328">
        <ele>289.96639</ele>
        <time>2022-08-30T21:56:18.024Z</time>
      </trkpt>
      <trkpt lat="41.58693" lon="-0.93286">
        <ele>289.511073</ele>
        <time>2022-08-30T21:56:23.244Z</time>
      </trkpt>
      <trkpt lat="41.58656" lon="-0.93307">
        <ele>289.40407</ele>
        <time>2022-08-30T21:56:30.999Z</time>
      </trkpt>
      <trkpt lat="41.58641" lon="-0.93331">
        <ele>289.585223</ele>
        <time>2022-08-30T21:56:35.932Z</time>
      </trkpt>
      <trkpt lat="41.5861" lon="-0.93345">
        <ele>289.831794</ele>
        <time>2022-08-30T21:56:42.098Z</time>
      </trkpt>
      <trkpt lat="41.58577" lon="-0.93385">
        <ele>290.171893</ele>
        <time>2022-08-30T21:56:53.598Z</time>
      </trkpt>
      <trkpt lat="41.58511" lon="-0.93425">
        <ele>290.990043</ele>
        <time>2022-08-30T21:57:22.902Z</time>
      </trkpt>
      <trkpt lat="41.5848" lon="-0.9343">
        <ele>291.736878</ele>
        <time>2022-08-30T21:57:35.734Z</time>
      </trkpt>
      <trkpt lat="41.58436" lon="-0.93469">
        <ele>292.972974</ele>
        <time>2022-08-30T21:57:55.803Z</time>
      </trkpt>
      <trkpt lat="41.58298" lon="-0.9355">
        <ele>295.686754</ele>
        <time>2022-08-30T21:58:37.581Z</time>
      </trkpt>
      <trkpt lat="41.58247" lon="-0.9359">
        <ele>296.404227</ele>
        <time>2022-08-30T21:58:52.565Z</time>
      </trkpt>
      <trkpt lat="41.58189" lon="-0.93612">
        <ele>297.135001</ele>
        <time>2022-08-30T21:59:10.899Z</time>
      </trkpt>
      <trkpt lat="41.58145" lon="-0.93643">
        <ele>297.756399</ele>
        <time>2022-08-30T21:59:28.285Z</time>
      </trkpt>
      <trkpt lat="41.58125" lon="-0.93645">
        <ele>298.010703</ele>
        <time>2022-08-30T21:59:33.991Z</time>
      </trkpt>
      <trkpt lat="41.58108" lon="-0.93639">
        <ele>298.231639</ele>
        <time>2022-08-30T21:59:41.106Z</time>
      </trkpt>
      <trkpt lat="41.58092" lon="-0.93625">
        <ele>298.470588</ele>
        <time>2022-08-30T21:59:44.894Z</time>
      </trkpt>
      <trkpt lat="41.58078" lon="-0.93632">
        <ele>298.662484</ele>
        <time>2022-08-30T21:59:50.613Z</time>
      </trkpt>
      <trkpt lat="41.58067" lon="-0.93676">
        <ele>299.097354</ele>
        <time>2022-08-30T21:59:58.741Z</time>
      </trkpt>
      <trkpt lat="41.58007" lon="-0.93732">
        <ele>297.995854</ele>
        <time>2022-08-30T22:00:14.828Z</time>
      </trkpt>
      <trkpt lat="41.57988" lon="-0.93758">
        <ele>297.431061</ele>
        <time>2022-08-30T22:00:19.310Z</time>
      </trkpt>
      <trkpt lat="41.57887" lon="-0.93835">
        <ele>295.145604</ele>
        <time>2022-08-30T22:00:39.405Z</time>
      </trkpt>
      <trkpt lat="41.57868" lon="-0.93863">
        <ele>294.716423</ele>
        <time>2022-08-30T22:00:44.029Z</time>
      </trkpt>
      <trkpt lat="41.57844" lon="-0.9389">
        <ele>294.245616</ele>
        <time>2022-08-30T22:00:49.917Z</time>
      </trkpt>
      <trkpt lat="41.57806" lon="-0.9393">
        <ele>293.513103</ele>
        <time>2022-08-30T22:00:59.761Z</time>
      </trkpt>
      <trkpt lat="41.57723" lon="-0.93961">
        <ele>292.935996</ele>
        <time>2022-08-30T22:01:18.137Z</time>
      </trkpt>
      <trkpt lat="41.57678" lon="-0.93994">
        <ele>293.140829</ele>
        <time>2022-08-30T22:01:32.976Z</time>
      </trkpt>
      <trkpt lat="41.57634" lon="-0.94049">
        <ele>293.379429</ele>
        <time>2022-08-30T22:01:47.374Z</time>
      </trkpt>
      <trkpt lat="41.57616" lon="-0.94056">
        <ele>293.455593</ele>
        <time>2022-08-30T22:01:52.063Z</time>
      </trkpt>
      <trkpt lat="41.57542" lon="-0.94116">
        <ele>294.362676</ele>
        <time>2022-08-30T22:02:12.264Z</time>
      </trkpt>
      <trkpt lat="41.57454" lon="-0.94173">
        <ele>295.47548</ele>
        <time>2022-08-30T22:02:39.961Z</time>
      </trkpt>
      <trkpt lat="41.57366" lon="-0.94202">
        <ele>299.327451</ele>
        <time>2022-08-30T22:03:15.887Z</time>
      </trkpt>
      <trkpt lat="41.57326" lon="-0.94219">
        <ele>301.217543</ele>
        <time>2022-08-30T22:03:37.792Z</time>
      </trkpt>
      <trkpt lat="41.57285" lon="-0.94245">
        <ele>303.2291</ele>
        <time>2022-08-30T22:04:01.200Z</time>
      </trkpt>
      <trkpt lat="41.57201" lon="-0.94309">
        <ele>307.498939</ele>
        <time>2022-08-30T22:04:51.892Z</time>
      </trkpt>
      <trkpt lat="41.57118" lon="-0.9437">
        <ele>311.474557</ele>
        <time>2022-08-30T22:05:33.098Z</time>
      </trkpt>
      <trkpt lat="41.57042" lon="-0.94425">
        <ele>310.484622</ele>
        <time>2022-08-30T22:05:51.550Z</time>
      </trkpt>
      <trkpt lat="41.56982" lon="-0.94471">
        <ele>309.687609</ele>
        <time>2022-08-30T22:06:04.241Z</time>
      </trkpt>
      <trkpt lat="41.56933" lon="-0.94559">
        <ele>307.843453</ele>
        <time>2022-08-30T22:06:19.108Z</time>
      </trkpt>
      <trkpt lat="41.56855" lon="-0.94652">
        <ele>305.107785</ele>
        <time>2022-08-30T22:06:38.486Z</time>
      </trkpt>
      <trkpt lat="41.56823" lon="-0.94697">
        <ele>304.801028</ele>
        <time>2022-08-30T22:06:47.221Z</time>
      </trkpt>
      <trkpt lat="41.56782" lon="-0.94733">
        <ele>304.91281</ele>
        <time>2022-08-30T22:06:57.093Z</time>
      </trkpt>
      <trkpt lat="41.56739" lon="-0.94777">
        <ele>305.03479</ele>
        <time>2022-08-30T22:07:11.274Z</time>
      </trkpt>
      <trkpt lat="41.56692" lon="-0.94843">
        <ele>306.354325</ele>
        <time>2022-08-30T22:07:36.593Z</time>
      </trkpt>
      <trkpt lat="41.56655" lon="-0.9488">
        <ele>308.829555</ele>
        <time>2022-08-30T22:07:57.553Z</time>
      </trkpt>
      <trkpt lat="41.56603" lon="-0.94894">
        <ele>311.64648</ele>
        <time>2022-08-30T22:08:24.414Z</time>
      </trkpt>
      <trkpt lat="41.56569" lon="-0.94922">
        <ele>313.776336</ele>
        <time>2022-08-30T22:08:47.287Z</time>
      </trkpt>
      <trkpt lat="41.56541" lon="-0.94933">
        <ele>315.249376</ele>
        <time>2022-08-30T22:09:04.461Z</time>
      </trkpt>
      <trkpt lat="41.56527" lon="-0.94938">
        <ele>315.98423</ele>
        <time>2022-08-30T22:09:14.060Z</time>
      </trkpt>
      <trkpt lat="41.56504" lon="-0.94961">
        <ele>317.379097</ele>
        <time>2022-08-30T22:09:29.532Z</time>
      </trkpt>
      <trkpt lat="41.56487" lon="-0.94996">
        <ele>318.887043</ele>
        <time>2022-08-30T22:09:44.856Z</time>
      </trkpt>
      <trkpt lat="41.56418" lon="-0.95061">
        <ele>323.053877</ele>
        <time>2022-08-30T22:10:20.746Z</time>
      </trkpt>
      <trkpt lat="41.56382" lon="-0.95126">
        <ele>324.6031</ele>
        <time>2022-08-30T22:10:39.976Z</time>
      </trkpt>
      <trkpt lat="41.56357" lon="-0.95154">
        <ele>325.311512</ele>
        <time>2022-08-30T22:10:50.877Z</time>
      </trkpt>
      <trkpt lat="41.5632" lon="-0.95177">
        <ele>326.192447</ele>
        <time>2022-08-30T22:11:04.211Z</time>
      </trkpt>
      <trkpt lat="41.56277" lon="-0.95214">
        <ele>327.306968</ele>
        <time>2022-08-30T22:11:20.458Z</time>
      </trkpt>
      <trkpt lat="41.56263" lon="-0.95234">
        <ele>327.61074</ele>
        <time>2022-08-30T22:11:26.846Z</time>
      </trkpt>
      <trkpt lat="41.56225" lon="-0.95263">
        <ele>328.175533</ele>
        <time>2022-08-30T22:11:40.269Z</time>
      </trkpt>
      <trkpt lat="41.56082" lon="-0.95412">
        <ele>329.644321</ele>
        <time>2022-08-30T22:12:30.014Z</time>
      </trkpt>
      <trkpt lat="41.56046" lon="-0.95437">
        <ele>329.593079</ele>
        <time>2022-08-30T22:12:38.774Z</time>
      </trkpt>
      <trkpt lat="41.56005" lon="-0.95488">
        <ele>329.522024</ele>
        <time>2022-08-30T22:12:50.223Z</time>
      </trkpt>
      <trkpt lat="41.55974" lon="-0.95583">
        <ele>328.634272</ele>
        <time>2022-08-30T22:13:05.065Z</time>
      </trkpt>
      <trkpt lat="41.55831" lon="-0.95734">
        <ele>324.117927</ele>
        <time>2022-08-30T22:13:39.356Z</time>
      </trkpt>
      <trkpt lat="41.55816" lon="-0.9574">
        <ele>323.412076</ele>
        <time>2022-08-30T22:13:41.996Z</time>
      </trkpt>
      <trkpt lat="41.55815" lon="-0.9574">
        <ele>323.358516</ele>
        <time>2022-08-30T22:13:42.216Z</time>
      </trkpt>
      <trkpt lat="41.55793" lon="-0.95751">
        <ele>322.279879</ele>
        <time>2022-08-30T22:13:46.127Z</time>
      </trkpt>
      <trkpt lat="41.55715" lon="-0.95815">
        <ele>318.07729</ele>
        <time>2022-08-30T22:14:00.741Z</time>
      </trkpt>
      <trkpt lat="41.55735" lon="-0.95838">
        <ele>316.674722</ele>
        <time>2022-08-30T22:14:04.892Z</time>
      </trkpt>
      <trkpt lat="41.55698" lon="-0.95891">
        <ele>313.737633</ele>
        <time>2022-08-30T22:14:13.195Z</time>
      </trkpt>
      <trkpt lat="41.55659" lon="-0.95945">
        <ele>310.75147</ele>
        <time>2022-08-30T22:14:21.790Z</time>
      </trkpt>
      <trkpt lat="41.55623" lon="-0.95996">
        <ele>308.977224</ele>
        <time>2022-08-30T22:14:30.519Z</time>
      </trkpt>
      <trkpt lat="41.55607" lon="-0.96018">
        <ele>309.00349</ele>
        <time>2022-08-30T22:14:35.109Z</time>
      </trkpt>
      <trkpt lat="41.55579" lon="-0.96048">
        <ele>309.045976</ele>
        <time>2022-08-30T22:14:44.427Z</time>
      </trkpt>
      <trkpt lat="41.55503" lon="-0.96125">
        <ele>309.158275</ele>
        <time>2022-08-30T22:15:14.690Z</time>
      </trkpt>
      <trkpt lat="41.55469" lon="-0.96155">
        <ele>309.222637</ele>
        <time>2022-08-30T22:15:27.147Z</time>
      </trkpt>
      <trkpt lat="41.55441" lon="-0.96192">
        <ele>309.28678</ele>
        <time>2022-08-30T22:15:37.098Z</time>
      </trkpt>
      <trkpt lat="41.55414" lon="-0.96246">
        <ele>309.36618</ele>
        <time>2022-08-30T22:15:47.886Z</time>
      </trkpt>
      <trkpt lat="41.5539" lon="-0.96313">
        <ele>309.457604</ele>
        <time>2022-08-30T22:15:59.905Z</time>
      </trkpt>
      <trkpt lat="41.5539" lon="-0.96317">
        <ele>309.460259</ele>
        <time>2022-08-30T22:16:00.499Z</time>
      </trkpt>
      <trkpt lat="41.55378" lon="-0.9639">
        <ele>309.368059</ele>
        <time>2022-08-30T22:16:12.409Z</time>
      </trkpt>
      <trkpt lat="41.55359" lon="-0.96475">
        <ele>309.258429</ele>
        <time>2022-08-30T22:16:27.012Z</time>
      </trkpt>
      <trkpt lat="41.55351" lon="-0.9649">
        <ele>309.236463</ele>
        <time>2022-08-30T22:16:30.070Z</time>
      </trkpt>
      <trkpt lat="41.55333" lon="-0.96522">
        <ele>309.186585</ele>
        <time>2022-08-30T22:16:37.177Z</time>
      </trkpt>
      <trkpt lat="41.55308" lon="-0.96549">
        <ele>309.354065</ele>
        <time>2022-08-30T22:16:45.915Z</time>
      </trkpt>
      <trkpt lat="41.55249" lon="-0.96611">
        <ele>310.119125</ele>
        <time>2022-08-30T22:17:08.914Z</time>
      </trkpt>
      <trkpt lat="41.55238" lon="-0.96624">
        <ele>310.268367</ele>
        <time>2022-08-30T22:17:13.346Z</time>
      </trkpt>
      <trkpt lat="41.55195" lon="-0.96676">
        <ele>310.855</ele>
        <time>2022-08-30T22:17:30.032Z</time>
      </trkpt>
      <trkpt lat="41.55159" lon="-0.96732">
        <ele>310.792876</ele>
        <time>2022-08-30T22:17:44.785Z</time>
      </trkpt>
      <trkpt lat="41.55101" lon="-0.96818">
        <ele>310.388856</ele>
        <time>2022-08-30T22:18:04.415Z</time>
      </trkpt>
      <trkpt lat="41.55092" lon="-0.96828">
        <ele>310.330698</ele>
        <time>2022-08-30T22:18:06.958Z</time>
      </trkpt>
      <trkpt lat="41.55058" lon="-0.96879">
        <ele>309.884265</ele>
        <time>2022-08-30T22:18:16.833Z</time>
      </trkpt>
      <trkpt lat="41.55059" lon="-0.96892">
        <ele>309.677334</ele>
        <time>2022-08-30T22:18:18.484Z</time>
      </trkpt>
      <trkpt lat="41.55065" lon="-0.96915">
        <ele>309.286921</ele>
        <time>2022-08-30T22:18:21.754Z</time>
      </trkpt>
      <trkpt lat="41.55088" lon="-0.9695">
        <ele>308.540885</ele>
        <time>2022-08-30T22:18:27.938Z</time>
      </trkpt>
      <trkpt lat="41.55096" lon="-0.96962">
        <ele>308.284025</ele>
        <time>2022-08-30T22:18:30.045Z</time>
      </trkpt>
      <trkpt lat="41.5511" lon="-0.96984">
        <ele>307.810157</ele>
        <time>2022-08-30T22:18:34.012Z</time>
      </trkpt>
      <trkpt lat="41.55125" lon="-0.97005">
        <ele>307.348176</ele>
        <time>2022-08-30T22:18:37.841Z</time>
      </trkpt>
      <trkpt lat="41.55134" lon="-0.97017">
        <ele>307.081919</ele>
        <time>2022-08-30T22:18:40.083Z</time>
      </trkpt>
      <trkpt lat="41.55144" lon="-0.97031">
        <ele>306.767845</ele>
        <time>2022-08-30T22:18:42.729Z</time>
      </trkpt>
      <trkpt lat="41.55147" lon="-0.97027">
        <ele>306.690726</ele>
        <time>2022-08-30T22:18:43.330Z</time>
      </trkpt>
      <trkpt lat="41.55191" lon="-0.9709">
        <ele>306.304503</ele>
        <time>2022-08-30T22:18:55.912Z</time>
      </trkpt>
      <trkpt lat="41.55228" lon="-0.97151">
        <ele>306.335833</ele>
        <time>2022-08-30T22:19:08.664Z</time>
      </trkpt>
      <trkpt lat="41.55252" lon="-0.97205">
        <ele>306.360877</ele>
        <time>2022-08-30T22:19:21.377Z</time>
      </trkpt>
      <trkpt lat="41.55284" lon="-0.973">
        <ele>307.980093</ele>
        <time>2022-08-30T22:19:50.392Z</time>
      </trkpt>
      <trkpt lat="41.55294" lon="-0.97343">
        <ele>309.066135</ele>
        <time>2022-08-30T22:20:04.269Z</time>
      </trkpt>
      <trkpt lat="41.55307" lon="-0.97374">
        <ele>309.919285</ele>
        <time>2022-08-30T22:20:15.057Z</time>
      </trkpt>
      <trkpt lat="41.55329" lon="-0.97417">
        <ele>311.193396</ele>
        <time>2022-08-30T22:20:31.386Z</time>
      </trkpt>
      <trkpt lat="41.55358" lon="-0.97475">
        <ele>312.613639</ele>
        <time>2022-08-30T22:20:52.129Z</time>
      </trkpt>
      <trkpt lat="41.55377" lon="-0.97505">
        <ele>313.175411</ele>
        <time>2022-08-30T22:21:02.920Z</time>
      </trkpt>
      <trkpt lat="41.55393" lon="-0.97509">
        <ele>313.491621</ele>
        <time>2022-08-30T22:21:09.029Z</time>
      </trkpt>
      <trkpt lat="41.55402" lon="-0.97518">
        <ele>313.712965</ele>
        <time>2022-08-30T22:21:13.129Z</time>
      </trkpt>
      <trkpt lat="41.55411" lon="-0.97549">
        <ele>314.185198</ele>
        <time>2022-08-30T22:21:21.632Z</time>
      </trkpt>
      <trkpt lat="41.55409" lon="-0.97564">
        <ele>314.403912</ele>
        <time>2022-08-30T22:21:25.178Z</time>
      </trkpt>
      <trkpt lat="41.55399" lon="-0.97582">
        <ele>314.736536</ele>
        <time>2022-08-30T22:21:30.308Z</time>
      </trkpt>
      <trkpt lat="41.55384" lon="-0.97591">
        <ele>315.037646</ele>
        <time>2022-08-30T22:21:34.428Z</time>
      </trkpt>
      <trkpt lat="41.55363" lon="-0.97585">
        <ele>315.462366</ele>
        <time>2022-08-30T22:21:39.856Z</time>
      </trkpt>
      <trkpt lat="41.55352" lon="-0.97572">
        <ele>315.643643</ele>
        <time>2022-08-30T22:21:43.101Z</time>
      </trkpt>
      <trkpt lat="41.5532" lon="-0.97574">
        <ele>315.376353</ele>
        <time>2022-08-30T22:21:49.678Z</time>
      </trkpt>
      <trkpt lat="41.55146" lon="-0.97677">
        <ele>313.997666</ele>
        <time>2022-08-30T22:22:27.035Z</time>
      </trkpt>
      <trkpt lat="41.55111" lon="-0.9771">
        <ele>313.847794</ele>
        <time>2022-08-30T22:22:35.869Z</time>
      </trkpt>
      <trkpt lat="41.55083" lon="-0.97745">
        <ele>313.716854</ele>
        <time>2022-08-30T22:22:43.874Z</time>
      </trkpt>
      <trkpt lat="41.54594" lon="-0.98565">
        <ele>317.773209</ele>
        <time>2022-08-30T22:26:01.137Z</time>
      </trkpt>
      <trkpt lat="41.54583" lon="-0.98584">
        <ele>317.975064</ele>
        <time>2022-08-30T22:26:05.402Z</time>
      </trkpt>
      <trkpt lat="41.54507" lon="-0.98715">
        <ele>319.33991</ele>
        <time>2022-08-30T22:26:37.175Z</time>
      </trkpt>
      <trkpt lat="41.54484" lon="-0.98769">
        <ele>320.542234</ele>
        <time>2022-08-30T22:26:52.836Z</time>
      </trkpt>
      <trkpt lat="41.54454" lon="-0.9888">
        <ele>324.298806</ele>
        <time>2022-08-30T22:27:30.647Z</time>
      </trkpt>
      <trkpt lat="41.54433" lon="-0.99075">
        <ele>331.056822</ele>
        <time>2022-08-30T22:28:45.399Z</time>
      </trkpt>
      <trkpt lat="41.54418" lon="-0.99148">
        <ele>333.774113</ele>
        <time>2022-08-30T22:29:12.440Z</time>
      </trkpt>
      <trkpt lat="41.54384" lon="-0.99249">
        <ele>336.697023</ele>
        <time>2022-08-30T22:29:45.563Z</time>
      </trkpt>
      <trkpt lat="41.54356" lon="-0.99308">
        <ele>337.704016</ele>
        <time>2022-08-30T22:30:02.208Z</time>
      </trkpt>
      <trkpt lat="41.54323" lon="-0.99361">
        <ele>338.682755</ele>
        <time>2022-08-30T22:30:16.940Z</time>
      </trkpt>
      <trkpt lat="41.54298" lon="-0.99392">
        <ele>339.318121</ele>
        <time>2022-08-30T22:30:25.991Z</time>
      </trkpt>
      <trkpt lat="41.54273" lon="-0.99419">
        <ele>339.541439</ele>
        <time>2022-08-30T22:30:34.422Z</time>
      </trkpt>
      <trkpt lat="41.54191" lon="-0.99493">
        <ele>339.984764</ele>
        <time>2022-08-30T22:30:58.132Z</time>
      </trkpt>
      <trkpt lat="41.54051" lon="-0.99609">
        <ele>340.593291</ele>
        <time>2022-08-30T22:31:36.800Z</time>
      </trkpt>
      <trkpt lat="41.54053" lon="-0.99624">
        <ele>340.631312</ele>
        <time>2022-08-30T22:31:39.557Z</time>
      </trkpt>
      <trkpt lat="41.54042" lon="-0.99633">
        <ele>340.674738</ele>
        <time>2022-08-30T22:31:42.739Z</time>
      </trkpt>
      <trkpt lat="41.5397" lon="-0.99692">
        <ele>340.977488</ele>
        <time>2022-08-30T22:32:04.713Z</time>
      </trkpt>
      <trkpt lat="41.53964" lon="-0.99684">
        <ele>341.008857</ele>
        <time>2022-08-30T22:32:06.769Z</time>
      </trkpt>
      <trkpt lat="41.53871" lon="-0.9976">
        <ele>341.424559</ele>
        <time>2022-08-30T22:32:32.920Z</time>
      </trkpt>
      <trkpt lat="41.53774" lon="-0.99857">
        <ele>341.528956</ele>
        <time>2022-08-30T22:33:01.053Z</time>
      </trkpt>
      <trkpt lat="41.53763" lon="-0.99869">
        <ele>341.531542</ele>
        <time>2022-08-30T22:33:04.282Z</time>
      </trkpt>
      <trkpt lat="41.53739" lon="-0.99898">
        <ele>341.537234</ele>
        <time>2022-08-30T22:33:11.397Z</time>
      </trkpt>
      <trkpt lat="41.53709" lon="-0.99933">
        <ele>341.523557</ele>
        <time>2022-08-30T22:33:20.017Z</time>
      </trkpt>
      <trkpt lat="41.5367" lon="-0.99965">
        <ele>341.354619</ele>
        <time>2022-08-30T22:33:29.677Z</time>
      </trkpt>
      <trkpt lat="41.53589" lon="-0.99998">
        <ele>341.042972</ele>
        <time>2022-08-30T22:33:46.950Z</time>
      </trkpt>
      <trkpt lat="41.53518" lon="-1.00024">
        <ele>341.104847</ele>
        <time>2022-08-30T22:34:03.328Z</time>
      </trkpt>
      <trkpt lat="41.53486" lon="-1.00043">
        <ele>341.376662</ele>
        <time>2022-08-30T22:34:11.886Z</time>
      </trkpt>
      <trkpt lat="41.53462" lon="-1.00076">
        <ele>341.638534</ele>
        <time>2022-08-30T22:34:20.665Z</time>
      </trkpt>
      <trkpt lat="41.53445" lon="-1.00131">
        <ele>341.976237</ele>
        <time>2022-08-30T22:34:32.854Z</time>
      </trkpt>
      <trkpt lat="41.53442" lon="-1.00153">
        <ele>342.108001</ele>
        <time>2022-08-30T22:34:37.718Z</time>
      </trkpt>
      <trkpt lat="41.53426" lon="-1.00234">
        <ele>342.789345</ele>
        <time>2022-08-30T22:34:56.854Z</time>
      </trkpt>
      <trkpt lat="41.53398" lon="-1.00297">
        <ele>343.472874</ele>
        <time>2022-08-30T22:35:14.496Z</time>
      </trkpt>
      <trkpt lat="41.53273" lon="-1.00451">
        <ele>344.39508</ele>
        <time>2022-08-30T22:35:57.223Z</time>
      </trkpt>
      <trkpt lat="41.53019" lon="-1.00764">
        <ele>342.653511</ele>
        <time>2022-08-30T22:37:07.593Z</time>
      </trkpt>
      <trkpt lat="41.52993" lon="-1.008">
        <ele>342.496969</ele>
        <time>2022-08-30T22:37:15.557Z</time>
      </trkpt>
      <trkpt lat="41.52967" lon="-1.00851">
        <ele>342.306538</ele>
        <time>2022-08-30T22:37:25.530Z</time>
      </trkpt>
      <trkpt lat="41.52949" lon="-1.00904">
        <ele>342.328292</ele>
        <time>2022-08-30T22:37:35.292Z</time>
      </trkpt>
      <trkpt lat="41.52803" lon="-1.0144">
        <ele>344.648847</ele>
        <time>2022-08-30T22:39:24.320Z</time>
      </trkpt>
      <trkpt lat="41.52784" lon="-1.01518">
        <ele>344.875895</ele>
        <time>2022-08-30T22:39:38.703Z</time>
      </trkpt>
      <trkpt lat="41.52763" lon="-1.01644">
        <ele>344.827387</ele>
        <time>2022-08-30T22:39:59.578Z</time>
      </trkpt>
      <trkpt lat="41.52752" lon="-1.01675">
        <ele>344.765385</ele>
        <time>2022-08-30T22:40:05.231Z</time>
      </trkpt>
      <trkpt lat="41.52731" lon="-1.01674">
        <ele>344.715552</ele>
        <time>2022-08-30T22:40:09.647Z</time>
      </trkpt>
      <trkpt lat="41.52716" lon="-1.01714">
        <ele>344.636864</ele>
        <time>2022-08-30T22:40:17.042Z</time>
      </trkpt>
      <trkpt lat="41.52706" lon="-1.0173">
        <ele>344.598358</ele>
        <time>2022-08-30T22:40:20.851Z</time>
      </trkpt>
      <trkpt lat="41.52693" lon="-1.01732">
        <ele>344.567075</ele>
        <time>2022-08-30T22:40:23.690Z</time>
      </trkpt>
      <trkpt lat="41.52671" lon="-1.01731">
        <ele>344.545097</ele>
        <time>2022-08-30T22:40:28.557Z</time>
      </trkpt>
      <trkpt lat="41.52654" lon="-1.01734">
        <ele>344.533304</ele>
        <time>2022-08-30T22:40:32.425Z</time>
      </trkpt>
      <trkpt lat="41.52646" lon="-1.01751">
        <ele>344.523354</ele>
        <time>2022-08-30T22:40:35.721Z</time>
      </trkpt>
      <trkpt lat="41.5263" lon="-1.01833">
        <ele>344.480678</ele>
        <time>2022-08-30T22:40:49.996Z</time>
      </trkpt>
      <trkpt lat="41.52607" lon="-1.0189">
        <ele>344.448363</ele>
        <time>2022-08-30T22:41:01.287Z</time>
      </trkpt>
      <trkpt lat="41.52562" lon="-1.02007">
        <ele>344.735909</ele>
        <time>2022-08-30T22:41:26.246Z</time>
      </trkpt>
      <trkpt lat="41.52488" lon="-1.02173">
        <ele>345.294653</ele>
        <time>2022-08-30T22:42:02.731Z</time>
      </trkpt>
      <trkpt lat="41.52368" lon="-1.02428">
        <ele>346.319826</ele>
        <time>2022-08-30T22:42:59.654Z</time>
      </trkpt>
      <trkpt lat="41.52289" lon="-1.02541">
        <ele>347.159502</ele>
        <time>2022-08-30T22:43:29.790Z</time>
      </trkpt>
      <trkpt lat="41.52247" lon="-1.02621">
        <ele>348.166734</ele>
        <time>2022-08-30T22:43:50.688Z</time>
      </trkpt>
      <trkpt lat="41.52166" lon="-1.02749">
        <ele>350.303012</ele>
        <time>2022-08-30T22:44:31.848Z</time>
      </trkpt>
      <trkpt lat="41.52039" lon="-1.02907">
        <ele>354.198009</ele>
        <time>2022-08-30T22:45:33.682Z</time>
      </trkpt>
      <trkpt lat="41.51754" lon="-1.03235">
        <ele>361.302303</ele>
        <time>2022-08-30T22:47:36.539Z</time>
      </trkpt>
      <trkpt lat="41.5164" lon="-1.0335">
        <ele>363.202203</ele>
        <time>2022-08-30T22:48:19.109Z</time>
      </trkpt>
      <trkpt lat="41.51477" lon="-1.03482">
        <ele>364.549688</ele>
        <time>2022-08-30T22:49:08.833Z</time>
      </trkpt>
      <trkpt lat="41.51287" lon="-1.03633">
        <ele>366.153759</ele>
        <time>2022-08-30T22:50:07.420Z</time>
      </trkpt>
      <trkpt lat="41.51212" lon="-1.03685">
        <ele>366.836436</ele>
        <time>2022-08-30T22:50:30.514Z</time>
      </trkpt>
      <trkpt lat="41.51064" lon="-1.03829">
        <ele>368.811931</ele>
        <time>2022-08-30T22:51:23.073Z</time>
      </trkpt>
      <trkpt lat="41.50958" lon="-1.03946">
        <ele>369.864494</ele>
        <time>2022-08-30T22:52:03.238Z</time>
      </trkpt>
      <trkpt lat="41.50858" lon="-1.04069">
        <ele>369.451635</ele>
        <time>2022-08-30T22:52:34.188Z</time>
      </trkpt>
      <trkpt lat="41.50738" lon="-1.04249">
        <ele>367.026891</ele>
        <time>2022-08-30T22:53:09.024Z</time>
      </trkpt>
      <trkpt lat="41.50727" lon="-1.04259">
        <ele>366.823964</ele>
        <time>2022-08-30T22:53:11.621Z</time>
      </trkpt>
      <trkpt lat="41.50692" lon="-1.0427">
        <ele>366.270193</ele>
        <time>2022-08-30T22:53:18.637Z</time>
      </trkpt>
      <trkpt lat="41.50683" lon="-1.04278">
        <ele>366.101363</ele>
        <time>2022-08-30T22:53:20.774Z</time>
      </trkpt>
      <trkpt lat="41.50651" lon="-1.04354">
        <ele>365.404216</ele>
        <time>2022-08-30T22:53:34.318Z</time>
      </trkpt>
      <trkpt lat="41.50632" lon="-1.04356">
        <ele>365.44492</ele>
        <time>2022-08-30T22:53:38.325Z</time>
      </trkpt>
      <trkpt lat="41.50627" lon="-1.04419">
        <ele>365.545259</ele>
        <time>2022-08-30T22:53:49.514Z</time>
      </trkpt>
      <trkpt lat="41.50559" lon="-1.04533">
        <ele>365.944109</ele>
        <time>2022-08-30T22:54:18.729Z</time>
      </trkpt>
      <trkpt lat="41.50195" lon="-1.05117">
        <ele>374.196424</ele>
        <time>2022-08-30T22:57:15.728Z</time>
      </trkpt>
      <trkpt lat="41.49862" lon="-1.05636">
        <ele>376.017146</ele>
        <time>2022-08-30T22:59:19.764Z</time>
      </trkpt>
      <trkpt lat="41.49762" lon="-1.0582">
        <ele>377.369428</ele>
        <time>2022-08-30T23:00:07.116Z</time>
      </trkpt>
      <trkpt lat="41.49652" lon="-1.05998">
        <ele>378.336898</ele>
        <time>2022-08-30T23:00:51.545Z</time>
      </trkpt>
      <trkpt lat="41.49608" lon="-1.06065">
        <ele>378.839667</ele>
        <time>2022-08-30T23:01:08.785Z</time>
      </trkpt>
      <trkpt lat="41.49563" lon="-1.06174">
        <ele>379.554727</ele>
        <time>2022-08-30T23:01:34.389Z</time>
      </trkpt>
      <trkpt lat="41.4953" lon="-1.06218">
        <ele>379.963971</ele>
        <time>2022-08-30T23:01:47.570Z</time>
      </trkpt>
      <trkpt lat="41.4951" lon="-1.06268">
        <ele>380.374301</ele>
        <time>2022-08-30T23:01:59.445Z</time>
      </trkpt>
      <trkpt lat="41.49491" lon="-1.06333">
        <ele>380.88611</ele>
        <time>2022-08-30T23:02:14.244Z</time>
      </trkpt>
      <trkpt lat="41.49488" lon="-1.06378">
        <ele>381.214007</ele>
        <time>2022-08-30T23:02:23.744Z</time>
      </trkpt>
      <trkpt lat="41.49438" lon="-1.06511">
        <ele>382.265467</ele>
        <time>2022-08-30T23:02:55.053Z</time>
      </trkpt>
      <trkpt lat="41.49364" lon="-1.06649">
        <ele>383.346963</ele>
        <time>2022-08-30T23:03:30.524Z</time>
      </trkpt>
      <trkpt lat="41.49151" lon="-1.06936">
        <ele>384.982962</ele>
        <time>2022-08-30T23:04:48.142Z</time>
      </trkpt>
      <trkpt lat="41.49036" lon="-1.07082">
        <ele>385.701375</ele>
        <time>2022-08-30T23:05:28.152Z</time>
      </trkpt>
      <trkpt lat="41.48954" lon="-1.07147">
        <ele>386.271524</ele>
        <time>2022-08-30T23:05:52.312Z</time>
      </trkpt>
      <trkpt lat="41.4891" lon="-1.07194">
        <ele>386.694682</ele>
        <time>2022-08-30T23:06:07.315Z</time>
      </trkpt>
      <trkpt lat="41.48834" lon="-1.07262">
        <ele>387.435733</ele>
        <time>2022-08-30T23:06:32.912Z</time>
      </trkpt>
      <trkpt lat="41.48627" lon="-1.07412">
        <ele>389.462577</ele>
        <time>2022-08-30T23:07:40.593Z</time>
      </trkpt>
      <trkpt lat="41.48596" lon="-1.07422">
        <ele>389.584464</ele>
        <time>2022-08-30T23:07:48.070Z</time>
      </trkpt>
      <trkpt lat="41.48551" lon="-1.07291">
        <ele>390.15924</ele>
        <time>2022-08-30T23:08:12.463Z</time>
      </trkpt>
      <trkpt lat="41.48552" lon="-1.07256">
        <ele>390.385681</ele>
        <time>2022-08-30T23:08:18.137Z</time>
      </trkpt>
      <trkpt lat="41.48549" lon="-1.07236">
        <ele>390.523626</ele>
        <time>2022-08-30T23:08:22.012Z</time>
      </trkpt>
      <trkpt lat="41.48536" lon="-1.07197">
        <ele>390.799538</ele>
        <time>2022-08-30T23:08:29.910Z</time>
      </trkpt>
      <trkpt lat="41.48523" lon="-1.07179">
        <ele>390.960585</ele>
        <time>2022-08-30T23:08:34.805Z</time>
      </trkpt>
      <trkpt lat="41.48501" lon="-1.07154">
        <ele>391.213781</ele>
        <time>2022-08-30T23:08:43.721Z</time>
      </trkpt>
      <trkpt lat="41.48422" lon="-1.0707">
        <ele>393.344109</ele>
        <time>2022-08-30T23:09:19.489Z</time>
      </trkpt>
      <trkpt lat="41.48393" lon="-1.07039">
        <ele>394.277541</ele>
        <time>2022-08-30T23:09:33.274Z</time>
      </trkpt>
      <trkpt lat="41.48348" lon="-1.07004">
        <ele>395.609102</ele>
        <time>2022-08-30T23:09:52.104Z</time>
      </trkpt>
      <trkpt lat="41.48321" lon="-1.07028">
        <ele>396.18954</ele>
        <time>2022-08-30T23:10:03.142Z</time>
      </trkpt>
      <trkpt lat="41.4829" lon="-1.07028">
        <ele>396.534698</ele>
        <time>2022-08-30T23:10:13.078Z</time>
      </trkpt>
      <trkpt lat="41.48273" lon="-1.07025">
        <ele>396.731135</ele>
        <time>2022-08-30T23:10:18.586Z</time>
      </trkpt>
      <trkpt lat="41.48226" lon="-1.07076">
        <ele>397.423665</ele>
        <time>2022-08-30T23:10:35.634Z</time>
      </trkpt>
      <trkpt lat="41.48092" lon="-1.07171">
        <ele>398.036696</ele>
        <time>2022-08-30T23:11:11.772Z</time>
      </trkpt>
      <trkpt lat="41.48023" lon="-1.07227">
        <ele>398.033076</ele>
        <time>2022-08-30T23:11:30.206Z</time>
      </trkpt>
      <trkpt lat="41.48" lon="-1.07291">
        <ele>397.757213</ele>
        <time>2022-08-30T23:11:41.948Z</time>
      </trkpt>
      <trkpt lat="41.47998" lon="-1.07316">
        <ele>397.658675</ele>
        <time>2022-08-30T23:11:45.991Z</time>
      </trkpt>
      <trkpt lat="41.48004" lon="-1.07371">
        <ele>397.437317</ele>
        <time>2022-08-30T23:11:54.966Z</time>
      </trkpt>
      <trkpt lat="41.48015" lon="-1.07387">
        <ele>397.350646</ele>
        <time>2022-08-30T23:11:58.422Z</time>
      </trkpt>
      <trkpt lat="41.48017" lon="-1.07403">
        <ele>397.285767</ele>
        <time>2022-08-30T23:12:01.042Z</time>
      </trkpt>
      <trkpt lat="41.48014" lon="-1.07421">
        <ele>397.208131</ele>
        <time>2022-08-30T23:12:04.129Z</time>
      </trkpt>
      <trkpt lat="41.48006" lon="-1.07434">
        <ele>397.142507</ele>
        <time>2022-08-30T23:12:06.723Z</time>
      </trkpt>
      <trkpt lat="41.47966" lon="-1.07466">
        <ele>397.062375</ele>
        <time>2022-08-30T23:12:16.667Z</time>
      </trkpt>
      <trkpt lat="41.47938" lon="-1.07517">
        <ele>397.045856</ele>
        <time>2022-08-30T23:12:27.060Z</time>
      </trkpt>
      <trkpt lat="41.47897" lon="-1.07571">
        <ele>397.025893</ele>
        <time>2022-08-30T23:12:40.262Z</time>
      </trkpt>
      <trkpt lat="41.47836" lon="-1.0761">
        <ele>397.381864</ele>
        <time>2022-08-30T23:12:58.644Z</time>
      </trkpt>
      <trkpt lat="41.47738" lon="-1.07652">
        <ele>398.834695</ele>
        <time>2022-08-30T23:13:30.392Z</time>
      </trkpt>
      <trkpt lat="41.47696" lon="-1.07664">
        <ele>399.439542</ele>
        <time>2022-08-30T23:13:44.280Z</time>
      </trkpt>
      <trkpt lat="41.47599" lon="-1.07711">
        <ele>400.514682</ele>
        <time>2022-08-30T23:14:15.966Z</time>
      </trkpt>
      <trkpt lat="41.47539" lon="-1.07716">
        <ele>401.123341</ele>
        <time>2022-08-30T23:14:31.996Z</time>
      </trkpt>
      <trkpt lat="41.47513" lon="-1.07728">
        <ele>401.375441</ele>
        <time>2022-08-30T23:14:38.519Z</time>
      </trkpt>
      <trkpt lat="41.47492" lon="-1.07755">
        <ele>401.425065</ele>
        <time>2022-08-30T23:14:45.427Z</time>
      </trkpt>
      <trkpt lat="41.4748" lon="-1.07794">
        <ele>401.47915</ele>
        <time>2022-08-30T23:14:52.695Z</time>
      </trkpt>
      <trkpt lat="41.47471" lon="-1.0784">
        <ele>401.54029</ele>
        <time>2022-08-30T23:15:00.718Z</time>
      </trkpt>
      <trkpt lat="41.47452" lon="-1.0788">
        <ele>401.600834</ele>
        <time>2022-08-30T23:15:08.940Z</time>
      </trkpt>
      <trkpt lat="41.47453" lon="-1.07921">
        <ele>401.653381</ele>
        <time>2022-08-30T23:15:16.573Z</time>
      </trkpt>
      <trkpt lat="41.47406" lon="-1.07998">
        <ele>402.202492</ele>
        <time>2022-08-30T23:15:35.481Z</time>
      </trkpt>
      <trkpt lat="41.47359" lon="-1.08067">
        <ele>402.813811</ele>
        <time>2022-08-30T23:15:54.537Z</time>
      </trkpt>
      <trkpt lat="41.47279" lon="-1.08131">
        <ele>403.776263</ele>
        <time>2022-08-30T23:16:20.417Z</time>
      </trkpt>
      <trkpt lat="41.47176" lon="-1.08215">
        <ele>405.24593</ele>
        <time>2022-08-30T23:16:54.789Z</time>
      </trkpt>
      <trkpt lat="41.47107" lon="-1.08271">
        <ele>406.728051</ele>
        <time>2022-08-30T23:17:18.029Z</time>
      </trkpt>
      <trkpt lat="41.47052" lon="-1.08315">
        <ele>408.002832</ele>
        <time>2022-08-30T23:17:38.185Z</time>
      </trkpt>
      <trkpt lat="41.47048" lon="-1.08318">
        <ele>408.08684</ele>
        <time>2022-08-30T23:17:39.593Z</time>
      </trkpt>
      <trkpt lat="41.46983" lon="-1.08371">
        <ele>410.316357</ele>
        <time>2022-08-30T23:18:07.323Z</time>
      </trkpt>
      <trkpt lat="41.4694" lon="-1.08405">
        <ele>412.467602</ele>
        <time>2022-08-30T23:18:28.394Z</time>
      </trkpt>
      <trkpt lat="41.46913" lon="-1.08426">
        <ele>413.842158</ele>
        <time>2022-08-30T23:18:43.297Z</time>
      </trkpt>
      <trkpt lat="41.46905" lon="-1.08433">
        <ele>414.263016</ele>
        <time>2022-08-30T23:18:47.741Z</time>
      </trkpt>
      <trkpt lat="41.46902" lon="-1.08435">
        <ele>414.38483</ele>
        <time>2022-08-30T23:18:49.009Z</time>
      </trkpt>
      <trkpt lat="41.46873" lon="-1.08458">
        <ele>415.870987</ele>
        <time>2022-08-30T23:19:05.838Z</time>
      </trkpt>
      <trkpt lat="41.46867" lon="-1.08463">
        <ele>416.163599</ele>
        <time>2022-08-30T23:19:09.032Z</time>
      </trkpt>
      <trkpt lat="41.46845" lon="-1.08481">
        <ele>417.370582</ele>
        <time>2022-08-30T23:19:21.876Z</time>
      </trkpt>
      <trkpt lat="41.46808" lon="-1.08513">
        <ele>419.540599</ele>
        <time>2022-08-30T23:19:43.239Z</time>
      </trkpt>
      <trkpt lat="41.46797" lon="-1.08534">
        <ele>420.488086</ele>
        <time>2022-08-30T23:19:52.851Z</time>
      </trkpt>
      <trkpt lat="41.46784" lon="-1.08561">
        <ele>421.660905</ele>
        <time>2022-08-30T23:20:04.223Z</time>
      </trkpt>
      <trkpt lat="41.46764" lon="-1.08556">
        <ele>422.657158</ele>
        <time>2022-08-30T23:20:14.443Z</time>
      </trkpt>
      <trkpt lat="41.46754" lon="-1.08626">
        <ele>425.272931</ele>
        <time>2022-08-30T23:20:38.402Z</time>
      </trkpt>
      <trkpt lat="41.46737" lon="-1.086">
        <ele>426.184178</ele>
        <time>2022-08-30T23:20:49.581Z</time>
      </trkpt>
      <trkpt lat="41.46723" lon="-1.08589">
        <ele>426.64725</ele>
        <time>2022-08-30T23:20:55.866Z</time>
      </trkpt>
      <trkpt lat="41.46698" lon="-1.08593">
        <ele>427.349739</ele>
        <time>2022-08-30T23:21:05.331Z</time>
      </trkpt>
      <trkpt lat="41.46675" lon="-1.08599">
        <ele>428.037931</ele>
        <time>2022-08-30T23:21:14.114Z</time>
      </trkpt>
      <trkpt lat="41.46639" lon="-1.0861">
        <ele>429.069568</ele>
        <time>2022-08-30T23:21:26.234Z</time>
      </trkpt>
      <trkpt lat="41.46592" lon="-1.08626">
        <ele>430.447835</ele>
        <time>2022-08-30T23:21:42.558Z</time>
      </trkpt>
      <trkpt lat="41.46576" lon="-1.08655">
        <ele>431.096227</ele>
        <time>2022-08-30T23:21:51.277Z</time>
      </trkpt>
      <trkpt lat="41.46552" lon="-1.0867">
        <ele>431.630582</ele>
        <time>2022-08-30T23:21:59.892Z</time>
      </trkpt>
      <trkpt lat="41.46523" lon="-1.08699">
        <ele>432.352981</ele>
        <time>2022-08-30T23:22:11.637Z</time>
      </trkpt>
      <trkpt lat="41.46461" lon="-1.08744">
        <ele>433.761552</ele>
        <time>2022-08-30T23:22:34.121Z</time>
      </trkpt>
      <trkpt lat="41.46408" lon="-1.08777">
        <ele>434.86341</ele>
        <time>2022-08-30T23:22:52.831Z</time>
      </trkpt>
      <trkpt lat="41.46355" lon="-1.08832">
        <ele>436.062711</ele>
        <time>2022-08-30T23:23:14.328Z</time>
      </trkpt>
      <trkpt lat="41.4633" lon="-1.08854">
        <ele>436.597928</ele>
        <time>2022-08-30T23:23:24.047Z</time>
      </trkpt>
      <trkpt lat="41.46306" lon="-1.08893">
        <ele>437.264559</ele>
        <time>2022-08-30T23:23:36.004Z</time>
      </trkpt>
      <trkpt lat="41.46274" lon="-1.08932">
        <ele>437.90858</ele>
        <time>2022-08-30T23:23:49.065Z</time>
      </trkpt>
      <trkpt lat="41.46256" lon="-1.0897">
        <ele>438.340915</ele>
        <time>2022-08-30T23:23:59.065Z</time>
      </trkpt>
      <trkpt lat="41.46248" lon="-1.08988">
        <ele>438.540652</ele>
        <time>2022-08-30T23:24:03.609Z</time>
      </trkpt>
      <trkpt lat="41.46147" lon="-1.0925">
        <ele>441.291481</ele>
        <time>2022-08-30T23:25:11.769Z</time>
      </trkpt>
      <trkpt lat="41.45953" lon="-1.09703">
        <ele>445.883351</ele>
        <time>2022-08-30T23:27:11.879Z</time>
      </trkpt>
      <trkpt lat="41.45866" lon="-1.09829">
        <ele>447.115801</ele>
        <time>2022-08-30T23:27:48.966Z</time>
      </trkpt>
      <trkpt lat="41.45846" lon="-1.09857">
        <ele>447.383547</ele>
        <time>2022-08-30T23:27:57.382Z</time>
      </trkpt>
      <trkpt lat="41.45809" lon="-1.09931">
        <ele>448.015842</ele>
        <time>2022-08-30T23:28:16.473Z</time>
      </trkpt>
      <trkpt lat="41.4576" lon="-1.10072">
        <ele>449.391122</ele>
        <time>2022-08-30T23:28:52.131Z</time>
      </trkpt>
      <trkpt lat="41.45711" lon="-1.10372">
        <ele>452.409336</ele>
        <time>2022-08-30T23:30:04.629Z</time>
      </trkpt>
      <trkpt lat="41.45703" lon="-1.10432">
        <ele>452.977368</ele>
        <time>2022-08-30T23:30:18.935Z</time>
      </trkpt>
      <trkpt lat="41.45688" lon="-1.10489">
        <ele>453.541349</ele>
        <time>2022-08-30T23:30:33.269Z</time>
      </trkpt>
      <trkpt lat="41.45665" lon="-1.10667">
        <ele>455.027381</ele>
        <time>2022-08-30T23:31:14.598Z</time>
      </trkpt>
      <trkpt lat="41.45627" lon="-1.10902">
        <ele>456.448137</ele>
        <time>2022-08-30T23:32:04.989Z</time>
      </trkpt>
      <trkpt lat="41.45611" lon="-1.10961">
        <ele>456.842006</ele>
        <time>2022-08-30T23:32:17.104Z</time>
      </trkpt>
      <trkpt lat="41.45549" lon="-1.11118">
        <ele>458.295229</ele>
        <time>2022-08-30T23:32:58.053Z</time>
      </trkpt>
      <trkpt lat="41.45547" lon="-1.11144">
        <ele>458.613523</ele>
        <time>2022-08-30T23:33:04.351Z</time>
      </trkpt>
      <trkpt lat="41.45556" lon="-1.11159">
        <ele>458.853153</ele>
        <time>2022-08-30T23:33:09.343Z</time>
      </trkpt>
      <trkpt lat="41.45573" lon="-1.11173">
        <ele>459.171776</ele>
        <time>2022-08-30T23:33:15.780Z</time>
      </trkpt>
      <trkpt lat="41.45587" lon="-1.11197">
        <ele>459.532901</ele>
        <time>2022-08-30T23:33:23.461Z</time>
      </trkpt>
      <trkpt lat="41.45513" lon="-1.11438">
        <ele>462.944352</ele>
        <time>2022-08-30T23:34:29.665Z</time>
      </trkpt>
      <trkpt lat="41.45523" lon="-1.11462">
        <ele>463.324335</ele>
        <time>2022-08-30T23:34:36.626Z</time>
      </trkpt>
      <trkpt lat="41.45222" lon="-1.12131">
        <ele>472.521787</ele>
        <time>2022-08-30T23:37:34.246Z</time>
      </trkpt>
      <trkpt lat="41.45137" lon="-1.12304">
        <ele>473.63455</ele>
        <time>2022-08-30T23:38:10.739Z</time>
      </trkpt>
      <trkpt lat="41.44733" lon="-1.13128">
        <ele>485.694998</ele>
        <time>2022-08-30T23:41:58.611Z</time>
      </trkpt>
      <trkpt lat="41.4469" lon="-1.13223">
        <ele>486.348937</ele>
        <time>2022-08-30T23:42:19.879Z</time>
      </trkpt>
      <trkpt lat="41.44547" lon="-1.13598">
        <ele>488.688802</ele>
        <time>2022-08-30T23:43:37.851Z</time>
      </trkpt>
      <trkpt lat="41.44516" lon="-1.13681">
        <ele>489.697628</ele>
        <time>2022-08-30T23:43:59.537Z</time>
      </trkpt>
      <trkpt lat="41.44511" lon="-1.13695">
        <ele>489.86422</ele>
        <time>2022-08-30T23:44:03.149Z</time>
      </trkpt>
      <trkpt lat="41.44496" lon="-1.13733">
        <ele>490.325116</ele>
        <time>2022-08-30T23:44:13.295Z</time>
      </trkpt>
      <trkpt lat="41.44465" lon="-1.13802">
        <ele>491.431446</ele>
        <time>2022-08-30T23:44:33.152Z</time>
      </trkpt>
      <trkpt lat="41.44442" lon="-1.13844">
        <ele>492.18803</ele>
        <time>2022-08-30T23:44:46.002Z</time>
      </trkpt>
      <trkpt lat="41.44374" lon="-1.1393">
        <ele>494.001402</ele>
        <time>2022-08-30T23:45:15.175Z</time>
      </trkpt>
      <trkpt lat="41.44306" lon="-1.13984">
        <ele>495.668409</ele>
        <time>2022-08-30T23:45:39.665Z</time>
      </trkpt>
      <trkpt lat="41.44258" lon="-1.14011">
        <ele>496.776839</ele>
        <time>2022-08-30T23:45:56.986Z</time>
      </trkpt>
      <trkpt lat="41.44201" lon="-1.14032">
        <ele>498.128948</ele>
        <time>2022-08-30T23:46:17.953Z</time>
      </trkpt>
      <trkpt lat="41.43862" lon="-1.14142">
        <ele>507.942137</ele>
        <time>2022-08-30T23:48:26.489Z</time>
      </trkpt>
      <trkpt lat="41.43811" lon="-1.14161">
        <ele>508.83034</ele>
        <time>2022-08-30T23:48:42.877Z</time>
      </trkpt>
      <trkpt lat="41.43732" lon="-1.14208">
        <ele>510.289919</ele>
        <time>2022-08-30T23:49:08.512Z</time>
      </trkpt>
      <trkpt lat="41.43695" lon="-1.14223">
        <ele>510.956688</ele>
        <time>2022-08-30T23:49:19.593Z</time>
      </trkpt>
      <trkpt lat="41.43363" lon="-1.14307">
        <ele>515.683236</ele>
        <time>2022-08-30T23:50:58.769Z</time>
      </trkpt>
      <trkpt lat="41.43307" lon="-1.14326">
        <ele>516.636321</ele>
        <time>2022-08-30T23:51:15.338Z</time>
      </trkpt>
      <trkpt lat="41.43264" lon="-1.14348">
        <ele>517.458458</ele>
        <time>2022-08-30T23:51:28.708Z</time>
      </trkpt>
      <trkpt lat="41.42431" lon="-1.1484">
        <ele>533.658733</ele>
        <time>2022-08-30T23:56:14.506Z</time>
      </trkpt>
      <trkpt lat="41.4237" lon="-1.14884">
        <ele>534.834325</ele>
        <time>2022-08-30T23:56:35.251Z</time>
      </trkpt>
      <trkpt lat="41.41774" lon="-1.15389">
        <ele>546.057466</ele>
        <time>2022-08-31T00:00:11.086Z</time>
      </trkpt>
      <trkpt lat="41.41727" lon="-1.15436">
        <ele>546.25255</ele>
        <time>2022-08-31T00:00:25.547Z</time>
      </trkpt>
      <trkpt lat="41.41001" lon="-1.16331">
        <ele>539.26031</ele>
        <time>2022-08-31T00:03:46.297Z</time>
      </trkpt>
      <trkpt lat="41.40931" lon="-1.16388">
        <ele>538.607227</ele>
        <time>2022-08-31T00:04:03.496Z</time>
      </trkpt>
      <trkpt lat="41.40782" lon="-1.16481">
        <ele>536.920329</ele>
        <time>2022-08-31T00:04:35.996Z</time>
      </trkpt>
      <trkpt lat="41.40757" lon="-1.16498">
        <ele>536.637081</ele>
        <time>2022-08-31T00:04:41.445Z</time>
      </trkpt>
      <trkpt lat="41.40714" lon="-1.16523">
        <ele>536.164018</ele>
        <time>2022-08-31T00:04:50.522Z</time>
      </trkpt>
      <trkpt lat="41.40703" lon="-1.16527">
        <ele>536.048944</ele>
        <time>2022-08-31T00:04:52.680Z</time>
      </trkpt>
      <trkpt lat="41.40657" lon="-1.16539">
        <ele>535.57026</ele>
        <time>2022-08-31T00:05:01.953Z</time>
      </trkpt>
      <trkpt lat="41.40619" lon="-1.1657">
        <ele>535.141159</ele>
        <time>2022-08-31T00:05:10.958Z</time>
      </trkpt>
      <trkpt lat="41.40612" lon="-1.16579">
        <ele>535.129445</ele>
        <time>2022-08-31T00:05:12.823Z</time>
      </trkpt>
      <trkpt lat="41.40603" lon="-1.16592">
        <ele>535.111397</ele>
        <time>2022-08-31T00:05:15.774Z</time>
      </trkpt>
      <trkpt lat="41.40573" lon="-1.16613">
        <ele>535.06849</ele>
        <time>2022-08-31T00:05:23.180Z</time>
      </trkpt>
      <trkpt lat="41.40476" lon="-1.16675">
        <ele>534.929957</ele>
        <time>2022-08-31T00:05:48.953Z</time>
      </trkpt>
      <trkpt lat="41.40477" lon="-1.1669">
        <ele>534.914868</ele>
        <time>2022-08-31T00:05:51.627Z</time>
      </trkpt>
      <trkpt lat="41.40435" lon="-1.16748">
        <ele>534.617046</ele>
        <time>2022-08-31T00:06:05.205Z</time>
      </trkpt>
      <trkpt lat="41.40467" lon="-1.16796">
        <ele>534.375667</ele>
        <time>2022-08-31T00:06:15.578Z</time>
      </trkpt>
      <trkpt lat="41.40486" lon="-1.16871">
        <ele>534.081202</ele>
        <time>2022-08-31T00:06:28.249Z</time>
      </trkpt>
      <trkpt lat="41.40478" lon="-1.16915">
        <ele>533.794397</ele>
        <time>2022-08-31T00:06:35.509Z</time>
      </trkpt>
      <trkpt lat="41.40457" lon="-1.16979">
        <ele>533.23302</ele>
        <time>2022-08-31T00:06:46.524Z</time>
      </trkpt>
      <trkpt lat="41.40413" lon="-1.17032">
        <ele>532.60139</ele>
        <time>2022-08-31T00:06:58.736Z</time>
      </trkpt>
      <trkpt lat="41.40374" lon="-1.17059">
        <ele>532.133088</ele>
        <time>2022-08-31T00:07:07.560Z</time>
      </trkpt>
      <trkpt lat="41.40382" lon="-1.17268">
        <ele>529.567128</ele>
        <time>2022-08-31T00:07:48.065Z</time>
      </trkpt>
      <trkpt lat="41.40378" lon="-1.17304">
        <ele>529.126046</ele>
        <time>2022-08-31T00:07:54.637Z</time>
      </trkpt>
      <trkpt lat="41.4038" lon="-1.17391">
        <ele>528.029851</ele>
        <time>2022-08-31T00:08:10.950Z</time>
      </trkpt>
      <trkpt lat="41.40389" lon="-1.17463">
        <ele>527.108597</ele>
        <time>2022-08-31T00:08:24.892Z</time>
      </trkpt>
      <trkpt lat="41.40389" lon="-1.175">
        <ele>526.64181</ele>
        <time>2022-08-31T00:08:31.986Z</time>
      </trkpt>
      <trkpt lat="41.40411" lon="-1.17665">
        <ele>524.96488</ele>
        <time>2022-08-31T00:09:05.374Z</time>
      </trkpt>
      <trkpt lat="41.40412" lon="-1.17724">
        <ele>524.433549</ele>
        <time>2022-08-31T00:09:17.012Z</time>
      </trkpt>
      <trkpt lat="41.40397" lon="-1.17742">
        <ele>524.195576</ele>
        <time>2022-08-31T00:09:22.280Z</time>
      </trkpt>
      <trkpt lat="41.40371" lon="-1.17747">
        <ele>523.860569</ele>
        <time>2022-08-31T00:09:29.121Z</time>
      </trkpt>
      <trkpt lat="41.40356" lon="-1.17776">
        <ele>523.459129</ele>
        <time>2022-08-31T00:09:36.088Z</time>
      </trkpt>
      <trkpt lat="41.40365" lon="-1.17802">
        <ele>523.133771</ele>
        <time>2022-08-31T00:09:41.733Z</time>
      </trkpt>
      <trkpt lat="41.40381" lon="-1.17849">
        <ele>522.562956</ele>
        <time>2022-08-31T00:09:49.463Z</time>
      </trkpt>
      <trkpt lat="41.40391" lon="-1.1789">
        <ele>522.074588</ele>
        <time>2022-08-31T00:09:57.833Z</time>
      </trkpt>
      <trkpt lat="41.40401" lon="-1.17932">
        <ele>521.572234</ele>
        <time>2022-08-31T00:10:06.358Z</time>
      </trkpt>
      <trkpt lat="41.40394" lon="-1.17972">
        <ele>521.145101</ele>
        <time>2022-08-31T00:10:13.976Z</time>
      </trkpt>
      <trkpt lat="41.40401" lon="-1.17993">
        <ele>520.937893</ele>
        <time>2022-08-31T00:10:18.486Z</time>
      </trkpt>
      <trkpt lat="41.40423" lon="-1.1801">
        <ele>520.645832</ele>
        <time>2022-08-31T00:10:24.807Z</time>
      </trkpt>
      <trkpt lat="41.4043" lon="-1.18047">
        <ele>520.309564</ele>
        <time>2022-08-31T00:10:32.165Z</time>
      </trkpt>
      <trkpt lat="41.40449" lon="-1.18144">
        <ele>519.415484</ele>
        <time>2022-08-31T00:10:47.348Z</time>
      </trkpt>
      <trkpt lat="41.40462" lon="-1.18183">
        <ele>519.096868</ele>
        <time>2022-08-31T00:10:53.805Z</time>
      </trkpt>
      <trkpt lat="41.40467" lon="-1.18251">
        <ele>518.901444</ele>
        <time>2022-08-31T00:11:04.491Z</time>
      </trkpt>
      <trkpt lat="41.40463" lon="-1.18279">
        <ele>518.817684</ele>
        <time>2022-08-31T00:11:09.218Z</time>
      </trkpt>
      <trkpt lat="41.4046" lon="-1.18421">
        <ele>518.408442</ele>
        <time>2022-08-31T00:11:32.144Z</time>
      </trkpt>
      <trkpt lat="41.40449" lon="-1.18488">
        <ele>518.177616</ele>
        <time>2022-08-31T00:11:42.877Z</time>
      </trkpt>
      <trkpt lat="41.40462" lon="-1.18592">
        <ele>517.818072</ele>
        <time>2022-08-31T00:11:59.407Z</time>
      </trkpt>
      <trkpt lat="41.40461" lon="-1.18634">
        <ele>517.676083</ele>
        <time>2022-08-31T00:12:05.984Z</time>
      </trkpt>
      <trkpt lat="41.40443" lon="-1.18781">
        <ele>517.388502</ele>
        <time>2022-08-31T00:12:29.871Z</time>
      </trkpt>
      <trkpt lat="41.40424" lon="-1.18889">
        <ele>517.187013</ele>
        <time>2022-08-31T00:12:47.991Z</time>
      </trkpt>
      <trkpt lat="41.40425" lon="-1.18992">
        <ele>516.808292</ele>
        <time>2022-08-31T00:13:04.925Z</time>
      </trkpt>
      <trkpt lat="41.40436" lon="-1.1916">
        <ele>515.841076</ele>
        <time>2022-08-31T00:13:30.976Z</time>
      </trkpt>
      <trkpt lat="41.40432" lon="-1.1923">
        <ele>514.922211</ele>
        <time>2022-08-31T00:13:40.953Z</time>
      </trkpt>
      <trkpt lat="41.40379" lon="-1.195">
        <ele>510.557566</ele>
        <time>2022-08-31T00:14:18.583Z</time>
      </trkpt>
      <trkpt lat="41.40347" lon="-1.19609">
        <ele>508.51116</ele>
        <time>2022-08-31T00:14:34.172Z</time>
      </trkpt>
      <trkpt lat="41.40335" lon="-1.1973">
        <ele>506.579541</ele>
        <time>2022-08-31T00:14:50.749Z</time>
      </trkpt>
      <trkpt lat="41.40323" lon="-1.19812">
        <ele>505.259201</ele>
        <time>2022-08-31T00:15:02.297Z</time>
      </trkpt>
      <trkpt lat="41.40334" lon="-1.19924">
        <ele>503.707618</ele>
        <time>2022-08-31T00:15:18.073Z</time>
      </trkpt>
      <trkpt lat="41.4038" lon="-1.20108">
        <ele>501.233829</ele>
        <time>2022-08-31T00:15:45.188Z</time>
      </trkpt>
      <trkpt lat="41.40386" lon="-1.20165">
        <ele>500.595268</ele>
        <time>2022-08-31T00:15:53.364Z</time>
      </trkpt>
      <trkpt lat="41.40412" lon="-1.20312">
        <ele>499.079223</ele>
        <time>2022-08-31T00:16:15.399Z</time>
      </trkpt>
      <trkpt lat="41.40416" lon="-1.20493">
        <ele>498.129498</ele>
        <time>2022-08-31T00:16:43.083Z</time>
      </trkpt>
      <trkpt lat="41.40418" lon="-1.20522">
        <ele>497.97564</ele>
        <time>2022-08-31T00:16:47.767Z</time>
      </trkpt>
      <trkpt lat="41.40431" lon="-1.20551">
        <ele>497.907197</ele>
        <time>2022-08-31T00:16:53.200Z</time>
      </trkpt>
      <trkpt lat="41.40439" lon="-1.2057">
        <ele>497.877522</ele>
        <time>2022-08-31T00:16:56.690Z</time>
      </trkpt>
      <trkpt lat="41.40443" lon="-1.20595">
        <ele>497.842183</ele>
        <time>2022-08-31T00:17:00.915Z</time>
      </trkpt>
      <trkpt lat="41.40439" lon="-1.20769">
        <ele>497.618934</ele>
        <time>2022-08-31T00:17:29.496Z</time>
      </trkpt>
      <trkpt lat="41.40446" lon="-1.20896">
        <ele>497.601643</ele>
        <time>2022-08-31T00:17:50.905Z</time>
      </trkpt>
      <trkpt lat="41.4044" lon="-1.2105">
        <ele>497.496335</ele>
        <time>2022-08-31T00:18:16.519Z</time>
      </trkpt>
      <trkpt lat="41.40431" lon="-1.21128">
        <ele>497.357618</ele>
        <time>2022-08-31T00:18:29.320Z</time>
      </trkpt>
      <trkpt lat="41.40429" lon="-1.21323">
        <ele>496.940847</ele>
        <time>2022-08-31T00:19:00.325Z</time>
      </trkpt>
      <trkpt lat="41.40406" lon="-1.21517">
        <ele>496.549833</ele>
        <time>2022-08-31T00:19:31.550Z</time>
      </trkpt>
      <trkpt lat="41.40381" lon="-1.21672">
        <ele>496.588242</ele>
        <time>2022-08-31T00:19:58.218Z</time>
      </trkpt>
      <trkpt lat="41.40323" lon="-1.21953">
        <ele>497.45221</ele>
        <time>2022-08-31T00:20:52.274Z</time>
      </trkpt>
      <trkpt lat="41.40326" lon="-1.22242">
        <ele>498.171522</ele>
        <time>2022-08-31T00:21:44.198Z</time>
      </trkpt>
      <trkpt lat="41.40321" lon="-1.2235">
        <ele>498.401611</ele>
        <time>2022-08-31T00:22:02.655Z</time>
      </trkpt>
      <trkpt lat="41.40273" lon="-1.22545">
        <ele>499.271272</ele>
        <time>2022-08-31T00:22:40.575Z</time>
      </trkpt>
      <trkpt lat="41.40234" lon="-1.22741">
        <ele>500.470999</ele>
        <time>2022-08-31T00:23:22.177Z</time>
      </trkpt>
      <trkpt lat="41.40207" lon="-1.22794">
        <ele>500.893068</ele>
        <time>2022-08-31T00:23:35.381Z</time>
      </trkpt>
      <trkpt lat="41.40184" lon="-1.22852">
        <ele>501.321713</ele>
        <time>2022-08-31T00:23:47.948Z</time>
      </trkpt>
      <trkpt lat="41.40178" lon="-1.22886">
        <ele>501.420669</ele>
        <time>2022-08-31T00:23:54.473Z</time>
      </trkpt>
      <trkpt lat="41.40132" lon="-1.22862">
        <ele>501.489767</ele>
        <time>2022-08-31T00:24:06.338Z</time>
      </trkpt>
      <trkpt lat="41.40153" lon="-1.22898">
        <ele>501.538097</ele>
        <time>2022-08-31T00:24:14.011Z</time>
      </trkpt>
      <trkpt lat="41.40031" lon="-1.22998">
        <ele>501.732703</ele>
        <time>2022-08-31T00:24:47.035Z</time>
      </trkpt>
      <trkpt lat="41.39909" lon="-1.23042">
        <ele>501.972446</ele>
        <time>2022-08-31T00:25:17.208Z</time>
      </trkpt>
      <trkpt lat="41.39823" lon="-1.23129">
        <ele>502.841114</ele>
        <time>2022-08-31T00:25:46.152Z</time>
      </trkpt>
      <trkpt lat="41.39791" lon="-1.23134">
        <ele>503.101958</ele>
        <time>2022-08-31T00:25:55.432Z</time>
      </trkpt>
      <trkpt lat="41.39665" lon="-1.23152">
        <ele>504.665336</ele>
        <time>2022-08-31T00:26:33.012Z</time>
      </trkpt>
      <trkpt lat="41.39614" lon="-1.23166">
        <ele>505.36817</ele>
        <time>2022-08-31T00:26:49.142Z</time>
      </trkpt>
      <trkpt lat="41.39457" lon="-1.23178">
        <ele>507.566523</ele>
        <time>2022-08-31T00:27:35.963Z</time>
      </trkpt>
      <trkpt lat="41.39367" lon="-1.23158">
        <ele>508.827928</ele>
        <time>2022-08-31T00:28:03.892Z</time>
      </trkpt>
      <trkpt lat="41.39234" lon="-1.23109">
        <ele>510.727527</ele>
        <time>2022-08-31T00:28:45.047Z</time>
      </trkpt>
      <trkpt lat="41.39102" lon="-1.23095">
        <ele>512.630736</ele>
        <time>2022-08-31T00:29:25.249Z</time>
      </trkpt>
      <trkpt lat="41.38899" lon="-1.23032">
        <ele>515.711154</ele>
        <time>2022-08-31T00:30:28.808Z</time>
      </trkpt>
      <trkpt lat="41.38807" lon="-1.23022">
        <ele>517.183048</ele>
        <time>2022-08-31T00:30:57.241Z</time>
      </trkpt>
      <trkpt lat="41.38561" lon="-1.23017">
        <ele>521.172389</ele>
        <time>2022-08-31T00:32:15.527Z</time>
      </trkpt>
      <trkpt lat="41.37984" lon="-1.22794">
        <ele>529.603887</ele>
        <time>2022-08-31T00:35:15.861Z</time>
      </trkpt>
      <trkpt lat="41.37943" lon="-1.22891">
        <ele>531.119846</ele>
        <time>2022-08-31T00:35:41.662Z</time>
      </trkpt>
      <trkpt lat="41.37515" lon="-1.23564">
        <ele>545.284777</ele>
        <time>2022-08-31T00:39:27.950Z</time>
      </trkpt>
      <trkpt lat="41.37402" lon="-1.23674">
        <ele>548.048978</ele>
        <time>2022-08-31T00:40:13.841Z</time>
      </trkpt>
      <trkpt lat="41.37302" lon="-1.23781">
        <ele>550.274921</ele>
        <time>2022-08-31T00:40:54.290Z</time>
      </trkpt>
      <trkpt lat="41.37271" lon="-1.23825">
        <ele>551.062931</ele>
        <time>2022-08-31T00:41:08.211Z</time>
      </trkpt>
      <trkpt lat="41.37152" lon="-1.23904">
        <ele>553.677818</ele>
        <time>2022-08-31T00:41:51.881Z</time>
      </trkpt>
      <trkpt lat="41.3687" lon="-1.2421">
        <ele>561.519632</ele>
        <time>2022-08-31T00:43:57.894Z</time>
      </trkpt>
      <trkpt lat="41.36702" lon="-1.24358">
        <ele>565.015014</ele>
        <time>2022-08-31T00:44:59.716Z</time>
      </trkpt>
      <trkpt lat="41.36645" lon="-1.2443">
        <ele>566.562626</ele>
        <time>2022-08-31T00:45:25.588Z</time>
      </trkpt>
      <trkpt lat="41.36586" lon="-1.24536">
        <ele>568.627498</ele>
        <time>2022-08-31T00:45:59.405Z</time>
      </trkpt>
      <trkpt lat="41.3649" lon="-1.24645">
        <ele>571.274521</ele>
        <time>2022-08-31T00:46:42.700Z</time>
      </trkpt>
      <trkpt lat="41.36423" lon="-1.24699">
        <ele>572.892799</ele>
        <time>2022-08-31T00:47:08.264Z</time>
      </trkpt>
      <trkpt lat="41.36332" lon="-1.24823">
        <ele>575.429664</ele>
        <time>2022-08-31T00:47:50.698Z</time>
      </trkpt>
      <trkpt lat="41.36169" lon="-1.25011">
        <ele>579.74371</ele>
        <time>2022-08-31T00:49:02.155Z</time>
      </trkpt>
      <trkpt lat="41.36149" lon="-1.25016">
        <ele>580.161981</ele>
        <time>2022-08-31T00:49:09.221Z</time>
      </trkpt>
      <trkpt lat="41.35922" lon="-1.25225">
        <ele>586.317767</ele>
        <time>2022-08-31T00:50:44.091Z</time>
      </trkpt>
      <trkpt lat="41.35802" lon="-1.25412">
        <ele>590.644584</ele>
        <time>2022-08-31T00:51:47.706Z</time>
      </trkpt>
      <trkpt lat="41.354" lon="-1.25951">
        <ele>605.148192</ele>
        <time>2022-08-31T00:55:14.598Z</time>
      </trkpt>
      <trkpt lat="41.35203" lon="-1.26055">
        <ele>609.661272</ele>
        <time>2022-08-31T00:56:24.037Z</time>
      </trkpt>
      <trkpt lat="41.34758" lon="-1.26271">
        <ele>621.845064</ele>
        <time>2022-08-31T00:59:14.412Z</time>
      </trkpt>
      <trkpt lat="41.34666" lon="-1.26329">
        <ele>625.192171</ele>
        <time>2022-08-31T00:59:52.382Z</time>
      </trkpt>
      <trkpt lat="41.34627" lon="-1.26372">
        <ele>627.764012</ele>
        <time>2022-08-31T01:00:14.861Z</time>
      </trkpt>
      <trkpt lat="41.34606" lon="-1.26387">
        <ele>628.978086</ele>
        <time>2022-08-31T01:00:25.996Z</time>
      </trkpt>
      <trkpt lat="41.34369" lon="-1.26472">
        <ele>643.209595</ele>
        <time>2022-08-31T01:02:42.598Z</time>
      </trkpt>
      <trkpt lat="41.34212" lon="-1.26536">
        <ele>650.599966</ele>
        <time>2022-08-31T01:03:59.813Z</time>
      </trkpt>
      <trkpt lat="41.34118" lon="-1.2665">
        <ele>653.262349</ele>
        <time>2022-08-31T01:04:43.081Z</time>
      </trkpt>
      <trkpt lat="41.34093" lon="-1.26661">
        <ele>653.628754</ele>
        <time>2022-08-31T01:04:50.280Z</time>
      </trkpt>
      <trkpt lat="41.34053" lon="-1.26663">
        <ele>654.173388</ele>
        <time>2022-08-31T01:05:00.055Z</time>
      </trkpt>
      <trkpt lat="41.34046" lon="-1.26678">
        <ele>654.367818</ele>
        <time>2022-08-31T01:05:03.889Z</time>
      </trkpt>
      <trkpt lat="41.34053" lon="-1.26724">
        <ele>653.759068</ele>
        <time>2022-08-31T01:05:11.384Z</time>
      </trkpt>
      <trkpt lat="41.34049" lon="-1.26767">
        <ele>653.080877</ele>
        <time>2022-08-31T01:05:17.703Z</time>
      </trkpt>
      <trkpt lat="41.34024" lon="-1.26847">
        <ele>651.729037</ele>
        <time>2022-08-31T01:05:29.162Z</time>
      </trkpt>
      <trkpt lat="41.33989" lon="-1.26934">
        <ele>649.995576</ele>
        <time>2022-08-31T01:05:41.575Z</time>
      </trkpt>
      <trkpt lat="41.33987" lon="-1.26946">
        <ele>649.723308</ele>
        <time>2022-08-31T01:05:43.060Z</time>
      </trkpt>
      <trkpt lat="41.33992" lon="-1.2696">
        <ele>649.390956</ele>
        <time>2022-08-31T01:05:45.116Z</time>
      </trkpt>
      <trkpt lat="41.34029" lon="-1.27006">
        <ele>647.918545</ele>
        <time>2022-08-31T01:05:53.593Z</time>
      </trkpt>
      <trkpt lat="41.34018" lon="-1.27022">
        <ele>647.44271</ele>
        <time>2022-08-31T01:05:56.407Z</time>
      </trkpt>
      <trkpt lat="41.34012" lon="-1.27055">
        <ele>646.69052</ele>
        <time>2022-08-31T01:06:01.004Z</time>
      </trkpt>
      <trkpt lat="41.3401" lon="-1.27074">
        <ele>646.279888</ele>
        <time>2022-08-31T01:06:03.734Z</time>
      </trkpt>
      <trkpt lat="41.33999" lon="-1.27091">
        <ele>645.796393</ele>
        <time>2022-08-31T01:06:06.866Z</time>
      </trkpt>
      <trkpt lat="41.33981" lon="-1.27109">
        <ele>645.523315</ele>
        <time>2022-08-31T01:06:11.417Z</time>
      </trkpt>
      <trkpt lat="41.33969" lon="-1.27114">
        <ele>645.652106</ele>
        <time>2022-08-31T01:06:13.863Z</time>
      </trkpt>
      <trkpt lat="41.33972" lon="-1.27129">
        <ele>645.772285</ele>
        <time>2022-08-31T01:06:16.443Z</time>
      </trkpt>
      <trkpt lat="41.33977" lon="-1.2715">
        <ele>645.939332</ele>
        <time>2022-08-31T01:06:20.188Z</time>
      </trkpt>
      <trkpt lat="41.33999" lon="-1.27204">
        <ele>646.420321</ele>
        <time>2022-08-31T01:06:33.532Z</time>
      </trkpt>
      <trkpt lat="41.34013" lon="-1.27223">
        <ele>646.63119</ele>
        <time>2022-08-31T01:06:40.070Z</time>
      </trkpt>
      <trkpt lat="41.33982" lon="-1.27289">
        <ele>647.237168</ele>
        <time>2022-08-31T01:06:59.627Z</time>
      </trkpt>
      <trkpt lat="41.3385" lon="-1.27437">
        <ele>653.740544</ele>
        <time>2022-08-31T01:08:13.690Z</time>
      </trkpt>
      <trkpt lat="41.33804" lon="-1.2751">
        <ele>656.695162</ele>
        <time>2022-08-31T01:08:46.542Z</time>
      </trkpt>
      <trkpt lat="41.33709" lon="-1.27637">
        <ele>662.13676</ele>
        <time>2022-08-31T01:09:46.591Z</time>
      </trkpt>
      <trkpt lat="41.33399" lon="-1.28153">
        <ele>677.675753</ele>
        <time>2022-08-31T01:12:50.787Z</time>
      </trkpt>
      <trkpt lat="41.33285" lon="-1.28412">
        <ele>686.7192</ele>
        <time>2022-08-31T01:14:27.320Z</time>
      </trkpt>
      <trkpt lat="41.33133" lon="-1.2876">
        <ele>700.298498</ele>
        <time>2022-08-31T01:16:43.101Z</time>
      </trkpt>
      <trkpt lat="41.33082" lon="-1.28881">
        <ele>705.220235</ele>
        <time>2022-08-31T01:17:29.792Z</time>
      </trkpt>
      <trkpt lat="41.33076" lon="-1.28925">
        <ele>706.865024</ele>
        <time>2022-08-31T01:17:45.223Z</time>
      </trkpt>
      <trkpt lat="41.33096" lon="-1.29954">
        <ele>746.241932</ele>
        <time>2022-08-31T01:23:58.001Z</time>
      </trkpt>
      <trkpt lat="41.33072" lon="-1.3007">
        <ele>749.530996</ele>
        <time>2022-08-31T01:24:35.499Z</time>
      </trkpt>
      <trkpt lat="41.33028" lon="-1.30133">
        <ele>751.471513</ele>
        <time>2022-08-31T01:24:59.285Z</time>
      </trkpt>
      <trkpt lat="41.33018" lon="-1.30157">
        <ele>752.085385</ele>
        <time>2022-08-31T01:25:06.162Z</time>
      </trkpt>
      <trkpt lat="41.33001" lon="-1.30232">
        <ele>753.538272</ele>
        <time>2022-08-31T01:25:25.039Z</time>
      </trkpt>
      <trkpt lat="41.33005" lon="-1.30272">
        <ele>754.070574</ele>
        <time>2022-08-31T01:25:34.570Z</time>
      </trkpt>
      <trkpt lat="41.33045" lon="-1.30305">
        <ele>754.873863</ele>
        <time>2022-08-31T01:25:48.389Z</time>
      </trkpt>
      <trkpt lat="41.33056" lon="-1.30325">
        <ele>755.198311</ele>
        <time>2022-08-31T01:25:53.779Z</time>
      </trkpt>
      <trkpt lat="41.33073" lon="-1.30381">
        <ele>755.973141</ele>
        <time>2022-08-31T01:26:06.621Z</time>
      </trkpt>
      <trkpt lat="41.33077" lon="-1.30412">
        <ele>756.598122</ele>
        <time>2022-08-31T01:26:13.945Z</time>
      </trkpt>
      <trkpt lat="41.33064" lon="-1.30562">
        <ele>760.809646</ele>
        <time>2022-08-31T01:26:55.200Z</time>
      </trkpt>
      <trkpt lat="41.33021" lon="-1.3085">
        <ele>773.090368</ele>
        <time>2022-08-31T01:28:52.698Z</time>
      </trkpt>
      <trkpt lat="41.33028" lon="-1.31044">
        <ele>782.476199</ele>
        <time>2022-08-31T01:30:12.672Z</time>
      </trkpt>
      <trkpt lat="41.32985" lon="-1.31086">
        <ele>785.881811</ele>
        <time>2022-08-31T01:30:41.604Z</time>
      </trkpt>
      <trkpt lat="41.32983" lon="-1.31094">
        <ele>786.238421</ele>
        <time>2022-08-31T01:30:45.024Z</time>
      </trkpt>
      <trkpt lat="41.32966" lon="-1.31162">
        <ele>789.231723</ele>
        <time>2022-08-31T01:31:14.068Z</time>
      </trkpt>
      <trkpt lat="41.32971" lon="-1.31208">
        <ele>791.220921</ele>
        <time>2022-08-31T01:31:32.075Z</time>
      </trkpt>
      <trkpt lat="41.33024" lon="-1.31288">
        <ele>795.71073</ele>
        <time>2022-08-31T01:32:10.652Z</time>
      </trkpt>
      <trkpt lat="41.33038" lon="-1.31323">
        <ele>796.795667</ele>
        <time>2022-08-31T01:32:24.172Z</time>
      </trkpt>
      <trkpt lat="41.33046" lon="-1.3136">
        <ele>797.824315</ele>
        <time>2022-08-31T01:32:36.065Z</time>
      </trkpt>
      <trkpt lat="41.33038" lon="-1.31377">
        <ele>798.333093</ele>
        <time>2022-08-31T01:32:41.741Z</time>
      </trkpt>
      <trkpt lat="41.33028" lon="-1.31385">
        <ele>798.769859</ele>
        <time>2022-08-31T01:32:46.445Z</time>
      </trkpt>
      <trkpt lat="41.33005" lon="-1.3139">
        <ele>799.58303</ele>
        <time>2022-08-31T01:32:55.142Z</time>
      </trkpt>
      <trkpt lat="41.32958" lon="-1.31351">
        <ele>801.541052</ele>
        <time>2022-08-31T01:33:14.848Z</time>
      </trkpt>
      <trkpt lat="41.32938" lon="-1.31366">
        <ele>802.431529</ele>
        <time>2022-08-31T01:33:23.236Z</time>
      </trkpt>
      <trkpt lat="41.3293" lon="-1.31385">
        <ele>803.32969</ele>
        <time>2022-08-31T01:33:29.501Z</time>
      </trkpt>
      <trkpt lat="41.3292" lon="-1.31464">
        <ele>806.58358</ele>
        <time>2022-08-31T01:33:53.996Z</time>
      </trkpt>
      <trkpt lat="41.32909" lon="-1.31502">
        <ele>808.18512</ele>
        <time>2022-08-31T01:34:09.004Z</time>
      </trkpt>
      <trkpt lat="41.32892" lon="-1.31541">
        <ele>810.042385</ele>
        <time>2022-08-31T01:34:28.928Z</time>
      </trkpt>
      <trkpt lat="41.32885" lon="-1.31579">
        <ele>811.589708</ele>
        <time>2022-08-31T01:34:46.402Z</time>
      </trkpt>
      <trkpt lat="41.32889" lon="-1.31606">
        <ele>813.086895</ele>
        <time>2022-08-31T01:34:59.479Z</time>
      </trkpt>
      <trkpt lat="41.32901" lon="-1.31645">
        <ele>815.537981</ele>
        <time>2022-08-31T01:35:20.009Z</time>
      </trkpt>
      <trkpt lat="41.32926" lon="-1.31696">
        <ele>819.080696</ele>
        <time>2022-08-31T01:35:50.828Z</time>
      </trkpt>
      <trkpt lat="41.32982" lon="-1.31781">
        <ele>825.67122</ele>
        <time>2022-08-31T01:36:42.427Z</time>
      </trkpt>
      <trkpt lat="41.32984" lon="-1.31805">
        <ele>826.419938</ele>
        <time>2022-08-31T01:36:52.369Z</time>
      </trkpt>
      <trkpt lat="41.32972" lon="-1.31822">
        <ele>827.135419</ele>
        <time>2022-08-31T01:37:00.979Z</time>
      </trkpt>
      <trkpt lat="41.32849" lon="-1.31818">
        <ele>832.144274</ele>
        <time>2022-08-31T01:37:50.190Z</time>
      </trkpt>
      <trkpt lat="41.32826" lon="-1.31829">
        <ele>833.128807</ele>
        <time>2022-08-31T01:37:58.223Z</time>
      </trkpt>
      <trkpt lat="41.32795" lon="-1.31858">
        <ele>834.476509</ele>
        <time>2022-08-31T01:38:10.512Z</time>
      </trkpt>
      <trkpt lat="41.32781" lon="-1.31883">
        <ele>835.305643</ele>
        <time>2022-08-31T01:38:17.973Z</time>
      </trkpt>
      <trkpt lat="41.32768" lon="-1.31959">
        <ele>837.381031</ele>
        <time>2022-08-31T01:38:39.499Z</time>
      </trkpt>
      <trkpt lat="41.32746" lon="-1.31983">
        <ele>838.419901</ele>
        <time>2022-08-31T01:38:52.183Z</time>
      </trkpt>
      <trkpt lat="41.32727" lon="-1.31991">
        <ele>839.106019</ele>
        <time>2022-08-31T01:39:01.573Z</time>
      </trkpt>
      <trkpt lat="41.32711" lon="-1.32008">
        <ele>840.30225</ele>
        <time>2022-08-31T01:39:12.432Z</time>
      </trkpt>
      <trkpt lat="41.32697" lon="-1.32046">
        <ele>842.777411</ele>
        <time>2022-08-31T01:39:29.971Z</time>
      </trkpt>
      <trkpt lat="41.32686" lon="-1.32099">
        <ele>845.993503</ele>
        <time>2022-08-31T01:39:54.193Z</time>
      </trkpt>
      <trkpt lat="41.32679" lon="-1.32167">
        <ele>849.934406</ele>
        <time>2022-08-31T01:40:25.869Z</time>
      </trkpt>
      <trkpt lat="41.32692" lon="-1.32313">
        <ele>859.274961</ele>
        <time>2022-08-31T01:41:46.070Z</time>
      </trkpt>
      <trkpt lat="41.32692" lon="-1.3234">
        <ele>861.054567</ele>
        <time>2022-08-31T01:41:59.593Z</time>
      </trkpt>
      <trkpt lat="41.32682" lon="-1.3239">
        <ele>864.508433</ele>
        <time>2022-08-31T01:42:24.639Z</time>
      </trkpt>
      <trkpt lat="41.32676" lon="-1.32428">
        <ele>867.156871</ele>
        <time>2022-08-31T01:42:43.098Z</time>
      </trkpt>
      <trkpt lat="41.32676" lon="-1.32456">
        <ele>869.036774</ele>
        <time>2022-08-31T01:42:56.787Z</time>
      </trkpt>
      <trkpt lat="41.327" lon="-1.32585">
        <ele>877.255539</ele>
        <time>2022-08-31T01:43:57.313Z</time>
      </trkpt>
      <trkpt lat="41.32713" lon="-1.32621">
        <ele>879.736063</ele>
        <time>2022-08-31T01:44:16.802Z</time>
      </trkpt>
      <trkpt lat="41.32718" lon="-1.32651">
        <ele>881.608168</ele>
        <time>2022-08-31T01:44:30.007Z</time>
      </trkpt>
      <trkpt lat="41.32697" lon="-1.32722">
        <ele>887.072198</ele>
        <time>2022-08-31T01:45:08.252Z</time>
      </trkpt>
      <trkpt lat="41.32703" lon="-1.32805">
        <ele>893.935545</ele>
        <time>2022-08-31T01:45:57.999Z</time>
      </trkpt>
      <trkpt lat="41.32709" lon="-1.32829">
        <ele>895.995897</ele>
        <time>2022-08-31T01:46:12.450Z</time>
      </trkpt>
      <trkpt lat="41.32751" lon="-1.32936">
        <ele>905.637007</ele>
        <time>2022-08-31T01:47:27.710Z</time>
      </trkpt>
      <trkpt lat="41.32817" lon="-1.33062">
        <ele>917.13087</ele>
        <time>2022-08-31T01:48:53.948Z</time>
      </trkpt>
      <trkpt lat="41.32817" lon="-1.33079">
        <ele>918.359019</ele>
        <time>2022-08-31T01:49:03.723Z</time>
      </trkpt>
      <trkpt lat="41.32804" lon="-1.33085">
        <ele>919.710941</ele>
        <time>2022-08-31T01:49:11.519Z</time>
      </trkpt>
      <trkpt lat="41.32782" lon="-1.33076">
        <ele>921.808304</ele>
        <time>2022-08-31T01:49:25.428Z</time>
      </trkpt>
      <trkpt lat="41.32656" lon="-1.32971">
        <ele>930.303607</ele>
        <time>2022-08-31T01:50:42.264Z</time>
      </trkpt>
      <trkpt lat="41.32587" lon="-1.3292">
        <ele>932.824282</ele>
        <time>2022-08-31T01:51:13.787Z</time>
      </trkpt>
      <trkpt lat="41.3253" lon="-1.32799">
        <ele>934.770409</ele>
        <time>2022-08-31T01:51:43.932Z</time>
      </trkpt>
      <trkpt lat="41.32482" lon="-1.32735">
        <ele>935.994989</ele>
        <time>2022-08-31T01:51:59.218Z</time>
      </trkpt>
      <trkpt lat="41.32468" lon="-1.32731">
        <ele>936.250252</ele>
        <time>2022-08-31T01:52:02.473Z</time>
      </trkpt>
      <trkpt lat="41.32448" lon="-1.32753">
        <ele>936.703768</ele>
        <time>2022-08-31T01:52:09.078Z</time>
      </trkpt>
      <trkpt lat="41.32436" lon="-1.32809">
        <ele>937.481725</ele>
        <time>2022-08-31T01:52:22.348Z</time>
      </trkpt>
      <trkpt lat="41.32398" lon="-1.32887">
        <ele>939.847183</ele>
        <time>2022-08-31T01:52:49.713Z</time>
      </trkpt>
      <trkpt lat="41.32385" lon="-1.32955">
        <ele>943.713539</ele>
        <time>2022-08-31T01:53:17.468Z</time>
      </trkpt>
      <trkpt lat="41.32387" lon="-1.33">
        <ele>946.202208</ele>
        <time>2022-08-31T01:53:39.882Z</time>
      </trkpt>
      <trkpt lat="41.32419" lon="-1.33128">
        <ele>954.237007</ele>
        <time>2022-08-31T01:54:48.846Z</time>
      </trkpt>
      <trkpt lat="41.32422" lon="-1.33161">
        <ele>956.627241</ele>
        <time>2022-08-31T01:55:07.550Z</time>
      </trkpt>
      <trkpt lat="41.32422" lon="-1.33273">
        <ele>964.6387</ele>
        <time>2022-08-31T01:56:05.303Z</time>
      </trkpt>
      <trkpt lat="41.32443" lon="-1.33333">
        <ele>969.242056</ele>
        <time>2022-08-31T01:56:43.404Z</time>
      </trkpt>
      <trkpt lat="41.32495" lon="-1.33426">
        <ele>976.061134</ele>
        <time>2022-08-31T01:57:37.377Z</time>
      </trkpt>
      <trkpt lat="41.32508" lon="-1.33483">
        <ele>979.649298</ele>
        <time>2022-08-31T01:58:05.785Z</time>
      </trkpt>
      <trkpt lat="41.32505" lon="-1.33552">
        <ele>983.360114</ele>
        <time>2022-08-31T01:58:35.384Z</time>
      </trkpt>
      <trkpt lat="41.32529" lon="-1.3363">
        <ele>986.008974</ele>
        <time>2022-08-31T01:59:04.996Z</time>
      </trkpt>
      <trkpt lat="41.32526" lon="-1.33641">
        <ele>986.390225</ele>
        <time>2022-08-31T01:59:08.562Z</time>
      </trkpt>
      <trkpt lat="41.32506" lon="-1.33646">
        <ele>987.222483</ele>
        <time>2022-08-31T01:59:16.149Z</time>
      </trkpt>
      <trkpt lat="41.32423" lon="-1.33604">
        <ele>991.100837</ele>
        <time>2022-08-31T01:59:48.035Z</time>
      </trkpt>
      <trkpt lat="41.324" lon="-1.33607">
        <ele>992.401414</ele>
        <time>2022-08-31T01:59:57.522Z</time>
      </trkpt>
      <trkpt lat="41.32391" lon="-1.33631">
        <ele>993.48474</ele>
        <time>2022-08-31T02:00:06.677Z</time>
      </trkpt>
      <trkpt lat="41.32395" lon="-1.3366">
        <ele>994.670829</ele>
        <time>2022-08-31T02:00:17.496Z</time>
      </trkpt>
      <trkpt lat="41.32435" lon="-1.33783">
        <ele>1000.118672</ele>
        <time>2022-08-31T02:01:11.175Z</time>
      </trkpt>
      <trkpt lat="41.3243" lon="-1.33829">
        <ele>1002.437912</ele>
        <time>2022-08-31T02:01:32.231Z</time>
      </trkpt>
      <trkpt lat="41.32414" lon="-1.33849">
        <ele>1003.945107</ele>
        <time>2022-08-31T02:01:46.481Z</time>
      </trkpt>
      <trkpt lat="41.32388" lon="-1.3386">
        <ele>1005.791562</ele>
        <time>2022-08-31T02:02:01.757Z</time>
      </trkpt>
      <trkpt lat="41.3237" lon="-1.33874">
        <ele>1007.15949</ele>
        <time>2022-08-31T02:02:13.491Z</time>
      </trkpt>
      <trkpt lat="41.32346" lon="-1.33882">
        <ele>1008.837003</ele>
        <time>2022-08-31T02:02:27.394Z</time>
      </trkpt>
      <trkpt lat="41.32281" lon="-1.3386">
        <ele>1013.455485</ele>
        <time>2022-08-31T02:03:02.287Z</time>
      </trkpt>
      <trkpt lat="41.32258" lon="-1.33861">
        <ele>1015.25509</ele>
        <time>2022-08-31T02:03:13.774Z</time>
      </trkpt>
      <trkpt lat="41.32249" lon="-1.33873">
        <ele>1016.232544</ele>
        <time>2022-08-31T02:03:19.833Z</time>
      </trkpt>
      <trkpt lat="41.32239" lon="-1.34034">
        <ele>1025.584626</ele>
        <time>2022-08-31T02:04:37.116Z</time>
      </trkpt>
      <trkpt lat="41.32213" lon="-1.3409">
        <ele>1030.217497</ele>
        <time>2022-08-31T02:05:12.570Z</time>
      </trkpt>
      <trkpt lat="41.32184" lon="-1.34118">
        <ele>1033.559231</ele>
        <time>2022-08-31T02:05:37.213Z</time>
      </trkpt>
      <trkpt lat="41.32155" lon="-1.34129">
        <ele>1036.410477</ele>
        <time>2022-08-31T02:06:00.453Z</time>
      </trkpt>
      <trkpt lat="41.32034" lon="-1.3409">
        <ele>1046.304351</ele>
        <time>2022-08-31T02:07:25.940Z</time>
      </trkpt>
      <trkpt lat="41.32024" lon="-1.34092">
        <ele>1046.912629</ele>
        <time>2022-08-31T02:07:33.499Z</time>
      </trkpt>
      <trkpt lat="41.31887" lon="-1.34146">
        <ele>1053.629999</ele>
        <time>2022-08-31T02:08:34.458Z</time>
      </trkpt>
      <trkpt lat="41.31875" lon="-1.34156">
        <ele>1053.593249</ele>
        <time>2022-08-31T02:08:38.897Z</time>
      </trkpt>
      <trkpt lat="41.31869" lon="-1.34178">
        <ele>1053.547339</ele>
        <time>2022-08-31T02:08:43.437Z</time>
      </trkpt>
      <trkpt lat="41.31881" lon="-1.34252">
        <ele>1053.399233</ele>
        <time>2022-08-31T02:08:56.277Z</time>
      </trkpt>
      <trkpt lat="41.31878" lon="-1.34267">
        <ele>1053.368663</ele>
        <time>2022-08-31T02:08:58.539Z</time>
      </trkpt>
      <trkpt lat="41.3187" lon="-1.34276">
        <ele>1053.341808</ele>
        <time>2022-08-31T02:09:00.417Z</time>
      </trkpt>
      <trkpt lat="41.31809" lon="-1.34315">
        <ele>1051.533598</ele>
        <time>2022-08-31T02:09:11.848Z</time>
      </trkpt>
      <trkpt lat="41.31752" lon="-1.34336">
        <ele>1047.414992</ele>
        <time>2022-08-31T02:09:20.894Z</time>
      </trkpt>
      <trkpt lat="41.31696" lon="-1.34414">
        <ele>1041.82149</ele>
        <time>2022-08-31T02:09:32.621Z</time>
      </trkpt>
      <trkpt lat="41.31682" lon="-1.34421">
        <ele>1040.757181</ele>
        <time>2022-08-31T02:09:34.871Z</time>
      </trkpt>
      <trkpt lat="41.31589" lon="-1.3443">
        <ele>1033.589207</ele>
        <time>2022-08-31T02:09:48.208Z</time>
      </trkpt>
      <trkpt lat="41.31419" lon="-1.34407">
        <ele>1021.753888</ele>
        <time>2022-08-31T02:10:14.320Z</time>
      </trkpt>
      <trkpt lat="41.31408" lon="-1.34409">
        <ele>1021.068453</ele>
        <time>2022-08-31T02:10:16.109Z</time>
      </trkpt>
      <trkpt lat="41.31399" lon="-1.34418">
        <ele>1020.398726</ele>
        <time>2022-08-31T02:10:17.909Z</time>
      </trkpt>
      <trkpt lat="41.31363" lon="-1.3456">
        <ele>1012.664954</ele>
        <time>2022-08-31T02:10:35.256Z</time>
      </trkpt>
      <trkpt lat="41.31362" lon="-1.34593">
        <ele>1010.619431</ele>
        <time>2022-08-31T02:10:38.920Z</time>
      </trkpt>
      <trkpt lat="41.31391" lon="-1.34732">
        <ele>1001.597027</ele>
        <time>2022-08-31T02:10:54.619Z</time>
      </trkpt>
      <trkpt lat="41.31391" lon="-1.34748">
        <ele>1000.379173</ele>
        <time>2022-08-31T02:10:56.336Z</time>
      </trkpt>
      <trkpt lat="41.31357" lon="-1.34828">
        <ele>991.935748</ele>
        <time>2022-08-31T02:11:05.889Z</time>
      </trkpt>
      <trkpt lat="41.31346" lon="-1.34844">
        <ele>989.927889</ele>
        <time>2022-08-31T02:11:08.172Z</time>
      </trkpt>
      <trkpt lat="41.31181" lon="-1.35014">
        <ele>964.493346</ele>
        <time>2022-08-31T02:11:36.573Z</time>
      </trkpt>
      <trkpt lat="41.31171" lon="-1.35018">
        <ele>963.201499</ele>
        <time>2022-08-31T02:11:38.012Z</time>
      </trkpt>
      <trkpt lat="41.31113" lon="-1.35009">
        <ele>956.887904</ele>
        <time>2022-08-31T02:11:46.075Z</time>
      </trkpt>
      <trkpt lat="41.31075" lon="-1.34991">
        <ele>955.611637</ele>
        <time>2022-08-31T02:11:52.927Z</time>
      </trkpt>
      <trkpt lat="41.31043" lon="-1.34913">
        <ele>953.513322</ele>
        <time>2022-08-31T02:12:05.519Z</time>
      </trkpt>
      <trkpt lat="41.31033" lon="-1.34846">
        <ele>951.885142</ele>
        <time>2022-08-31T02:12:16.384Z</time>
      </trkpt>
      <trkpt lat="41.31029" lon="-1.34828">
        <ele>951.434383</ele>
        <time>2022-08-31T02:12:18.504Z</time>
      </trkpt>
      <trkpt lat="41.31022" lon="-1.34818">
        <ele>951.024896</ele>
        <time>2022-08-31T02:12:27.075Z</time>
      </trkpt>
      <trkpt lat="41.31018" lon="-1.34814">
        <ele>950.840595</ele>
        <time>2022-08-31T02:12:27.881Z</time>
      </trkpt>
      <trkpt lat="41.31" lon="-1.34815">
        <ele>950.156205</ele>
        <time>2022-08-31T02:12:30.463Z</time>
      </trkpt>
      <trkpt lat="41.30952" lon="-1.34846">
        <ele>948.099607</ele>
        <time>2022-08-31T02:12:42.132Z</time>
      </trkpt>
      <trkpt lat="41.30859" lon="-1.34989">
        <ele>940.51774</ele>
        <time>2022-08-31T02:13:03.848Z</time>
      </trkpt>
      <trkpt lat="41.30851" lon="-1.35015">
        <ele>938.831696</ele>
        <time>2022-08-31T02:13:06.797Z</time>
      </trkpt>
      <trkpt lat="41.30834" lon="-1.35125">
        <ele>932.002226</ele>
        <time>2022-08-31T02:13:18.976Z</time>
      </trkpt>
      <trkpt lat="41.30819" lon="-1.35145">
        <ele>930.279313</ele>
        <time>2022-08-31T02:13:22.109Z</time>
      </trkpt>
      <trkpt lat="41.30787" lon="-1.35168">
        <ele>927.547199</ele>
        <time>2022-08-31T02:13:27.438Z</time>
      </trkpt>
      <trkpt lat="41.3078" lon="-1.35183">
        <ele>926.531853</ele>
        <time>2022-08-31T02:13:29.455Z</time>
      </trkpt>
      <trkpt lat="41.30733" lon="-1.3542">
        <ele>912.17207</ele>
        <time>2022-08-31T02:13:56.823Z</time>
      </trkpt>
      <trkpt lat="41.30721" lon="-1.35431">
        <ele>910.9056</ele>
        <time>2022-08-31T02:13:59.042Z</time>
      </trkpt>
      <trkpt lat="41.30666" lon="-1.35453">
        <ele>906.076131</ele>
        <time>2022-08-31T02:14:07.346Z</time>
      </trkpt>
      <trkpt lat="41.30654" lon="-1.35463">
        <ele>904.883924</ele>
        <time>2022-08-31T02:14:09.414Z</time>
      </trkpt>
      <trkpt lat="41.30608" lon="-1.35538">
        <ele>898.49679</ele>
        <time>2022-08-31T02:14:19.882Z</time>
      </trkpt>
      <trkpt lat="41.30574" lon="-1.35693">
        <ele>887.271157</ele>
        <time>2022-08-31T02:14:37.183Z</time>
      </trkpt>
      <trkpt lat="41.30535" lon="-1.35838">
        <ele>877.929086</ele>
        <time>2022-08-31T02:14:53.971Z</time>
      </trkpt>
      <trkpt lat="41.30488" lon="-1.35902">
        <ele>872.693865</ele>
        <time>2022-08-31T02:15:04.147Z</time>
      </trkpt>
      <trkpt lat="41.30472" lon="-1.35915">
        <ele>871.26299</ele>
        <time>2022-08-31T02:15:06.943Z</time>
      </trkpt>
      <trkpt lat="41.30459" lon="-1.35916">
        <ele>870.323289</ele>
        <time>2022-08-31T02:15:08.859Z</time>
      </trkpt>
      <trkpt lat="41.30426" lon="-1.35895">
        <ele>867.777613</ele>
        <time>2022-08-31T02:15:14.356Z</time>
      </trkpt>
      <trkpt lat="41.30409" lon="-1.35875">
        <ele>866.140352</ele>
        <time>2022-08-31T02:15:17.818Z</time>
      </trkpt>
      <trkpt lat="41.30382" lon="-1.35831">
        <ele>863.163547</ele>
        <time>2022-08-31T02:15:24.098Z</time>
      </trkpt>
      <trkpt lat="41.30366" lon="-1.3583">
        <ele>862.038184</ele>
        <time>2022-08-31T02:15:26.490Z</time>
      </trkpt>
      <trkpt lat="41.3032" lon="-1.35898">
        <ele>857.283991</ele>
        <time>2022-08-31T02:15:37.085Z</time>
      </trkpt>
      <trkpt lat="41.30305" lon="-1.35945">
        <ele>854.839083</ele>
        <time>2022-08-31T02:15:42.996Z</time>
      </trkpt>
      <trkpt lat="41.30293" lon="-1.36042">
        <ele>850.064925</ele>
        <time>2022-08-31T02:15:54.223Z</time>
      </trkpt>
      <trkpt lat="41.30285" lon="-1.36057">
        <ele>849.203095</ele>
        <time>2022-08-31T02:15:56.259Z</time>
      </trkpt>
      <trkpt lat="41.30229" lon="-1.3612">
        <ele>844.083142</ele>
        <time>2022-08-31T02:16:07.364Z</time>
      </trkpt>
      <trkpt lat="41.30206" lon="-1.36187">
        <ele>839.826379</ele>
        <time>2022-08-31T02:16:15.764Z</time>
      </trkpt>
      <trkpt lat="41.30191" lon="-1.3626">
        <ele>835.494238</ele>
        <time>2022-08-31T02:16:24.093Z</time>
      </trkpt>
      <trkpt lat="41.30156" lon="-1.36555">
        <ele>815.760101</ele>
        <time>2022-08-31T02:16:56.376Z</time>
      </trkpt>
      <trkpt lat="41.30151" lon="-1.36566">
        <ele>815.026334</ele>
        <time>2022-08-31T02:16:57.777Z</time>
      </trkpt>
      <trkpt lat="41.30137" lon="-1.36572">
        <ele>813.876985</ele>
        <time>2022-08-31T02:16:59.894Z</time>
      </trkpt>
      <trkpt lat="41.30125" lon="-1.36559">
        <ele>812.678501</ele>
        <time>2022-08-31T02:17:02.117Z</time>
      </trkpt>
      <trkpt lat="41.30097" lon="-1.36478">
        <ele>807.497942</ele>
        <time>2022-08-31T02:17:11.897Z</time>
      </trkpt>
      <trkpt lat="41.30076" lon="-1.36374">
        <ele>802.368439</ele>
        <time>2022-08-31T02:17:24.069Z</time>
      </trkpt>
      <trkpt lat="41.30046" lon="-1.36271">
        <ele>801.267061</ele>
        <time>2022-08-31T02:17:38.629Z</time>
      </trkpt>
      <trkpt lat="41.30044" lon="-1.36243">
        <ele>800.984343</ele>
        <time>2022-08-31T02:17:42.751Z</time>
      </trkpt>
      <trkpt lat="41.30055" lon="-1.36204">
        <ele>800.572005</ele>
        <time>2022-08-31T02:17:50.091Z</time>
      </trkpt>
      <trkpt lat="41.30022" lon="-1.36038">
        <ele>804.840947</ele>
        <time>2022-08-31T02:18:50.575Z</time>
      </trkpt>
      <trkpt lat="41.30031" lon="-1.35989">
        <ele>806.581129</ele>
        <time>2022-08-31T02:19:09.637Z</time>
      </trkpt>
      <trkpt lat="41.30029" lon="-1.35977">
        <ele>807.017038</ele>
        <time>2022-08-31T02:19:16.073Z</time>
      </trkpt>
      <trkpt lat="41.30024" lon="-1.35969">
        <ele>807.339822</ele>
        <time>2022-08-31T02:19:19.422Z</time>
      </trkpt>
      <trkpt lat="41.30008" lon="-1.35969">
        <ele>808.095919</ele>
        <time>2022-08-31T02:19:25.746Z</time>
      </trkpt>
      <trkpt lat="41.29951" lon="-1.36035">
        <ele>808.771523</ele>
        <time>2022-08-31T02:19:55.971Z</time>
      </trkpt>
      <trkpt lat="41.29897" lon="-1.36159">
        <ele>809.344465</ele>
        <time>2022-08-31T02:20:18.106Z</time>
      </trkpt>
      <trkpt lat="41.2982" lon="-1.36494">
        <ele>796.677422</ele>
        <time>2022-08-31T02:20:59.506Z</time>
      </trkpt>
      <trkpt lat="41.29815" lon="-1.36516">
        <ele>795.766998</ele>
        <time>2022-08-31T02:21:02.208Z</time>
      </trkpt>
      <trkpt lat="41.29784" lon="-1.36547">
        <ele>793.79998</ele>
        <time>2022-08-31T02:21:08.313Z</time>
      </trkpt>
      <trkpt lat="41.29764" lon="-1.36552">
        <ele>792.746347</ele>
        <time>2022-08-31T02:21:11.688Z</time>
      </trkpt>
      <trkpt lat="41.29731" lon="-1.36515">
        <ele>790.361999</ele>
        <time>2022-08-31T02:21:18.547Z</time>
      </trkpt>
      <trkpt lat="41.29725" lon="-1.36511">
        <ele>789.979892</ele>
        <time>2022-08-31T02:21:19.596Z</time>
      </trkpt>
      <trkpt lat="41.29714" lon="-1.36515">
        <ele>789.34411</ele>
        <time>2022-08-31T02:21:21.354Z</time>
      </trkpt>
      <trkpt lat="41.29709" lon="-1.36521">
        <ele>788.976153</ele>
        <time>2022-08-31T02:21:22.346Z</time>
      </trkpt>
      <trkpt lat="41.29705" lon="-1.36534">
        <ele>788.336169</ele>
        <time>2022-08-31T02:21:23.979Z</time>
      </trkpt>
      <trkpt lat="41.29711" lon="-1.36593">
        <ele>785.802513</ele>
        <time>2022-08-31T02:21:30.773Z</time>
      </trkpt>
      <trkpt lat="41.29707" lon="-1.36624">
        <ele>784.431106</ele>
        <time>2022-08-31T02:21:34.473Z</time>
      </trkpt>
      <trkpt lat="41.29661" lon="-1.36713">
        <ele>780.104163</ele>
        <time>2022-08-31T02:21:46.910Z</time>
      </trkpt>
      <trkpt lat="41.2962" lon="-1.36786">
        <ele>777.100319</ele>
        <time>2022-08-31T02:21:57.940Z</time>
      </trkpt>
      <trkpt lat="41.29611" lon="-1.3679">
        <ele>776.69404</ele>
        <time>2022-08-31T02:21:59.455Z</time>
      </trkpt>
      <trkpt lat="41.296" lon="-1.36787">
        <ele>776.183729</ele>
        <time>2022-08-31T02:22:01.338Z</time>
      </trkpt>
      <trkpt lat="41.29571" lon="-1.36755">
        <ele>774.50428</ele>
        <time>2022-08-31T02:22:07.606Z</time>
      </trkpt>
      <trkpt lat="41.29559" lon="-1.36752">
        <ele>774.005676</ele>
        <time>2022-08-31T02:22:09.428Z</time>
      </trkpt>
      <trkpt lat="41.29547" lon="-1.36759">
        <ele>773.412829</ele>
        <time>2022-08-31T02:22:11.884Z</time>
      </trkpt>
      <trkpt lat="41.29541" lon="-1.36768">
        <ele>773.08577</ele>
        <time>2022-08-31T02:22:13.479Z</time>
      </trkpt>
      <trkpt lat="41.29536" lon="-1.36786">
        <ele>772.623414</ele>
        <time>2022-08-31T02:22:15.928Z</time>
      </trkpt>
      <trkpt lat="41.29537" lon="-1.3683">
        <ele>771.571715</ele>
        <time>2022-08-31T02:22:21.723Z</time>
      </trkpt>
      <trkpt lat="41.29562" lon="-1.36954">
        <ele>768.526084</ele>
        <time>2022-08-31T02:22:38.935Z</time>
      </trkpt>
      <trkpt lat="41.29571" lon="-1.37015">
        <ele>766.573551</ele>
        <time>2022-08-31T02:22:46.585Z</time>
      </trkpt>
      <trkpt lat="41.2957" lon="-1.37055">
        <ele>764.795252</ele>
        <time>2022-08-31T02:22:51.338Z</time>
      </trkpt>
      <trkpt lat="41.29561" lon="-1.37112">
        <ele>762.253571</ele>
        <time>2022-08-31T02:22:57.948Z</time>
      </trkpt>
      <trkpt lat="41.29561" lon="-1.37139">
        <ele>761.050468</ele>
        <time>2022-08-31T02:23:01.073Z</time>
      </trkpt>
      <trkpt lat="41.29612" lon="-1.37264">
        <ele>754.435511</ele>
        <time>2022-08-31T02:23:17.239Z</time>
      </trkpt>
      <trkpt lat="41.29625" lon="-1.37303">
        <ele>752.269812</ele>
        <time>2022-08-31T02:23:21.951Z</time>
      </trkpt>
      <trkpt lat="41.29625" lon="-1.37323">
        <ele>751.229224</ele>
        <time>2022-08-31T02:23:24.234Z</time>
      </trkpt>
      <trkpt lat="41.29556" lon="-1.37455">
        <ele>743.824415</ele>
        <time>2022-08-31T02:23:42.315Z</time>
      </trkpt>
      <trkpt lat="41.29518" lon="-1.37562">
        <ele>740.680469</ele>
        <time>2022-08-31T02:23:57.257Z</time>
      </trkpt>
      <trkpt lat="41.29493" lon="-1.37558">
        <ele>739.770966</ele>
        <time>2022-08-31T02:24:01.897Z</time>
      </trkpt>
      <trkpt lat="41.29469" lon="-1.37571">
        <ele>738.866862</ele>
        <time>2022-08-31T02:24:06.848Z</time>
      </trkpt>
      <trkpt lat="41.29454" lon="-1.3757">
        <ele>738.346314</ele>
        <time>2022-08-31T02:24:09.647Z</time>
      </trkpt>
      <trkpt lat="41.29438" lon="-1.37584">
        <ele>738.324941</ele>
        <time>2022-08-31T02:24:13.685Z</time>
      </trkpt>
      <trkpt lat="41.29426" lon="-1.37587">
        <ele>738.311961</ele>
        <time>2022-08-31T02:24:16.045Z</time>
      </trkpt>
      <trkpt lat="41.29403" lon="-1.37661">
        <ele>738.245307</ele>
        <time>2022-08-31T02:24:30.315Z</time>
      </trkpt>
      <trkpt lat="41.29391" lon="-1.37657">
        <ele>738.230958</ele>
        <time>2022-08-31T02:24:33.830Z</time>
      </trkpt>
      <trkpt lat="41.29358" lon="-1.37631">
        <ele>738.189102</ele>
        <time>2022-08-31T02:24:43.802Z</time>
      </trkpt>
      <trkpt lat="41.29344" lon="-1.37681">
        <ele>738.203193</ele>
        <time>2022-08-31T02:24:53.239Z</time>
      </trkpt>
      <trkpt lat="41.29306" lon="-1.3773">
        <ele>738.961891</ele>
        <time>2022-08-31T02:25:06.660Z</time>
      </trkpt>
      <trkpt lat="41.29232" lon="-1.37849">
        <ele>740.599766</ele>
        <time>2022-08-31T02:25:42.261Z</time>
      </trkpt>
      <trkpt lat="41.29177" lon="-1.37952">
        <ele>743.254153</ele>
        <time>2022-08-31T02:26:15.920Z</time>
      </trkpt>
      <trkpt lat="41.2905" lon="-1.38138">
        <ele>749.363694</ele>
        <time>2022-08-31T02:27:28.997Z</time>
      </trkpt>
      <trkpt lat="41.28949" lon="-1.38333">
        <ele>755.760331</ele>
        <time>2022-08-31T02:28:43.501Z</time>
      </trkpt>
      <trkpt lat="41.28849" lon="-1.38453">
        <ele>760.546872</ele>
        <time>2022-08-31T02:29:35.835Z</time>
      </trkpt>
      <trkpt lat="41.28829" lon="-1.38554">
        <ele>763.25236</ele>
        <time>2022-08-31T02:30:05.550Z</time>
      </trkpt>
      <trkpt lat="41.28662" lon="-1.38781">
        <ele>772.016703</ele>
        <time>2022-08-31T02:31:45.488Z</time>
      </trkpt>
      <trkpt lat="41.28601" lon="-1.38908">
        <ele>775.18184</ele>
        <time>2022-08-31T02:32:26.573Z</time>
      </trkpt>
      <trkpt lat="41.28551" lon="-1.39064">
        <ele>778.427222</ele>
        <time>2022-08-31T02:33:09.289Z</time>
      </trkpt>
      <trkpt lat="41.28476" lon="-1.39204">
        <ele>781.489726</ele>
        <time>2022-08-31T02:33:53.313Z</time>
      </trkpt>
      <trkpt lat="41.28345" lon="-1.39501">
        <ele>788.299833</ele>
        <time>2022-08-31T02:35:24.785Z</time>
      </trkpt>
      <trkpt lat="41.28293" lon="-1.39575">
        <ele>790.385261</ele>
        <time>2022-08-31T02:35:51.910Z</time>
      </trkpt>
      <trkpt lat="41.28178" lon="-1.39665">
        <ele>794.485989</ele>
        <time>2022-08-31T02:36:42.315Z</time>
      </trkpt>
      <trkpt lat="41.28039" lon="-1.39808">
        <ele>799.801819</ele>
        <time>2022-08-31T02:37:49.935Z</time>
      </trkpt>
      <trkpt lat="41.28013" lon="-1.39842">
        <ele>800.878245</ele>
        <time>2022-08-31T02:38:02.757Z</time>
      </trkpt>
      <trkpt lat="41.27974" lon="-1.39912">
        <ele>802.563201</ele>
        <time>2022-08-31T02:38:25.170Z</time>
      </trkpt>
      <trkpt lat="41.27951" lon="-1.39931">
        <ele>803.195553</ele>
        <time>2022-08-31T02:38:34.319Z</time>
      </trkpt>
      <trkpt lat="41.27896" lon="-1.39963">
        <ele>804.59886</ele>
        <time>2022-08-31T02:38:54.114Z</time>
      </trkpt>
      <trkpt lat="41.27869" lon="-1.39971">
        <ele>805.246938</ele>
        <time>2022-08-31T02:39:03.042Z</time>
      </trkpt>
      <trkpt lat="41.27824" lon="-1.39967">
        <ele>806.435365</ele>
        <time>2022-08-31T02:39:18.569Z</time>
      </trkpt>
      <trkpt lat="41.27713" lon="-1.40049">
        <ele>810.158822</ele>
        <time>2022-08-31T02:40:06.147Z</time>
      </trkpt>
      <trkpt lat="41.27663" lon="-1.40101">
        <ele>812.11511</ele>
        <time>2022-08-31T02:40:30.527Z</time>
      </trkpt>
      <trkpt lat="41.2758" lon="-1.40141">
        <ele>814.876511</ele>
        <time>2022-08-31T02:41:04.308Z</time>
      </trkpt>
      <trkpt lat="41.27504" lon="-1.40286">
        <ele>818.859371</ele>
        <time>2022-08-31T02:41:54.027Z</time>
      </trkpt>
      <trkpt lat="41.27482" lon="-1.40305">
        <ele>819.622561</ele>
        <time>2022-08-31T02:42:03.859Z</time>
      </trkpt>
      <trkpt lat="41.27423" lon="-1.40314">
        <ele>821.351705</ele>
        <time>2022-08-31T02:42:25.269Z</time>
      </trkpt>
      <trkpt lat="41.27404" lon="-1.40323">
        <ele>821.930752</ele>
        <time>2022-08-31T02:42:32.473Z</time>
      </trkpt>
      <trkpt lat="41.27347" lon="-1.40372">
        <ele>823.717697</ele>
        <time>2022-08-31T02:42:56.433Z</time>
      </trkpt>
      <trkpt lat="41.27289" lon="-1.40384">
        <ele>825.273666</ele>
        <time>2022-08-31T02:43:16.471Z</time>
      </trkpt>
      <trkpt lat="41.27227" lon="-1.4039">
        <ele>827.037014</ele>
        <time>2022-08-31T02:43:38.910Z</time>
      </trkpt>
      <trkpt lat="41.27176" lon="-1.40443">
        <ele>829.423153</ele>
        <time>2022-08-31T02:44:03.914Z</time>
      </trkpt>
      <trkpt lat="41.2709" lon="-1.40431">
        <ele>832.605854</ele>
        <time>2022-08-31T02:44:40.655Z</time>
      </trkpt>
      <trkpt lat="41.27065" lon="-1.40432">
        <ele>833.547946</ele>
        <time>2022-08-31T02:44:51.208Z</time>
      </trkpt>
      <trkpt lat="41.27039" lon="-1.40417">
        <ele>834.687918</ele>
        <time>2022-08-31T02:45:03.667Z</time>
      </trkpt>
      <trkpt lat="41.27011" lon="-1.40405">
        <ele>835.87632</ele>
        <time>2022-08-31T02:45:16.721Z</time>
      </trkpt>
      <trkpt lat="41.26962" lon="-1.40402">
        <ele>837.84323</ele>
        <time>2022-08-31T02:45:37.509Z</time>
      </trkpt>
      <trkpt lat="41.26932" lon="-1.40414">
        <ele>839.112155</ele>
        <time>2022-08-31T02:45:50.955Z</time>
      </trkpt>
      <trkpt lat="41.26904" lon="-1.40444">
        <ele>840.551086</ele>
        <time>2022-08-31T02:46:05.968Z</time>
      </trkpt>
      <trkpt lat="41.26853" lon="-1.40512">
        <ele>842.96904</ele>
        <time>2022-08-31T02:46:33.963Z</time>
      </trkpt>
      <trkpt lat="41.26796" lon="-1.40552">
        <ele>845.13678</ele>
        <time>2022-08-31T02:46:59.194Z</time>
      </trkpt>
      <trkpt lat="41.26736" lon="-1.40613">
        <ele>847.671014</ele>
        <time>2022-08-31T02:47:27.833Z</time>
      </trkpt>
      <trkpt lat="41.26677" lon="-1.40702">
        <ele>850.668417</ele>
        <time>2022-08-31T02:48:02.813Z</time>
      </trkpt>
      <trkpt lat="41.26665" lon="-1.40731">
        <ele>851.525896</ele>
        <time>2022-08-31T02:48:12.884Z</time>
      </trkpt>
      <trkpt lat="41.26651" lon="-1.40823">
        <ele>853.764668</ele>
        <time>2022-08-31T02:48:40.409Z</time>
      </trkpt>
      <trkpt lat="41.26667" lon="-1.40856">
        <ele>854.677978</ele>
        <time>2022-08-31T02:48:52.428Z</time>
      </trkpt>
      <trkpt lat="41.26699" lon="-1.40927">
        <ele>856.583124</ele>
        <time>2022-08-31T02:49:15.882Z</time>
      </trkpt>
      <trkpt lat="41.26664" lon="-1.41036">
        <ele>858.920767</ele>
        <time>2022-08-31T02:49:47.384Z</time>
      </trkpt>
      <trkpt lat="41.26654" lon="-1.41066">
        <ele>859.444959</ele>
        <time>2022-08-31T02:49:55.069Z</time>
      </trkpt>
      <trkpt lat="41.26573" lon="-1.4116">
        <ele>861.701323</ele>
        <time>2022-08-31T02:50:29.122Z</time>
      </trkpt>
      <trkpt lat="41.26526" lon="-1.41236">
        <ele>863.785877</ele>
        <time>2022-08-31T02:50:52.746Z</time>
      </trkpt>
      <trkpt lat="41.2628" lon="-1.41494">
        <ele>874.207291</ele>
        <time>2022-08-31T02:52:57.539Z</time>
      </trkpt>
      <trkpt lat="41.26272" lon="-1.41521">
        <ele>875.001159</ele>
        <time>2022-08-31T02:53:07.019Z</time>
      </trkpt>
      <trkpt lat="41.26241" lon="-1.41697">
        <ele>879.959766</ele>
        <time>2022-08-31T02:54:02.185Z</time>
      </trkpt>
      <trkpt lat="41.2624" lon="-1.41727">
        <ele>880.701978</ele>
        <time>2022-08-31T02:54:10.851Z</time>
      </trkpt>
      <trkpt lat="41.26265" lon="-1.4181">
        <ele>882.903142</ele>
        <time>2022-08-31T02:54:36.989Z</time>
      </trkpt>
      <trkpt lat="41.26271" lon="-1.41849">
        <ele>883.920038</ele>
        <time>2022-08-31T02:54:48.580Z</time>
      </trkpt>
      <trkpt lat="41.26238" lon="-1.4219">
        <ele>891.983268</ele>
        <time>2022-08-31T02:56:26.780Z</time>
      </trkpt>
      <trkpt lat="41.26266" lon="-1.42374">
        <ele>895.685991</ele>
        <time>2022-08-31T02:57:15.007Z</time>
      </trkpt>
      <trkpt lat="41.262" lon="-1.42863">
        <ele>907.035921</ele>
        <time>2022-08-31T02:59:35.152Z</time>
      </trkpt>
      <trkpt lat="41.262" lon="-1.43165">
        <ele>914.530864</ele>
        <time>2022-08-31T03:01:05.863Z</time>
      </trkpt>
      <trkpt lat="41.26115" lon="-1.43402">
        <ele>919.211301</ele>
        <time>2022-08-31T03:02:12.376Z</time>
      </trkpt>
      <trkpt lat="41.26108" lon="-1.43423">
        <ele>919.516294</ele>
        <time>2022-08-31T03:02:17.458Z</time>
      </trkpt>
      <trkpt lat="41.26053" lon="-1.43579">
        <ele>921.737612</ele>
        <time>2022-08-31T03:02:56.348Z</time>
      </trkpt>
      <trkpt lat="41.25959" lon="-1.43755">
        <ele>923.888412</ele>
        <time>2022-08-31T03:03:44.157Z</time>
      </trkpt>
      <trkpt lat="41.25752" lon="-1.4416">
        <ele>926.132382</ele>
        <time>2022-08-31T03:05:16.039Z</time>
      </trkpt>
      <trkpt lat="41.25738" lon="-1.44197">
        <ele>926.342519</ele>
        <time>2022-08-31T03:05:23.943Z</time>
      </trkpt>
      <trkpt lat="41.25722" lon="-1.44294">
        <ele>926.835774</ele>
        <time>2022-08-31T03:05:42.902Z</time>
      </trkpt>
      <trkpt lat="41.25613" lon="-1.44866">
        <ele>929.614025</ele>
        <time>2022-08-31T03:07:37.488Z</time>
      </trkpt>
      <trkpt lat="41.25564" lon="-1.45213">
        <ele>928.859751</ele>
        <time>2022-08-31T03:08:33.081Z</time>
      </trkpt>
      <trkpt lat="41.25427" lon="-1.46153">
        <ele>928.637395</ele>
        <time>2022-08-31T03:11:15.588Z</time>
      </trkpt>
      <trkpt lat="41.25423" lon="-1.46318">
        <ele>927.917758</ele>
        <time>2022-08-31T03:11:40.167Z</time>
      </trkpt>
      <trkpt lat="41.25428" lon="-1.46352">
        <ele>927.683456</ele>
        <time>2022-08-31T03:11:45.336Z</time>
      </trkpt>
      <trkpt lat="41.25441" lon="-1.46379">
        <ele>927.468868</ele>
        <time>2022-08-31T03:11:50.183Z</time>
      </trkpt>
      <trkpt lat="41.25562" lon="-1.46533">
        <ele>926.471436</ele>
        <time>2022-08-31T03:12:24.659Z</time>
      </trkpt>
      <trkpt lat="41.25679" lon="-1.46716">
        <ele>924.381395</ele>
        <time>2022-08-31T03:13:04.285Z</time>
      </trkpt>
      <trkpt lat="41.25691" lon="-1.46733">
        <ele>924.037225</ele>
        <time>2022-08-31T03:13:07.593Z</time>
      </trkpt>
      <trkpt lat="41.25708" lon="-1.46743">
        <ele>923.685599</ele>
        <time>2022-08-31T03:13:10.769Z</time>
      </trkpt>
      <trkpt lat="41.25724" lon="-1.46744">
        <ele>923.368649</ele>
        <time>2022-08-31T03:13:13.591Z</time>
      </trkpt>
      <trkpt lat="41.25774" lon="-1.46731">
        <ele>921.881194</ele>
        <time>2022-08-31T03:13:21.629Z</time>
      </trkpt>
      <trkpt lat="41.2579" lon="-1.46716">
        <ele>920.79379</ele>
        <time>2022-08-31T03:13:24.736Z</time>
      </trkpt>
      <trkpt lat="41.2589" lon="-1.46573">
        <ele>912.91211</ele>
        <time>2022-08-31T03:13:47.440Z</time>
      </trkpt>
      <trkpt lat="41.259" lon="-1.46564">
        <ele>912.571518</ele>
        <time>2022-08-31T03:13:49.414Z</time>
      </trkpt>
      <trkpt lat="41.25939" lon="-1.46584">
        <ele>911.440027</ele>
        <time>2022-08-31T03:13:56.144Z</time>
      </trkpt>
      <trkpt lat="41.25953" lon="-1.46605">
        <ele>910.883601</ele>
        <time>2022-08-31T03:13:59.644Z</time>
      </trkpt>
      <trkpt lat="41.25982" lon="-1.46735">
        <ele>908.119958</ele>
        <time>2022-08-31T03:14:19.519Z</time>
      </trkpt>
      <trkpt lat="41.25991" lon="-1.46798">
        <ele>906.867297</ele>
        <time>2022-08-31T03:14:29.208Z</time>
      </trkpt>
      <trkpt lat="41.25984" lon="-1.46833">
        <ele>906.167065</ele>
        <time>2022-08-31T03:14:34.269Z</time>
      </trkpt>
      <trkpt lat="41.25962" lon="-1.46886">
        <ele>905.000107</ele>
        <time>2022-08-31T03:14:42.262Z</time>
      </trkpt>
      <trkpt lat="41.25959" lon="-1.46909">
        <ele>904.537139</ele>
        <time>2022-08-31T03:14:45.297Z</time>
      </trkpt>
      <trkpt lat="41.25964" lon="-1.46941">
        <ele>903.891701</ele>
        <time>2022-08-31T03:14:49.374Z</time>
      </trkpt>
      <trkpt lat="41.25974" lon="-1.46962">
        <ele>903.411368</ele>
        <time>2022-08-31T03:14:52.363Z</time>
      </trkpt>
      <trkpt lat="41.25992" lon="-1.4698">
        <ele>902.221417</ele>
        <time>2022-08-31T03:14:56.052Z</time>
      </trkpt>
      <trkpt lat="41.26023" lon="-1.47035">
        <ele>899.516546</ele>
        <time>2022-08-31T03:15:04.308Z</time>
      </trkpt>
      <trkpt lat="41.26023" lon="-1.47062">
        <ele>898.455179</ele>
        <time>2022-08-31T03:15:07.519Z</time>
      </trkpt>
      <trkpt lat="41.26006" lon="-1.47106">
        <ele>896.514948</ele>
        <time>2022-08-31T03:15:13.405Z</time>
      </trkpt>
      <trkpt lat="41.25963" lon="-1.47132">
        <ele>894.076287</ele>
        <time>2022-08-31T03:15:20.728Z</time>
      </trkpt>
      <trkpt lat="41.2593" lon="-1.47168">
        <ele>890.52971</ele>
        <time>2022-08-31T03:15:27.226Z</time>
      </trkpt>
      <trkpt lat="41.25916" lon="-1.4719">
        <ele>888.778322</ele>
        <time>2022-08-31T03:15:30.359Z</time>
      </trkpt>
      <trkpt lat="41.25913" lon="-1.47212">
        <ele>887.407284</ele>
        <time>2022-08-31T03:15:32.836Z</time>
      </trkpt>
      <trkpt lat="41.25921" lon="-1.47259">
        <ele>884.397558</ele>
        <time>2022-08-31T03:15:38.188Z</time>
      </trkpt>
      <trkpt lat="41.25936" lon="-1.47314">
        <ele>880.827973</ele>
        <time>2022-08-31T03:15:44.415Z</time>
      </trkpt>
      <trkpt lat="41.26021" lon="-1.47415">
        <ele>870.731705</ele>
        <time>2022-08-31T03:16:00.545Z</time>
      </trkpt>
      <trkpt lat="41.26034" lon="-1.47419">
        <ele>869.478958</ele>
        <time>2022-08-31T03:16:02.499Z</time>
      </trkpt>
      <trkpt lat="41.2607" lon="-1.47411">
        <ele>866.212384</ele>
        <time>2022-08-31T03:16:07.734Z</time>
      </trkpt>
      <trkpt lat="41.26157" lon="-1.47449">
        <ele>860.321688</ele>
        <time>2022-08-31T03:16:21.632Z</time>
      </trkpt>
      <trkpt lat="41.26171" lon="-1.47459">
        <ele>859.562733</ele>
        <time>2022-08-31T03:16:24.116Z</time>
      </trkpt>
      <trkpt lat="41.26183" lon="-1.47471">
        <ele>858.815467</ele>
        <time>2022-08-31T03:16:26.614Z</time>
      </trkpt>
      <trkpt lat="41.26186" lon="-1.475">
        <ele>857.72119</ele>
        <time>2022-08-31T03:16:30.348Z</time>
      </trkpt>
      <trkpt lat="41.26211" lon="-1.47557">
        <ele>855.306514</ele>
        <time>2022-08-31T03:16:38.856Z</time>
      </trkpt>
      <trkpt lat="41.26215" lon="-1.47583">
        <ele>854.341788</ele>
        <time>2022-08-31T03:16:42.208Z</time>
      </trkpt>
      <trkpt lat="41.2621" lon="-1.47642">
        <ele>851.476423</ele>
        <time>2022-08-31T03:16:49.514Z</time>
      </trkpt>
      <trkpt lat="41.26202" lon="-1.4767">
        <ele>850.004408</ele>
        <time>2022-08-31T03:16:53.167Z</time>
      </trkpt>
      <trkpt lat="41.26189" lon="-1.47683">
        <ele>848.987784</ele>
        <time>2022-08-31T03:16:55.634Z</time>
      </trkpt>
      <trkpt lat="41.26145" lon="-1.4771">
        <ele>845.858435</ele>
        <time>2022-08-31T03:17:03.029Z</time>
      </trkpt>
      <trkpt lat="41.26137" lon="-1.47728">
        <ele>844.859805</ele>
        <time>2022-08-31T03:17:05.318Z</time>
      </trkpt>
      <trkpt lat="41.26084" lon="-1.47987">
        <ele>827.07109</ele>
        <time>2022-08-31T03:17:34.098Z</time>
      </trkpt>
      <trkpt lat="41.26126" lon="-1.48141">
        <ele>817.989164</ele>
        <time>2022-08-31T03:17:52.213Z</time>
      </trkpt>
      <trkpt lat="41.26119" lon="-1.48382">
        <ele>806.74265</ele>
        <time>2022-08-31T03:18:20.305Z</time>
      </trkpt>
      <trkpt lat="41.26012" lon="-1.48812">
        <ele>788.64418</ele>
        <time>2022-08-31T03:19:13.922Z</time>
      </trkpt>
      <trkpt lat="41.25951" lon="-1.48889">
        <ele>784.28477</ele>
        <time>2022-08-31T03:19:27.800Z</time>
      </trkpt>
      <trkpt lat="41.25922" lon="-1.48918">
        <ele>782.623952</ele>
        <time>2022-08-31T03:19:33.706Z</time>
      </trkpt>
      <trkpt lat="41.25875" lon="-1.48953">
        <ele>780.126077</ele>
        <time>2022-08-31T03:19:42.899Z</time>
      </trkpt>
      <trkpt lat="41.25834" lon="-1.49039">
        <ele>776.602951</ele>
        <time>2022-08-31T03:19:56.308Z</time>
      </trkpt>
      <trkpt lat="41.25829" lon="-1.49052">
        <ele>776.093223</ele>
        <time>2022-08-31T03:19:58.177Z</time>
      </trkpt>
      <trkpt lat="41.25872" lon="-1.49134">
        <ele>772.430009</ele>
        <time>2022-08-31T03:20:10.542Z</time>
      </trkpt>
      <trkpt lat="41.25874" lon="-1.49174">
        <ele>770.963855</ele>
        <time>2022-08-31T03:20:15.535Z</time>
      </trkpt>
      <trkpt lat="41.25883" lon="-1.49216">
        <ele>769.369486</ele>
        <time>2022-08-31T03:20:21.024Z</time>
      </trkpt>
      <trkpt lat="41.25893" lon="-1.49241">
        <ele>768.3256</ele>
        <time>2022-08-31T03:20:24.591Z</time>
      </trkpt>
      <trkpt lat="41.25889" lon="-1.49255">
        <ele>767.756494</ele>
        <time>2022-08-31T03:20:26.660Z</time>
      </trkpt>
      <trkpt lat="41.25895" lon="-1.49289">
        <ele>766.47153</ele>
        <time>2022-08-31T03:20:31.032Z</time>
      </trkpt>
      <trkpt lat="41.25934" lon="-1.4928">
        <ele>764.554206</ele>
        <time>2022-08-31T03:20:37.626Z</time>
      </trkpt>
      <trkpt lat="41.26032" lon="-1.49367">
        <ele>758.836389</ele>
        <time>2022-08-31T03:20:56.335Z</time>
      </trkpt>
      <trkpt lat="41.2611" lon="-1.49459">
        <ele>754.714538</ele>
        <time>2022-08-31T03:21:13.377Z</time>
      </trkpt>
      <trkpt lat="41.26144" lon="-1.49523">
        <ele>752.399893</ele>
        <time>2022-08-31T03:21:23.121Z</time>
      </trkpt>
      <trkpt lat="41.26192" lon="-1.4966">
        <ele>749.598346</ele>
        <time>2022-08-31T03:21:42.695Z</time>
      </trkpt>
      <trkpt lat="41.26225" lon="-1.4968">
        <ele>748.843057</ele>
        <time>2022-08-31T03:21:49.458Z</time>
      </trkpt>
      <trkpt lat="41.26238" lon="-1.49695">
        <ele>748.5009</ele>
        <time>2022-08-31T03:21:52.769Z</time>
      </trkpt>
      <trkpt lat="41.26263" lon="-1.49741">
        <ele>747.662277</ele>
        <time>2022-08-31T03:22:01.688Z</time>
      </trkpt>
      <trkpt lat="41.26299" lon="-1.4978">
        <ele>747.169411</ele>
        <time>2022-08-31T03:22:11.428Z</time>
      </trkpt>
      <trkpt lat="41.26322" lon="-1.49799">
        <ele>746.876755</ele>
        <time>2022-08-31T03:22:17.414Z</time>
      </trkpt>
      <trkpt lat="41.26361" lon="-1.49807">
        <ele>746.44754</ele>
        <time>2022-08-31T03:22:25.984Z</time>
      </trkpt>
      <trkpt lat="41.26383" lon="-1.49817">
        <ele>746.205143</ele>
        <time>2022-08-31T03:22:30.762Z</time>
      </trkpt>
      <trkpt lat="41.26518" lon="-1.49903">
        <ele>742.214391</ele>
        <time>2022-08-31T03:22:56.792Z</time>
      </trkpt>
      <trkpt lat="41.26521" lon="-1.4993">
        <ele>741.556436</ele>
        <time>2022-08-31T03:23:00.042Z</time>
      </trkpt>
      <trkpt lat="41.26517" lon="-1.50101">
        <ele>737.931457</ele>
        <time>2022-08-31T03:23:21.739Z</time>
      </trkpt>
      <trkpt lat="41.26516" lon="-1.50135">
        <ele>737.257148</ele>
        <time>2022-08-31T03:23:26.195Z</time>
      </trkpt>
      <trkpt lat="41.26517" lon="-1.50171">
        <ele>736.554406</ele>
        <time>2022-08-31T03:23:31.229Z</time>
      </trkpt>
      <trkpt lat="41.26527" lon="-1.50187">
        <ele>736.161144</ele>
        <time>2022-08-31T03:23:34.055Z</time>
      </trkpt>
      <trkpt lat="41.26581" lon="-1.50242">
        <ele>734.836781</ele>
        <time>2022-08-31T03:23:47.264Z</time>
      </trkpt>
      <trkpt lat="41.26675" lon="-1.50268">
        <ele>733.51339</ele>
        <time>2022-08-31T03:24:05.945Z</time>
      </trkpt>
      <trkpt lat="41.26914" lon="-1.50328">
        <ele>729.600544</ele>
        <time>2022-08-31T03:24:51.639Z</time>
      </trkpt>
      <trkpt lat="41.26953" lon="-1.50331">
        <ele>729.07738</ele>
        <time>2022-08-31T03:24:59.055Z</time>
      </trkpt>
      <trkpt lat="41.27259" lon="-1.50299">
        <ele>725.111725</ele>
        <time>2022-08-31T03:25:58.718Z</time>
      </trkpt>
      <trkpt lat="41.27293" lon="-1.50327">
        <ele>724.456503</ele>
        <time>2022-08-31T03:26:06.389Z</time>
      </trkpt>
      <trkpt lat="41.2755" lon="-1.5061">
        <ele>718.984929</ele>
        <time>2022-08-31T03:27:08.647Z</time>
      </trkpt>
      <trkpt lat="41.27735" lon="-1.50809">
        <ele>715.704516</ele>
        <time>2022-08-31T03:27:55.634Z</time>
      </trkpt>
      <trkpt lat="41.2779" lon="-1.50836">
        <ele>714.680525</ele>
        <time>2022-08-31T03:28:06.519Z</time>
      </trkpt>
      <trkpt lat="41.28119" lon="-1.50993">
        <ele>706.82992</ele>
        <time>2022-08-31T03:29:08.381Z</time>
      </trkpt>
      <trkpt lat="41.28146" lon="-1.51029">
        <ele>706.072303</ele>
        <time>2022-08-31T03:29:15.706Z</time>
      </trkpt>
      <trkpt lat="41.28405" lon="-1.51415">
        <ele>704.878619</ele>
        <time>2022-08-31T03:30:40.654Z</time>
      </trkpt>
      <trkpt lat="41.28459" lon="-1.51514">
        <ele>703.996406</ele>
        <time>2022-08-31T03:31:00.159Z</time>
      </trkpt>
      <trkpt lat="41.28522" lon="-1.51574">
        <ele>703.245025</ele>
        <time>2022-08-31T03:31:14.986Z</time>
      </trkpt>
      <trkpt lat="41.28617" lon="-1.51609">
        <ele>700.494949</ele>
        <time>2022-08-31T03:31:32.252Z</time>
      </trkpt>
      <trkpt lat="41.28669" lon="-1.51666">
        <ele>698.611681</ele>
        <time>2022-08-31T03:31:43.713Z</time>
      </trkpt>
      <trkpt lat="41.28672" lon="-1.51675">
        <ele>698.401405</ele>
        <time>2022-08-31T03:31:45.088Z</time>
      </trkpt>
      <trkpt lat="41.28734" lon="-1.51725">
        <ele>696.169371</ele>
        <time>2022-08-31T03:31:58.182Z</time>
      </trkpt>
      <trkpt lat="41.28814" lon="-1.51735">
        <ele>693.696106</ele>
        <time>2022-08-31T03:32:12.586Z</time>
      </trkpt>
      <trkpt lat="41.28842" lon="-1.51762">
        <ele>692.64495</ele>
        <time>2022-08-31T03:32:18.739Z</time>
      </trkpt>
      <trkpt lat="41.28855" lon="-1.51774">
        <ele>692.199929</ele>
        <time>2022-08-31T03:32:21.751Z</time>
      </trkpt>
      <trkpt lat="41.28863" lon="-1.51774">
        <ele>691.975168</ele>
        <time>2022-08-31T03:32:23.249Z</time>
      </trkpt>
      <trkpt lat="41.28876" lon="-1.51781">
        <ele>691.616612</ele>
        <time>2022-08-31T03:32:25.713Z</time>
      </trkpt>
      <trkpt lat="41.28878" lon="-1.51775">
        <ele>691.480225</ele>
        <time>2022-08-31T03:32:26.629Z</time>
      </trkpt>
      <trkpt lat="41.28882" lon="-1.51769">
        <ele>691.316494</ele>
        <time>2022-08-31T03:32:27.733Z</time>
      </trkpt>
      <trkpt lat="41.2897" lon="-1.51735">
        <ele>688.837381</ele>
        <time>2022-08-31T03:32:44.639Z</time>
      </trkpt>
      <trkpt lat="41.28997" lon="-1.5175">
        <ele>688.028389</ele>
        <time>2022-08-31T03:32:50.178Z</time>
      </trkpt>
      <trkpt lat="41.29016" lon="-1.51744">
        <ele>687.559711</ele>
        <time>2022-08-31T03:32:53.700Z</time>
      </trkpt>
      <trkpt lat="41.29121" lon="-1.51842">
        <ele>684.699878</ele>
        <time>2022-08-31T03:33:16.764Z</time>
      </trkpt>
      <trkpt lat="41.29252" lon="-1.51965">
        <ele>681.813612</ele>
        <time>2022-08-31T03:33:46.581Z</time>
      </trkpt>
      <trkpt lat="41.29271" lon="-1.52013">
        <ele>681.135542</ele>
        <time>2022-08-31T03:33:54.440Z</time>
      </trkpt>
      <trkpt lat="41.29284" lon="-1.52079">
        <ele>680.38576</ele>
        <time>2022-08-31T03:34:04.389Z</time>
      </trkpt>
      <trkpt lat="41.2929" lon="-1.52108">
        <ele>680.071289</ele>
        <time>2022-08-31T03:34:08.859Z</time>
      </trkpt>
      <trkpt lat="41.29308" lon="-1.52136">
        <ele>679.702745</ele>
        <time>2022-08-31T03:34:14.180Z</time>
      </trkpt>
      <trkpt lat="41.29336" lon="-1.52173">
        <ele>679.16081</ele>
        <time>2022-08-31T03:34:21.979Z</time>
      </trkpt>
      <trkpt lat="41.29365" lon="-1.52197">
        <ele>678.69966</ele>
        <time>2022-08-31T03:34:28.504Z</time>
      </trkpt>
      <trkpt lat="41.29677" lon="-1.52309">
        <ele>673.069628</ele>
        <time>2022-08-31T03:35:28.198Z</time>
      </trkpt>
      <trkpt lat="41.30267" lon="-1.52375">
        <ele>666.67222</ele>
        <time>2022-08-31T03:37:25.593Z</time>
      </trkpt>
      <trkpt lat="41.30314" lon="-1.5237">
        <ele>666.254279</ele>
        <time>2022-08-31T03:37:35.062Z</time>
      </trkpt>
      <trkpt lat="41.30367" lon="-1.52339">
        <ele>665.748558</ele>
        <time>2022-08-31T03:37:46.706Z</time>
      </trkpt>
      <trkpt lat="41.30397" lon="-1.52326">
        <ele>665.477465</ele>
        <time>2022-08-31T03:37:52.856Z</time>
      </trkpt>
      <trkpt lat="41.3048" lon="-1.52319">
        <ele>664.814456</ele>
        <time>2022-08-31T03:38:09.960Z</time>
      </trkpt>
      <trkpt lat="41.30497" lon="-1.52325">
        <ele>664.700196</ele>
        <time>2022-08-31T03:38:13.359Z</time>
      </trkpt>
      <trkpt lat="41.30761" lon="-1.52656">
        <ele>661.716053</ele>
        <time>2022-08-31T03:39:28.586Z</time>
      </trkpt>
      <trkpt lat="41.3092" lon="-1.52917">
        <ele>655.794895</ele>
        <time>2022-08-31T03:40:13.236Z</time>
      </trkpt>
      <trkpt lat="41.31029" lon="-1.53033">
        <ele>651.894649</ele>
        <time>2022-08-31T03:40:37.007Z</time>
      </trkpt>
      <trkpt lat="41.31098" lon="-1.5317">
        <ele>648.946834</ele>
        <time>2022-08-31T03:40:58.999Z</time>
      </trkpt>
      <trkpt lat="41.31175" lon="-1.53326">
        <ele>647.580822</ele>
        <time>2022-08-31T03:41:27.443Z</time>
      </trkpt>
      <trkpt lat="41.31186" lon="-1.53357">
        <ele>647.525532</ele>
        <time>2022-08-31T03:41:33.772Z</time>
      </trkpt>
      <trkpt lat="41.31246" lon="-1.53552">
        <ele>648.077526</ele>
        <time>2022-08-31T03:42:13.236Z</time>
      </trkpt>
      <trkpt lat="41.31262" lon="-1.53584">
        <ele>647.940207</ele>
        <time>2022-08-31T03:42:19.703Z</time>
      </trkpt>
      <trkpt lat="41.31266" lon="-1.53625">
        <ele>647.707502</ele>
        <time>2022-08-31T03:42:26.996Z</time>
      </trkpt>
      <trkpt lat="41.31278" lon="-1.53664">
        <ele>647.470718</ele>
        <time>2022-08-31T03:42:34.639Z</time>
      </trkpt>
      <trkpt lat="41.31283" lon="-1.53671">
        <ele>647.416105</ele>
        <time>2022-08-31T03:42:36.091Z</time>
      </trkpt>
      <trkpt lat="41.31284" lon="-1.53709">
        <ele>647.198119</ele>
        <time>2022-08-31T03:42:42.297Z</time>
      </trkpt>
      <trkpt lat="41.31315" lon="-1.53769">
        <ele>646.793467</ele>
        <time>2022-08-31T03:42:52.866Z</time>
      </trkpt>
      <trkpt lat="41.31324" lon="-1.53786">
        <ele>646.448635</ele>
        <time>2022-08-31T03:42:56.063Z</time>
      </trkpt>
      <trkpt lat="41.3132" lon="-1.53817">
        <ele>645.80008</ele>
        <time>2022-08-31T03:43:00.182Z</time>
      </trkpt>
      <trkpt lat="41.31328" lon="-1.53841">
        <ele>645.239521</ele>
        <time>2022-08-31T03:43:03.752Z</time>
      </trkpt>
      <trkpt lat="41.31332" lon="-1.53853">
        <ele>644.963399</ele>
        <time>2022-08-31T03:43:05.399Z</time>
      </trkpt>
      <trkpt lat="41.31364" lon="-1.53883">
        <ele>643.868961</ele>
        <time>2022-08-31T03:43:12.111Z</time>
      </trkpt>
      <trkpt lat="41.31371" lon="-1.53909">
        <ele>643.292728</ele>
        <time>2022-08-31T03:43:15.797Z</time>
      </trkpt>
      <trkpt lat="41.31385" lon="-1.53923">
        <ele>642.811969</ele>
        <time>2022-08-31T03:43:18.833Z</time>
      </trkpt>
      <trkpt lat="41.31424" lon="-1.53943">
        <ele>641.652233</ele>
        <time>2022-08-31T03:43:26.422Z</time>
      </trkpt>
      <trkpt lat="41.31428" lon="-1.53945">
        <ele>641.54313</ele>
        <time>2022-08-31T03:43:27.239Z</time>
      </trkpt>
      <trkpt lat="41.31445" lon="-1.53966">
        <ele>640.980724</ele>
        <time>2022-08-31T03:43:31.160Z</time>
      </trkpt>
      <trkpt lat="41.31464" lon="-1.53994">
        <ele>640.28428</ele>
        <time>2022-08-31T03:43:36.111Z</time>
      </trkpt>
      <trkpt lat="41.31485" lon="-1.54023">
        <ele>639.555208</ele>
        <time>2022-08-31T03:43:41.440Z</time>
      </trkpt>
      <trkpt lat="41.31488" lon="-1.54029">
        <ele>639.428141</ele>
        <time>2022-08-31T03:43:42.382Z</time>
      </trkpt>
      <trkpt lat="41.31558" lon="-1.5414">
        <ele>636.987315</ele>
        <time>2022-08-31T03:44:02.415Z</time>
      </trkpt>
      <trkpt lat="41.31743" lon="-1.54313">
        <ele>633.604956</ele>
        <time>2022-08-31T03:44:45.728Z</time>
      </trkpt>
      <trkpt lat="41.3202" lon="-1.54487">
        <ele>629.523679</ele>
        <time>2022-08-31T03:45:44.517Z</time>
      </trkpt>
      <trkpt lat="41.32155" lon="-1.54506">
        <ele>628.458194</ele>
        <time>2022-08-31T03:46:12.437Z</time>
      </trkpt>
      <trkpt lat="41.32272" lon="-1.54528">
        <ele>627.237356</ele>
        <time>2022-08-31T03:46:36.512Z</time>
      </trkpt>
      <trkpt lat="41.32459" lon="-1.54647">
        <ele>624.429244</ele>
        <time>2022-08-31T03:47:16.305Z</time>
      </trkpt>
      <trkpt lat="41.32561" lon="-1.54711">
        <ele>622.635886</ele>
        <time>2022-08-31T03:47:37.256Z</time>
      </trkpt>
      <trkpt lat="41.32605" lon="-1.54726">
        <ele>621.882265</ele>
        <time>2022-08-31T03:47:45.527Z</time>
      </trkpt>
      <trkpt lat="41.32681" lon="-1.54752">
        <ele>620.596463</ele>
        <time>2022-08-31T03:48:00.236Z</time>
      </trkpt>
      <trkpt lat="41.32711" lon="-1.54762">
        <ele>620.305918</ele>
        <time>2022-08-31T03:48:06.524Z</time>
      </trkpt>
      <trkpt lat="41.3273" lon="-1.54774">
        <ele>620.147156</ele>
        <time>2022-08-31T03:48:10.810Z</time>
      </trkpt>
      <trkpt lat="41.32748" lon="-1.54796">
        <ele>619.962608</ele>
        <time>2022-08-31T03:48:15.792Z</time>
      </trkpt>
      <trkpt lat="41.32799" lon="-1.54869">
        <ele>619.389101</ele>
        <time>2022-08-31T03:48:31.407Z</time>
      </trkpt>
      <trkpt lat="41.32839" lon="-1.54926">
        <ele>618.808998</ele>
        <time>2022-08-31T03:48:43.540Z</time>
      </trkpt>
      <trkpt lat="41.3293" lon="-1.55061">
        <ele>617.006732</ele>
        <time>2022-08-31T03:49:10.093Z</time>
      </trkpt>
      <trkpt lat="41.33021" lon="-1.5515">
        <ele>615.179524</ele>
        <time>2022-08-31T03:49:30.535Z</time>
      </trkpt>
      <trkpt lat="41.33152" lon="-1.55296">
        <ele>613.47265</ele>
        <time>2022-08-31T03:50:03.583Z</time>
      </trkpt>
      <trkpt lat="41.33169" lon="-1.5532">
        <ele>613.391889</ele>
        <time>2022-08-31T03:50:08.961Z</time>
      </trkpt>
      <trkpt lat="41.33245" lon="-1.55465">
        <ele>614.18424</ele>
        <time>2022-08-31T03:50:43.185Z</time>
      </trkpt>
      <trkpt lat="41.33274" lon="-1.5553">
        <ele>615.10906</ele>
        <time>2022-08-31T03:51:01.736Z</time>
      </trkpt>
      <trkpt lat="41.33311" lon="-1.55661">
        <ele>617.506296</ele>
        <time>2022-08-31T03:51:36.269Z</time>
      </trkpt>
      <trkpt lat="41.33357" lon="-1.55722">
        <ele>619.581495</ele>
        <time>2022-08-31T03:52:01.091Z</time>
      </trkpt>
      <trkpt lat="41.33376" lon="-1.55756">
        <ele>620.596379</ele>
        <time>2022-08-31T03:52:15.323Z</time>
      </trkpt>
      <trkpt lat="41.3338" lon="-1.55776">
        <ele>621.098615</ele>
        <time>2022-08-31T03:52:22.308Z</time>
      </trkpt>
      <trkpt lat="41.33385" lon="-1.55903">
        <ele>621.246445</ele>
        <time>2022-08-31T03:52:59.864Z</time>
      </trkpt>
      <trkpt lat="41.33392" lon="-1.55963">
        <ele>620.877953</ele>
        <time>2022-08-31T03:53:07.703Z</time>
      </trkpt>
      <trkpt lat="41.33405" lon="-1.5603">
        <ele>620.45772</ele>
        <time>2022-08-31T03:53:16.328Z</time>
      </trkpt>
      <trkpt lat="41.33419" lon="-1.56072">
        <ele>618.759823</ele>
        <time>2022-08-31T03:53:21.973Z</time>
      </trkpt>
      <trkpt lat="41.33433" lon="-1.56093">
        <ele>617.399677</ele>
        <time>2022-08-31T03:53:25.364Z</time>
      </trkpt>
      <trkpt lat="41.33446" lon="-1.56104">
        <ele>616.394949</ele>
        <time>2022-08-31T03:53:27.703Z</time>
      </trkpt>
      <trkpt lat="41.33477" lon="-1.56102">
        <ele>614.378093</ele>
        <time>2022-08-31T03:53:32.364Z</time>
      </trkpt>
      <trkpt lat="41.33489" lon="-1.5612">
        <ele>613.177338</ele>
        <time>2022-08-31T03:53:35.246Z</time>
      </trkpt>
      <trkpt lat="41.335" lon="-1.56159">
        <ele>611.123941</ele>
        <time>2022-08-31T03:53:40.053Z</time>
      </trkpt>
      <trkpt lat="41.33504" lon="-1.56169">
        <ele>610.542523</ele>
        <time>2022-08-31T03:53:41.412Z</time>
      </trkpt>
      <trkpt lat="41.33546" lon="-1.56261">
        <ele>606.035424</ele>
        <time>2022-08-31T03:53:53.665Z</time>
      </trkpt>
      <trkpt lat="41.33572" lon="-1.5631">
        <ele>603.763685</ele>
        <time>2022-08-31T03:54:01.759Z</time>
      </trkpt>
      <trkpt lat="41.33581" lon="-1.56317">
        <ele>603.206934</ele>
        <time>2022-08-31T03:54:03.703Z</time>
      </trkpt>
      <trkpt lat="41.33621" lon="-1.56347">
        <ele>600.898226</ele>
        <time>2022-08-31T03:54:11.624Z</time>
      </trkpt>
      <trkpt lat="41.33656" lon="-1.56409">
        <ele>598.671892</ele>
        <time>2022-08-31T03:54:21.313Z</time>
      </trkpt>
      <trkpt lat="41.33721" lon="-1.56494">
        <ele>596.168533</ele>
        <time>2022-08-31T03:54:36.767Z</time>
      </trkpt>
      <trkpt lat="41.33836" lon="-1.56611">
        <ele>593.680315</ele>
        <time>2022-08-31T03:55:05.116Z</time>
      </trkpt>
      <trkpt lat="41.33853" lon="-1.56623">
        <ele>593.483123</ele>
        <time>2022-08-31T03:55:09.047Z</time>
      </trkpt>
      <trkpt lat="41.33912" lon="-1.56648">
        <ele>592.838705</ele>
        <time>2022-08-31T03:55:21.499Z</time>
      </trkpt>
      <trkpt lat="41.33969" lon="-1.56695">
        <ele>592.252894</ele>
        <time>2022-08-31T03:55:34.915Z</time>
      </trkpt>
      <trkpt lat="41.33988" lon="-1.56702">
        <ele>592.090266</ele>
        <time>2022-08-31T03:55:38.956Z</time>
      </trkpt>
      <trkpt lat="41.34078" lon="-1.56679">
        <ele>591.325816</ele>
        <time>2022-08-31T03:55:57.558Z</time>
      </trkpt>
      <trkpt lat="41.34137" lon="-1.56661">
        <ele>590.698236</ele>
        <time>2022-08-31T03:56:09.922Z</time>
      </trkpt>
      <trkpt lat="41.3415" lon="-1.56663">
        <ele>590.562606</ele>
        <time>2022-08-31T03:56:12.333Z</time>
      </trkpt>
      <trkpt lat="41.34217" lon="-1.56692">
        <ele>589.789193</ele>
        <time>2022-08-31T03:56:26.443Z</time>
      </trkpt>
      <trkpt lat="41.34229" lon="-1.56701">
        <ele>589.645433</ele>
        <time>2022-08-31T03:56:29.119Z</time>
      </trkpt>
      <trkpt lat="41.34239" lon="-1.56719">
        <ele>589.458448</ele>
        <time>2022-08-31T03:56:32.604Z</time>
      </trkpt>
      <trkpt lat="41.34486" lon="-1.57737">
        <ele>575.915256</ele>
        <time>2022-08-31T03:59:02.073Z</time>
      </trkpt>
      <trkpt lat="41.34611" lon="-1.58248">
        <ele>572.558971</ele>
        <time>2022-08-31T04:00:24.802Z</time>
      </trkpt>
      <trkpt lat="41.34646" lon="-1.58391">
        <ele>571.833984</ele>
        <time>2022-08-31T04:00:47.596Z</time>
      </trkpt>
      <trkpt lat="41.34787" lon="-1.58635">
        <ele>571.685493</ele>
        <time>2022-08-31T04:01:36.471Z</time>
      </trkpt>
      <trkpt lat="41.34796" lon="-1.5865">
        <ele>571.772961</ele>
        <time>2022-08-31T04:01:41.463Z</time>
      </trkpt>
      <trkpt lat="41.34803" lon="-1.58688">
        <ele>571.957575</ele>
        <time>2022-08-31T04:01:50.014Z</time>
      </trkpt>
      <trkpt lat="41.34827" lon="-1.58763">
        <ele>572.394897</ele>
        <time>2022-08-31T04:02:08.683Z</time>
      </trkpt>
      <trkpt lat="41.34881" lon="-1.58841">
        <ele>573.149702</ele>
        <time>2022-08-31T04:02:34.354Z</time>
      </trkpt>
      <trkpt lat="41.34918" lon="-1.58884">
        <ele>573.622261</ele>
        <time>2022-08-31T04:02:47.341Z</time>
      </trkpt>
      <trkpt lat="41.34965" lon="-1.58964">
        <ele>573.127238</ele>
        <time>2022-08-31T04:03:02.629Z</time>
      </trkpt>
      <trkpt lat="41.35011" lon="-1.59011">
        <ele>572.05834</ele>
        <time>2022-08-31T04:03:13.190Z</time>
      </trkpt>
      <trkpt lat="41.35067" lon="-1.59109">
        <ele>570.327503</ele>
        <time>2022-08-31T04:03:29.542Z</time>
      </trkpt>
      <trkpt lat="41.35128" lon="-1.59328">
        <ele>566.744151</ele>
        <time>2022-08-31T04:04:01.529Z</time>
      </trkpt>
      <trkpt lat="41.3522" lon="-1.59594">
        <ele>563.450243</ele>
        <time>2022-08-31T04:04:43.435Z</time>
      </trkpt>
      <trkpt lat="41.35243" lon="-1.59656">
        <ele>562.815674</ele>
        <time>2022-08-31T04:04:53.389Z</time>
      </trkpt>
      <trkpt lat="41.35294" lon="-1.59753">
        <ele>561.821483</ele>
        <time>2022-08-31T04:05:10.859Z</time>
      </trkpt>
      <trkpt lat="41.35391" lon="-1.59884">
        <ele>561.242783</ele>
        <time>2022-08-31T04:05:40.445Z</time>
      </trkpt>
      <trkpt lat="41.35445" lon="-1.6001">
        <ele>560.225672</ele>
        <time>2022-08-31T04:06:04.024Z</time>
      </trkpt>
      <trkpt lat="41.35487" lon="-1.60075">
        <ele>559.499812</ele>
        <time>2022-08-31T04:06:16.425Z</time>
      </trkpt>
      <trkpt lat="41.355" lon="-1.60102">
        <ele>559.221853</ele>
        <time>2022-08-31T04:06:20.922Z</time>
      </trkpt>
      <trkpt lat="41.35509" lon="-1.60139">
        <ele>558.54206</ele>
        <time>2022-08-31T04:06:26.172Z</time>
      </trkpt>
      <trkpt lat="41.35541" lon="-1.60194">
        <ele>556.800085</ele>
        <time>2022-08-31T04:06:35.144Z</time>
      </trkpt>
      <trkpt lat="41.35687" lon="-1.60339">
        <ele>550.549716</ele>
        <time>2022-08-31T04:07:05.303Z</time>
      </trkpt>
      <trkpt lat="41.35755" lon="-1.60438">
        <ele>546.975283</ele>
        <time>2022-08-31T04:07:22.187Z</time>
      </trkpt>
      <trkpt lat="41.35801" lon="-1.60474">
        <ele>545.93274</ele>
        <time>2022-08-31T04:07:31.468Z</time>
      </trkpt>
      <trkpt lat="41.35897" lon="-1.6053">
        <ele>544.238179</ele>
        <time>2022-08-31T04:07:51.297Z</time>
      </trkpt>
      <trkpt lat="41.35918" lon="-1.60545">
        <ele>543.851038</ele>
        <time>2022-08-31T04:07:56.335Z</time>
      </trkpt>
      <trkpt lat="41.3594" lon="-1.60573">
        <ele>543.865376</ele>
        <time>2022-08-31T04:08:03.371Z</time>
      </trkpt>
      <trkpt lat="41.36033" lon="-1.60764">
        <ele>544.808732</ele>
        <time>2022-08-31T04:08:47.836Z</time>
      </trkpt>
      <trkpt lat="41.36057" lon="-1.60869">
        <ele>545.182673</ele>
        <time>2022-08-31T04:09:10.647Z</time>
      </trkpt>
      <trkpt lat="41.3607" lon="-1.60895">
        <ele>545.288369</ele>
        <time>2022-08-31T04:09:16.348Z</time>
      </trkpt>
      <trkpt lat="41.36079" lon="-1.60903">
        <ele>545.33948</ele>
        <time>2022-08-31T04:09:19.198Z</time>
      </trkpt>
      <trkpt lat="41.36093" lon="-1.60918">
        <ele>545.422701</ele>
        <time>2022-08-31T04:09:22.805Z</time>
      </trkpt>
      <trkpt lat="41.36085" lon="-1.6094">
        <ele>545.506893</ele>
        <time>2022-08-31T04:09:27.854Z</time>
      </trkpt>
      <trkpt lat="41.36074" lon="-1.60985">
        <ele>545.294651</ele>
        <time>2022-08-31T04:09:35.251Z</time>
      </trkpt>
      <trkpt lat="41.36072" lon="-1.61016">
        <ele>545.022483</ele>
        <time>2022-08-31T04:09:39.983Z</time>
      </trkpt>
      <trkpt lat="41.36086" lon="-1.6125">
        <ele>542.404998</ele>
        <time>2022-08-31T04:10:13.807Z</time>
      </trkpt>
      <trkpt lat="41.36081" lon="-1.61301">
        <ele>541.407781</ele>
        <time>2022-08-31T04:10:20.601Z</time>
      </trkpt>
      <trkpt lat="41.36068" lon="-1.61349">
        <ele>540.418018</ele>
        <time>2022-08-31T04:10:27.228Z</time>
      </trkpt>
      <trkpt lat="41.36041" lon="-1.61396">
        <ele>539.271263</ele>
        <time>2022-08-31T04:10:34.848Z</time>
      </trkpt>
      <trkpt lat="41.36004" lon="-1.61435">
        <ele>538.158514</ele>
        <time>2022-08-31T04:10:42.927Z</time>
      </trkpt>
      <trkpt lat="41.35933" lon="-1.61512">
        <ele>536.121001</ele>
        <time>2022-08-31T04:10:58.593Z</time>
      </trkpt>
      <trkpt lat="41.35892" lon="-1.61556">
        <ele>534.945896</ele>
        <time>2022-08-31T04:11:09.091Z</time>
      </trkpt>
      <trkpt lat="41.3586" lon="-1.6159">
        <ele>534.522646</ele>
        <time>2022-08-31T04:11:19.463Z</time>
      </trkpt>
      <trkpt lat="41.3585" lon="-1.61614">
        <ele>534.331662</ele>
        <time>2022-08-31T04:11:24.088Z</time>
      </trkpt>
      <trkpt lat="41.35849" lon="-1.61627">
        <ele>534.241015</ele>
        <time>2022-08-31T04:11:26.063Z</time>
      </trkpt>
      <trkpt lat="41.35843" lon="-1.61638">
        <ele>534.153797</ele>
        <time>2022-08-31T04:11:28.121Z</time>
      </trkpt>
      <trkpt lat="41.35828" lon="-1.6164">
        <ele>534.009966</ele>
        <time>2022-08-31T04:11:31.690Z</time>
      </trkpt>
      <trkpt lat="41.3582" lon="-1.61633">
        <ele>533.923259</ele>
        <time>2022-08-31T04:11:33.453Z</time>
      </trkpt>
      <trkpt lat="41.35816" lon="-1.6162">
        <ele>533.828868</ele>
        <time>2022-08-31T04:11:35.466Z</time>
      </trkpt>
      <trkpt lat="41.35817" lon="-1.61612">
        <ele>533.774195</ele>
        <time>2022-08-31T04:11:36.690Z</time>
      </trkpt>
      <trkpt lat="41.35802" lon="-1.61588">
        <ele>533.557833</ele>
        <time>2022-08-31T04:11:41.114Z</time>
      </trkpt>
      <trkpt lat="41.35779" lon="-1.6158">
        <ele>533.341513</ele>
        <time>2022-08-31T04:11:45.716Z</time>
      </trkpt>
      <trkpt lat="41.3575" lon="-1.61595">
        <ele>532.640599</ele>
        <time>2022-08-31T04:11:51.471Z</time>
      </trkpt>
      <trkpt lat="41.35738" lon="-1.61615">
        <ele>531.987371</ele>
        <time>2022-08-31T04:11:54.846Z</time>
      </trkpt>
      <trkpt lat="41.3573" lon="-1.6164">
        <ele>531.307841</ele>
        <time>2022-08-31T04:11:58.787Z</time>
      </trkpt>
      <trkpt lat="41.35738" lon="-1.61696">
        <ele>529.861159</ele>
        <time>2022-08-31T04:12:06.333Z</time>
      </trkpt>
      <trkpt lat="41.35839" lon="-1.61886">
        <ele>524.290774</ele>
        <time>2022-08-31T04:12:34.195Z</time>
      </trkpt>
      <trkpt lat="41.35858" lon="-1.61923">
        <ele>523.232986</ele>
        <time>2022-08-31T04:12:40.407Z</time>
      </trkpt>
      <trkpt lat="41.3587" lon="-1.61935">
        <ele>522.784159</ele>
        <time>2022-08-31T04:12:43.047Z</time>
      </trkpt>
      <trkpt lat="41.36004" lon="-1.62147">
        <ele>521.175994</ele>
        <time>2022-08-31T04:13:27.374Z</time>
      </trkpt>
      <trkpt lat="41.36012" lon="-1.62169">
        <ele>521.207076</ele>
        <time>2022-08-31T04:13:31.968Z</time>
      </trkpt>
      <trkpt lat="41.35989" lon="-1.6221">
        <ele>521.414627</ele>
        <time>2022-08-31T04:13:41.785Z</time>
      </trkpt>
      <trkpt lat="41.35978" lon="-1.6223">
        <ele>521.511916</ele>
        <time>2022-08-31T04:13:46.336Z</time>
      </trkpt>
      <trkpt lat="41.35933" lon="-1.62296">
        <ele>521.874901</ele>
        <time>2022-08-31T04:14:04.695Z</time>
      </trkpt>
      <trkpt lat="41.35875" lon="-1.62372">
        <ele>522.335343</ele>
        <time>2022-08-31T04:14:25.535Z</time>
      </trkpt>
      <trkpt lat="41.35864" lon="-1.62376">
        <ele>522.407171</ele>
        <time>2022-08-31T04:14:28.751Z</time>
      </trkpt>
      <trkpt lat="41.3586" lon="-1.62392">
        <ele>522.483864</ele>
        <time>2022-08-31T04:14:33.945Z</time>
      </trkpt>
      <trkpt lat="41.35827" lon="-1.62425">
        <ele>522.734406</ele>
        <time>2022-08-31T04:14:50.761Z</time>
      </trkpt>
      <trkpt lat="41.35803" lon="-1.6247">
        <ele>522.982908</ele>
        <time>2022-08-31T04:15:07.565Z</time>
      </trkpt>
      <trkpt lat="41.3578" lon="-1.62553">
        <ele>523.302863</ele>
        <time>2022-08-31T04:15:34.292Z</time>
      </trkpt>
      <trkpt lat="41.35764" lon="-1.62652">
        <ele>523.558256</ele>
        <time>2022-08-31T04:16:02.877Z</time>
      </trkpt>
      <trkpt lat="41.35759" lon="-1.62668">
        <ele>523.602577</ele>
        <time>2022-08-31T04:16:07.933Z</time>
      </trkpt>
      <trkpt lat="41.35746" lon="-1.62687">
        <ele>523.667187</ele>
        <time>2022-08-31T04:16:15.488Z</time>
      </trkpt>
      <trkpt lat="41.35746" lon="-1.6272">
        <ele>523.749</ele>
        <time>2022-08-31T04:16:24.935Z</time>
      </trkpt>
      <trkpt lat="41.35714" lon="-1.62739">
        <ele>523.893997</ele>
        <time>2022-08-31T04:16:38.547Z</time>
      </trkpt>
      <trkpt lat="41.35698" lon="-1.62758">
        <ele>523.99842</ele>
        <time>2022-08-31T04:16:46.675Z</time>
      </trkpt>
      <trkpt lat="41.35568" lon="-1.63067">
        <ele>525.40575</ele>
        <time>2022-08-31T04:18:32.496Z</time>
      </trkpt>
      <trkpt lat="41.35554" lon="-1.6311">
        <ele>525.608826</ele>
        <time>2022-08-31T04:18:46.950Z</time>
      </trkpt>
      <trkpt lat="41.35555" lon="-1.63129">
        <ele>525.689333</ele>
        <time>2022-08-31T04:18:52.624Z</time>
      </trkpt>
      <trkpt lat="41.35476" lon="-1.63289">
        <ele>526.275812</ele>
        <time>2022-08-31T04:19:49.833Z</time>
      </trkpt>
      <trkpt lat="41.35424" lon="-1.63324">
        <ele>526.401653</ele>
        <time>2022-08-31T04:20:11.823Z</time>
      </trkpt>
      <trkpt lat="41.35438" lon="-1.63369">
        <ele>526.315832</ele>
        <time>2022-08-31T04:20:25.272Z</time>
      </trkpt>
      <trkpt lat="41.35428" lon="-1.63376">
        <ele>526.289643</ele>
        <time>2022-08-31T04:20:29.330Z</time>
      </trkpt>
      <trkpt lat="41.35412" lon="-1.63334">
        <ele>526.206453</ele>
        <time>2022-08-31T04:20:42.241Z</time>
      </trkpt>
      <trkpt lat="41.35342" lon="-1.63438">
        <ele>526.078888</ele>
        <time>2022-08-31T04:21:19.940Z</time>
      </trkpt>
      <trkpt lat="41.3533" lon="-1.63474">
        <ele>526.145437</ele>
        <time>2022-08-31T04:21:30.836Z</time>
      </trkpt>
      <trkpt lat="41.3532" lon="-1.63536">
        <ele>526.251825</ele>
        <time>2022-08-31T04:21:48.869Z</time>
      </trkpt>
      <trkpt lat="41.35287" lon="-1.63571">
        <ele>526.345252</ele>
        <time>2022-08-31T04:22:05.264Z</time>
      </trkpt>
      <trkpt lat="41.35126" lon="-1.63628">
        <ele>527.583785</ele>
        <time>2022-08-31T04:23:14.022Z</time>
      </trkpt>
      <trkpt lat="41.35067" lon="-1.63618">
        <ele>528.149067</ele>
        <time>2022-08-31T04:23:38.981Z</time>
      </trkpt>
      <trkpt lat="41.35004" lon="-1.63631">
        <ele>528.919195</ele>
        <time>2022-08-31T04:24:06.167Z</time>
      </trkpt>
      <trkpt lat="41.34966" lon="-1.63649">
        <ele>529.402416</ele>
        <time>2022-08-31T04:24:23.591Z</time>
      </trkpt>
      <trkpt lat="41.34924" lon="-1.63684">
        <ele>530.00771</ele>
        <time>2022-08-31T04:24:45.017Z</time>
      </trkpt>
      <trkpt lat="41.34921" lon="-1.63693">
        <ele>530.095615</ele>
        <time>2022-08-31T04:24:48.358Z</time>
      </trkpt>
      <trkpt lat="41.34911" lon="-1.63759">
        <ele>530.837292</ele>
        <time>2022-08-31T04:25:03.843Z</time>
      </trkpt>
      <trkpt lat="41.34912" lon="-1.63801">
        <ele>531.310325</ele>
        <time>2022-08-31T04:25:13.981Z</time>
      </trkpt>
      <trkpt lat="41.34923" lon="-1.63866">
        <ele>532.063983</ele>
        <time>2022-08-31T04:25:29.672Z</time>
      </trkpt>
      <trkpt lat="41.34936" lon="-1.639">
        <ele>532.504662</ele>
        <time>2022-08-31T04:25:38.803Z</time>
      </trkpt>
      <trkpt lat="41.34972" lon="-1.63943">
        <ele>533.085726</ele>
        <time>2022-08-31T04:25:53.307Z</time>
      </trkpt>
      <trkpt lat="41.34988" lon="-1.63965">
        <ele>533.278384</ele>
        <time>2022-08-31T04:25:59.588Z</time>
      </trkpt>
      <trkpt lat="41.35049" lon="-1.64079">
        <ele>534.170511</ele>
        <time>2022-08-31T04:26:28.529Z</time>
      </trkpt>
      <trkpt lat="41.35068" lon="-1.64136">
        <ele>534.446986</ele>
        <time>2022-08-31T04:26:40.136Z</time>
      </trkpt>
      <trkpt lat="41.35079" lon="-1.64193">
        <ele>534.514902</ele>
        <time>2022-08-31T04:26:50.387Z</time>
      </trkpt>
      <trkpt lat="41.35075" lon="-1.64211">
        <ele>534.537533</ele>
        <time>2022-08-31T04:26:54.006Z</time>
      </trkpt>
      <trkpt lat="41.35064" lon="-1.64217">
        <ele>534.555302</ele>
        <time>2022-08-31T04:26:56.649Z</time>
      </trkpt>
      <trkpt lat="41.35059" lon="-1.64231">
        <ele>534.573264</ele>
        <time>2022-08-31T04:26:59.274Z</time>
      </trkpt>
      <trkpt lat="41.35059" lon="-1.64261">
        <ele>534.608521</ele>
        <time>2022-08-31T04:27:04.782Z</time>
      </trkpt>
      <trkpt lat="41.35064" lon="-1.64277">
        <ele>534.628683</ele>
        <time>2022-08-31T04:27:07.739Z</time>
      </trkpt>
      <trkpt lat="41.35039" lon="-1.64305">
        <ele>534.67958</ele>
        <time>2022-08-31T04:27:15.507Z</time>
      </trkpt>
      <trkpt lat="41.35005" lon="-1.64353">
        <ele>534.537598</ele>
        <time>2022-08-31T04:27:27.889Z</time>
      </trkpt>
      <trkpt lat="41.34973" lon="-1.64449">
        <ele>534.190748</ele>
        <time>2022-08-31T04:27:45.405Z</time>
      </trkpt>
      <trkpt lat="41.34975" lon="-1.64464">
        <ele>534.141382</ele>
        <time>2022-08-31T04:27:47.672Z</time>
      </trkpt>
      <trkpt lat="41.34978" lon="-1.64482">
        <ele>534.078383</ele>
        <time>2022-08-31T04:27:50.769Z</time>
      </trkpt>
      <trkpt lat="41.34968" lon="-1.64554">
        <ele>533.711933</ele>
        <time>2022-08-31T04:28:02.223Z</time>
      </trkpt>
      <trkpt lat="41.3498" lon="-1.64569">
        <ele>533.505675</ele>
        <time>2022-08-31T04:28:05.764Z</time>
      </trkpt>
      <trkpt lat="41.34979" lon="-1.64585">
        <ele>533.363944</ele>
        <time>2022-08-31T04:28:08.109Z</time>
      </trkpt>
      <trkpt lat="41.34987" lon="-1.64596">
        <ele>533.22225</ele>
        <time>2022-08-31T04:28:10.341Z</time>
      </trkpt>
      <trkpt lat="41.34985" lon="-1.64716">
        <ele>532.121633</ele>
        <time>2022-08-31T04:28:28.902Z</time>
      </trkpt>
      <trkpt lat="41.3498" lon="-1.64748">
        <ele>531.830973</ele>
        <time>2022-08-31T04:28:33.685Z</time>
      </trkpt>
      <trkpt lat="41.34968" lon="-1.64774">
        <ele>531.610839</ele>
        <time>2022-08-31T04:28:38.187Z</time>
      </trkpt>
      <trkpt lat="41.34954" lon="-1.64792">
        <ele>531.457668</ele>
        <time>2022-08-31T04:28:42.185Z</time>
      </trkpt>
      <trkpt lat="41.34933" lon="-1.64835">
        <ele>531.1573</ele>
        <time>2022-08-31T04:28:50.172Z</time>
      </trkpt>
      <trkpt lat="41.34923" lon="-1.64858">
        <ele>530.99668</ele>
        <time>2022-08-31T04:28:54.479Z</time>
      </trkpt>
      <trkpt lat="41.34922" lon="-1.64883">
        <ele>530.848713</ele>
        <time>2022-08-31T04:28:58.443Z</time>
      </trkpt>
      <trkpt lat="41.34941" lon="-1.6501">
        <ele>530.292635</ele>
        <time>2022-08-31T04:29:19.991Z</time>
      </trkpt>
      <trkpt lat="41.34957" lon="-1.65079">
        <ele>530.257698</ele>
        <time>2022-08-31T04:29:32.267Z</time>
      </trkpt>
      <trkpt lat="41.34955" lon="-1.65107">
        <ele>530.244443</ele>
        <time>2022-08-31T04:29:37.065Z</time>
      </trkpt>
      <trkpt lat="41.34949" lon="-1.65131">
        <ele>530.23206</ele>
        <time>2022-08-31T04:29:41.366Z</time>
      </trkpt>
      <trkpt lat="41.34929" lon="-1.65158">
        <ele>530.213995</ele>
        <time>2022-08-31T04:29:47.963Z</time>
      </trkpt>
      <trkpt lat="41.34913" lon="-1.65166">
        <ele>530.203329</ele>
        <time>2022-08-31T04:29:51.971Z</time>
      </trkpt>
      <trkpt lat="41.34847" lon="-1.65147">
        <ele>530.366412</ele>
        <time>2022-08-31T04:30:09.369Z</time>
      </trkpt>
      <trkpt lat="41.34803" lon="-1.65148">
        <ele>530.499227</ele>
        <time>2022-08-31T04:30:20.070Z</time>
      </trkpt>
      <trkpt lat="41.34757" lon="-1.65175">
        <ele>530.654065</ele>
        <time>2022-08-31T04:30:32.637Z</time>
      </trkpt>
      <trkpt lat="41.34741" lon="-1.65192">
        <ele>530.716847</ele>
        <time>2022-08-31T04:30:37.404Z</time>
      </trkpt>
      <trkpt lat="41.34728" lon="-1.65215">
        <ele>530.772118</ele>
        <time>2022-08-31T04:30:42.948Z</time>
      </trkpt>
      <trkpt lat="41.34712" lon="-1.65277">
        <ele>530.880282</ele>
        <time>2022-08-31T04:30:54.777Z</time>
      </trkpt>
      <trkpt lat="41.34711" lon="-1.65376">
        <ele>531.043383</ele>
        <time>2022-08-31T04:31:13.114Z</time>
      </trkpt>
      <trkpt lat="41.34707" lon="-1.65404">
        <ele>531.089265</ele>
        <time>2022-08-31T04:31:18.471Z</time>
      </trkpt>
      <trkpt lat="41.347" lon="-1.65413">
        <ele>531.110467</ele>
        <time>2022-08-31T04:31:20.667Z</time>
      </trkpt>
      <trkpt lat="41.34678" lon="-1.65419">
        <ele>531.156531</ele>
        <time>2022-08-31T04:31:25.734Z</time>
      </trkpt>
      <trkpt lat="41.34587" lon="-1.65376">
        <ele>531.345553</ele>
        <time>2022-08-31T04:31:48.818Z</time>
      </trkpt>
      <trkpt lat="41.34568" lon="-1.65372">
        <ele>531.383828</ele>
        <time>2022-08-31T04:31:53.642Z</time>
      </trkpt>
      <trkpt lat="41.34528" lon="-1.65369">
        <ele>531.46092</ele>
        <time>2022-08-31T04:32:03.379Z</time>
      </trkpt>
      <trkpt lat="41.34497" lon="-1.65381">
        <ele>531.520809</ele>
        <time>2022-08-31T04:32:11.218Z</time>
      </trkpt>
      <trkpt lat="41.34474" lon="-1.65376">
        <ele>531.562802</ele>
        <time>2022-08-31T04:32:16.917Z</time>
      </trkpt>
      <trkpt lat="41.34452" lon="-1.65405">
        <ele>531.618044</ele>
        <time>2022-08-31T04:32:24.425Z</time>
      </trkpt>
      <trkpt lat="41.34445" lon="-1.65424">
        <ele>531.6466</ele>
        <time>2022-08-31T04:32:28.264Z</time>
      </trkpt>
      <trkpt lat="41.34445" lon="-1.65449">
        <ele>531.68067</ele>
        <time>2022-08-31T04:32:32.871Z</time>
      </trkpt>
      <trkpt lat="41.3444" lon="-1.65468">
        <ele>531.707017</ele>
        <time>2022-08-31T04:32:36.331Z</time>
      </trkpt>
      <trkpt lat="41.3443" lon="-1.65478">
        <ele>531.729157</ele>
        <time>2022-08-31T04:32:39.280Z</time>
      </trkpt>
      <trkpt lat="41.34402" lon="-1.65481">
        <ele>531.78012</ele>
        <time>2022-08-31T04:32:45.894Z</time>
      </trkpt>
      <trkpt lat="41.34362" lon="-1.65462">
        <ele>531.885944</ele>
        <time>2022-08-31T04:32:55.935Z</time>
      </trkpt>
      <trkpt lat="41.34325" lon="-1.65458">
        <ele>531.996111</ele>
        <time>2022-08-31T04:33:04.904Z</time>
      </trkpt>
      <trkpt lat="41.34313" lon="-1.65464">
        <ele>532.035013</ele>
        <time>2022-08-31T04:33:08.002Z</time>
      </trkpt>
      <trkpt lat="41.34302" lon="-1.65479">
        <ele>532.081537</ele>
        <time>2022-08-31T04:33:11.848Z</time>
      </trkpt>
      <trkpt lat="41.34271" lon="-1.6555">
        <ele>532.26504</ele>
        <time>2022-08-31T04:33:27.172Z</time>
      </trkpt>
      <trkpt lat="41.34235" lon="-1.65584">
        <ele>532.407569</ele>
        <time>2022-08-31T04:33:38.729Z</time>
      </trkpt>
      <trkpt lat="41.34193" lon="-1.65603">
        <ele>532.570632</ele>
        <time>2022-08-31T04:33:50.300Z</time>
      </trkpt>
      <trkpt lat="41.34176" lon="-1.65635">
        <ele>532.675707</ele>
        <time>2022-08-31T04:33:57.718Z</time>
      </trkpt>
      <trkpt lat="41.34165" lon="-1.65673">
        <ele>532.786608</ele>
        <time>2022-08-31T04:34:05.560Z</time>
      </trkpt>
      <trkpt lat="41.3412" lon="-1.65673">
        <ele>532.951657</ele>
        <time>2022-08-31T04:34:16.706Z</time>
      </trkpt>
      <trkpt lat="41.3407" lon="-1.65699">
        <ele>532.956855</ele>
        <time>2022-08-31T04:34:29.052Z</time>
      </trkpt>
      <trkpt lat="41.34001" lon="-1.65784">
        <ele>532.84632</ele>
        <time>2022-08-31T04:34:50.305Z</time>
      </trkpt>
      <trkpt lat="41.34005" lon="-1.65796">
        <ele>532.835095</ele>
        <time>2022-08-31T04:34:53.762Z</time>
      </trkpt>
      <trkpt lat="41.34008" lon="-1.65806">
        <ele>532.825596</ele>
        <time>2022-08-31T04:34:56.644Z</time>
      </trkpt>
      <trkpt lat="41.33873" lon="-1.65989">
        <ele>532.681136</ele>
        <time>2022-08-31T04:36:07.535Z</time>
      </trkpt>
      <trkpt lat="41.33798" lon="-1.66104">
        <ele>532.704704</ele>
        <time>2022-08-31T04:36:50.555Z</time>
      </trkpt>
      <trkpt lat="41.33737" lon="-1.66212">
        <ele>532.776426</ele>
        <time>2022-08-31T04:37:27.945Z</time>
      </trkpt>
      <trkpt lat="41.33722" lon="-1.66259">
        <ele>532.860254</ele>
        <time>2022-08-31T04:37:42.241Z</time>
      </trkpt>
      <trkpt lat="41.33704" lon="-1.66276">
        <ele>532.90821</ele>
        <time>2022-08-31T04:37:50.432Z</time>
      </trkpt>
      <trkpt lat="41.33703" lon="-1.66329">
        <ele>532.994749</ele>
        <time>2022-08-31T04:38:00.162Z</time>
      </trkpt>
      <trkpt lat="41.33701" lon="-1.66341">
        <ele>533.01353</ele>
        <time>2022-08-31T04:38:02.438Z</time>
      </trkpt>
      <trkpt lat="41.33688" lon="-1.66355">
        <ele>533.050793</ele>
        <time>2022-08-31T04:38:06.726Z</time>
      </trkpt>
      <trkpt lat="41.33642" lon="-1.66368">
        <ele>533.199079</ele>
        <time>2022-08-31T04:38:18.784Z</time>
      </trkpt>
      <trkpt lat="41.33518" lon="-1.66477">
        <ele>534.08093</ele>
        <time>2022-08-31T04:38:57.261Z</time>
      </trkpt>
      <trkpt lat="41.33431" lon="-1.66613">
        <ele>535.130194</ele>
        <time>2022-08-31T04:39:52.489Z</time>
      </trkpt>
      <trkpt lat="41.33358" lon="-1.66773">
        <ele>536.204426</ele>
        <time>2022-08-31T04:40:50.808Z</time>
      </trkpt>
      <trkpt lat="41.33289" lon="-1.66709">
        <ele>536.81508</ele>
        <time>2022-08-31T04:41:25.440Z</time>
      </trkpt>
      <trkpt lat="41.33229" lon="-1.66692">
        <ele>536.903985</ele>
        <time>2022-08-31T04:41:48.973Z</time>
      </trkpt>
      <trkpt lat="41.3322" lon="-1.66701">
        <ele>536.888986</ele>
        <time>2022-08-31T04:41:53.223Z</time>
      </trkpt>
      <trkpt lat="41.33131" lon="-1.66874">
        <ele>536.666206</ele>
        <time>2022-08-31T04:42:49.746Z</time>
      </trkpt>
      <trkpt lat="41.33095" lon="-1.6699">
        <ele>536.490388</ele>
        <time>2022-08-31T04:43:23.986Z</time>
      </trkpt>
      <trkpt lat="41.33066" lon="-1.67186">
        <ele>536.670774</ele>
        <time>2022-08-31T04:44:20.573Z</time>
      </trkpt>
      <trkpt lat="41.33004" lon="-1.67294">
        <ele>537.012686</ele>
        <time>2022-08-31T04:45:00.761Z</time>
      </trkpt>
      <trkpt lat="41.32952" lon="-1.67426">
        <ele>537.603826</ele>
        <time>2022-08-31T04:45:45.514Z</time>
      </trkpt>
      <trkpt lat="41.32938" lon="-1.67476">
        <ele>537.812082</ele>
        <time>2022-08-31T04:46:01.341Z</time>
      </trkpt>
      <trkpt lat="41.32846" lon="-1.67861">
        <ele>539.571165</ele>
        <time>2022-08-31T04:48:02.356Z</time>
      </trkpt>
      <trkpt lat="41.32848" lon="-1.67889">
        <ele>539.706134</ele>
        <time>2022-08-31T04:48:11.402Z</time>
      </trkpt>
      <trkpt lat="41.32892" lon="-1.67945">
        <ele>540.060301</ele>
        <time>2022-08-31T04:48:35.680Z</time>
      </trkpt>
      <trkpt lat="41.32894" lon="-1.67962">
        <ele>540.124971</ele>
        <time>2022-08-31T04:48:40.968Z</time>
      </trkpt>
      <trkpt lat="41.3289" lon="-1.67976">
        <ele>540.181746</ele>
        <time>2022-08-31T04:48:45.417Z</time>
      </trkpt>
      <trkpt lat="41.32881" lon="-1.67988">
        <ele>540.242861</ele>
        <time>2022-08-31T04:48:50.723Z</time>
      </trkpt>
      <trkpt lat="41.32824" lon="-1.68006">
        <ele>540.527515</ele>
        <time>2022-08-31T04:49:13.637Z</time>
      </trkpt>
      <trkpt lat="41.3281" lon="-1.68022">
        <ele>540.618129</ele>
        <time>2022-08-31T04:49:21.203Z</time>
      </trkpt>
      <trkpt lat="41.32659" lon="-1.68746">
        <ele>542.741792</ele>
        <time>2022-08-31T04:52:59.693Z</time>
      </trkpt>
      <trkpt lat="41.32657" lon="-1.68804">
        <ele>542.975764</ele>
        <time>2022-08-31T04:53:17.639Z</time>
      </trkpt>
      <trkpt lat="41.32637" lon="-1.68836">
        <ele>543.183089</ele>
        <time>2022-08-31T04:53:30.093Z</time>
      </trkpt>
      <trkpt lat="41.32634" lon="-1.68854">
        <ele>543.278237</ele>
        <time>2022-08-31T04:53:35.953Z</time>
      </trkpt>
      <trkpt lat="41.32629" lon="-1.6891">
        <ele>543.573604</ele>
        <time>2022-08-31T04:53:53.825Z</time>
      </trkpt>
      <trkpt lat="41.32553" lon="-1.6928">
        <ele>544.988458</ele>
        <time>2022-08-31T04:55:47.950Z</time>
      </trkpt>
      <trkpt lat="41.32539" lon="-1.6933">
        <ele>544.999681</ele>
        <time>2022-08-31T04:56:02.757Z</time>
      </trkpt>
      <trkpt lat="41.32488" lon="-1.69566">
        <ele>545.370508</ele>
        <time>2022-08-31T04:57:10.246Z</time>
      </trkpt>
      <trkpt lat="41.32477" lon="-1.69588">
        <ele>545.460447</ele>
        <time>2022-08-31T04:57:18.081Z</time>
      </trkpt>
      <trkpt lat="41.32324" lon="-1.70332">
        <ele>550.576823</ele>
        <time>2022-08-31T05:01:21.711Z</time>
      </trkpt>
      <trkpt lat="41.32291" lon="-1.70491">
        <ele>551.033162</ele>
        <time>2022-08-31T05:02:10.159Z</time>
      </trkpt>
      <trkpt lat="41.32276" lon="-1.70599">
        <ele>551.135301</ele>
        <time>2022-08-31T05:02:40.706Z</time>
      </trkpt>
      <trkpt lat="41.32246" lon="-1.70735">
        <ele>550.549987</ele>
        <time>2022-08-31T05:03:18.859Z</time>
      </trkpt>
      <trkpt lat="41.32248" lon="-1.70798">
        <ele>550.237262</ele>
        <time>2022-08-31T05:03:35.160Z</time>
      </trkpt>
      <trkpt lat="41.32243" lon="-1.70875">
        <ele>549.884229</ele>
        <time>2022-08-31T05:03:55.384Z</time>
      </trkpt>
      <trkpt lat="41.32278" lon="-1.70888">
        <ele>549.718137</ele>
        <time>2022-08-31T05:04:03.063Z</time>
      </trkpt>
      <trkpt lat="41.32312" lon="-1.70904">
        <ele>549.550827</ele>
        <time>2022-08-31T05:04:10.836Z</time>
      </trkpt>
      <trkpt lat="41.32426" lon="-1.70994">
        <ele>549.503146</ele>
        <time>2022-08-31T05:04:40.639Z</time>
      </trkpt>
      <trkpt lat="41.32515" lon="-1.71024">
        <ele>550.310249</ele>
        <time>2022-08-31T05:05:06.479Z</time>
      </trkpt>
      <trkpt lat="41.32531" lon="-1.71038">
        <ele>550.48154</ele>
        <time>2022-08-31T05:05:12.547Z</time>
      </trkpt>
      <trkpt lat="41.32604" lon="-1.71099">
        <ele>551.542483</ele>
        <time>2022-08-31T05:05:39.899Z</time>
      </trkpt>
      <trkpt lat="41.32648" lon="-1.71132">
        <ele>552.24766</ele>
        <time>2022-08-31T05:05:55.652Z</time>
      </trkpt>
      <trkpt lat="41.32667" lon="-1.7116">
        <ele>552.644851</ele>
        <time>2022-08-31T05:06:04.014Z</time>
      </trkpt>
      <trkpt lat="41.32673" lon="-1.7118">
        <ele>552.859975</ele>
        <time>2022-08-31T05:06:08.652Z</time>
      </trkpt>
      <trkpt lat="41.3265" lon="-1.71239">
        <ele>553.376829</ele>
        <time>2022-08-31T05:06:22.091Z</time>
      </trkpt>
      <trkpt lat="41.32643" lon="-1.71263">
        <ele>553.499611</ele>
        <time>2022-08-31T05:06:27.468Z</time>
      </trkpt>
      <trkpt lat="41.32618" lon="-1.7134">
        <ele>553.896346</ele>
        <time>2022-08-31T05:06:43.088Z</time>
      </trkpt>
      <trkpt lat="41.32593" lon="-1.71414">
        <ele>554.277748</ele>
        <time>2022-08-31T05:06:57.479Z</time>
      </trkpt>
      <trkpt lat="41.32566" lon="-1.71522">
        <ele>555.065178</ele>
        <time>2022-08-31T05:07:19.608Z</time>
      </trkpt>
      <trkpt lat="41.32565" lon="-1.71539">
        <ele>555.187975</ele>
        <time>2022-08-31T05:07:23.101Z</time>
      </trkpt>
      <trkpt lat="41.32583" lon="-1.71722">
        <ele>556.779307</ele>
        <time>2022-08-31T05:08:02.289Z</time>
      </trkpt>
      <trkpt lat="41.32609" lon="-1.71939">
        <ele>559.465311</ele>
        <time>2022-08-31T05:08:52.103Z</time>
      </trkpt>
      <trkpt lat="41.32621" lon="-1.72048">
        <ele>561.302588</ele>
        <time>2022-08-31T05:09:19.879Z</time>
      </trkpt>
      <trkpt lat="41.3262" lon="-1.72092">
        <ele>562.036537</ele>
        <time>2022-08-31T05:09:31.104Z</time>
      </trkpt>
      <trkpt lat="41.3263" lon="-1.72101">
        <ele>562.31721</ele>
        <time>2022-08-31T05:09:35.917Z</time>
      </trkpt>
      <trkpt lat="41.3264" lon="-1.72189">
        <ele>563.684722</ele>
        <time>2022-08-31T05:09:59.527Z</time>
      </trkpt>
      <trkpt lat="41.32638" lon="-1.7221">
        <ele>564.01071</ele>
        <time>2022-08-31T05:10:05.177Z</time>
      </trkpt>
      <trkpt lat="41.32632" lon="-1.72238">
        <ele>564.42929</ele>
        <time>2022-08-31T05:10:13.052Z</time>
      </trkpt>
      <trkpt lat="41.32596" lon="-1.72336">
        <ele>566.055345</ele>
        <time>2022-08-31T05:10:39.479Z</time>
      </trkpt>
      <trkpt lat="41.32562" lon="-1.72463">
        <ele>566.577143</ele>
        <time>2022-08-31T05:11:06.853Z</time>
      </trkpt>
      <trkpt lat="41.32556" lon="-1.72471">
        <ele>566.598305</ele>
        <time>2022-08-31T05:11:08.698Z</time>
      </trkpt>
      <trkpt lat="41.32512" lon="-1.72702">
        <ele>566.262533</ele>
        <time>2022-08-31T05:11:46.917Z</time>
      </trkpt>
      <trkpt lat="41.32437" lon="-1.72945">
        <ele>565.148386</ele>
        <time>2022-08-31T05:12:26.700Z</time>
      </trkpt>
      <trkpt lat="41.32376" lon="-1.73117">
        <ele>565.163605</ele>
        <time>2022-08-31T05:12:58.070Z</time>
      </trkpt>
      <trkpt lat="41.32274" lon="-1.73401">
        <ele>566.921451</ele>
        <time>2022-08-31T05:14:02.287Z</time>
      </trkpt>
      <trkpt lat="41.32267" lon="-1.73417">
        <ele>567.045635</ele>
        <time>2022-08-31T05:14:05.999Z</time>
      </trkpt>
      <trkpt lat="41.32243" lon="-1.73482">
        <ele>567.497197</ele>
        <time>2022-08-31T05:14:20.254Z</time>
      </trkpt>
      <trkpt lat="41.32223" lon="-1.7353">
        <ele>567.76505</ele>
        <time>2022-08-31T05:14:30.483Z</time>
      </trkpt>
      <trkpt lat="41.3216" lon="-1.73623">
        <ele>568.385036</ele>
        <time>2022-08-31T05:14:54.098Z</time>
      </trkpt>
      <trkpt lat="41.32141" lon="-1.73668">
        <ele>568.706807</ele>
        <time>2022-08-31T05:15:03.547Z</time>
      </trkpt>
      <trkpt lat="41.32096" lon="-1.73859">
        <ele>570.474785</ele>
        <time>2022-08-31T05:15:46.517Z</time>
      </trkpt>
      <trkpt lat="41.32086" lon="-1.73957">
        <ele>571.379543</ele>
        <time>2022-08-31T05:16:08.514Z</time>
      </trkpt>
      <trkpt lat="41.32082" lon="-1.7406">
        <ele>572.335105</ele>
        <time>2022-08-31T05:16:30.473Z</time>
      </trkpt>
      <trkpt lat="41.32093" lon="-1.74177">
        <ele>573.430426</ele>
        <time>2022-08-31T05:16:54.966Z</time>
      </trkpt>
      <trkpt lat="41.32112" lon="-1.74264">
        <ele>574.26934</ele>
        <time>2022-08-31T05:17:13.257Z</time>
      </trkpt>
      <trkpt lat="41.32112" lon="-1.7438">
        <ele>575.762614</ele>
        <time>2022-08-31T05:17:38.070Z</time>
      </trkpt>
      <trkpt lat="41.32107" lon="-1.74543">
        <ele>579.915255</ele>
        <time>2022-08-31T05:18:23.489Z</time>
      </trkpt>
      <trkpt lat="41.32069" lon="-1.75059">
        <ele>600.198964</ele>
        <time>2022-08-31T05:21:43.190Z</time>
      </trkpt>
      <trkpt lat="41.3206" lon="-1.75148">
        <ele>600.041833</ele>
        <time>2022-08-31T05:22:03.976Z</time>
      </trkpt>
      <trkpt lat="41.32046" lon="-1.75223">
        <ele>599.456951</ele>
        <time>2022-08-31T05:22:15.259Z</time>
      </trkpt>
      <trkpt lat="41.32042" lon="-1.75274">
        <ele>599.069733</ele>
        <time>2022-08-31T05:22:21.812Z</time>
      </trkpt>
      <trkpt lat="41.32046" lon="-1.75334">
        <ele>597.580568</ele>
        <time>2022-08-31T05:22:28.984Z</time>
      </trkpt>
      <trkpt lat="41.3211" lon="-1.75587">
        <ele>586.648885</ele>
        <time>2022-08-31T05:22:59.366Z</time>
      </trkpt>
      <trkpt lat="41.3214" lon="-1.75948">
        <ele>578.83627</ele>
        <time>2022-08-31T05:23:47.716Z</time>
      </trkpt>
      <trkpt lat="41.32141" lon="-1.76027">
        <ele>577.807434</ele>
        <time>2022-08-31T05:23:59.479Z</time>
      </trkpt>
      <trkpt lat="41.32137" lon="-1.76088">
        <ele>577.540503</ele>
        <time>2022-08-31T05:24:08.769Z</time>
      </trkpt>
      <trkpt lat="41.32116" lon="-1.76227">
        <ele>576.922553</ele>
        <time>2022-08-31T05:24:31.124Z</time>
      </trkpt>
      <trkpt lat="41.32119" lon="-1.763">
        <ele>576.936825</ele>
        <time>2022-08-31T05:24:42.971Z</time>
      </trkpt>
      <trkpt lat="41.32133" lon="-1.76407">
        <ele>577.130529</ele>
        <time>2022-08-31T05:25:02.034Z</time>
      </trkpt>
      <trkpt lat="41.3218" lon="-1.76547">
        <ele>577.64736</ele>
        <time>2022-08-31T05:25:31.774Z</time>
      </trkpt>
      <trkpt lat="41.32255" lon="-1.76684">
        <ele>578.434796</ele>
        <time>2022-08-31T05:26:04.948Z</time>
      </trkpt>
      <trkpt lat="41.32261" lon="-1.76706">
        <ele>578.368794</ele>
        <time>2022-08-31T05:26:09.004Z</time>
      </trkpt>
      <trkpt lat="41.32262" lon="-1.76748">
        <ele>578.246177</ele>
        <time>2022-08-31T05:26:16.289Z</time>
      </trkpt>
      <trkpt lat="41.32258" lon="-1.76771">
        <ele>578.177182</ele>
        <time>2022-08-31T05:26:20.272Z</time>
      </trkpt>
      <trkpt lat="41.32123" lon="-1.77176">
        <ele>575.991128</ele>
        <time>2022-08-31T05:27:27.315Z</time>
      </trkpt>
      <trkpt lat="41.32112" lon="-1.77228">
        <ele>575.801824</ele>
        <time>2022-08-31T05:27:35.504Z</time>
      </trkpt>
      <trkpt lat="41.32105" lon="-1.77266">
        <ele>575.664519</ele>
        <time>2022-08-31T05:27:41.591Z</time>
      </trkpt>
      <trkpt lat="41.32106" lon="-1.77303">
        <ele>575.534916</ele>
        <time>2022-08-31T05:27:47.496Z</time>
      </trkpt>
      <trkpt lat="41.32122" lon="-1.77402">
        <ele>575.505588</ele>
        <time>2022-08-31T05:28:04.468Z</time>
      </trkpt>
      <trkpt lat="41.32153" lon="-1.77621">
        <ele>576.245574</ele>
        <time>2022-08-31T05:28:46.032Z</time>
      </trkpt>
      <trkpt lat="41.32206" lon="-1.77874">
        <ele>578.102866</ele>
        <time>2022-08-31T05:29:38.407Z</time>
      </trkpt>
      <trkpt lat="41.32242" lon="-1.78109">
        <ele>580.61409</ele>
        <time>2022-08-31T05:30:31.575Z</time>
      </trkpt>
      <trkpt lat="41.32264" lon="-1.78162">
        <ele>581.361324</ele>
        <time>2022-08-31T05:30:45.922Z</time>
      </trkpt>
      <trkpt lat="41.32296" lon="-1.78216">
        <ele>582.227125</ele>
        <time>2022-08-31T05:31:02.611Z</time>
      </trkpt>
      <trkpt lat="41.32392" lon="-1.78346">
        <ele>584.152229</ele>
        <time>2022-08-31T05:31:43.300Z</time>
      </trkpt>
      <trkpt lat="41.32432" lon="-1.78415">
        <ele>585.007939</ele>
        <time>2022-08-31T05:32:02.047Z</time>
      </trkpt>
      <trkpt lat="41.32516" lon="-1.78558">
        <ele>586.526312</ele>
        <time>2022-08-31T05:32:36.685Z</time>
      </trkpt>
      <trkpt lat="41.32586" lon="-1.78633">
        <ele>587.816772</ele>
        <time>2022-08-31T05:33:03.780Z</time>
      </trkpt>
      <trkpt lat="41.3263" lon="-1.78666">
        <ele>588.880722</ele>
        <time>2022-08-31T05:33:21.647Z</time>
      </trkpt>
      <trkpt lat="41.32651" lon="-1.7867">
        <ele>589.34304</ele>
        <time>2022-08-31T05:33:30.381Z</time>
      </trkpt>
      <trkpt lat="41.32884" lon="-1.78643">
        <ele>592.006412</ele>
        <time>2022-08-31T05:34:43.124Z</time>
      </trkpt>
      <trkpt lat="41.32924" lon="-1.78663">
        <ele>591.461292</ele>
        <time>2022-08-31T05:34:50.213Z</time>
      </trkpt>
      <trkpt lat="41.32953" lon="-1.78698">
        <ele>590.00161</ele>
        <time>2022-08-31T05:34:56.613Z</time>
      </trkpt>
      <trkpt lat="41.32969" lon="-1.78742">
        <ele>588.641686</ele>
        <time>2022-08-31T05:35:02.433Z</time>
      </trkpt>
      <trkpt lat="41.32982" lon="-1.788">
        <ele>586.947402</ele>
        <time>2022-08-31T05:35:09.550Z</time>
      </trkpt>
      <trkpt lat="41.32989" lon="-1.78827">
        <ele>586.142612</ele>
        <time>2022-08-31T05:35:13.083Z</time>
      </trkpt>
      <trkpt lat="41.33002" lon="-1.78896">
        <ele>585.102764</ele>
        <time>2022-08-31T05:35:22.899Z</time>
      </trkpt>
      <trkpt lat="41.33004" lon="-1.78905">
        <ele>585.029063</ele>
        <time>2022-08-31T05:35:24.323Z</time>
      </trkpt>
      <trkpt lat="41.33008" lon="-1.78929">
        <ele>584.836989</ele>
        <time>2022-08-31T05:35:27.767Z</time>
      </trkpt>
      <trkpt lat="41.3301" lon="-1.78933">
        <ele>584.802181</ele>
        <time>2022-08-31T05:35:28.335Z</time>
      </trkpt>
      <trkpt lat="41.3301" lon="-1.78942">
        <ele>584.733654</ele>
        <time>2022-08-31T05:35:29.484Z</time>
      </trkpt>
      <trkpt lat="41.33017" lon="-1.78977">
        <ele>584.452384</ele>
        <time>2022-08-31T05:35:34.624Z</time>
      </trkpt>
      <trkpt lat="41.3303" lon="-1.79048">
        <ele>583.886338</ele>
        <time>2022-08-31T05:35:47.325Z</time>
      </trkpt>
      <trkpt lat="41.33038" lon="-1.79098">
        <ele>583.796579</ele>
        <time>2022-08-31T05:35:56.912Z</time>
      </trkpt>
      <trkpt lat="41.33036" lon="-1.79138">
        <ele>584.291298</ele>
        <time>2022-08-31T05:36:05.307Z</time>
      </trkpt>
      <trkpt lat="41.33033" lon="-1.79145">
        <ele>584.387513</ele>
        <time>2022-08-31T05:36:06.927Z</time>
      </trkpt>
      <trkpt lat="41.32994" lon="-1.79185">
        <ele>585.189706</ele>
        <time>2022-08-31T05:36:21.667Z</time>
      </trkpt>
      <trkpt lat="41.32988" lon="-1.79201">
        <ele>585.409639</ele>
        <time>2022-08-31T05:36:25.989Z</time>
      </trkpt>
      <trkpt lat="41.32973" lon="-1.79238">
        <ele>585.934774</ele>
        <time>2022-08-31T05:36:40.767Z</time>
      </trkpt>
      <trkpt lat="41.32962" lon="-1.79247">
        <ele>586.153696</ele>
        <time>2022-08-31T05:36:46.902Z</time>
      </trkpt>
      <trkpt lat="41.32941" lon="-1.79232">
        <ele>586.546526</ele>
        <time>2022-08-31T05:36:58.848Z</time>
      </trkpt>
      <trkpt lat="41.32913" lon="-1.79284">
        <ele>587.837796</ele>
        <time>2022-08-31T05:37:22.787Z</time>
      </trkpt>
      <trkpt lat="41.32872" lon="-1.79275">
        <ele>588.985373</ele>
        <time>2022-08-31T05:37:38.524Z</time>
      </trkpt>
      <trkpt lat="41.32867" lon="-1.79279">
        <ele>589.142821</ele>
        <time>2022-08-31T05:37:40.795Z</time>
      </trkpt>
      <trkpt lat="41.32858" lon="-1.79356">
        <ele>590.762761</ele>
        <time>2022-08-31T05:38:03.231Z</time>
      </trkpt>
      <trkpt lat="41.32851" lon="-1.79374">
        <ele>591.198975</ele>
        <time>2022-08-31T05:38:08.996Z</time>
      </trkpt>
      <trkpt lat="41.32834" lon="-1.79395">
        <ele>591.792749</ele>
        <time>2022-08-31T05:38:17.213Z</time>
      </trkpt>
      <trkpt lat="41.32803" lon="-1.79412">
        <ele>592.578284</ele>
        <time>2022-08-31T05:38:29.170Z</time>
      </trkpt>
      <trkpt lat="41.32792" lon="-1.79399">
        <ele>592.914155</ele>
        <time>2022-08-31T05:38:34.246Z</time>
      </trkpt>
      <trkpt lat="41.32788" lon="-1.79404">
        <ele>593.062779</ele>
        <time>2022-08-31T05:38:36.267Z</time>
      </trkpt>
      <trkpt lat="41.32754" lon="-1.79443">
        <ele>594.107762</ele>
        <time>2022-08-31T05:38:51.530Z</time>
      </trkpt>
      <trkpt lat="41.32752" lon="-1.79455">
        <ele>594.324338</ele>
        <time>2022-08-31T05:38:54.746Z</time>
      </trkpt>
      <trkpt lat="41.32738" lon="-1.79475">
        <ele>594.79887</ele>
        <time>2022-08-31T05:39:01.769Z</time>
      </trkpt>
      <trkpt lat="41.32687" lon="-1.79573">
        <ele>596.045046</ele>
        <time>2022-08-31T05:39:31.976Z</time>
      </trkpt>
      <trkpt lat="41.32677" lon="-1.79597">
        <ele>596.169136</ele>
        <time>2022-08-31T05:39:39.068Z</time>
      </trkpt>
      <trkpt lat="41.32669" lon="-1.79642">
        <ele>596.375435</ele>
        <time>2022-08-31T05:39:47.991Z</time>
      </trkpt>
      <trkpt lat="41.32592" lon="-1.79699">
        <ele>596.387144</ele>
        <time>2022-08-31T05:40:06.507Z</time>
      </trkpt>
      <trkpt lat="41.32569" lon="-1.79729">
        <ele>595.345008</ele>
        <time>2022-08-31T05:40:12.195Z</time>
      </trkpt>
      <trkpt lat="41.32543" lon="-1.79762">
        <ele>594.15886</ele>
        <time>2022-08-31T05:40:18.109Z</time>
      </trkpt>
      <trkpt lat="41.32463" lon="-1.79843">
        <ele>590.886214</ele>
        <time>2022-08-31T05:40:34.517Z</time>
      </trkpt>
      <trkpt lat="41.32444" lon="-1.79876">
        <ele>590.302136</ele>
        <time>2022-08-31T05:40:39.435Z</time>
      </trkpt>
      <trkpt lat="41.32298" lon="-1.80022">
        <ele>587.669078</ele>
        <time>2022-08-31T05:41:15.045Z</time>
      </trkpt>
      <trkpt lat="41.32245" lon="-1.80081">
        <ele>587.996793</ele>
        <time>2022-08-31T05:41:32.211Z</time>
      </trkpt>
      <trkpt lat="41.32214" lon="-1.80107">
        <ele>588.170082</ele>
        <time>2022-08-31T05:41:40.789Z</time>
      </trkpt>
      <trkpt lat="41.32046" lon="-1.80287">
        <ele>592.865226</ele>
        <time>2022-08-31T05:42:51.877Z</time>
      </trkpt>
      <trkpt lat="41.31934" lon="-1.80398">
        <ele>600.111827</ele>
        <time>2022-08-31T05:44:03.603Z</time>
      </trkpt>
      <trkpt lat="41.3193" lon="-1.80413">
        <ele>600.744159</ele>
        <time>2022-08-31T05:44:09.091Z</time>
      </trkpt>
      <trkpt lat="41.31934" lon="-1.80461">
        <ele>602.556231</ele>
        <time>2022-08-31T05:44:28.206Z</time>
      </trkpt>
      <trkpt lat="41.31938" lon="-1.8049">
        <ele>603.316399</ele>
        <time>2022-08-31T05:44:39.813Z</time>
      </trkpt>
      <trkpt lat="41.31938" lon="-1.80558">
        <ele>605.095782</ele>
        <time>2022-08-31T05:45:00.466Z</time>
      </trkpt>
      <trkpt lat="41.31968" lon="-1.80619">
        <ele>606.983265</ele>
        <time>2022-08-31T05:45:19.478Z</time>
      </trkpt>
      <trkpt lat="41.31969" lon="-1.80642">
        <ele>607.567541</ele>
        <time>2022-08-31T05:45:24.560Z</time>
      </trkpt>
      <trkpt lat="41.31961" lon="-1.8067">
        <ele>608.352246</ele>
        <time>2022-08-31T05:45:33.295Z</time>
      </trkpt>
      <trkpt lat="41.31906" lon="-1.8077">
        <ele>609.924886</ele>
        <time>2022-08-31T05:46:05.973Z</time>
      </trkpt>
      <trkpt lat="41.31888" lon="-1.8079">
        <ele>610.29527</ele>
        <time>2022-08-31T05:46:13.422Z</time>
      </trkpt>
      <trkpt lat="41.31871" lon="-1.80789">
        <ele>610.565884</ele>
        <time>2022-08-31T05:46:19.060Z</time>
      </trkpt>
      <trkpt lat="41.31844" lon="-1.80769">
        <ele>611.050806</ele>
        <time>2022-08-31T05:46:26.456Z</time>
      </trkpt>
      <trkpt lat="41.31817" lon="-1.80723">
        <ele>611.617582</ele>
        <time>2022-08-31T05:46:35.930Z</time>
      </trkpt>
      <trkpt lat="41.31808" lon="-1.80719">
        <ele>611.725476</ele>
        <time>2022-08-31T05:46:37.698Z</time>
      </trkpt>
      <trkpt lat="41.31773" lon="-1.80723">
        <ele>612.089845</ele>
        <time>2022-08-31T05:46:44.405Z</time>
      </trkpt>
      <trkpt lat="41.3173" lon="-1.80702">
        <ele>612.572617</ele>
        <time>2022-08-31T05:46:55.678Z</time>
      </trkpt>
      <trkpt lat="41.31706" lon="-1.80685">
        <ele>612.861123</ele>
        <time>2022-08-31T05:47:05.343Z</time>
      </trkpt>
      <trkpt lat="41.3168" lon="-1.80653">
        <ele>613.245619</ele>
        <time>2022-08-31T05:47:18.938Z</time>
      </trkpt>
      <trkpt lat="41.31637" lon="-1.80633">
        <ele>615.446665</ele>
        <time>2022-08-31T05:47:36.636Z</time>
      </trkpt>
      <trkpt lat="41.31627" lon="-1.80608">
        <ele>616.569691</ele>
        <time>2022-08-31T05:47:43.695Z</time>
      </trkpt>
      <trkpt lat="41.31619" lon="-1.80579">
        <ele>617.79216</ele>
        <time>2022-08-31T05:47:57.282Z</time>
      </trkpt>
      <trkpt lat="41.31598" lon="-1.80549">
        <ele>619.378616</ele>
        <time>2022-08-31T05:48:12.208Z</time>
      </trkpt>
      <trkpt lat="41.31573" lon="-1.80525">
        <ele>620.993204</ele>
        <time>2022-08-31T05:48:28.496Z</time>
      </trkpt>
      <trkpt lat="41.31546" lon="-1.80508">
        <ele>622.602325</ele>
        <time>2022-08-31T05:48:46.517Z</time>
      </trkpt>
      <trkpt lat="41.31529" lon="-1.80502">
        <ele>623.162602</ele>
        <time>2022-08-31T05:48:59.034Z</time>
      </trkpt>
      <trkpt lat="41.315" lon="-1.80504">
        <ele>623.958143</ele>
        <time>2022-08-31T05:49:16.012Z</time>
      </trkpt>
      <trkpt lat="41.3145" lon="-1.8052">
        <ele>625.420733</ele>
        <time>2022-08-31T05:49:36.415Z</time>
      </trkpt>
      <trkpt lat="41.3139" lon="-1.80565">
        <ele>627.342843</ele>
        <time>2022-08-31T05:49:54.573Z</time>
      </trkpt>
      <trkpt lat="41.31252" lon="-1.8073">
        <ele>624.307862</ele>
        <time>2022-08-31T05:50:28.157Z</time>
      </trkpt>
      <trkpt lat="41.31232" lon="-1.80796">
        <ele>623.260279</ele>
        <time>2022-08-31T05:50:37.356Z</time>
      </trkpt>
      <trkpt lat="41.31229" lon="-1.80849">
        <ele>622.485524</ele>
        <time>2022-08-31T05:50:44.511Z</time>
      </trkpt>
      <trkpt lat="41.31213" lon="-1.80889">
        <ele>621.826746</ele>
        <time>2022-08-31T05:50:50.741Z</time>
      </trkpt>
      <trkpt lat="41.312" lon="-1.80896">
        <ele>621.545673</ele>
        <time>2022-08-31T05:50:53.534Z</time>
      </trkpt>
      <trkpt lat="41.31129" lon="-1.8089">
        <ele>619.998434</ele>
        <time>2022-08-31T05:51:07.285Z</time>
      </trkpt>
      <trkpt lat="41.31096" lon="-1.80901">
        <ele>619.050949</ele>
        <time>2022-08-31T05:51:14.119Z</time>
      </trkpt>
      <trkpt lat="41.31079" lon="-1.80923">
        <ele>618.410615</ele>
        <time>2022-08-31T05:51:18.825Z</time>
      </trkpt>
      <trkpt lat="41.31041" lon="-1.80999">
        <ele>616.537566</ele>
        <time>2022-08-31T05:51:30.417Z</time>
      </trkpt>
      <trkpt lat="41.31034" lon="-1.81008">
        <ele>616.28691</ele>
        <time>2022-08-31T05:51:31.940Z</time>
      </trkpt>
      <trkpt lat="41.31025" lon="-1.81069">
        <ele>614.735038</ele>
        <time>2022-08-31T05:51:39.815Z</time>
      </trkpt>
      <trkpt lat="41.31001" lon="-1.81079">
        <ele>613.755671</ele>
        <time>2022-08-31T05:51:44.006Z</time>
      </trkpt>
      <trkpt lat="41.31001" lon="-1.81119">
        <ele>612.61437</ele>
        <time>2022-08-31T05:51:48.887Z</time>
      </trkpt>
      <trkpt lat="41.31006" lon="-1.81161">
        <ele>611.38118</ele>
        <time>2022-08-31T05:51:54.198Z</time>
      </trkpt>
      <trkpt lat="41.30999" lon="-1.81171">
        <ele>610.971337</ele>
        <time>2022-08-31T05:51:55.955Z</time>
      </trkpt>
      <trkpt lat="41.30975" lon="-1.81183">
        <ele>609.977165</ele>
        <time>2022-08-31T05:52:00.354Z</time>
      </trkpt>
      <trkpt lat="41.30961" lon="-1.8116">
        <ele>609.092294</ele>
        <time>2022-08-31T05:52:04.397Z</time>
      </trkpt>
      <trkpt lat="41.30958" lon="-1.81163">
        <ele>608.937022</ele>
        <time>2022-08-31T05:52:05.149Z</time>
      </trkpt>
      <trkpt lat="41.30934" lon="-1.81194">
        <ele>610.180047</ele>
        <time>2022-08-31T05:52:12.106Z</time>
      </trkpt>
      <trkpt lat="41.30919" lon="-1.81221">
        <ele>611.436012</ele>
        <time>2022-08-31T05:52:18.583Z</time>
      </trkpt>
      <trkpt lat="41.30903" lon="-1.8125">
        <ele>612.82088</ele>
        <time>2022-08-31T05:52:31.106Z</time>
      </trkpt>
      <trkpt lat="41.30904" lon="-1.81259">
        <ele>613.180367</ele>
        <time>2022-08-31T05:52:34.838Z</time>
      </trkpt>
      <trkpt lat="41.30919" lon="-1.81315">
        <ele>615.463446</ele>
        <time>2022-08-31T05:53:03.165Z</time>
      </trkpt>
      <trkpt lat="41.30941" lon="-1.8139">
        <ele>619.270859</ele>
        <time>2022-08-31T05:53:45.530Z</time>
      </trkpt>
      <trkpt lat="41.30962" lon="-1.81411">
        <ele>622.078309</ele>
        <time>2022-08-31T05:54:06.280Z</time>
      </trkpt>
      <trkpt lat="41.30976" lon="-1.81438">
        <ele>624.731241</ele>
        <time>2022-08-31T05:54:26.586Z</time>
      </trkpt>
      <trkpt lat="41.31022" lon="-1.81554">
        <ele>635.37259</ele>
        <time>2022-08-31T05:55:47.055Z</time>
      </trkpt>
      <trkpt lat="41.31061" lon="-1.8166">
        <ele>642.839744</ele>
        <time>2022-08-31T05:56:48.437Z</time>
      </trkpt>
      <trkpt lat="41.31077" lon="-1.81698">
        <ele>645.424104</ele>
        <time>2022-08-31T05:57:07.932Z</time>
      </trkpt>
      <trkpt lat="41.31127" lon="-1.81743">
        <ele>650.174309</ele>
        <time>2022-08-31T05:57:41.466Z</time>
      </trkpt>
      <trkpt lat="41.31133" lon="-1.8177">
        <ele>651.699685</ele>
        <time>2022-08-31T05:57:54.027Z</time>
      </trkpt>
      <trkpt lat="41.31177" lon="-1.81853">
        <ele>655.96475</ele>
        <time>2022-08-31T05:58:33.476Z</time>
      </trkpt>
      <trkpt lat="41.31189" lon="-1.81867">
        <ele>656.833419</ele>
        <time>2022-08-31T05:58:41.596Z</time>
      </trkpt>
      <trkpt lat="41.31222" lon="-1.81894">
        <ele>658.965654</ele>
        <time>2022-08-31T05:59:00.491Z</time>
      </trkpt>
      <trkpt lat="41.31248" lon="-1.81959">
        <ele>661.958964</ele>
        <time>2022-08-31T05:59:26.879Z</time>
      </trkpt>
      <trkpt lat="41.31259" lon="-1.81969">
        <ele>662.595336</ele>
        <time>2022-08-31T05:59:35.078Z</time>
      </trkpt>
      <trkpt lat="41.3131" lon="-1.8199">
        <ele>665.136295</ele>
        <time>2022-08-31T05:59:58.894Z</time>
      </trkpt>
      <trkpt lat="41.31363" lon="-1.82013">
        <ele>667.789376</ele>
        <time>2022-08-31T06:00:29.361Z</time>
      </trkpt>
      <trkpt lat="41.3141" lon="-1.82066">
        <ele>669.919414</ele>
        <time>2022-08-31T06:00:53.899Z</time>
      </trkpt>
      <trkpt lat="41.31431" lon="-1.82085">
        <ele>669.799501</ele>
        <time>2022-08-31T06:01:02.897Z</time>
      </trkpt>
      <trkpt lat="41.31448" lon="-1.82092">
        <ele>669.717585</ele>
        <time>2022-08-31T06:01:11.142Z</time>
      </trkpt>
      <trkpt lat="41.31469" lon="-1.82116">
        <ele>669.590862</ele>
        <time>2022-08-31T06:01:22.348Z</time>
      </trkpt>
      <trkpt lat="41.31483" lon="-1.82157">
        <ele>669.435379</ele>
        <time>2022-08-31T06:01:34.147Z</time>
      </trkpt>
      <trkpt lat="41.31518" lon="-1.82229">
        <ele>668.699148</ele>
        <time>2022-08-31T06:01:53.542Z</time>
      </trkpt>
      <trkpt lat="41.31576" lon="-1.82273">
        <ele>662.289868</ele>
        <time>2022-08-31T06:02:11.693Z</time>
      </trkpt>
      <trkpt lat="41.31613" lon="-1.82288">
        <ele>658.671289</ele>
        <time>2022-08-31T06:02:21.542Z</time>
      </trkpt>
      <trkpt lat="41.31623" lon="-1.82304">
        <ele>657.118264</ele>
        <time>2022-08-31T06:02:25.616Z</time>
      </trkpt>
      <trkpt lat="41.31684" lon="-1.82463">
        <ele>641.673983</ele>
        <time>2022-08-31T06:02:58.386Z</time>
      </trkpt>
      <trkpt lat="41.31683" lon="-1.82545">
        <ele>633.645653</ele>
        <time>2022-08-31T06:03:13.688Z</time>
      </trkpt>
      <trkpt lat="41.31675" lon="-1.82568">
        <ele>631.160214</ele>
        <time>2022-08-31T06:03:18.364Z</time>
      </trkpt>
      <trkpt lat="41.31628" lon="-1.82579">
        <ele>626.778364</ele>
        <time>2022-08-31T06:03:30.364Z</time>
      </trkpt>
      <trkpt lat="41.31629" lon="-1.82593">
        <ele>626.044275</ele>
        <time>2022-08-31T06:03:33.111Z</time>
      </trkpt>
      <trkpt lat="41.3166" lon="-1.82608">
        <ele>623.708572</ele>
        <time>2022-08-31T06:03:41.858Z</time>
      </trkpt>
      <trkpt lat="41.31664" lon="-1.82638">
        <ele>622.123259</ele>
        <time>2022-08-31T06:03:47.841Z</time>
      </trkpt>
      <trkpt lat="41.31653" lon="-1.82661">
        <ele>620.692656</ele>
        <time>2022-08-31T06:03:53.573Z</time>
      </trkpt>
      <trkpt lat="41.31666" lon="-1.8274">
        <ele>616.480366</ele>
        <time>2022-08-31T06:04:12.068Z</time>
      </trkpt>
      <trkpt lat="41.31597" lon="-1.82751">
        <ele>616.738121</ele>
        <time>2022-08-31T06:04:25.318Z</time>
      </trkpt>
      <trkpt lat="41.31577" lon="-1.82761">
        <ele>616.905844</ele>
        <time>2022-08-31T06:04:31.354Z</time>
      </trkpt>
      <trkpt lat="41.3156" lon="-1.82788">
        <ele>617.104699</ele>
        <time>2022-08-31T06:04:39.968Z</time>
      </trkpt>
      <trkpt lat="41.31554" lon="-1.8281">
        <ele>617.23995</ele>
        <time>2022-08-31T06:04:45.948Z</time>
      </trkpt>
      <trkpt lat="41.31562" lon="-1.82852">
        <ele>617.48852</ele>
        <time>2022-08-31T06:04:57.698Z</time>
      </trkpt>
      <trkpt lat="41.31584" lon="-1.82876">
        <ele>617.989011</ele>
        <time>2022-08-31T06:05:08.925Z</time>
      </trkpt>
      <trkpt lat="41.31682" lon="-1.82916">
        <ele>621.126422</ele>
        <time>2022-08-31T06:05:50.693Z</time>
      </trkpt>
      <trkpt lat="41.31711" lon="-1.82941">
        <ele>622.180399</ele>
        <time>2022-08-31T06:06:04.058Z</time>
      </trkpt>
      <trkpt lat="41.31783" lon="-1.83039">
        <ele>623.51149</ele>
        <time>2022-08-31T06:06:35.463Z</time>
      </trkpt>
      <trkpt lat="41.31889" lon="-1.83209">
        <ele>624.166864</ele>
        <time>2022-08-31T06:07:10.736Z</time>
      </trkpt>
      <trkpt lat="41.31901" lon="-1.83232">
        <ele>624.182334</ele>
        <time>2022-08-31T06:07:15.272Z</time>
      </trkpt>
      <trkpt lat="41.31926" lon="-1.83283">
        <ele>624.216642</ele>
        <time>2022-08-31T06:07:25.435Z</time>
      </trkpt>
      <trkpt lat="41.31941" lon="-1.83326">
        <ele>624.24347</ele>
        <time>2022-08-31T06:07:34.195Z</time>
      </trkpt>
      <trkpt lat="41.31951" lon="-1.8338">
        <ele>624.391852</ele>
        <time>2022-08-31T06:07:45.039Z</time>
      </trkpt>
      <trkpt lat="41.31951" lon="-1.83447">
        <ele>624.685017</ele>
        <time>2022-08-31T06:07:59.045Z</time>
      </trkpt>
      <trkpt lat="41.31947" lon="-1.8349">
        <ele>624.873248</ele>
        <time>2022-08-31T06:08:06.976Z</time>
      </trkpt>
      <trkpt lat="41.31937" lon="-1.83531">
        <ele>625.060429</ele>
        <time>2022-08-31T06:08:14.581Z</time>
      </trkpt>
      <trkpt lat="41.31889" lon="-1.83659">
        <ele>625.546768</ele>
        <time>2022-08-31T06:08:40.752Z</time>
      </trkpt>
      <trkpt lat="41.318" lon="-1.83861">
        <ele>625.885177</ele>
        <time>2022-08-31T06:09:23.147Z</time>
      </trkpt>
      <trkpt lat="41.31633" lon="-1.84098">
        <ele>626.010353</ele>
        <time>2022-08-31T06:10:14.774Z</time>
      </trkpt>
      <trkpt lat="41.31503" lon="-1.84212">
        <ele>628.081629</ele>
        <time>2022-08-31T06:11:01.780Z</time>
      </trkpt>
      <trkpt lat="41.31473" lon="-1.84236">
        <ele>628.745002</ele>
        <time>2022-08-31T06:11:14.409Z</time>
      </trkpt>
      <trkpt lat="41.31429" lon="-1.84251">
        <ele>629.60317</ele>
        <time>2022-08-31T06:11:30.172Z</time>
      </trkpt>
      <trkpt lat="41.31343" lon="-1.84266">
        <ele>630.716296</ele>
        <time>2022-08-31T06:11:57.285Z</time>
      </trkpt>
      <trkpt lat="41.31229" lon="-1.84232">
        <ele>632.06851</ele>
        <time>2022-08-31T06:12:26.790Z</time>
      </trkpt>
      <trkpt lat="41.31192" lon="-1.84251">
        <ele>632.361487</ele>
        <time>2022-08-31T06:12:36.132Z</time>
      </trkpt>
      <trkpt lat="41.31187" lon="-1.84299">
        <ele>632.633561</ele>
        <time>2022-08-31T06:12:44.772Z</time>
      </trkpt>
      <trkpt lat="41.31204" lon="-1.84356">
        <ele>632.974336</ele>
        <time>2022-08-31T06:12:56.364Z</time>
      </trkpt>
      <trkpt lat="41.31209" lon="-1.84411">
        <ele>633.44717</ele>
        <time>2022-08-31T06:13:07.854Z</time>
      </trkpt>
      <trkpt lat="41.31209" lon="-1.84646">
        <ele>637.86192</ele>
        <time>2022-08-31T06:14:09.019Z</time>
      </trkpt>
      <trkpt lat="41.31223" lon="-1.84691">
        <ele>639.493851</ele>
        <time>2022-08-31T06:14:24.851Z</time>
      </trkpt>
      <trkpt lat="41.31261" lon="-1.84731">
        <ele>641.637662</ele>
        <time>2022-08-31T06:14:47.670Z</time>
      </trkpt>
      <trkpt lat="41.31434" lon="-1.84809">
        <ele>648.266585</ele>
        <time>2022-08-31T06:16:11.820Z</time>
      </trkpt>
      <trkpt lat="41.31499" lon="-1.84871">
        <ele>650.597251</ele>
        <time>2022-08-31T06:16:36.491Z</time>
      </trkpt>
      <trkpt lat="41.3156" lon="-1.84965">
        <ele>649.544651</ele>
        <time>2022-08-31T06:16:54.884Z</time>
      </trkpt>
      <trkpt lat="41.3158" lon="-1.85012">
        <ele>648.961801</ele>
        <time>2022-08-31T06:17:02.070Z</time>
      </trkpt>
      <trkpt lat="41.31592" lon="-1.85089">
        <ele>648.264132</ele>
        <time>2022-08-31T06:17:12.331Z</time>
      </trkpt>
      <trkpt lat="41.31592" lon="-1.85142">
        <ele>648.518321</ele>
        <time>2022-08-31T06:17:19.882Z</time>
      </trkpt>
      <trkpt lat="41.31567" lon="-1.85237">
        <ele>649.00243</ele>
        <time>2022-08-31T06:17:39.188Z</time>
      </trkpt>
      <trkpt lat="41.3157" lon="-1.85317">
        <ele>649.446143</ele>
        <time>2022-08-31T06:18:00.218Z</time>
      </trkpt>
      <trkpt lat="41.3157" lon="-1.85336">
        <ele>649.873465</ele>
        <time>2022-08-31T06:18:05.780Z</time>
      </trkpt>
      <trkpt lat="41.31574" lon="-1.85377">
        <ele>650.825125</ele>
        <time>2022-08-31T06:18:18.736Z</time>
      </trkpt>
      <trkpt lat="41.3158" lon="-1.8539">
        <ele>651.18478</ele>
        <time>2022-08-31T06:18:24.354Z</time>
      </trkpt>
      <trkpt lat="41.31602" lon="-1.85409">
        <ele>651.97472</ele>
        <time>2022-08-31T06:18:35.887Z</time>
      </trkpt>
      <trkpt lat="41.31696" lon="-1.85436">
        <ele>654.852059</ele>
        <time>2022-08-31T06:19:12.440Z</time>
      </trkpt>
      <trkpt lat="41.31738" lon="-1.85455">
        <ele>654.409363</ele>
        <time>2022-08-31T06:19:23.731Z</time>
      </trkpt>
      <trkpt lat="41.31788" lon="-1.85502">
        <ele>653.806731</ele>
        <time>2022-08-31T06:19:35.639Z</time>
      </trkpt>
      <trkpt lat="41.318" lon="-1.85515">
        <ele>653.656072</ele>
        <time>2022-08-31T06:19:38.463Z</time>
      </trkpt>
      <trkpt lat="41.31877" lon="-1.85607">
        <ele>652.094973</ele>
        <time>2022-08-31T06:19:56.249Z</time>
      </trkpt>
      <trkpt lat="41.31953" lon="-1.85742">
        <ele>649.334186</ele>
        <time>2022-08-31T06:20:19.453Z</time>
      </trkpt>
      <trkpt lat="41.31967" lon="-1.85802">
        <ele>648.887797</ele>
        <time>2022-08-31T06:20:28.632Z</time>
      </trkpt>
      <trkpt lat="41.31962" lon="-1.85858">
        <ele>648.578929</ele>
        <time>2022-08-31T06:20:37.060Z</time>
      </trkpt>
      <trkpt lat="41.31901" lon="-1.86005">
        <ele>647.987177</ele>
        <time>2022-08-31T06:21:04.098Z</time>
      </trkpt>
      <trkpt lat="41.31882" lon="-1.86037">
        <ele>648.119677</ele>
        <time>2022-08-31T06:21:11.428Z</time>
      </trkpt>
      <trkpt lat="41.31785" lon="-1.86168">
        <ele>649.021691</ele>
        <time>2022-08-31T06:21:45.660Z</time>
      </trkpt>
      <trkpt lat="41.31763" lon="-1.86207">
        <ele>649.802294</ele>
        <time>2022-08-31T06:21:57.361Z</time>
      </trkpt>
      <trkpt lat="41.31689" lon="-1.8625">
        <ele>651.496923</ele>
        <time>2022-08-31T06:22:27.290Z</time>
      </trkpt>
      <trkpt lat="41.3168" lon="-1.86275">
        <ele>651.939807</ele>
        <time>2022-08-31T06:22:35.341Z</time>
      </trkpt>
      <trkpt lat="41.31687" lon="-1.86299">
        <ele>652.352094</ele>
        <time>2022-08-31T06:22:41.899Z</time>
      </trkpt>
      <trkpt lat="41.31707" lon="-1.86314">
        <ele>652.662507</ele>
        <time>2022-08-31T06:22:50.134Z</time>
      </trkpt>
      <trkpt lat="41.31744" lon="-1.8633">
        <ele>653.101149</ele>
        <time>2022-08-31T06:23:01.695Z</time>
      </trkpt>
      <trkpt lat="41.31772" lon="-1.8636">
        <ele>653.506905</ele>
        <time>2022-08-31T06:23:12.399Z</time>
      </trkpt>
      <trkpt lat="41.31803" lon="-1.86461">
        <ele>654.432226</ele>
        <time>2022-08-31T06:23:34.512Z</time>
      </trkpt>
      <trkpt lat="41.31807" lon="-1.86491">
        <ele>654.365122</ele>
        <time>2022-08-31T06:23:39.506Z</time>
      </trkpt>
      <trkpt lat="41.31794" lon="-1.86641">
        <ele>653.462769</ele>
        <time>2022-08-31T06:24:01.404Z</time>
      </trkpt>
      <trkpt lat="41.31772" lon="-1.86726">
        <ele>652.964393</ele>
        <time>2022-08-31T06:24:15.381Z</time>
      </trkpt>
      <trkpt lat="41.31759" lon="-1.86754">
        <ele>652.816529</ele>
        <time>2022-08-31T06:24:20.629Z</time>
      </trkpt>
      <trkpt lat="41.31721" lon="-1.86793">
        <ele>652.534604</ele>
        <time>2022-08-31T06:24:30.606Z</time>
      </trkpt>
      <trkpt lat="41.31528" lon="-1.8684">
        <ele>651.766571</ele>
        <time>2022-08-31T06:25:10.966Z</time>
      </trkpt>
      <trkpt lat="41.31464" lon="-1.86886">
        <ele>651.601201</ele>
        <time>2022-08-31T06:25:27.711Z</time>
      </trkpt>
      <trkpt lat="41.31371" lon="-1.87091">
        <ele>653.287601</ele>
        <time>2022-08-31T06:26:16.364Z</time>
      </trkpt>
      <trkpt lat="41.31305" lon="-1.87334">
        <ele>655.580533</ele>
        <time>2022-08-31T06:27:13.259Z</time>
      </trkpt>
      <trkpt lat="41.31272" lon="-1.87307">
        <ele>655.586772</ele>
        <time>2022-08-31T06:27:28.453Z</time>
      </trkpt>
      <trkpt lat="41.31268" lon="-1.87304">
        <ele>655.58747</ele>
        <time>2022-08-31T06:27:30.083Z</time>
      </trkpt>
      <trkpt lat="41.31261" lon="-1.87298">
        <ele>655.588693</ele>
        <time>2022-08-31T06:27:33.678Z</time>
      </trkpt>
      <trkpt lat="41.31252" lon="-1.87291">
        <ele>655.590415</ele>
        <time>2022-08-31T06:27:38.945Z</time>
      </trkpt>
      <trkpt lat="41.3124" lon="-1.87306">
        <ele>655.593077</ele>
        <time>2022-08-31T06:27:44.216Z</time>
      </trkpt>
      <trkpt lat="41.31214" lon="-1.87386">
        <ele>655.60355</ele>
        <time>2022-08-31T06:28:07.884Z</time>
      </trkpt>
      <trkpt lat="41.31173" lon="-1.87448">
        <ele>655.217105</ele>
        <time>2022-08-31T06:28:30.356Z</time>
      </trkpt>
      <trkpt lat="41.31135" lon="-1.87498">
        <ele>654.707613</ele>
        <time>2022-08-31T06:28:47.348Z</time>
      </trkpt>
      <trkpt lat="41.31058" lon="-1.87564">
        <ele>653.930524</ele>
        <time>2022-08-31T06:29:19.147Z</time>
      </trkpt>
      <trkpt lat="41.3102" lon="-1.87585">
        <ele>654.250913</ele>
        <time>2022-08-31T06:29:35.011Z</time>
      </trkpt>
      <trkpt lat="41.30995" lon="-1.87535">
        <ele>654.599986</ele>
        <time>2022-08-31T06:29:54.167Z</time>
      </trkpt>
      <trkpt lat="41.3097" lon="-1.8753">
        <ele>654.80009</ele>
        <time>2022-08-31T06:30:05.420Z</time>
      </trkpt>
      <trkpt lat="41.30867" lon="-1.87565">
        <ele>655.525781</ele>
        <time>2022-08-31T06:30:52.195Z</time>
      </trkpt>
      <trkpt lat="41.30807" lon="-1.87558">
        <ele>655.853206</ele>
        <time>2022-08-31T06:31:16.073Z</time>
      </trkpt>
      <trkpt lat="41.308" lon="-1.87561">
        <ele>655.894123</ele>
        <time>2022-08-31T06:31:19.154Z</time>
      </trkpt>
      <trkpt lat="41.30781" lon="-1.87601">
        <ele>656.088637</ele>
        <time>2022-08-31T06:31:32.708Z</time>
      </trkpt>
      <trkpt lat="41.30765" lon="-1.87615">
        <ele>656.191108</ele>
        <time>2022-08-31T06:31:39.583Z</time>
      </trkpt>
      <trkpt lat="41.30742" lon="-1.87624">
        <ele>656.20236</ele>
        <time>2022-08-31T06:31:48.649Z</time>
      </trkpt>
      <trkpt lat="41.30711" lon="-1.8762">
        <ele>656.024646</ele>
        <time>2022-08-31T06:31:59.672Z</time>
      </trkpt>
      <trkpt lat="41.30696" lon="-1.87603">
        <ele>655.909581</ele>
        <time>2022-08-31T06:32:06.706Z</time>
      </trkpt>
      <trkpt lat="41.30601" lon="-1.87451">
        <ele>655.039229</ele>
        <time>2022-08-31T06:32:58.644Z</time>
      </trkpt>
      <trkpt lat="41.30589" lon="-1.8744">
        <ele>654.945153</ele>
        <time>2022-08-31T06:33:03.943Z</time>
      </trkpt>
      <trkpt lat="41.30572" lon="-1.8743">
        <ele>654.82578</ele>
        <time>2022-08-31T06:33:10.524Z</time>
      </trkpt>
      <trkpt lat="41.30551" lon="-1.8743">
        <ele>654.692224</ele>
        <time>2022-08-31T06:33:17.958Z</time>
      </trkpt>
      <trkpt lat="41.30491" lon="-1.87449">
        <ele>654.299972</ele>
        <time>2022-08-31T06:33:39.734Z</time>
      </trkpt>
      <trkpt lat="41.30477" lon="-1.87439">
        <ele>654.200509</ele>
        <time>2022-08-31T06:33:45.282Z</time>
      </trkpt>
      <trkpt lat="41.30452" lon="-1.87403">
        <ele>654.020274</ele>
        <time>2022-08-31T06:33:58.445Z</time>
      </trkpt>
      <trkpt lat="41.30414" lon="-1.87394">
        <ele>653.884528</ele>
        <time>2022-08-31T06:34:12.366Z</time>
      </trkpt>
      <trkpt lat="41.30374" lon="-1.87398">
        <ele>653.746357</ele>
        <time>2022-08-31T06:34:26.578Z</time>
      </trkpt>
      <trkpt lat="41.30354" lon="-1.87447">
        <ele>653.601003</ele>
        <time>2022-08-31T06:34:41.685Z</time>
      </trkpt>
      <trkpt lat="41.30321" lon="-1.87511">
        <ele>653.448518</ele>
        <time>2022-08-31T06:35:03.307Z</time>
      </trkpt>
      <trkpt lat="41.30317" lon="-1.87524">
        <ele>653.44147</ele>
        <time>2022-08-31T06:35:07.239Z</time>
      </trkpt>
      <trkpt lat="41.30314" lon="-1.87607">
        <ele>653.399917</ele>
        <time>2022-08-31T06:35:30.371Z</time>
      </trkpt>
      <trkpt lat="41.30263" lon="-1.8774">
        <ele>653.408908</ele>
        <time>2022-08-31T06:36:11.547Z</time>
      </trkpt>
      <trkpt lat="41.30252" lon="-1.87756">
        <ele>653.456206</ele>
        <time>2022-08-31T06:36:17.833Z</time>
      </trkpt>
      <trkpt lat="41.30232" lon="-1.87765">
        <ele>653.515704</ele>
        <time>2022-08-31T06:36:25.430Z</time>
      </trkpt>
      <trkpt lat="41.3015" lon="-1.8778">
        <ele>653.756848</ele>
        <time>2022-08-31T06:36:58.116Z</time>
      </trkpt>
      <trkpt lat="41.30137" lon="-1.87786">
        <ele>653.795564</ele>
        <time>2022-08-31T06:37:03.280Z</time>
      </trkpt>
      <trkpt lat="41.30076" lon="-1.8786">
        <ele>654.309797</ele>
        <time>2022-08-31T06:37:36.552Z</time>
      </trkpt>
      <trkpt lat="41.30066" lon="-1.8788">
        <ele>654.444766</ele>
        <time>2022-08-31T06:37:44.142Z</time>
      </trkpt>
      <trkpt lat="41.29984" lon="-1.87975">
        <ele>655.244079</ele>
        <time>2022-08-31T06:38:28.912Z</time>
      </trkpt>
      <trkpt lat="41.29891" lon="-1.88065">
        <ele>655.997906</ele>
        <time>2022-08-31T06:39:15.091Z</time>
      </trkpt>
      <trkpt lat="41.29864" lon="-1.881">
        <ele>656.241729</ele>
        <time>2022-08-31T06:39:30.167Z</time>
      </trkpt>
      <trkpt lat="41.29858" lon="-1.88127">
        <ele>656.38069</ele>
        <time>2022-08-31T06:39:38.698Z</time>
      </trkpt>
      <trkpt lat="41.2986" lon="-1.88148">
        <ele>656.508742</ele>
        <time>2022-08-31T06:39:44.960Z</time>
      </trkpt>
      <trkpt lat="41.29877" lon="-1.88254">
        <ele>657.18737</ele>
        <time>2022-08-31T06:40:18.167Z</time>
      </trkpt>
      <trkpt lat="41.29859" lon="-1.88328">
        <ele>657.666292</ele>
        <time>2022-08-31T06:40:41.555Z</time>
      </trkpt>
      <trkpt lat="41.29577" lon="-1.89418">
        <ele>673.141914</ele>
        <time>2022-08-31T06:45:08.307Z</time>
      </trkpt>
      <trkpt lat="41.29555" lon="-1.89423">
        <ele>673.926452</ele>
        <time>2022-08-31T06:45:21.915Z</time>
      </trkpt>
      <trkpt lat="41.2953" lon="-1.8945">
        <ele>675.084753</ele>
        <time>2022-08-31T06:45:42.213Z</time>
      </trkpt>
      <trkpt lat="41.29525" lon="-1.89443">
        <ele>675.410495</ele>
        <time>2022-08-31T06:45:47.004Z</time>
      </trkpt>
      <trkpt lat="41.29506" lon="-1.89419">
        <ele>676.55002</ele>
        <time>2022-08-31T06:46:03.710Z</time>
      </trkpt>
      <trkpt lat="41.29488" lon="-1.89451">
        <ele>677.851425</ele>
        <time>2022-08-31T06:46:19.718Z</time>
      </trkpt>
      <trkpt lat="41.29468" lon="-1.89502">
        <ele>679.734818</ele>
        <time>2022-08-31T06:46:39.139Z</time>
      </trkpt>
      <trkpt lat="41.2946" lon="-1.89544">
        <ele>681.144427</ele>
        <time>2022-08-31T06:46:53.545Z</time>
      </trkpt>
      <trkpt lat="41.29443" lon="-1.89585">
        <ele>682.660695</ele>
        <time>2022-08-31T06:47:07.300Z</time>
      </trkpt>
      <trkpt lat="41.29446" lon="-1.89646">
        <ele>682.025565</ele>
        <time>2022-08-31T06:47:15.938Z</time>
      </trkpt>
      <trkpt lat="41.29458" lon="-1.89699">
        <ele>681.04022</ele>
        <time>2022-08-31T06:47:23.178Z</time>
      </trkpt>
      <trkpt lat="41.2945" lon="-1.8972">
        <ele>680.626117</ele>
        <time>2022-08-31T06:47:26.542Z</time>
      </trkpt>
      <trkpt lat="41.29428" lon="-1.89726">
        <ele>680.094628</ele>
        <time>2022-08-31T06:47:30.098Z</time>
      </trkpt>
      <trkpt lat="41.29414" lon="-1.89723">
        <ele>679.75943</ele>
        <time>2022-08-31T06:47:32.662Z</time>
      </trkpt>
      <trkpt lat="41.29341" lon="-1.89712">
        <ele>677.827607</ele>
        <time>2022-08-31T06:47:44.718Z</time>
      </trkpt>
      <trkpt lat="41.29327" lon="-1.8971">
        <ele>677.409681</ele>
        <time>2022-08-31T06:47:47.007Z</time>
      </trkpt>
      <trkpt lat="41.29291" lon="-1.89697">
        <ele>676.302318</ele>
        <time>2022-08-31T06:47:53.731Z</time>
      </trkpt>
      <trkpt lat="41.2928" lon="-1.89702">
        <ele>675.952531</ele>
        <time>2022-08-31T06:47:55.815Z</time>
      </trkpt>
      <trkpt lat="41.29271" lon="-1.89748">
        <ele>674.868041</ele>
        <time>2022-08-31T06:48:02.104Z</time>
      </trkpt>
      <trkpt lat="41.2925" lon="-1.8982">
        <ele>673.21814</ele>
        <time>2022-08-31T06:48:12.104Z</time>
      </trkpt>
      <trkpt lat="41.29233" lon="-1.89877">
        <ele>672.581042</ele>
        <time>2022-08-31T06:48:20.335Z</time>
      </trkpt>
      <trkpt lat="41.29248" lon="-1.89954">
        <ele>671.739919</ele>
        <time>2022-08-31T06:48:32.104Z</time>
      </trkpt>
      <trkpt lat="41.29234" lon="-1.90093">
        <ele>670.699788</ele>
        <time>2022-08-31T06:48:53.744Z</time>
      </trkpt>
      <trkpt lat="41.29231" lon="-1.90123">
        <ele>670.647549</ele>
        <time>2022-08-31T06:48:58.489Z</time>
      </trkpt>
      <trkpt lat="41.29247" lon="-1.90246">
        <ele>670.434971</ele>
        <time>2022-08-31T06:49:20.060Z</time>
      </trkpt>
      <trkpt lat="41.29258" lon="-1.90279">
        <ele>670.372177</ele>
        <time>2022-08-31T06:49:26.233Z</time>
      </trkpt>
      <trkpt lat="41.29285" lon="-1.90333">
        <ele>670.248567</ele>
        <time>2022-08-31T06:49:36.152Z</time>
      </trkpt>
      <trkpt lat="41.29291" lon="-1.90442">
        <ele>670.039148</ele>
        <time>2022-08-31T06:49:54.104Z</time>
      </trkpt>
      <trkpt lat="41.29297" lon="-1.90467">
        <ele>669.988717</ele>
        <time>2022-08-31T06:50:01.002Z</time>
      </trkpt>
      <trkpt lat="41.29328" lon="-1.9052">
        <ele>669.752042</ele>
        <time>2022-08-31T06:50:19.823Z</time>
      </trkpt>
      <trkpt lat="41.29334" lon="-1.90578">
        <ele>669.423942</ele>
        <time>2022-08-31T06:50:35.647Z</time>
      </trkpt>
      <trkpt lat="41.29356" lon="-1.90632">
        <ele>669.080025</ele>
        <time>2022-08-31T06:50:51.233Z</time>
      </trkpt>
      <trkpt lat="41.29359" lon="-1.90647">
        <ele>668.994159</ele>
        <time>2022-08-31T06:50:55.098Z</time>
      </trkpt>
      <trkpt lat="41.29353" lon="-1.90709">
        <ele>668.639455</ele>
        <time>2022-08-31T06:51:11.565Z</time>
      </trkpt>
      <trkpt lat="41.29365" lon="-1.9073">
        <ele>668.528666</ele>
        <time>2022-08-31T06:51:18.389Z</time>
      </trkpt>
      <trkpt lat="41.29395" lon="-1.90762">
        <ele>668.366767</ele>
        <time>2022-08-31T06:51:31.752Z</time>
      </trkpt>
      <trkpt lat="41.29393" lon="-1.90822">
        <ele>668.175844</ele>
        <time>2022-08-31T06:51:48.022Z</time>
      </trkpt>
      <trkpt lat="41.29406" lon="-1.90844">
        <ele>668.087952</ele>
        <time>2022-08-31T06:51:55.570Z</time>
      </trkpt>
      <trkpt lat="41.29454" lon="-1.90879">
        <ele>667.860137</ele>
        <time>2022-08-31T06:52:15.713Z</time>
      </trkpt>
      <trkpt lat="41.29462" lon="-1.90892">
        <ele>667.824472</ele>
        <time>2022-08-31T06:52:20.471Z</time>
      </trkpt>
      <trkpt lat="41.2947" lon="-1.90925">
        <ele>667.85638</ele>
        <time>2022-08-31T06:52:30.425Z</time>
      </trkpt>
      <trkpt lat="41.29486" lon="-1.91048">
        <ele>667.973176</ele>
        <time>2022-08-31T06:53:05.984Z</time>
      </trkpt>
      <trkpt lat="41.29491" lon="-1.91138">
        <ele>668.001827</ele>
        <time>2022-08-31T06:53:32.354Z</time>
      </trkpt>
      <trkpt lat="41.29549" lon="-1.91746">
        <ele>666.788654</ele>
        <time>2022-08-31T06:56:17.507Z</time>
      </trkpt>
      <trkpt lat="41.29534" lon="-1.91848">
        <ele>666.962226</ele>
        <time>2022-08-31T06:56:49.305Z</time>
      </trkpt>
      <trkpt lat="41.29556" lon="-1.91979">
        <ele>668.132675</ele>
        <time>2022-08-31T06:57:33.887Z</time>
      </trkpt>
      <trkpt lat="41.29556" lon="-1.92004">
        <ele>668.348076</ele>
        <time>2022-08-31T06:57:42.136Z</time>
      </trkpt>
      <trkpt lat="41.29527" lon="-1.92057">
        <ele>668.916864</ele>
        <time>2022-08-31T06:58:02.973Z</time>
      </trkpt>
      <trkpt lat="41.29511" lon="-1.92101">
        <ele>669.122025</ele>
        <time>2022-08-31T06:58:17.899Z</time>
      </trkpt>
      <trkpt lat="41.29515" lon="-1.92116">
        <ele>669.185973</ele>
        <time>2022-08-31T06:58:22.710Z</time>
      </trkpt>
      <trkpt lat="41.29536" lon="-1.92158">
        <ele>669.396553</ele>
        <time>2022-08-31T06:58:37.769Z</time>
      </trkpt>
      <trkpt lat="41.29578" lon="-1.9217">
        <ele>669.628799</ele>
        <time>2022-08-31T06:58:54.297Z</time>
      </trkpt>
      <trkpt lat="41.29583" lon="-1.92187">
        <ele>669.70267</ele>
        <time>2022-08-31T06:58:59.621Z</time>
      </trkpt>
      <trkpt lat="41.29587" lon="-1.92299">
        <ele>670.153204</ele>
        <time>2022-08-31T06:59:32.484Z</time>
      </trkpt>
      <trkpt lat="41.29584" lon="-1.92319">
        <ele>670.231976</ele>
        <time>2022-08-31T06:59:38.315Z</time>
      </trkpt>
      <trkpt lat="41.29552" lon="-1.92369">
        <ele>670.487396</ele>
        <time>2022-08-31T06:59:56.734Z</time>
      </trkpt>
      <trkpt lat="41.29548" lon="-1.92395">
        <ele>670.592795</ele>
        <time>2022-08-31T07:00:05.374Z</time>
      </trkpt>
      <trkpt lat="41.29555" lon="-1.92425">
        <ele>670.712015</ele>
        <time>2022-08-31T07:00:14.414Z</time>
      </trkpt>
      <trkpt lat="41.29563" lon="-1.92438">
        <ele>670.779313</ele>
        <time>2022-08-31T07:00:20.063Z</time>
      </trkpt>
      <trkpt lat="41.29561" lon="-1.92495">
        <ele>671.223946</ele>
        <time>2022-08-31T07:00:38.259Z</time>
      </trkpt>
      <trkpt lat="41.29565" lon="-1.92506">
        <ele>671.341218</ele>
        <time>2022-08-31T07:00:41.665Z</time>
      </trkpt>
      <trkpt lat="41.29582" lon="-1.92544">
        <ele>671.763598</ele>
        <time>2022-08-31T07:00:56.430Z</time>
      </trkpt>
      <trkpt lat="41.29581" lon="-1.92676">
        <ele>673.020592</ele>
        <time>2022-08-31T07:01:40.297Z</time>
      </trkpt>
      <trkpt lat="41.29563" lon="-1.92709">
        <ele>673.227451</ele>
        <time>2022-08-31T07:01:53.619Z</time>
      </trkpt>
      <trkpt lat="41.29548" lon="-1.92724">
        <ele>673.306042</ele>
        <time>2022-08-31T07:02:01.956Z</time>
      </trkpt>
      <trkpt lat="41.29542" lon="-1.92747">
        <ele>673.385872</ele>
        <time>2022-08-31T07:02:09.976Z</time>
      </trkpt>
      <trkpt lat="41.29501" lon="-1.92821">
        <ele>673.672498</ele>
        <time>2022-08-31T07:02:36.907Z</time>
      </trkpt>
      <trkpt lat="41.29491" lon="-1.92854">
        <ele>673.786821</ele>
        <time>2022-08-31T07:02:47.075Z</time>
      </trkpt>
      <trkpt lat="41.29459" lon="-1.92989">
        <ele>673.231745</ele>
        <time>2022-08-31T07:03:23.484Z</time>
      </trkpt>
      <trkpt lat="41.29452" lon="-1.93034">
        <ele>672.945208</ele>
        <time>2022-08-31T07:03:35.264Z</time>
      </trkpt>
      <trkpt lat="41.29449" lon="-1.93136">
        <ele>672.517319</ele>
        <time>2022-08-31T07:04:01.825Z</time>
      </trkpt>
      <trkpt lat="41.29456" lon="-1.93291">
        <ele>673.441612</ele>
        <time>2022-08-31T07:04:49.785Z</time>
      </trkpt>
      <trkpt lat="41.29464" lon="-1.93348">
        <ele>673.787672</ele>
        <time>2022-08-31T07:05:09.450Z</time>
      </trkpt>
      <trkpt lat="41.29466" lon="-1.9343">
        <ele>674.633904</ele>
        <time>2022-08-31T07:05:37.303Z</time>
      </trkpt>
      <trkpt lat="41.29464" lon="-1.93643">
        <ele>677.097756</ele>
        <time>2022-08-31T07:06:47.700Z</time>
      </trkpt>
      <trkpt lat="41.29456" lon="-1.9371">
        <ele>678.044208</ele>
        <time>2022-08-31T07:07:11.093Z</time>
      </trkpt>
      <trkpt lat="41.29468" lon="-1.9375">
        <ele>678.639655</ele>
        <time>2022-08-31T07:07:26.320Z</time>
      </trkpt>
      <trkpt lat="41.2947" lon="-1.93791">
        <ele>679.216197</ele>
        <time>2022-08-31T07:07:41.338Z</time>
      </trkpt>
      <trkpt lat="41.29468" lon="-1.93815">
        <ele>679.546881</ele>
        <time>2022-08-31T07:07:49.920Z</time>
      </trkpt>
      <trkpt lat="41.29438" lon="-1.93882">
        <ele>680.853658</ele>
        <time>2022-08-31T07:08:18.075Z</time>
      </trkpt>
      <trkpt lat="41.29434" lon="-1.93906">
        <ele>681.291703</ele>
        <time>2022-08-31T07:08:26.894Z</time>
      </trkpt>
      <trkpt lat="41.29432" lon="-1.93963">
        <ele>682.29052</ele>
        <time>2022-08-31T07:08:47.527Z</time>
      </trkpt>
      <trkpt lat="41.2944" lon="-1.94046">
        <ele>683.77276</ele>
        <time>2022-08-31T07:09:19.213Z</time>
      </trkpt>
      <trkpt lat="41.29423" lon="-1.94115">
        <ele>685.253468</ele>
        <time>2022-08-31T07:09:46.280Z</time>
      </trkpt>
      <trkpt lat="41.29417" lon="-1.9416">
        <ele>686.194309</ele>
        <time>2022-08-31T07:10:03.272Z</time>
      </trkpt>
      <trkpt lat="41.29413" lon="-1.94217">
        <ele>687.409589</ele>
        <time>2022-08-31T07:10:25.494Z</time>
      </trkpt>
      <trkpt lat="41.29383" lon="-1.94365">
        <ele>689.889205</ele>
        <time>2022-08-31T07:11:26.132Z</time>
      </trkpt>
      <trkpt lat="41.29359" lon="-1.94434">
        <ele>690.744606</ele>
        <time>2022-08-31T07:11:52.468Z</time>
      </trkpt>
      <trkpt lat="41.29339" lon="-1.94475">
        <ele>691.299548</ele>
        <time>2022-08-31T07:12:07.654Z</time>
      </trkpt>
      <trkpt lat="41.29321" lon="-1.94496">
        <ele>691.655753</ele>
        <time>2022-08-31T07:12:16.547Z</time>
      </trkpt>
      <trkpt lat="41.2928" lon="-1.94632">
        <ele>690.21625</ele>
        <time>2022-08-31T07:12:53.481Z</time>
      </trkpt>
      <trkpt lat="41.29273" lon="-1.947">
        <ele>689.475207</ele>
        <time>2022-08-31T07:13:09.996Z</time>
      </trkpt>
      <trkpt lat="41.29263" lon="-1.94738">
        <ele>689.140349</ele>
        <time>2022-08-31T07:13:19.950Z</time>
      </trkpt>
      <trkpt lat="41.29254" lon="-1.94753">
        <ele>689.137936</ele>
        <time>2022-08-31T07:13:24.710Z</time>
      </trkpt>
      <trkpt lat="41.29225" lon="-1.94861">
        <ele>689.123836</ele>
        <time>2022-08-31T07:13:54.925Z</time>
      </trkpt>
      <trkpt lat="41.29222" lon="-1.94882">
        <ele>689.121169</ele>
        <time>2022-08-31T07:14:01.030Z</time>
      </trkpt>
      <trkpt lat="41.29233" lon="-1.94924">
        <ele>689.115667</ele>
        <time>2022-08-31T07:14:15.899Z</time>
      </trkpt>
      <trkpt lat="41.2923" lon="-1.9496">
        <ele>689.221314</ele>
        <time>2022-08-31T07:14:29.111Z</time>
      </trkpt>
      <trkpt lat="41.29211" lon="-1.95011">
        <ele>690.143395</ele>
        <time>2022-08-31T07:14:50.228Z</time>
      </trkpt>
      <trkpt lat="41.29208" lon="-1.95067">
        <ele>691.061552</ele>
        <time>2022-08-31T07:15:11.305Z</time>
      </trkpt>
      <trkpt lat="41.29211" lon="-1.95103">
        <ele>691.648564</ele>
        <time>2022-08-31T07:15:24.907Z</time>
      </trkpt>
      <trkpt lat="41.29199" lon="-1.95122">
        <ele>692.057191</ele>
        <time>2022-08-31T07:15:34.229Z</time>
      </trkpt>
      <trkpt lat="41.29206" lon="-1.95169">
        <ele>692.830609</ele>
        <time>2022-08-31T07:15:50.971Z</time>
      </trkpt>
      <trkpt lat="41.29201" lon="-1.95306">
        <ele>693.020235</ele>
        <time>2022-08-31T07:16:35.195Z</time>
      </trkpt>
      <trkpt lat="41.29192" lon="-1.95358">
        <ele>693.025319</ele>
        <time>2022-08-31T07:16:49.387Z</time>
      </trkpt>
      <trkpt lat="41.29141" lon="-1.95463">
        <ele>691.46125</ele>
        <time>2022-08-31T07:17:20.037Z</time>
      </trkpt>
      <trkpt lat="41.29139" lon="-1.95479">
        <ele>691.06704</ele>
        <time>2022-08-31T07:17:23.767Z</time>
      </trkpt>
      <trkpt lat="41.29146" lon="-1.95511">
        <ele>690.270246</ele>
        <time>2022-08-31T07:17:31.218Z</time>
      </trkpt>
      <trkpt lat="41.29184" lon="-1.95635">
        <ele>687.072252</ele>
        <time>2022-08-31T07:18:01.397Z</time>
      </trkpt>
      <trkpt lat="41.292" lon="-1.95673">
        <ele>686.213963</ele>
        <time>2022-08-31T07:18:11.236Z</time>
      </trkpt>
      <trkpt lat="41.29225" lon="-1.95747">
        <ele>684.644507</ele>
        <time>2022-08-31T07:18:29.672Z</time>
      </trkpt>
      <trkpt lat="41.29226" lon="-1.95784">
        <ele>683.933659</ele>
        <time>2022-08-31T07:18:38.524Z</time>
      </trkpt>
      <trkpt lat="41.29217" lon="-1.95826">
        <ele>683.093179</ele>
        <time>2022-08-31T07:18:49.354Z</time>
      </trkpt>
      <trkpt lat="41.29214" lon="-1.95841">
        <ele>682.777015</ele>
        <time>2022-08-31T07:18:53.476Z</time>
      </trkpt>
      <trkpt lat="41.29201" lon="-1.95919">
        <ele>683.010981</ele>
        <time>2022-08-31T07:19:07.846Z</time>
      </trkpt>
      <trkpt lat="41.29174" lon="-1.96033">
        <ele>683.719323</ele>
        <time>2022-08-31T07:19:33.547Z</time>
      </trkpt>
      <trkpt lat="41.29174" lon="-1.96117">
        <ele>684.410556</ele>
        <time>2022-08-31T07:19:53.933Z</time>
      </trkpt>
      <trkpt lat="41.29167" lon="-1.96187">
        <ele>685.2293</ele>
        <time>2022-08-31T07:20:10.963Z</time>
      </trkpt>
      <trkpt lat="41.29163" lon="-1.96241">
        <ele>685.857841</ele>
        <time>2022-08-31T07:20:23.308Z</time>
      </trkpt>
      <trkpt lat="41.29156" lon="-1.9635">
        <ele>687.32946</ele>
        <time>2022-08-31T07:20:47.502Z</time>
      </trkpt>
      <trkpt lat="41.29151" lon="-1.96493">
        <ele>689.956366</ele>
        <time>2022-08-31T07:21:23.045Z</time>
      </trkpt>
      <trkpt lat="41.29145" lon="-1.96507">
        <ele>690.249954</ele>
        <time>2022-08-31T07:21:27.746Z</time>
      </trkpt>
      <trkpt lat="41.2914" lon="-1.96519">
        <ele>690.512213</ele>
        <time>2022-08-31T07:21:31.991Z</time>
      </trkpt>
      <trkpt lat="41.29137" lon="-1.96628">
        <ele>693.569688</ele>
        <time>2022-08-31T07:22:08.088Z</time>
      </trkpt>
      <trkpt lat="41.29149" lon="-1.96668">
        <ele>694.963111</ele>
        <time>2022-08-31T07:22:22.746Z</time>
      </trkpt>
      <trkpt lat="41.29167" lon="-1.9673">
        <ele>697.147897</ele>
        <time>2022-08-31T07:22:45.991Z</time>
      </trkpt>
      <trkpt lat="41.29169" lon="-1.96737">
        <ele>697.420432</ele>
        <time>2022-08-31T07:22:49.006Z</time>
      </trkpt>
      <trkpt lat="41.29189" lon="-1.9679">
        <ele>699.202995</ele>
        <time>2022-08-31T07:23:15.991Z</time>
      </trkpt>
      <trkpt lat="41.29196" lon="-1.96794">
        <ele>699.353017</ele>
        <time>2022-08-31T07:23:20.486Z</time>
      </trkpt>
      <trkpt lat="41.29211" lon="-1.96828">
        <ele>699.965234</ele>
        <time>2022-08-31T07:23:38.836Z</time>
      </trkpt>
      <trkpt lat="41.29221" lon="-1.96874">
        <ele>700.683345</ele>
        <time>2022-08-31T07:23:57.479Z</time>
      </trkpt>
      <trkpt lat="41.29219" lon="-1.96904">
        <ele>701.147818</ele>
        <time>2022-08-31T07:24:08.629Z</time>
      </trkpt>
      <trkpt lat="41.29202" lon="-1.97015">
        <ele>702.514639</ele>
        <time>2022-08-31T07:24:41.381Z</time>
      </trkpt>
      <trkpt lat="41.29192" lon="-1.97057">
        <ele>701.761883</ele>
        <time>2022-08-31T07:24:52.216Z</time>
      </trkpt>
      <trkpt lat="41.29189" lon="-1.97127">
        <ele>700.536877</ele>
        <time>2022-08-31T07:25:09.315Z</time>
      </trkpt>
      <trkpt lat="41.29179" lon="-1.97179">
        <ele>699.601855</ele>
        <time>2022-08-31T07:25:21.614Z</time>
      </trkpt>
      <trkpt lat="41.29158" lon="-1.97287">
        <ele>697.756858</ele>
        <time>2022-08-31T07:25:47.004Z</time>
      </trkpt>
      <trkpt lat="41.29136" lon="-1.97373">
        <ele>696.359973</ele>
        <time>2022-08-31T07:26:08.361Z</time>
      </trkpt>
      <trkpt lat="41.29135" lon="-1.97426">
        <ele>695.559167</ele>
        <time>2022-08-31T07:26:21.930Z</time>
      </trkpt>
      <trkpt lat="41.29125" lon="-1.97531">
        <ele>695.340986</ele>
        <time>2022-08-31T07:26:51.581Z</time>
      </trkpt>
      <trkpt lat="41.29125" lon="-1.97591">
        <ele>695.814131</ele>
        <time>2022-08-31T07:27:10.683Z</time>
      </trkpt>
      <trkpt lat="41.29129" lon="-1.97653">
        <ele>696.30258</ele>
        <time>2022-08-31T07:27:31.341Z</time>
      </trkpt>
      <trkpt lat="41.29122" lon="-1.97734">
        <ele>697.274564</ele>
        <time>2022-08-31T07:27:59.461Z</time>
      </trkpt>
      <trkpt lat="41.29117" lon="-1.97763">
        <ele>697.898555</ele>
        <time>2022-08-31T07:28:10.716Z</time>
      </trkpt>
      <trkpt lat="41.2909" lon="-1.97796">
        <ele>698.914245</ele>
        <time>2022-08-31T07:28:29.182Z</time>
      </trkpt>
      <trkpt lat="41.29076" lon="-1.97804">
        <ele>699.338396</ele>
        <time>2022-08-31T07:28:36.928Z</time>
      </trkpt>
      <trkpt lat="41.29075" lon="-1.97818">
        <ele>699.638516</ele>
        <time>2022-08-31T07:28:43.104Z</time>
      </trkpt>
      <trkpt lat="41.29084" lon="-1.97864">
        <ele>700.623568</ele>
        <time>2022-08-31T07:29:01.303Z</time>
      </trkpt>
      <trkpt lat="41.29084" lon="-1.97903">
        <ele>701.427893</ele>
        <time>2022-08-31T07:29:16.119Z</time>
      </trkpt>
      <trkpt lat="41.29066" lon="-1.97987">
        <ele>703.895225</ele>
        <time>2022-08-31T07:29:52.800Z</time>
      </trkpt>
      <trkpt lat="41.29066" lon="-1.98007">
        <ele>704.463295</ele>
        <time>2022-08-31T07:30:01.718Z</time>
      </trkpt>
      <trkpt lat="41.29085" lon="-1.98026">
        <ele>705.384317</ele>
        <time>2022-08-31T07:30:14.881Z</time>
      </trkpt>
      <trkpt lat="41.29089" lon="-1.98058">
        <ele>706.350702</ele>
        <time>2022-08-31T07:30:29.529Z</time>
      </trkpt>
      <trkpt lat="41.29087" lon="-1.98321">
        <ele>714.025406</ele>
        <time>2022-08-31T07:32:22.343Z</time>
      </trkpt>
      <trkpt lat="41.29105" lon="-1.98422">
        <ele>716.626729</ele>
        <time>2022-08-31T07:33:05.588Z</time>
      </trkpt>
      <trkpt lat="41.29138" lon="-1.9851">
        <ele>718.518283</ele>
        <time>2022-08-31T07:33:43.780Z</time>
      </trkpt>
      <trkpt lat="41.2915" lon="-1.98567">
        <ele>719.668882</ele>
        <time>2022-08-31T07:34:04.996Z</time>
      </trkpt>
      <trkpt lat="41.29151" lon="-1.98655">
        <ele>720.618024</ele>
        <time>2022-08-31T07:34:33.662Z</time>
      </trkpt>
      <trkpt lat="41.29163" lon="-1.9875">
        <ele>721.058556</ele>
        <time>2022-08-31T07:35:02.818Z</time>
      </trkpt>
      <trkpt lat="41.29164" lon="-1.98806">
        <ele>721.319205</ele>
        <time>2022-08-31T07:35:19.047Z</time>
      </trkpt>
      <trkpt lat="41.29159" lon="-1.98884">
        <ele>721.388579</ele>
        <time>2022-08-31T07:35:40.547Z</time>
      </trkpt>
      <trkpt lat="41.29143" lon="-1.98954">
        <ele>721.218704</ele>
        <time>2022-08-31T07:36:00.336Z</time>
      </trkpt>
      <trkpt lat="41.29141" lon="-1.98984">
        <ele>721.147853</ele>
        <time>2022-08-31T07:36:08.570Z</time>
      </trkpt>
      <trkpt lat="41.29155" lon="-1.99061">
        <ele>720.963088</ele>
        <time>2022-08-31T07:36:29.892Z</time>
      </trkpt>
      <trkpt lat="41.29224" lon="-1.99128">
        <ele>720.944682</ele>
        <time>2022-08-31T07:37:00.325Z</time>
      </trkpt>
      <trkpt lat="41.29296" lon="-1.99148">
        <ele>720.961225</ele>
        <time>2022-08-31T07:37:27.604Z</time>
      </trkpt>
      <trkpt lat="41.29315" lon="-1.99147">
        <ele>720.965414</ele>
        <time>2022-08-31T07:37:34.973Z</time>
      </trkpt>
      <trkpt lat="41.29331" lon="-1.99154">
        <ele>721.006296</ele>
        <time>2022-08-31T07:37:42.149Z</time>
      </trkpt>
      <trkpt lat="41.29393" lon="-1.99242">
        <ele>722.07924</ele>
        <time>2022-08-31T07:38:21.119Z</time>
      </trkpt>
      <trkpt lat="41.29435" lon="-1.99284">
        <ele>722.692793</ele>
        <time>2022-08-31T07:38:44.741Z</time>
      </trkpt>
      <trkpt lat="41.29483" lon="-1.99344">
        <ele>723.052625</ele>
        <time>2022-08-31T07:39:13.593Z</time>
      </trkpt>
      <trkpt lat="41.295" lon="-1.99387">
        <ele>723.012755</ele>
        <time>2022-08-31T07:39:28.422Z</time>
      </trkpt>
      <trkpt lat="41.29501" lon="-1.99398">
        <ele>723.003331</ele>
        <time>2022-08-31T07:39:32.042Z</time>
      </trkpt>
      <trkpt lat="41.29497" lon="-1.99541">
        <ele>722.727926</ele>
        <time>2022-08-31T07:40:09.680Z</time>
      </trkpt>
      <trkpt lat="41.29524" lon="-1.99623">
        <ele>720.527715</ele>
        <time>2022-08-31T07:40:31.149Z</time>
      </trkpt>
      <trkpt lat="41.29559" lon="-1.99783">
        <ele>716.299452</ele>
        <time>2022-08-31T07:41:08.116Z</time>
      </trkpt>
      <trkpt lat="41.29638" lon="-1.99935">
        <ele>710.717615</ele>
        <time>2022-08-31T07:41:48.889Z</time>
      </trkpt>
      <trkpt lat="41.29642" lon="-1.99954">
        <ele>710.128928</ele>
        <time>2022-08-31T07:41:53.290Z</time>
      </trkpt>
      <trkpt lat="41.29714" lon="-2.00416">
        <ele>704.495432</ele>
        <time>2022-08-31T07:43:51.359Z</time>
      </trkpt>
      <trkpt lat="41.29707" lon="-2.00496">
        <ele>704.942095</ele>
        <time>2022-08-31T07:44:15.221Z</time>
      </trkpt>
      <trkpt lat="41.29694" lon="-2.00733">
        <ele>707.827213</ele>
        <time>2022-08-31T07:45:38.149Z</time>
      </trkpt>
      <trkpt lat="41.29656" lon="-2.00863">
        <ele>710.475184</ele>
        <time>2022-08-31T07:46:31.698Z</time>
      </trkpt>
      <trkpt lat="41.29606" lon="-2.01006">
        <ele>713.923967</ele>
        <time>2022-08-31T07:47:32.363Z</time>
      </trkpt>
      <trkpt lat="41.29573" lon="-2.01112">
        <ele>716.516213</ele>
        <time>2022-08-31T07:48:17.328Z</time>
      </trkpt>
      <trkpt lat="41.29583" lon="-2.01177">
        <ele>718.400097</ele>
        <time>2022-08-31T07:48:44.252Z</time>
      </trkpt>
      <trkpt lat="41.29653" lon="-2.01393">
        <ele>724.718351</ele>
        <time>2022-08-31T07:50:26.846Z</time>
      </trkpt>
      <trkpt lat="41.29719" lon="-2.01599">
        <ele>727.847364</ele>
        <time>2022-08-31T07:51:49.486Z</time>
      </trkpt>
      <trkpt lat="41.29808" lon="-2.01997">
        <ele>722.788262</ele>
        <time>2022-08-31T07:53:28.305Z</time>
      </trkpt>
      <trkpt lat="41.29908" lon="-2.0244">
        <ele>728.403481</ele>
        <time>2022-08-31T07:56:09.856Z</time>
      </trkpt>
      <trkpt lat="41.29932" lon="-2.02561">
        <ele>729.885831</ele>
        <time>2022-08-31T07:56:57.830Z</time>
      </trkpt>
      <trkpt lat="41.29933" lon="-2.026">
        <ele>730.275189</ele>
        <time>2022-08-31T07:57:11.575Z</time>
      </trkpt>
      <trkpt lat="41.29927" lon="-2.02718">
        <ele>731.358191</ele>
        <time>2022-08-31T07:57:47.854Z</time>
      </trkpt>
      <trkpt lat="41.29929" lon="-2.02751">
        <ele>730.804627</ele>
        <time>2022-08-31T07:57:56.726Z</time>
      </trkpt>
      <trkpt lat="41.30006" lon="-2.03098">
        <ele>724.169604</ele>
        <time>2022-08-31T07:59:21.249Z</time>
      </trkpt>
      <trkpt lat="41.30042" lon="-2.03374">
        <ele>719.079465</ele>
        <time>2022-08-31T08:00:28.239Z</time>
      </trkpt>
      <trkpt lat="41.3006" lon="-2.03424">
        <ele>718.234354</ele>
        <time>2022-08-31T08:00:41.981Z</time>
      </trkpt>
      <trkpt lat="41.30118" lon="-2.03574">
        <ele>716.55155</ele>
        <time>2022-08-31T08:01:23.953Z</time>
      </trkpt>
      <trkpt lat="41.30135" lon="-2.03655">
        <ele>716.068809</ele>
        <time>2022-08-31T08:01:46.580Z</time>
      </trkpt>
      <trkpt lat="41.30141" lon="-2.03694">
        <ele>716.174649</ele>
        <time>2022-08-31T08:01:57.399Z</time>
      </trkpt>
      <trkpt lat="41.30146" lon="-2.03822">
        <ele>716.520507</ele>
        <time>2022-08-31T08:02:34.718Z</time>
      </trkpt>
      <trkpt lat="41.3013" lon="-2.03969">
        <ele>716.925631</ele>
        <time>2022-08-31T08:03:25.178Z</time>
      </trkpt>
      <trkpt lat="41.30135" lon="-2.04014">
        <ele>717.049399</ele>
        <time>2022-08-31T08:03:38.688Z</time>
      </trkpt>
      <trkpt lat="41.30144" lon="-2.04036">
        <ele>717.118153</ele>
        <time>2022-08-31T08:03:46.124Z</time>
      </trkpt>
      <trkpt lat="41.30149" lon="-2.04046">
        <ele>717.152889</ele>
        <time>2022-08-31T08:03:49.621Z</time>
      </trkpt>
      <trkpt lat="41.30322" lon="-2.04351">
        <ele>713.62178</ele>
        <time>2022-08-31T08:05:24.308Z</time>
      </trkpt>
      <trkpt lat="41.30418" lon="-2.04453">
        <ele>712.569053</ele>
        <time>2022-08-31T08:06:06.736Z</time>
      </trkpt>
      <trkpt lat="41.30466" lon="-2.04501">
        <ele>713.475447</ele>
        <time>2022-08-31T08:06:32.292Z</time>
      </trkpt>
      <trkpt lat="41.30485" lon="-2.04532">
        <ele>713.928018</ele>
        <time>2022-08-31T08:06:47.223Z</time>
      </trkpt>
      <trkpt lat="41.30521" lon="-2.0456">
        <ele>714.564188</ele>
        <time>2022-08-31T08:07:07.565Z</time>
      </trkpt>
      <trkpt lat="41.30533" lon="-2.04602">
        <ele>715.075101</ele>
        <time>2022-08-31T08:07:24.728Z</time>
      </trkpt>
      <trkpt lat="41.30534" lon="-2.04623">
        <ele>715.390087</ele>
        <time>2022-08-31T08:07:31.055Z</time>
      </trkpt>
      <trkpt lat="41.3053" lon="-2.0463">
        <ele>715.535273</ele>
        <time>2022-08-31T08:07:36.415Z</time>
      </trkpt>
      <trkpt lat="41.30512" lon="-2.0465">
        <ele>716.044798</ele>
        <time>2022-08-31T08:07:45.639Z</time>
      </trkpt>
      <trkpt lat="41.30454" lon="-2.04764">
        <ele>718.249839</ele>
        <time>2022-08-31T08:08:35.468Z</time>
      </trkpt>
      <trkpt lat="41.3044" lon="-2.04846">
        <ele>719.264213</ele>
        <time>2022-08-31T08:09:06.721Z</time>
      </trkpt>
      <trkpt lat="41.30423" lon="-2.04981">
        <ele>720.305742</ele>
        <time>2022-08-31T08:09:49.813Z</time>
      </trkpt>
      <trkpt lat="41.30401" lon="-2.05051">
        <ele>720.605502</ele>
        <time>2022-08-31T08:10:11.305Z</time>
      </trkpt>
      <trkpt lat="41.30397" lon="-2.05091">
        <ele>720.070838</ele>
        <time>2022-08-31T08:10:22.780Z</time>
      </trkpt>
      <trkpt lat="41.30389" lon="-2.05114">
        <ele>719.750581</ele>
        <time>2022-08-31T08:10:29.359Z</time>
      </trkpt>
      <trkpt lat="41.30379" lon="-2.05169">
        <ele>719.005456</ele>
        <time>2022-08-31T08:10:43.613Z</time>
      </trkpt>
      <trkpt lat="41.30395" lon="-2.05228">
        <ele>718.1853</ele>
        <time>2022-08-31T08:10:58.410Z</time>
      </trkpt>
      <trkpt lat="41.30394" lon="-2.05316">
        <ele>716.654814</ele>
        <time>2022-08-31T08:11:18.231Z</time>
      </trkpt>
      <trkpt lat="41.30406" lon="-2.05345">
        <ele>715.972477</ele>
        <time>2022-08-31T08:11:25.586Z</time>
      </trkpt>
      <trkpt lat="41.30431" lon="-2.05387">
        <ele>714.866425</ele>
        <time>2022-08-31T08:11:38.119Z</time>
      </trkpt>
      <trkpt lat="41.30463" lon="-2.05455">
        <ele>713.164774</ele>
        <time>2022-08-31T08:11:49.282Z</time>
      </trkpt>
      <trkpt lat="41.30471" lon="-2.05546">
        <ele>712.798446</ele>
        <time>2022-08-31T08:12:03.139Z</time>
      </trkpt>
      <trkpt lat="41.30481" lon="-2.05571">
        <ele>712.873654</ele>
        <time>2022-08-31T08:12:08.384Z</time>
      </trkpt>
      <trkpt lat="41.30494" lon="-2.05585">
        <ele>712.929987</ele>
        <time>2022-08-31T08:12:12.244Z</time>
      </trkpt>
      <trkpt lat="41.30507" lon="-2.05611">
        <ele>713.012347</ele>
        <time>2022-08-31T08:12:22.027Z</time>
      </trkpt>
      <trkpt lat="41.30519" lon="-2.0565">
        <ele>713.125055</ele>
        <time>2022-08-31T08:12:35.963Z</time>
      </trkpt>
      <trkpt lat="41.30517" lon="-2.05695">
        <ele>713.242519</ele>
        <time>2022-08-31T08:12:51.346Z</time>
      </trkpt>
      <trkpt lat="41.30511" lon="-2.05726">
        <ele>713.925721</ele>
        <time>2022-08-31T08:13:02.665Z</time>
      </trkpt>
      <trkpt lat="41.30488" lon="-2.05777">
        <ele>715.440611</ele>
        <time>2022-08-31T08:13:24.450Z</time>
      </trkpt>
      <trkpt lat="41.30463" lon="-2.05816">
        <ele>716.761095</ele>
        <time>2022-08-31T08:13:44.971Z</time>
      </trkpt>
      <trkpt lat="41.30396" lon="-2.05873">
        <ele>719.458713</ele>
        <time>2022-08-31T08:14:33.649Z</time>
      </trkpt>
      <trkpt lat="41.30347" lon="-2.05936">
        <ele>721.694771</ele>
        <time>2022-08-31T08:15:13.065Z</time>
      </trkpt>
      <trkpt lat="41.30334" lon="-2.05961">
        <ele>722.46739</ele>
        <time>2022-08-31T08:15:26.754Z</time>
      </trkpt>
      <trkpt lat="41.30314" lon="-2.05998">
        <ele>723.584429</ele>
        <time>2022-08-31T08:15:44.619Z</time>
      </trkpt>
      <trkpt lat="41.30308" lon="-2.06022">
        <ele>724.212723</ele>
        <time>2022-08-31T08:15:53.988Z</time>
      </trkpt>
      <trkpt lat="41.30309" lon="-2.06043">
        <ele>724.748239</ele>
        <time>2022-08-31T08:16:02.113Z</time>
      </trkpt>
      <trkpt lat="41.3032" lon="-2.06077">
        <ele>725.346947</ele>
        <time>2022-08-31T08:16:14.810Z</time>
      </trkpt>
      <trkpt lat="41.30401" lon="-2.06288">
        <ele>726.337587</ele>
        <time>2022-08-31T08:17:22.616Z</time>
      </trkpt>
      <trkpt lat="41.30403" lon="-2.06326">
        <ele>726.561881</ele>
        <time>2022-08-31T08:17:33.616Z</time>
      </trkpt>
      <trkpt lat="41.30393" lon="-2.06481">
        <ele>727.486072</ele>
        <time>2022-08-31T08:18:22.511Z</time>
      </trkpt>
      <trkpt lat="41.30395" lon="-2.0652">
        <ele>727.701908</ele>
        <time>2022-08-31T08:18:35.963Z</time>
      </trkpt>
      <trkpt lat="41.30433" lon="-2.06678">
        <ele>728.309989</ele>
        <time>2022-08-31T08:19:25.639Z</time>
      </trkpt>
      <trkpt lat="41.30478" lon="-2.06773">
        <ele>728.504141</ele>
        <time>2022-08-31T08:19:56.688Z</time>
      </trkpt>
      <trkpt lat="41.30497" lon="-2.06824">
        <ele>728.437415</ele>
        <time>2022-08-31T08:20:12.394Z</time>
      </trkpt>
      <trkpt lat="41.30511" lon="-2.0687">
        <ele>728.379745</ele>
        <time>2022-08-31T08:20:25.961Z</time>
      </trkpt>
      <trkpt lat="41.30516" lon="-2.06949">
        <ele>728.287278</ele>
        <time>2022-08-31T08:20:47.831Z</time>
      </trkpt>
      <trkpt lat="41.30429" lon="-2.07268">
        <ele>727.62356</ele>
        <time>2022-08-31T08:22:18.229Z</time>
      </trkpt>
      <trkpt lat="41.30425" lon="-2.07302">
        <ele>727.742424</ele>
        <time>2022-08-31T08:22:28.476Z</time>
      </trkpt>
      <trkpt lat="41.3043" lon="-2.07339">
        <ele>727.870481</ele>
        <time>2022-08-31T08:22:39.627Z</time>
      </trkpt>
      <trkpt lat="41.30454" lon="-2.07433">
        <ele>728.564727</ele>
        <time>2022-08-31T08:23:12.660Z</time>
      </trkpt>
      <trkpt lat="41.30455" lon="-2.07462">
        <ele>729.102067</ele>
        <time>2022-08-31T08:23:22.581Z</time>
      </trkpt>
      <trkpt lat="41.30449" lon="-2.07497">
        <ele>729.765351</ele>
        <time>2022-08-31T08:23:36.392Z</time>
      </trkpt>
      <trkpt lat="41.30429" lon="-2.07545">
        <ele>730.78631</ele>
        <time>2022-08-31T08:23:56.859Z</time>
      </trkpt>
      <trkpt lat="41.30396" lon="-2.07604">
        <ele>732.156428</ele>
        <time>2022-08-31T08:24:26.884Z</time>
      </trkpt>
      <trkpt lat="41.30339" lon="-2.07749">
        <ele>733.741574</ele>
        <time>2022-08-31T08:25:27.252Z</time>
      </trkpt>
      <trkpt lat="41.30268" lon="-2.07857">
        <ele>733.689108</ele>
        <time>2022-08-31T08:26:04.994Z</time>
      </trkpt>
      <trkpt lat="41.30256" lon="-2.07886">
        <ele>733.03588</ele>
        <time>2022-08-31T08:26:13.065Z</time>
      </trkpt>
      <trkpt lat="41.30128" lon="-2.08114">
        <ele>727.446072</ele>
        <time>2022-08-31T08:27:18.683Z</time>
      </trkpt>
      <trkpt lat="41.30108" lon="-2.08186">
        <ele>725.952298</ele>
        <time>2022-08-31T08:27:36.728Z</time>
      </trkpt>
      <trkpt lat="41.30099" lon="-2.08295">
        <ele>725.47555</ele>
        <time>2022-08-31T08:28:04.937Z</time>
      </trkpt>
      <trkpt lat="41.30084" lon="-2.08328">
        <ele>725.638632</ele>
        <time>2022-08-31T08:28:15.443Z</time>
      </trkpt>
      <trkpt lat="41.30068" lon="-2.0834">
        <ele>725.746642</ele>
        <time>2022-08-31T08:28:23.626Z</time>
      </trkpt>
      <trkpt lat="41.2996" lon="-2.08388">
        <ele>727.141518</ele>
        <time>2022-08-31T08:29:16.160Z</time>
      </trkpt>
      <trkpt lat="41.29925" lon="-2.08434">
        <ele>728.529263</ele>
        <time>2022-08-31T08:29:42.639Z</time>
      </trkpt>
      <trkpt lat="41.29853" lon="-2.08545">
        <ele>731.50298</ele>
        <time>2022-08-31T08:30:41.116Z</time>
      </trkpt>
      <trkpt lat="41.29786" lon="-2.0863">
        <ele>733.265586</ele>
        <time>2022-08-31T08:31:25.836Z</time>
      </trkpt>
      <trkpt lat="41.29752" lon="-2.08665">
        <ele>734.091756</ele>
        <time>2022-08-31T08:31:45.091Z</time>
      </trkpt>
      <trkpt lat="41.29723" lon="-2.08683">
        <ele>734.679062</ele>
        <time>2022-08-31T08:31:58.909Z</time>
      </trkpt>
      <trkpt lat="41.29683" lon="-2.08695">
        <ele>734.409187</ele>
        <time>2022-08-31T08:32:14.557Z</time>
      </trkpt>
      <trkpt lat="41.29631" lon="-2.08733">
        <ele>734.013147</ele>
        <time>2022-08-31T08:32:35.629Z</time>
      </trkpt>
      <trkpt lat="41.29596" lon="-2.08747">
        <ele>733.77356</ele>
        <time>2022-08-31T08:32:47.938Z</time>
      </trkpt>
      <trkpt lat="41.29561" lon="-2.08771">
        <ele>733.514019</ele>
        <time>2022-08-31T08:33:00.780Z</time>
      </trkpt>
      <trkpt lat="41.29514" lon="-2.08842">
        <ele>732.612867</ele>
        <time>2022-08-31T08:33:24.223Z</time>
      </trkpt>
      <trkpt lat="41.29497" lon="-2.08898">
        <ele>732.026918</ele>
        <time>2022-08-31T08:33:39.213Z</time>
      </trkpt>
      <trkpt lat="41.29499" lon="-2.08913">
        <ele>731.875096</ele>
        <time>2022-08-31T08:33:42.854Z</time>
      </trkpt>
      <trkpt lat="41.29513" lon="-2.08982">
        <ele>731.188837</ele>
        <time>2022-08-31T08:34:01.757Z</time>
      </trkpt>
      <trkpt lat="41.29508" lon="-2.0902">
        <ele>731.603527</ele>
        <time>2022-08-31T08:34:12.331Z</time>
      </trkpt>
      <trkpt lat="41.2952" lon="-2.09104">
        <ele>732.6246</ele>
        <time>2022-08-31T08:34:39.907Z</time>
      </trkpt>
      <trkpt lat="41.29521" lon="-2.09173">
        <ele>733.432812</ele>
        <time>2022-08-31T08:35:05.672Z</time>
      </trkpt>
      <trkpt lat="41.29526" lon="-2.09217">
        <ele>733.964016</ele>
        <time>2022-08-31T08:35:23.050Z</time>
      </trkpt>
      <trkpt lat="41.29522" lon="-2.09493">
        <ele>739.984122</ele>
        <time>2022-08-31T08:37:10.802Z</time>
      </trkpt>
      <trkpt lat="41.29514" lon="-2.09537">
        <ele>741.022239</ele>
        <time>2022-08-31T08:37:27.335Z</time>
      </trkpt>
      <trkpt lat="41.29478" lon="-2.09598">
        <ele>742.832455</ele>
        <time>2022-08-31T08:37:57.660Z</time>
      </trkpt>
      <trkpt lat="41.29414" lon="-2.09653">
        <ele>745.323889</ele>
        <time>2022-08-31T08:38:38.585Z</time>
      </trkpt>
      <trkpt lat="41.29393" lon="-2.09683">
        <ele>746.634741</ele>
        <time>2022-08-31T08:38:56.450Z</time>
      </trkpt>
      <trkpt lat="41.29337" lon="-2.09816">
        <ele>751.461598</ele>
        <time>2022-08-31T08:40:01.933Z</time>
      </trkpt>
      <trkpt lat="41.29328" lon="-2.09847">
        <ele>752.56075</ele>
        <time>2022-08-31T08:40:17.746Z</time>
      </trkpt>
      <trkpt lat="41.29332" lon="-2.09867">
        <ele>753.396225</ele>
        <time>2022-08-31T08:40:27.930Z</time>
      </trkpt>
      <trkpt lat="41.29365" lon="-2.09935">
        <ele>756.722027</ele>
        <time>2022-08-31T08:41:08.195Z</time>
      </trkpt>
      <trkpt lat="41.29366" lon="-2.09961">
        <ele>757.797563</ele>
        <time>2022-08-31T08:41:22.272Z</time>
      </trkpt>
      <trkpt lat="41.29359" lon="-2.09974">
        <ele>758.46255</ele>
        <time>2022-08-31T08:41:30.374Z</time>
      </trkpt>
      <trkpt lat="41.29267" lon="-2.10074">
        <ele>763.3526</ele>
        <time>2022-08-31T08:42:44.986Z</time>
      </trkpt>
      <trkpt lat="41.29238" lon="-2.10107">
        <ele>764.225278</ele>
        <time>2022-08-31T08:43:05.142Z</time>
      </trkpt>
      <trkpt lat="41.29217" lon="-2.10169">
        <ele>765.397741</ele>
        <time>2022-08-31T08:43:28.050Z</time>
      </trkpt>
      <trkpt lat="41.29208" lon="-2.1024">
        <ele>765.916021</ele>
        <time>2022-08-31T08:43:39.769Z</time>
      </trkpt>
      <trkpt lat="41.29206" lon="-2.10248">
        <ele>765.732713</ele>
        <time>2022-08-31T08:43:41.238Z</time>
      </trkpt>
      <trkpt lat="41.29196" lon="-2.10291">
        <ele>764.84586</ele>
        <time>2022-08-31T08:43:47.662Z</time>
      </trkpt>
      <trkpt lat="41.2918" lon="-2.10406">
        <ele>762.520021</ele>
        <time>2022-08-31T08:44:03.285Z</time>
      </trkpt>
      <trkpt lat="41.29177" lon="-2.10417">
        <ele>762.299737</ele>
        <time>2022-08-31T08:44:04.810Z</time>
      </trkpt>
      <trkpt lat="41.29159" lon="-2.10489">
        <ele>760.254542</ele>
        <time>2022-08-31T08:44:14.953Z</time>
      </trkpt>
      <trkpt lat="41.29151" lon="-2.10512">
        <ele>759.40845</ele>
        <time>2022-08-31T08:44:18.246Z</time>
      </trkpt>
      <trkpt lat="41.29146" lon="-2.10535">
        <ele>758.595019</ele>
        <time>2022-08-31T08:44:21.308Z</time>
      </trkpt>
      <trkpt lat="41.29129" lon="-2.10545">
        <ele>757.763933</ele>
        <time>2022-08-31T08:44:24.468Z</time>
      </trkpt>
      <trkpt lat="41.29092" lon="-2.10606">
        <ele>755.127779</ele>
        <time>2022-08-31T08:44:34.252Z</time>
      </trkpt>
      <trkpt lat="41.2906" lon="-2.1064">
        <ele>753.35658</ele>
        <time>2022-08-31T08:44:41.035Z</time>
      </trkpt>
      <trkpt lat="41.29034" lon="-2.10669">
        <ele>752.293784</ele>
        <time>2022-08-31T08:44:46.660Z</time>
      </trkpt>
      <trkpt lat="41.29017" lon="-2.10708">
        <ele>751.238402</ele>
        <time>2022-08-31T08:44:52.417Z</time>
      </trkpt>
      <trkpt lat="41.29012" lon="-2.10724">
        <ele>750.836145</ele>
        <time>2022-08-31T08:44:54.619Z</time>
      </trkpt>
      <trkpt lat="41.29006" lon="-2.10778">
        <ele>749.531697</ele>
        <time>2022-08-31T08:45:01.971Z</time>
      </trkpt>
      <trkpt lat="41.29006" lon="-2.10828">
        <ele>748.363831</ele>
        <time>2022-08-31T08:45:08.752Z</time>
      </trkpt>
      <trkpt lat="41.29021" lon="-2.10862">
        <ele>748.153553</ele>
        <time>2022-08-31T08:45:15.259Z</time>
      </trkpt>
      <trkpt lat="41.29012" lon="-2.10887">
        <ele>748.60983</ele>
        <time>2022-08-31T08:45:24.127Z</time>
      </trkpt>
      <trkpt lat="41.29019" lon="-2.10923">
        <ele>749.211909</ele>
        <time>2022-08-31T08:45:37.621Z</time>
      </trkpt>
      <trkpt lat="41.29006" lon="-2.11004">
        <ele>750.560576</ele>
        <time>2022-08-31T08:46:11.167Z</time>
      </trkpt>
      <trkpt lat="41.29002" lon="-2.11054">
        <ele>751.37208</ele>
        <time>2022-08-31T08:46:31.660Z</time>
      </trkpt>
      <trkpt lat="41.29013" lon="-2.11161">
        <ele>752.972715</ele>
        <time>2022-08-31T08:47:12.394Z</time>
      </trkpt>
      <trkpt lat="41.29016" lon="-2.11199">
        <ele>753.537252</ele>
        <time>2022-08-31T08:47:26.101Z</time>
      </trkpt>
      <trkpt lat="41.28998" lon="-2.11258">
        <ele>754.46411</ele>
        <time>2022-08-31T08:47:47.721Z</time>
      </trkpt>
      <trkpt lat="41.28997" lon="-2.11302">
        <ele>755.101015</ele>
        <time>2022-08-31T08:48:01.705Z</time>
      </trkpt>
      <trkpt lat="41.29001" lon="-2.11354">
        <ele>755.699821</ele>
        <time>2022-08-31T08:48:17.882Z</time>
      </trkpt>
      <trkpt lat="41.28997" lon="-2.11395">
        <ele>756.149753</ele>
        <time>2022-08-31T08:48:30.239Z</time>
      </trkpt>
      <trkpt lat="41.28985" lon="-2.11489">
        <ele>757.18169</ele>
        <time>2022-08-31T08:49:00.468Z</time>
      </trkpt>
      <trkpt lat="41.28971" lon="-2.11546">
        <ele>757.856324</ele>
        <time>2022-08-31T08:49:22.581Z</time>
      </trkpt>
      <trkpt lat="41.28951" lon="-2.11585">
        <ele>759.112952</ele>
        <time>2022-08-31T08:49:41.139Z</time>
      </trkpt>
      <trkpt lat="41.28927" lon="-2.11664">
        <ele>761.417212</ele>
        <time>2022-08-31T08:50:15.973Z</time>
      </trkpt>
      <trkpt lat="41.28899" lon="-2.11729">
        <ele>763.408294</ele>
        <time>2022-08-31T08:50:47.994Z</time>
      </trkpt>
      <trkpt lat="41.28878" lon="-2.11774">
        <ele>764.985667</ele>
        <time>2022-08-31T08:51:11.680Z</time>
      </trkpt>
      <trkpt lat="41.28841" lon="-2.11828">
        <ele>767.537973</ele>
        <time>2022-08-31T08:51:45.374Z</time>
      </trkpt>
      <trkpt lat="41.28817" lon="-2.11887">
        <ele>769.838644</ele>
        <time>2022-08-31T08:52:15.241Z</time>
      </trkpt>
      <trkpt lat="41.28798" lon="-2.11958">
        <ele>772.473012</ele>
        <time>2022-08-31T08:52:50.889Z</time>
      </trkpt>
      <trkpt lat="41.28756" lon="-2.12075">
        <ele>774.782623</ele>
        <time>2022-08-31T08:53:46.402Z</time>
      </trkpt>
      <trkpt lat="41.28744" lon="-2.12133">
        <ele>775.844381</ele>
        <time>2022-08-31T08:54:06.086Z</time>
      </trkpt>
      <trkpt lat="41.28742" lon="-2.12143">
        <ele>776.03186</ele>
        <time>2022-08-31T08:54:09.190Z</time>
      </trkpt>
      <trkpt lat="41.28723" lon="-2.122">
        <ele>776.328583</ele>
        <time>2022-08-31T08:54:25.961Z</time>
      </trkpt>
      <trkpt lat="41.28711" lon="-2.12263">
        <ele>775.084275</ele>
        <time>2022-08-31T08:54:42.325Z</time>
      </trkpt>
      <trkpt lat="41.28704" lon="-2.12379">
        <ele>772.867032</ele>
        <time>2022-08-31T08:55:09.121Z</time>
      </trkpt>
      <trkpt lat="41.28673" lon="-2.12481">
        <ele>770.29504</ele>
        <time>2022-08-31T08:55:33.601Z</time>
      </trkpt>
      <trkpt lat="41.28665" lon="-2.12537">
        <ele>768.867968</ele>
        <time>2022-08-31T08:55:46.511Z</time>
      </trkpt>
      <trkpt lat="41.28652" lon="-2.12579">
        <ele>767.712526</ele>
        <time>2022-08-31T08:55:57.027Z</time>
      </trkpt>
      <trkpt lat="41.28596" lon="-2.12675">
        <ele>765.268748</ele>
        <time>2022-08-31T08:56:25.744Z</time>
      </trkpt>
      <trkpt lat="41.28588" lon="-2.12696">
        <ele>764.926136</ele>
        <time>2022-08-31T08:56:31.402Z</time>
      </trkpt>
      <trkpt lat="41.2855" lon="-2.12745">
        <ele>763.910251</ele>
        <time>2022-08-31T08:56:48.608Z</time>
      </trkpt>
      <trkpt lat="41.28476" lon="-2.12862">
        <ele>762.753308</ele>
        <time>2022-08-31T08:57:27.377Z</time>
      </trkpt>
      <trkpt lat="41.28359" lon="-2.13064">
        <ele>765.529401</ele>
        <time>2022-08-31T08:58:46.713Z</time>
      </trkpt>
      <trkpt lat="41.28345" lon="-2.13102">
        <ele>766.857264</ele>
        <time>2022-08-31T08:59:05.272Z</time>
      </trkpt>
      <trkpt lat="41.28338" lon="-2.13129">
        <ele>767.743917</ele>
        <time>2022-08-31T08:59:18.557Z</time>
      </trkpt>
      <trkpt lat="41.28331" lon="-2.13182">
        <ele>769.393566</ele>
        <time>2022-08-31T08:59:45.313Z</time>
      </trkpt>
      <trkpt lat="41.28318" lon="-2.13226">
        <ele>771.267355</ele>
        <time>2022-08-31T09:00:10.853Z</time>
      </trkpt>
      <trkpt lat="41.28301" lon="-2.13426">
        <ele>783.357136</ele>
        <time>2022-08-31T09:02:11.552Z</time>
      </trkpt>
      <trkpt lat="41.28311" lon="-2.135">
        <ele>787.138913</ele>
        <time>2022-08-31T09:02:53.560Z</time>
      </trkpt>
      <trkpt lat="41.28299" lon="-2.13543">
        <ele>789.222268</ele>
        <time>2022-08-31T09:03:17.874Z</time>
      </trkpt>
      <trkpt lat="41.28248" lon="-2.13599">
        <ele>793.228566</ele>
        <time>2022-08-31T09:04:01.994Z</time>
      </trkpt>
      <trkpt lat="41.2823" lon="-2.13637">
        <ele>795.250285</ele>
        <time>2022-08-31T09:04:22.708Z</time>
      </trkpt>
      <trkpt lat="41.28228" lon="-2.13662">
        <ele>796.00678</ele>
        <time>2022-08-31T09:04:33.981Z</time>
      </trkpt>
      <trkpt lat="41.28239" lon="-2.13676">
        <ele>796.408056</ele>
        <time>2022-08-31T09:04:42.229Z</time>
      </trkpt>
      <trkpt lat="41.28248" lon="-2.1384">
        <ele>799.786334</ele>
        <time>2022-08-31T09:05:46.453Z</time>
      </trkpt>
      <trkpt lat="41.28262" lon="-2.13895">
        <ele>800.339502</ele>
        <time>2022-08-31T09:06:05.440Z</time>
      </trkpt>
      <trkpt lat="41.28262" lon="-2.13926">
        <ele>799.928363</ele>
        <time>2022-08-31T09:06:14.535Z</time>
      </trkpt>
      <trkpt lat="41.281" lon="-2.14257">
        <ele>793.058621</ele>
        <time>2022-08-31T09:07:47.366Z</time>
      </trkpt>
      <trkpt lat="41.28075" lon="-2.14426">
        <ele>790.161913</ele>
        <time>2022-08-31T09:08:27.744Z</time>
      </trkpt>
      <trkpt lat="41.28048" lon="-2.14573">
        <ele>788.853988</ele>
        <time>2022-08-31T09:09:06.522Z</time>
      </trkpt>
      <trkpt lat="41.2805" lon="-2.146">
        <ele>789.00006</ele>
        <time>2022-08-31T09:09:14.354Z</time>
      </trkpt>
      <trkpt lat="41.28029" lon="-2.14674">
        <ele>789.426343</ele>
        <time>2022-08-31T09:09:39.552Z</time>
      </trkpt>
      <trkpt lat="41.28027" lon="-2.14721">
        <ele>789.67642</ele>
        <time>2022-08-31T09:09:55.575Z</time>
      </trkpt>
      <trkpt lat="41.27947" lon="-2.14926">
        <ele>792.349062</ele>
        <time>2022-08-31T09:11:17.333Z</time>
      </trkpt>
      <trkpt lat="41.27935" lon="-2.14973">
        <ele>792.904832</ele>
        <time>2022-08-31T09:11:33.254Z</time>
      </trkpt>
      <trkpt lat="41.27883" lon="-2.15018">
        <ele>792.942683</ele>
        <time>2022-08-31T09:11:57.759Z</time>
      </trkpt>
      <trkpt lat="41.27859" lon="-2.15083">
        <ele>792.976322</ele>
        <time>2022-08-31T09:12:17.782Z</time>
      </trkpt>
      <trkpt lat="41.27846" lon="-2.15163">
        <ele>792.998274</ele>
        <time>2022-08-31T09:12:39.530Z</time>
      </trkpt>
      <trkpt lat="41.27823" lon="-2.15246">
        <ele>792.57844</ele>
        <time>2022-08-31T09:13:03.113Z</time>
      </trkpt>
      <trkpt lat="41.27786" lon="-2.15338">
        <ele>792.086273</ele>
        <time>2022-08-31T09:13:30.749Z</time>
      </trkpt>
      <trkpt lat="41.27758" lon="-2.15361">
        <ele>791.87897</ele>
        <time>2022-08-31T09:13:42.407Z</time>
      </trkpt>
      <trkpt lat="41.2773" lon="-2.15404">
        <ele>791.643936</ele>
        <time>2022-08-31T09:13:57.491Z</time>
      </trkpt>
      <trkpt lat="41.27698" lon="-2.15436">
        <ele>791.427405</ele>
        <time>2022-08-31T09:14:11.394Z</time>
      </trkpt>
      <trkpt lat="41.27683" lon="-2.15475">
        <ele>791.247612</ele>
        <time>2022-08-31T09:14:22.976Z</time>
      </trkpt>
      <trkpt lat="41.2764" lon="-2.15506">
        <ele>790.976804</ele>
        <time>2022-08-31T09:14:40.489Z</time>
      </trkpt>
      <trkpt lat="41.27525" lon="-2.15556">
        <ele>791.426064</ele>
        <time>2022-08-31T09:15:25.236Z</time>
      </trkpt>
      <trkpt lat="41.27431" lon="-2.15564">
        <ele>792.203081</ele>
        <time>2022-08-31T09:16:05.364Z</time>
      </trkpt>
      <trkpt lat="41.27295" lon="-2.15626">
        <ele>795.138006</ele>
        <time>2022-08-31T09:17:14.208Z</time>
      </trkpt>
      <trkpt lat="41.27244" lon="-2.15631">
        <ele>796.494889</ele>
        <time>2022-08-31T09:17:39.624Z</time>
      </trkpt>
      <trkpt lat="41.27182" lon="-2.15678">
        <ele>798.642351</ele>
        <time>2022-08-31T09:18:16.938Z</time>
      </trkpt>
      <trkpt lat="41.27157" lon="-2.15736">
        <ele>800.149528</ele>
        <time>2022-08-31T09:18:43.892Z</time>
      </trkpt>
      <trkpt lat="41.27113" lon="-2.15811">
        <ele>802.579802</ele>
        <time>2022-08-31T09:19:22.274Z</time>
      </trkpt>
      <trkpt lat="41.27051" lon="-2.15902">
        <ele>805.841136</ele>
        <time>2022-08-31T09:20:13.297Z</time>
      </trkpt>
      <trkpt lat="41.27023" lon="-2.15954">
        <ele>807.527589</ele>
        <time>2022-08-31T09:20:39.968Z</time>
      </trkpt>
      <trkpt lat="41.27" lon="-2.16026">
        <ele>809.460153</ele>
        <time>2022-08-31T09:21:12.325Z</time>
      </trkpt>
      <trkpt lat="41.26738" lon="-2.16234">
        <ele>817.910141</ele>
        <time>2022-08-31T09:23:52.277Z</time>
      </trkpt>
      <trkpt lat="41.26697" lon="-2.1621">
        <ele>817.150987</ele>
        <time>2022-08-31T09:24:08.996Z</time>
      </trkpt>
      <trkpt lat="41.2665" lon="-2.16166">
        <ele>816.196969</ele>
        <time>2022-08-31T09:24:27.945Z</time>
      </trkpt>
      <trkpt lat="41.26582" lon="-2.16305">
        <ele>811.793729</ele>
        <time>2022-08-31T09:25:04.604Z</time>
      </trkpt>
      <trkpt lat="41.26434" lon="-2.166">
        <ele>796.750914</ele>
        <time>2022-08-31T09:26:18.943Z</time>
      </trkpt>
      <trkpt lat="41.26392" lon="-2.16636">
        <ele>794.197436</ele>
        <time>2022-08-31T09:26:33.257Z</time>
      </trkpt>
      <trkpt lat="41.26375" lon="-2.16673">
        <ele>792.909144</ele>
        <time>2022-08-31T09:26:42.815Z</time>
      </trkpt>
      <trkpt lat="41.26386" lon="-2.16854">
        <ele>787.630725</ele>
        <time>2022-08-31T09:27:24.019Z</time>
      </trkpt>
      <trkpt lat="41.26401" lon="-2.16885">
        <ele>786.784945</ele>
        <time>2022-08-31T09:27:29.139Z</time>
      </trkpt>
      <trkpt lat="41.26407" lon="-2.16915">
        <ele>786.092649</ele>
        <time>2022-08-31T09:27:33.461Z</time>
      </trkpt>
      <trkpt lat="41.26408" lon="-2.16957">
        <ele>785.122426</ele>
        <time>2022-08-31T09:27:39.473Z</time>
      </trkpt>
      <trkpt lat="41.26413" lon="-2.16984">
        <ele>784.499699</ele>
        <time>2022-08-31T09:27:43.325Z</time>
      </trkpt>
      <trkpt lat="41.26424" lon="-2.17063">
        <ele>782.679117</ele>
        <time>2022-08-31T09:27:54.183Z</time>
      </trkpt>
      <trkpt lat="41.26407" lon="-2.1711">
        <ele>781.341033</ele>
        <time>2022-08-31T09:28:01.057Z</time>
      </trkpt>
      <trkpt lat="41.26401" lon="-2.17161">
        <ele>779.980741</ele>
        <time>2022-08-31T09:28:07.780Z</time>
      </trkpt>
      <trkpt lat="41.26392" lon="-2.17193">
        <ele>779.059393</ele>
        <time>2022-08-31T09:28:12.310Z</time>
      </trkpt>
      <trkpt lat="41.26385" lon="-2.17218">
        <ele>778.336279</ele>
        <time>2022-08-31T09:28:15.917Z</time>
      </trkpt>
      <trkpt lat="41.26391" lon="-2.17277">
        <ele>776.747685</ele>
        <time>2022-08-31T09:28:23.785Z</time>
      </trkpt>
      <trkpt lat="41.26392" lon="-2.17286">
        <ele>776.506173</ele>
        <time>2022-08-31T09:28:24.976Z</time>
      </trkpt>
      <trkpt lat="41.26402" lon="-2.17354">
        <ele>775.258315</ele>
        <time>2022-08-31T09:28:34.144Z</time>
      </trkpt>
      <trkpt lat="41.26407" lon="-2.17403">
        <ele>774.533608</ele>
        <time>2022-08-31T09:28:40.882Z</time>
      </trkpt>
      <trkpt lat="41.26409" lon="-2.17424">
        <ele>774.210408</ele>
        <time>2022-08-31T09:28:44.022Z</time>
      </trkpt>
      <trkpt lat="41.26418" lon="-2.17502">
        <ele>773.043481</ele>
        <time>2022-08-31T09:28:56.573Z</time>
      </trkpt>
      <trkpt lat="41.26413" lon="-2.17529">
        <ele>772.630804</ele>
        <time>2022-08-31T09:29:01.195Z</time>
      </trkpt>
      <trkpt lat="41.26405" lon="-2.17542">
        <ele>772.373777</ele>
        <time>2022-08-31T09:29:04.024Z</time>
      </trkpt>
      <trkpt lat="41.26325" lon="-2.17589">
        <ele>770.716306</ele>
        <time>2022-08-31T09:29:21.478Z</time>
      </trkpt>
      <trkpt lat="41.26266" lon="-2.17624">
        <ele>769.499747</ele>
        <time>2022-08-31T09:29:33.325Z</time>
      </trkpt>
      <trkpt lat="41.26315" lon="-2.17717">
        <ele>768.564507</ele>
        <time>2022-08-31T09:29:49.257Z</time>
      </trkpt>
      <trkpt lat="41.26306" lon="-2.17732">
        <ele>768.45702</ele>
        <time>2022-08-31T09:29:51.887Z</time>
      </trkpt>
      <trkpt lat="41.26282" lon="-2.17759">
        <ele>768.211868</ele>
        <time>2022-08-31T09:29:58.203Z</time>
      </trkpt>
      <trkpt lat="41.26277" lon="-2.1779">
        <ele>768.025188</ele>
        <time>2022-08-31T09:30:04.127Z</time>
      </trkpt>
      <trkpt lat="41.26259" lon="-2.17816">
        <ele>767.821473</ele>
        <time>2022-08-31T09:30:10.313Z</time>
      </trkpt>
      <trkpt lat="41.26203" lon="-2.17832">
        <ele>768.413008</ele>
        <time>2022-08-31T09:30:29.101Z</time>
      </trkpt>
      <trkpt lat="41.26165" lon="-2.17793">
        <ele>769.479447</ele>
        <time>2022-08-31T09:30:46.570Z</time>
      </trkpt>
      <trkpt lat="41.26152" lon="-2.17783">
        <ele>769.797003</ele>
        <time>2022-08-31T09:30:52.611Z</time>
      </trkpt>
      <trkpt lat="41.26105" lon="-2.17774">
        <ele>770.858668</ele>
        <time>2022-08-31T09:31:08.803Z</time>
      </trkpt>
      <trkpt lat="41.26085" lon="-2.17759">
        <ele>771.359487</ele>
        <time>2022-08-31T09:31:17.108Z</time>
      </trkpt>
      <trkpt lat="41.26061" lon="-2.17765">
        <ele>771.76258</ele>
        <time>2022-08-31T09:31:25.091Z</time>
      </trkpt>
      <trkpt lat="41.2595" lon="-2.17834">
        <ele>772.9796</ele>
        <time>2022-08-31T09:32:00.287Z</time>
      </trkpt>
      <trkpt lat="41.25915" lon="-2.17851">
        <ele>773.347455</ele>
        <time>2022-08-31T09:32:08.690Z</time>
      </trkpt>
      <trkpt lat="41.2587" lon="-2.17843">
        <ele>773.960799</ele>
        <time>2022-08-31T09:32:19.364Z</time>
      </trkpt>
      <trkpt lat="41.25851" lon="-2.17832">
        <ele>774.258984</ele>
        <time>2022-08-31T09:32:24.716Z</time>
      </trkpt>
      <trkpt lat="41.25836" lon="-2.17807">
        <ele>774.598412</ele>
        <time>2022-08-31T09:32:31.764Z</time>
      </trkpt>
      <trkpt lat="41.25818" lon="-2.17788">
        <ele>774.923589</ele>
        <time>2022-08-31T09:32:39.159Z</time>
      </trkpt>
      <trkpt lat="41.25797" lon="-2.17784">
        <ele>775.215412</ele>
        <time>2022-08-31T09:32:46.124Z</time>
      </trkpt>
      <trkpt lat="41.25769" lon="-2.17792">
        <ele>775.618279</ele>
        <time>2022-08-31T09:32:55.843Z</time>
      </trkpt>
      <trkpt lat="41.25727" lon="-2.17824">
        <ele>776.568021</ele>
        <time>2022-08-31T09:33:12.838Z</time>
      </trkpt>
      <trkpt lat="41.25722" lon="-2.17872">
        <ele>777.483362</ele>
        <time>2022-08-31T09:33:26.144Z</time>
      </trkpt>
      <trkpt lat="41.25713" lon="-2.17904">
        <ele>778.135224</ele>
        <time>2022-08-31T09:33:39.657Z</time>
      </trkpt>
      <trkpt lat="41.25667" lon="-2.17978">
        <ele>779.972746</ele>
        <time>2022-08-31T09:34:16.063Z</time>
      </trkpt>
      <trkpt lat="41.25601" lon="-2.18022">
        <ele>781.474587</ele>
        <time>2022-08-31T09:34:51.468Z</time>
      </trkpt>
      <trkpt lat="41.25567" lon="-2.18033">
        <ele>782.110633</ele>
        <time>2022-08-31T09:35:07.035Z</time>
      </trkpt>
      <trkpt lat="41.25517" lon="-2.1806">
        <ele>783.09288</ele>
        <time>2022-08-31T09:35:31.042Z</time>
      </trkpt>
      <trkpt lat="41.25493" lon="-2.18086">
        <ele>783.658637</ele>
        <time>2022-08-31T09:35:45.315Z</time>
      </trkpt>
      <trkpt lat="41.25459" lon="-2.18185">
        <ele>785.276497</ele>
        <time>2022-08-31T09:36:22.785Z</time>
      </trkpt>
      <trkpt lat="41.25442" lon="-2.18223">
        <ele>785.942754</ele>
        <time>2022-08-31T09:36:39.062Z</time>
      </trkpt>
      <trkpt lat="41.25424" lon="-2.18247">
        <ele>786.448579</ele>
        <time>2022-08-31T09:36:51.818Z</time>
      </trkpt>
      <trkpt lat="41.2527" lon="-2.18358">
        <ele>788.606126</ele>
        <time>2022-08-31T09:38:13.542Z</time>
      </trkpt>
      <trkpt lat="41.25208" lon="-2.18404">
        <ele>788.554462</ele>
        <time>2022-08-31T09:38:38.415Z</time>
      </trkpt>
      <trkpt lat="41.25118" lon="-2.1847">
        <ele>785.499498</ele>
        <time>2022-08-31T09:39:10.450Z</time>
      </trkpt>
      <trkpt lat="41.25057" lon="-2.18522">
        <ele>783.396057</ele>
        <time>2022-08-31T09:39:31.792Z</time>
      </trkpt>
      <trkpt lat="41.25063" lon="-2.18586">
        <ele>782.05236</ele>
        <time>2022-08-31T09:39:46.075Z</time>
      </trkpt>
      <trkpt lat="41.25038" lon="-2.18646">
        <ele>780.637023</ele>
        <time>2022-08-31T09:40:01.682Z</time>
      </trkpt>
      <trkpt lat="41.24988" lon="-2.1872">
        <ele>778.963979</ele>
        <time>2022-08-31T09:40:26.678Z</time>
      </trkpt>
      <trkpt lat="41.24918" lon="-2.18803">
        <ele>780.53165</ele>
        <time>2022-08-31T09:41:06.961Z</time>
      </trkpt>
      <trkpt lat="41.24881" lon="-2.18838">
        <ele>781.279436</ele>
        <time>2022-08-31T09:41:29.979Z</time>
      </trkpt>
      <trkpt lat="41.24781" lon="-2.18927">
        <ele>784.671456</ele>
        <time>2022-08-31T09:42:37.968Z</time>
      </trkpt>
      <trkpt lat="41.24716" lon="-2.1903">
        <ele>787.758616</ele>
        <time>2022-08-31T09:43:30.757Z</time>
      </trkpt>
      <trkpt lat="41.24696" lon="-2.19048">
        <ele>788.082526</ele>
        <time>2022-08-31T09:43:42.007Z</time>
      </trkpt>
      <trkpt lat="41.24376" lon="-2.19269">
        <ele>792.808685</ele>
        <time>2022-08-31T09:46:12.864Z</time>
      </trkpt>
      <trkpt lat="41.24361" lon="-2.19285">
        <ele>793.315842</ele>
        <time>2022-08-31T09:46:21.402Z</time>
      </trkpt>
      <trkpt lat="41.24065" lon="-2.19714">
        <ele>806.214482</ele>
        <time>2022-08-31T09:50:08.966Z</time>
      </trkpt>
      <trkpt lat="41.23936" lon="-2.19922">
        <ele>815.871481</ele>
        <time>2022-08-31T09:52:15.695Z</time>
      </trkpt>
      <trkpt lat="41.23825" lon="-2.20116">
        <ele>824.960836</ele>
        <time>2022-08-31T09:54:14.644Z</time>
      </trkpt>
      <trkpt lat="41.23801" lon="-2.20136">
        <ele>826.089614</ele>
        <time>2022-08-31T09:54:29.904Z</time>
      </trkpt>
      <trkpt lat="41.23721" lon="-2.20181">
        <ele>826.967224</ele>
        <time>2022-08-31T09:55:09.440Z</time>
      </trkpt>
      <trkpt lat="41.23705" lon="-2.20195">
        <ele>827.156478</ele>
        <time>2022-08-31T09:55:16.675Z</time>
      </trkpt>
      <trkpt lat="41.23701" lon="-2.20207">
        <ele>827.255015</ele>
        <time>2022-08-31T09:55:20.190Z</time>
      </trkpt>
      <trkpt lat="41.23619" lon="-2.20378">
        <ele>827.004999</ele>
        <time>2022-08-31T09:56:13.634Z</time>
      </trkpt>
      <trkpt lat="41.23603" lon="-2.20397">
        <ele>826.821902</ele>
        <time>2022-08-31T09:56:21.052Z</time>
      </trkpt>
      <trkpt lat="41.23548" lon="-2.20445">
        <ele>826.236692</ele>
        <time>2022-08-31T09:56:43.749Z</time>
      </trkpt>
      <trkpt lat="41.23245" lon="-2.20596">
        <ele>821.87002</ele>
        <time>2022-08-31T09:58:31.524Z</time>
      </trkpt>
      <trkpt lat="41.23169" lon="-2.2065">
        <ele>821.846063</ele>
        <time>2022-08-31T09:59:03.484Z</time>
      </trkpt>
      <trkpt lat="41.23127" lon="-2.20689">
        <ele>822.217396</ele>
        <time>2022-08-31T09:59:24.639Z</time>
      </trkpt>
      <trkpt lat="41.23102" lon="-2.20722">
        <ele>822.477733</ele>
        <time>2022-08-31T09:59:40.203Z</time>
      </trkpt>
      <trkpt lat="41.23044" lon="-2.20846">
        <ele>824.226852</ele>
        <time>2022-08-31T10:00:28.315Z</time>
      </trkpt>
      <trkpt lat="41.22967" lon="-2.21062">
        <ele>829.306115</ele>
        <time>2022-08-31T10:01:58.085Z</time>
      </trkpt>
      <trkpt lat="41.2287" lon="-2.21079">
        <ele>833.199362</ele>
        <time>2022-08-31T10:02:58.604Z</time>
      </trkpt>
      <trkpt lat="41.22823" lon="-2.2109">
        <ele>834.499964</ele>
        <time>2022-08-31T10:03:27.356Z</time>
      </trkpt>
      <trkpt lat="41.22804" lon="-2.21098">
        <ele>834.961817</ele>
        <time>2022-08-31T10:03:40.399Z</time>
      </trkpt>
      <trkpt lat="41.22758" lon="-2.21142">
        <ele>836.274626</ele>
        <time>2022-08-31T10:04:11.206Z</time>
      </trkpt>
      <trkpt lat="41.22725" lon="-2.21185">
        <ele>837.348003</ele>
        <time>2022-08-31T10:04:29.468Z</time>
      </trkpt>
      <trkpt lat="41.2271" lon="-2.21233">
        <ele>837.118059</ele>
        <time>2022-08-31T10:04:42.639Z</time>
      </trkpt>
      <trkpt lat="41.22692" lon="-2.21259">
        <ele>835.937703</ele>
        <time>2022-08-31T10:04:50.846Z</time>
      </trkpt>
      <trkpt lat="41.22682" lon="-2.21271">
        <ele>835.341046</ele>
        <time>2022-08-31T10:04:54.886Z</time>
      </trkpt>
      <trkpt lat="41.22646" lon="-2.21278">
        <ele>833.667905</ele>
        <time>2022-08-31T10:05:05.784Z</time>
      </trkpt>
      <trkpt lat="41.22608" lon="-2.21279">
        <ele>831.956704</ele>
        <time>2022-08-31T10:05:16.491Z</time>
      </trkpt>
      <trkpt lat="41.2257" lon="-2.21298">
        <ele>830.13898</ele>
        <time>2022-08-31T10:05:22.866Z</time>
      </trkpt>
      <trkpt lat="41.22543" lon="-2.21309">
        <ele>828.748857</ele>
        <time>2022-08-31T10:05:27.223Z</time>
      </trkpt>
      <trkpt lat="41.2252" lon="-2.21332">
        <ele>827.210649</ele>
        <time>2022-08-31T10:05:31.792Z</time>
      </trkpt>
      <trkpt lat="41.22509" lon="-2.21405">
        <ele>824.293736</ele>
        <time>2022-08-31T10:05:40.823Z</time>
      </trkpt>
      <trkpt lat="41.22507" lon="-2.21506">
        <ele>820.339983</ele>
        <time>2022-08-31T10:05:53.848Z</time>
      </trkpt>
      <trkpt lat="41.22373" lon="-2.21801">
        <ele>816.187663</ele>
        <time>2022-08-31T10:06:44.792Z</time>
      </trkpt>
      <trkpt lat="41.22326" lon="-2.21876">
        <ele>814.898658</ele>
        <time>2022-08-31T10:06:58.104Z</time>
      </trkpt>
      <trkpt lat="41.22265" lon="-2.21971">
        <ele>813.461671</ele>
        <time>2022-08-31T10:07:14.769Z</time>
      </trkpt>
      <trkpt lat="41.2226" lon="-2.21982">
        <ele>813.319404</ele>
        <time>2022-08-31T10:07:16.606Z</time>
      </trkpt>
      <trkpt lat="41.22247" lon="-2.22036">
        <ele>812.704473</ele>
        <time>2022-08-31T10:07:24.402Z</time>
      </trkpt>
      <trkpt lat="41.22245" lon="-2.22079">
        <ele>812.228483</ele>
        <time>2022-08-31T10:07:30.494Z</time>
      </trkpt>
      <trkpt lat="41.22307" lon="-2.22482">
        <ele>814.633886</ele>
        <time>2022-08-31T10:08:56.088Z</time>
      </trkpt>
      <trkpt lat="41.22297" lon="-2.22615">
        <ele>815.916679</ele>
        <time>2022-08-31T10:09:24.070Z</time>
      </trkpt>
      <trkpt lat="41.2229" lon="-2.22722">
        <ele>817.337337</ele>
        <time>2022-08-31T10:09:48.542Z</time>
      </trkpt>
      <trkpt lat="41.22289" lon="-2.22842">
        <ele>818.94509</ele>
        <time>2022-08-31T10:10:18.124Z</time>
      </trkpt>
      <trkpt lat="41.22278" lon="-2.22923">
        <ele>820.092291</ele>
        <time>2022-08-31T10:10:39.591Z</time>
      </trkpt>
      <trkpt lat="41.22264" lon="-2.23103">
        <ele>821.817096</ele>
        <time>2022-08-31T10:11:21.960Z</time>
      </trkpt>
      <trkpt lat="41.2224" lon="-2.23399">
        <ele>818.671498</ele>
        <time>2022-08-31T10:12:04.820Z</time>
      </trkpt>
      <trkpt lat="41.22258" lon="-2.23593">
        <ele>814.423481</ele>
        <time>2022-08-31T10:12:29.348Z</time>
      </trkpt>
      <trkpt lat="41.22258" lon="-2.23684">
        <ele>812.26566</ele>
        <time>2022-08-31T10:12:40.514Z</time>
      </trkpt>
      <trkpt lat="41.22253" lon="-2.23717">
        <ele>811.458956</ele>
        <time>2022-08-31T10:12:44.825Z</time>
      </trkpt>
      <trkpt lat="41.22252" lon="-2.23731">
        <ele>811.118167</ele>
        <time>2022-08-31T10:12:46.675Z</time>
      </trkpt>
      <trkpt lat="41.22264" lon="-2.23795">
        <ele>810.440974</ele>
        <time>2022-08-31T10:12:55.864Z</time>
      </trkpt>
      <trkpt lat="41.22265" lon="-2.23853">
        <ele>811.349178</ele>
        <time>2022-08-31T10:13:06.226Z</time>
      </trkpt>
      <trkpt lat="41.22262" lon="-2.23876">
        <ele>811.728393</ele>
        <time>2022-08-31T10:13:11.632Z</time>
      </trkpt>
      <trkpt lat="41.22249" lon="-2.23911">
        <ele>812.340442</ele>
        <time>2022-08-31T10:13:20.830Z</time>
      </trkpt>
      <trkpt lat="41.2223" lon="-2.23937">
        <ele>812.908377</ele>
        <time>2022-08-31T10:13:31.088Z</time>
      </trkpt>
      <trkpt lat="41.22098" lon="-2.24123">
        <ele>821.897721</ele>
        <time>2022-08-31T10:15:09.756Z</time>
      </trkpt>
      <trkpt lat="41.22059" lon="-2.24183">
        <ele>824.438157</ele>
        <time>2022-08-31T10:15:38.320Z</time>
      </trkpt>
      <trkpt lat="41.22047" lon="-2.24217">
        <ele>825.219578</ele>
        <time>2022-08-31T10:15:50.300Z</time>
      </trkpt>
      <trkpt lat="41.2204" lon="-2.24251">
        <ele>825.960836</ele>
        <time>2022-08-31T10:16:00.563Z</time>
      </trkpt>
      <trkpt lat="41.2203" lon="-2.24388">
        <ele>828.726657</ele>
        <time>2022-08-31T10:16:31.887Z</time>
      </trkpt>
      <trkpt lat="41.22042" lon="-2.24594">
        <ele>829.507259</ele>
        <time>2022-08-31T10:17:11.075Z</time>
      </trkpt>
      <trkpt lat="41.22065" lon="-2.24935">
        <ele>827.80907</ele>
        <time>2022-08-31T10:18:03.981Z</time>
      </trkpt>
      <trkpt lat="41.2207" lon="-2.25026">
        <ele>826.913445</ele>
        <time>2022-08-31T10:18:17.229Z</time>
      </trkpt>
      <trkpt lat="41.22017" lon="-2.25179">
        <ele>825.310131</ele>
        <time>2022-08-31T10:18:40.711Z</time>
      </trkpt>
      <trkpt lat="41.2201" lon="-2.25228">
        <ele>824.837799</ele>
        <time>2022-08-31T10:18:47.945Z</time>
      </trkpt>
      <trkpt lat="41.2201" lon="-2.25353">
        <ele>824.136678</ele>
        <time>2022-08-31T10:19:07.032Z</time>
      </trkpt>
      <trkpt lat="41.21943" lon="-2.25847">
        <ele>826.87601</ele>
        <time>2022-08-31T10:20:47.945Z</time>
      </trkpt>
      <trkpt lat="41.21961" lon="-2.25978">
        <ele>827.535788</ele>
        <time>2022-08-31T10:21:12.859Z</time>
      </trkpt>
      <trkpt lat="41.21959" lon="-2.2602">
        <ele>827.744101</ele>
        <time>2022-08-31T10:21:20.680Z</time>
      </trkpt>
      <trkpt lat="41.21912" lon="-2.26321">
        <ele>829.241857</ele>
        <time>2022-08-31T10:22:19.430Z</time>
      </trkpt>
      <trkpt lat="41.21902" lon="-2.26356">
        <ele>829.442182</ele>
        <time>2022-08-31T10:22:26.894Z</time>
      </trkpt>
      <trkpt lat="41.21879" lon="-2.2641">
        <ele>829.783347</ele>
        <time>2022-08-31T10:22:40.144Z</time>
      </trkpt>
      <trkpt lat="41.21835" lon="-2.26468">
        <ele>830.191471</ele>
        <time>2022-08-31T10:22:56.374Z</time>
      </trkpt>
      <trkpt lat="41.21792" lon="-2.26513">
        <ele>830.104663</ele>
        <time>2022-08-31T10:23:08.098Z</time>
      </trkpt>
      <trkpt lat="41.21761" lon="-2.26531">
        <ele>830.049588</ele>
        <time>2022-08-31T10:23:15.040Z</time>
      </trkpt>
      <trkpt lat="41.21733" lon="-2.26549">
        <ele>829.999858</ele>
        <time>2022-08-31T10:23:21.290Z</time>
      </trkpt>
      <trkpt lat="41.21687" lon="-2.26559">
        <ele>829.925666</ele>
        <time>2022-08-31T10:23:31.808Z</time>
      </trkpt>
      <trkpt lat="41.21674" lon="-2.26573">
        <ele>830.0583</ele>
        <time>2022-08-31T10:23:35.136Z</time>
      </trkpt>
      <trkpt lat="41.2166" lon="-2.26608">
        <ele>830.615953</ele>
        <time>2022-08-31T10:23:42.708Z</time>
      </trkpt>
      <trkpt lat="41.21659" lon="-2.26624">
        <ele>830.843172</ele>
        <time>2022-08-31T10:23:46.323Z</time>
      </trkpt>
      <trkpt lat="41.21666" lon="-2.26647">
        <ele>831.199295</ele>
        <time>2022-08-31T10:23:51.649Z</time>
      </trkpt>
      <trkpt lat="41.21694" lon="-2.26673">
        <ele>831.852263</ele>
        <time>2022-08-31T10:24:02.468Z</time>
      </trkpt>
      <trkpt lat="41.2172" lon="-2.26689">
        <ele>832.396448</ele>
        <time>2022-08-31T10:24:13.111Z</time>
      </trkpt>
      <trkpt lat="41.21726" lon="-2.26697">
        <ele>832.551758</ele>
        <time>2022-08-31T10:24:15.228Z</time>
      </trkpt>
      <trkpt lat="41.21727" lon="-2.26713">
        <ele>832.782177</ele>
        <time>2022-08-31T10:24:19.175Z</time>
      </trkpt>
      <trkpt lat="41.21706" lon="-2.26855">
        <ele>835.460442</ele>
        <time>2022-08-31T10:25:04.604Z</time>
      </trkpt>
      <trkpt lat="41.21601" lon="-2.26988">
        <ele>837.742117</ele>
        <time>2022-08-31T10:25:51.506Z</time>
      </trkpt>
      <trkpt lat="41.21566" lon="-2.27063">
        <ele>837.193765</ele>
        <time>2022-08-31T10:26:04.267Z</time>
      </trkpt>
      <trkpt lat="41.21551" lon="-2.27081">
        <ele>837.021974</ele>
        <time>2022-08-31T10:26:08.034Z</time>
      </trkpt>
      <trkpt lat="41.2153" lon="-2.27094">
        <ele>836.827299</ele>
        <time>2022-08-31T10:26:12.101Z</time>
      </trkpt>
      <trkpt lat="41.21497" lon="-2.27128">
        <ele>836.450933</ele>
        <time>2022-08-31T10:26:19.410Z</time>
      </trkpt>
      <trkpt lat="41.21492" lon="-2.27145">
        <ele>836.308048</ele>
        <time>2022-08-31T10:26:21.713Z</time>
      </trkpt>
      <trkpt lat="41.21475" lon="-2.27171">
        <ele>836.03955</ele>
        <time>2022-08-31T10:26:26.808Z</time>
      </trkpt>
      <trkpt lat="41.21465" lon="-2.27207">
        <ele>835.744404</ele>
        <time>2022-08-31T10:26:32.445Z</time>
      </trkpt>
      <trkpt lat="41.21494" lon="-2.27253">
        <ele>835.27562</ele>
        <time>2022-08-31T10:26:41.894Z</time>
      </trkpt>
      <trkpt lat="41.21488" lon="-2.27265">
        <ele>835.156076</ele>
        <time>2022-08-31T10:26:44.213Z</time>
      </trkpt>
      <trkpt lat="41.21446" lon="-2.27346">
        <ele>835.372624</ele>
        <time>2022-08-31T10:27:00.193Z</time>
      </trkpt>
      <trkpt lat="41.21441" lon="-2.27371">
        <ele>835.715415</ele>
        <time>2022-08-31T10:27:04.450Z</time>
      </trkpt>
      <trkpt lat="41.21435" lon="-2.27401">
        <ele>836.121818</ele>
        <time>2022-08-31T10:27:12.371Z</time>
      </trkpt>
      <trkpt lat="41.21414" lon="-2.27447">
        <ele>836.831054</ele>
        <time>2022-08-31T10:27:27.797Z</time>
      </trkpt>
      <trkpt lat="41.21405" lon="-2.27467">
        <ele>837.134127</ele>
        <time>2022-08-31T10:27:35.238Z</time>
      </trkpt>
      <trkpt lat="41.21405" lon="-2.27478">
        <ele>837.267934</ele>
        <time>2022-08-31T10:27:38.805Z</time>
      </trkpt>
      <trkpt lat="41.21414" lon="-2.27495">
        <ele>837.541793</ele>
        <time>2022-08-31T10:27:44.402Z</time>
      </trkpt>
      <trkpt lat="41.21358" lon="-2.27566">
        <ele>838.207061</ele>
        <time>2022-08-31T10:28:08.407Z</time>
      </trkpt>
      <trkpt lat="41.2131" lon="-2.2763">
        <ele>838.582563</ele>
        <time>2022-08-31T10:28:21.943Z</time>
      </trkpt>
      <trkpt lat="41.21293" lon="-2.27653">
        <ele>838.712385</ele>
        <time>2022-08-31T10:28:27.854Z</time>
      </trkpt>
      <trkpt lat="41.21277" lon="-2.27663">
        <ele>838.811662</ele>
        <time>2022-08-31T10:28:33.899Z</time>
      </trkpt>
      <trkpt lat="41.21274" lon="-2.27688">
        <ele>838.935057</ele>
        <time>2022-08-31T10:28:37.961Z</time>
      </trkpt>
      <trkpt lat="41.21273" lon="-2.27742">
        <ele>839.303251</ele>
        <time>2022-08-31T10:28:48.690Z</time>
      </trkpt>
      <trkpt lat="41.2128" lon="-2.27772">
        <ele>839.5114</ele>
        <time>2022-08-31T10:28:54.096Z</time>
      </trkpt>
      <trkpt lat="41.21294" lon="-2.27824">
        <ele>839.887485</ele>
        <time>2022-08-31T10:29:09.991Z</time>
      </trkpt>
      <trkpt lat="41.21303" lon="-2.27927">
        <ele>840.820586</ele>
        <time>2022-08-31T10:29:43.920Z</time>
      </trkpt>
      <trkpt lat="41.21293" lon="-2.28008">
        <ele>842.686067</ele>
        <time>2022-08-31T10:30:18.491Z</time>
      </trkpt>
      <trkpt lat="41.21294" lon="-2.28015">
        <ele>842.836627</ele>
        <time>2022-08-31T10:30:20.670Z</time>
      </trkpt>
      <trkpt lat="41.21297" lon="-2.28034">
        <ele>843.268181</ele>
        <time>2022-08-31T10:30:28.328Z</time>
      </trkpt>
      <trkpt lat="41.21279" lon="-2.28087">
        <ele>844.586418</ele>
        <time>2022-08-31T10:30:51.045Z</time>
      </trkpt>
      <trkpt lat="41.21247" lon="-2.28136">
        <ele>846.072219</ele>
        <time>2022-08-31T10:31:17.006Z</time>
      </trkpt>
      <trkpt lat="41.21228" lon="-2.28147">
        <ele>846.75529</ele>
        <time>2022-08-31T10:31:28.831Z</time>
      </trkpt>
      <trkpt lat="41.21205" lon="-2.28175">
        <ele>847.777932</ele>
        <time>2022-08-31T10:31:45.945Z</time>
      </trkpt>
      <trkpt lat="41.21069" lon="-2.28258">
        <ele>851.818564</ele>
        <time>2022-08-31T10:33:06.800Z</time>
      </trkpt>
      <trkpt lat="41.20973" lon="-2.28296">
        <ele>851.853578</ele>
        <time>2022-08-31T10:33:48.205Z</time>
      </trkpt>
      <trkpt lat="41.2093" lon="-2.28305">
        <ele>851.868768</ele>
        <time>2022-08-31T10:34:02.109Z</time>
      </trkpt>
      <trkpt lat="41.20914" lon="-2.28316">
        <ele>851.537461</ele>
        <time>2022-08-31T10:34:07.629Z</time>
      </trkpt>
      <trkpt lat="41.20903" lon="-2.28341">
        <ele>850.646004</ele>
        <time>2022-08-31T10:34:14.073Z</time>
      </trkpt>
      <trkpt lat="41.2084" lon="-2.2839">
        <ele>847.704378</ele>
        <time>2022-08-31T10:34:34.894Z</time>
      </trkpt>
      <trkpt lat="41.20745" lon="-2.28436">
        <ele>844.943776</ele>
        <time>2022-08-31T10:35:04.711Z</time>
      </trkpt>
      <trkpt lat="41.20737" lon="-2.28446">
        <ele>845.081788</ele>
        <time>2022-08-31T10:35:08.938Z</time>
      </trkpt>
      <trkpt lat="41.20719" lon="-2.28502">
        <ele>845.691377</ele>
        <time>2022-08-31T10:35:28.553Z</time>
      </trkpt>
      <trkpt lat="41.20708" lon="-2.2851">
        <ele>845.852854</ele>
        <time>2022-08-31T10:35:33.591Z</time>
      </trkpt>
      <trkpt lat="41.20658" lon="-2.28544">
        <ele>846.604119</ele>
        <time>2022-08-31T10:36:03.688Z</time>
      </trkpt>
      <trkpt lat="41.20624" lon="-2.28565">
        <ele>847.272146</ele>
        <time>2022-08-31T10:36:25.833Z</time>
      </trkpt>
      <trkpt lat="41.20602" lon="-2.28605">
        <ele>848.713519</ele>
        <time>2022-08-31T10:36:49.555Z</time>
      </trkpt>
      <trkpt lat="41.20584" lon="-2.28619">
        <ele>849.483124</ele>
        <time>2022-08-31T10:37:02.113Z</time>
      </trkpt>
      <trkpt lat="41.2057" lon="-2.2864">
        <ele>850.294056</ele>
        <time>2022-08-31T10:37:16.081Z</time>
      </trkpt>
      <trkpt lat="41.20495" lon="-2.28796">
        <ele>854.281445</ele>
        <time>2022-08-31T10:38:28.303Z</time>
      </trkpt>
      <trkpt lat="41.20459" lon="-2.2882">
        <ele>854.681265</ele>
        <time>2022-08-31T10:38:44.591Z</time>
      </trkpt>
      <trkpt lat="41.2044" lon="-2.28846">
        <ele>854.952372</ele>
        <time>2022-08-31T10:38:55.218Z</time>
      </trkpt>
      <trkpt lat="41.20406" lon="-2.28852">
        <ele>855.289306</ele>
        <time>2022-08-31T10:39:07.938Z</time>
      </trkpt>
      <trkpt lat="41.20347" lon="-2.28885">
        <ele>855.540347</ele>
        <time>2022-08-31T10:39:31.509Z</time>
      </trkpt>
      <trkpt lat="41.20299" lon="-2.2896">
        <ele>855.387323</ele>
        <time>2022-08-31T10:39:58.162Z</time>
      </trkpt>
      <trkpt lat="41.20289" lon="-2.28991">
        <ele>855.336373</ele>
        <time>2022-08-31T10:40:07.019Z</time>
      </trkpt>
      <trkpt lat="41.20283" lon="-2.29051">
        <ele>855.241371</ele>
        <time>2022-08-31T10:40:23.813Z</time>
      </trkpt>
      <trkpt lat="41.20276" lon="-2.29072">
        <ele>855.328271</ele>
        <time>2022-08-31T10:40:29.940Z</time>
      </trkpt>
      <trkpt lat="41.20253" lon="-2.29109">
        <ele>855.566647</ele>
        <time>2022-08-31T10:40:44.142Z</time>
      </trkpt>
      <trkpt lat="41.20202" lon="-2.29217">
        <ele>856.190213</ele>
        <time>2022-08-31T10:41:24.887Z</time>
      </trkpt>
      <trkpt lat="41.20097" lon="-2.29291">
        <ele>854.255394</ele>
        <time>2022-08-31T10:42:12.144Z</time>
      </trkpt>
      <trkpt lat="41.20056" lon="-2.29342">
        <ele>852.859962</ele>
        <time>2022-08-31T10:42:28.486Z</time>
      </trkpt>
      <trkpt lat="41.19999" lon="-2.29399">
        <ele>850.108408</ele>
        <time>2022-08-31T10:42:48.611Z</time>
      </trkpt>
      <trkpt lat="41.20016" lon="-2.2943">
        <ele>848.564626</ele>
        <time>2022-08-31T10:42:56.507Z</time>
      </trkpt>
      <trkpt lat="41.20033" lon="-2.29457">
        <ele>847.145117</ele>
        <time>2022-08-31T10:43:03.729Z</time>
      </trkpt>
      <trkpt lat="41.20154" lon="-2.29663">
        <ele>839.566785</ele>
        <time>2022-08-31T10:44:01.534Z</time>
      </trkpt>
      <trkpt lat="41.20021" lon="-2.29794">
        <ele>838.250319</ele>
        <time>2022-08-31T10:44:39.308Z</time>
      </trkpt>
      <trkpt lat="41.19929" lon="-2.29911">
        <ele>839.5047</ele>
        <time>2022-08-31T10:45:15.091Z</time>
      </trkpt>
      <trkpt lat="41.19805" lon="-2.30039">
        <ele>842.328466</ele>
        <time>2022-08-31T10:46:05.751Z</time>
      </trkpt>
      <trkpt lat="41.19517" lon="-2.3032">
        <ele>848.68466</ele>
        <time>2022-08-31T10:47:57.040Z</time>
      </trkpt>
      <trkpt lat="41.19501" lon="-2.30348">
        <ele>849.069329</ele>
        <time>2022-08-31T10:48:04.910Z</time>
      </trkpt>
      <trkpt lat="41.1949" lon="-2.30383">
        <ele>849.485326</ele>
        <time>2022-08-31T10:48:13.382Z</time>
      </trkpt>
      <trkpt lat="41.19479" lon="-2.30444">
        <ele>850.161658</ele>
        <time>2022-08-31T10:48:27.379Z</time>
      </trkpt>
      <trkpt lat="41.19448" lon="-2.3062">
        <ele>851.752332</ele>
        <time>2022-08-31T10:49:06.484Z</time>
      </trkpt>
      <trkpt lat="41.19417" lon="-2.30778">
        <ele>852.813907</ele>
        <time>2022-08-31T10:49:38.137Z</time>
      </trkpt>
      <trkpt lat="41.1938" lon="-2.30859">
        <ele>853.159452</ele>
        <time>2022-08-31T10:49:55.292Z</time>
      </trkpt>
      <trkpt lat="41.19277" lon="-2.30987">
        <ele>854.389713</ele>
        <time>2022-08-31T10:50:29.925Z</time>
      </trkpt>
      <trkpt lat="41.19257" lon="-2.31031">
        <ele>855.005231</ele>
        <time>2022-08-31T10:50:39.950Z</time>
      </trkpt>
      <trkpt lat="41.19246" lon="-2.31082">
        <ele>855.641121</ele>
        <time>2022-08-31T10:50:51.575Z</time>
      </trkpt>
      <trkpt lat="41.19249" lon="-2.31139">
        <ele>856.333336</ele>
        <time>2022-08-31T10:51:06.721Z</time>
      </trkpt>
      <trkpt lat="41.19263" lon="-2.31183">
        <ele>857.347045</ele>
        <time>2022-08-31T10:51:21.348Z</time>
      </trkpt>
      <trkpt lat="41.19283" lon="-2.3122">
        <ele>858.492714</ele>
        <time>2022-08-31T10:51:36.869Z</time>
      </trkpt>
      <trkpt lat="41.193" lon="-2.3124">
        <ele>859.252465</ele>
        <time>2022-08-31T10:51:46.632Z</time>
      </trkpt>
      <trkpt lat="41.19402" lon="-2.31318">
        <ele>862.578489</ele>
        <time>2022-08-31T10:52:31.384Z</time>
      </trkpt>
      <trkpt lat="41.19444" lon="-2.31375">
        <ele>862.904476</ele>
        <time>2022-08-31T10:52:49.831Z</time>
      </trkpt>
      <trkpt lat="41.19501" lon="-2.31544">
        <ele>863.246066</ele>
        <time>2022-08-31T10:53:17.833Z</time>
      </trkpt>
      <trkpt lat="41.19502" lon="-2.31568">
        <ele>863.15913</ele>
        <time>2022-08-31T10:53:21.183Z</time>
      </trkpt>
      <trkpt lat="41.19496" lon="-2.31593">
        <ele>863.062363</ele>
        <time>2022-08-31T10:53:24.986Z</time>
      </trkpt>
      <trkpt lat="41.19477" lon="-2.31634">
        <ele>862.88231</ele>
        <time>2022-08-31T10:53:32.427Z</time>
      </trkpt>
      <trkpt lat="41.19449" lon="-2.31676">
        <ele>862.67764</ele>
        <time>2022-08-31T10:53:41.604Z</time>
      </trkpt>
      <trkpt lat="41.19421" lon="-2.31704">
        <ele>862.699673</ele>
        <time>2022-08-31T10:53:50.384Z</time>
      </trkpt>
      <trkpt lat="41.19404" lon="-2.31714">
        <ele>862.927922</ele>
        <time>2022-08-31T10:53:55.437Z</time>
      </trkpt>
      <trkpt lat="41.19182" lon="-2.3166">
        <ele>865.448003</ele>
        <time>2022-08-31T10:55:01.320Z</time>
      </trkpt>
      <trkpt lat="41.1915" lon="-2.3166">
        <ele>865.759906</ele>
        <time>2022-08-31T10:55:09.389Z</time>
      </trkpt>
      <trkpt lat="41.19131" lon="-2.31674">
        <ele>865.968241</ele>
        <time>2022-08-31T10:55:14.333Z</time>
      </trkpt>
      <trkpt lat="41.19124" lon="-2.31707">
        <ele>866.216943</ele>
        <time>2022-08-31T10:55:20.364Z</time>
      </trkpt>
      <trkpt lat="41.19133" lon="-2.31743">
        <ele>866.638843</ele>
        <time>2022-08-31T10:55:26.729Z</time>
      </trkpt>
      <trkpt lat="41.19182" lon="-2.31801">
        <ele>870.036449</ele>
        <time>2022-08-31T10:55:48.119Z</time>
      </trkpt>
      <trkpt lat="41.19189" lon="-2.31816">
        <ele>870.715757</ele>
        <time>2022-08-31T10:55:54.688Z</time>
      </trkpt>
      <trkpt lat="41.19194" lon="-2.3185">
        <ele>872.043887</ele>
        <time>2022-08-31T10:56:05.555Z</time>
      </trkpt>
      <trkpt lat="41.19195" lon="-2.31945">
        <ele>875.773252</ele>
        <time>2022-08-31T10:56:51.973Z</time>
      </trkpt>
      <trkpt lat="41.1919" lon="-2.31965">
        <ele>877.151394</ele>
        <time>2022-08-31T10:57:05.132Z</time>
      </trkpt>
      <trkpt lat="41.19137" lon="-2.32089">
        <ele>886.491363</ele>
        <time>2022-08-31T10:58:24.713Z</time>
      </trkpt>
      <trkpt lat="41.19133" lon="-2.3212">
        <ele>888.56748</ele>
        <time>2022-08-31T10:58:39.752Z</time>
      </trkpt>
      <trkpt lat="41.19151" lon="-2.32191">
        <ele>891.540755</ele>
        <time>2022-08-31T10:59:09.869Z</time>
      </trkpt>
      <trkpt lat="41.19165" lon="-2.32303">
        <ele>892.31854</ele>
        <time>2022-08-31T10:59:34.608Z</time>
      </trkpt>
      <trkpt lat="41.19161" lon="-2.32441">
        <ele>892.659264</ele>
        <time>2022-08-31T10:59:52.657Z</time>
      </trkpt>
      <trkpt lat="41.19182" lon="-2.32528">
        <ele>892.062827</ele>
        <time>2022-08-31T11:00:05.575Z</time>
      </trkpt>
      <trkpt lat="41.19203" lon="-2.32651">
        <ele>891.82486</ele>
        <time>2022-08-31T11:00:28.272Z</time>
      </trkpt>
      <trkpt lat="41.1921" lon="-2.32766">
        <ele>893.95905</ele>
        <time>2022-08-31T11:00:59.119Z</time>
      </trkpt>
      <trkpt lat="41.19229" lon="-2.328">
        <ele>894.735263</ele>
        <time>2022-08-31T11:01:12.351Z</time>
      </trkpt>
      <trkpt lat="41.19256" lon="-2.3283">
        <ele>895.597716</ele>
        <time>2022-08-31T11:01:25.670Z</time>
      </trkpt>
      <trkpt lat="41.19298" lon="-2.32846">
        <ele>896.311236</ele>
        <time>2022-08-31T11:01:41.149Z</time>
      </trkpt>
      <trkpt lat="41.19323" lon="-2.32862">
        <ele>896.714171</ele>
        <time>2022-08-31T11:01:49.752Z</time>
      </trkpt>
      <trkpt lat="41.1934" lon="-2.32887">
        <ele>897.085123</ele>
        <time>2022-08-31T11:01:58.616Z</time>
      </trkpt>
      <trkpt lat="41.19363" lon="-2.32939">
        <ele>897.747925</ele>
        <time>2022-08-31T11:02:10.731Z</time>
      </trkpt>
      <trkpt lat="41.1938" lon="-2.33072">
        <ele>898.009931</ele>
        <time>2022-08-31T11:02:34.596Z</time>
      </trkpt>
      <trkpt lat="41.19379" lon="-2.33105">
        <ele>897.829214</ele>
        <time>2022-08-31T11:02:38.932Z</time>
      </trkpt>
      <trkpt lat="41.19361" lon="-2.33218">
        <ele>897.185871</ele>
        <time>2022-08-31T11:02:55.838Z</time>
      </trkpt>
      <trkpt lat="41.19358" lon="-2.33255">
        <ele>897.104765</ele>
        <time>2022-08-31T11:03:02.371Z</time>
      </trkpt>
      <trkpt lat="41.19361" lon="-2.3327">
        <ele>897.113241</ele>
        <time>2022-08-31T11:03:04.371Z</time>
      </trkpt>
      <trkpt lat="41.19422" lon="-2.33447">
        <ele>897.226334</ele>
        <time>2022-08-31T11:03:38.708Z</time>
      </trkpt>
      <trkpt lat="41.19442" lon="-2.3348">
        <ele>897.267066</ele>
        <time>2022-08-31T11:03:47.499Z</time>
      </trkpt>
      <trkpt lat="41.19531" lon="-2.33581">
        <ele>897.433302</ele>
        <time>2022-08-31T11:04:16.088Z</time>
      </trkpt>
      <trkpt lat="41.19578" lon="-2.33644">
        <ele>897.282653</ele>
        <time>2022-08-31T11:04:29.491Z</time>
      </trkpt>
      <trkpt lat="41.1964" lon="-2.33722">
        <ele>896.68465</ele>
        <time>2022-08-31T11:04:46.290Z</time>
      </trkpt>
      <trkpt lat="41.19669" lon="-2.3378">
        <ele>896.322229</ele>
        <time>2022-08-31T11:04:57.152Z</time>
      </trkpt>
      <trkpt lat="41.19689" lon="-2.33838">
        <ele>896.634055</ele>
        <time>2022-08-31T11:05:07.392Z</time>
      </trkpt>
      <trkpt lat="41.19731" lon="-2.34003">
        <ele>898.118178</ele>
        <time>2022-08-31T11:05:45.330Z</time>
      </trkpt>
      <trkpt lat="41.19757" lon="-2.34072">
        <ele>899.25425</ele>
        <time>2022-08-31T11:06:06.249Z</time>
      </trkpt>
      <trkpt lat="41.19804" lon="-2.34151">
        <ele>900.906016</ele>
        <time>2022-08-31T11:06:32.479Z</time>
      </trkpt>
      <trkpt lat="41.1988" lon="-2.34251">
        <ele>903.600572</ele>
        <time>2022-08-31T11:07:06.142Z</time>
      </trkpt>
      <trkpt lat="41.19908" lon="-2.3431">
        <ele>905.166236</ele>
        <time>2022-08-31T11:07:22.711Z</time>
      </trkpt>
      <trkpt lat="41.19919" lon="-2.34344">
        <ele>905.997243</ele>
        <time>2022-08-31T11:07:32.983Z</time>
      </trkpt>
      <trkpt lat="41.19935" lon="-2.34464">
        <ele>909.777241</ele>
        <time>2022-08-31T11:08:14.596Z</time>
      </trkpt>
      <trkpt lat="41.1995" lon="-2.34674">
        <ele>918.208345</ele>
        <time>2022-08-31T11:09:41.318Z</time>
      </trkpt>
      <trkpt lat="41.19944" lon="-2.34859">
        <ele>921.961925</ele>
        <time>2022-08-31T11:10:32.052Z</time>
      </trkpt>
      <trkpt lat="41.19935" lon="-2.34927">
        <ele>922.134244</ele>
        <time>2022-08-31T11:10:42.300Z</time>
      </trkpt>
      <trkpt lat="41.19926" lon="-2.34953">
        <ele>921.830468</ele>
        <time>2022-08-31T11:10:46.047Z</time>
      </trkpt>
      <trkpt lat="41.19915" lon="-2.34972">
        <ele>921.577468</ele>
        <time>2022-08-31T11:10:49.568Z</time>
      </trkpt>
      <trkpt lat="41.1989" lon="-2.34994">
        <ele>921.152766</ele>
        <time>2022-08-31T11:10:55.402Z</time>
      </trkpt>
      <trkpt lat="41.19876" lon="-2.34997">
        <ele>920.953582</ele>
        <time>2022-08-31T11:10:57.871Z</time>
      </trkpt>
      <trkpt lat="41.19786" lon="-2.34992">
        <ele>919.892204</ele>
        <time>2022-08-31T11:11:14.297Z</time>
      </trkpt>
      <trkpt lat="41.19772" lon="-2.34999">
        <ele>919.810397</ele>
        <time>2022-08-31T11:11:17.136Z</time>
      </trkpt>
      <trkpt lat="41.19753" lon="-2.35019">
        <ele>919.676824</ele>
        <time>2022-08-31T11:11:22.223Z</time>
      </trkpt>
      <trkpt lat="41.19737" lon="-2.35045">
        <ele>919.538172</ele>
        <time>2022-08-31T11:11:27.328Z</time>
      </trkpt>
      <trkpt lat="41.19655" lon="-2.35308">
        <ele>920.541227</ele>
        <time>2022-08-31T11:12:16.672Z</time>
      </trkpt>
      <trkpt lat="41.19566" lon="-2.3568">
        <ele>928.39239</ele>
        <time>2022-08-31T11:14:11.894Z</time>
      </trkpt>
      <trkpt lat="41.19551" lon="-2.35758">
        <ele>929.67884</ele>
        <time>2022-08-31T11:14:27.476Z</time>
      </trkpt>
      <trkpt lat="41.19556" lon="-2.35822">
        <ele>930.696265</ele>
        <time>2022-08-31T11:14:43.461Z</time>
      </trkpt>
      <trkpt lat="41.19574" lon="-2.35865">
        <ele>931.430318</ele>
        <time>2022-08-31T11:14:56.440Z</time>
      </trkpt>
      <trkpt lat="41.19621" lon="-2.35904">
        <ele>932.473541</ele>
        <time>2022-08-31T11:15:13.366Z</time>
      </trkpt>
      <trkpt lat="41.1968" lon="-2.35923">
        <ele>933.623425</ele>
        <time>2022-08-31T11:15:33.068Z</time>
      </trkpt>
      <trkpt lat="41.19691" lon="-2.3592">
        <ele>933.830258</ele>
        <time>2022-08-31T11:15:35.902Z</time>
      </trkpt>
      <trkpt lat="41.19704" lon="-2.35904">
        <ele>934.165629</ele>
        <time>2022-08-31T11:15:42.193Z</time>
      </trkpt>
      <trkpt lat="41.19718" lon="-2.359">
        <ele>934.394815</ele>
        <time>2022-08-31T11:15:46.632Z</time>
      </trkpt>
      <trkpt lat="41.1982" lon="-2.35944">
        <ele>934.509166</ele>
        <time>2022-08-31T11:16:18.757Z</time>
      </trkpt>
      <trkpt lat="41.19997" lon="-2.36009">
        <ele>932.508376</ele>
        <time>2022-08-31T11:16:51.940Z</time>
      </trkpt>
      <trkpt lat="41.20016" lon="-2.36025">
        <ele>932.087333</ele>
        <time>2022-08-31T11:16:56.210Z</time>
      </trkpt>
      <trkpt lat="41.2002" lon="-2.3603">
        <ele>931.987776</ele>
        <time>2022-08-31T11:16:57.190Z</time>
      </trkpt>
      <trkpt lat="41.20039" lon="-2.3606">
        <ele>931.45157</ele>
        <time>2022-08-31T11:17:02.723Z</time>
      </trkpt>
      <trkpt lat="41.20084" lon="-2.36175">
        <ele>931.345811</ele>
        <time>2022-08-31T11:17:22.879Z</time>
      </trkpt>
      <trkpt lat="41.20121" lon="-2.36281">
        <ele>931.411495</ele>
        <time>2022-08-31T11:17:45.968Z</time>
      </trkpt>
      <trkpt lat="41.20144" lon="-2.3636">
        <ele>932.215858</ele>
        <time>2022-08-31T11:18:03.899Z</time>
      </trkpt>
      <trkpt lat="41.20148" lon="-2.36388">
        <ele>932.504278</ele>
        <time>2022-08-31T11:18:10.068Z</time>
      </trkpt>
      <trkpt lat="41.20144" lon="-2.36465">
        <ele>933.291425</ele>
        <time>2022-08-31T11:18:27.527Z</time>
      </trkpt>
      <trkpt lat="41.2013" lon="-2.3652">
        <ele>933.898932</ele>
        <time>2022-08-31T11:18:40.920Z</time>
      </trkpt>
      <trkpt lat="41.20111" lon="-2.36569">
        <ele>934.662021</ele>
        <time>2022-08-31T11:18:53.165Z</time>
      </trkpt>
      <trkpt lat="41.20073" lon="-2.3669">
        <ele>936.498611</ele>
        <time>2022-08-31T11:19:23.586Z</time>
      </trkpt>
      <trkpt lat="41.20067" lon="-2.372">
        <ele>945.925424</ele>
        <time>2022-08-31T11:21:36.848Z</time>
      </trkpt>
      <trkpt lat="41.2006" lon="-2.3728">
        <ele>948.279876</ele>
        <time>2022-08-31T11:21:58.012Z</time>
      </trkpt>
      <trkpt lat="41.20042" lon="-2.37377">
        <ele>951.448155</ele>
        <time>2022-08-31T11:22:32.639Z</time>
      </trkpt>
      <trkpt lat="41.20015" lon="-2.37461">
        <ele>954.331116</ele>
        <time>2022-08-31T11:23:05.445Z</time>
      </trkpt>
      <trkpt lat="41.19973" lon="-2.37548">
        <ele>957.634166</ele>
        <time>2022-08-31T11:23:43.109Z</time>
      </trkpt>
      <trkpt lat="41.19873" lon="-2.37702">
        <ele>962.511064</ele>
        <time>2022-08-31T11:24:42.450Z</time>
      </trkpt>
      <trkpt lat="41.19832" lon="-2.37785">
        <ele>963.771907</ele>
        <time>2022-08-31T11:25:00.830Z</time>
      </trkpt>
      <trkpt lat="41.19813" lon="-2.37837">
        <ele>964.515262</ele>
        <time>2022-08-31T11:25:12.596Z</time>
      </trkpt>
      <trkpt lat="41.19713" lon="-2.38523">
        <ele>973.370753</ele>
        <time>2022-08-31T11:27:54.333Z</time>
      </trkpt>
      <trkpt lat="41.19715" lon="-2.38626">
        <ele>975.050168</ele>
        <time>2022-08-31T11:28:19.277Z</time>
      </trkpt>
      <trkpt lat="41.19743" lon="-2.38832">
        <ele>978.374317</ele>
        <time>2022-08-31T11:29:13.831Z</time>
      </trkpt>
      <trkpt lat="41.19748" lon="-2.3891">
        <ele>979.423717</ele>
        <time>2022-08-31T11:29:30.083Z</time>
      </trkpt>
      <trkpt lat="41.19743" lon="-2.38984">
        <ele>980.410225</ele>
        <time>2022-08-31T11:29:44.511Z</time>
      </trkpt>
      <trkpt lat="41.19717" lon="-2.39114">
        <ele>983.105749</ele>
        <time>2022-08-31T11:30:23.040Z</time>
      </trkpt>
      <trkpt lat="41.19706" lon="-2.39165">
        <ele>984.257275</ele>
        <time>2022-08-31T11:30:36.035Z</time>
      </trkpt>
      <trkpt lat="41.19698" lon="-2.39198">
        <ele>985.013003</ele>
        <time>2022-08-31T11:30:45.499Z</time>
      </trkpt>
      <trkpt lat="41.19674" lon="-2.39254">
        <ele>986.464798</ele>
        <time>2022-08-31T11:31:04.331Z</time>
      </trkpt>
      <trkpt lat="41.19649" lon="-2.39293">
        <ele>987.730699</ele>
        <time>2022-08-31T11:31:22.616Z</time>
      </trkpt>
      <trkpt lat="41.19623" lon="-2.39331">
        <ele>989.005493</ele>
        <time>2022-08-31T11:31:41.453Z</time>
      </trkpt>
      <trkpt lat="41.1956" lon="-2.39421">
        <ele>991.954481</ele>
        <time>2022-08-31T11:32:13.134Z</time>
      </trkpt>
      <trkpt lat="41.19375" lon="-2.39698">
        <ele>994.171518</ele>
        <time>2022-08-31T11:33:27.986Z</time>
      </trkpt>
      <trkpt lat="41.19321" lon="-2.39796">
        <ele>994.158731</ele>
        <time>2022-08-31T11:33:46.917Z</time>
      </trkpt>
      <trkpt lat="41.19293" lon="-2.39833">
        <ele>993.630634</ele>
        <time>2022-08-31T11:33:54.672Z</time>
      </trkpt>
      <trkpt lat="41.19236" lon="-2.39874">
        <ele>992.762148</ele>
        <time>2022-08-31T11:34:06.940Z</time>
      </trkpt>
      <trkpt lat="41.19137" lon="-2.39901">
        <ele>991.746549</ele>
        <time>2022-08-31T11:34:25.848Z</time>
      </trkpt>
      <trkpt lat="41.19107" lon="-2.39925">
        <ele>991.572472</ele>
        <time>2022-08-31T11:34:33.127Z</time>
      </trkpt>
      <trkpt lat="41.19075" lon="-2.39964">
        <ele>991.356704</ele>
        <time>2022-08-31T11:34:42.672Z</time>
      </trkpt>
      <trkpt lat="41.19042" lon="-2.39999">
        <ele>991.145668</ele>
        <time>2022-08-31T11:34:51.983Z</time>
      </trkpt>
      <trkpt lat="41.18997" lon="-2.40032">
        <ele>991.24812</ele>
        <time>2022-08-31T11:35:04.149Z</time>
      </trkpt>
      <trkpt lat="41.18979" lon="-2.40053">
        <ele>991.399872</ele>
        <time>2022-08-31T11:35:10.045Z</time>
      </trkpt>
      <trkpt lat="41.18973" lon="-2.4007">
        <ele>991.491028</ele>
        <time>2022-08-31T11:35:13.963Z</time>
      </trkpt>
      <trkpt lat="41.18959" lon="-2.40075">
        <ele>991.582077</ele>
        <time>2022-08-31T11:35:17.843Z</time>
      </trkpt>
      <trkpt lat="41.18948" lon="-2.40062">
        <ele>991.674825</ele>
        <time>2022-08-31T11:35:22.216Z</time>
      </trkpt>
      <trkpt lat="41.18947" lon="-2.40058">
        <ele>991.696456</ele>
        <time>2022-08-31T11:35:23.210Z</time>
      </trkpt>
      <trkpt lat="41.18925" lon="-2.40055">
        <ele>991.835745</ele>
        <time>2022-08-31T11:35:29.767Z</time>
      </trkpt>
      <trkpt lat="41.18786" lon="-2.4014">
        <ele>992.519806</ele>
        <time>2022-08-31T11:36:06.384Z</time>
      </trkpt>
      <trkpt lat="41.18736" lon="-2.40144">
        <ele>992.691341</ele>
        <time>2022-08-31T11:36:17.991Z</time>
      </trkpt>
      <trkpt lat="41.18539" lon="-2.40059">
        <ele>993.709677</ele>
        <time>2022-08-31T11:37:07.155Z</time>
      </trkpt>
      <trkpt lat="41.18355" lon="-2.39964">
        <ele>997.130858</ele>
        <time>2022-08-31T11:38:10.848Z</time>
      </trkpt>
      <trkpt lat="41.18247" lon="-2.39901">
        <ele>998.963659</ele>
        <time>2022-08-31T11:38:47.754Z</time>
      </trkpt>
      <trkpt lat="41.18168" lon="-2.39881">
        <ele>999.886758</ele>
        <time>2022-08-31T11:39:09.484Z</time>
      </trkpt>
      <trkpt lat="41.1807" lon="-2.39898">
        <ele>1000.350467</ele>
        <time>2022-08-31T11:39:33.200Z</time>
      </trkpt>
      <trkpt lat="41.17967" lon="-2.39925">
        <ele>1000.606729</ele>
        <time>2022-08-31T11:39:57.736Z</time>
      </trkpt>
      <trkpt lat="41.17903" lon="-2.39959">
        <ele>1000.635263</ele>
        <time>2022-08-31T11:40:13.295Z</time>
      </trkpt>
      <trkpt lat="41.17873" lon="-2.39991">
        <ele>1000.651205</ele>
        <time>2022-08-31T11:40:21.647Z</time>
      </trkpt>
      <trkpt lat="41.17839" lon="-2.40039">
        <ele>1000.668049</ele>
        <time>2022-08-31T11:40:32.448Z</time>
      </trkpt>
      <trkpt lat="41.17788" lon="-2.40137">
        <ele>1000.694227</ele>
        <time>2022-08-31T11:40:51.828Z</time>
      </trkpt>
      <trkpt lat="41.1775" lon="-2.40236">
        <ele>1000.945026</ele>
        <time>2022-08-31T11:41:12.022Z</time>
      </trkpt>
      <trkpt lat="41.17697" lon="-2.40451">
        <ele>1002.452781</ele>
        <time>2022-08-31T11:41:59.178Z</time>
      </trkpt>
      <trkpt lat="41.17641" lon="-2.40684">
        <ele>1003.744199</ele>
        <time>2022-08-31T11:42:45.527Z</time>
      </trkpt>
      <trkpt lat="41.17626" lon="-2.40724">
        <ele>1004.007999</ele>
        <time>2022-08-31T11:42:53.905Z</time>
      </trkpt>
      <trkpt lat="41.17577" lon="-2.40806">
        <ele>1004.631764</ele>
        <time>2022-08-31T11:43:14.877Z</time>
      </trkpt>
      <trkpt lat="41.17478" lon="-2.40909">
        <ele>1005.544286</ele>
        <time>2022-08-31T11:43:48.769Z</time>
      </trkpt>
      <trkpt lat="41.17448" lon="-2.40978">
        <ele>1005.964202</ele>
        <time>2022-08-31T11:44:04.195Z</time>
      </trkpt>
      <trkpt lat="41.17437" lon="-2.41025">
        <ele>1006.222069</ele>
        <time>2022-08-31T11:44:13.193Z</time>
      </trkpt>
      <trkpt lat="41.17434" lon="-2.41054">
        <ele>1006.251973</ele>
        <time>2022-08-31T11:44:18.471Z</time>
      </trkpt>
      <trkpt lat="41.17441" lon="-2.41202">
        <ele>1006.246455</ele>
        <time>2022-08-31T11:44:43.065Z</time>
      </trkpt>
      <trkpt lat="41.17438" lon="-2.41288">
        <ele>1006.26988</ele>
        <time>2022-08-31T11:44:57.241Z</time>
      </trkpt>
      <trkpt lat="41.17424" lon="-2.41366">
        <ele>1006.377401</ele>
        <time>2022-08-31T11:45:10.644Z</time>
      </trkpt>
      <trkpt lat="41.17411" lon="-2.41404">
        <ele>1006.433389</ele>
        <time>2022-08-31T11:45:17.833Z</time>
      </trkpt>
      <trkpt lat="41.17387" lon="-2.41449">
        <ele>1006.506761</ele>
        <time>2022-08-31T11:45:27.430Z</time>
      </trkpt>
      <trkpt lat="41.17248" lon="-2.41673">
        <ele>1007.888534</ele>
        <time>2022-08-31T11:46:23.593Z</time>
      </trkpt>
      <trkpt lat="41.17139" lon="-2.41827">
        <ele>1009.307788</ele>
        <time>2022-08-31T11:47:07.080Z</time>
      </trkpt>
      <trkpt lat="41.1714" lon="-2.41863">
        <ele>1009.493312</ele>
        <time>2022-08-31T11:47:13.869Z</time>
      </trkpt>
      <trkpt lat="41.17152" lon="-2.41873">
        <ele>1009.555254</ele>
        <time>2022-08-31T11:47:17.379Z</time>
      </trkpt>
      <trkpt lat="41.17155" lon="-2.41878">
        <ele>1009.575374</ele>
        <time>2022-08-31T11:47:18.524Z</time>
      </trkpt>
      <trkpt lat="41.17158" lon="-2.41898">
        <ele>1009.644538</ele>
        <time>2022-08-31T11:47:22.292Z</time>
      </trkpt>
      <trkpt lat="41.17148" lon="-2.41922">
        <ele>1009.735825</ele>
        <time>2022-08-31T11:47:27.267Z</time>
      </trkpt>
      <trkpt lat="41.17127" lon="-2.41928">
        <ele>1009.824733</ele>
        <time>2022-08-31T11:47:31.925Z</time>
      </trkpt>
      <trkpt lat="41.17111" lon="-2.41911">
        <ele>1009.913968</ele>
        <time>2022-08-31T11:47:36.662Z</time>
      </trkpt>
      <trkpt lat="41.17102" lon="-2.41901">
        <ele>1009.966701</ele>
        <time>2022-08-31T11:47:39.402Z</time>
      </trkpt>
      <trkpt lat="41.17087" lon="-2.41895">
        <ele>1010.034904</ele>
        <time>2022-08-31T11:47:43.012Z</time>
      </trkpt>
      <trkpt lat="41.17063" lon="-2.41906">
        <ele>1010.145943</ele>
        <time>2022-08-31T11:47:49.165Z</time>
      </trkpt>
      <trkpt lat="41.17004" lon="-2.41976">
        <ele>1011.154487</ele>
        <time>2022-08-31T11:48:09.897Z</time>
      </trkpt>
      <trkpt lat="41.1698" lon="-2.42017">
        <ele>1011.74022</ele>
        <time>2022-08-31T11:48:21.591Z</time>
      </trkpt>
      <trkpt lat="41.16981" lon="-2.42039">
        <ele>1011.989442</ele>
        <time>2022-08-31T11:48:27.172Z</time>
      </trkpt>
      <trkpt lat="41.1699" lon="-2.42048">
        <ele>1012.165055</ele>
        <time>2022-08-31T11:48:31.149Z</time>
      </trkpt>
      <trkpt lat="41.16996" lon="-2.4207">
        <ele>1012.427313</ele>
        <time>2022-08-31T11:48:37.121Z</time>
      </trkpt>
      <trkpt lat="41.16991" lon="-2.42091">
        <ele>1012.678466</ele>
        <time>2022-08-31T11:48:42.632Z</time>
      </trkpt>
      <trkpt lat="41.16976" lon="-2.42105">
        <ele>1012.956513</ele>
        <time>2022-08-31T11:48:48.907Z</time>
      </trkpt>
      <trkpt lat="41.16956" lon="-2.42101">
        <ele>1013.174364</ele>
        <time>2022-08-31T11:48:55.172Z</time>
      </trkpt>
      <trkpt lat="41.16927" lon="-2.42106">
        <ele>1013.495792</ele>
        <time>2022-08-31T11:49:04.320Z</time>
      </trkpt>
      <trkpt lat="41.16902" lon="-2.42113">
        <ele>1013.773626</ele>
        <time>2022-08-31T11:49:11.943Z</time>
      </trkpt>
      <trkpt lat="41.1688" lon="-2.42111">
        <ele>1014.016154</ele>
        <time>2022-08-31T11:49:18.438Z</time>
      </trkpt>
      <trkpt lat="41.1687" lon="-2.42107">
        <ele>1014.129264</ele>
        <time>2022-08-31T11:49:21.167Z</time>
      </trkpt>
      <trkpt lat="41.16794" lon="-2.42078">
        <ele>1014.88904</ele>
        <time>2022-08-31T11:49:39.973Z</time>
      </trkpt>
      <trkpt lat="41.16755" lon="-2.42079">
        <ele>1014.852562</ele>
        <time>2022-08-31T11:49:48.644Z</time>
      </trkpt>
      <trkpt lat="41.16718" lon="-2.42092">
        <ele>1014.817096</ele>
        <time>2022-08-31T11:49:56.652Z</time>
      </trkpt>
      <trkpt lat="41.16657" lon="-2.42136">
        <ele>1014.752767</ele>
        <time>2022-08-31T11:50:11.422Z</time>
      </trkpt>
      <trkpt lat="41.16612" lon="-2.42169">
        <ele>1014.816665</ele>
        <time>2022-08-31T11:50:23.636Z</time>
      </trkpt>
      <trkpt lat="41.16549" lon="-2.42214">
        <ele>1015.046021</ele>
        <time>2022-08-31T11:50:40.757Z</time>
      </trkpt>
      <trkpt lat="41.16489" lon="-2.42255">
        <ele>1015.265242</ele>
        <time>2022-08-31T11:50:57.542Z</time>
      </trkpt>
      <trkpt lat="41.16463" lon="-2.42262">
        <ele>1015.298219</ele>
        <time>2022-08-31T11:51:03.660Z</time>
      </trkpt>
      <trkpt lat="41.16433" lon="-2.42268">
        <ele>1015.274263</ele>
        <time>2022-08-31T11:51:11.068Z</time>
      </trkpt>
      <trkpt lat="41.1641" lon="-2.42272">
        <ele>1015.256819</ele>
        <time>2022-08-31T11:51:16.086Z</time>
      </trkpt>
      <trkpt lat="41.16348" lon="-2.42279">
        <ele>1015.208633</ele>
        <time>2022-08-31T11:51:29.532Z</time>
      </trkpt>
      <trkpt lat="41.16289" lon="-2.42274">
        <ele>1015.168702</ele>
        <time>2022-08-31T11:51:42.034Z</time>
      </trkpt>
      <trkpt lat="41.16195" lon="-2.42257">
        <ele>1015.164737</ele>
        <time>2022-08-31T11:52:02.749Z</time>
      </trkpt>
      <trkpt lat="41.16138" lon="-2.42248">
        <ele>1015.162343</ele>
        <time>2022-08-31T11:52:16.032Z</time>
      </trkpt>
      <trkpt lat="41.16083" lon="-2.42253">
        <ele>1015.297449</ele>
        <time>2022-08-31T11:52:29.160Z</time>
      </trkpt>
      <trkpt lat="41.16024" lon="-2.42285">
        <ele>1015.536931</ele>
        <time>2022-08-31T11:52:44.606Z</time>
      </trkpt>
      <trkpt lat="41.15955" lon="-2.4233">
        <ele>1015.827286</ele>
        <time>2022-08-31T11:53:03.328Z</time>
      </trkpt>
      <trkpt lat="41.15922" lon="-2.42344">
        <ele>1016.073963</ele>
        <time>2022-08-31T11:53:12.009Z</time>
      </trkpt>
      <trkpt lat="41.15893" lon="-2.42359">
        <ele>1016.30508</ele>
        <time>2022-08-31T11:53:19.613Z</time>
      </trkpt>
      <trkpt lat="41.1582" lon="-2.42384">
        <ele>1016.866496</ele>
        <time>2022-08-31T11:53:38.570Z</time>
      </trkpt>
      <trkpt lat="41.15793" lon="-2.42402">
        <ele>1017.088941</ele>
        <time>2022-08-31T11:53:46.555Z</time>
      </trkpt>
      <trkpt lat="41.15719" lon="-2.42454">
        <ele>1018.32798</ele>
        <time>2022-08-31T11:54:12.027Z</time>
      </trkpt>
      <trkpt lat="41.15703" lon="-2.42463">
        <ele>1018.609179</ele>
        <time>2022-08-31T11:54:17.685Z</time>
      </trkpt>
      <trkpt lat="41.15607" lon="-2.42531">
        <ele>1020.256221</ele>
        <time>2022-08-31T11:54:51.384Z</time>
      </trkpt>
      <trkpt lat="41.15479" lon="-2.42662">
        <ele>1021.931639</ele>
        <time>2022-08-31T11:55:35.114Z</time>
      </trkpt>
      <trkpt lat="41.14988" lon="-2.43178">
        <ele>1025.944199</ele>
        <time>2022-08-31T11:58:14.532Z</time>
      </trkpt>
      <trkpt lat="41.14936" lon="-2.43234">
        <ele>1026.326252</ele>
        <time>2022-08-31T11:58:31.425Z</time>
      </trkpt>
      <trkpt lat="41.14882" lon="-2.4328">
        <ele>1026.396704</ele>
        <time>2022-08-31T11:58:46.808Z</time>
      </trkpt>
      <trkpt lat="41.14795" lon="-2.43345">
        <ele>1026.176263</ele>
        <time>2022-08-31T11:59:07.897Z</time>
      </trkpt>
      <trkpt lat="41.1471" lon="-2.43406">
        <ele>1025.925081</ele>
        <time>2022-08-31T11:59:28.058Z</time>
      </trkpt>
      <trkpt lat="41.14559" lon="-2.43514">
        <ele>1025.757736</ele>
        <time>2022-08-31T12:00:05.114Z</time>
      </trkpt>
      <trkpt lat="41.14348" lon="-2.43666">
        <ele>1027.187873</ele>
        <time>2022-08-31T12:01:07.029Z</time>
      </trkpt>
      <trkpt lat="41.14213" lon="-2.43731">
        <ele>1028.318223</ele>
        <time>2022-08-31T12:01:45.366Z</time>
      </trkpt>
      <trkpt lat="41.14144" lon="-2.43775">
        <ele>1028.923645</ele>
        <time>2022-08-31T12:02:05.407Z</time>
      </trkpt>
      <trkpt lat="41.13932" lon="-2.43939">
        <ele>1030.52564</ele>
        <time>2022-08-31T12:03:07.552Z</time>
      </trkpt>
      <trkpt lat="41.13844" lon="-2.44075">
        <ele>1031.41119</ele>
        <time>2022-08-31T12:03:42.463Z</time>
      </trkpt>
      <trkpt lat="41.13649" lon="-2.44415">
        <ele>1032.948885</ele>
        <time>2022-08-31T12:05:00.540Z</time>
      </trkpt>
      <trkpt lat="41.13614" lon="-2.44463">
        <ele>1033.20496</ele>
        <time>2022-08-31T12:05:12.866Z</time>
      </trkpt>
      <trkpt lat="41.13568" lon="-2.44503">
        <ele>1033.977999</ele>
        <time>2022-08-31T12:05:28.307Z</time>
      </trkpt>
      <trkpt lat="41.13517" lon="-2.44529">
        <ele>1034.752634</ele>
        <time>2022-08-31T12:05:44.632Z</time>
      </trkpt>
      <trkpt lat="41.13482" lon="-2.44536">
        <ele>1035.249157</ele>
        <time>2022-08-31T12:05:55.338Z</time>
      </trkpt>
      <trkpt lat="41.13467" lon="-2.44649">
        <ele>1036.449154</ele>
        <time>2022-08-31T12:06:22.471Z</time>
      </trkpt>
      <trkpt lat="41.13472" lon="-2.44678">
        <ele>1036.759472</ele>
        <time>2022-08-31T12:06:29.188Z</time>
      </trkpt>
      <trkpt lat="41.13497" lon="-2.44744">
        <ele>1037.523787</ele>
        <time>2022-08-31T12:06:46.116Z</time>
      </trkpt>
      <trkpt lat="41.13504" lon="-2.4478">
        <ele>1037.906406</ele>
        <time>2022-08-31T12:06:54.007Z</time>
      </trkpt>
      <trkpt lat="41.13433" lon="-2.45001">
        <ele>1039.143629</ele>
        <time>2022-08-31T12:07:38.532Z</time>
      </trkpt>
      <trkpt lat="41.1343" lon="-2.45047">
        <ele>1039.425694</ele>
        <time>2022-08-31T12:07:47.239Z</time>
      </trkpt>
      <trkpt lat="41.13442" lon="-2.45115">
        <ele>1040.071134</ele>
        <time>2022-08-31T12:08:00.792Z</time>
      </trkpt>
      <trkpt lat="41.1347" lon="-2.45169">
        <ele>1040.677746</ele>
        <time>2022-08-31T12:08:14.364Z</time>
      </trkpt>
      <trkpt lat="41.13533" lon="-2.45258">
        <ele>1042.1091</ele>
        <time>2022-08-31T12:08:43.256Z</time>
      </trkpt>
      <trkpt lat="41.13555" lon="-2.453">
        <ele>1043.035274</ele>
        <time>2022-08-31T12:08:56.305Z</time>
      </trkpt>
      <trkpt lat="41.13621" lon="-2.45499">
        <ele>1046.530189</ele>
        <time>2022-08-31T12:09:54.430Z</time>
      </trkpt>
      <trkpt lat="41.13622" lon="-2.45669">
        <ele>1048.567798</ele>
        <time>2022-08-31T12:10:31.328Z</time>
      </trkpt>
      <trkpt lat="41.13619" lon="-2.45717">
        <ele>1048.662758</ele>
        <time>2022-08-31T12:10:40.213Z</time>
      </trkpt>
      <trkpt lat="41.13609" lon="-2.45737">
        <ele>1048.686642</ele>
        <time>2022-08-31T12:10:44.570Z</time>
      </trkpt>
      <trkpt lat="41.13608" lon="-2.45738">
        <ele>1048.688635</ele>
        <time>2022-08-31T12:10:44.938Z</time>
      </trkpt>
      <trkpt lat="41.13584" lon="-2.45762">
        <ele>1048.72943</ele>
        <time>2022-08-31T12:10:51.905Z</time>
      </trkpt>
      <trkpt lat="41.13536" lon="-2.45812">
        <ele>1048.812631</ele>
        <time>2022-08-31T12:11:05.159Z</time>
      </trkpt>
      <trkpt lat="41.13503" lon="-2.45862">
        <ele>1048.938967</ele>
        <time>2022-08-31T12:11:15.532Z</time>
      </trkpt>
      <trkpt lat="41.13463" lon="-2.45904">
        <ele>1049.219548</ele>
        <time>2022-08-31T12:11:27.037Z</time>
      </trkpt>
      <trkpt lat="41.13457" lon="-2.45919">
        <ele>1049.292829</ele>
        <time>2022-08-31T12:11:30.481Z</time>
      </trkpt>
      <trkpt lat="41.13443" lon="-2.45978">
        <ele>1049.548083</ele>
        <time>2022-08-31T12:11:43.371Z</time>
      </trkpt>
      <trkpt lat="41.13404" lon="-2.46208">
        <ele>1050.687727</ele>
        <time>2022-08-31T12:12:30.476Z</time>
      </trkpt>
      <trkpt lat="41.13414" lon="-2.46366">
        <ele>1051.542368</ele>
        <time>2022-08-31T12:12:59.060Z</time>
      </trkpt>
      <trkpt lat="41.13392" lon="-2.46483">
        <ele>1052.22589</ele>
        <time>2022-08-31T12:13:21.856Z</time>
      </trkpt>
      <trkpt lat="41.13377" lon="-2.46535">
        <ele>1052.761956</ele>
        <time>2022-08-31T12:13:33.678Z</time>
      </trkpt>
      <trkpt lat="41.13223" lon="-2.46877">
        <ele>1060.049862</ele>
        <time>2022-08-31T12:15:19.754Z</time>
      </trkpt>
      <trkpt lat="41.13203" lon="-2.46944">
        <ele>1061.368563</ele>
        <time>2022-08-31T12:15:38.282Z</time>
      </trkpt>
      <trkpt lat="41.13185" lon="-2.47041">
        <ele>1062.772864</ele>
        <time>2022-08-31T12:16:02.700Z</time>
      </trkpt>
      <trkpt lat="41.13186" lon="-2.47122">
        <ele>1063.906598</ele>
        <time>2022-08-31T12:16:21.167Z</time>
      </trkpt>
      <trkpt lat="41.13197" lon="-2.4721">
        <ele>1065.034072</ele>
        <time>2022-08-31T12:16:41.655Z</time>
      </trkpt>
      <trkpt lat="41.13195" lon="-2.47326">
        <ele>1066.332588</ele>
        <time>2022-08-31T12:17:07.509Z</time>
      </trkpt>
      <trkpt lat="41.13201" lon="-2.47352">
        <ele>1066.639452</ele>
        <time>2022-08-31T12:17:13.455Z</time>
      </trkpt>
      <trkpt lat="41.13227" lon="-2.47402">
        <ele>1067.319088</ele>
        <time>2022-08-31T12:17:26.619Z</time>
      </trkpt>
      <trkpt lat="41.13235" lon="-2.4743">
        <ele>1067.692134</ele>
        <time>2022-08-31T12:17:33.394Z</time>
      </trkpt>
      <trkpt lat="41.13226" lon="-2.47602">
        <ele>1069.799465</ele>
        <time>2022-08-31T12:18:12.729Z</time>
      </trkpt>
      <trkpt lat="41.13232" lon="-2.47697">
        <ele>1070.927619</ele>
        <time>2022-08-31T12:18:35.468Z</time>
      </trkpt>
      <trkpt lat="41.13241" lon="-2.47729">
        <ele>1071.337448</ele>
        <time>2022-08-31T12:18:43.527Z</time>
      </trkpt>
      <trkpt lat="41.13273" lon="-2.47778">
        <ele>1072.105797</ele>
        <time>2022-08-31T12:18:58.445Z</time>
      </trkpt>
      <trkpt lat="41.13284" lon="-2.47822">
        <ele>1072.643803</ele>
        <time>2022-08-31T12:19:08.488Z</time>
      </trkpt>
      <trkpt lat="41.13272" lon="-2.4793">
        <ele>1073.077854</ele>
        <time>2022-08-31T12:19:31.453Z</time>
      </trkpt>
      <trkpt lat="41.13275" lon="-2.47959">
        <ele>1073.119988</ele>
        <time>2022-08-31T12:19:36.940Z</time>
      </trkpt>
      <trkpt lat="41.13291" lon="-2.48014">
        <ele>1073.206235</ele>
        <time>2022-08-31T12:19:46.581Z</time>
      </trkpt>
      <trkpt lat="41.13282" lon="-2.48083">
        <ele>1073.294297</ele>
        <time>2022-08-31T12:19:57.188Z</time>
      </trkpt>
      <trkpt lat="41.13271" lon="-2.48148">
        <ele>1073.071326</ele>
        <time>2022-08-31T12:20:07.264Z</time>
      </trkpt>
      <trkpt lat="41.13258" lon="-2.48167">
        <ele>1072.980793</ele>
        <time>2022-08-31T12:20:11.509Z</time>
      </trkpt>
      <trkpt lat="41.13213" lon="-2.48188">
        <ele>1072.769398</ele>
        <time>2022-08-31T12:20:21.254Z</time>
      </trkpt>
      <trkpt lat="41.13184" lon="-2.48202">
        <ele>1072.631551</ele>
        <time>2022-08-31T12:20:27.859Z</time>
      </trkpt>
      <trkpt lat="41.13167" lon="-2.4822">
        <ele>1072.534366</ele>
        <time>2022-08-31T12:20:32.440Z</time>
      </trkpt>
      <trkpt lat="41.13161" lon="-2.48241">
        <ele>1072.579599</ele>
        <time>2022-08-31T12:20:36.203Z</time>
      </trkpt>
      <trkpt lat="41.13166" lon="-2.48271">
        <ele>1072.796151</ele>
        <time>2022-08-31T12:20:41.463Z</time>
      </trkpt>
      <trkpt lat="41.13217" lon="-2.48392">
        <ele>1073.796744</ele>
        <time>2022-08-31T12:21:11.264Z</time>
      </trkpt>
      <trkpt lat="41.13329" lon="-2.48555">
        <ele>1075.625563</ele>
        <time>2022-08-31T12:21:59.621Z</time>
      </trkpt>
      <trkpt lat="41.13382" lon="-2.48681">
        <ele>1076.508787</ele>
        <time>2022-08-31T12:22:27.945Z</time>
      </trkpt>
      <trkpt lat="41.13448" lon="-2.48745">
        <ele>1076.860217</ele>
        <time>2022-08-31T12:22:47.269Z</time>
      </trkpt>
      <trkpt lat="41.13477" lon="-2.48785">
        <ele>1077.039376</ele>
        <time>2022-08-31T12:22:56.713Z</time>
      </trkpt>
      <trkpt lat="41.13536" lon="-2.48931">
        <ele>1078.261733</ele>
        <time>2022-08-31T12:23:26.547Z</time>
      </trkpt>
      <trkpt lat="41.1357" lon="-2.49061">
        <ele>1080.34526</ele>
        <time>2022-08-31T12:24:00.904Z</time>
      </trkpt>
      <trkpt lat="41.13572" lon="-2.4911">
        <ele>1081.611046</ele>
        <time>2022-08-31T12:24:15.522Z</time>
      </trkpt>
      <trkpt lat="41.13549" lon="-2.49331">
        <ele>1087.255302</ele>
        <time>2022-08-31T12:25:26.981Z</time>
      </trkpt>
      <trkpt lat="41.13535" lon="-2.49381">
        <ele>1088.569911</ele>
        <time>2022-08-31T12:25:43.338Z</time>
      </trkpt>
      <trkpt lat="41.13492" lon="-2.49483">
        <ele>1091.567947</ele>
        <time>2022-08-31T12:26:12.257Z</time>
      </trkpt>
      <trkpt lat="41.13482" lon="-2.49519">
        <ele>1092.761573</ele>
        <time>2022-08-31T12:26:22.698Z</time>
      </trkpt>
      <trkpt lat="41.13485" lon="-2.49541">
        <ele>1093.437741</ele>
        <time>2022-08-31T12:26:28.996Z</time>
      </trkpt>
      <trkpt lat="41.13493" lon="-2.49558">
        <ele>1094.064275</ele>
        <time>2022-08-31T12:26:34.652Z</time>
      </trkpt>
      <trkpt lat="41.13561" lon="-2.4962">
        <ele>1097.443543</ele>
        <time>2022-08-31T12:27:11.420Z</time>
      </trkpt>
      <trkpt lat="41.13562" lon="-2.49638">
        <ele>1097.996777</ele>
        <time>2022-08-31T12:27:20.238Z</time>
      </trkpt>
      <trkpt lat="41.13538" lon="-2.49747">
        <ele>1104.439518</ele>
        <time>2022-08-31T12:28:05.542Z</time>
      </trkpt>
      <trkpt lat="41.13516" lon="-2.49796">
        <ele>1107.782762</ele>
        <time>2022-08-31T12:28:33.698Z</time>
      </trkpt>
      <trkpt lat="41.1351" lon="-2.49813">
        <ele>1108.911015</ele>
        <time>2022-08-31T12:28:45.545Z</time>
      </trkpt>
      <trkpt lat="41.13502" lon="-2.49876">
        <ele>1112.667949</ele>
        <time>2022-08-31T12:29:18.968Z</time>
      </trkpt>
      <trkpt lat="41.13471" lon="-2.49943">
        <ele>1116.817221</ele>
        <time>2022-08-31T12:29:57.570Z</time>
      </trkpt>
      <trkpt lat="41.13443" lon="-2.49961">
        <ele>1119.004253</ele>
        <time>2022-08-31T12:30:15.578Z</time>
      </trkpt>
      <trkpt lat="41.13369" lon="-2.49955">
        <ele>1124.214412</ele>
        <time>2022-08-31T12:30:51.831Z</time>
      </trkpt>
      <trkpt lat="41.13283" lon="-2.49976">
        <ele>1129.319471</ele>
        <time>2022-08-31T12:31:36.188Z</time>
      </trkpt>
      <trkpt lat="41.1324" lon="-2.49965">
        <ele>1131.811905</ele>
        <time>2022-08-31T12:31:56.780Z</time>
      </trkpt>
      <trkpt lat="41.1321" lon="-2.49938">
        <ele>1133.873571</ele>
        <time>2022-08-31T12:32:15.565Z</time>
      </trkpt>
      <trkpt lat="41.13177" lon="-2.49867">
        <ele>1138.395222</ele>
        <time>2022-08-31T12:32:50.039Z</time>
      </trkpt>
      <trkpt lat="41.13156" lon="-2.49804">
        <ele>1142.493679</ele>
        <time>2022-08-31T12:33:19.652Z</time>
      </trkpt>
      <trkpt lat="41.13142" lon="-2.49782">
        <ele>1144.296911</ele>
        <time>2022-08-31T12:33:33.445Z</time>
      </trkpt>
      <trkpt lat="41.13119" lon="-2.49775">
        <ele>1146.155308</ele>
        <time>2022-08-31T12:33:49.024Z</time>
      </trkpt>
      <trkpt lat="41.13036" lon="-2.49784">
        <ele>1153.210425</ele>
        <time>2022-08-31T12:34:50.312Z</time>
      </trkpt>
      <trkpt lat="41.12994" lon="-2.49775">
        <ele>1157.062699</ele>
        <time>2022-08-31T12:35:19.955Z</time>
      </trkpt>
      <trkpt lat="41.12947" lon="-2.49743">
        <ele>1161.850748</ele>
        <time>2022-08-31T12:35:56.047Z</time>
      </trkpt>
      <trkpt lat="41.12874" lon="-2.49663">
        <ele>1169.154403</ele>
        <time>2022-08-31T12:36:53.649Z</time>
      </trkpt>
      <trkpt lat="41.12847" lon="-2.49655">
        <ele>1170.959917</ele>
        <time>2022-08-31T12:37:09.961Z</time>
      </trkpt>
      <trkpt lat="41.12827" lon="-2.49671">
        <ele>1172.490468</ele>
        <time>2022-08-31T12:37:23.848Z</time>
      </trkpt>
      <trkpt lat="41.1282" lon="-2.49699">
        <ele>1173.949808</ele>
        <time>2022-08-31T12:37:34.586Z</time>
      </trkpt>
      <trkpt lat="41.12844" lon="-2.49818">
        <ele>1179.332932</ele>
        <time>2022-08-31T12:38:19.134Z</time>
      </trkpt>
      <trkpt lat="41.12844" lon="-2.49866">
        <ele>1180.973707</ele>
        <time>2022-08-31T12:38:35.820Z</time>
      </trkpt>
      <trkpt lat="41.12797" lon="-2.49972">
        <ele>1185.188462</ele>
        <time>2022-08-31T12:39:18.532Z</time>
      </trkpt>
      <trkpt lat="41.12724" lon="-2.50079">
        <ele>1187.315102</ele>
        <time>2022-08-31T12:39:59.060Z</time>
      </trkpt>
      <trkpt lat="41.12582" lon="-2.50178">
        <ele>1187.908701</ele>
        <time>2022-08-31T12:40:32.984Z</time>
      </trkpt>
      <trkpt lat="41.12563" lon="-2.50214">
        <ele>1187.593942</ele>
        <time>2022-08-31T12:40:39.389Z</time>
      </trkpt>
      <trkpt lat="41.12543" lon="-2.50288">
        <ele>1187.024897</ele>
        <time>2022-08-31T12:40:50.943Z</time>
      </trkpt>
      <trkpt lat="41.12538" lon="-2.50329">
        <ele>1186.572795</ele>
        <time>2022-08-31T12:40:56.843Z</time>
      </trkpt>
      <trkpt lat="41.12548" lon="-2.50372">
        <ele>1185.943764</ele>
        <time>2022-08-31T12:41:03.183Z</time>
      </trkpt>
      <trkpt lat="41.12584" lon="-2.50442">
        <ele>1184.748018</ele>
        <time>2022-08-31T12:41:15.229Z</time>
      </trkpt>
      <trkpt lat="41.1259" lon="-2.50454">
        <ele>1184.550809</ele>
        <time>2022-08-31T12:41:17.200Z</time>
      </trkpt>
      <trkpt lat="41.12746" lon="-2.50744">
        <ele>1178.447177</ele>
        <time>2022-08-31T12:42:05.091Z</time>
      </trkpt>
      <trkpt lat="41.12772" lon="-2.51049">
        <ele>1173.158088</ele>
        <time>2022-08-31T12:42:47.313Z</time>
      </trkpt>
      <trkpt lat="41.12773" lon="-2.51097">
        <ele>1172.233009</ele>
        <time>2022-08-31T12:42:53.695Z</time>
      </trkpt>
      <trkpt lat="41.12775" lon="-2.51208">
        <ele>1169.705313</ele>
        <time>2022-08-31T12:43:08.057Z</time>
      </trkpt>
      <trkpt lat="41.12793" lon="-2.51348">
        <ele>1165.31519</ele>
        <time>2022-08-31T12:43:25.621Z</time>
      </trkpt>
      <trkpt lat="41.12796" lon="-2.5146">
        <ele>1161.426585</ele>
        <time>2022-08-31T12:43:39.187Z</time>
      </trkpt>
      <trkpt lat="41.12803" lon="-2.5157">
        <ele>1157.007159</ele>
        <time>2022-08-31T12:43:52.259Z</time>
      </trkpt>
      <trkpt lat="41.12802" lon="-2.51628">
        <ele>1154.669214</ele>
        <time>2022-08-31T12:43:59.053Z</time>
      </trkpt>
      <trkpt lat="41.12766" lon="-2.51815">
        <ele>1146.060903</ele>
        <time>2022-08-31T12:44:21.575Z</time>
      </trkpt>
      <trkpt lat="41.12723" lon="-2.51946">
        <ele>1138.934824</ele>
        <time>2022-08-31T12:44:37.851Z</time>
      </trkpt>
      <trkpt lat="41.12712" lon="-2.52078">
        <ele>1131.770092</ele>
        <time>2022-08-31T12:44:52.887Z</time>
      </trkpt>
      <trkpt lat="41.12691" lon="-2.52148">
        <ele>1127.386539</ele>
        <time>2022-08-31T12:45:01.183Z</time>
      </trkpt>
      <trkpt lat="41.12695" lon="-2.52195">
        <ele>1124.486857</ele>
        <time>2022-08-31T12:45:06.336Z</time>
      </trkpt>
      <trkpt lat="41.12733" lon="-2.52301">
        <ele>1117.321098</ele>
        <time>2022-08-31T12:45:19.170Z</time>
      </trkpt>
      <trkpt lat="41.12759" lon="-2.524">
        <ele>1112.061753</ele>
        <time>2022-08-31T12:45:30.963Z</time>
      </trkpt>
      <trkpt lat="41.12768" lon="-2.52423">
        <ele>1110.844268</ele>
        <time>2022-08-31T12:45:33.973Z</time>
      </trkpt>
      <trkpt lat="41.12836" lon="-2.52507">
        <ele>1105.181945</ele>
        <time>2022-08-31T12:45:48.282Z</time>
      </trkpt>
      <trkpt lat="41.1285" lon="-2.52534">
        <ele>1104.078761</ele>
        <time>2022-08-31T12:45:52.269Z</time>
      </trkpt>
      <trkpt lat="41.12897" lon="-2.52719">
        <ele>1099.310688</ele>
        <time>2022-08-31T12:46:17.501Z</time>
      </trkpt>
      <trkpt lat="41.1292" lon="-2.52772">
        <ele>1098.388382</ele>
        <time>2022-08-31T12:46:25.902Z</time>
      </trkpt>
      <trkpt lat="41.1305" lon="-2.53031">
        <ele>1095.783197</ele>
        <time>2022-08-31T12:47:12.869Z</time>
      </trkpt>
      <trkpt lat="41.13114" lon="-2.53192">
        <ele>1094.022713</ele>
        <time>2022-08-31T12:47:40.468Z</time>
      </trkpt>
      <trkpt lat="41.13132" lon="-2.53214">
        <ele>1093.474059</ele>
        <time>2022-08-31T12:47:45.285Z</time>
      </trkpt>
      <trkpt lat="41.13194" lon="-2.53241">
        <ele>1092.056442</ele>
        <time>2022-08-31T12:47:57.091Z</time>
      </trkpt>
      <trkpt lat="41.13209" lon="-2.53252">
        <ele>1091.667287</ele>
        <time>2022-08-31T12:48:00.116Z</time>
      </trkpt>
      <trkpt lat="41.13226" lon="-2.53287">
        <ele>1090.992587</ele>
        <time>2022-08-31T12:48:05.471Z</time>
      </trkpt>
      <trkpt lat="41.13276" lon="-2.53526">
        <ele>1083.068317</ele>
        <time>2022-08-31T12:48:35.649Z</time>
      </trkpt>
      <trkpt lat="41.13274" lon="-2.53612">
        <ele>1080.79837</ele>
        <time>2022-08-31T12:48:46.144Z</time>
      </trkpt>
      <trkpt lat="41.1326" lon="-2.53751">
        <ele>1077.111086</ele>
        <time>2022-08-31T12:49:04.269Z</time>
      </trkpt>
      <trkpt lat="41.13257" lon="-2.53839">
        <ele>1076.222338</ele>
        <time>2022-08-31T12:49:16.677Z</time>
      </trkpt>
      <trkpt lat="41.1324" lon="-2.5388">
        <ele>1075.804389</ele>
        <time>2022-08-31T12:49:23.634Z</time>
      </trkpt>
      <trkpt lat="41.13197" lon="-2.5394">
        <ele>1075.070057</ele>
        <time>2022-08-31T12:49:36.295Z</time>
      </trkpt>
      <trkpt lat="41.13184" lon="-2.53973">
        <ele>1074.882266</ele>
        <time>2022-08-31T12:49:42.096Z</time>
      </trkpt>
      <trkpt lat="41.13169" lon="-2.54203">
        <ele>1076.05413</ele>
        <time>2022-08-31T12:50:26.746Z</time>
      </trkpt>
      <trkpt lat="41.13162" lon="-2.54231">
        <ele>1076.370286</ele>
        <time>2022-08-31T12:50:34.269Z</time>
      </trkpt>
      <trkpt lat="41.13143" lon="-2.54254">
        <ele>1076.751417</ele>
        <time>2022-08-31T12:50:42.320Z</time>
      </trkpt>
      <trkpt lat="41.13132" lon="-2.54256">
        <ele>1076.913421</ele>
        <time>2022-08-31T12:50:46.494Z</time>
      </trkpt>
      <trkpt lat="41.13104" lon="-2.54248">
        <ele>1077.337156</ele>
        <time>2022-08-31T12:50:55.175Z</time>
      </trkpt>
      <trkpt lat="41.13088" lon="-2.54245">
        <ele>1077.572756</ele>
        <time>2022-08-31T12:51:01.432Z</time>
      </trkpt>
      <trkpt lat="41.13066" lon="-2.54251">
        <ele>1077.902702</ele>
        <time>2022-08-31T12:51:07.300Z</time>
      </trkpt>
      <trkpt lat="41.13045" lon="-2.54271">
        <ele>1078.279212</ele>
        <time>2022-08-31T12:51:14.769Z</time>
      </trkpt>
      <trkpt lat="41.13037" lon="-2.54289">
        <ele>1078.5098</ele>
        <time>2022-08-31T12:51:19.647Z</time>
      </trkpt>
      <trkpt lat="41.13036" lon="-2.5432">
        <ele>1078.392984</ele>
        <time>2022-08-31T12:51:25.032Z</time>
      </trkpt>
      <trkpt lat="41.13058" lon="-2.54398">
        <ele>1077.132095</ele>
        <time>2022-08-31T12:51:40.088Z</time>
      </trkpt>
      <trkpt lat="41.13058" lon="-2.54442">
        <ele>1076.459927</ele>
        <time>2022-08-31T12:51:45.871Z</time>
      </trkpt>
      <trkpt lat="41.1297" lon="-2.54833">
        <ele>1065.035165</ele>
        <time>2022-08-31T12:52:35.741Z</time>
      </trkpt>
      <trkpt lat="41.12909" lon="-2.55004">
        <ele>1060.159701</ele>
        <time>2022-08-31T12:53:00.030Z</time>
      </trkpt>
      <trkpt lat="41.12886" lon="-2.55051">
        <ele>1059.107046</ele>
        <time>2022-08-31T12:53:07.522Z</time>
      </trkpt>
      <trkpt lat="41.12847" lon="-2.55115">
        <ele>1057.555633</ele>
        <time>2022-08-31T12:53:18.614Z</time>
      </trkpt>
      <trkpt lat="41.12768" lon="-2.55209">
        <ele>1055.19653</ele>
        <time>2022-08-31T12:53:37.731Z</time>
      </trkpt>
      <trkpt lat="41.12688" lon="-2.5525">
        <ele>1053.551004</ele>
        <time>2022-08-31T12:53:53.552Z</time>
      </trkpt>
      <trkpt lat="41.12609" lon="-2.55329">
        <ele>1051.806995</ele>
        <time>2022-08-31T12:54:12.325Z</time>
      </trkpt>
      <trkpt lat="41.12516" lon="-2.55355">
        <ele>1050.265541</ele>
        <time>2022-08-31T12:54:30.223Z</time>
      </trkpt>
      <trkpt lat="41.12493" lon="-2.55371">
        <ele>1049.845386</ele>
        <time>2022-08-31T12:54:35.091Z</time>
      </trkpt>
      <trkpt lat="41.12413" lon="-2.55451">
        <ele>1047.954369</ele>
        <time>2022-08-31T12:54:53.726Z</time>
      </trkpt>
      <trkpt lat="41.12261" lon="-2.55646">
        <ele>1043.612143</ele>
        <time>2022-08-31T12:55:32.565Z</time>
      </trkpt>
      <trkpt lat="41.12206" lon="-2.55683">
        <ele>1042.300161</ele>
        <time>2022-08-31T12:55:43.494Z</time>
      </trkpt>
      <trkpt lat="41.12118" lon="-2.55786">
        <ele>1039.720286</ele>
        <time>2022-08-31T12:56:04.627Z</time>
      </trkpt>
      <trkpt lat="41.12088" lon="-2.55826">
        <ele>1038.788791</ele>
        <time>2022-08-31T12:56:12.351Z</time>
      </trkpt>
      <trkpt lat="41.1195" lon="-2.56056">
        <ele>1034.508012</ele>
        <time>2022-08-31T12:56:53.348Z</time>
      </trkpt>
      <trkpt lat="41.11942" lon="-2.56079">
        <ele>1034.125958</ele>
        <time>2022-08-31T12:56:56.795Z</time>
      </trkpt>
      <trkpt lat="41.1192" lon="-2.56242">
        <ele>1031.637246</ele>
        <time>2022-08-31T12:57:19.540Z</time>
      </trkpt>
      <trkpt lat="41.11893" lon="-2.56449">
        <ele>1029.576288</ele>
        <time>2022-08-31T12:57:49.728Z</time>
      </trkpt>
      <trkpt lat="41.1189" lon="-2.56574">
        <ele>1029.343116</ele>
        <time>2022-08-31T12:58:10.249Z</time>
      </trkpt>
      <trkpt lat="41.11868" lon="-2.56648">
        <ele>1029.436814</ele>
        <time>2022-08-31T12:58:25.216Z</time>
      </trkpt>
      <trkpt lat="41.11867" lon="-2.56793">
        <ele>1029.527533</ele>
        <time>2022-08-31T12:58:52.058Z</time>
      </trkpt>
      <trkpt lat="41.11886" lon="-2.57005">
        <ele>1029.389928</ele>
        <time>2022-08-31T12:59:27.024Z</time>
      </trkpt>
      <trkpt lat="41.11909" lon="-2.57154">
        <ele>1028.923815</ele>
        <time>2022-08-31T12:59:50.644Z</time>
      </trkpt>
      <trkpt lat="41.11943" lon="-2.57322">
        <ele>1028.375526</ele>
        <time>2022-08-31T13:00:18.652Z</time>
      </trkpt>
      <trkpt lat="41.11944" lon="-2.57357">
        <ele>1028.266185</ele>
        <time>2022-08-31T13:00:24.175Z</time>
      </trkpt>
      <trkpt lat="41.11931" lon="-2.57469">
        <ele>1027.766469</ele>
        <time>2022-08-31T13:00:42.109Z</time>
      </trkpt>
      <trkpt lat="41.11929" lon="-2.57569">
        <ele>1027.13998</ele>
        <time>2022-08-31T13:00:57.803Z</time>
      </trkpt>
      <trkpt lat="41.11888" lon="-2.57823">
        <ele>1024.902068</ele>
        <time>2022-08-31T13:01:35.506Z</time>
      </trkpt>
      <trkpt lat="41.11855" lon="-2.57976">
        <ele>1023.625104</ele>
        <time>2022-08-31T13:01:58.682Z</time>
      </trkpt>
      <trkpt lat="41.11853" lon="-2.57983">
        <ele>1023.578249</ele>
        <time>2022-08-31T13:01:59.830Z</time>
      </trkpt>
      <trkpt lat="41.11804" lon="-2.58171">
        <ele>1022.697383</ele>
        <time>2022-08-31T13:02:30.950Z</time>
      </trkpt>
      <trkpt lat="41.11772" lon="-2.58266">
        <ele>1022.753251</ele>
        <time>2022-08-31T13:02:48.851Z</time>
      </trkpt>
      <trkpt lat="41.11756" lon="-2.58337">
        <ele>1022.792884</ele>
        <time>2022-08-31T13:03:01.591Z</time>
      </trkpt>
      <trkpt lat="41.11671" lon="-2.58563">
        <ele>1024.744099</ele>
        <time>2022-08-31T13:03:52.955Z</time>
      </trkpt>
      <trkpt lat="41.1166" lon="-2.58636">
        <ele>1026.072238</ele>
        <time>2022-08-31T13:04:11.774Z</time>
      </trkpt>
      <trkpt lat="41.11611" lon="-2.58764">
        <ele>1028.657637</ele>
        <time>2022-08-31T13:04:51.188Z</time>
      </trkpt>
      <trkpt lat="41.1153" lon="-2.58931">
        <ele>1031.894535</ele>
        <time>2022-08-31T13:05:43.417Z</time>
      </trkpt>
      <trkpt lat="41.11418" lon="-2.5911">
        <ele>1033.236002</ele>
        <time>2022-08-31T13:06:30.335Z</time>
      </trkpt>
      <trkpt lat="41.11396" lon="-2.59132">
        <ele>1033.336531</ele>
        <time>2022-08-31T13:06:36.058Z</time>
      </trkpt>
      <trkpt lat="41.11205" lon="-2.59283">
        <ele>1030.493203</ele>
        <time>2022-08-31T13:07:17.700Z</time>
      </trkpt>
      <trkpt lat="41.11158" lon="-2.59329">
        <ele>1030.006843</ele>
        <time>2022-08-31T13:07:29.338Z</time>
      </trkpt>
      <trkpt lat="41.11109" lon="-2.5938">
        <ele>1029.489624</ele>
        <time>2022-08-31T13:07:42.366Z</time>
      </trkpt>
      <trkpt lat="41.10958" lon="-2.59484">
        <ele>1028.67402</ele>
        <time>2022-08-31T13:08:18.716Z</time>
      </trkpt>
      <trkpt lat="41.10768" lon="-2.59727">
        <ele>1027.519137</ele>
        <time>2022-08-31T13:09:13.226Z</time>
      </trkpt>
      <trkpt lat="41.10582" lon="-2.5998">
        <ele>1028.083163</ele>
        <time>2022-08-31T13:10:19.073Z</time>
      </trkpt>
      <trkpt lat="41.10546" lon="-2.60018">
        <ele>1028.193754</ele>
        <time>2022-08-31T13:10:28.938Z</time>
      </trkpt>
      <trkpt lat="41.10472" lon="-2.60101">
        <ele>1027.926416</ele>
        <time>2022-08-31T13:10:49.300Z</time>
      </trkpt>
      <trkpt lat="41.10383" lon="-2.60206">
        <ele>1027.388359</ele>
        <time>2022-08-31T13:11:14.792Z</time>
      </trkpt>
      <trkpt lat="41.10331" lon="-2.60254">
        <ele>1026.840569</ele>
        <time>2022-08-31T13:11:29.591Z</time>
      </trkpt>
      <trkpt lat="41.10316" lon="-2.60265">
        <ele>1026.696316</ele>
        <time>2022-08-31T13:11:33.073Z</time>
      </trkpt>
      <trkpt lat="41.10231" lon="-2.6032">
        <ele>1025.168502</ele>
        <time>2022-08-31T13:11:50.904Z</time>
      </trkpt>
      <trkpt lat="41.10132" lon="-2.6043">
        <ele>1020.451866</ele>
        <time>2022-08-31T13:12:12.032Z</time>
      </trkpt>
      <trkpt lat="41.10081" lon="-2.60464">
        <ele>1018.541425</ele>
        <time>2022-08-31T13:12:21.152Z</time>
      </trkpt>
      <trkpt lat="41.10051" lon="-2.60493">
        <ele>1017.363508</ele>
        <time>2022-08-31T13:12:27.404Z</time>
      </trkpt>
      <trkpt lat="41.09989" lon="-2.60549">
        <ele>1015.010964</ele>
        <time>2022-08-31T13:12:40.384Z</time>
      </trkpt>
      <trkpt lat="41.09929" lon="-2.60591">
        <ele>1013.477765</ele>
        <time>2022-08-31T13:12:53.063Z</time>
      </trkpt>
      <trkpt lat="41.09762" lon="-2.60708">
        <ele>1011.356502</ele>
        <time>2022-08-31T13:13:30.412Z</time>
      </trkpt>
      <trkpt lat="41.09588" lon="-2.60894">
        <ele>1010.295936</ele>
        <time>2022-08-31T13:14:16.772Z</time>
      </trkpt>
      <trkpt lat="41.09496" lon="-2.60995">
        <ele>1010.34298</ele>
        <time>2022-08-31T13:14:44.611Z</time>
      </trkpt>
      <trkpt lat="41.09412" lon="-2.61053">
        <ele>1010.965577</ele>
        <time>2022-08-31T13:15:08.695Z</time>
      </trkpt>
      <trkpt lat="41.09304" lon="-2.61172">
        <ele>1011.65429</ele>
        <time>2022-08-31T13:15:46.616Z</time>
      </trkpt>
      <trkpt lat="41.0916" lon="-2.61226">
        <ele>1011.283024</ele>
        <time>2022-08-31T13:16:19.833Z</time>
      </trkpt>
      <trkpt lat="41.09091" lon="-2.61261">
        <ele>1010.168914</ele>
        <time>2022-08-31T13:16:33.655Z</time>
      </trkpt>
      <trkpt lat="41.08993" lon="-2.61321">
        <ele>1008.577833</ele>
        <time>2022-08-31T13:16:52.802Z</time>
      </trkpt>
      <trkpt lat="41.08946" lon="-2.61342">
        <ele>1007.860379</ele>
        <time>2022-08-31T13:17:01.711Z</time>
      </trkpt>
      <trkpt lat="41.08537" lon="-2.61546">
        <ele>1005.125638</ele>
        <time>2022-08-31T13:18:34.318Z</time>
      </trkpt>
      <trkpt lat="41.08522" lon="-2.61563">
        <ele>1004.978529</ele>
        <time>2022-08-31T13:18:38.211Z</time>
      </trkpt>
      <trkpt lat="41.08416" lon="-2.61768">
        <ele>1003.99963</ele>
        <time>2022-08-31T13:19:15.655Z</time>
      </trkpt>
      <trkpt lat="41.08392" lon="-2.61808">
        <ele>1004.402424</ele>
        <time>2022-08-31T13:19:25.608Z</time>
      </trkpt>
      <trkpt lat="41.08331" lon="-2.61877">
        <ele>1005.233402</ele>
        <time>2022-08-31T13:19:49.854Z</time>
      </trkpt>
      <trkpt lat="41.08241" lon="-2.6213">
        <ele>1008.363098</ele>
        <time>2022-08-31T13:20:56.657Z</time>
      </trkpt>
      <trkpt lat="41.08216" lon="-2.62187">
        <ele>1008.04855</ele>
        <time>2022-08-31T13:21:07.639Z</time>
      </trkpt>
      <trkpt lat="41.08193" lon="-2.62224">
        <ele>1007.721438</ele>
        <time>2022-08-31T13:21:15.027Z</time>
      </trkpt>
      <trkpt lat="41.08147" lon="-2.62286">
        <ele>1007.127333</ele>
        <time>2022-08-31T13:21:27.662Z</time>
      </trkpt>
      <trkpt lat="41.08065" lon="-2.62368">
        <ele>1005.40832</ele>
        <time>2022-08-31T13:21:46.203Z</time>
      </trkpt>
      <trkpt lat="41.07918" lon="-2.62479">
        <ele>1002.160364</ele>
        <time>2022-08-31T13:22:17.012Z</time>
      </trkpt>
      <trkpt lat="41.07753" lon="-2.62649">
        <ele>999.406642</ele>
        <time>2022-08-31T13:22:56.989Z</time>
      </trkpt>
      <trkpt lat="41.07731" lon="-2.62674">
        <ele>999.156312</ele>
        <time>2022-08-31T13:23:03.050Z</time>
      </trkpt>
      <trkpt lat="41.07705" lon="-2.62746">
        <ele>998.645468</ele>
        <time>2022-08-31T13:23:15.797Z</time>
      </trkpt>
      <trkpt lat="41.07687" lon="-2.62771">
        <ele>998.658745</ele>
        <time>2022-08-31T13:23:21.795Z</time>
      </trkpt>
      <trkpt lat="41.07541" lon="-2.62883">
        <ele>999.017521</ele>
        <time>2022-08-31T13:24:01.922Z</time>
      </trkpt>
      <trkpt lat="41.07452" lon="-2.62978">
        <ele>999.435993</ele>
        <time>2022-08-31T13:24:29.218Z</time>
      </trkpt>
      <trkpt lat="41.07411" lon="-2.63012">
        <ele>999.611099</ele>
        <time>2022-08-31T13:24:40.820Z</time>
      </trkpt>
      <trkpt lat="41.07349" lon="-2.631">
        <ele>999.942983</ele>
        <time>2022-08-31T13:25:02.690Z</time>
      </trkpt>
      <trkpt lat="41.07295" lon="-2.63167">
        <ele>1000.21515</ele>
        <time>2022-08-31T13:25:19.609Z</time>
      </trkpt>
      <trkpt lat="41.07245" lon="-2.63262">
        <ele>1001.668649</ele>
        <time>2022-08-31T13:25:42.167Z</time>
      </trkpt>
      <trkpt lat="41.07209" lon="-2.63349">
        <ele>1003.222501</ele>
        <time>2022-08-31T13:26:06.621Z</time>
      </trkpt>
      <trkpt lat="41.0719" lon="-2.63383">
        <ele>1003.869566</ele>
        <time>2022-08-31T13:26:19.331Z</time>
      </trkpt>
      <trkpt lat="41.07139" lon="-2.63451">
        <ele>1006.282305</ele>
        <time>2022-08-31T13:26:52.323Z</time>
      </trkpt>
      <trkpt lat="41.07117" lon="-2.6347">
        <ele>1007.198017</ele>
        <time>2022-08-31T13:27:05.570Z</time>
      </trkpt>
      <trkpt lat="41.07056" lon="-2.63513">
        <ele>1009.591741</ele>
        <time>2022-08-31T13:27:33.147Z</time>
      </trkpt>
      <trkpt lat="41.07041" lon="-2.63532">
        <ele>1010.231027</ele>
        <time>2022-08-31T13:27:39.078Z</time>
      </trkpt>
      <trkpt lat="41.07032" lon="-2.63582">
        <ele>1009.429881</ele>
        <time>2022-08-31T13:27:48.165Z</time>
      </trkpt>
      <trkpt lat="41.07032" lon="-2.63611">
        <ele>1008.986738</ele>
        <time>2022-08-31T13:27:52.665Z</time>
      </trkpt>
      <trkpt lat="41.0705" lon="-2.63685">
        <ele>1007.776513</ele>
        <time>2022-08-31T13:28:02.938Z</time>
      </trkpt>
      <trkpt lat="41.07073" lon="-2.63792">
        <ele>1005.695043</ele>
        <time>2022-08-31T13:28:16.530Z</time>
      </trkpt>
      <trkpt lat="41.07072" lon="-2.63836">
        <ele>1004.521012</ele>
        <time>2022-08-31T13:28:21.762Z</time>
      </trkpt>
      <trkpt lat="41.07065" lon="-2.63879">
        <ele>1003.338068</ele>
        <time>2022-08-31T13:28:27.165Z</time>
      </trkpt>
      <trkpt lat="41.07052" lon="-2.6392">
        <ele>1002.133072</ele>
        <time>2022-08-31T13:28:32.820Z</time>
      </trkpt>
      <trkpt lat="41.07023" lon="-2.64016">
        <ele>999.797763</ele>
        <time>2022-08-31T13:28:46.863Z</time>
      </trkpt>
      <trkpt lat="41.07085" lon="-2.64053">
        <ele>998.683414</ele>
        <time>2022-08-31T13:28:59.871Z</time>
      </trkpt>
      <trkpt lat="41.07068" lon="-2.64102">
        <ele>998.0217</ele>
        <time>2022-08-31T13:29:10.249Z</time>
      </trkpt>
      <trkpt lat="41.0702" lon="-2.64259">
        <ele>996.618146</ele>
        <time>2022-08-31T13:29:43.377Z</time>
      </trkpt>
      <trkpt lat="41.07008" lon="-2.64294">
        <ele>996.395944</ele>
        <time>2022-08-31T13:29:51.660Z</time>
      </trkpt>
      <trkpt lat="41.06935" lon="-2.64369">
        <ele>995.731125</ele>
        <time>2022-08-31T13:30:18.198Z</time>
      </trkpt>
      <trkpt lat="41.06896" lon="-2.64409">
        <ele>995.449874</ele>
        <time>2022-08-31T13:30:28.925Z</time>
      </trkpt>
      <trkpt lat="41.06896" lon="-2.64409">
        <ele>995.446731</ele>
        <time>2022-08-31T13:30:29.081Z</time>
      </trkpt>
      <trkpt lat="41.06889" lon="-2.64418">
        <ele>995.391038</ele>
        <time>2022-08-31T13:30:31.198Z</time>
      </trkpt>
      <trkpt lat="41.06842" lon="-2.64483">
        <ele>994.999985</ele>
        <time>2022-08-31T13:30:45.772Z</time>
      </trkpt>
      <trkpt lat="41.06823" lon="-2.64509">
        <ele>994.846932</ele>
        <time>2022-08-31T13:30:51.254Z</time>
      </trkpt>
      <trkpt lat="41.06711" lon="-2.6462">
        <ele>992.14874</ele>
        <time>2022-08-31T13:31:16.308Z</time>
      </trkpt>
      <trkpt lat="41.06702" lon="-2.64629">
        <ele>991.916709</ele>
        <time>2022-08-31T13:31:18.412Z</time>
      </trkpt>
      <trkpt lat="41.06694" lon="-2.64636">
        <ele>991.736</ele>
        <time>2022-08-31T13:31:20.045Z</time>
      </trkpt>
      <trkpt lat="41.06666" lon="-2.64667">
        <ele>991.288829</ele>
        <time>2022-08-31T13:31:26.828Z</time>
      </trkpt>
      <trkpt lat="41.06656" lon="-2.6468">
        <ele>991.318101</ele>
        <time>2022-08-31T13:31:29.427Z</time>
      </trkpt>
      <trkpt lat="41.06655" lon="-2.64682">
        <ele>991.322306</ele>
        <time>2022-08-31T13:31:29.810Z</time>
      </trkpt>
      <trkpt lat="41.06628" lon="-2.64708">
        <ele>991.394021</ele>
        <time>2022-08-31T13:31:36.445Z</time>
      </trkpt>
      <trkpt lat="41.06607" lon="-2.64726">
        <ele>991.446946</ele>
        <time>2022-08-31T13:31:41.619Z</time>
      </trkpt>
      <trkpt lat="41.0655" lon="-2.64732">
        <ele>991.569221</ele>
        <time>2022-08-31T13:31:54.836Z</time>
      </trkpt>
      <trkpt lat="41.06289" lon="-2.6474">
        <ele>999.51144</ele>
        <time>2022-08-31T13:33:36.318Z</time>
      </trkpt>
      <trkpt lat="41.06265" lon="-2.64736">
        <ele>1000.632963</ele>
        <time>2022-08-31T13:33:46.621Z</time>
      </trkpt>
      <trkpt lat="41.06184" lon="-2.64701">
        <ele>1004.511126</ele>
        <time>2022-08-31T13:34:25.221Z</time>
      </trkpt>
      <trkpt lat="41.06123" lon="-2.64665">
        <ele>1009.139278</ele>
        <time>2022-08-31T13:35:00.945Z</time>
      </trkpt>
      <trkpt lat="41.06097" lon="-2.64659">
        <ele>1011.418368</ele>
        <time>2022-08-31T13:35:16.476Z</time>
      </trkpt>
      <trkpt lat="41.05989" lon="-2.64661">
        <ele>1020.483338</ele>
        <time>2022-08-31T13:36:29.772Z</time>
      </trkpt>
      <trkpt lat="41.05948" lon="-2.64673">
        <ele>1025.569513</ele>
        <time>2022-08-31T13:37:04.440Z</time>
      </trkpt>
      <trkpt lat="41.05904" lon="-2.64694">
        <ele>1031.463772</ele>
        <time>2022-08-31T13:37:43.835Z</time>
      </trkpt>
      <trkpt lat="41.0585" lon="-2.64735">
        <ele>1039.24359</ele>
        <time>2022-08-31T13:38:40.213Z</time>
      </trkpt>
      <trkpt lat="41.05816" lon="-2.64771">
        <ele>1044.358474</ele>
        <time>2022-08-31T13:39:19.532Z</time>
      </trkpt>
      <trkpt lat="41.05787" lon="-2.64813">
        <ele>1048.66758</ele>
        <time>2022-08-31T13:39:56.129Z</time>
      </trkpt>
      <trkpt lat="41.05749" lon="-2.64885">
        <ele>1055.331874</ele>
        <time>2022-08-31T13:40:48.185Z</time>
      </trkpt>
      <trkpt lat="41.05647" lon="-2.65201">
        <ele>1072.295829</ele>
        <time>2022-08-31T13:43:04.879Z</time>
      </trkpt>
      <trkpt lat="41.05624" lon="-2.65261">
        <ele>1073.365837</ele>
        <time>2022-08-31T13:43:21.795Z</time>
      </trkpt>
      <trkpt lat="41.05595" lon="-2.65309">
        <ele>1074.352333</ele>
        <time>2022-08-31T13:43:35.473Z</time>
      </trkpt>
      <trkpt lat="41.05562" lon="-2.65347">
        <ele>1075.273896</ele>
        <time>2022-08-31T13:43:46.540Z</time>
      </trkpt>
      <trkpt lat="41.05405" lon="-2.6548">
        <ele>1077.190257</ele>
        <time>2022-08-31T13:44:30.264Z</time>
      </trkpt>
      <trkpt lat="41.05269" lon="-2.65576">
        <ele>1082.99182</ele>
        <time>2022-08-31T13:45:34.981Z</time>
      </trkpt>
      <trkpt lat="41.05131" lon="-2.65649">
        <ele>1088.298316</ele>
        <time>2022-08-31T13:46:50.427Z</time>
      </trkpt>
      <trkpt lat="41.04682" lon="-2.65838">
        <ele>1090.158383</ele>
        <time>2022-08-31T13:48:37.206Z</time>
      </trkpt>
      <trkpt lat="41.04667" lon="-2.65859">
        <ele>1089.7412</ele>
        <time>2022-08-31T13:48:41.267Z</time>
      </trkpt>
      <trkpt lat="41.04665" lon="-2.6587">
        <ele>1089.581846</ele>
        <time>2022-08-31T13:48:42.784Z</time>
      </trkpt>
      <trkpt lat="41.04655" lon="-2.65887">
        <ele>1089.269639</ele>
        <time>2022-08-31T13:48:45.752Z</time>
      </trkpt>
      <trkpt lat="41.04636" lon="-2.65895">
        <ele>1088.909889</ele>
        <time>2022-08-31T13:48:49.188Z</time>
      </trkpt>
      <trkpt lat="41.04613" lon="-2.6588">
        <ele>1088.424912</ele>
        <time>2022-08-31T13:48:53.757Z</time>
      </trkpt>
      <trkpt lat="41.04588" lon="-2.65875">
        <ele>1087.953297</ele>
        <time>2022-08-31T13:48:58.096Z</time>
      </trkpt>
      <trkpt lat="41.03941" lon="-2.66142">
        <ele>1068.715451</ele>
        <time>2022-08-31T13:50:55.583Z</time>
      </trkpt>
      <trkpt lat="41.03905" lon="-2.66165">
        <ele>1067.660291</ele>
        <time>2022-08-31T13:51:02.803Z</time>
      </trkpt>
      <trkpt lat="41.03858" lon="-2.66211">
        <ele>1066.348552</ele>
        <time>2022-08-31T13:51:13.483Z</time>
      </trkpt>
      <trkpt lat="41.03751" lon="-2.66364">
        <ele>1063.240292</ele>
        <time>2022-08-31T13:51:42.731Z</time>
      </trkpt>
      <trkpt lat="41.03704" lon="-2.66407">
        <ele>1061.872547</ele>
        <time>2022-08-31T13:51:53.075Z</time>
      </trkpt>
      <trkpt lat="41.03668" lon="-2.66428">
        <ele>1060.930364</ele>
        <time>2022-08-31T13:52:00.116Z</time>
      </trkpt>
      <trkpt lat="41.0363" lon="-2.66441">
        <ele>1060.000697</ele>
        <time>2022-08-31T13:52:07.017Z</time>
      </trkpt>
      <trkpt lat="41.03593" lon="-2.66447">
        <ele>1059.06504</ele>
        <time>2022-08-31T13:52:13.626Z</time>
      </trkpt>
      <trkpt lat="41.03391" lon="-2.6645">
        <ele>1052.877763</ele>
        <time>2022-08-31T13:52:48.109Z</time>
      </trkpt>
      <trkpt lat="41.03286" lon="-2.66459">
        <ele>1049.797673</ele>
        <time>2022-08-31T13:53:06.313Z</time>
      </trkpt>
      <trkpt lat="41.03165" lon="-2.66478">
        <ele>1048.558778</ele>
        <time>2022-08-31T13:53:28.103Z</time>
      </trkpt>
      <trkpt lat="41.03128" lon="-2.6649">
        <ele>1048.617838</ele>
        <time>2022-08-31T13:53:35.935Z</time>
      </trkpt>
      <trkpt lat="41.03094" lon="-2.66509">
        <ele>1048.675559</ele>
        <time>2022-08-31T13:53:45.127Z</time>
      </trkpt>
      <trkpt lat="41.02795" lon="-2.66773">
        <ele>1067.118432</ele>
        <time>2022-08-31T13:56:46.805Z</time>
      </trkpt>
      <trkpt lat="41.02766" lon="-2.66791">
        <ele>1069.014908</ele>
        <time>2022-08-31T13:57:04.433Z</time>
      </trkpt>
      <trkpt lat="41.02362" lon="-2.67048">
        <ele>1093.981395</ele>
        <time>2022-08-31T14:01:03.162Z</time>
      </trkpt>
      <trkpt lat="41.02051" lon="-2.67286">
        <ele>1095.132521</ele>
        <time>2022-08-31T14:02:22.659Z</time>
      </trkpt>
      <trkpt lat="41.01961" lon="-2.67362">
        <ele>1092.85663</ele>
        <time>2022-08-31T14:02:40.932Z</time>
      </trkpt>
      <trkpt lat="41.0186" lon="-2.67475">
        <ele>1086.612342</ele>
        <time>2022-08-31T14:03:02.157Z</time>
      </trkpt>
      <trkpt lat="41.01164" lon="-2.6838">
        <ele>1031.070607</ele>
        <time>2022-08-31T14:05:33.665Z</time>
      </trkpt>
      <trkpt lat="41.01117" lon="-2.68423">
        <ele>1027.28711</ele>
        <time>2022-08-31T14:05:42.134Z</time>
      </trkpt>
      <trkpt lat="41.01076" lon="-2.6845">
        <ele>1024.141104</ele>
        <time>2022-08-31T14:05:49.063Z</time>
      </trkpt>
      <trkpt lat="41.01051" lon="-2.68464">
        <ele>1022.327115</ele>
        <time>2022-08-31T14:05:53.142Z</time>
      </trkpt>
      <trkpt lat="41.0104" lon="-2.68444">
        <ele>1020.881537</ele>
        <time>2022-08-31T14:05:55.780Z</time>
      </trkpt>
      <trkpt lat="41.01048" lon="-2.68407">
        <ele>1018.461118</ele>
        <time>2022-08-31T14:05:59.994Z</time>
      </trkpt>
      <trkpt lat="41.01057" lon="-2.6839">
        <ele>1017.081954</ele>
        <time>2022-08-31T14:06:02.387Z</time>
      </trkpt>
      <trkpt lat="41.01122" lon="-2.68317">
        <ele>1009.897811</ele>
        <time>2022-08-31T14:06:14.553Z</time>
      </trkpt>
      <trkpt lat="41.01144" lon="-2.68209">
        <ele>1003.571616</ele>
        <time>2022-08-31T14:06:26.871Z</time>
      </trkpt>
      <trkpt lat="41.0114" lon="-2.68177">
        <ele>1001.912834</ele>
        <time>2022-08-31T14:06:30.573Z</time>
      </trkpt>
      <trkpt lat="41.0113" lon="-2.68144">
        <ele>1000.124845</ele>
        <time>2022-08-31T14:06:34.532Z</time>
      </trkpt>
      <trkpt lat="41.01097" lon="-2.68112">
        <ele>997.370831</ele>
        <time>2022-08-31T14:06:40.644Z</time>
      </trkpt>
      <trkpt lat="41.01085" lon="-2.68075">
        <ele>995.367215</ele>
        <time>2022-08-31T14:06:45.369Z</time>
      </trkpt>
      <trkpt lat="41.01091" lon="-2.67917">
        <ele>991.438991</ele>
        <time>2022-08-31T14:07:06.280Z</time>
      </trkpt>
      <trkpt lat="41.01098" lon="-2.67903">
        <ele>991.072437</ele>
        <time>2022-08-31T14:07:09.565Z</time>
      </trkpt>
      <trkpt lat="41.0118" lon="-2.67804">
        <ele>986.980694</ele>
        <time>2022-08-31T14:07:28.672Z</time>
      </trkpt>
      <trkpt lat="41.01183" lon="-2.67793">
        <ele>986.582415</ele>
        <time>2022-08-31T14:07:30.290Z</time>
      </trkpt>
      <trkpt lat="41.01185" lon="-2.67781">
        <ele>986.152192</ele>
        <time>2022-08-31T14:07:32.027Z</time>
      </trkpt>
      <trkpt lat="41.01178" lon="-2.67765">
        <ele>985.52021</ele>
        <time>2022-08-31T14:07:34.269Z</time>
      </trkpt>
      <trkpt lat="41.01156" lon="-2.67757">
        <ele>984.53033</ele>
        <time>2022-08-31T14:07:38.313Z</time>
      </trkpt>
      <trkpt lat="41.01112" lon="-2.6778">
        <ele>982.388986</ele>
        <time>2022-08-31T14:07:45.581Z</time>
      </trkpt>
      <trkpt lat="41.01081" lon="-2.67788">
        <ele>980.767002</ele>
        <time>2022-08-31T14:07:50.496Z</time>
      </trkpt>
      <trkpt lat="41.01043" lon="-2.67771">
        <ele>977.939245</ele>
        <time>2022-08-31T14:07:56.272Z</time>
      </trkpt>
      <trkpt lat="41.01018" lon="-2.67737">
        <ele>975.348586</ele>
        <time>2022-08-31T14:08:01.440Z</time>
      </trkpt>
      <trkpt lat="41.00995" lon="-2.67726">
        <ele>973.614871</ele>
        <time>2022-08-31T14:08:04.905Z</time>
      </trkpt>
      <trkpt lat="41.00871" lon="-2.67704">
        <ele>966.656331</ele>
        <time>2022-08-31T14:08:24.652Z</time>
      </trkpt>
      <trkpt lat="41.00854" lon="-2.67703">
        <ele>966.081235</ele>
        <time>2022-08-31T14:08:27.529Z</time>
      </trkpt>
      <trkpt lat="41.00844" lon="-2.67705">
        <ele>965.771955</ele>
        <time>2022-08-31T14:08:29.065Z</time>
      </trkpt>
      <trkpt lat="41.00821" lon="-2.67708">
        <ele>964.980877</ele>
        <time>2022-08-31T14:08:33.014Z</time>
      </trkpt>
      <trkpt lat="41.00811" lon="-2.67712">
        <ele>964.649973</ele>
        <time>2022-08-31T14:08:34.764Z</time>
      </trkpt>
      <trkpt lat="41.00809" lon="-2.67712">
        <ele>964.588495</ele>
        <time>2022-08-31T14:08:35.093Z</time>
      </trkpt>
      <trkpt lat="41.00787" lon="-2.67715">
        <ele>963.828454</ele>
        <time>2022-08-31T14:08:39.081Z</time>
      </trkpt>
      <trkpt lat="41.00787" lon="-2.67733">
        <ele>963.384175</ele>
        <time>2022-08-31T14:08:43.519Z</time>
      </trkpt>
      <trkpt lat="41.00824" lon="-2.67795">
        <ele>962.005969</ele>
        <time>2022-08-31T14:09:03.672Z</time>
      </trkpt>
      <trkpt lat="41.00827" lon="-2.67817">
        <ele>961.79435</ele>
        <time>2022-08-31T14:09:09.678Z</time>
      </trkpt>
      <trkpt lat="41.00823" lon="-2.67853">
        <ele>961.438953</ele>
        <time>2022-08-31T14:09:19.529Z</time>
      </trkpt>
      <trkpt lat="41.00803" lon="-2.67897">
        <ele>960.941604</ele>
        <time>2022-08-31T14:09:33.106Z</time>
      </trkpt>
      <trkpt lat="41.0077" lon="-2.67913">
        <ele>960.489196</ele>
        <time>2022-08-31T14:09:44.830Z</time>
      </trkpt>
      <trkpt lat="41.0072" lon="-2.67914">
        <ele>959.783956</ele>
        <time>2022-08-31T14:10:01.303Z</time>
      </trkpt>
      <trkpt lat="41.00625" lon="-2.67894">
        <ele>958.234332</ele>
        <time>2022-08-31T14:10:32.601Z</time>
      </trkpt>
      <trkpt lat="41.00591" lon="-2.67893">
        <ele>957.685018</ele>
        <time>2022-08-31T14:10:43.996Z</time>
      </trkpt>
      <trkpt lat="41.00553" lon="-2.67915">
        <ele>957.15121</ele>
        <time>2022-08-31T14:10:58.238Z</time>
      </trkpt>
      <trkpt lat="41.00529" lon="-2.6793">
        <ele>957.075416</ele>
        <time>2022-08-31T14:11:07.675Z</time>
      </trkpt>
      <trkpt lat="41.00452" lon="-2.68">
        <ele>956.811992</ele>
        <time>2022-08-31T14:11:41.558Z</time>
      </trkpt>
      <trkpt lat="41.00392" lon="-2.68021">
        <ele>956.689544</ele>
        <time>2022-08-31T14:12:05.458Z</time>
      </trkpt>
      <trkpt lat="41.00312" lon="-2.68018">
        <ele>956.800277</ele>
        <time>2022-08-31T14:12:36.053Z</time>
      </trkpt>
      <trkpt lat="41.00261" lon="-2.68066">
        <ele>956.88652</ele>
        <time>2022-08-31T14:12:58.688Z</time>
      </trkpt>
      <trkpt lat="41.00222" lon="-2.68141">
        <ele>956.928654</ele>
        <time>2022-08-31T14:13:25.445Z</time>
      </trkpt>
      <trkpt lat="41.0021" lon="-2.68185">
        <ele>956.933791</ele>
        <time>2022-08-31T14:13:38.815Z</time>
      </trkpt>
      <trkpt lat="41.0021" lon="-2.68205">
        <ele>956.936035</ele>
        <time>2022-08-31T14:13:44.183Z</time>
      </trkpt>
      <trkpt lat="41.00196" lon="-2.68305">
        <ele>956.947235</ele>
        <time>2022-08-31T14:14:13.093Z</time>
      </trkpt>
      <trkpt lat="41.00213" lon="-2.68394">
        <ele>956.755253</ele>
        <time>2022-08-31T14:14:37.812Z</time>
      </trkpt>
      <trkpt lat="41.00211" lon="-2.684">
        <ele>956.737994</ele>
        <time>2022-08-31T14:14:40.262Z</time>
      </trkpt>
      <trkpt lat="41.00199" lon="-2.6842">
        <ele>956.678125</ele>
        <time>2022-08-31T14:14:47.203Z</time>
      </trkpt>
      <trkpt lat="41.0019" lon="-2.68448">
        <ele>956.604378</ele>
        <time>2022-08-31T14:14:56.035Z</time>
      </trkpt>
      <trkpt lat="41.00192" lon="-2.68485">
        <ele>956.512341</ele>
        <time>2022-08-31T14:15:06.361Z</time>
      </trkpt>
      <trkpt lat="41.00172" lon="-2.68523">
        <ele>956.400928</ele>
        <time>2022-08-31T14:15:18.494Z</time>
      </trkpt>
      <trkpt lat="41.0012" lon="-2.68591">
        <ele>955.383117</ele>
        <time>2022-08-31T14:15:43.863Z</time>
      </trkpt>
      <trkpt lat="41.00065" lon="-2.68628">
        <ele>954.442283</ele>
        <time>2022-08-31T14:16:03.991Z</time>
      </trkpt>
      <trkpt lat="41.00026" lon="-2.68645">
        <ele>953.797958</ele>
        <time>2022-08-31T14:16:17.687Z</time>
      </trkpt>
      <trkpt lat="41.00004" lon="-2.68647">
        <ele>953.390983</ele>
        <time>2022-08-31T14:16:24.779Z</time>
      </trkpt>
      <trkpt lat="40.99984" lon="-2.68641">
        <ele>952.912084</ele>
        <time>2022-08-31T14:16:31.274Z</time>
      </trkpt>
      <trkpt lat="40.99915" lon="-2.68597">
        <ele>951.084545</ele>
        <time>2022-08-31T14:16:55.713Z</time>
      </trkpt>
      <trkpt lat="40.9989" lon="-2.68588">
        <ele>950.471428</ele>
        <time>2022-08-31T14:17:03.859Z</time>
      </trkpt>
      <trkpt lat="40.99815" lon="-2.68597">
        <ele>948.929612</ele>
        <time>2022-08-31T14:17:27.606Z</time>
      </trkpt>
      <trkpt lat="40.99797" lon="-2.68615">
        <ele>948.589038</ele>
        <time>2022-08-31T14:17:35.014Z</time>
      </trkpt>
      <trkpt lat="40.99764" lon="-2.68691">
        <ele>947.597937</ele>
        <time>2022-08-31T14:17:57.019Z</time>
      </trkpt>
      <trkpt lat="40.9976" lon="-2.68717">
        <ele>947.300189</ele>
        <time>2022-08-31T14:18:03.815Z</time>
      </trkpt>
      <trkpt lat="40.99742" lon="-2.68767">
        <ele>946.664905</ele>
        <time>2022-08-31T14:18:18.614Z</time>
      </trkpt>
      <trkpt lat="40.9973" lon="-2.68842">
        <ele>946.373603</ele>
        <time>2022-08-31T14:18:39.106Z</time>
      </trkpt>
      <trkpt lat="40.99732" lon="-2.6891">
        <ele>946.141027</ele>
        <time>2022-08-31T14:18:57.359Z</time>
      </trkpt>
      <trkpt lat="40.99751" lon="-2.68966">
        <ele>945.932336</ele>
        <time>2022-08-31T14:19:13.978Z</time>
      </trkpt>
      <trkpt lat="40.9975" lon="-2.69024">
        <ele>945.857437</ele>
        <time>2022-08-31T14:19:29.973Z</time>
      </trkpt>
      <trkpt lat="40.99742" lon="-2.69042">
        <ele>945.90302</ele>
        <time>2022-08-31T14:19:35.729Z</time>
      </trkpt>
      <trkpt lat="40.99743" lon="-2.69065">
        <ele>945.955094</ele>
        <time>2022-08-31T14:19:42.412Z</time>
      </trkpt>
      <trkpt lat="40.99777" lon="-2.69132">
        <ele>946.13086</ele>
        <time>2022-08-31T14:20:05.514Z</time>
      </trkpt>
      <trkpt lat="40.99785" lon="-2.69167">
        <ele>946.213651</ele>
        <time>2022-08-31T14:20:16.698Z</time>
      </trkpt>
      <trkpt lat="40.99783" lon="-2.69233">
        <ele>946.358309</ele>
        <time>2022-08-31T14:20:36.940Z</time>
      </trkpt>
      <trkpt lat="40.99796" lon="-2.69313">
        <ele>946.532613</ele>
        <time>2022-08-31T14:21:01.726Z</time>
      </trkpt>
      <trkpt lat="40.99795" lon="-2.69333">
        <ele>946.57525</ele>
        <time>2022-08-31T14:21:07.693Z</time>
      </trkpt>
      <trkpt lat="40.99773" lon="-2.69417">
        <ele>946.765615</ele>
        <time>2022-08-31T14:21:33.379Z</time>
      </trkpt>
      <trkpt lat="40.99755" lon="-2.69449">
        <ele>946.819695</ele>
        <time>2022-08-31T14:21:44.364Z</time>
      </trkpt>
      <trkpt lat="40.99741" lon="-2.69463">
        <ele>946.63426</ele>
        <time>2022-08-31T14:21:50.609Z</time>
      </trkpt>
      <trkpt lat="40.9971" lon="-2.69481">
        <ele>946.278677</ele>
        <time>2022-08-31T14:22:02.471Z</time>
      </trkpt>
      <trkpt lat="40.99694" lon="-2.69497">
        <ele>946.059461</ele>
        <time>2022-08-31T14:22:09.624Z</time>
      </trkpt>
      <trkpt lat="40.99674" lon="-2.69505">
        <ele>945.831544</ele>
        <time>2022-08-31T14:22:16.940Z</time>
      </trkpt>
      <trkpt lat="40.99632" lon="-2.69499">
        <ele>945.387813</ele>
        <time>2022-08-31T14:22:30.928Z</time>
      </trkpt>
      <trkpt lat="40.99611" lon="-2.69504">
        <ele>945.16164</ele>
        <time>2022-08-31T14:22:37.945Z</time>
      </trkpt>
      <trkpt lat="40.99586" lon="-2.69547">
        <ele>944.484262</ele>
        <time>2022-08-31T14:22:51.634Z</time>
      </trkpt>
      <trkpt lat="40.99555" lon="-2.6957">
        <ele>943.677227</ele>
        <time>2022-08-31T14:23:03.178Z</time>
      </trkpt>
      <trkpt lat="40.99466" lon="-2.69606">
        <ele>941.541167</ele>
        <time>2022-08-31T14:23:32.440Z</time>
      </trkpt>
      <trkpt lat="40.99416" lon="-2.69611">
        <ele>940.413365</ele>
        <time>2022-08-31T14:23:48.636Z</time>
      </trkpt>
      <trkpt lat="40.99406" lon="-2.69606">
        <ele>940.172208</ele>
        <time>2022-08-31T14:23:51.968Z</time>
      </trkpt>
      <trkpt lat="40.99384" lon="-2.69601">
        <ele>939.685717</ele>
        <time>2022-08-31T14:23:59.381Z</time>
      </trkpt>
      <trkpt lat="40.9927" lon="-2.69598">
        <ele>937.21244</ele>
        <time>2022-08-31T14:24:35.894Z</time>
      </trkpt>
      <trkpt lat="40.99239" lon="-2.69617">
        <ele>936.649599</ele>
        <time>2022-08-31T14:24:47.053Z</time>
      </trkpt>
      <trkpt lat="40.99227" lon="-2.69633">
        <ele>936.439892</ele>
        <time>2022-08-31T14:24:52.739Z</time>
      </trkpt>
      <trkpt lat="40.99206" lon="-2.69688">
        <ele>935.856911</ele>
        <time>2022-08-31T14:25:08.563Z</time>
      </trkpt>
      <trkpt lat="40.99193" lon="-2.69768">
        <ele>935.082313</ele>
        <time>2022-08-31T14:25:29.458Z</time>
      </trkpt>
      <trkpt lat="40.99198" lon="-2.69812">
        <ele>934.657516</ele>
        <time>2022-08-31T14:25:40.963Z</time>
      </trkpt>
      <trkpt lat="40.99213" lon="-2.69862">
        <ele>934.866199</ele>
        <time>2022-08-31T14:25:55.091Z</time>
      </trkpt>
      <trkpt lat="40.99226" lon="-2.69933">
        <ele>935.211618</ele>
        <time>2022-08-31T14:26:15.841Z</time>
      </trkpt>
      <trkpt lat="40.99226" lon="-2.69984">
        <ele>935.447865</ele>
        <time>2022-08-31T14:26:32.060Z</time>
      </trkpt>
      <trkpt lat="40.99209" lon="-2.70013">
        <ele>935.619271</ele>
        <time>2022-08-31T14:26:44.711Z</time>
      </trkpt>
      <trkpt lat="40.99181" lon="-2.70018">
        <ele>936.003434</ele>
        <time>2022-08-31T14:26:58.223Z</time>
      </trkpt>
      <trkpt lat="40.99149" lon="-2.70016">
        <ele>937.089019</ele>
        <time>2022-08-31T14:27:14.887Z</time>
      </trkpt>
      <trkpt lat="40.99091" lon="-2.69984">
        <ele>939.180513</ele>
        <time>2022-08-31T14:27:47.053Z</time>
      </trkpt>
      <trkpt lat="40.99039" lon="-2.69935">
        <ele>941.337778</ele>
        <time>2022-08-31T14:28:22.785Z</time>
      </trkpt>
      <trkpt lat="40.99021" lon="-2.69932">
        <ele>942.053355</ele>
        <time>2022-08-31T14:28:34.152Z</time>
      </trkpt>
      <trkpt lat="40.99003" lon="-2.69941">
        <ele>943.014292</ele>
        <time>2022-08-31T14:28:45.831Z</time>
      </trkpt>
      <trkpt lat="40.98988" lon="-2.69965">
        <ele>944.227534</ele>
        <time>2022-08-31T14:29:02.096Z</time>
      </trkpt>
      <trkpt lat="40.98967" lon="-2.70015">
        <ele>946.420831</ele>
        <time>2022-08-31T14:29:30.410Z</time>
      </trkpt>
      <trkpt lat="40.98945" lon="-2.70046">
        <ele>948.063678</ele>
        <time>2022-08-31T14:29:51.838Z</time>
      </trkpt>
      <trkpt lat="40.9891" lon="-2.70071">
        <ele>950.072691</ele>
        <time>2022-08-31T14:30:16.246Z</time>
      </trkpt>
      <trkpt lat="40.98895" lon="-2.70077">
        <ele>950.877146</ele>
        <time>2022-08-31T14:30:25.823Z</time>
      </trkpt>
      <trkpt lat="40.98878" lon="-2.70076">
        <ele>951.212415</ele>
        <time>2022-08-31T14:30:35.542Z</time>
      </trkpt>
      <trkpt lat="40.98818" lon="-2.70045">
        <ele>952.388912</ele>
        <time>2022-08-31T14:31:10.831Z</time>
      </trkpt>
      <trkpt lat="40.98791" lon="-2.70048">
        <ele>952.872776</ele>
        <time>2022-08-31T14:31:23.410Z</time>
      </trkpt>
      <trkpt lat="40.98753" lon="-2.70075">
        <ele>953.651149</ele>
        <time>2022-08-31T14:31:41.103Z</time>
      </trkpt>
      <trkpt lat="40.98733" lon="-2.701">
        <ele>954.136658</ele>
        <time>2022-08-31T14:31:50.292Z</time>
      </trkpt>
      <trkpt lat="40.98718" lon="-2.70129">
        <ele>954.007894</ele>
        <time>2022-08-31T14:31:59.022Z</time>
      </trkpt>
      <trkpt lat="40.9871" lon="-2.70143">
        <ele>953.915165</ele>
        <time>2022-08-31T14:32:03.229Z</time>
      </trkpt>
      <trkpt lat="40.98693" lon="-2.70155">
        <ele>953.779691</ele>
        <time>2022-08-31T14:32:09.246Z</time>
      </trkpt>
      <trkpt lat="40.98669" lon="-2.70189">
        <ele>953.532706</ele>
        <time>2022-08-31T14:32:20.386Z</time>
      </trkpt>
      <trkpt lat="40.98631" lon="-2.70211">
        <ele>953.239749</ele>
        <time>2022-08-31T14:32:34.535Z</time>
      </trkpt>
      <trkpt lat="40.98566" lon="-2.70263">
        <ele>953.190808</ele>
        <time>2022-08-31T14:33:08.354Z</time>
      </trkpt>
      <trkpt lat="40.98544" lon="-2.70275">
        <ele>953.413988</ele>
        <time>2022-08-31T14:33:20.733Z</time>
      </trkpt>
      <trkpt lat="40.98516" lon="-2.7028">
        <ele>953.683894</ele>
        <time>2022-08-31T14:33:35.252Z</time>
      </trkpt>
      <trkpt lat="40.98474" lon="-2.70311">
        <ele>954.13317</ele>
        <time>2022-08-31T14:33:57.468Z</time>
      </trkpt>
      <trkpt lat="40.98466" lon="-2.70332">
        <ele>954.297424</ele>
        <time>2022-08-31T14:34:04.780Z</time>
      </trkpt>
      <trkpt lat="40.98455" lon="-2.70408">
        <ele>952.94759</ele>
        <time>2022-08-31T14:34:25.410Z</time>
      </trkpt>
      <trkpt lat="40.98451" lon="-2.70539">
        <ele>946.582791</ele>
        <time>2022-08-31T14:34:52.976Z</time>
      </trkpt>
      <trkpt lat="40.9846" lon="-2.70678">
        <ele>938.504011</ele>
        <time>2022-08-31T14:35:19.752Z</time>
      </trkpt>
      <trkpt lat="40.98469" lon="-2.70718">
        <ele>935.695129</ele>
        <time>2022-08-31T14:35:27.716Z</time>
      </trkpt>
      <trkpt lat="40.98512" lon="-2.70817">
        <ele>927.969044</ele>
        <time>2022-08-31T14:35:50.371Z</time>
      </trkpt>
      <trkpt lat="40.98553" lon="-2.70887">
        <ele>924.959911</ele>
        <time>2022-08-31T14:36:09.532Z</time>
      </trkpt>
      <trkpt lat="40.98604" lon="-2.70939">
        <ele>922.721829</ele>
        <time>2022-08-31T14:36:29.479Z</time>
      </trkpt>
      <trkpt lat="40.98625" lon="-2.7098">
        <ele>921.439371</ele>
        <time>2022-08-31T14:36:41.621Z</time>
      </trkpt>
      <trkpt lat="40.98622" lon="-2.71037">
        <ele>920.749499</ele>
        <time>2022-08-31T14:36:56.695Z</time>
      </trkpt>
      <trkpt lat="40.98613" lon="-2.71072">
        <ele>920.915774</ele>
        <time>2022-08-31T14:37:06.511Z</time>
      </trkpt>
      <trkpt lat="40.98598" lon="-2.7109">
        <ele>921.036768</ele>
        <time>2022-08-31T14:37:13.983Z</time>
      </trkpt>
      <trkpt lat="40.98578" lon="-2.71099">
        <ele>921.165866</ele>
        <time>2022-08-31T14:37:23.333Z</time>
      </trkpt>
      <trkpt lat="40.98558" lon="-2.71117">
        <ele>921.313841</ele>
        <time>2022-08-31T14:37:34.188Z</time>
      </trkpt>
      <trkpt lat="40.98545" lon="-2.71138">
        <ele>921.439799</ele>
        <time>2022-08-31T14:37:43.573Z</time>
      </trkpt>
      <trkpt lat="40.9853" lon="-2.71189">
        <ele>921.688354</ele>
        <time>2022-08-31T14:38:02.124Z</time>
      </trkpt>
      <trkpt lat="40.98524" lon="-2.71232">
        <ele>921.906658</ele>
        <time>2022-08-31T14:38:16.664Z</time>
      </trkpt>
      <trkpt lat="40.98491" lon="-2.71249">
        <ele>922.148077</ele>
        <time>2022-08-31T14:38:32.098Z</time>
      </trkpt>
      <trkpt lat="40.98396" lon="-2.71249">
        <ele>922.794816</ele>
        <time>2022-08-31T14:39:10.078Z</time>
      </trkpt>
      <trkpt lat="40.98335" lon="-2.71262">
        <ele>922.599138</ele>
        <time>2022-08-31T14:39:32.460Z</time>
      </trkpt>
      <trkpt lat="40.98268" lon="-2.71251">
        <ele>922.026388</ele>
        <time>2022-08-31T14:39:55.147Z</time>
      </trkpt>
      <trkpt lat="40.98203" lon="-2.71248">
        <ele>921.477637</ele>
        <time>2022-08-31T14:40:17.185Z</time>
      </trkpt>
      <trkpt lat="40.98132" lon="-2.71205">
        <ele>922.021499</ele>
        <time>2022-08-31T14:40:45.889Z</time>
      </trkpt>
      <trkpt lat="40.98081" lon="-2.71226">
        <ele>922.466393</ele>
        <time>2022-08-31T14:41:08.774Z</time>
      </trkpt>
      <trkpt lat="40.97996" lon="-2.7129">
        <ele>923.244097</ele>
        <time>2022-08-31T14:41:55.631Z</time>
      </trkpt>
      <trkpt lat="40.97885" lon="-2.7135">
        <ele>924.127472</ele>
        <time>2022-08-31T14:42:44.550Z</time>
      </trkpt>
      <trkpt lat="40.97861" lon="-2.7138">
        <ele>924.052391</ele>
        <time>2022-08-31T14:42:56.234Z</time>
      </trkpt>
      <trkpt lat="40.97792" lon="-2.714">
        <ele>923.085844</ele>
        <time>2022-08-31T14:43:19.032Z</time>
      </trkpt>
      <trkpt lat="40.97744" lon="-2.71434">
        <ele>922.33681</ele>
        <time>2022-08-31T14:43:37.052Z</time>
      </trkpt>
      <trkpt lat="40.97726" lon="-2.71438">
        <ele>922.082129</ele>
        <time>2022-08-31T14:43:43.241Z</time>
      </trkpt>
      <trkpt lat="40.97686" lon="-2.71436">
        <ele>921.78531</ele>
        <time>2022-08-31T14:43:56.769Z</time>
      </trkpt>
      <trkpt lat="40.97655" lon="-2.71425">
        <ele>921.76621</ele>
        <time>2022-08-31T14:44:08.718Z</time>
      </trkpt>
      <trkpt lat="40.97614" lon="-2.71396">
        <ele>921.739146</ele>
        <time>2022-08-31T14:44:25.698Z</time>
      </trkpt>
      <trkpt lat="40.97607" lon="-2.71385">
        <ele>921.732773</ele>
        <time>2022-08-31T14:44:30.415Z</time>
      </trkpt>
      <trkpt lat="40.97604" lon="-2.71336">
        <ele>921.710742</ele>
        <time>2022-08-31T14:44:45.185Z</time>
      </trkpt>
      <trkpt lat="40.97599" lon="-2.71323">
        <ele>921.704274</ele>
        <time>2022-08-31T14:44:49.206Z</time>
      </trkpt>
      <trkpt lat="40.97579" lon="-2.713">
        <ele>921.672427</ele>
        <time>2022-08-31T14:45:00.313Z</time>
      </trkpt>
      <trkpt lat="40.97526" lon="-2.71259">
        <ele>921.273441</ele>
        <time>2022-08-31T14:45:22.667Z</time>
      </trkpt>
      <trkpt lat="40.97508" lon="-2.71195">
        <ele>920.939858</ele>
        <time>2022-08-31T14:45:40.154Z</time>
      </trkpt>
      <trkpt lat="40.97493" lon="-2.71161">
        <ele>920.745781</ele>
        <time>2022-08-31T14:45:50.160Z</time>
      </trkpt>
      <trkpt lat="40.97454" lon="-2.7116">
        <ele>920.531317</ele>
        <time>2022-08-31T14:46:03.343Z</time>
      </trkpt>
      <trkpt lat="40.97418" lon="-2.71174">
        <ele>920.611816</ele>
        <time>2022-08-31T14:46:16.984Z</time>
      </trkpt>
      <trkpt lat="40.97389" lon="-2.71215">
        <ele>920.701635</ele>
        <time>2022-08-31T14:46:33.022Z</time>
      </trkpt>
      <trkpt lat="40.97348" lon="-2.71256">
        <ele>920.810463</ele>
        <time>2022-08-31T14:46:54.109Z</time>
      </trkpt>
      <trkpt lat="40.97322" lon="-2.71274">
        <ele>920.873395</ele>
        <time>2022-08-31T14:47:06.647Z</time>
      </trkpt>
      <trkpt lat="40.97252" lon="-2.71302">
        <ele>920.72798</ele>
        <time>2022-08-31T14:47:35.820Z</time>
      </trkpt>
      <trkpt lat="40.97208" lon="-2.71302">
        <ele>920.596674</ele>
        <time>2022-08-31T14:47:52.254Z</time>
      </trkpt>
      <trkpt lat="40.97175" lon="-2.71283">
        <ele>920.490774</ele>
        <time>2022-08-31T14:48:04.807Z</time>
      </trkpt>
      <trkpt lat="40.97165" lon="-2.71238">
        <ele>920.384887</ele>
        <time>2022-08-31T14:48:16.723Z</time>
      </trkpt>
      <trkpt lat="40.97148" lon="-2.71188">
        <ele>919.7224</ele>
        <time>2022-08-31T14:48:30.445Z</time>
      </trkpt>
      <trkpt lat="40.97145" lon="-2.7114">
        <ele>919.057623</ele>
        <time>2022-08-31T14:48:42.341Z</time>
      </trkpt>
      <trkpt lat="40.97131" lon="-2.71112">
        <ele>918.597967</ele>
        <time>2022-08-31T14:48:50.695Z</time>
      </trkpt>
      <trkpt lat="40.97123" lon="-2.71107">
        <ele>918.42387</ele>
        <time>2022-08-31T14:48:53.723Z</time>
      </trkpt>
      <trkpt lat="40.97122" lon="-2.71107">
        <ele>918.403701</ele>
        <time>2022-08-31T14:48:54.200Z</time>
      </trkpt>
      <trkpt lat="40.9711" lon="-2.7112">
        <ele>918.120761</ele>
        <time>2022-08-31T14:48:59.335Z</time>
      </trkpt>
      <trkpt lat="40.97096" lon="-2.71145">
        <ele>917.688618</ele>
        <time>2022-08-31T14:49:03.864Z</time>
      </trkpt>
      <trkpt lat="40.97019" lon="-2.71252">
        <ele>914.281727</ele>
        <time>2022-08-31T14:49:23.675Z</time>
      </trkpt>
      <trkpt lat="40.97015" lon="-2.7131">
        <ele>912.694303</ele>
        <time>2022-08-31T14:49:31.121Z</time>
      </trkpt>
      <trkpt lat="40.97011" lon="-2.71425">
        <ele>909.282162</ele>
        <time>2022-08-31T14:49:44.830Z</time>
      </trkpt>
      <trkpt lat="40.97005" lon="-2.71449">
        <ele>908.379938</ele>
        <time>2022-08-31T14:49:47.820Z</time>
      </trkpt>
      <trkpt lat="40.96996" lon="-2.71464">
        <ele>907.675318</ele>
        <time>2022-08-31T14:49:50.116Z</time>
      </trkpt>
      <trkpt lat="40.9696" lon="-2.71502">
        <ele>905.504616</ele>
        <time>2022-08-31T14:49:57.320Z</time>
      </trkpt>
      <trkpt lat="40.96918" lon="-2.71546">
        <ele>902.997302</ele>
        <time>2022-08-31T14:50:05.899Z</time>
      </trkpt>
      <trkpt lat="40.96899" lon="-2.71577">
        <ele>901.918123</ele>
        <time>2022-08-31T14:50:10.971Z</time>
      </trkpt>
      <trkpt lat="40.96886" lon="-2.71589">
        <ele>901.604728</ele>
        <time>2022-08-31T14:50:13.629Z</time>
      </trkpt>
      <trkpt lat="40.96677" lon="-2.71639">
        <ele>897.823217</ele>
        <time>2022-08-31T14:50:54.075Z</time>
      </trkpt>
      <trkpt lat="40.96621" lon="-2.71658">
        <ele>897.087167</ele>
        <time>2022-08-31T14:51:05.524Z</time>
      </trkpt>
      <trkpt lat="40.96537" lon="-2.71728">
        <ele>895.8309</ele>
        <time>2022-08-31T14:51:24.960Z</time>
      </trkpt>
      <trkpt lat="40.96527" lon="-2.71756">
        <ele>895.526584</ele>
        <time>2022-08-31T14:51:29.585Z</time>
      </trkpt>
      <trkpt lat="40.9653" lon="-2.71788">
        <ele>895.211022</ele>
        <time>2022-08-31T14:51:34.346Z</time>
      </trkpt>
      <trkpt lat="40.96517" lon="-2.71811">
        <ele>894.941178</ele>
        <time>2022-08-31T14:51:41.578Z</time>
      </trkpt>
      <trkpt lat="40.96514" lon="-2.7184">
        <ele>894.65747</ele>
        <time>2022-08-31T14:51:49.047Z</time>
      </trkpt>
      <trkpt lat="40.96519" lon="-2.71904">
        <ele>894.038403</ele>
        <time>2022-08-31T14:52:05.331Z</time>
      </trkpt>
      <trkpt lat="40.96512" lon="-2.72128">
        <ele>891.734506</ele>
        <time>2022-08-31T14:53:02.389Z</time>
      </trkpt>
      <trkpt lat="40.96506" lon="-2.72169">
        <ele>891.264623</ele>
        <time>2022-08-31T14:53:13.014Z</time>
      </trkpt>
      <trkpt lat="40.96509" lon="-2.72211">
        <ele>890.769332</ele>
        <time>2022-08-31T14:53:23.608Z</time>
      </trkpt>
      <trkpt lat="40.96495" lon="-2.72274">
        <ele>889.987656</ele>
        <time>2022-08-31T14:53:40.292Z</time>
      </trkpt>
      <trkpt lat="40.96463" lon="-2.72301">
        <ele>889.40148</ele>
        <time>2022-08-31T14:53:52.695Z</time>
      </trkpt>
      <trkpt lat="40.96324" lon="-2.72374">
        <ele>887.161575</ele>
        <time>2022-08-31T14:54:42.473Z</time>
      </trkpt>
      <trkpt lat="40.9628" lon="-2.72438">
        <ele>886.216442</ele>
        <time>2022-08-31T14:55:04.231Z</time>
      </trkpt>
      <trkpt lat="40.96269" lon="-2.72483">
        <ele>886.000397</ele>
        <time>2022-08-31T14:55:16.649Z</time>
      </trkpt>
      <trkpt lat="40.96256" lon="-2.72516">
        <ele>885.889325</ele>
        <time>2022-08-31T14:55:26.356Z</time>
      </trkpt>
      <trkpt lat="40.96241" lon="-2.72537">
        <ele>885.801131</ele>
        <time>2022-08-31T14:55:34.137Z</time>
      </trkpt>
      <trkpt lat="40.96223" lon="-2.72556">
        <ele>885.709507</ele>
        <time>2022-08-31T14:55:38.912Z</time>
      </trkpt>
      <trkpt lat="40.9622" lon="-2.72576">
        <ele>885.648607</ele>
        <time>2022-08-31T14:55:41.999Z</time>
      </trkpt>
      <trkpt lat="40.96224" lon="-2.72753">
        <ele>885.845591</ele>
        <time>2022-08-31T14:56:14.621Z</time>
      </trkpt>
      <trkpt lat="40.96206" lon="-2.72755">
        <ele>885.958065</ele>
        <time>2022-08-31T14:56:18.627Z</time>
      </trkpt>
      <trkpt lat="40.96177" lon="-2.72758">
        <ele>886.140718</ele>
        <time>2022-08-31T14:56:26.461Z</time>
      </trkpt>
      <trkpt lat="40.96114" lon="-2.72764">
        <ele>886.548383</ele>
        <time>2022-08-31T14:56:43.356Z</time>
      </trkpt>
      <trkpt lat="40.96063" lon="-2.72769">
        <ele>887.385029</ele>
        <time>2022-08-31T14:56:57.471Z</time>
      </trkpt>
      <trkpt lat="40.96008" lon="-2.72785">
        <ele>888.281563</ele>
        <time>2022-08-31T14:57:14.897Z</time>
      </trkpt>
      <trkpt lat="40.95982" lon="-2.72798">
        <ele>888.741953</ele>
        <time>2022-08-31T14:57:23.068Z</time>
      </trkpt>
      <trkpt lat="40.95939" lon="-2.72835">
        <ele>889.837455</ele>
        <time>2022-08-31T14:57:38.353Z</time>
      </trkpt>
      <trkpt lat="40.95927" lon="-2.7281">
        <ele>890.989267</ele>
        <time>2022-08-31T14:57:50.190Z</time>
      </trkpt>
      <trkpt lat="40.9592" lon="-2.7277">
        <ele>892.554149</ele>
        <time>2022-08-31T14:58:07.068Z</time>
      </trkpt>
      <trkpt lat="40.95894" lon="-2.72733">
        <ele>894.464684</ele>
        <time>2022-08-31T14:58:29.333Z</time>
      </trkpt>
      <trkpt lat="40.9588" lon="-2.72721">
        <ele>895.311112</ele>
        <time>2022-08-31T14:58:39.512Z</time>
      </trkpt>
      <trkpt lat="40.95572" lon="-2.72671">
        <ele>917.8724</ele>
        <time>2022-08-31T15:02:36.642Z</time>
      </trkpt>
      <trkpt lat="40.95291" lon="-2.72641">
        <ele>939.859505</ele>
        <time>2022-08-31T15:06:13.838Z</time>
      </trkpt>
      <trkpt lat="40.9519" lon="-2.72575">
        <ele>948.434425</ele>
        <time>2022-08-31T15:07:30.856Z</time>
      </trkpt>
      <trkpt lat="40.95154" lon="-2.72558">
        <ele>951.349253</ele>
        <time>2022-08-31T15:07:58.960Z</time>
      </trkpt>
      <trkpt lat="40.95125" lon="-2.72559">
        <ele>953.565522</ele>
        <time>2022-08-31T15:08:21.374Z</time>
      </trkpt>
      <trkpt lat="40.9505" lon="-2.72548">
        <ele>963.68432</ele>
        <time>2022-08-31T15:09:31.805Z</time>
      </trkpt>
      <trkpt lat="40.94983" lon="-2.72514">
        <ele>974.103413</ele>
        <time>2022-08-31T15:10:57.063Z</time>
      </trkpt>
      <trkpt lat="40.94919" lon="-2.7247">
        <ele>985.507933</ele>
        <time>2022-08-31T15:12:25.428Z</time>
      </trkpt>
      <trkpt lat="40.94901" lon="-2.72482">
        <ele>989.276534</ele>
        <time>2022-08-31T15:12:53.698Z</time>
      </trkpt>
      <trkpt lat="40.94868" lon="-2.72513">
        <ele>996.64761</ele>
        <time>2022-08-31T15:13:46.756Z</time>
      </trkpt>
      <trkpt lat="40.94845" lon="-2.72544">
        <ele>1002.641855</ele>
        <time>2022-08-31T15:14:30.667Z</time>
      </trkpt>
      <trkpt lat="40.94787" lon="-2.72593">
        <ele>1014.620989</ele>
        <time>2022-08-31T15:16:03.193Z</time>
      </trkpt>
      <trkpt lat="40.947" lon="-2.72631">
        <ele>1026.784199</ele>
        <time>2022-08-31T15:17:42.476Z</time>
      </trkpt>
      <trkpt lat="40.94675" lon="-2.72635">
        <ele>1030.121208</ele>
        <time>2022-08-31T15:18:08.440Z</time>
      </trkpt>
      <trkpt lat="40.94657" lon="-2.7263">
        <ele>1032.563267</ele>
        <time>2022-08-31T15:18:24.160Z</time>
      </trkpt>
      <trkpt lat="40.94634" lon="-2.72617">
        <ele>1035.841158</ele>
        <time>2022-08-31T15:18:45.861Z</time>
      </trkpt>
      <trkpt lat="40.9463" lon="-2.72602">
        <ele>1037.246935</ele>
        <time>2022-08-31T15:18:54.925Z</time>
      </trkpt>
      <trkpt lat="40.94677" lon="-2.72595">
        <ele>1040.893389</ele>
        <time>2022-08-31T15:19:31.229Z</time>
      </trkpt>
      <trkpt lat="40.94712" lon="-2.72583">
        <ele>1043.704764</ele>
        <time>2022-08-31T15:19:58.450Z</time>
      </trkpt>
      <trkpt lat="40.94714" lon="-2.72569">
        <ele>1044.537548</ele>
        <time>2022-08-31T15:20:06.680Z</time>
      </trkpt>
      <trkpt lat="40.94662" lon="-2.72575">
        <ele>1048.605494</ele>
        <time>2022-08-31T15:20:41.639Z</time>
      </trkpt>
      <trkpt lat="40.94645" lon="-2.72571">
        <ele>1050.016913</ele>
        <time>2022-08-31T15:20:55.042Z</time>
      </trkpt>
      <trkpt lat="40.94587" lon="-2.72501">
        <ele>1056.07718</ele>
        <time>2022-08-31T15:21:57.624Z</time>
      </trkpt>
      <trkpt lat="40.9456" lon="-2.72482">
        <ele>1058.486783</ele>
        <time>2022-08-31T15:22:22.057Z</time>
      </trkpt>
      <trkpt lat="40.94519" lon="-2.72466">
        <ele>1061.811128</ele>
        <time>2022-08-31T15:22:56.262Z</time>
      </trkpt>
      <trkpt lat="40.94478" lon="-2.72481">
        <ele>1065.098643</ele>
        <time>2022-08-31T15:23:21.810Z</time>
      </trkpt>
      <trkpt lat="40.94472" lon="-2.72484">
        <ele>1065.288335</ele>
        <time>2022-08-31T15:23:24.897Z</time>
      </trkpt>
      <trkpt lat="40.94458" lon="-2.72491">
        <ele>1065.790811</ele>
        <time>2022-08-31T15:23:32.928Z</time>
      </trkpt>
      <trkpt lat="40.94402" lon="-2.72506">
        <ele>1067.66582</ele>
        <time>2022-08-31T15:23:59.249Z</time>
      </trkpt>
      <trkpt lat="40.94404" lon="-2.72531">
        <ele>1068.270154</ele>
        <time>2022-08-31T15:24:06.636Z</time>
      </trkpt>
      <trkpt lat="40.94336" lon="-2.72517">
        <ele>1070.521732</ele>
        <time>2022-08-31T15:24:26.853Z</time>
      </trkpt>
      <trkpt lat="40.94268" lon="-2.72493">
        <ele>1071.159366</ele>
        <time>2022-08-31T15:24:45.175Z</time>
      </trkpt>
      <trkpt lat="40.94236" lon="-2.72483">
        <ele>1071.269868</ele>
        <time>2022-08-31T15:24:53.190Z</time>
      </trkpt>
      <trkpt lat="40.9398" lon="-2.72451">
        <ele>1071.6977</ele>
        <time>2022-08-31T15:25:53.996Z</time>
      </trkpt>
      <trkpt lat="40.93835" lon="-2.72439">
        <ele>1071.737452</ele>
        <time>2022-08-31T15:26:27.762Z</time>
      </trkpt>
      <trkpt lat="40.93725" lon="-2.72392">
        <ele>1071.594942</ele>
        <time>2022-08-31T15:26:54.440Z</time>
      </trkpt>
      <trkpt lat="40.9347" lon="-2.72082">
        <ele>1070.516902</ele>
        <time>2022-08-31T15:28:11.417Z</time>
      </trkpt>
      <trkpt lat="40.93142" lon="-2.71632">
        <ele>1068.6627</ele>
        <time>2022-08-31T15:29:54.917Z</time>
      </trkpt>
      <trkpt lat="40.93069" lon="-2.71531">
        <ele>1069.321787</ele>
        <time>2022-08-31T15:30:23.723Z</time>
      </trkpt>
      <trkpt lat="40.93041" lon="-2.7151">
        <ele>1069.562925</ele>
        <time>2022-08-31T15:30:32.848Z</time>
      </trkpt>
      <trkpt lat="40.93029" lon="-2.71509">
        <ele>1069.649985</ele>
        <time>2022-08-31T15:30:35.996Z</time>
      </trkpt>
      <trkpt lat="40.93019" lon="-2.71496">
        <ele>1069.757121</ele>
        <time>2022-08-31T15:30:40.257Z</time>
      </trkpt>
      <trkpt lat="40.93018" lon="-2.71482">
        <ele>1069.836117</ele>
        <time>2022-08-31T15:30:43.303Z</time>
      </trkpt>
      <trkpt lat="40.93008" lon="-2.71458">
        <ele>1069.974078</ele>
        <time>2022-08-31T15:30:49.009Z</time>
      </trkpt>
      <trkpt lat="40.92963" lon="-2.71418">
        <ele>1070.098197</ele>
        <time>2022-08-31T15:31:03.295Z</time>
      </trkpt>
      <trkpt lat="40.92946" lon="-2.71415">
        <ele>1070.136899</ele>
        <time>2022-08-31T15:31:07.499Z</time>
      </trkpt>
      <trkpt lat="40.92938" lon="-2.71417">
        <ele>1070.154319</ele>
        <time>2022-08-31T15:31:09.366Z</time>
      </trkpt>
      <trkpt lat="40.92924" lon="-2.71409">
        <ele>1070.188703</ele>
        <time>2022-08-31T15:31:12.882Z</time>
      </trkpt>
      <trkpt lat="40.9292" lon="-2.71399">
        <ele>1070.209919</ele>
        <time>2022-08-31T15:31:15.014Z</time>
      </trkpt>
      <trkpt lat="40.92899" lon="-2.71376">
        <ele>1070.270639</ele>
        <time>2022-08-31T15:31:21.178Z</time>
      </trkpt>
      <trkpt lat="40.9282" lon="-2.71334">
        <ele>1070.203627</ele>
        <time>2022-08-31T15:31:40.563Z</time>
      </trkpt>
      <trkpt lat="40.92755" lon="-2.71303">
        <ele>1069.906588</ele>
        <time>2022-08-31T15:31:55.754Z</time>
      </trkpt>
      <trkpt lat="40.92688" lon="-2.71262">
        <ele>1069.574549</ele>
        <time>2022-08-31T15:32:11.780Z</time>
      </trkpt>
      <trkpt lat="40.9263" lon="-2.71218">
        <ele>1069.003766</ele>
        <time>2022-08-31T15:32:26.002Z</time>
      </trkpt>
      <trkpt lat="40.92326" lon="-2.70887">
        <ele>1066.046247</ele>
        <time>2022-08-31T15:33:48.693Z</time>
      </trkpt>
      <trkpt lat="40.92219" lon="-2.70978">
        <ele>1066.058011</ele>
        <time>2022-08-31T15:34:36.011Z</time>
      </trkpt>
      <trkpt lat="40.92173" lon="-2.71008">
        <ele>1066.431361</ele>
        <time>2022-08-31T15:34:57.303Z</time>
      </trkpt>
      <trkpt lat="40.91991" lon="-2.71044">
        <ele>1067.912142</ele>
        <time>2022-08-31T15:36:15.412Z</time>
      </trkpt>
      <trkpt lat="40.91856" lon="-2.71036">
        <ele>1068.520763</ele>
        <time>2022-08-31T15:37:09.103Z</time>
      </trkpt>
      <trkpt lat="40.91794" lon="-2.71018">
        <ele>1068.476979</ele>
        <time>2022-08-31T15:37:32.238Z</time>
      </trkpt>
      <trkpt lat="40.91732" lon="-2.70984">
        <ele>1068.387669</ele>
        <time>2022-08-31T15:37:56.183Z</time>
      </trkpt>
      <trkpt lat="40.91552" lon="-2.70865">
        <ele>1067.708256</ele>
        <time>2022-08-31T15:39:08.004Z</time>
      </trkpt>
      <trkpt lat="40.91363" lon="-2.70714">
        <ele>1067.867896</ele>
        <time>2022-08-31T15:40:34.471Z</time>
      </trkpt>
      <trkpt lat="40.91282" lon="-2.7061">
        <ele>1067.596671</ele>
        <time>2022-08-31T15:41:15.091Z</time>
      </trkpt>
      <trkpt lat="40.91136" lon="-2.70398">
        <ele>1064.370493</ele>
        <time>2022-08-31T15:42:27.236Z</time>
      </trkpt>
      <trkpt lat="40.91036" lon="-2.70253">
        <ele>1061.695799</ele>
        <time>2022-08-31T15:43:15.729Z</time>
      </trkpt>
      <trkpt lat="40.90876" lon="-2.70103">
        <ele>1058.913121</ele>
        <time>2022-08-31T15:44:20.749Z</time>
      </trkpt>
      <trkpt lat="40.90483" lon="-2.69703">
        <ele>1057.507522</ele>
        <time>2022-08-31T15:47:21.476Z</time>
      </trkpt>
      <trkpt lat="40.90308" lon="-2.69516">
        <ele>1057.778544</ele>
        <time>2022-08-31T15:48:47.040Z</time>
      </trkpt>
      <trkpt lat="40.90281" lon="-2.69516">
        <ele>1057.815749</ele>
        <time>2022-08-31T15:48:57.233Z</time>
      </trkpt>
      <trkpt lat="40.90249" lon="-2.69546">
        <ele>1057.87014</ele>
        <time>2022-08-31T15:49:06.738Z</time>
      </trkpt>
      <trkpt lat="40.9022" lon="-2.69547">
        <ele>1057.910428</ele>
        <time>2022-08-31T15:49:13.703Z</time>
      </trkpt>
      <trkpt lat="40.90102" lon="-2.69466">
        <ele>1057.809796</ele>
        <time>2022-08-31T15:49:44.815Z</time>
      </trkpt>
      <trkpt lat="40.90059" lon="-2.69436">
        <ele>1057.700372</ele>
        <time>2022-08-31T15:49:55.565Z</time>
      </trkpt>
      <trkpt lat="40.90046" lon="-2.6943">
        <ele>1057.670454</ele>
        <time>2022-08-31T15:49:58.435Z</time>
      </trkpt>
      <trkpt lat="40.90015" lon="-2.69434">
        <ele>1057.597876</ele>
        <time>2022-08-31T15:50:05.514Z</time>
      </trkpt>
      <trkpt lat="40.89995" lon="-2.69457">
        <ele>1057.520719</ele>
        <time>2022-08-31T15:50:11.180Z</time>
      </trkpt>
      <trkpt lat="40.89991" lon="-2.69498">
        <ele>1057.418856</ele>
        <time>2022-08-31T15:50:17.884Z</time>
      </trkpt>
      <trkpt lat="40.89999" lon="-2.69538">
        <ele>1057.314035</ele>
        <time>2022-08-31T15:50:24.678Z</time>
      </trkpt>
      <trkpt lat="40.90002" lon="-2.69573">
        <ele>1057.22622</ele>
        <time>2022-08-31T15:50:30.468Z</time>
      </trkpt>
      <trkpt lat="40.89997" lon="-2.69592">
        <ele>1057.174294</ele>
        <time>2022-08-31T15:50:33.961Z</time>
      </trkpt>
      <trkpt lat="40.8987" lon="-2.69916">
        <ele>1057.441056</ele>
        <time>2022-08-31T15:51:37.369Z</time>
      </trkpt>
      <trkpt lat="40.89651" lon="-2.69688">
        <ele>1061.35089</ele>
        <time>2022-08-31T15:53:41.647Z</time>
      </trkpt>
      <trkpt lat="40.89622" lon="-2.6965">
        <ele>1062.045061</ele>
        <time>2022-08-31T15:54:01.009Z</time>
      </trkpt>
      <trkpt lat="40.8949" lon="-2.69345">
        <ele>1068.313824</ele>
        <time>2022-08-31T15:56:14.007Z</time>
      </trkpt>
      <trkpt lat="40.89416" lon="-2.69204">
        <ele>1070.534559</ele>
        <time>2022-08-31T15:57:12.562Z</time>
      </trkpt>
      <trkpt lat="40.8912" lon="-2.68854">
        <ele>1072.976183</ele>
        <time>2022-08-31T15:59:50.652Z</time>
      </trkpt>
      <trkpt lat="40.88901" lon="-2.68669">
        <ele>1073.277006</ele>
        <time>2022-08-31T16:01:30.685Z</time>
      </trkpt>
      <trkpt lat="40.88525" lon="-2.68383">
        <ele>1065.658012</ele>
        <time>2022-08-31T16:03:57.440Z</time>
      </trkpt>
      <trkpt lat="40.8844" lon="-2.68314">
        <ele>1059.7129</ele>
        <time>2022-08-31T16:04:24.297Z</time>
      </trkpt>
      <trkpt lat="40.88325" lon="-2.68242">
        <ele>1050.039772</ele>
        <time>2022-08-31T16:04:57.746Z</time>
      </trkpt>
      <trkpt lat="40.88306" lon="-2.68247">
        <ele>1048.39199</ele>
        <time>2022-08-31T16:05:03.040Z</time>
      </trkpt>
      <trkpt lat="40.88189" lon="-2.68345">
        <ele>1037.948001</ele>
        <time>2022-08-31T16:05:40.468Z</time>
      </trkpt>
      <trkpt lat="40.88166" lon="-2.68361">
        <ele>1036.175255</ele>
        <time>2022-08-31T16:05:47.591Z</time>
      </trkpt>
      <trkpt lat="40.88157" lon="-2.68356">
        <ele>1035.457995</ele>
        <time>2022-08-31T16:05:50.555Z</time>
      </trkpt>
      <trkpt lat="40.88147" lon="-2.68298">
        <ele>1032.358602</ele>
        <time>2022-08-31T16:06:02.882Z</time>
      </trkpt>
      <trkpt lat="40.88106" lon="-2.68249">
        <ele>1028.533475</ele>
        <time>2022-08-31T16:06:18.002Z</time>
      </trkpt>
      <trkpt lat="40.8803" lon="-2.68116">
        <ele>1019.871172</ele>
        <time>2022-08-31T16:06:52.616Z</time>
      </trkpt>
      <trkpt lat="40.87972" lon="-2.68059">
        <ele>1015.896005</ele>
        <time>2022-08-31T16:07:12.160Z</time>
      </trkpt>
      <trkpt lat="40.87928" lon="-2.67997">
        <ele>1012.875205</ele>
        <time>2022-08-31T16:07:30.530Z</time>
      </trkpt>
      <trkpt lat="40.87864" lon="-2.6795">
        <ele>1009.602259</ele>
        <time>2022-08-31T16:07:53.509Z</time>
      </trkpt>
      <trkpt lat="40.87824" lon="-2.67891">
        <ele>1009.567966</ele>
        <time>2022-08-31T16:08:13.963Z</time>
      </trkpt>
      <trkpt lat="40.87801" lon="-2.67868">
        <ele>1009.551176</ele>
        <time>2022-08-31T16:08:24.792Z</time>
      </trkpt>
      <trkpt lat="40.87731" lon="-2.67876">
        <ele>1009.510858</ele>
        <time>2022-08-31T16:08:54.642Z</time>
      </trkpt>
      <trkpt lat="40.87715" lon="-2.67868">
        <ele>1009.500968</ele>
        <time>2022-08-31T16:09:02.412Z</time>
      </trkpt>
      <trkpt lat="40.87709" lon="-2.67853">
        <ele>1009.473269</ele>
        <time>2022-08-31T16:09:07.945Z</time>
      </trkpt>
      <trkpt lat="40.87711" lon="-2.67825">
        <ele>1009.423611</ele>
        <time>2022-08-31T16:09:16.978Z</time>
      </trkpt>
      <trkpt lat="40.87705" lon="-2.67811">
        <ele>1009.393576</ele>
        <time>2022-08-31T16:09:22.160Z</time>
      </trkpt>
      <trkpt lat="40.87664" lon="-2.67772">
        <ele>1009.275587</ele>
        <time>2022-08-31T16:09:40.877Z</time>
      </trkpt>
      <trkpt lat="40.87615" lon="-2.67666">
        <ele>1008.888626</ele>
        <time>2022-08-31T16:10:13.065Z</time>
      </trkpt>
      <trkpt lat="40.87577" lon="-2.67604">
        <ele>1007.754162</ele>
        <time>2022-08-31T16:10:33.147Z</time>
      </trkpt>
      <trkpt lat="40.8755" lon="-2.67497">
        <ele>1006.132099</ele>
        <time>2022-08-31T16:11:01.093Z</time>
      </trkpt>
      <trkpt lat="40.87528" lon="-2.67452">
        <ele>1005.033118</ele>
        <time>2022-08-31T16:11:14.007Z</time>
      </trkpt>
      <trkpt lat="40.87484" lon="-2.67406">
        <ele>1002.855156</ele>
        <time>2022-08-31T16:11:30.915Z</time>
      </trkpt>
      <trkpt lat="40.8745" lon="-2.67386">
        <ele>1001.408101</ele>
        <time>2022-08-31T16:11:41.935Z</time>
      </trkpt>
      <trkpt lat="40.87397" lon="-2.67318">
        <ele>998.511231</ele>
        <time>2022-08-31T16:12:03.558Z</time>
      </trkpt>
      <trkpt lat="40.87376" lon="-2.67299">
        <ele>997.251826</ele>
        <time>2022-08-31T16:12:10.869Z</time>
      </trkpt>
      <trkpt lat="40.87314" lon="-2.67267">
        <ele>993.966018</ele>
        <time>2022-08-31T16:12:30.343Z</time>
      </trkpt>
      <trkpt lat="40.87253" lon="-2.67178">
        <ele>989.49957</ele>
        <time>2022-08-31T16:12:56.254Z</time>
      </trkpt>
      <trkpt lat="40.87213" lon="-2.67151">
        <ele>986.902444</ele>
        <time>2022-08-31T16:13:04.068Z</time>
      </trkpt>
      <trkpt lat="40.87219" lon="-2.67096">
        <ele>984.508085</ele>
        <time>2022-08-31T16:13:10.833Z</time>
      </trkpt>
      <trkpt lat="40.87226" lon="-2.67065">
        <ele>983.089705</ele>
        <time>2022-08-31T16:13:14.848Z</time>
      </trkpt>
      <trkpt lat="40.87225" lon="-2.67035">
        <ele>981.805905</ele>
        <time>2022-08-31T16:13:18.404Z</time>
      </trkpt>
      <trkpt lat="40.87194" lon="-2.67029">
        <ele>980.020395</ele>
        <time>2022-08-31T16:13:23.254Z</time>
      </trkpt>
      <trkpt lat="40.8718" lon="-2.67016">
        <ele>978.951386</ele>
        <time>2022-08-31T16:13:26.104Z</time>
      </trkpt>
      <trkpt lat="40.87185" lon="-2.66982">
        <ele>977.27095</ele>
        <time>2022-08-31T16:13:30.172Z</time>
      </trkpt>
      <trkpt lat="40.87163" lon="-2.66962">
        <ele>975.505411</ele>
        <time>2022-08-31T16:13:34.433Z</time>
      </trkpt>
      <trkpt lat="40.87134" lon="-2.66913">
        <ele>972.436722</ele>
        <time>2022-08-31T16:13:41.996Z</time>
      </trkpt>
      <trkpt lat="40.87124" lon="-2.66888">
        <ele>971.080553</ele>
        <time>2022-08-31T16:13:45.257Z</time>
      </trkpt>
      <trkpt lat="40.87062" lon="-2.66887">
        <ele>967.470089</ele>
        <time>2022-08-31T16:13:54.759Z</time>
      </trkpt>
      <trkpt lat="40.87002" lon="-2.6686">
        <ele>965.452413</ele>
        <time>2022-08-31T16:14:05.159Z</time>
      </trkpt>
      <trkpt lat="40.86947" lon="-2.66851">
        <ele>963.668495</ele>
        <time>2022-08-31T16:14:15.073Z</time>
      </trkpt>
      <trkpt lat="40.86929" lon="-2.66838">
        <ele>963.014069</ele>
        <time>2022-08-31T16:14:19.040Z</time>
      </trkpt>
      <trkpt lat="40.86922" lon="-2.66823">
        <ele>962.582043</ele>
        <time>2022-08-31T16:14:21.555Z</time>
      </trkpt>
      <trkpt lat="40.86911" lon="-2.66798">
        <ele>962.012357</ele>
        <time>2022-08-31T16:14:25.601Z</time>
      </trkpt>
      <trkpt lat="40.86882" lon="-2.66767">
        <ele>961.418331</ele>
        <time>2022-08-31T16:14:32.764Z</time>
      </trkpt>
      <trkpt lat="40.8685" lon="-2.6675">
        <ele>960.872158</ele>
        <time>2022-08-31T16:14:39.540Z</time>
      </trkpt>
      <trkpt lat="40.86782" lon="-2.66755">
        <ele>959.787963</ele>
        <time>2022-08-31T16:14:53.060Z</time>
      </trkpt>
      <trkpt lat="40.8673" lon="-2.66754">
        <ele>958.618743</ele>
        <time>2022-08-31T16:15:02.440Z</time>
      </trkpt>
      <trkpt lat="40.86526" lon="-2.66728">
        <ele>951.706577</ele>
        <time>2022-08-31T16:15:36.535Z</time>
      </trkpt>
      <trkpt lat="40.86483" lon="-2.66693">
        <ele>950.11968</ele>
        <time>2022-08-31T16:15:45.042Z</time>
      </trkpt>
      <trkpt lat="40.86424" lon="-2.6663">
        <ele>947.726056</ele>
        <time>2022-08-31T16:15:58.195Z</time>
      </trkpt>
      <trkpt lat="40.86402" lon="-2.66603">
        <ele>946.985039</ele>
        <time>2022-08-31T16:16:03.583Z</time>
      </trkpt>
      <trkpt lat="40.86142" lon="-2.66199">
        <ele>939.046199</ele>
        <time>2022-08-31T16:17:17.172Z</time>
      </trkpt>
      <trkpt lat="40.86045" lon="-2.66078">
        <ele>937.207019</ele>
        <time>2022-08-31T16:17:42.973Z</time>
      </trkpt>
      <trkpt lat="40.86017" lon="-2.66037">
        <ele>936.977949</ele>
        <time>2022-08-31T16:17:51.438Z</time>
      </trkpt>
      <trkpt lat="40.85914" lon="-2.65921">
        <ele>936.271707</ele>
        <time>2022-08-31T16:18:20.295Z</time>
      </trkpt>
      <trkpt lat="40.85825" lon="-2.65804">
        <ele>936.042751</ele>
        <time>2022-08-31T16:18:47.772Z</time>
      </trkpt>
      <trkpt lat="40.857" lon="-2.65723">
        <ele>935.627755</ele>
        <time>2022-08-31T16:19:17.721Z</time>
      </trkpt>
      <trkpt lat="40.85649" lon="-2.65701">
        <ele>935.441269</ele>
        <time>2022-08-31T16:19:29.471Z</time>
      </trkpt>
      <trkpt lat="40.85524" lon="-2.65674">
        <ele>934.293642</ele>
        <time>2022-08-31T16:19:55.172Z</time>
      </trkpt>
      <trkpt lat="40.85295" lon="-2.65644">
        <ele>931.692435</ele>
        <time>2022-08-31T16:20:38.792Z</time>
      </trkpt>
      <trkpt lat="40.85275" lon="-2.65646">
        <ele>931.455169</ele>
        <time>2022-08-31T16:20:43.282Z</time>
      </trkpt>
      <trkpt lat="40.85104" lon="-2.65745">
        <ele>931.367205</ele>
        <time>2022-08-31T16:21:27.262Z</time>
      </trkpt>
      <trkpt lat="40.85069" lon="-2.65757">
        <ele>931.103795</ele>
        <time>2022-08-31T16:21:34.930Z</time>
      </trkpt>
      <trkpt lat="40.84937" lon="-2.6578">
        <ele>929.998497</ele>
        <time>2022-08-31T16:22:01.348Z</time>
      </trkpt>
      <trkpt lat="40.8477" lon="-2.65819">
        <ele>927.815023</ele>
        <time>2022-08-31T16:22:34.363Z</time>
      </trkpt>
      <trkpt lat="40.84733" lon="-2.65823">
        <ele>927.24522</ele>
        <time>2022-08-31T16:22:41.399Z</time>
      </trkpt>
      <trkpt lat="40.84634" lon="-2.65818">
        <ele>925.323396</ele>
        <time>2022-08-31T16:22:59.484Z</time>
      </trkpt>
      <trkpt lat="40.84364" lon="-2.65863">
        <ele>920.189413</ele>
        <time>2022-08-31T16:23:49.162Z</time>
      </trkpt>
      <trkpt lat="40.84308" lon="-2.65853">
        <ele>919.627851</ele>
        <time>2022-08-31T16:24:00.581Z</time>
      </trkpt>
      <trkpt lat="40.84262" lon="-2.65836">
        <ele>919.142785</ele>
        <time>2022-08-31T16:24:10.519Z</time>
      </trkpt>
      <trkpt lat="40.84202" lon="-2.65866">
        <ele>918.511744</ele>
        <time>2022-08-31T16:24:23.792Z</time>
      </trkpt>
      <trkpt lat="40.84015" lon="-2.65926">
        <ele>916.526422</ele>
        <time>2022-08-31T16:25:02.277Z</time>
      </trkpt>
      <trkpt lat="40.83969" lon="-2.65931">
        <ele>915.7065</ele>
        <time>2022-08-31T16:25:11.047Z</time>
      </trkpt>
      <trkpt lat="40.83941" lon="-2.65944">
        <ele>915.186809</ele>
        <time>2022-08-31T16:25:16.512Z</time>
      </trkpt>
      <trkpt lat="40.83913" lon="-2.65985">
        <ele>914.441539</ele>
        <time>2022-08-31T16:25:24.236Z</time>
      </trkpt>
      <trkpt lat="40.8388" lon="-2.66015">
        <ele>913.702996</ele>
        <time>2022-08-31T16:25:31.519Z</time>
      </trkpt>
      <trkpt lat="40.83787" lon="-2.66053">
        <ele>910.882673</ele>
        <time>2022-08-31T16:25:48.588Z</time>
      </trkpt>
      <trkpt lat="40.8376" lon="-2.66084">
        <ele>909.852878</ele>
        <time>2022-08-31T16:25:54.644Z</time>
      </trkpt>
      <trkpt lat="40.83738" lon="-2.66098">
        <ele>909.134888</ele>
        <time>2022-08-31T16:25:58.838Z</time>
      </trkpt>
      <trkpt lat="40.83631" lon="-2.66106">
        <ele>905.694899</ele>
        <time>2022-08-31T16:26:16.848Z</time>
      </trkpt>
      <trkpt lat="40.83499" lon="-2.66145">
        <ele>901.48312</ele>
        <time>2022-08-31T16:26:40.175Z</time>
      </trkpt>
      <trkpt lat="40.83384" lon="-2.66194">
        <ele>898.198963</ele>
        <time>2022-08-31T16:27:01.310Z</time>
      </trkpt>
      <trkpt lat="40.83263" lon="-2.66284">
        <ele>895.176769</ele>
        <time>2022-08-31T16:27:26.463Z</time>
      </trkpt>
      <trkpt lat="40.83203" lon="-2.66352">
        <ele>893.63596</ele>
        <time>2022-08-31T16:27:40.935Z</time>
      </trkpt>
      <trkpt lat="40.83077" lon="-2.66433">
        <ele>891.580212</ele>
        <time>2022-08-31T16:28:07.863Z</time>
      </trkpt>
      <trkpt lat="40.83053" lon="-2.66443">
        <ele>891.260236</ele>
        <time>2022-08-31T16:28:12.675Z</time>
      </trkpt>
      <trkpt lat="40.82947" lon="-2.66453">
        <ele>890.328771</ele>
        <time>2022-08-31T16:28:33.989Z</time>
      </trkpt>
      <trkpt lat="40.82864" lon="-2.66453">
        <ele>889.619458</ele>
        <time>2022-08-31T16:28:51.081Z</time>
      </trkpt>
      <trkpt lat="40.82855" lon="-2.66463">
        <ele>889.530175</ele>
        <time>2022-08-31T16:28:53.476Z</time>
      </trkpt>
      <trkpt lat="40.8285" lon="-2.66492">
        <ele>889.357508</ele>
        <time>2022-08-31T16:28:58.109Z</time>
      </trkpt>
      <trkpt lat="40.82852" lon="-2.66587">
        <ele>888.810322</ele>
        <time>2022-08-31T16:29:12.729Z</time>
      </trkpt>
      <trkpt lat="40.82806" lon="-2.66797">
        <ele>887.842449</ele>
        <time>2022-08-31T16:29:45.910Z</time>
      </trkpt>
      <trkpt lat="40.82797" lon="-2.66794">
        <ele>887.796101</ele>
        <time>2022-08-31T16:29:47.851Z</time>
      </trkpt>
      <trkpt lat="40.82571" lon="-2.66721">
        <ele>888.937994</ele>
        <time>2022-08-31T16:30:44.767Z</time>
      </trkpt>
      <trkpt lat="40.82554" lon="-2.66716">
        <ele>889.376273</ele>
        <time>2022-08-31T16:30:51.835Z</time>
      </trkpt>
      <trkpt lat="40.82475" lon="-2.6669">
        <ele>893.331828</ele>
        <time>2022-08-31T16:31:29.280Z</time>
      </trkpt>
      <trkpt lat="40.82248" lon="-2.66616">
        <ele>904.674343</ele>
        <time>2022-08-31T16:33:35.262Z</time>
      </trkpt>
      <trkpt lat="40.82137" lon="-2.66601">
        <ele>906.532454</ele>
        <time>2022-08-31T16:34:06.613Z</time>
      </trkpt>
      <trkpt lat="40.82117" lon="-2.66605">
        <ele>906.550836</ele>
        <time>2022-08-31T16:34:11.627Z</time>
      </trkpt>
      <trkpt lat="40.82097" lon="-2.6661">
        <ele>906.568817</ele>
        <time>2022-08-31T16:34:15.124Z</time>
      </trkpt>
      <trkpt lat="40.82001" lon="-2.66698">
        <ele>907.173207</ele>
        <time>2022-08-31T16:34:40.320Z</time>
      </trkpt>
      <trkpt lat="40.81961" lon="-2.66708">
        <ele>907.599177</ele>
        <time>2022-08-31T16:34:49.488Z</time>
      </trkpt>
      <trkpt lat="40.81935" lon="-2.66686">
        <ele>907.92671</ele>
        <time>2022-08-31T16:34:58.124Z</time>
      </trkpt>
      <trkpt lat="40.81883" lon="-2.66647">
        <ele>908.654656</ele>
        <time>2022-08-31T16:35:19.491Z</time>
      </trkpt>
      <trkpt lat="40.81838" lon="-2.6659">
        <ele>911.517872</ele>
        <time>2022-08-31T16:35:50.417Z</time>
      </trkpt>
      <trkpt lat="40.81779" lon="-2.66538">
        <ele>914.752284</ele>
        <time>2022-08-31T16:36:25.963Z</time>
      </trkpt>
      <trkpt lat="40.81751" lon="-2.66507">
        <ele>916.38752</ele>
        <time>2022-08-31T16:36:41.991Z</time>
      </trkpt>
      <trkpt lat="40.81729" lon="-2.66417">
        <ele>919.201966</ele>
        <time>2022-08-31T16:37:22.376Z</time>
      </trkpt>
      <trkpt lat="40.8172" lon="-2.66331">
        <ele>921.737999</ele>
        <time>2022-08-31T16:38:00.093Z</time>
      </trkpt>
      <trkpt lat="40.81705" lon="-2.66269">
        <ele>923.627291</ele>
        <time>2022-08-31T16:38:26.093Z</time>
      </trkpt>
      <trkpt lat="40.81696" lon="-2.66248">
        <ele>924.451611</ele>
        <time>2022-08-31T16:38:35.655Z</time>
      </trkpt>
      <trkpt lat="40.81675" lon="-2.66218">
        <ele>925.848415</ele>
        <time>2022-08-31T16:38:53.068Z</time>
      </trkpt>
      <trkpt lat="40.81591" lon="-2.66112">
        <ele>931.055912</ele>
        <time>2022-08-31T16:40:03.830Z</time>
      </trkpt>
      <trkpt lat="40.81548" lon="-2.66061">
        <ele>933.885125</ele>
        <time>2022-08-31T16:40:41.280Z</time>
      </trkpt>
      <trkpt lat="40.81497" lon="-2.66023">
        <ele>936.822482</ele>
        <time>2022-08-31T16:41:18.272Z</time>
      </trkpt>
      <trkpt lat="40.81467" lon="-2.6599">
        <ele>938.768547</ele>
        <time>2022-08-31T16:41:42.667Z</time>
      </trkpt>
      <trkpt lat="40.8145" lon="-2.65958">
        <ele>940.248965</ele>
        <time>2022-08-31T16:42:00.606Z</time>
      </trkpt>
      <trkpt lat="40.81421" lon="-2.65936">
        <ele>941.842063</ele>
        <time>2022-08-31T16:42:20.070Z</time>
      </trkpt>
      <trkpt lat="40.81399" lon="-2.65906">
        <ele>943.283922</ele>
        <time>2022-08-31T16:42:37.547Z</time>
      </trkpt>
      <trkpt lat="40.81327" lon="-2.65804">
        <ele>948.172862</ele>
        <time>2022-08-31T16:43:41.205Z</time>
      </trkpt>
      <trkpt lat="40.81287" lon="-2.65683">
        <ele>953.170631</ele>
        <time>2022-08-31T16:44:45.769Z</time>
      </trkpt>
      <trkpt lat="40.81273" lon="-2.65614">
        <ele>955.896061</ele>
        <time>2022-08-31T16:45:20.180Z</time>
      </trkpt>
      <trkpt lat="40.81268" lon="-2.65556">
        <ele>958.119681</ele>
        <time>2022-08-31T16:45:46.269Z</time>
      </trkpt>
      <trkpt lat="40.81255" lon="-2.65532">
        <ele>958.896948</ele>
        <time>2022-08-31T16:45:59.149Z</time>
      </trkpt>
      <trkpt lat="40.812" lon="-2.65501">
        <ele>961.034627</ele>
        <time>2022-08-31T16:46:33.762Z</time>
      </trkpt>
      <trkpt lat="40.81157" lon="-2.65497">
        <ele>962.545488</ele>
        <time>2022-08-31T16:46:55.828Z</time>
      </trkpt>
      <trkpt lat="40.81134" lon="-2.65488">
        <ele>963.427528</ele>
        <time>2022-08-31T16:47:08.252Z</time>
      </trkpt>
      <trkpt lat="40.80828" lon="-2.65322">
        <ele>973.634366</ele>
        <time>2022-08-31T16:50:02.854Z</time>
      </trkpt>
      <trkpt lat="40.80792" lon="-2.65314">
        <ele>974.70421</ele>
        <time>2022-08-31T16:50:21.866Z</time>
      </trkpt>
      <trkpt lat="40.80737" lon="-2.65312">
        <ele>975.524654</ele>
        <time>2022-08-31T16:50:48.562Z</time>
      </trkpt>
      <trkpt lat="40.80703" lon="-2.65295">
        <ele>975.690442</ele>
        <time>2022-08-31T16:51:04.685Z</time>
      </trkpt>
      <trkpt lat="40.80639" lon="-2.65246">
        <ele>976.032712</ele>
        <time>2022-08-31T16:51:33.144Z</time>
      </trkpt>
      <trkpt lat="40.80595" lon="-2.65227">
        <ele>976.036373</ele>
        <time>2022-08-31T16:51:48.861Z</time>
      </trkpt>
      <trkpt lat="40.80511" lon="-2.6523">
        <ele>974.132042</ele>
        <time>2022-08-31T16:52:15.639Z</time>
      </trkpt>
      <trkpt lat="40.80421" lon="-2.65256">
        <ele>972.07435</ele>
        <time>2022-08-31T16:52:44.705Z</time>
      </trkpt>
      <trkpt lat="40.80399" lon="-2.6525">
        <ele>971.627613</ele>
        <time>2022-08-31T16:52:51.927Z</time>
      </trkpt>
      <trkpt lat="40.80383" lon="-2.65231">
        <ele>971.211108</ele>
        <time>2022-08-31T16:52:58.899Z</time>
      </trkpt>
      <trkpt lat="40.80373" lon="-2.65209">
        <ele>970.82405</ele>
        <time>2022-08-31T16:53:05.354Z</time>
      </trkpt>
      <trkpt lat="40.80352" lon="-2.65152">
        <ele>969.870287</ele>
        <time>2022-08-31T16:53:21.473Z</time>
      </trkpt>
      <trkpt lat="40.803" lon="-2.65081">
        <ele>968.175341</ele>
        <time>2022-08-31T16:53:45.881Z</time>
      </trkpt>
      <trkpt lat="40.80268" lon="-2.65051">
        <ele>966.659251</ele>
        <time>2022-08-31T16:53:58.282Z</time>
      </trkpt>
      <trkpt lat="40.80225" lon="-2.65027">
        <ele>964.86094</ele>
        <time>2022-08-31T16:54:12.389Z</time>
      </trkpt>
      <trkpt lat="40.80184" lon="-2.64992">
        <ele>962.977395</ele>
        <time>2022-08-31T16:54:26.820Z</time>
      </trkpt>
      <trkpt lat="40.80137" lon="-2.6488">
        <ele>957.947135</ele>
        <time>2022-08-31T16:54:54.078Z</time>
      </trkpt>
      <trkpt lat="40.8013" lon="-2.64772">
        <ele>953.061404</ele>
        <time>2022-08-31T16:55:16.853Z</time>
      </trkpt>
      <trkpt lat="40.79995" lon="-2.64555">
        <ele>940.797896</ele>
        <time>2022-08-31T16:56:16.139Z</time>
      </trkpt>
      <trkpt lat="40.79828" lon="-2.63966">
        <ele>925.868932</ele>
        <time>2022-08-31T16:58:43.083Z</time>
      </trkpt>
      <trkpt lat="40.79781" lon="-2.63853">
        <ele>923.907673</ele>
        <time>2022-08-31T16:59:15.746Z</time>
      </trkpt>
      <trkpt lat="40.79721" lon="-2.63708">
        <ele>922.580277</ele>
        <time>2022-08-31T16:59:59.496Z</time>
      </trkpt>
      <trkpt lat="40.79705" lon="-2.63577">
        <ele>920.877602</ele>
        <time>2022-08-31T17:00:33.369Z</time>
      </trkpt>
      <trkpt lat="40.79657" lon="-2.63529">
        <ele>919.720394</ele>
        <time>2022-08-31T17:00:53.351Z</time>
      </trkpt>
      <trkpt lat="40.79489" lon="-2.63361">
        <ele>914.272833</ele>
        <time>2022-08-31T17:01:58.971Z</time>
      </trkpt>
      <trkpt lat="40.79336" lon="-2.63161">
        <ele>909.664143</ele>
        <time>2022-08-31T17:03:07.917Z</time>
      </trkpt>
      <trkpt lat="40.79277" lon="-2.63036">
        <ele>908.25385</ele>
        <time>2022-08-31T17:03:46.252Z</time>
      </trkpt>
      <trkpt lat="40.79162" lon="-2.62883">
        <ele>906.292716</ele>
        <time>2022-08-31T17:04:43.553Z</time>
      </trkpt>
      <trkpt lat="40.79114" lon="-2.62805">
        <ele>905.234111</ele>
        <time>2022-08-31T17:05:08.425Z</time>
      </trkpt>
      <trkpt lat="40.79035" lon="-2.62658">
        <ele>902.169417</ele>
        <time>2022-08-31T17:05:51.912Z</time>
      </trkpt>
      <trkpt lat="40.7902" lon="-2.62631">
        <ele>901.586366</ele>
        <time>2022-08-31T17:06:00.019Z</time>
      </trkpt>
      <trkpt lat="40.78916" lon="-2.62497">
        <ele>898.903107</ele>
        <time>2022-08-31T17:06:46.950Z</time>
      </trkpt>
      <trkpt lat="40.78819" lon="-2.62383">
        <ele>897.437909</ele>
        <time>2022-08-31T17:07:32.307Z</time>
      </trkpt>
      <trkpt lat="40.78786" lon="-2.62349">
        <ele>897.081008</ele>
        <time>2022-08-31T17:07:47.420Z</time>
      </trkpt>
      <trkpt lat="40.78771" lon="-2.62345">
        <ele>896.951735</ele>
        <time>2022-08-31T17:07:50.723Z</time>
      </trkpt>
      <trkpt lat="40.78765" lon="-2.62359">
        <ele>896.848422</ele>
        <time>2022-08-31T17:07:53.236Z</time>
      </trkpt>
      <trkpt lat="40.78752" lon="-2.62359">
        <ele>896.744515</ele>
        <time>2022-08-31T17:07:55.792Z</time>
      </trkpt>
      <trkpt lat="40.78746" lon="-2.62345">
        <ele>896.628252</ele>
        <time>2022-08-31T17:07:58.325Z</time>
      </trkpt>
      <trkpt lat="40.78752" lon="-2.62331">
        <ele>896.501425</ele>
        <time>2022-08-31T17:08:00.792Z</time>
      </trkpt>
      <trkpt lat="40.78759" lon="-2.62329">
        <ele>896.43485</ele>
        <time>2022-08-31T17:08:02.098Z</time>
      </trkpt>
      <trkpt lat="40.78749" lon="-2.62306">
        <ele>896.226571</ele>
        <time>2022-08-31T17:08:06.200Z</time>
      </trkpt>
      <trkpt lat="40.78734" lon="-2.62289">
        <ele>896.021354</ele>
        <time>2022-08-31T17:08:10.195Z</time>
      </trkpt>
      <trkpt lat="40.78702" lon="-2.62253">
        <ele>895.58617</ele>
        <time>2022-08-31T17:08:18.509Z</time>
      </trkpt>
      <trkpt lat="40.78662" lon="-2.62218">
        <ele>895.090725</ele>
        <time>2022-08-31T17:08:28.053Z</time>
      </trkpt>
      <trkpt lat="40.78633" lon="-2.62199">
        <ele>894.876405</ele>
        <time>2022-08-31T17:08:35.279Z</time>
      </trkpt>
      <trkpt lat="40.78557" lon="-2.62155">
        <ele>895.350507</ele>
        <time>2022-08-31T17:08:56.716Z</time>
      </trkpt>
      <trkpt lat="40.78525" lon="-2.62122">
        <ele>895.580852</ele>
        <time>2022-08-31T17:09:08.231Z</time>
      </trkpt>
      <trkpt lat="40.78514" lon="-2.62103">
        <ele>895.688183</ele>
        <time>2022-08-31T17:09:14.246Z</time>
      </trkpt>
      <trkpt lat="40.7848" lon="-2.62124">
        <ele>895.860343</ele>
        <time>2022-08-31T17:09:23.825Z</time>
      </trkpt>
      <trkpt lat="40.7846" lon="-2.62136">
        <ele>895.858543</ele>
        <time>2022-08-31T17:09:29.371Z</time>
      </trkpt>
      <trkpt lat="40.78446" lon="-2.62129">
        <ele>895.857375</ele>
        <time>2022-08-31T17:09:33.517Z</time>
      </trkpt>
      <trkpt lat="40.78378" lon="-2.62174">
        <ele>895.851411</ele>
        <time>2022-08-31T17:09:52.213Z</time>
      </trkpt>
      <trkpt lat="40.78354" lon="-2.62182">
        <ele>895.849467</ele>
        <time>2022-08-31T17:09:57.264Z</time>
      </trkpt>
      <trkpt lat="40.78345" lon="-2.6218">
        <ele>895.848762</ele>
        <time>2022-08-31T17:09:59.114Z</time>
      </trkpt>
      <trkpt lat="40.78272" lon="-2.62177">
        <ele>895.626097</ele>
        <time>2022-08-31T17:10:12.856Z</time>
      </trkpt>
      <trkpt lat="40.78234" lon="-2.62189">
        <ele>895.443438</ele>
        <time>2022-08-31T17:10:20.629Z</time>
      </trkpt>
      <trkpt lat="40.78192" lon="-2.62214">
        <ele>895.232855</ele>
        <time>2022-08-31T17:10:30.392Z</time>
      </trkpt>
      <trkpt lat="40.78131" lon="-2.62251">
        <ele>894.981847</ele>
        <time>2022-08-31T17:10:47.591Z</time>
      </trkpt>
      <trkpt lat="40.78119" lon="-2.62265">
        <ele>894.957563</ele>
        <time>2022-08-31T17:10:52.188Z</time>
      </trkpt>
      <trkpt lat="40.78091" lon="-2.62274">
        <ele>894.915664</ele>
        <time>2022-08-31T17:11:00.155Z</time>
      </trkpt>
      <trkpt lat="40.77939" lon="-2.62369">
        <ele>892.90427</ele>
        <time>2022-08-31T17:11:34.966Z</time>
      </trkpt>
      <trkpt lat="40.77823" lon="-2.62434">
        <ele>888.478528</ele>
        <time>2022-08-31T17:11:55.088Z</time>
      </trkpt>
      <trkpt lat="40.77752" lon="-2.62488">
        <ele>886.605651</ele>
        <time>2022-08-31T17:12:08.244Z</time>
      </trkpt>
      <trkpt lat="40.77701" lon="-2.62527">
        <ele>885.260729</ele>
        <time>2022-08-31T17:12:19.234Z</time>
      </trkpt>
      <trkpt lat="40.77578" lon="-2.62622">
        <ele>885.864226</ele>
        <time>2022-08-31T17:12:58.953Z</time>
      </trkpt>
      <trkpt lat="40.77538" lon="-2.62652">
        <ele>886.544855</ele>
        <time>2022-08-31T17:13:16.280Z</time>
      </trkpt>
      <trkpt lat="40.77504" lon="-2.62677">
        <ele>886.959939</ele>
        <time>2022-08-31T17:13:29.269Z</time>
      </trkpt>
      <trkpt lat="40.77452" lon="-2.62702">
        <ele>886.580591</ele>
        <time>2022-08-31T17:13:44.091Z</time>
      </trkpt>
      <trkpt lat="40.77432" lon="-2.6271">
        <ele>886.442537</ele>
        <time>2022-08-31T17:13:48.359Z</time>
      </trkpt>
      <trkpt lat="40.77348" lon="-2.62743">
        <ele>885.846735</ele>
        <time>2022-08-31T17:14:04.320Z</time>
      </trkpt>
      <trkpt lat="40.77314" lon="-2.62757">
        <ele>885.111631</ele>
        <time>2022-08-31T17:14:10.716Z</time>
      </trkpt>
      <trkpt lat="40.77119" lon="-2.62838">
        <ele>880.622754</ele>
        <time>2022-08-31T17:14:46.721Z</time>
      </trkpt>
      <trkpt lat="40.77008" lon="-2.62884">
        <ele>879.082399</ele>
        <time>2022-08-31T17:15:10.104Z</time>
      </trkpt>
      <trkpt lat="40.76295" lon="-2.63182">
        <ele>877.596419</ele>
        <time>2022-08-31T17:17:53.825Z</time>
      </trkpt>
      <trkpt lat="40.76268" lon="-2.63193">
        <ele>877.258243</ele>
        <time>2022-08-31T17:17:59.729Z</time>
      </trkpt>
      <trkpt lat="40.76104" lon="-2.63261">
        <ele>874.870171</ele>
        <time>2022-08-31T17:18:32.394Z</time>
      </trkpt>
      <trkpt lat="40.76002" lon="-2.63304">
        <ele>872.558867</ele>
        <time>2022-08-31T17:18:51.550Z</time>
      </trkpt>
      <trkpt lat="40.75832" lon="-2.63375">
        <ele>868.277172</ele>
        <time>2022-08-31T17:19:23.384Z</time>
      </trkpt>
      <trkpt lat="40.75752" lon="-2.63408">
        <ele>866.18091</ele>
        <time>2022-08-31T17:19:38.417Z</time>
      </trkpt>
      <trkpt lat="40.75719" lon="-2.63414">
        <ele>865.340858</ele>
        <time>2022-08-31T17:19:44.297Z</time>
      </trkpt>
      <trkpt lat="40.75593" lon="-2.63412">
        <ele>861.949789</ele>
        <time>2022-08-31T17:20:06.555Z</time>
      </trkpt>
      <trkpt lat="40.75567" lon="-2.63404">
        <ele>861.106819</ele>
        <time>2022-08-31T17:20:11.149Z</time>
      </trkpt>
      <trkpt lat="40.75504" lon="-2.63363">
        <ele>858.857645</ele>
        <time>2022-08-31T17:20:23.211Z</time>
      </trkpt>
      <trkpt lat="40.75397" lon="-2.63265">
        <ele>853.830387</ele>
        <time>2022-08-31T17:20:45.131Z</time>
      </trkpt>
      <trkpt lat="40.75369" lon="-2.63228">
        <ele>852.126545</ele>
        <time>2022-08-31T17:20:51.586Z</time>
      </trkpt>
      <trkpt lat="40.75308" lon="-2.63095">
        <ele>846.983821</ele>
        <time>2022-08-31T17:21:10.004Z</time>
      </trkpt>
      <trkpt lat="40.75282" lon="-2.63047">
        <ele>845.017783</ele>
        <time>2022-08-31T17:21:17.180Z</time>
      </trkpt>
      <trkpt lat="40.75255" lon="-2.63011">
        <ele>843.334099</ele>
        <time>2022-08-31T17:21:23.519Z</time>
      </trkpt>
      <trkpt lat="40.7523" lon="-2.62994">
        <ele>842.098043</ele>
        <time>2022-08-31T17:21:28.165Z</time>
      </trkpt>
      <trkpt lat="40.75133" lon="-2.62926">
        <ele>839.278401</ele>
        <time>2022-08-31T17:21:47.119Z</time>
      </trkpt>
      <trkpt lat="40.75019" lon="-2.62849">
        <ele>836.635267</ele>
        <time>2022-08-31T17:22:12.167Z</time>
      </trkpt>
      <trkpt lat="40.75012" lon="-2.62844">
        <ele>836.493911</ele>
        <time>2022-08-31T17:22:13.759Z</time>
      </trkpt>
      <trkpt lat="40.74963" lon="-2.62827">
        <ele>835.618046</ele>
        <time>2022-08-31T17:22:23.032Z</time>
      </trkpt>
      <trkpt lat="40.74859" lon="-2.62816">
        <ele>833.79993</ele>
        <time>2022-08-31T17:22:42.167Z</time>
      </trkpt>
      <trkpt lat="40.74828" lon="-2.62806">
        <ele>833.220325</ele>
        <time>2022-08-31T17:22:48.093Z</time>
      </trkpt>
      <trkpt lat="40.74804" lon="-2.6278">
        <ele>832.655688</ele>
        <time>2022-08-31T17:22:54.050Z</time>
      </trkpt>
      <trkpt lat="40.74757" lon="-2.62698">
        <ele>831.22558</ele>
        <time>2022-08-31T17:23:08.864Z</time>
      </trkpt>
      <trkpt lat="40.74733" lon="-2.62683">
        <ele>830.724172</ele>
        <time>2022-08-31T17:23:13.489Z</time>
      </trkpt>
      <trkpt lat="40.74713" lon="-2.62684">
        <ele>830.333941</ele>
        <time>2022-08-31T17:23:17.047Z</time>
      </trkpt>
      <trkpt lat="40.74654" lon="-2.62728">
        <ele>829.005282</ele>
        <time>2022-08-31T17:23:29.198Z</time>
      </trkpt>
      <trkpt lat="40.74601" lon="-2.62733">
        <ele>827.944378</ele>
        <time>2022-08-31T17:23:38.797Z</time>
      </trkpt>
      <trkpt lat="40.74172" lon="-2.62744">
        <ele>824.492739</ele>
        <time>2022-08-31T17:25:06.787Z</time>
      </trkpt>
      <trkpt lat="40.74143" lon="-2.62748">
        <ele>824.257051</ele>
        <time>2022-08-31T17:25:13.313Z</time>
      </trkpt>
      <trkpt lat="40.74116" lon="-2.62762">
        <ele>824.02562</ele>
        <time>2022-08-31T17:25:19.471Z</time>
      </trkpt>
      <trkpt lat="40.74013" lon="-2.62861">
        <ele>822.363502</ele>
        <time>2022-08-31T17:25:44.093Z</time>
      </trkpt>
      <trkpt lat="40.73982" lon="-2.62874">
        <ele>821.642404</ele>
        <time>2022-08-31T17:25:50.170Z</time>
      </trkpt>
      <trkpt lat="40.73965" lon="-2.62871">
        <ele>821.286486</ele>
        <time>2022-08-31T17:25:53.080Z</time>
      </trkpt>
      <trkpt lat="40.73947" lon="-2.6286">
        <ele>820.851274</ele>
        <time>2022-08-31T17:25:56.698Z</time>
      </trkpt>
      <trkpt lat="40.73767" lon="-2.62675">
        <ele>815.384596</ele>
        <time>2022-08-31T17:26:36.308Z</time>
      </trkpt>
      <trkpt lat="40.73699" lon="-2.62627">
        <ele>815.092384</ele>
        <time>2022-08-31T17:26:51.950Z</time>
      </trkpt>
      <trkpt lat="40.73666" lon="-2.62616">
        <ele>815.151981</ele>
        <time>2022-08-31T17:27:00.300Z</time>
      </trkpt>
      <trkpt lat="40.73592" lon="-2.62605">
        <ele>815.280931</ele>
        <time>2022-08-31T17:27:22.389Z</time>
      </trkpt>
      <trkpt lat="40.73521" lon="-2.62625">
        <ele>814.775502</ele>
        <time>2022-08-31T17:27:41.239Z</time>
      </trkpt>
      <trkpt lat="40.73467" lon="-2.62649">
        <ele>814.30577</ele>
        <time>2022-08-31T17:27:52.960Z</time>
      </trkpt>
      <trkpt lat="40.73443" lon="-2.62671">
        <ele>814.064706</ele>
        <time>2022-08-31T17:27:58.323Z</time>
      </trkpt>
      <trkpt lat="40.73383" lon="-2.62766">
        <ele>811.329667</ele>
        <time>2022-08-31T17:28:14.405Z</time>
      </trkpt>
      <trkpt lat="40.73371" lon="-2.62786">
        <ele>810.589371</ele>
        <time>2022-08-31T17:28:17.417Z</time>
      </trkpt>
      <trkpt lat="40.73333" lon="-2.62847">
        <ele>808.237348</ele>
        <time>2022-08-31T17:28:26.825Z</time>
      </trkpt>
      <trkpt lat="40.73271" lon="-2.62948">
        <ele>805.705654</ele>
        <time>2022-08-31T17:28:43.588Z</time>
      </trkpt>
      <trkpt lat="40.73258" lon="-2.62967">
        <ele>805.372886</ele>
        <time>2022-08-31T17:28:47.121Z</time>
      </trkpt>
      <trkpt lat="40.7324" lon="-2.62981">
        <ele>805.001894</ele>
        <time>2022-08-31T17:28:51.132Z</time>
      </trkpt>
      <trkpt lat="40.73206" lon="-2.62993">
        <ele>804.387887</ele>
        <time>2022-08-31T17:28:57.925Z</time>
      </trkpt>
      <trkpt lat="40.73163" lon="-2.63002">
        <ele>803.639093</ele>
        <time>2022-08-31T17:29:07.119Z</time>
      </trkpt>
      <trkpt lat="40.73144" lon="-2.62998">
        <ele>803.955833</ele>
        <time>2022-08-31T17:29:11.736Z</time>
      </trkpt>
      <trkpt lat="40.73075" lon="-2.62963">
        <ele>805.238583</ele>
        <time>2022-08-31T17:29:33.539Z</time>
      </trkpt>
      <trkpt lat="40.7297" lon="-2.62952">
        <ele>807.197392</ele>
        <time>2022-08-31T17:30:10.711Z</time>
      </trkpt>
      <trkpt lat="40.7293" lon="-2.6297">
        <ele>808.257331</ele>
        <time>2022-08-31T17:30:27.239Z</time>
      </trkpt>
      <trkpt lat="40.72791" lon="-2.63074">
        <ele>810.619208</ele>
        <time>2022-08-31T17:31:21.917Z</time>
      </trkpt>
      <trkpt lat="40.72762" lon="-2.63095">
        <ele>810.136903</ele>
        <time>2022-08-31T17:31:29.019Z</time>
      </trkpt>
      <trkpt lat="40.72584" lon="-2.63228">
        <ele>805.25297</ele>
        <time>2022-08-31T17:32:03.420Z</time>
      </trkpt>
      <trkpt lat="40.72557" lon="-2.63263">
        <ele>803.964941</ele>
        <time>2022-08-31T17:32:09.713Z</time>
      </trkpt>
      <trkpt lat="40.7255" lon="-2.63293">
        <ele>803.173138</ele>
        <time>2022-08-31T17:32:13.675Z</time>
      </trkpt>
      <trkpt lat="40.7255" lon="-2.63321">
        <ele>802.504294</ele>
        <time>2022-08-31T17:32:17.280Z</time>
      </trkpt>
      <trkpt lat="40.72557" lon="-2.63338">
        <ele>802.496911</ele>
        <time>2022-08-31T17:32:19.958Z</time>
      </trkpt>
      <trkpt lat="40.7259" lon="-2.63382">
        <ele>802.473926</ele>
        <time>2022-08-31T17:32:28.966Z</time>
      </trkpt>
      <trkpt lat="40.72595" lon="-2.63402">
        <ele>802.465732</ele>
        <time>2022-08-31T17:32:32.619Z</time>
      </trkpt>
      <trkpt lat="40.72599" lon="-2.63445">
        <ele>802.449711</ele>
        <time>2022-08-31T17:32:40.708Z</time>
      </trkpt>
      <trkpt lat="40.72597" lon="-2.63465">
        <ele>802.442143</ele>
        <time>2022-08-31T17:32:44.920Z</time>
      </trkpt>
      <trkpt lat="40.72588" lon="-2.63482">
        <ele>802.434282</ele>
        <time>2022-08-31T17:32:49.473Z</time>
      </trkpt>
      <trkpt lat="40.72573" lon="-2.63493">
        <ele>802.425917</ele>
        <time>2022-08-31T17:32:54.341Z</time>
      </trkpt>
      <trkpt lat="40.72461" lon="-2.63532">
        <ele>805.372664</ele>
        <time>2022-08-31T17:33:31.905Z</time>
      </trkpt>
      <trkpt lat="40.72345" lon="-2.63573">
        <ele>809.840247</ele>
        <time>2022-08-31T17:34:24.882Z</time>
      </trkpt>
      <trkpt lat="40.72302" lon="-2.63571">
        <ele>812.060579</ele>
        <time>2022-08-31T17:34:45.874Z</time>
      </trkpt>
      <trkpt lat="40.72179" lon="-2.6353">
        <ele>818.232894</ele>
        <time>2022-08-31T17:35:49.494Z</time>
      </trkpt>
      <trkpt lat="40.72154" lon="-2.63527">
        <ele>819.133912</ele>
        <time>2022-08-31T17:36:01.415Z</time>
      </trkpt>
      <trkpt lat="40.72047" lon="-2.63559">
        <ele>823.193917</ele>
        <time>2022-08-31T17:36:44.655Z</time>
      </trkpt>
      <trkpt lat="40.71969" lon="-2.63562">
        <ele>824.79552</ele>
        <time>2022-08-31T17:37:08.354Z</time>
      </trkpt>
      <trkpt lat="40.71935" lon="-2.63577">
        <ele>825.317624</ele>
        <time>2022-08-31T17:37:18.274Z</time>
      </trkpt>
      <trkpt lat="40.71389" lon="-2.63937">
        <ele>833.351605</ele>
        <time>2022-08-31T17:40:12.412Z</time>
      </trkpt>
      <trkpt lat="40.7114" lon="-2.64099">
        <ele>839.101638</ele>
        <time>2022-08-31T17:41:39.116Z</time>
      </trkpt>
      <trkpt lat="40.70716" lon="-2.64384">
        <ele>852.970344</ele>
        <time>2022-08-31T17:44:41.616Z</time>
      </trkpt>
      <trkpt lat="40.70691" lon="-2.64425">
        <ele>853.532456</ele>
        <time>2022-08-31T17:44:54.511Z</time>
      </trkpt>
      <trkpt lat="40.70655" lon="-2.64535">
        <ele>854.817025</ele>
        <time>2022-08-31T17:45:20.910Z</time>
      </trkpt>
      <trkpt lat="40.70585" lon="-2.64662">
        <ele>853.803365</ele>
        <time>2022-08-31T17:45:45.933Z</time>
      </trkpt>
      <trkpt lat="40.70556" lon="-2.64697">
        <ele>853.164022</ele>
        <time>2022-08-31T17:45:53.366Z</time>
      </trkpt>
      <trkpt lat="40.70246" lon="-2.64986">
        <ele>839.835834</ele>
        <time>2022-08-31T17:46:56.246Z</time>
      </trkpt>
      <trkpt lat="40.69559" lon="-2.65318">
        <ele>812.075372</ele>
        <time>2022-08-31T17:48:58.162Z</time>
      </trkpt>
      <trkpt lat="40.69255" lon="-2.65402">
        <ele>797.837436</ele>
        <time>2022-08-31T17:49:47.700Z</time>
      </trkpt>
      <trkpt lat="40.69132" lon="-2.65448">
        <ele>793.404733</ele>
        <time>2022-08-31T17:50:08.881Z</time>
      </trkpt>
      <trkpt lat="40.68728" lon="-2.65607">
        <ele>783.575856</ele>
        <time>2022-08-31T17:51:26.369Z</time>
      </trkpt>
      <trkpt lat="40.68365" lon="-2.65878">
        <ele>771.471186</ele>
        <time>2022-08-31T17:52:37.662Z</time>
      </trkpt>
      <trkpt lat="40.68162" lon="-2.66025">
        <ele>771.847741</ele>
        <time>2022-08-31T17:53:35.502Z</time>
      </trkpt>
      <trkpt lat="40.68114" lon="-2.66055">
        <ele>772.048389</ele>
        <time>2022-08-31T17:53:51.568Z</time>
      </trkpt>
      <trkpt lat="40.67968" lon="-2.6613">
        <ele>770.08131</ele>
        <time>2022-08-31T17:54:24.252Z</time>
      </trkpt>
      <trkpt lat="40.67691" lon="-2.66358">
        <ele>757.705122</ele>
        <time>2022-08-31T17:55:16.596Z</time>
      </trkpt>
      <trkpt lat="40.67587" lon="-2.66414">
        <ele>754.904745</ele>
        <time>2022-08-31T17:55:37.486Z</time>
      </trkpt>
      <trkpt lat="40.67526" lon="-2.66429">
        <ele>753.346687</ele>
        <time>2022-08-31T17:55:49.877Z</time>
      </trkpt>
      <trkpt lat="40.67509" lon="-2.66438">
        <ele>752.872348</ele>
        <time>2022-08-31T17:55:53.578Z</time>
      </trkpt>
      <trkpt lat="40.67478" lon="-2.66461">
        <ele>751.971749</ele>
        <time>2022-08-31T17:56:00.305Z</time>
      </trkpt>
      <trkpt lat="40.67205" lon="-2.66717">
        <ele>739.186983</ele>
        <time>2022-08-31T17:56:55.744Z</time>
      </trkpt>
      <trkpt lat="40.67092" lon="-2.66812">
        <ele>732.029645</ele>
        <time>2022-08-31T17:57:16.420Z</time>
      </trkpt>
      <trkpt lat="40.67013" lon="-2.66886">
        <ele>726.721003</ele>
        <time>2022-08-31T17:57:30.846Z</time>
      </trkpt>
      <trkpt lat="40.66973" lon="-2.66923">
        <ele>724.028773</ele>
        <time>2022-08-31T17:57:39.098Z</time>
      </trkpt>
      <trkpt lat="40.66971" lon="-2.66925">
        <ele>723.873833</ele>
        <time>2022-08-31T17:57:39.588Z</time>
      </trkpt>
      <trkpt lat="40.66963" lon="-2.66933">
        <ele>723.478603</ele>
        <time>2022-08-31T17:57:41.264Z</time>
      </trkpt>
      <trkpt lat="40.66957" lon="-2.6694">
        <ele>723.413285</ele>
        <time>2022-08-31T17:57:42.644Z</time>
      </trkpt>
      <trkpt lat="40.66946" lon="-2.6695">
        <ele>723.308147</ele>
        <time>2022-08-31T17:57:44.950Z</time>
      </trkpt>
      <trkpt lat="40.66934" lon="-2.66961">
        <ele>723.185804</ele>
        <time>2022-08-31T17:57:47.588Z</time>
      </trkpt>
      <trkpt lat="40.66928" lon="-2.66966">
        <ele>723.128195</ele>
        <time>2022-08-31T17:57:48.825Z</time>
      </trkpt>
      <trkpt lat="40.66921" lon="-2.66973">
        <ele>723.055753</ele>
        <time>2022-08-31T17:57:50.422Z</time>
      </trkpt>
      <trkpt lat="40.66912" lon="-2.6698">
        <ele>722.976241</ele>
        <time>2022-08-31T17:57:52.338Z</time>
      </trkpt>
      <trkpt lat="40.66848" lon="-2.67032">
        <ele>722.368609</ele>
        <time>2022-08-31T17:58:07.940Z</time>
      </trkpt>
      <trkpt lat="40.66817" lon="-2.67035">
        <ele>722.116288</ele>
        <time>2022-08-31T17:58:17.129Z</time>
      </trkpt>
      <trkpt lat="40.66793" lon="-2.67018">
        <ele>722.557038</ele>
        <time>2022-08-31T17:58:26.568Z</time>
      </trkpt>
      <trkpt lat="40.66744" lon="-2.66952">
        <ele>724.357874</ele>
        <time>2022-08-31T17:58:50.721Z</time>
      </trkpt>
      <trkpt lat="40.66718" lon="-2.6694">
        <ele>725.066014</ele>
        <time>2022-08-31T17:58:59.481Z</time>
      </trkpt>
      <trkpt lat="40.66693" lon="-2.66948">
        <ele>725.737147</ele>
        <time>2022-08-31T17:59:08.055Z</time>
      </trkpt>
      <trkpt lat="40.66652" lon="-2.67">
        <ele>727.751874</ele>
        <time>2022-08-31T17:59:31.417Z</time>
      </trkpt>
      <trkpt lat="40.66622" lon="-2.67021">
        <ele>729.506965</ele>
        <time>2022-08-31T17:59:46.884Z</time>
      </trkpt>
      <trkpt lat="40.66559" lon="-2.67026">
        <ele>732.857895</ele>
        <time>2022-08-31T18:00:18.195Z</time>
      </trkpt>
      <trkpt lat="40.66503" lon="-2.67052">
        <ele>735.962056</ele>
        <time>2022-08-31T18:00:48.881Z</time>
      </trkpt>
      <trkpt lat="40.66485" lon="-2.67055">
        <ele>736.989633</ele>
        <time>2022-08-31T18:00:59.017Z</time>
      </trkpt>
      <trkpt lat="40.66469" lon="-2.67052">
        <ele>737.978195</ele>
        <time>2022-08-31T18:01:08.667Z</time>
      </trkpt>
      <trkpt lat="40.66422" lon="-2.67013">
        <ele>741.264614</ele>
        <time>2022-08-31T18:01:40.213Z</time>
      </trkpt>
      <trkpt lat="40.66402" lon="-2.67003">
        <ele>742.473363</ele>
        <time>2022-08-31T18:01:50.376Z</time>
      </trkpt>
      <trkpt lat="40.66366" lon="-2.67004">
        <ele>744.637273</ele>
        <time>2022-08-31T18:02:08.226Z</time>
      </trkpt>
      <trkpt lat="40.66319" lon="-2.67026">
        <ele>747.510876</ele>
        <time>2022-08-31T18:02:30.596Z</time>
      </trkpt>
      <trkpt lat="40.66274" lon="-2.67093">
        <ele>751.321094</ele>
        <time>2022-08-31T18:03:05.382Z</time>
      </trkpt>
      <trkpt lat="40.66259" lon="-2.67106">
        <ele>752.308852</ele>
        <time>2022-08-31T18:03:15.004Z</time>
      </trkpt>
      <trkpt lat="40.66224" lon="-2.67119">
        <ele>754.342791</ele>
        <time>2022-08-31T18:03:35.111Z</time>
      </trkpt>
      <trkpt lat="40.66078" lon="-2.67163">
        <ele>761.216392</ele>
        <time>2022-08-31T18:04:45.910Z</time>
      </trkpt>
      <trkpt lat="40.66037" lon="-2.67167">
        <ele>762.929754</ele>
        <time>2022-08-31T18:05:05.313Z</time>
      </trkpt>
      <trkpt lat="40.65869" lon="-2.67164">
        <ele>765.131383</ele>
        <time>2022-08-31T18:05:53.193Z</time>
      </trkpt>
      <trkpt lat="40.65849" lon="-2.67174">
        <ele>765.262724</ele>
        <time>2022-08-31T18:05:57.081Z</time>
      </trkpt>
      <trkpt lat="40.65834" lon="-2.67196">
        <ele>765.408002</ele>
        <time>2022-08-31T18:06:01.486Z</time>
      </trkpt>
      <trkpt lat="40.65827" lon="-2.67223">
        <ele>765.229316</ele>
        <time>2022-08-31T18:06:05.445Z</time>
      </trkpt>
      <trkpt lat="40.65828" lon="-2.67246">
        <ele>765.073562</ele>
        <time>2022-08-31T18:06:08.708Z</time>
      </trkpt>
      <trkpt lat="40.65839" lon="-2.67305">
        <ele>764.67019</ele>
        <time>2022-08-31T18:06:17.213Z</time>
      </trkpt>
      <trkpt lat="40.65839" lon="-2.67329">
        <ele>764.508507</ele>
        <time>2022-08-31T18:06:20.861Z</time>
      </trkpt>
      <trkpt lat="40.65835" lon="-2.67349">
        <ele>764.372389</ele>
        <time>2022-08-31T18:06:23.749Z</time>
      </trkpt>
      <trkpt lat="40.65809" lon="-2.67402">
        <ele>763.94734</ele>
        <time>2022-08-31T18:06:33.841Z</time>
      </trkpt>
      <trkpt lat="40.65804" lon="-2.67425">
        <ele>763.979935</ele>
        <time>2022-08-31T18:06:37.848Z</time>
      </trkpt>
      <trkpt lat="40.65807" lon="-2.67453">
        <ele>764.579917</ele>
        <time>2022-08-31T18:06:43.736Z</time>
      </trkpt>
      <trkpt lat="40.65816" lon="-2.67474">
        <ele>765.097685</ele>
        <time>2022-08-31T18:06:49.063Z</time>
      </trkpt>
      <trkpt lat="40.66075" lon="-2.67727">
        <ele>775.143792</ele>
        <time>2022-08-31T18:09:02.267Z</time>
      </trkpt>
      <trkpt lat="40.66156" lon="-2.67769">
        <ele>774.824974</ele>
        <time>2022-08-31T18:09:22.848Z</time>
      </trkpt>
      <trkpt lat="40.66171" lon="-2.67785">
        <ele>774.753458</ele>
        <time>2022-08-31T18:09:26.647Z</time>
      </trkpt>
      <trkpt lat="40.66231" lon="-2.67899">
        <ele>773.441493</ele>
        <time>2022-08-31T18:09:45.637Z</time>
      </trkpt>
      <trkpt lat="40.6624" lon="-2.67948">
        <ele>772.394746</ele>
        <time>2022-08-31T18:09:52.134Z</time>
      </trkpt>
      <trkpt lat="40.6623" lon="-2.67995">
        <ele>771.38261</ele>
        <time>2022-08-31T18:09:58.382Z</time>
      </trkpt>
      <trkpt lat="40.66217" lon="-2.68019">
        <ele>770.780244</ele>
        <time>2022-08-31T18:10:02.114Z</time>
      </trkpt>
      <trkpt lat="40.662" lon="-2.6804">
        <ele>770.14438</ele>
        <time>2022-08-31T18:10:06.050Z</time>
      </trkpt>
      <trkpt lat="40.66069" lon="-2.68103">
        <ele>768.020122</ele>
        <time>2022-08-31T18:10:31.706Z</time>
      </trkpt>
      <trkpt lat="40.66012" lon="-2.68154">
        <ele>767.230511</ele>
        <time>2022-08-31T18:10:46.843Z</time>
      </trkpt>
      <trkpt lat="40.66" lon="-2.68175">
        <ele>767.26414</ele>
        <time>2022-08-31T18:10:52.218Z</time>
      </trkpt>
      <trkpt lat="40.65972" lon="-2.68282">
        <ele>767.404441</ele>
        <time>2022-08-31T18:11:14.983Z</time>
      </trkpt>
      <trkpt lat="40.6597" lon="-2.68307">
        <ele>767.436001</ele>
        <time>2022-08-31T18:11:19.802Z</time>
      </trkpt>
      <trkpt lat="40.65994" lon="-2.68415">
        <ele>766.69827</ele>
        <time>2022-08-31T18:11:37.506Z</time>
      </trkpt>
      <trkpt lat="40.65971" lon="-2.6855">
        <ele>764.461507</ele>
        <time>2022-08-31T18:11:56.014Z</time>
      </trkpt>
      <trkpt lat="40.65997" lon="-2.6862">
        <ele>763.102359</ele>
        <time>2022-08-31T18:12:06.226Z</time>
      </trkpt>
      <trkpt lat="40.65995" lon="-2.68679">
        <ele>761.945843</ele>
        <time>2022-08-31T18:12:14.149Z</time>
      </trkpt>
      <trkpt lat="40.65979" lon="-2.687">
        <ele>761.387055</ele>
        <time>2022-08-31T18:12:18.065Z</time>
      </trkpt>
      <trkpt lat="40.65875" lon="-2.68758">
        <ele>758.720983</ele>
        <time>2022-08-31T18:12:38.101Z</time>
      </trkpt>
      <trkpt lat="40.6573" lon="-2.68866">
        <ele>755.935103</ele>
        <time>2022-08-31T18:13:10.116Z</time>
      </trkpt>
      <trkpt lat="40.65658" lon="-2.68919">
        <ele>754.442221</ele>
        <time>2022-08-31T18:13:25.563Z</time>
      </trkpt>
      <trkpt lat="40.6552" lon="-2.69081">
        <ele>751.385788</ele>
        <time>2022-08-31T18:13:59.241Z</time>
      </trkpt>
      <trkpt lat="40.65491" lon="-2.69108">
        <ele>750.845296</ele>
        <time>2022-08-31T18:14:05.879Z</time>
      </trkpt>
      <trkpt lat="40.65381" lon="-2.69158">
        <ele>751.04052</ele>
        <time>2022-08-31T18:14:31.269Z</time>
      </trkpt>
      <trkpt lat="40.65287" lon="-2.6919">
        <ele>752.310666</ele>
        <time>2022-08-31T18:15:01.863Z</time>
      </trkpt>
      <trkpt lat="40.6515" lon="-2.69264">
        <ele>757.580094</ele>
        <time>2022-08-31T18:16:01.282Z</time>
      </trkpt>
      <trkpt lat="40.64979" lon="-2.69325">
        <ele>764.053865</ele>
        <time>2022-08-31T18:17:22.780Z</time>
      </trkpt>
      <trkpt lat="40.64956" lon="-2.6932">
        <ele>764.882872</ele>
        <time>2022-08-31T18:17:31.257Z</time>
      </trkpt>
      <trkpt lat="40.64933" lon="-2.69307">
        <ele>765.777149</ele>
        <time>2022-08-31T18:17:38.927Z</time>
      </trkpt>
      <trkpt lat="40.64873" lon="-2.69253">
        <ele>764.858341</ele>
        <time>2022-08-31T18:17:53.803Z</time>
      </trkpt>
      <trkpt lat="40.64848" lon="-2.69237">
        <ele>764.50372</ele>
        <time>2022-08-31T18:17:58.935Z</time>
      </trkpt>
      <trkpt lat="40.64785" lon="-2.69243">
        <ele>763.701959</ele>
        <time>2022-08-31T18:18:10.070Z</time>
      </trkpt>
      <trkpt lat="40.64754" lon="-2.69252">
        <ele>763.275465</ele>
        <time>2022-08-31T18:18:15.677Z</time>
      </trkpt>
      <trkpt lat="40.64678" lon="-2.69309">
        <ele>762.044664</ele>
        <time>2022-08-31T18:18:31.532Z</time>
      </trkpt>
      <trkpt lat="40.64637" lon="-2.69348">
        <ele>761.334623</ele>
        <time>2022-08-31T18:18:41.683Z</time>
      </trkpt>
      <trkpt lat="40.646" lon="-2.69364">
        <ele>760.960351</ele>
        <time>2022-08-31T18:18:51.777Z</time>
      </trkpt>
      <trkpt lat="40.6456" lon="-2.69373">
        <ele>760.941031</ele>
        <time>2022-08-31T18:19:02.091Z</time>
      </trkpt>
      <trkpt lat="40.64454" lon="-2.69384">
        <ele>760.890645</ele>
        <time>2022-08-31T18:19:25.032Z</time>
      </trkpt>
      <trkpt lat="40.64377" lon="-2.69368">
        <ele>761.178245</ele>
        <time>2022-08-31T18:19:41.430Z</time>
      </trkpt>
      <trkpt lat="40.64299" lon="-2.69393">
        <ele>761.594139</ele>
        <time>2022-08-31T18:20:00.966Z</time>
      </trkpt>
      <trkpt lat="40.64059" lon="-2.69523">
        <ele>764.983811</ele>
        <time>2022-08-31T18:21:21.522Z</time>
      </trkpt>
      <trkpt lat="40.64037" lon="-2.69529">
        <ele>765.115163</ele>
        <time>2022-08-31T18:21:27.244Z</time>
      </trkpt>
      <trkpt lat="40.64009" lon="-2.6952">
        <ele>765.285504</ele>
        <time>2022-08-31T18:21:34.029Z</time>
      </trkpt>
      <trkpt lat="40.6397" lon="-2.69476">
        <ele>765.584997</ele>
        <time>2022-08-31T18:21:46.213Z</time>
      </trkpt>
      <trkpt lat="40.63948" lon="-2.69459">
        <ele>765.733861</ele>
        <time>2022-08-31T18:21:51.897Z</time>
      </trkpt>
      <trkpt lat="40.63928" lon="-2.69457">
        <ele>765.861101</ele>
        <time>2022-08-31T18:21:55.930Z</time>
      </trkpt>
      <trkpt lat="40.63908" lon="-2.69462">
        <ele>766.02673</ele>
        <time>2022-08-31T18:22:00.359Z</time>
      </trkpt>
      <trkpt lat="40.63892" lon="-2.69475">
        <ele>766.186032</ele>
        <time>2022-08-31T18:22:04.453Z</time>
      </trkpt>
      <trkpt lat="40.63881" lon="-2.69491">
        <ele>766.319686</ele>
        <time>2022-08-31T18:22:08.667Z</time>
      </trkpt>
      <trkpt lat="40.63856" lon="-2.69557">
        <ele>766.777669</ele>
        <time>2022-08-31T18:22:24.206Z</time>
      </trkpt>
      <trkpt lat="40.63837" lon="-2.69588">
        <ele>767.02776</ele>
        <time>2022-08-31T18:22:33.053Z</time>
      </trkpt>
      <trkpt lat="40.63814" lon="-2.69604">
        <ele>767.2416</ele>
        <time>2022-08-31T18:22:40.828Z</time>
      </trkpt>
      <trkpt lat="40.63787" lon="-2.69603">
        <ele>767.481569</ele>
        <time>2022-08-31T18:22:49.264Z</time>
      </trkpt>
      <trkpt lat="40.63674" lon="-2.69574">
        <ele>768.522993</ele>
        <time>2022-08-31T18:23:21.144Z</time>
      </trkpt>
      <trkpt lat="40.63491" lon="-2.69512">
        <ele>768.654313</ele>
        <time>2022-08-31T18:24:04.190Z</time>
      </trkpt>
      <trkpt lat="40.6346" lon="-2.69509">
        <ele>768.596871</ele>
        <time>2022-08-31T18:24:10.545Z</time>
      </trkpt>
      <trkpt lat="40.63391" lon="-2.69542">
        <ele>766.508944</ele>
        <time>2022-08-31T18:24:24.274Z</time>
      </trkpt>
      <trkpt lat="40.62759" lon="-2.69904">
        <ele>746.892039</ele>
        <time>2022-08-31T18:26:21.961Z</time>
      </trkpt>
      <trkpt lat="40.62719" lon="-2.69963">
        <ele>746.87981</ele>
        <time>2022-08-31T18:26:34.805Z</time>
      </trkpt>
      <trkpt lat="40.62592" lon="-2.70202">
        <ele>750.204981</ele>
        <time>2022-08-31T18:27:45.863Z</time>
      </trkpt>
      <trkpt lat="40.62551" lon="-2.70323">
        <ele>753.668197</ele>
        <time>2022-08-31T18:28:26.040Z</time>
      </trkpt>
      <trkpt lat="40.62528" lon="-2.70344">
        <ele>754.816936</ele>
        <time>2022-08-31T18:28:38.073Z</time>
      </trkpt>
      <trkpt lat="40.62491" lon="-2.70357">
        <ele>756.411738</ele>
        <time>2022-08-31T18:28:55.729Z</time>
      </trkpt>
      <trkpt lat="40.62319" lon="-2.70378">
        <ele>764.098884</ele>
        <time>2022-08-31T18:30:13.539Z</time>
      </trkpt>
      <trkpt lat="40.62283" lon="-2.70389">
        <ele>765.810585</ele>
        <time>2022-08-31T18:30:29.496Z</time>
      </trkpt>
      <trkpt lat="40.6218" lon="-2.70438">
        <ele>770.582721</ele>
        <time>2022-08-31T18:31:21.507Z</time>
      </trkpt>
      <trkpt lat="40.62075" lon="-2.70488">
        <ele>774.690187</ele>
        <time>2022-08-31T18:32:08.560Z</time>
      </trkpt>
      <trkpt lat="40.62048" lon="-2.70508">
        <ele>774.894518</ele>
        <time>2022-08-31T18:32:19.147Z</time>
      </trkpt>
      <trkpt lat="40.62037" lon="-2.70537">
        <ele>775.059176</ele>
        <time>2022-08-31T18:32:27.165Z</time>
      </trkpt>
      <trkpt lat="40.62038" lon="-2.70568">
        <ele>775.212506</ele>
        <time>2022-08-31T18:32:33.846Z</time>
      </trkpt>
      <trkpt lat="40.62046" lon="-2.7059">
        <ele>775.335105</ele>
        <time>2022-08-31T18:32:38.828Z</time>
      </trkpt>
      <trkpt lat="40.62049" lon="-2.70594">
        <ele>775.361631</ele>
        <time>2022-08-31T18:32:39.810Z</time>
      </trkpt>
      <trkpt lat="40.62118" lon="-2.70668">
        <ele>774.322983</ele>
        <time>2022-08-31T18:32:56.170Z</time>
      </trkpt>
      <trkpt lat="40.62169" lon="-2.70689">
        <ele>771.808505</ele>
        <time>2022-08-31T18:33:04.667Z</time>
      </trkpt>
      <trkpt lat="40.62209" lon="-2.7072">
        <ele>769.599034</ele>
        <time>2022-08-31T18:33:11.940Z</time>
      </trkpt>
      <trkpt lat="40.62346" lon="-2.70883">
        <ele>758.685265</ele>
        <time>2022-08-31T18:33:40.234Z</time>
      </trkpt>
      <trkpt lat="40.62393" lon="-2.70929">
        <ele>755.030196</ele>
        <time>2022-08-31T18:33:48.979Z</time>
      </trkpt>
      <trkpt lat="40.62412" lon="-2.70963">
        <ele>753.210195</ele>
        <time>2022-08-31T18:33:53.680Z</time>
      </trkpt>
      <trkpt lat="40.62427" lon="-2.71008">
        <ele>751.066701</ele>
        <time>2022-08-31T18:33:59.364Z</time>
      </trkpt>
      <trkpt lat="40.62452" lon="-2.71128">
        <ele>745.617789</ele>
        <time>2022-08-31T18:34:14.358Z</time>
      </trkpt>
      <trkpt lat="40.62485" lon="-2.71309">
        <ele>741.756871</ele>
        <time>2022-08-31T18:34:38.435Z</time>
      </trkpt>
      <trkpt lat="40.62486" lon="-2.71337">
        <ele>741.176751</ele>
        <time>2022-08-31T18:34:42.955Z</time>
      </trkpt>
      <trkpt lat="40.62445" lon="-2.71995">
        <ele>737.519239</ele>
        <time>2022-08-31T18:36:26.813Z</time>
      </trkpt>
      <trkpt lat="40.62401" lon="-2.72271">
        <ele>735.161034</ele>
        <time>2022-08-31T18:37:10.098Z</time>
      </trkpt>
      <trkpt lat="40.62385" lon="-2.72352">
        <ele>733.478033</ele>
        <time>2022-08-31T18:37:21.155Z</time>
      </trkpt>
      <trkpt lat="40.62361" lon="-2.72394">
        <ele>732.115266</ele>
        <time>2022-08-31T18:37:27.639Z</time>
      </trkpt>
      <trkpt lat="40.62255" lon="-2.7254">
        <ele>727.49404</ele>
        <time>2022-08-31T18:37:52.996Z</time>
      </trkpt>
      <trkpt lat="40.62078" lon="-2.72728">
        <ele>724.485591</ele>
        <time>2022-08-31T18:38:37.300Z</time>
      </trkpt>
      <trkpt lat="40.62058" lon="-2.72734">
        <ele>724.415381</ele>
        <time>2022-08-31T18:38:42.164Z</time>
      </trkpt>
      <trkpt lat="40.61996" lon="-2.72714">
        <ele>724.295037</ele>
        <time>2022-08-31T18:38:57.836Z</time>
      </trkpt>
      <trkpt lat="40.61915" lon="-2.72667">
        <ele>726.136611</ele>
        <time>2022-08-31T18:39:25.187Z</time>
      </trkpt>
      <trkpt lat="40.61881" lon="-2.72661">
        <ele>726.851157</ele>
        <time>2022-08-31T18:39:37.468Z</time>
      </trkpt>
      <trkpt lat="40.61795" lon="-2.72691">
        <ele>728.975112</ele>
        <time>2022-08-31T18:40:09.721Z</time>
      </trkpt>
      <trkpt lat="40.61789" lon="-2.72693">
        <ele>729.138257</ele>
        <time>2022-08-31T18:40:12.820Z</time>
      </trkpt>
      <trkpt lat="40.61763" lon="-2.72676">
        <ele>729.970153</ele>
        <time>2022-08-31T18:40:22.999Z</time>
      </trkpt>
      <trkpt lat="40.61736" lon="-2.72618">
        <ele>731.455612</ele>
        <time>2022-08-31T18:40:43.369Z</time>
      </trkpt>
      <trkpt lat="40.61723" lon="-2.72577">
        <ele>732.417118</ele>
        <time>2022-08-31T18:40:55.815Z</time>
      </trkpt>
      <trkpt lat="40.6169" lon="-2.72536">
        <ele>733.193511</ele>
        <time>2022-08-31T18:41:11.371Z</time>
      </trkpt>
      <trkpt lat="40.61633" lon="-2.72515">
        <ele>733.517738</ele>
        <time>2022-08-31T18:41:27.981Z</time>
      </trkpt>
      <trkpt lat="40.61555" lon="-2.72521">
        <ele>733.946348</ele>
        <time>2022-08-31T18:41:45.647Z</time>
      </trkpt>
      <trkpt lat="40.61506" lon="-2.72517">
        <ele>733.399867</ele>
        <time>2022-08-31T18:41:55.310Z</time>
      </trkpt>
      <trkpt lat="40.61183" lon="-2.72405">
        <ele>725.358474</ele>
        <time>2022-08-31T18:42:53.828Z</time>
      </trkpt>
      <trkpt lat="40.61126" lon="-2.72385">
        <ele>725.086311</ele>
        <time>2022-08-31T18:43:05.407Z</time>
      </trkpt>
      <trkpt lat="40.60985" lon="-2.72337">
        <ele>724.651466</ele>
        <time>2022-08-31T18:43:39.037Z</time>
      </trkpt>
      <trkpt lat="40.60905" lon="-2.72315">
        <ele>724.980223</ele>
        <time>2022-08-31T18:44:00.902Z</time>
      </trkpt>
      <trkpt lat="40.60324" lon="-2.72428">
        <ele>725.647454</ele>
        <time>2022-08-31T18:46:14.308Z</time>
      </trkpt>
      <trkpt lat="40.60046" lon="-2.72378">
        <ele>725.954824</ele>
        <time>2022-08-31T18:47:13.550Z</time>
      </trkpt>
      <trkpt lat="40.60028" lon="-2.72379">
        <ele>726.173345</ele>
        <time>2022-08-31T18:47:19.032Z</time>
      </trkpt>
      <trkpt lat="40.60003" lon="-2.72398">
        <ele>726.519439</ele>
        <time>2022-08-31T18:47:28.489Z</time>
      </trkpt>
      <trkpt lat="40.59963" lon="-2.72471">
        <ele>727.666233</ele>
        <time>2022-08-31T18:47:52.927Z</time>
      </trkpt>
      <trkpt lat="40.59957" lon="-2.72506">
        <ele>728.65305</ele>
        <time>2022-08-31T18:48:03.124Z</time>
      </trkpt>
      <trkpt lat="40.59964" lon="-2.72572">
        <ele>730.435158</ele>
        <time>2022-08-31T18:48:24.570Z</time>
      </trkpt>
      <trkpt lat="40.59951" lon="-2.7261">
        <ele>731.57679</ele>
        <time>2022-08-31T18:48:39.180Z</time>
      </trkpt>
      <trkpt lat="40.59936" lon="-2.72627">
        <ele>732.271911</ele>
        <time>2022-08-31T18:48:47.938Z</time>
      </trkpt>
      <trkpt lat="40.59911" lon="-2.72635">
        <ele>733.207312</ele>
        <time>2022-08-31T18:48:58.468Z</time>
      </trkpt>
      <trkpt lat="40.59886" lon="-2.72627">
        <ele>733.733846</ele>
        <time>2022-08-31T18:49:07.887Z</time>
      </trkpt>
      <trkpt lat="40.59865" lon="-2.72605">
        <ele>733.963166</ele>
        <time>2022-08-31T18:49:17.205Z</time>
      </trkpt>
      <trkpt lat="40.59829" lon="-2.72575">
        <ele>734.336744</ele>
        <time>2022-08-31T18:49:29.565Z</time>
      </trkpt>
      <trkpt lat="40.59707" lon="-2.72485">
        <ele>735.700842</ele>
        <time>2022-08-31T18:49:58.915Z</time>
      </trkpt>
      <trkpt lat="40.59685" lon="-2.72476">
        <ele>735.990135</ele>
        <time>2022-08-31T18:50:03.387Z</time>
      </trkpt>
      <trkpt lat="40.59665" lon="-2.7248">
        <ele>736.243203</ele>
        <time>2022-08-31T18:50:08.744Z</time>
      </trkpt>
      <trkpt lat="40.59648" lon="-2.72502">
        <ele>736.537044</ele>
        <time>2022-08-31T18:50:15.213Z</time>
      </trkpt>
      <trkpt lat="40.59646" lon="-2.72526">
        <ele>736.767574</ele>
        <time>2022-08-31T18:50:20.963Z</time>
      </trkpt>
      <trkpt lat="40.59672" lon="-2.72576">
        <ele>737.343892</ele>
        <time>2022-08-31T18:50:37.017Z</time>
      </trkpt>
      <trkpt lat="40.59676" lon="-2.72617">
        <ele>739.23674</ele>
        <time>2022-08-31T18:50:50.226Z</time>
      </trkpt>
      <trkpt lat="40.59654" lon="-2.7268">
        <ele>742.890419</ele>
        <time>2022-08-31T18:51:19.611Z</time>
      </trkpt>
      <trkpt lat="40.59607" lon="-2.72763">
        <ele>748.34635</ele>
        <time>2022-08-31T18:52:10.611Z</time>
      </trkpt>
      <trkpt lat="40.59577" lon="-2.72791">
        <ele>750.966243</ele>
        <time>2022-08-31T18:52:36.147Z</time>
      </trkpt>
      <trkpt lat="40.59442" lon="-2.72869">
        <ele>761.64506</ele>
        <time>2022-08-31T18:54:03.542Z</time>
      </trkpt>
      <trkpt lat="40.59431" lon="-2.7289">
        <ele>762.964135</ele>
        <time>2022-08-31T18:54:13.252Z</time>
      </trkpt>
      <trkpt lat="40.5941" lon="-2.72978">
        <ele>765.717933</ele>
        <time>2022-08-31T18:54:45.139Z</time>
      </trkpt>
      <trkpt lat="40.59395" lon="-2.73021">
        <ele>767.117991</ele>
        <time>2022-08-31T18:54:59.443Z</time>
      </trkpt>
      <trkpt lat="40.59378" lon="-2.73023">
        <ele>767.798588</ele>
        <time>2022-08-31T18:55:05.914Z</time>
      </trkpt>
      <trkpt lat="40.5935" lon="-2.73008">
        <ele>768.955361</ele>
        <time>2022-08-31T18:55:16.119Z</time>
      </trkpt>
      <trkpt lat="40.59326" lon="-2.73008">
        <ele>769.914565</ele>
        <time>2022-08-31T18:55:25.014Z</time>
      </trkpt>
      <trkpt lat="40.59187" lon="-2.73105">
        <ele>775.106181</ele>
        <time>2022-08-31T18:56:19.961Z</time>
      </trkpt>
      <trkpt lat="40.59176" lon="-2.73126">
        <ele>775.742943</ele>
        <time>2022-08-31T18:56:29.246Z</time>
      </trkpt>
      <trkpt lat="40.59175" lon="-2.73165">
        <ele>777.459877</ele>
        <time>2022-08-31T18:56:45.323Z</time>
      </trkpt>
      <trkpt lat="40.59184" lon="-2.73274">
        <ele>782.794435</ele>
        <time>2022-08-31T18:57:31.381Z</time>
      </trkpt>
      <trkpt lat="40.59179" lon="-2.73315">
        <ele>784.805501</ele>
        <time>2022-08-31T18:57:49.828Z</time>
      </trkpt>
      <trkpt lat="40.59161" lon="-2.73354">
        <ele>786.984168</ele>
        <time>2022-08-31T18:58:09.313Z</time>
      </trkpt>
      <trkpt lat="40.59099" lon="-2.73455">
        <ele>792.874377</ele>
        <time>2022-08-31T18:59:04.711Z</time>
      </trkpt>
      <trkpt lat="40.59087" lon="-2.73458">
        <ele>793.607096</ele>
        <time>2022-08-31T18:59:11.593Z</time>
      </trkpt>
      <trkpt lat="40.59041" lon="-2.73446">
        <ele>796.369716</ele>
        <time>2022-08-31T18:59:32.608Z</time>
      </trkpt>
      <trkpt lat="40.59013" lon="-2.73495">
        <ele>798.884508</ele>
        <time>2022-08-31T18:59:54.825Z</time>
      </trkpt>
      <trkpt lat="40.58991" lon="-2.73593">
        <ele>802.47313</ele>
        <time>2022-08-31T19:00:29.988Z</time>
      </trkpt>
      <trkpt lat="40.58967" lon="-2.73623">
        <ele>804.01478</ele>
        <time>2022-08-31T19:00:45.420Z</time>
      </trkpt>
      <trkpt lat="40.58949" lon="-2.73626">
        <ele>804.861005</ele>
        <time>2022-08-31T19:00:54.116Z</time>
      </trkpt>
      <trkpt lat="40.58933" lon="-2.73611">
        <ele>805.737222</ele>
        <time>2022-08-31T19:01:02.267Z</time>
      </trkpt>
      <trkpt lat="40.58925" lon="-2.73592">
        <ele>806.477894</ele>
        <time>2022-08-31T19:01:09.754Z</time>
      </trkpt>
      <trkpt lat="40.58895" lon="-2.73562">
        <ele>807.772967</ele>
        <time>2022-08-31T19:01:25.522Z</time>
      </trkpt>
      <trkpt lat="40.58856" lon="-2.73558">
        <ele>809.094872</ele>
        <time>2022-08-31T19:01:42.093Z</time>
      </trkpt>
      <trkpt lat="40.58837" lon="-2.7357">
        <ele>809.839292</ele>
        <time>2022-08-31T19:01:50.858Z</time>
      </trkpt>
      <trkpt lat="40.58792" lon="-2.73649">
        <ele>812.412325</ele>
        <time>2022-08-31T19:02:16.739Z</time>
      </trkpt>
      <trkpt lat="40.5877" lon="-2.73654">
        <ele>813.181038</ele>
        <time>2022-08-31T19:02:24.328Z</time>
      </trkpt>
      <trkpt lat="40.58729" lon="-2.7365">
        <ele>814.651208</ele>
        <time>2022-08-31T19:02:39.264Z</time>
      </trkpt>
      <trkpt lat="40.58707" lon="-2.73658">
        <ele>815.460386</ele>
        <time>2022-08-31T19:02:48.540Z</time>
      </trkpt>
      <trkpt lat="40.58684" lon="-2.73684">
        <ele>816.534155</ele>
        <time>2022-08-31T19:03:01.568Z</time>
      </trkpt>
      <trkpt lat="40.58656" lon="-2.73755">
        <ele>818.698413</ele>
        <time>2022-08-31T19:03:27.591Z</time>
      </trkpt>
      <trkpt lat="40.58616" lon="-2.73788">
        <ele>820.624583</ele>
        <time>2022-08-31T19:03:47.746Z</time>
      </trkpt>
      <trkpt lat="40.58586" lon="-2.738">
        <ele>821.927036</ele>
        <time>2022-08-31T19:04:01.002Z</time>
      </trkpt>
      <trkpt lat="40.58569" lon="-2.73819">
        <ele>822.8497</ele>
        <time>2022-08-31T19:04:10.300Z</time>
      </trkpt>
      <trkpt lat="40.58554" lon="-2.73853">
        <ele>824.080732</ele>
        <time>2022-08-31T19:04:23.545Z</time>
      </trkpt>
      <trkpt lat="40.58516" lon="-2.73857">
        <ele>825.701571</ele>
        <time>2022-08-31T19:04:41.187Z</time>
      </trkpt>
      <trkpt lat="40.58498" lon="-2.73864">
        <ele>826.487506</ele>
        <time>2022-08-31T19:04:49.795Z</time>
      </trkpt>
      <trkpt lat="40.58421" lon="-2.73924">
        <ele>830.486038</ele>
        <time>2022-08-31T19:05:26.382Z</time>
      </trkpt>
      <trkpt lat="40.58399" lon="-2.73954">
        <ele>831.882724</ele>
        <time>2022-08-31T19:05:40.346Z</time>
      </trkpt>
      <trkpt lat="40.58352" lon="-2.74074">
        <ele>836.701662</ele>
        <time>2022-08-31T19:06:29.535Z</time>
      </trkpt>
      <trkpt lat="40.58335" lon="-2.74087">
        <ele>837.699827</ele>
        <time>2022-08-31T19:06:40.226Z</time>
      </trkpt>
      <trkpt lat="40.583" lon="-2.7409">
        <ele>839.417426</ele>
        <time>2022-08-31T19:06:57.578Z</time>
      </trkpt>
      <trkpt lat="40.58247" lon="-2.74107">
        <ele>842.175878</ele>
        <time>2022-08-31T19:07:23.746Z</time>
      </trkpt>
      <trkpt lat="40.58193" lon="-2.74085">
        <ele>843.86881</ele>
        <time>2022-08-31T19:07:47.933Z</time>
      </trkpt>
      <trkpt lat="40.58152" lon="-2.74027">
        <ele>844.740609</ele>
        <time>2022-08-31T19:08:07.825Z</time>
      </trkpt>
      <trkpt lat="40.58142" lon="-2.74019">
        <ele>844.922799</ele>
        <time>2022-08-31T19:08:11.284Z</time>
      </trkpt>
      <trkpt lat="40.58043" lon="-2.73978">
        <ele>846.430748</ele>
        <time>2022-08-31T19:08:32.894Z</time>
      </trkpt>
      <trkpt lat="40.57966" lon="-2.73965">
        <ele>847.574398</ele>
        <time>2022-08-31T19:08:48.644Z</time>
      </trkpt>
      <trkpt lat="40.57951" lon="-2.73976">
        <ele>847.826939</ele>
        <time>2022-08-31T19:08:54.348Z</time>
      </trkpt>
      <trkpt lat="40.5791" lon="-2.74023">
        <ele>848.624014</ele>
        <time>2022-08-31T19:09:16.514Z</time>
      </trkpt>
      <trkpt lat="40.57899" lon="-2.74072">
        <ele>851.153572</ele>
        <time>2022-08-31T19:09:38.001Z</time>
      </trkpt>
      <trkpt lat="40.57822" lon="-2.7424">
        <ele>861.360171</ele>
        <time>2022-08-31T19:11:08.012Z</time>
      </trkpt>
      <trkpt lat="40.57818" lon="-2.743">
        <ele>863.531191</ele>
        <time>2022-08-31T19:11:35.244Z</time>
      </trkpt>
      <trkpt lat="40.578" lon="-2.74339">
        <ele>865.140688</ele>
        <time>2022-08-31T19:11:52.672Z</time>
      </trkpt>
      <trkpt lat="40.5771" lon="-2.74392">
        <ele>869.756729</ele>
        <time>2022-08-31T19:12:28.560Z</time>
      </trkpt>
      <trkpt lat="40.57577" lon="-2.74439">
        <ele>873.737066</ele>
        <time>2022-08-31T19:13:17.499Z</time>
      </trkpt>
      <trkpt lat="40.5745" lon="-2.7454">
        <ele>879.88309</ele>
        <time>2022-08-31T19:14:16.558Z</time>
      </trkpt>
      <trkpt lat="40.57433" lon="-2.74553">
        <ele>880.789735</ele>
        <time>2022-08-31T19:14:26.234Z</time>
      </trkpt>
      <trkpt lat="40.57406" lon="-2.74596">
        <ele>882.761169</ele>
        <time>2022-08-31T19:14:48.175Z</time>
      </trkpt>
      <trkpt lat="40.57399" lon="-2.74643">
        <ele>885.380511</ele>
        <time>2022-08-31T19:15:09.009Z</time>
      </trkpt>
      <trkpt lat="40.5738" lon="-2.74697">
        <ele>888.937368</ele>
        <time>2022-08-31T19:15:37.211Z</time>
      </trkpt>
      <trkpt lat="40.57289" lon="-2.7483">
        <ele>899.272912</ele>
        <time>2022-08-31T19:17:05.058Z</time>
      </trkpt>
      <trkpt lat="40.57273" lon="-2.74854">
        <ele>900.836816</ele>
        <time>2022-08-31T19:17:20.468Z</time>
      </trkpt>
      <trkpt lat="40.57245" lon="-2.74866">
        <ele>902.75902</ele>
        <time>2022-08-31T19:17:37.983Z</time>
      </trkpt>
      <trkpt lat="40.57208" lon="-2.74864">
        <ele>905.135939</ele>
        <time>2022-08-31T19:17:57.568Z</time>
      </trkpt>
      <trkpt lat="40.57167" lon="-2.74839">
        <ele>908.078539</ele>
        <time>2022-08-31T19:18:18.741Z</time>
      </trkpt>
      <trkpt lat="40.57131" lon="-2.74802">
        <ele>910.348159</ele>
        <time>2022-08-31T19:18:37.803Z</time>
      </trkpt>
      <trkpt lat="40.57045" lon="-2.74791">
        <ele>914.013163</ele>
        <time>2022-08-31T19:19:15.721Z</time>
      </trkpt>
      <trkpt lat="40.56928" lon="-2.74768">
        <ele>917.637985</ele>
        <time>2022-08-31T19:20:07.218Z</time>
      </trkpt>
      <trkpt lat="40.56879" lon="-2.74752">
        <ele>918.522923</ele>
        <time>2022-08-31T19:20:23.445Z</time>
      </trkpt>
      <trkpt lat="40.56841" lon="-2.74698">
        <ele>919.500174</ele>
        <time>2022-08-31T19:20:37.300Z</time>
      </trkpt>
      <trkpt lat="40.56816" lon="-2.74682">
        <ele>919.652924</ele>
        <time>2022-08-31T19:20:42.785Z</time>
      </trkpt>
      <trkpt lat="40.56785" lon="-2.74693">
        <ele>919.196807</ele>
        <time>2022-08-31T19:20:48.764Z</time>
      </trkpt>
      <trkpt lat="40.56738" lon="-2.74722">
        <ele>918.432622</ele>
        <time>2022-08-31T19:20:57.774Z</time>
      </trkpt>
      <trkpt lat="40.56659" lon="-2.74753">
        <ele>917.233796</ele>
        <time>2022-08-31T19:21:13.053Z</time>
      </trkpt>
      <trkpt lat="40.56625" lon="-2.74781">
        <ele>917.648501</ele>
        <time>2022-08-31T19:21:23.909Z</time>
      </trkpt>
      <trkpt lat="40.56515" lon="-2.74957">
        <ele>919.445669</ele>
        <time>2022-08-31T19:22:18.387Z</time>
      </trkpt>
      <trkpt lat="40.56509" lon="-2.75036">
        <ele>919.487966</ele>
        <time>2022-08-31T19:22:34.223Z</time>
      </trkpt>
      <trkpt lat="40.56498" lon="-2.75064">
        <ele>919.504522</ele>
        <time>2022-08-31T19:22:39.407Z</time>
      </trkpt>
      <trkpt lat="40.56363" lon="-2.75165">
        <ele>918.923375</ele>
        <time>2022-08-31T19:23:09.175Z</time>
      </trkpt>
      <trkpt lat="40.56305" lon="-2.7524">
        <ele>918.356584</ele>
        <time>2022-08-31T19:23:26.004Z</time>
      </trkpt>
      <trkpt lat="40.56298" lon="-2.75293">
        <ele>919.263106</ele>
        <time>2022-08-31T19:23:36.835Z</time>
      </trkpt>
      <trkpt lat="40.56277" lon="-2.75403">
        <ele>921.795112</ele>
        <time>2022-08-31T19:24:07.611Z</time>
      </trkpt>
      <trkpt lat="40.56225" lon="-2.75472">
        <ele>924.104896</ele>
        <time>2022-08-31T19:24:41.812Z</time>
      </trkpt>
      <trkpt lat="40.56176" lon="-2.75598">
        <ele>928.611792</ele>
        <time>2022-08-31T19:25:33.983Z</time>
      </trkpt>
      <trkpt lat="40.56137" lon="-2.7562">
        <ele>930.35838</ele>
        <time>2022-08-31T19:25:51.369Z</time>
      </trkpt>
      <trkpt lat="40.5611" lon="-2.75596">
        <ele>930.835078</ele>
        <time>2022-08-31T19:26:02.657Z</time>
      </trkpt>
      <trkpt lat="40.56092" lon="-2.75566">
        <ele>930.336517</ele>
        <time>2022-08-31T19:26:10.264Z</time>
      </trkpt>
      <trkpt lat="40.56073" lon="-2.75487">
        <ele>929.230662</ele>
        <time>2022-08-31T19:26:22.331Z</time>
      </trkpt>
      <trkpt lat="40.55998" lon="-2.75347">
        <ele>925.961078</ele>
        <time>2022-08-31T19:26:43.193Z</time>
      </trkpt>
      <trkpt lat="40.55968" lon="-2.75311">
        <ele>924.532847</ele>
        <time>2022-08-31T19:26:49.744Z</time>
      </trkpt>
      <trkpt lat="40.5594" lon="-2.75285">
        <ele>923.342325</ele>
        <time>2022-08-31T19:26:55.420Z</time>
      </trkpt>
      <trkpt lat="40.55884" lon="-2.75274">
        <ele>921.772531</ele>
        <time>2022-08-31T19:27:05.810Z</time>
      </trkpt>
      <trkpt lat="40.55831" lon="-2.75238">
        <ele>922.459482</ele>
        <time>2022-08-31T19:27:19.772Z</time>
      </trkpt>
      <trkpt lat="40.55811" lon="-2.75231">
        <ele>922.68605</ele>
        <time>2022-08-31T19:27:25.989Z</time>
      </trkpt>
      <trkpt lat="40.55741" lon="-2.75229">
        <ele>923.486946</ele>
        <time>2022-08-31T19:27:50.818Z</time>
      </trkpt>
      <trkpt lat="40.55722" lon="-2.75219">
        <ele>923.71991</ele>
        <time>2022-08-31T19:27:58.384Z</time>
      </trkpt>
      <trkpt lat="40.55612" lon="-2.75113">
        <ele>925.879997</ele>
        <time>2022-08-31T19:28:41.542Z</time>
      </trkpt>
      <trkpt lat="40.55565" lon="-2.7504">
        <ele>926.727647</ele>
        <time>2022-08-31T19:28:59.292Z</time>
      </trkpt>
      <trkpt lat="40.55526" lon="-2.75002">
        <ele>926.990606</ele>
        <time>2022-08-31T19:29:10.649Z</time>
      </trkpt>
      <trkpt lat="40.55501" lon="-2.74986">
        <ele>927.137369</ele>
        <time>2022-08-31T19:29:16.813Z</time>
      </trkpt>
      <trkpt lat="40.55481" lon="-2.74987">
        <ele>927.24885</ele>
        <time>2022-08-31T19:29:21.922Z</time>
      </trkpt>
      <trkpt lat="40.55468" lon="-2.74993">
        <ele>927.323437</ele>
        <time>2022-08-31T19:29:25.706Z</time>
      </trkpt>
      <trkpt lat="40.55382" lon="-2.75078">
        <ele>926.362633</ele>
        <time>2022-08-31T19:29:54.147Z</time>
      </trkpt>
      <trkpt lat="40.55367" lon="-2.75086">
        <ele>926.077251</ele>
        <time>2022-08-31T19:29:57.723Z</time>
      </trkpt>
      <trkpt lat="40.55341" lon="-2.75083">
        <ele>925.629238</ele>
        <time>2022-08-31T19:30:02.825Z</time>
      </trkpt>
      <trkpt lat="40.55292" lon="-2.75037">
        <ele>924.56395</ele>
        <time>2022-08-31T19:30:12.925Z</time>
      </trkpt>
      <trkpt lat="40.55268" lon="-2.75023">
        <ele>923.303499</ele>
        <time>2022-08-31T19:30:16.904Z</time>
      </trkpt>
      <trkpt lat="40.55217" lon="-2.75008">
        <ele>919.597322</ele>
        <time>2022-08-31T19:30:24.851Z</time>
      </trkpt>
      <trkpt lat="40.55127" lon="-2.75008">
        <ele>913.266488</ele>
        <time>2022-08-31T19:30:37.956Z</time>
      </trkpt>
      <trkpt lat="40.55021" lon="-2.75035">
        <ele>909.063309</ele>
        <time>2022-08-31T19:30:54.453Z</time>
      </trkpt>
      <trkpt lat="40.54947" lon="-2.75132">
        <ele>906.360384</ele>
        <time>2022-08-31T19:31:16.547Z</time>
      </trkpt>
      <trkpt lat="40.54878" lon="-2.75212">
        <ele>908.175214</ele>
        <time>2022-08-31T19:31:46.458Z</time>
      </trkpt>
      <trkpt lat="40.54872" lon="-2.75243">
        <ele>908.656301</ele>
        <time>2022-08-31T19:31:54.950Z</time>
      </trkpt>
      <trkpt lat="40.54877" lon="-2.75256">
        <ele>908.883671</ele>
        <time>2022-08-31T19:31:59.466Z</time>
      </trkpt>
      <trkpt lat="40.54924" lon="-2.75303">
        <ele>910.073263</ele>
        <time>2022-08-31T19:32:20.899Z</time>
      </trkpt>
      <trkpt lat="40.54929" lon="-2.75313">
        <ele>910.269356</ele>
        <time>2022-08-31T19:32:24.616Z</time>
      </trkpt>
      <trkpt lat="40.54928" lon="-2.75334">
        <ele>910.617698</ele>
        <time>2022-08-31T19:32:30.484Z</time>
      </trkpt>
      <trkpt lat="40.54907" lon="-2.75354">
        <ele>911.175128</ele>
        <time>2022-08-31T19:32:39.887Z</time>
      </trkpt>
      <trkpt lat="40.54752" lon="-2.75421">
        <ele>913.511894</ele>
        <time>2022-08-31T19:33:30.012Z</time>
      </trkpt>
      <trkpt lat="40.54736" lon="-2.75419">
        <ele>913.513486</ele>
        <time>2022-08-31T19:33:33.619Z</time>
      </trkpt>
      <trkpt lat="40.54711" lon="-2.75398">
        <ele>913.516261</ele>
        <time>2022-08-31T19:33:39.601Z</time>
      </trkpt>
      <trkpt lat="40.54668" lon="-2.75334">
        <ele>913.522447</ele>
        <time>2022-08-31T19:33:52.425Z</time>
      </trkpt>
      <trkpt lat="40.54655" lon="-2.75323">
        <ele>913.52389</ele>
        <time>2022-08-31T19:33:55.435Z</time>
      </trkpt>
      <trkpt lat="40.54634" lon="-2.75317">
        <ele>913.293115</ele>
        <time>2022-08-31T19:33:59.968Z</time>
      </trkpt>
      <trkpt lat="40.54555" lon="-2.75323">
        <ele>912.409415</ele>
        <time>2022-08-31T19:34:17.825Z</time>
      </trkpt>
      <trkpt lat="40.54538" lon="-2.75324">
        <ele>912.221072</ele>
        <time>2022-08-31T19:34:20.963Z</time>
      </trkpt>
      <trkpt lat="40.54515" lon="-2.75297">
        <ele>911.879648</ele>
        <time>2022-08-31T19:34:26.507Z</time>
      </trkpt>
      <trkpt lat="40.54507" lon="-2.75237">
        <ele>911.091985</ele>
        <time>2022-08-31T19:34:34.537Z</time>
      </trkpt>
      <trkpt lat="40.5446" lon="-2.75283">
        <ele>909.285294</ele>
        <time>2022-08-31T19:34:46.397Z</time>
      </trkpt>
      <trkpt lat="40.54451" lon="-2.75301">
        <ele>908.76484</ele>
        <time>2022-08-31T19:34:51.280Z</time>
      </trkpt>
      <trkpt lat="40.54396" lon="-2.75347">
        <ele>906.756531</ele>
        <time>2022-08-31T19:35:11.774Z</time>
      </trkpt>
      <trkpt lat="40.54286" lon="-2.75371">
        <ele>900.676094</ele>
        <time>2022-08-31T19:35:43.501Z</time>
      </trkpt>
      <trkpt lat="40.54166" lon="-2.75412">
        <ele>892.208414</ele>
        <time>2022-08-31T19:36:17.440Z</time>
      </trkpt>
      <trkpt lat="40.54072" lon="-2.75427">
        <ele>883.746432</ele>
        <time>2022-08-31T19:36:42.009Z</time>
      </trkpt>
      <trkpt lat="40.53997" lon="-2.75429">
        <ele>877.237031</ele>
        <time>2022-08-31T19:37:01.320Z</time>
      </trkpt>
      <trkpt lat="40.53951" lon="-2.75407">
        <ele>873.16549</ele>
        <time>2022-08-31T19:37:13.991Z</time>
      </trkpt>
      <trkpt lat="40.53913" lon="-2.75405">
        <ele>870.015665</ele>
        <time>2022-08-31T19:37:23.940Z</time>
      </trkpt>
      <trkpt lat="40.53872" lon="-2.75413">
        <ele>866.538634</ele>
        <time>2022-08-31T19:37:35.343Z</time>
      </trkpt>
      <trkpt lat="40.53846" lon="-2.75408">
        <ele>864.342981</ele>
        <time>2022-08-31T19:37:42.463Z</time>
      </trkpt>
      <trkpt lat="40.53835" lon="-2.75396">
        <ele>863.322787</ele>
        <time>2022-08-31T19:37:46.532Z</time>
      </trkpt>
      <trkpt lat="40.53828" lon="-2.75399">
        <ele>862.775023</ele>
        <time>2022-08-31T19:37:48.616Z</time>
      </trkpt>
      <trkpt lat="40.53827" lon="-2.75424">
        <ele>861.470484</ele>
        <time>2022-08-31T19:37:51.741Z</time>
      </trkpt>
      <trkpt lat="40.53803" lon="-2.75463">
        <ele>858.880336</ele>
        <time>2022-08-31T19:37:57.945Z</time>
      </trkpt>
      <trkpt lat="40.53791" lon="-2.75499">
        <ele>856.859712</ele>
        <time>2022-08-31T19:38:02.629Z</time>
      </trkpt>
      <trkpt lat="40.53722" lon="-2.75582">
        <ele>850.561844</ele>
        <time>2022-08-31T19:38:17.231Z</time>
      </trkpt>
      <trkpt lat="40.53693" lon="-2.75629">
        <ele>847.398663</ele>
        <time>2022-08-31T19:38:24.700Z</time>
      </trkpt>
      <trkpt lat="40.53619" lon="-2.75685">
        <ele>841.594334</ele>
        <time>2022-08-31T19:38:38.160Z</time>
      </trkpt>
      <trkpt lat="40.53595" lon="-2.75695">
        <ele>839.890393</ele>
        <time>2022-08-31T19:38:42.030Z</time>
      </trkpt>
      <trkpt lat="40.53495" lon="-2.75709">
        <ele>833.061803</ele>
        <time>2022-08-31T19:38:57.884Z</time>
      </trkpt>
      <trkpt lat="40.53433" lon="-2.75738">
        <ele>828.564778</ele>
        <time>2022-08-31T19:39:08.336Z</time>
      </trkpt>
      <trkpt lat="40.53336" lon="-2.75825">
        <ele>821.025601</ele>
        <time>2022-08-31T19:39:27.047Z</time>
      </trkpt>
      <trkpt lat="40.53325" lon="-2.75848">
        <ele>819.697498</ele>
        <time>2022-08-31T19:39:30.343Z</time>
      </trkpt>
      <trkpt lat="40.5331" lon="-2.75894">
        <ele>817.315512</ele>
        <time>2022-08-31T19:39:36.453Z</time>
      </trkpt>
      <trkpt lat="40.53298" lon="-2.75914">
        <ele>816.03463</ele>
        <time>2022-08-31T19:39:39.838Z</time>
      </trkpt>
      <trkpt lat="40.53139" lon="-2.75984">
        <ele>805.752356</ele>
        <time>2022-08-31T19:40:06.639Z</time>
      </trkpt>
      <trkpt lat="40.53045" lon="-2.761">
        <ele>798.155954</ele>
        <time>2022-08-31T19:40:27.343Z</time>
      </trkpt>
      <trkpt lat="40.52998" lon="-2.76123">
        <ele>795.237744</ele>
        <time>2022-08-31T19:40:35.570Z</time>
      </trkpt>
      <trkpt lat="40.52976" lon="-2.76147">
        <ele>793.859801</ele>
        <time>2022-08-31T19:40:40.290Z</time>
      </trkpt>
      <trkpt lat="40.52945" lon="-2.76157">
        <ele>792.763496</ele>
        <time>2022-08-31T19:40:45.627Z</time>
      </trkpt>
      <trkpt lat="40.52901" lon="-2.76189">
        <ele>791.032412</ele>
        <time>2022-08-31T19:40:54.200Z</time>
      </trkpt>
      <trkpt lat="40.52868" lon="-2.762">
        <ele>789.86133</ele>
        <time>2022-08-31T19:41:00.231Z</time>
      </trkpt>
      <trkpt lat="40.52856" lon="-2.7621">
        <ele>789.355221</ele>
        <time>2022-08-31T19:41:02.955Z</time>
      </trkpt>
      <trkpt lat="40.52811" lon="-2.76273">
        <ele>788.193441</ele>
        <time>2022-08-31T19:41:15.733Z</time>
      </trkpt>
      <trkpt lat="40.52724" lon="-2.76322">
        <ele>788.762267</ele>
        <time>2022-08-31T19:41:39.481Z</time>
      </trkpt>
      <trkpt lat="40.52715" lon="-2.76336">
        <ele>788.847404</ele>
        <time>2022-08-31T19:41:43.478Z</time>
      </trkpt>
      <trkpt lat="40.52715" lon="-2.76353">
        <ele>788.92474</ele>
        <time>2022-08-31T19:41:48.011Z</time>
      </trkpt>
      <trkpt lat="40.52744" lon="-2.76479">
        <ele>791.423624</ele>
        <time>2022-08-31T19:42:25.297Z</time>
      </trkpt>
      <trkpt lat="40.52749" lon="-2.76522">
        <ele>792.534757</ele>
        <time>2022-08-31T19:42:39.305Z</time>
      </trkpt>
      <trkpt lat="40.52736" lon="-2.76558">
        <ele>793.561149</ele>
        <time>2022-08-31T19:42:52.948Z</time>
      </trkpt>
      <trkpt lat="40.52731" lon="-2.76591">
        <ele>794.401153</ele>
        <time>2022-08-31T19:43:03.749Z</time>
      </trkpt>
      <trkpt lat="40.52709" lon="-2.766">
        <ele>795.172696</ele>
        <time>2022-08-31T19:43:13.565Z</time>
      </trkpt>
      <trkpt lat="40.52674" lon="-2.76604">
        <ele>796.088789</ele>
        <time>2022-08-31T19:43:28.295Z</time>
      </trkpt>
      <trkpt lat="40.5257" lon="-2.76641">
        <ele>798.845564</ele>
        <time>2022-08-31T19:44:06.830Z</time>
      </trkpt>
      <trkpt lat="40.52524" lon="-2.76648">
        <ele>799.70608</ele>
        <time>2022-08-31T19:44:21.953Z</time>
      </trkpt>
      <trkpt lat="40.52505" lon="-2.76654">
        <ele>799.596941</ele>
        <time>2022-08-31T19:44:27.346Z</time>
      </trkpt>
      <trkpt lat="40.52494" lon="-2.76668">
        <ele>799.508061</ele>
        <time>2022-08-31T19:44:31.887Z</time>
      </trkpt>
      <trkpt lat="40.52473" lon="-2.76694">
        <ele>799.347867</ele>
        <time>2022-08-31T19:44:38.428Z</time>
      </trkpt>
      <trkpt lat="40.52442" lon="-2.76764">
        <ele>798.999277</ele>
        <time>2022-08-31T19:44:51.053Z</time>
      </trkpt>
      <trkpt lat="40.5241" lon="-2.76803">
        <ele>798.754044</ele>
        <time>2022-08-31T19:44:59.320Z</time>
      </trkpt>
      <trkpt lat="40.52393" lon="-2.76838">
        <ele>798.14238</ele>
        <time>2022-08-31T19:45:05.160Z</time>
      </trkpt>
      <trkpt lat="40.52309" lon="-2.76953">
        <ele>795.816749</ele>
        <time>2022-08-31T19:45:28.254Z</time>
      </trkpt>
      <trkpt lat="40.52301" lon="-2.76974">
        <ele>795.466886</ele>
        <time>2022-08-31T19:45:31.797Z</time>
      </trkpt>
      <trkpt lat="40.52288" lon="-2.77033">
        <ele>794.991267</ele>
        <time>2022-08-31T19:45:41.295Z</time>
      </trkpt>
      <trkpt lat="40.52238" lon="-2.77134">
        <ele>794.246299</ele>
        <time>2022-08-31T19:46:01.254Z</time>
      </trkpt>
      <trkpt lat="40.52226" lon="-2.77141">
        <ele>794.137051</ele>
        <time>2022-08-31T19:46:04.238Z</time>
      </trkpt>
      <trkpt lat="40.52177" lon="-2.7715">
        <ele>793.645439</ele>
        <time>2022-08-31T19:46:15.165Z</time>
      </trkpt>
      <trkpt lat="40.52102" lon="-2.772">
        <ele>792.35022</ele>
        <time>2022-08-31T19:46:32.272Z</time>
      </trkpt>
      <trkpt lat="40.52062" lon="-2.77235">
        <ele>791.603498</ele>
        <time>2022-08-31T19:46:41.458Z</time>
      </trkpt>
      <trkpt lat="40.52022" lon="-2.7729">
        <ele>790.565691</ele>
        <time>2022-08-31T19:46:52.361Z</time>
      </trkpt>
      <trkpt lat="40.52007" lon="-2.77361">
        <ele>789.331586</ele>
        <time>2022-08-31T19:47:02.813Z</time>
      </trkpt>
      <trkpt lat="40.51966" lon="-2.77397">
        <ele>788.261861</ele>
        <time>2022-08-31T19:47:11.961Z</time>
      </trkpt>
      <trkpt lat="40.51941" lon="-2.77444">
        <ele>787.298891</ele>
        <time>2022-08-31T19:47:20.348Z</time>
      </trkpt>
      <trkpt lat="40.51915" lon="-2.77523">
        <ele>786.640182</ele>
        <time>2022-08-31T19:47:33.389Z</time>
      </trkpt>
      <trkpt lat="40.5186" lon="-2.77603">
        <ele>785.972619</ele>
        <time>2022-08-31T19:47:51.040Z</time>
      </trkpt>
      <trkpt lat="40.51819" lon="-2.77731">
        <ele>785.021272</ele>
        <time>2022-08-31T19:48:15.458Z</time>
      </trkpt>
      <trkpt lat="40.51802" lon="-2.77821">
        <ele>784.350645</ele>
        <time>2022-08-31T19:48:30.838Z</time>
      </trkpt>
      <trkpt lat="40.51784" lon="-2.77881">
        <ele>783.777967</ele>
        <time>2022-08-31T19:48:40.297Z</time>
      </trkpt>
      <trkpt lat="40.51763" lon="-2.78002">
        <ele>779.559663</ele>
        <time>2022-08-31T19:48:56.736Z</time>
      </trkpt>
      <trkpt lat="40.51759" lon="-2.78081">
        <ele>776.896734</ele>
        <time>2022-08-31T19:49:06.524Z</time>
      </trkpt>
      <trkpt lat="40.51749" lon="-2.78135">
        <ele>774.730655</ele>
        <time>2022-08-31T19:49:13.346Z</time>
      </trkpt>
      <trkpt lat="40.51739" lon="-2.78311">
        <ele>767.008402</ele>
        <time>2022-08-31T19:49:34.915Z</time>
      </trkpt>
      <trkpt lat="40.51723" lon="-2.78364">
        <ele>764.96635</ele>
        <time>2022-08-31T19:49:42.132Z</time>
      </trkpt>
      <trkpt lat="40.51721" lon="-2.78385">
        <ele>764.427213</ele>
        <time>2022-08-31T19:49:44.884Z</time>
      </trkpt>
      <trkpt lat="40.51728" lon="-2.78523">
        <ele>760.931829</ele>
        <time>2022-08-31T19:50:03.833Z</time>
      </trkpt>
      <trkpt lat="40.51734" lon="-2.78542">
        <ele>760.415812</ele>
        <time>2022-08-31T19:50:06.871Z</time>
      </trkpt>
      <trkpt lat="40.51755" lon="-2.78568">
        <ele>759.413036</ele>
        <time>2022-08-31T19:50:12.489Z</time>
      </trkpt>
      <trkpt lat="40.51773" lon="-2.78621">
        <ele>757.373728</ele>
        <time>2022-08-31T19:50:20.848Z</time>
      </trkpt>
      <trkpt lat="40.5179" lon="-2.78645">
        <ele>756.220108</ele>
        <time>2022-08-31T19:50:25.211Z</time>
      </trkpt>
      <trkpt lat="40.51798" lon="-2.78651">
        <ele>755.770242</ele>
        <time>2022-08-31T19:50:26.856Z</time>
      </trkpt>
      <trkpt lat="40.51833" lon="-2.78634">
        <ele>754.067187</ele>
        <time>2022-08-31T19:50:32.917Z</time>
      </trkpt>
      <trkpt lat="40.51845" lon="-2.78636">
        <ele>753.504871</ele>
        <time>2022-08-31T19:50:34.928Z</time>
      </trkpt>
      <trkpt lat="40.51861" lon="-2.78649">
        <ele>752.637929</ele>
        <time>2022-08-31T19:50:37.897Z</time>
      </trkpt>
      <trkpt lat="40.51872" lon="-2.7867">
        <ele>751.755</ele>
        <time>2022-08-31T19:50:41.012Z</time>
      </trkpt>
      <trkpt lat="40.51872" lon="-2.78674">
        <ele>751.609447</ele>
        <time>2022-08-31T19:50:41.479Z</time>
      </trkpt>
      <trkpt lat="40.51874" lon="-2.78693">
        <ele>750.987709</ele>
        <time>2022-08-31T19:50:43.578Z</time>
      </trkpt>
      <trkpt lat="40.51868" lon="-2.78724">
        <ele>749.983072</ele>
        <time>2022-08-31T19:50:47.236Z</time>
      </trkpt>
      <trkpt lat="40.51837" lon="-2.78793">
        <ele>747.421715</ele>
        <time>2022-08-31T19:50:56.711Z</time>
      </trkpt>
      <trkpt lat="40.51795" lon="-2.78877">
        <ele>744.264607</ele>
        <time>2022-08-31T19:51:09.399Z</time>
      </trkpt>
      <trkpt lat="40.51792" lon="-2.78882">
        <ele>744.063995</ele>
        <time>2022-08-31T19:51:10.471Z</time>
      </trkpt>
      <trkpt lat="40.51731" lon="-2.78967">
        <ele>745.509205</ele>
        <time>2022-08-31T19:51:43.731Z</time>
      </trkpt>
      <trkpt lat="40.51677" lon="-2.79021">
        <ele>746.86815</ele>
        <time>2022-08-31T19:52:11.803Z</time>
      </trkpt>
      <trkpt lat="40.51675" lon="-2.79023">
        <ele>746.914963</ele>
        <time>2022-08-31T19:52:12.683Z</time>
      </trkpt>
      <trkpt lat="40.51667" lon="-2.79031">
        <ele>747.108344</ele>
        <time>2022-08-31T19:52:16.795Z</time>
      </trkpt>
      <trkpt lat="40.51636" lon="-2.79062">
        <ele>746.239092</ele>
        <time>2022-08-31T19:52:28.713Z</time>
      </trkpt>
      <trkpt lat="40.51617" lon="-2.79021">
        <ele>744.335253</ele>
        <time>2022-08-31T19:52:35.805Z</time>
      </trkpt>
      <trkpt lat="40.51612" lon="-2.79012">
        <ele>743.891841</ele>
        <time>2022-08-31T19:52:37.269Z</time>
      </trkpt>
      <trkpt lat="40.51571" lon="-2.79011">
        <ele>741.755221</ele>
        <time>2022-08-31T19:52:43.854Z</time>
      </trkpt>
      <trkpt lat="40.51512" lon="-2.78972">
        <ele>738.32294</ele>
        <time>2022-08-31T19:52:53.734Z</time>
      </trkpt>
      <trkpt lat="40.51486" lon="-2.78962">
        <ele>736.240739</ele>
        <time>2022-08-31T19:52:57.723Z</time>
      </trkpt>
      <trkpt lat="40.51458" lon="-2.78924">
        <ele>732.963659</ele>
        <time>2022-08-31T19:53:03.575Z</time>
      </trkpt>
      <trkpt lat="40.51451" lon="-2.78903">
        <ele>731.508443</ele>
        <time>2022-08-31T19:53:06.267Z</time>
      </trkpt>
      <trkpt lat="40.51454" lon="-2.78859">
        <ele>728.756396</ele>
        <time>2022-08-31T19:53:11.377Z</time>
      </trkpt>
      <trkpt lat="40.51448" lon="-2.78836">
        <ele>727.273987</ele>
        <time>2022-08-31T19:53:14.106Z</time>
      </trkpt>
      <trkpt lat="40.51445" lon="-2.7883">
        <ele>726.771246</ele>
        <time>2022-08-31T19:53:15.088Z</time>
      </trkpt>
      <trkpt lat="40.51426" lon="-2.78826">
        <ele>725.200565</ele>
        <time>2022-08-31T19:53:18.113Z</time>
      </trkpt>
      <trkpt lat="40.514" lon="-2.78822">
        <ele>723.178234</ele>
        <time>2022-08-31T19:53:22.414Z</time>
      </trkpt>
      <trkpt lat="40.51359" lon="-2.78828">
        <ele>722.10132</ele>
        <time>2022-08-31T19:53:29.560Z</time>
      </trkpt>
      <trkpt lat="40.51301" lon="-2.78797">
        <ele>720.441952</ele>
        <time>2022-08-31T19:53:41.081Z</time>
      </trkpt>
      <trkpt lat="40.51177" lon="-2.7871">
        <ele>718.517326</ele>
        <time>2022-08-31T19:54:10.496Z</time>
      </trkpt>
      <trkpt lat="40.51104" lon="-2.78626">
        <ele>718.52723</ele>
        <time>2022-08-31T19:54:36.231Z</time>
      </trkpt>
      <trkpt lat="40.51067" lon="-2.78569">
        <ele>717.839675</ele>
        <time>2022-08-31T19:54:50.991Z</time>
      </trkpt>
      <trkpt lat="40.51005" lon="-2.78501">
        <ele>716.480392</ele>
        <time>2022-08-31T19:55:07.200Z</time>
      </trkpt>
      <trkpt lat="40.50998" lon="-2.78427">
        <ele>715.513389</ele>
        <time>2022-08-31T19:55:16.836Z</time>
      </trkpt>
      <trkpt lat="40.51006" lon="-2.78377">
        <ele>713.856136</ele>
        <time>2022-08-31T19:55:23.272Z</time>
      </trkpt>
      <trkpt lat="40.51022" lon="-2.78351">
        <ele>712.770997</ele>
        <time>2022-08-31T19:55:27.234Z</time>
      </trkpt>
      <trkpt lat="40.51083" lon="-2.78298">
        <ele>709.579803</ele>
        <time>2022-08-31T19:55:38.805Z</time>
      </trkpt>
      <trkpt lat="40.5112" lon="-2.78263">
        <ele>707.614876</ele>
        <time>2022-08-31T19:55:46.208Z</time>
      </trkpt>
      <trkpt lat="40.51127" lon="-2.78245">
        <ele>707.305338</ele>
        <time>2022-08-31T19:55:48.647Z</time>
      </trkpt>
      <trkpt lat="40.51125" lon="-2.78229">
        <ele>707.04657</ele>
        <time>2022-08-31T19:55:50.713Z</time>
      </trkpt>
      <trkpt lat="40.51009" lon="-2.78055">
        <ele>703.733792</ele>
        <time>2022-08-31T19:56:24.433Z</time>
      </trkpt>
      <trkpt lat="40.50962" lon="-2.77974">
        <ele>703.025983</ele>
        <time>2022-08-31T19:56:40.777Z</time>
      </trkpt>
      <trkpt lat="40.50941" lon="-2.77951">
        <ele>702.773061</ele>
        <time>2022-08-31T19:56:46.690Z</time>
      </trkpt>
      <trkpt lat="40.50843" lon="-2.7793">
        <ele>700.945037</ele>
        <time>2022-08-31T19:57:06.103Z</time>
      </trkpt>
      <trkpt lat="40.50774" lon="-2.77899">
        <ele>698.90441</ele>
        <time>2022-08-31T19:57:18.586Z</time>
      </trkpt>
      <trkpt lat="40.50632" lon="-2.77874">
        <ele>693.836004</ele>
        <time>2022-08-31T19:57:42.335Z</time>
      </trkpt>
      <trkpt lat="40.5052" lon="-2.77843">
        <ele>689.331149</ele>
        <time>2022-08-31T19:58:00.833Z</time>
      </trkpt>
      <trkpt lat="40.50457" lon="-2.77814">
        <ele>686.816112</ele>
        <time>2022-08-31T19:58:12.532Z</time>
      </trkpt>
      <trkpt lat="40.50344" lon="-2.77748">
        <ele>682.160051</ele>
        <time>2022-08-31T19:58:32.772Z</time>
      </trkpt>
      <trkpt lat="40.50211" lon="-2.7766">
        <ele>676.546829</ele>
        <time>2022-08-31T19:58:57.405Z</time>
      </trkpt>
      <trkpt lat="40.50126" lon="-2.77589">
        <ele>675.285643</ele>
        <time>2022-08-31T19:59:15.514Z</time>
      </trkpt>
      <trkpt lat="40.50068" lon="-2.77533">
        <ele>674.394759</ele>
        <time>2022-08-31T19:59:33.282Z</time>
      </trkpt>
      <trkpt lat="40.50033" lon="-2.775">
        <ele>674.130543</ele>
        <time>2022-08-31T19:59:46.109Z</time>
      </trkpt>
      <trkpt lat="40.49954" lon="-2.77402">
        <ele>673.592888</ele>
        <time>2022-08-31T20:00:08.593Z</time>
      </trkpt>
      <trkpt lat="40.49945" lon="-2.77398">
        <ele>673.543616</ele>
        <time>2022-08-31T20:00:11.795Z</time>
      </trkpt>
      <trkpt lat="40.49928" lon="-2.77416">
        <ele>673.437598</ele>
        <time>2022-08-31T20:00:15.509Z</time>
      </trkpt>
      <trkpt lat="40.4994" lon="-2.77434">
        <ele>673.045121</ele>
        <time>2022-08-31T20:00:19.106Z</time>
      </trkpt>
      <trkpt lat="40.49936" lon="-2.77451">
        <ele>672.696462</ele>
        <time>2022-08-31T20:00:21.226Z</time>
      </trkpt>
      <trkpt lat="40.49925" lon="-2.7746">
        <ele>672.34837</ele>
        <time>2022-08-31T20:00:23.524Z</time>
      </trkpt>
      <trkpt lat="40.49913" lon="-2.77473">
        <ele>671.936922</ele>
        <time>2022-08-31T20:00:26.300Z</time>
      </trkpt>
      <trkpt lat="40.499" lon="-2.77512">
        <ele>671.091373</ele>
        <time>2022-08-31T20:00:31.874Z</time>
      </trkpt>
      <trkpt lat="40.49902" lon="-2.77535">
        <ele>670.619772</ele>
        <time>2022-08-31T20:00:34.754Z</time>
      </trkpt>
      <trkpt lat="40.49907" lon="-2.77549">
        <ele>670.312024</ele>
        <time>2022-08-31T20:00:37.101Z</time>
      </trkpt>
      <trkpt lat="40.49903" lon="-2.77563">
        <ele>670.005014</ele>
        <time>2022-08-31T20:00:39.030Z</time>
      </trkpt>
      <trkpt lat="40.4989" lon="-2.77572">
        <ele>669.629782</ele>
        <time>2022-08-31T20:00:41.318Z</time>
      </trkpt>
      <trkpt lat="40.49879" lon="-2.77567">
        <ele>669.322564</ele>
        <time>2022-08-31T20:00:43.272Z</time>
      </trkpt>
      <trkpt lat="40.49844" lon="-2.77557">
        <ele>668.568387</ele>
        <time>2022-08-31T20:00:49.527Z</time>
      </trkpt>
      <trkpt lat="40.49814" lon="-2.77519">
        <ele>668.278065</ele>
        <time>2022-08-31T20:00:57.348Z</time>
      </trkpt>
      <trkpt lat="40.49772" lon="-2.77488">
        <ele>667.942719</ele>
        <time>2022-08-31T20:01:07.448Z</time>
      </trkpt>
      <trkpt lat="40.49604" lon="-2.77458">
        <ele>667.094318</ele>
        <time>2022-08-31T20:01:48.234Z</time>
      </trkpt>
      <trkpt lat="40.49459" lon="-2.77478">
        <ele>665.146238</ele>
        <time>2022-08-31T20:02:17.458Z</time>
      </trkpt>
      <trkpt lat="40.49315" lon="-2.77476">
        <ele>660.365002</ele>
        <time>2022-08-31T20:02:41.535Z</time>
      </trkpt>
      <trkpt lat="40.49255" lon="-2.77496">
        <ele>657.037709</ele>
        <time>2022-08-31T20:02:51.009Z</time>
      </trkpt>
      <trkpt lat="40.49209" lon="-2.77531">
        <ele>654.189233</ele>
        <time>2022-08-31T20:02:59.119Z</time>
      </trkpt>
      <trkpt lat="40.49204" lon="-2.77537">
        <ele>653.817995</ele>
        <time>2022-08-31T20:03:00.187Z</time>
      </trkpt>
      <trkpt lat="40.49171" lon="-2.77575">
        <ele>651.5884</ele>
        <time>2022-08-31T20:03:06.971Z</time>
      </trkpt>
      <trkpt lat="40.49114" lon="-2.77687">
        <ele>648.063281</ele>
        <time>2022-08-31T20:03:23.507Z</time>
      </trkpt>
      <trkpt lat="40.49065" lon="-2.77762">
        <ele>645.586261</ele>
        <time>2022-08-31T20:03:37.915Z</time>
      </trkpt>
      <trkpt lat="40.49038" lon="-2.77793">
        <ele>645.384579</ele>
        <time>2022-08-31T20:03:45.035Z</time>
      </trkpt>
      <trkpt lat="40.48901" lon="-2.77911">
        <ele>644.682747</ele>
        <time>2022-08-31T20:04:19.831Z</time>
      </trkpt>
      <trkpt lat="40.48779" lon="-2.78069">
        <ele>645.372406</ele>
        <time>2022-08-31T20:05:01.989Z</time>
      </trkpt>
      <trkpt lat="40.48706" lon="-2.78132">
        <ele>646.012018</ele>
        <time>2022-08-31T20:05:24.961Z</time>
      </trkpt>
      <trkpt lat="40.48403" lon="-2.78321">
        <ele>648.11448</ele>
        <time>2022-08-31T20:06:52.205Z</time>
      </trkpt>
      <trkpt lat="40.48255" lon="-2.78408">
        <ele>648.272037</ele>
        <time>2022-08-31T20:07:27.917Z</time>
      </trkpt>
      <trkpt lat="40.47745" lon="-2.78443">
        <ele>648.348569</ele>
        <time>2022-08-31T20:09:18.657Z</time>
      </trkpt>
      <trkpt lat="40.47704" lon="-2.78451">
        <ele>649.30203</ele>
        <time>2022-08-31T20:09:31.621Z</time>
      </trkpt>
      <trkpt lat="40.47659" lon="-2.78449">
        <ele>650.3297</ele>
        <time>2022-08-31T20:09:47.445Z</time>
      </trkpt>
      <trkpt lat="40.47588" lon="-2.78425">
        <ele>652.139842</ele>
        <time>2022-08-31T20:10:17.986Z</time>
      </trkpt>
      <trkpt lat="40.47452" lon="-2.78307">
        <ele>658.120839</ele>
        <time>2022-08-31T20:11:27.045Z</time>
      </trkpt>
      <trkpt lat="40.4734" lon="-2.78219">
        <ele>659.195439</ele>
        <time>2022-08-31T20:12:07.190Z</time>
      </trkpt>
      <trkpt lat="40.47309" lon="-2.782">
        <ele>659.427749</ele>
        <time>2022-08-31T20:12:13.818Z</time>
      </trkpt>
      <trkpt lat="40.47265" lon="-2.78187">
        <ele>658.78931</ele>
        <time>2022-08-31T20:12:21.866Z</time>
      </trkpt>
      <trkpt lat="40.47195" lon="-2.78186">
        <ele>656.384958</ele>
        <time>2022-08-31T20:12:33.787Z</time>
      </trkpt>
      <trkpt lat="40.47117" lon="-2.7821">
        <ele>653.686105</ele>
        <time>2022-08-31T20:12:46.851Z</time>
      </trkpt>
      <trkpt lat="40.47065" lon="-2.78253">
        <ele>652.258694</ele>
        <time>2022-08-31T20:12:57.007Z</time>
      </trkpt>
      <trkpt lat="40.47014" lon="-2.78319">
        <ele>650.681514</ele>
        <time>2022-08-31T20:13:09.491Z</time>
      </trkpt>
      <trkpt lat="40.46775" lon="-2.78761">
        <ele>649.888297</ele>
        <time>2022-08-31T20:14:44.848Z</time>
      </trkpt>
      <trkpt lat="40.46725" lon="-2.78812">
        <ele>649.683884</ele>
        <time>2022-08-31T20:14:58.414Z</time>
      </trkpt>
      <trkpt lat="40.46571" lon="-2.78945">
        <ele>649.428824</ele>
        <time>2022-08-31T20:15:37.164Z</time>
      </trkpt>
      <trkpt lat="40.46378" lon="-2.79111">
        <ele>650.048855</ele>
        <time>2022-08-31T20:16:35.164Z</time>
      </trkpt>
      <trkpt lat="40.46315" lon="-2.79134">
        <ele>650.240774</ele>
        <time>2022-08-31T20:16:50.216Z</time>
      </trkpt>
      <trkpt lat="40.46244" lon="-2.79135">
        <ele>649.846629</ele>
        <time>2022-08-31T20:17:05.121Z</time>
      </trkpt>
      <trkpt lat="40.46013" lon="-2.79064">
        <ele>648.682068</ele>
        <time>2022-08-31T20:17:53.313Z</time>
      </trkpt>
      <trkpt lat="40.45753" lon="-2.78984">
        <ele>649.544829</ele>
        <time>2022-08-31T20:18:58.303Z</time>
      </trkpt>
      <trkpt lat="40.45651" lon="-2.78907">
        <ele>650.440663</ele>
        <time>2022-08-31T20:19:28.961Z</time>
      </trkpt>
      <trkpt lat="40.45589" lon="-2.7887">
        <ele>651.489749</ele>
        <time>2022-08-31T20:19:47.836Z</time>
      </trkpt>
      <trkpt lat="40.45514" lon="-2.78857">
        <ele>652.957135</ele>
        <time>2022-08-31T20:20:11.573Z</time>
      </trkpt>
      <trkpt lat="40.45443" lon="-2.78884">
        <ele>654.577369</ele>
        <time>2022-08-31T20:20:38.073Z</time>
      </trkpt>
      <trkpt lat="40.4521" lon="-2.79038">
        <ele>662.825941</ele>
        <time>2022-08-31T20:22:18.272Z</time>
      </trkpt>
      <trkpt lat="40.4512" lon="-2.79116">
        <ele>666.121681</ele>
        <time>2022-08-31T20:22:59.820Z</time>
      </trkpt>
      <trkpt lat="40.45005" lon="-2.7925">
        <ele>670.06311</ele>
        <time>2022-08-31T20:23:54.920Z</time>
      </trkpt>
      <trkpt lat="40.44783" lon="-2.79644">
        <ele>672.712827</ele>
        <time>2022-08-31T20:25:27.639Z</time>
      </trkpt>
      <trkpt lat="40.4473" lon="-2.79728">
        <ele>674.131709</ele>
        <time>2022-08-31T20:25:49.968Z</time>
      </trkpt>
      <trkpt lat="40.44012" lon="-2.80308">
        <ele>696.124653</ele>
        <time>2022-08-31T20:30:50.616Z</time>
      </trkpt>
      <trkpt lat="40.43764" lon="-2.80582">
        <ele>705.956452</ele>
        <time>2022-08-31T20:32:56.249Z</time>
      </trkpt>
      <trkpt lat="40.43709" lon="-2.80634">
        <ele>705.80553</ele>
        <time>2022-08-31T20:33:13.700Z</time>
      </trkpt>
      <trkpt lat="40.43532" lon="-2.80712">
        <ele>704.132698</ele>
        <time>2022-08-31T20:33:49.435Z</time>
      </trkpt>
      <trkpt lat="40.43431" lon="-2.8077">
        <ele>702.022654</ele>
        <time>2022-08-31T20:34:09.519Z</time>
      </trkpt>
      <trkpt lat="40.43345" lon="-2.80834">
        <ele>699.458268</ele>
        <time>2022-08-31T20:34:27.035Z</time>
      </trkpt>
      <trkpt lat="40.4316" lon="-2.8102">
        <ele>693.969839</ele>
        <time>2022-08-31T20:35:07.491Z</time>
      </trkpt>
      <trkpt lat="40.42903" lon="-2.81389">
        <ele>695.808091</ele>
        <time>2022-08-31T20:36:43.672Z</time>
      </trkpt>
      <trkpt lat="40.42517" lon="-2.8196">
        <ele>715.037421</ele>
        <time>2022-08-31T20:40:29.160Z</time>
      </trkpt>
      <trkpt lat="40.42461" lon="-2.82026">
        <ele>718.593313</ele>
        <time>2022-08-31T20:41:01.976Z</time>
      </trkpt>
      <trkpt lat="40.42267" lon="-2.82193">
        <ele>732.004317</ele>
        <time>2022-08-31T20:43:05.399Z</time>
      </trkpt>
      <trkpt lat="40.41963" lon="-2.82408">
        <ele>752.483243</ele>
        <time>2022-08-31T20:46:09.733Z</time>
      </trkpt>
      <trkpt lat="40.41788" lon="-2.82517">
        <ele>758.615902</ele>
        <time>2022-08-31T20:47:21.581Z</time>
      </trkpt>
      <trkpt lat="40.41706" lon="-2.82549">
        <ele>758.975532</ele>
        <time>2022-08-31T20:47:43.274Z</time>
      </trkpt>
      <trkpt lat="40.41625" lon="-2.82551">
        <ele>759.002075</ele>
        <time>2022-08-31T20:48:00.341Z</time>
      </trkpt>
      <trkpt lat="40.41508" lon="-2.82504">
        <ele>757.746806</ele>
        <time>2022-08-31T20:48:24.045Z</time>
      </trkpt>
      <trkpt lat="40.41419" lon="-2.82481">
        <ele>756.559333</ele>
        <time>2022-08-31T20:48:41.303Z</time>
      </trkpt>
      <trkpt lat="40.41257" lon="-2.82521">
        <ele>754.209105</ele>
        <time>2022-08-31T20:49:13.208Z</time>
      </trkpt>
      <trkpt lat="40.41145" lon="-2.82536">
        <ele>751.903829</ele>
        <time>2022-08-31T20:49:33.869Z</time>
      </trkpt>
      <trkpt lat="40.40984" lon="-2.82526">
        <ele>748.584337</ele>
        <time>2022-08-31T20:50:02.718Z</time>
      </trkpt>
      <trkpt lat="40.40898" lon="-2.82525">
        <ele>746.847156</ele>
        <time>2022-08-31T20:50:19.096Z</time>
      </trkpt>
      <trkpt lat="40.40836" lon="-2.82542">
        <ele>744.575186</ele>
        <time>2022-08-31T20:50:30.631Z</time>
      </trkpt>
      <trkpt lat="40.40769" lon="-2.82596">
        <ele>741.572451</ele>
        <time>2022-08-31T20:50:43.938Z</time>
      </trkpt>
      <trkpt lat="40.40608" lon="-2.82772">
        <ele>729.48538</ele>
        <time>2022-08-31T20:51:15.805Z</time>
      </trkpt>
      <trkpt lat="40.40518" lon="-2.82853">
        <ele>723.195673</ele>
        <time>2022-08-31T20:51:32.445Z</time>
      </trkpt>
      <trkpt lat="40.40374" lon="-2.8292">
        <ele>714.817824</ele>
        <time>2022-08-31T20:51:56.784Z</time>
      </trkpt>
      <trkpt lat="40.40302" lon="-2.82967">
        <ele>710.617094</ele>
        <time>2022-08-31T20:52:09.228Z</time>
      </trkpt>
      <trkpt lat="40.40178" lon="-2.83138">
        <ele>701.735539</ele>
        <time>2022-08-31T20:52:37.619Z</time>
      </trkpt>
      <trkpt lat="40.39958" lon="-2.83459">
        <ele>688.652676</ele>
        <time>2022-08-31T20:53:31.581Z</time>
      </trkpt>
      <trkpt lat="40.3986" lon="-2.83566">
        <ele>684.957052</ele>
        <time>2022-08-31T20:53:54.733Z</time>
      </trkpt>
      <trkpt lat="40.39784" lon="-2.83624">
        <ele>682.844844</ele>
        <time>2022-08-31T20:54:10.700Z</time>
      </trkpt>
      <trkpt lat="40.39761" lon="-2.83641">
        <ele>682.212945</ele>
        <time>2022-08-31T20:54:15.354Z</time>
      </trkpt>
      <trkpt lat="40.39601" lon="-2.83761">
        <ele>676.408068</ele>
        <time>2022-08-31T20:54:46.672Z</time>
      </trkpt>
      <trkpt lat="40.39571" lon="-2.83778">
        <ele>675.342952</ele>
        <time>2022-08-31T20:54:52.358Z</time>
      </trkpt>
      <trkpt lat="40.39299" lon="-2.83929">
        <ele>666.293407</ele>
        <time>2022-08-31T20:55:42.887Z</time>
      </trkpt>
      <trkpt lat="40.38123" lon="-2.8451">
        <ele>637.799445</ele>
        <time>2022-08-31T20:59:29.417Z</time>
      </trkpt>
      <trkpt lat="40.37955" lon="-2.84593">
        <ele>634.629898</ele>
        <time>2022-08-31T21:00:03.065Z</time>
      </trkpt>
      <trkpt lat="40.37868" lon="-2.84636">
        <ele>633.085013</ele>
        <time>2022-08-31T21:00:20.685Z</time>
      </trkpt>
      <trkpt lat="40.37726" lon="-2.84669">
        <ele>630.631927</ele>
        <time>2022-08-31T21:00:47.948Z</time>
      </trkpt>
      <trkpt lat="40.37644" lon="-2.84695">
        <ele>629.029501</ele>
        <time>2022-08-31T21:01:03.644Z</time>
      </trkpt>
      <trkpt lat="40.37579" lon="-2.84753">
        <ele>627.463692</ele>
        <time>2022-08-31T21:01:18.032Z</time>
      </trkpt>
      <trkpt lat="40.37507" lon="-2.8484">
        <ele>624.988234</ele>
        <time>2022-08-31T21:01:35.024Z</time>
      </trkpt>
      <trkpt lat="40.37466" lon="-2.84934">
        <ele>622.970728</ele>
        <time>2022-08-31T21:01:49.524Z</time>
      </trkpt>
      <trkpt lat="40.37441" lon="-2.84758">
        <ele>620.910688</ele>
        <time>2022-08-31T21:02:14.667Z</time>
      </trkpt>
      <trkpt lat="40.37442" lon="-2.84729">
        <ele>620.569905</ele>
        <time>2022-08-31T21:02:19.519Z</time>
      </trkpt>
      <trkpt lat="40.37458" lon="-2.84675">
        <ele>620.854553</ele>
        <time>2022-08-31T21:02:29.744Z</time>
      </trkpt>
      <trkpt lat="40.37457" lon="-2.84656">
        <ele>621.063843</ele>
        <time>2022-08-31T21:02:33.229Z</time>
      </trkpt>
      <trkpt lat="40.3737" lon="-2.84207">
        <ele>628.0002</ele>
        <time>2022-08-31T21:04:29.530Z</time>
      </trkpt>
      <trkpt lat="40.37378" lon="-2.84143">
        <ele>629.342804</ele>
        <time>2022-08-31T21:04:47.463Z</time>
      </trkpt>
      <trkpt lat="40.37377" lon="-2.8413">
        <ele>629.626612</ele>
        <time>2022-08-31T21:04:51.879Z</time>
      </trkpt>
      <trkpt lat="40.37364" lon="-2.84112">
        <ele>630.148299</ele>
        <time>2022-08-31T21:04:58.292Z</time>
      </trkpt>
      <trkpt lat="40.3735" lon="-2.8411">
        <ele>630.535319</ele>
        <time>2022-08-31T21:05:03.930Z</time>
      </trkpt>
      <trkpt lat="40.37308" lon="-2.84126">
        <ele>631.730953</ele>
        <time>2022-08-31T21:05:20.039Z</time>
      </trkpt>
      <trkpt lat="40.37289" lon="-2.84121">
        <ele>632.190032</ele>
        <time>2022-08-31T21:05:26.675Z</time>
      </trkpt>
      <trkpt lat="40.37256" lon="-2.84067">
        <ele>633.431852</ele>
        <time>2022-08-31T21:05:45.979Z</time>
      </trkpt>
      <trkpt lat="40.37171" lon="-2.84019">
        <ele>635.591954</ele>
        <time>2022-08-31T21:06:14.675Z</time>
      </trkpt>
      <trkpt lat="40.37151" lon="-2.83987">
        <ele>636.351968</ele>
        <time>2022-08-31T21:06:25.779Z</time>
      </trkpt>
      <trkpt lat="40.3714" lon="-2.83904">
        <ele>637.984758</ele>
        <time>2022-08-31T21:06:48.877Z</time>
      </trkpt>
      <trkpt lat="40.37133" lon="-2.83882">
        <ele>638.442373</ele>
        <time>2022-08-31T21:06:55.353Z</time>
      </trkpt>
      <trkpt lat="40.37091" lon="-2.83851">
        <ele>639.66625</ele>
        <time>2022-08-31T21:07:12.287Z</time>
      </trkpt>
      <trkpt lat="40.37076" lon="-2.83826">
        <ele>640.273801</ele>
        <time>2022-08-31T21:07:20.532Z</time>
      </trkpt>
      <trkpt lat="40.37033" lon="-2.83722">
        <ele>642.644775</ele>
        <time>2022-08-31T21:07:51.858Z</time>
      </trkpt>
      <trkpt lat="40.37024" lon="-2.83684">
        <ele>643.436691</ele>
        <time>2022-08-31T21:08:02.647Z</time>
      </trkpt>
      <trkpt lat="40.37023" lon="-2.83651">
        <ele>644.100096</ele>
        <time>2022-08-31T21:08:11.698Z</time>
      </trkpt>
      <trkpt lat="40.37032" lon="-2.83625">
        <ele>644.668531</ele>
        <time>2022-08-31T21:08:19.136Z</time>
      </trkpt>
      <trkpt lat="40.37058" lon="-2.83581">
        <ele>645.801297</ele>
        <time>2022-08-31T21:08:34.733Z</time>
      </trkpt>
      <trkpt lat="40.37129" lon="-2.83447">
        <ele>649.235122</ele>
        <time>2022-08-31T21:09:20.729Z</time>
      </trkpt>
      <trkpt lat="40.37129" lon="-2.83426">
        <ele>649.674879</ele>
        <time>2022-08-31T21:09:26.836Z</time>
      </trkpt>
      <trkpt lat="40.37114" lon="-2.83396">
        <ele>650.361784</ele>
        <time>2022-08-31T21:09:36.252Z</time>
      </trkpt>
      <trkpt lat="40.37033" lon="-2.83288">
        <ele>652.016168</ele>
        <time>2022-08-31T21:10:12.802Z</time>
      </trkpt>
      <trkpt lat="40.36915" lon="-2.83232">
        <ele>652.094703</ele>
        <time>2022-08-31T21:10:42.277Z</time>
      </trkpt>
      <trkpt lat="40.36862" lon="-2.83141">
        <ele>651.038906</ele>
        <time>2022-08-31T21:10:59.160Z</time>
      </trkpt>
      <trkpt lat="40.36825" lon="-2.83101">
        <ele>649.729391</ele>
        <time>2022-08-31T21:11:07.547Z</time>
      </trkpt>
      <trkpt lat="40.36708" lon="-2.83048">
        <ele>643.803217</ele>
        <time>2022-08-31T21:11:27.137Z</time>
      </trkpt>
      <trkpt lat="40.36678" lon="-2.82985">
        <ele>640.89771</ele>
        <time>2022-08-31T21:11:35.749Z</time>
      </trkpt>
      <trkpt lat="40.36645" lon="-2.82824">
        <ele>633.745267</ele>
        <time>2022-08-31T21:11:55.134Z</time>
      </trkpt>
      <trkpt lat="40.36622" lon="-2.82765">
        <ele>631.274272</ele>
        <time>2022-08-31T21:12:03.389Z</time>
      </trkpt>
      <trkpt lat="40.36594" lon="-2.8266">
        <ele>628.327638</ele>
        <time>2022-08-31T21:12:17.820Z</time>
      </trkpt>
      <trkpt lat="40.36582" lon="-2.82628">
        <ele>627.375127</ele>
        <time>2022-08-31T21:12:22.514Z</time>
      </trkpt>
      <trkpt lat="40.36573" lon="-2.82615">
        <ele>626.915962</ele>
        <time>2022-08-31T21:12:24.864Z</time>
      </trkpt>
      <trkpt lat="40.36532" lon="-2.82587">
        <ele>625.394212</ele>
        <time>2022-08-31T21:12:32.795Z</time>
      </trkpt>
      <trkpt lat="40.36473" lon="-2.82531">
        <ele>623.369793</ele>
        <time>2022-08-31T21:12:45.336Z</time>
      </trkpt>
      <trkpt lat="40.36412" lon="-2.82463">
        <ele>621.154544</ele>
        <time>2022-08-31T21:12:58.915Z</time>
      </trkpt>
      <trkpt lat="40.36379" lon="-2.82416">
        <ele>620.801624</ele>
        <time>2022-08-31T21:13:08.432Z</time>
      </trkpt>
      <trkpt lat="40.36349" lon="-2.82351">
        <ele>621.0183</ele>
        <time>2022-08-31T21:13:22.325Z</time>
      </trkpt>
      <trkpt lat="40.36339" lon="-2.82338">
        <ele>621.068296</ele>
        <time>2022-08-31T21:13:25.833Z</time>
      </trkpt>
      <trkpt lat="40.36329" lon="-2.82332">
        <ele>621.110019</ele>
        <time>2022-08-31T21:13:29.231Z</time>
      </trkpt>
      <trkpt lat="40.36315" lon="-2.82333">
        <ele>621.159575</ele>
        <time>2022-08-31T21:13:32.170Z</time>
      </trkpt>
      <trkpt lat="40.36266" lon="-2.82339">
        <ele>621.341727</ele>
        <time>2022-08-31T21:13:47.157Z</time>
      </trkpt>
      <trkpt lat="40.36253" lon="-2.82349">
        <ele>621.63227</ele>
        <time>2022-08-31T21:13:53.009Z</time>
      </trkpt>
      <trkpt lat="40.36283" lon="-2.82406">
        <ele>622.764167</ele>
        <time>2022-08-31T21:14:10.052Z</time>
      </trkpt>
      <trkpt lat="40.36276" lon="-2.82507">
        <ele>624.399217</ele>
        <time>2022-08-31T21:14:37.323Z</time>
      </trkpt>
      <trkpt lat="40.36289" lon="-2.82591">
        <ele>625.769795</ele>
        <time>2022-08-31T21:14:56.555Z</time>
      </trkpt>
      <trkpt lat="40.36278" lon="-2.82688">
        <ele>627.320824</ele>
        <time>2022-08-31T21:15:21.162Z</time>
      </trkpt>
      <trkpt lat="40.36241" lon="-2.82827">
        <ele>629.334732</ele>
        <time>2022-08-31T21:15:58.937Z</time>
      </trkpt>
      <trkpt lat="40.36253" lon="-2.82864">
        <ele>629.691679</ele>
        <time>2022-08-31T21:16:08.223Z</time>
      </trkpt>
      <trkpt lat="40.36274" lon="-2.82929">
        <ele>630.331422</ele>
        <time>2022-08-31T21:16:23.104Z</time>
      </trkpt>
      <trkpt lat="40.36265" lon="-2.82978">
        <ele>630.783151</ele>
        <time>2022-08-31T21:16:32.519Z</time>
      </trkpt>
      <trkpt lat="40.36239" lon="-2.83066">
        <ele>631.243551</ele>
        <time>2022-08-31T21:16:49.412Z</time>
      </trkpt>
      <trkpt lat="40.36208" lon="-2.83167">
        <ele>631.578199</ele>
        <time>2022-08-31T21:17:08.718Z</time>
      </trkpt>
      <trkpt lat="40.36184" lon="-2.83278">
        <ele>632.382228</ele>
        <time>2022-08-31T21:17:30.670Z</time>
      </trkpt>
      <trkpt lat="40.36108" lon="-2.83657">
        <ele>637.684101</ele>
        <time>2022-08-31T21:19:04.667Z</time>
      </trkpt>
      <trkpt lat="40.36059" lon="-2.83798">
        <ele>640.944396</ele>
        <time>2022-08-31T21:19:47.348Z</time>
      </trkpt>
      <trkpt lat="40.36027" lon="-2.83864">
        <ele>642.696643</ele>
        <time>2022-08-31T21:20:10.252Z</time>
      </trkpt>
      <trkpt lat="40.35957" lon="-2.83943">
        <ele>645.767968</ele>
        <time>2022-08-31T21:20:46.002Z</time>
      </trkpt>
      <trkpt lat="40.35944" lon="-2.83979">
        <ele>646.816682</ele>
        <time>2022-08-31T21:20:57.882Z</time>
      </trkpt>
      <trkpt lat="40.35941" lon="-2.84017">
        <ele>647.836123</ele>
        <time>2022-08-31T21:21:09.848Z</time>
      </trkpt>
      <trkpt lat="40.35965" lon="-2.84101">
        <ele>649.960564</ele>
        <time>2022-08-31T21:21:37.729Z</time>
      </trkpt>
      <trkpt lat="40.35965" lon="-2.84151">
        <ele>650.784437</ele>
        <time>2022-08-31T21:21:52.621Z</time>
      </trkpt>
      <trkpt lat="40.35954" lon="-2.8419">
        <ele>651.458736</ele>
        <time>2022-08-31T21:22:04.185Z</time>
      </trkpt>
      <trkpt lat="40.35935" lon="-2.84219">
        <ele>652.073457</ele>
        <time>2022-08-31T21:22:13.871Z</time>
      </trkpt>
      <trkpt lat="40.35857" lon="-2.84327">
        <ele>653.003889</ele>
        <time>2022-08-31T21:22:42.708Z</time>
      </trkpt>
      <trkpt lat="40.35728" lon="-2.84406">
        <ele>651.758777</ele>
        <time>2022-08-31T21:23:09.833Z</time>
      </trkpt>
      <trkpt lat="40.35569" lon="-2.84506">
        <ele>649.541564</ele>
        <time>2022-08-31T21:23:43.729Z</time>
      </trkpt>
      <trkpt lat="40.35471" lon="-2.8455">
        <ele>649.23039</ele>
        <time>2022-08-31T21:24:05.277Z</time>
      </trkpt>
      <trkpt lat="40.35311" lon="-2.84624">
        <ele>649.779948</ele>
        <time>2022-08-31T21:24:46.887Z</time>
      </trkpt>
      <trkpt lat="40.35197" lon="-2.84725">
        <ele>650.969518</ele>
        <time>2022-08-31T21:25:24.950Z</time>
      </trkpt>
      <trkpt lat="40.3509" lon="-2.84794">
        <ele>652.203293</ele>
        <time>2022-08-31T21:25:57.575Z</time>
      </trkpt>
      <trkpt lat="40.35042" lon="-2.84807">
        <ele>652.780958</ele>
        <time>2022-08-31T21:26:10.769Z</time>
      </trkpt>
      <trkpt lat="40.34998" lon="-2.84826">
        <ele>653.322981</ele>
        <time>2022-08-31T21:26:23.573Z</time>
      </trkpt>
      <trkpt lat="40.34948" lon="-2.84863">
        <ele>653.999119</ele>
        <time>2022-08-31T21:26:39.912Z</time>
      </trkpt>
      <trkpt lat="40.34901" lon="-2.84888">
        <ele>654.659032</ele>
        <time>2022-08-31T21:26:54.810Z</time>
      </trkpt>
      <trkpt lat="40.34798" lon="-2.84939">
        <ele>656.275615</ele>
        <time>2022-08-31T21:27:27.512Z</time>
      </trkpt>
      <trkpt lat="40.34692" lon="-2.84981">
        <ele>657.848302</ele>
        <time>2022-08-31T21:28:00.603Z</time>
      </trkpt>
      <trkpt lat="40.34589" lon="-2.85016">
        <ele>659.300242</ele>
        <time>2022-08-31T21:28:31.568Z</time>
      </trkpt>
      <trkpt lat="40.34533" lon="-2.85027">
        <ele>659.846517</ele>
        <time>2022-08-31T21:28:47.305Z</time>
      </trkpt>
      <trkpt lat="40.34416" lon="-2.85038">
        <ele>660.909992</ele>
        <time>2022-08-31T21:29:18.223Z</time>
      </trkpt>
      <trkpt lat="40.34312" lon="-2.85035">
        <ele>661.699328</ele>
        <time>2022-08-31T21:29:44.239Z</time>
      </trkpt>
      <trkpt lat="40.34101" lon="-2.85071">
        <ele>663.521807</ele>
        <time>2022-08-31T21:30:40.741Z</time>
      </trkpt>
      <trkpt lat="40.33968" lon="-2.8507">
        <ele>665.534724</ele>
        <time>2022-08-31T21:31:17.861Z</time>
      </trkpt>
      <trkpt lat="40.33876" lon="-2.8506">
        <ele>667.341546</ele>
        <time>2022-08-31T21:31:49.190Z</time>
      </trkpt>
      <trkpt lat="40.33707" lon="-2.85019">
        <ele>672.301628</ele>
        <time>2022-08-31T21:32:53.660Z</time>
      </trkpt>
      <trkpt lat="40.33603" lon="-2.85024">
        <ele>675.350192</ele>
        <time>2022-08-31T21:33:32.091Z</time>
      </trkpt>
      <trkpt lat="40.33455" lon="-2.85018">
        <ele>679.983886</ele>
        <time>2022-08-31T21:34:26.200Z</time>
      </trkpt>
      <trkpt lat="40.33352" lon="-2.85039">
        <ele>683.648952</ele>
        <time>2022-08-31T21:35:08.690Z</time>
      </trkpt>
      <trkpt lat="40.33268" lon="-2.85071">
        <ele>687.057218</ele>
        <time>2022-08-31T21:35:45.632Z</time>
      </trkpt>
      <trkpt lat="40.33191" lon="-2.85098">
        <ele>690.247197</ele>
        <time>2022-08-31T21:36:19.790Z</time>
      </trkpt>
      <trkpt lat="40.33167" lon="-2.85101">
        <ele>691.250558</ele>
        <time>2022-08-31T21:36:30.979Z</time>
      </trkpt>
      <trkpt lat="40.33158" lon="-2.851">
        <ele>691.593013</ele>
        <time>2022-08-31T21:36:34.568Z</time>
      </trkpt>
      <trkpt lat="40.33058" lon="-2.85097">
        <ele>694.490488</ele>
        <time>2022-08-31T21:37:15.032Z</time>
      </trkpt>
      <trkpt lat="40.32995" lon="-2.85079">
        <ele>696.328563</ele>
        <time>2022-08-31T21:37:37.369Z</time>
      </trkpt>
      <trkpt lat="40.32987" lon="-2.85085">
        <ele>696.597311</ele>
        <time>2022-08-31T21:37:40.104Z</time>
      </trkpt>
      <trkpt lat="40.32968" lon="-2.85099">
        <ele>696.942519</ele>
        <time>2022-08-31T21:37:46.045Z</time>
      </trkpt>
      <trkpt lat="40.32916" lon="-2.85141">
        <ele>697.292322</ele>
        <time>2022-08-31T21:38:00.655Z</time>
      </trkpt>
      <trkpt lat="40.32912" lon="-2.85128">
        <ele>697.353844</ele>
        <time>2022-08-31T21:38:03.695Z</time>
      </trkpt>
      <trkpt lat="40.32899" lon="-2.85118">
        <ele>697.438649</ele>
        <time>2022-08-31T21:38:06.843Z</time>
      </trkpt>
      <trkpt lat="40.32844" lon="-2.85143">
        <ele>697.769576</ele>
        <time>2022-08-31T21:38:19.565Z</time>
      </trkpt>
      <trkpt lat="40.32806" lon="-2.85136">
        <ele>698.31472</ele>
        <time>2022-08-31T21:38:29.154Z</time>
      </trkpt>
      <trkpt lat="40.32806" lon="-2.85152">
        <ele>698.640519</ele>
        <time>2022-08-31T21:38:32.369Z</time>
      </trkpt>
      <trkpt lat="40.32802" lon="-2.85157">
        <ele>698.787532</ele>
        <time>2022-08-31T21:38:33.665Z</time>
      </trkpt>
      <trkpt lat="40.32786" lon="-2.85155">
        <ele>699.213572</ele>
        <time>2022-08-31T21:38:39.267Z</time>
      </trkpt>
      <trkpt lat="40.32768" lon="-2.8513">
        <ele>699.915724</ele>
        <time>2022-08-31T21:38:47.652Z</time>
      </trkpt>
      <trkpt lat="40.32744" lon="-2.85113">
        <ele>700.652805</ele>
        <time>2022-08-31T21:38:57.109Z</time>
      </trkpt>
      <trkpt lat="40.32618" lon="-2.85079">
        <ele>705.18762</ele>
        <time>2022-08-31T21:39:53.517Z</time>
      </trkpt>
      <trkpt lat="40.32565" lon="-2.85061">
        <ele>707.828415</ele>
        <time>2022-08-31T21:40:20.336Z</time>
      </trkpt>
      <trkpt lat="40.32526" lon="-2.85045">
        <ele>709.804346</ele>
        <time>2022-08-31T21:40:40.257Z</time>
      </trkpt>
      <trkpt lat="40.32519" lon="-2.85042">
        <ele>710.195501</ele>
        <time>2022-08-31T21:40:44.280Z</time>
      </trkpt>
      <trkpt lat="40.32279" lon="-2.8494">
        <ele>720.93385</ele>
        <time>2022-08-31T21:42:35.746Z</time>
      </trkpt>
      <trkpt lat="40.32043" lon="-2.84854">
        <ele>728.475531</ele>
        <time>2022-08-31T21:44:06.382Z</time>
      </trkpt>
      <trkpt lat="40.31784" lon="-2.84787">
        <ele>735.486816</ele>
        <time>2022-08-31T21:45:37.096Z</time>
      </trkpt>
      <trkpt lat="40.31727" lon="-2.84777">
        <ele>737.733946</ele>
        <time>2022-08-31T21:45:59.302Z</time>
      </trkpt>
      <trkpt lat="40.31496" lon="-2.84774">
        <ele>748.135901</ele>
        <time>2022-08-31T21:47:43.588Z</time>
      </trkpt>
      <trkpt lat="40.31416" lon="-2.84759">
        <ele>752.342484</ele>
        <time>2022-08-31T21:48:25.761Z</time>
      </trkpt>
      <trkpt lat="40.31358" lon="-2.84706">
        <ele>756.238665</ele>
        <time>2022-08-31T21:49:03.085Z</time>
      </trkpt>
      <trkpt lat="40.31338" lon="-2.8468">
        <ele>757.787933</ele>
        <time>2022-08-31T21:49:17.805Z</time>
      </trkpt>
      <trkpt lat="40.31162" lon="-2.8454">
        <ele>767.339411</ele>
        <time>2022-08-31T21:50:55.019Z</time>
      </trkpt>
      <trkpt lat="40.31096" lon="-2.84475">
        <ele>769.28205</ele>
        <time>2022-08-31T21:51:25.081Z</time>
      </trkpt>
      <trkpt lat="40.31059" lon="-2.84443">
        <ele>769.841313</ele>
        <time>2022-08-31T21:51:38.203Z</time>
      </trkpt>
      <trkpt lat="40.31025" lon="-2.84432">
        <ele>770.273779</ele>
        <time>2022-08-31T21:51:47.489Z</time>
      </trkpt>
      <trkpt lat="40.30999" lon="-2.84432">
        <ele>770.604075</ele>
        <time>2022-08-31T21:51:54.029Z</time>
      </trkpt>
      <trkpt lat="40.30981" lon="-2.8444">
        <ele>770.84585</ele>
        <time>2022-08-31T21:51:58.157Z</time>
      </trkpt>
      <trkpt lat="40.30954" lon="-2.8443">
        <ele>770.832696</ele>
        <time>2022-08-31T21:52:04.149Z</time>
      </trkpt>
      <trkpt lat="40.3091" lon="-2.84371">
        <ele>770.744148</ele>
        <time>2022-08-31T21:52:17.119Z</time>
      </trkpt>
      <trkpt lat="40.30877" lon="-2.84331">
        <ele>770.681656</ele>
        <time>2022-08-31T21:52:26.557Z</time>
      </trkpt>
      <trkpt lat="40.30851" lon="-2.84286">
        <ele>770.621053</ele>
        <time>2022-08-31T21:52:39.435Z</time>
      </trkpt>
      <trkpt lat="40.30841" lon="-2.84277">
        <ele>770.746286</ele>
        <time>2022-08-31T21:52:43.703Z</time>
      </trkpt>
      <trkpt lat="40.30773" lon="-2.84201">
        <ele>772.020382</ele>
        <time>2022-08-31T21:53:10.637Z</time>
      </trkpt>
      <trkpt lat="40.30778" lon="-2.84176">
        <ele>772.294304</ele>
        <time>2022-08-31T21:53:17.787Z</time>
      </trkpt>
      <trkpt lat="40.30729" lon="-2.84149">
        <ele>773.056816</ele>
        <time>2022-08-31T21:53:33.305Z</time>
      </trkpt>
      <trkpt lat="40.30678" lon="-2.84112">
        <ele>773.168769</ele>
        <time>2022-08-31T21:53:51.428Z</time>
      </trkpt>
      <trkpt lat="40.30553" lon="-2.83937">
        <ele>772.50054</ele>
        <time>2022-08-31T21:54:30.905Z</time>
      </trkpt>
      <trkpt lat="40.30545" lon="-2.83947">
        <ele>772.360696</ele>
        <time>2022-08-31T21:54:33.004Z</time>
      </trkpt>
      <trkpt lat="40.30498" lon="-2.83887">
        <ele>771.554984</ele>
        <time>2022-08-31T21:54:46.070Z</time>
      </trkpt>
      <trkpt lat="40.30447" lon="-2.83847">
        <ele>770.827077</ele>
        <time>2022-08-31T21:54:57.887Z</time>
      </trkpt>
      <trkpt lat="40.3039" lon="-2.8381">
        <ele>770.144033</ele>
        <time>2022-08-31T21:55:10.473Z</time>
      </trkpt>
      <trkpt lat="40.30314" lon="-2.83743">
        <ele>769.155586</ele>
        <time>2022-08-31T21:55:29.557Z</time>
      </trkpt>
      <trkpt lat="40.30256" lon="-2.83729">
        <ele>769.012509</ele>
        <time>2022-08-31T21:55:42.831Z</time>
      </trkpt>
      <trkpt lat="40.30177" lon="-2.83705">
        <ele>769.055599</ele>
        <time>2022-08-31T21:56:02.979Z</time>
      </trkpt>
      <trkpt lat="40.30099" lon="-2.8369">
        <ele>768.964092</ele>
        <time>2022-08-31T21:56:22.501Z</time>
      </trkpt>
      <trkpt lat="40.30038" lon="-2.83705">
        <ele>768.651163</ele>
        <time>2022-08-31T21:56:36.555Z</time>
      </trkpt>
      <trkpt lat="40.29986" lon="-2.83725">
        <ele>768.375694</ele>
        <time>2022-08-31T21:56:47.820Z</time>
      </trkpt>
      <trkpt lat="40.29921" lon="-2.83711">
        <ele>768.043321</ele>
        <time>2022-08-31T21:57:00.836Z</time>
      </trkpt>
      <trkpt lat="40.29883" lon="-2.83695">
        <ele>767.84129</ele>
        <time>2022-08-31T21:57:09.055Z</time>
      </trkpt>
      <trkpt lat="40.29836" lon="-2.83668">
        <ele>767.578124</ele>
        <time>2022-08-31T21:57:19.813Z</time>
      </trkpt>
      <trkpt lat="40.29786" lon="-2.83641">
        <ele>767.302655</ele>
        <time>2022-08-31T21:57:31.456Z</time>
      </trkpt>
      <trkpt lat="40.29753" lon="-2.8363">
        <ele>767.217744</ele>
        <time>2022-08-31T21:57:38.879Z</time>
      </trkpt>
      <trkpt lat="40.29613" lon="-2.83642">
        <ele>766.983526</ele>
        <time>2022-08-31T21:58:09.866Z</time>
      </trkpt>
      <trkpt lat="40.29563" lon="-2.83646">
        <ele>766.931859</ele>
        <time>2022-08-31T21:58:20.147Z</time>
      </trkpt>
      <trkpt lat="40.29481" lon="-2.83647">
        <ele>766.865868</ele>
        <time>2022-08-31T21:58:37.917Z</time>
      </trkpt>
      <trkpt lat="40.29422" lon="-2.83624">
        <ele>766.81924</ele>
        <time>2022-08-31T21:58:51.907Z</time>
      </trkpt>
      <trkpt lat="40.29375" lon="-2.83614">
        <ele>767.085078</ele>
        <time>2022-08-31T21:59:04.741Z</time>
      </trkpt>
      <trkpt lat="40.29198" lon="-2.83644">
        <ele>768.065573</ele>
        <time>2022-08-31T21:59:49.410Z</time>
      </trkpt>
      <trkpt lat="40.2917" lon="-2.83651">
        <ele>768.211057</ele>
        <time>2022-08-31T21:59:56.437Z</time>
      </trkpt>
      <trkpt lat="40.29135" lon="-2.83669">
        <ele>768.403226</ele>
        <time>2022-08-31T22:00:05.678Z</time>
      </trkpt>
      <trkpt lat="40.28995" lon="-2.83759">
        <ele>769.578863</ele>
        <time>2022-08-31T22:00:44.328Z</time>
      </trkpt>
      <trkpt lat="40.28954" lon="-2.83773">
        <ele>769.977078</ele>
        <time>2022-08-31T22:00:55.807Z</time>
      </trkpt>
      <trkpt lat="40.28926" lon="-2.83774">
        <ele>770.244389</ele>
        <time>2022-08-31T22:01:03.848Z</time>
      </trkpt>
      <trkpt lat="40.28583" lon="-2.83768">
        <ele>776.377271</ele>
        <time>2022-08-31T22:02:53.935Z</time>
      </trkpt>
      <trkpt lat="40.28541" lon="-2.83752">
        <ele>777.097754</ele>
        <time>2022-08-31T22:03:06.414Z</time>
      </trkpt>
      <trkpt lat="40.28439" lon="-2.83658">
        <ele>778.220092</ele>
        <time>2022-08-31T22:03:38.971Z</time>
      </trkpt>
      <trkpt lat="40.28404" lon="-2.83638">
        <ele>778.558876</ele>
        <time>2022-08-31T22:03:48.369Z</time>
      </trkpt>
      <trkpt lat="40.28209" lon="-2.83591">
        <ele>781.293973</ele>
        <time>2022-08-31T22:04:44.604Z</time>
      </trkpt>
      <trkpt lat="40.28147" lon="-2.83594">
        <ele>783.185398</ele>
        <time>2022-08-31T22:05:06.578Z</time>
      </trkpt>
      <trkpt lat="40.27795" lon="-2.83668">
        <ele>794.721025</ele>
        <time>2022-08-31T22:07:31.246Z</time>
      </trkpt>
      <trkpt lat="40.27764" lon="-2.83667">
        <ele>795.456223</ele>
        <time>2022-08-31T22:07:41.846Z</time>
      </trkpt>
      <trkpt lat="40.27499" lon="-2.83591">
        <ele>800.098933</ele>
        <time>2022-08-31T22:09:00.688Z</time>
      </trkpt>
      <trkpt lat="40.27235" lon="-2.83515">
        <ele>805.407428</ele>
        <time>2022-08-31T22:10:24.078Z</time>
      </trkpt>
      <trkpt lat="40.27175" lon="-2.83514">
        <ele>806.877151</ele>
        <time>2022-08-31T22:10:45.683Z</time>
      </trkpt>
      <trkpt lat="40.26642" lon="-2.83727">
        <ele>829.686278</ele>
        <time>2022-08-31T22:14:47.644Z</time>
      </trkpt>
      <trkpt lat="40.26613" lon="-2.83746">
        <ele>830.651941</ele>
        <time>2022-08-31T22:15:00.887Z</time>
      </trkpt>
      <trkpt lat="40.26506" lon="-2.8384">
        <ele>834.349537</ele>
        <time>2022-08-31T22:15:47.670Z</time>
      </trkpt>
      <trkpt lat="40.2647" lon="-2.83861">
        <ele>835.236055</ele>
        <time>2022-08-31T22:16:00.167Z</time>
      </trkpt>
      <trkpt lat="40.26446" lon="-2.83865">
        <ele>835.608065</ele>
        <time>2022-08-31T22:16:07.746Z</time>
      </trkpt>
      <trkpt lat="40.2633" lon="-2.83861">
        <ele>837.387935</ele>
        <time>2022-08-31T22:16:41.593Z</time>
      </trkpt>
      <trkpt lat="40.26298" lon="-2.83865">
        <ele>837.854503</ele>
        <time>2022-08-31T22:16:50.675Z</time>
      </trkpt>
      <trkpt lat="40.26215" lon="-2.83877">
        <ele>838.912543</ele>
        <time>2022-08-31T22:17:13.812Z</time>
      </trkpt>
      <trkpt lat="40.26118" lon="-2.83871">
        <ele>840.226053</ele>
        <time>2022-08-31T22:17:41.081Z</time>
      </trkpt>
      <trkpt lat="40.26074" lon="-2.83889">
        <ele>841.171426</ele>
        <time>2022-08-31T22:17:56.098Z</time>
      </trkpt>
      <trkpt lat="40.25991" lon="-2.8394">
        <ele>843.070203</ele>
        <time>2022-08-31T22:18:27.103Z</time>
      </trkpt>
      <trkpt lat="40.25947" lon="-2.83949">
        <ele>843.974827</ele>
        <time>2022-08-31T22:18:42.578Z</time>
      </trkpt>
      <trkpt lat="40.25752" lon="-2.83979">
        <ele>847.732038</ele>
        <time>2022-08-31T22:19:45.414Z</time>
      </trkpt>
      <trkpt lat="40.25593" lon="-2.83961">
        <ele>849.930615</ele>
        <time>2022-08-31T22:20:30.323Z</time>
      </trkpt>
      <trkpt lat="40.25519" lon="-2.83962">
        <ele>851.225537</ele>
        <time>2022-08-31T22:20:51.104Z</time>
      </trkpt>
      <trkpt lat="40.25465" lon="-2.83991">
        <ele>852.240678</ele>
        <time>2022-08-31T22:21:08.308Z</time>
      </trkpt>
      <trkpt lat="40.25168" lon="-2.84248">
        <ele>864.067157</ele>
        <time>2022-08-31T22:23:26.231Z</time>
      </trkpt>
      <trkpt lat="40.25076" lon="-2.84301">
        <ele>869.009122</ele>
        <time>2022-08-31T22:24:15.463Z</time>
      </trkpt>
      <trkpt lat="40.24903" lon="-2.84356">
        <ele>878.198165</ele>
        <time>2022-08-31T22:25:48.336Z</time>
      </trkpt>
      <trkpt lat="40.24711" lon="-2.84407">
        <ele>885.942888</ele>
        <time>2022-08-31T22:27:03.583Z</time>
      </trkpt>
      <trkpt lat="40.24124" lon="-2.84469">
        <ele>907.712848</ele>
        <time>2022-08-31T22:31:02.081Z</time>
      </trkpt>
      <trkpt lat="40.24066" lon="-2.84485">
        <ele>910.135278</ele>
        <time>2022-08-31T22:31:29.631Z</time>
      </trkpt>
      <trkpt lat="40.24055" lon="-2.84516">
        <ele>911.307918</ele>
        <time>2022-08-31T22:31:42.580Z</time>
      </trkpt>
      <trkpt lat="40.24047" lon="-2.84592">
        <ele>913.96457</ele>
        <time>2022-08-31T22:32:11.366Z</time>
      </trkpt>
      <trkpt lat="40.24036" lon="-2.84603">
        <ele>914.565906</ele>
        <time>2022-08-31T22:32:18.009Z</time>
      </trkpt>
      <trkpt lat="40.24013" lon="-2.84612">
        <ele>915.658027</ele>
        <time>2022-08-31T22:32:29.578Z</time>
      </trkpt>
      <trkpt lat="40.24007" lon="-2.84621">
        <ele>916.07793</ele>
        <time>2022-08-31T22:32:34.001Z</time>
      </trkpt>
      <trkpt lat="40.24003" lon="-2.84649">
        <ele>917.056097</ele>
        <time>2022-08-31T22:32:43.506Z</time>
      </trkpt>
      <trkpt lat="40.23984" lon="-2.84696">
        <ele>918.353568</ele>
        <time>2022-08-31T22:32:59.405Z</time>
      </trkpt>
      <trkpt lat="40.23945" lon="-2.84753">
        <ele>919.150638</ele>
        <time>2022-08-31T22:33:19.042Z</time>
      </trkpt>
      <trkpt lat="40.23931" lon="-2.84782">
        <ele>919.515297</ele>
        <time>2022-08-31T22:33:26.940Z</time>
      </trkpt>
      <trkpt lat="40.23918" lon="-2.84828">
        <ele>920.02182</ele>
        <time>2022-08-31T22:33:37.262Z</time>
      </trkpt>
      <trkpt lat="40.23893" lon="-2.84889">
        <ele>920.563378</ele>
        <time>2022-08-31T22:33:49.269Z</time>
      </trkpt>
      <trkpt lat="40.23878" lon="-2.84911">
        <ele>920.508926</ele>
        <time>2022-08-31T22:33:54.085Z</time>
      </trkpt>
      <trkpt lat="40.23878" lon="-2.84924">
        <ele>920.486267</ele>
        <time>2022-08-31T22:33:55.968Z</time>
      </trkpt>
      <trkpt lat="40.23901" lon="-2.84993">
        <ele>920.347451</ele>
        <time>2022-08-31T22:34:07.440Z</time>
      </trkpt>
      <trkpt lat="40.23747" lon="-2.85091">
        <ele>921.462274</ele>
        <time>2022-08-31T22:34:52.979Z</time>
      </trkpt>
      <trkpt lat="40.23733" lon="-2.85115">
        <ele>921.78979</ele>
        <time>2022-08-31T22:35:01.233Z</time>
      </trkpt>
      <trkpt lat="40.23683" lon="-2.85158">
        <ele>922.621083</ele>
        <time>2022-08-31T22:35:21.251Z</time>
      </trkpt>
      <trkpt lat="40.23654" lon="-2.85174">
        <ele>922.866197</ele>
        <time>2022-08-31T22:35:32.221Z</time>
      </trkpt>
      <trkpt lat="40.23616" lon="-2.85175">
        <ele>923.115752</ele>
        <time>2022-08-31T22:35:45.024Z</time>
      </trkpt>
      <trkpt lat="40.23609" lon="-2.85185">
        <ele>923.182606</ele>
        <time>2022-08-31T22:35:48.438Z</time>
      </trkpt>
      <trkpt lat="40.23606" lon="-2.85208">
        <ele>923.299055</ele>
        <time>2022-08-31T22:35:53.928Z</time>
      </trkpt>
      <trkpt lat="40.23598" lon="-2.85228">
        <ele>923.413389</ele>
        <time>2022-08-31T22:35:58.361Z</time>
      </trkpt>
      <trkpt lat="40.23559" lon="-2.85283">
        <ele>923.785385</ele>
        <time>2022-08-31T22:36:11.109Z</time>
      </trkpt>
      <trkpt lat="40.23537" lon="-2.8534">
        <ele>922.422623</ele>
        <time>2022-08-31T22:36:20.524Z</time>
      </trkpt>
      <trkpt lat="40.23524" lon="-2.85337">
        <ele>921.921629</ele>
        <time>2022-08-31T22:36:22.812Z</time>
      </trkpt>
      <trkpt lat="40.23486" lon="-2.85312">
        <ele>920.259563</ele>
        <time>2022-08-31T22:36:30.384Z</time>
      </trkpt>
      <trkpt lat="40.23469" lon="-2.85291">
        <ele>919.328526</ele>
        <time>2022-08-31T22:36:34.494Z</time>
      </trkpt>
      <trkpt lat="40.23441" lon="-2.85284">
        <ele>918.21814</ele>
        <time>2022-08-31T22:36:39.165Z</time>
      </trkpt>
      <trkpt lat="40.23387" lon="-2.8528">
        <ele>915.610658</ele>
        <time>2022-08-31T22:36:47.797Z</time>
      </trkpt>
      <trkpt lat="40.23362" lon="-2.85287">
        <ele>913.988216</ele>
        <time>2022-08-31T22:36:51.716Z</time>
      </trkpt>
      <trkpt lat="40.23258" lon="-2.85275">
        <ele>907.106107</ele>
        <time>2022-08-31T22:37:08.320Z</time>
      </trkpt>
      <trkpt lat="40.23201" lon="-2.8526">
        <ele>903.444975</ele>
        <time>2022-08-31T22:37:17.652Z</time>
      </trkpt>
      <trkpt lat="40.23183" lon="-2.85235">
        <ele>901.919808</ele>
        <time>2022-08-31T22:37:21.751Z</time>
      </trkpt>
      <trkpt lat="40.23159" lon="-2.85216">
        <ele>900.26134</ele>
        <time>2022-08-31T22:37:26.251Z</time>
      </trkpt>
      <trkpt lat="40.23136" lon="-2.85204">
        <ele>898.856681</ele>
        <time>2022-08-31T22:37:30.096Z</time>
      </trkpt>
      <trkpt lat="40.23092" lon="-2.85192">
        <ele>896.188993</ele>
        <time>2022-08-31T22:37:37.560Z</time>
      </trkpt>
      <trkpt lat="40.23051" lon="-2.85186">
        <ele>894.129509</ele>
        <time>2022-08-31T22:37:44.409Z</time>
      </trkpt>
      <trkpt lat="40.22921" lon="-2.85192">
        <ele>890.365132</ele>
        <time>2022-08-31T22:38:07.453Z</time>
      </trkpt>
      <trkpt lat="40.22896" lon="-2.85187">
        <ele>889.658443</ele>
        <time>2022-08-31T22:38:12.315Z</time>
      </trkpt>
      <trkpt lat="40.22838" lon="-2.85147">
        <ele>891.194049</ele>
        <time>2022-08-31T22:38:28.963Z</time>
      </trkpt>
      <trkpt lat="40.2282" lon="-2.85146">
        <ele>891.849262</ele>
        <time>2022-08-31T22:38:35.272Z</time>
      </trkpt>
      <trkpt lat="40.22762" lon="-2.85172">
        <ele>894.080699</ele>
        <time>2022-08-31T22:39:03.759Z</time>
      </trkpt>
      <trkpt lat="40.22744" lon="-2.85172">
        <ele>894.734408</ele>
        <time>2022-08-31T22:39:13.703Z</time>
      </trkpt>
      <trkpt lat="40.22722" lon="-2.85164">
        <ele>895.564222</ele>
        <time>2022-08-31T22:39:26.642Z</time>
      </trkpt>
      <trkpt lat="40.22595" lon="-2.85055">
        <ele>906.89096</ele>
        <time>2022-08-31T22:41:02.476Z</time>
      </trkpt>
      <trkpt lat="40.22522" lon="-2.85046">
        <ele>911.370899</ele>
        <time>2022-08-31T22:41:48.180Z</time>
      </trkpt>
      <trkpt lat="40.22451" lon="-2.85012">
        <ele>914.903427</ele>
        <time>2022-08-31T22:42:25.754Z</time>
      </trkpt>
      <trkpt lat="40.22433" lon="-2.85016">
        <ele>915.766395</ele>
        <time>2022-08-31T22:42:33.818Z</time>
      </trkpt>
      <trkpt lat="40.22419" lon="-2.85039">
        <ele>916.825508</ele>
        <time>2022-08-31T22:42:42.430Z</time>
      </trkpt>
      <trkpt lat="40.22407" lon="-2.85096">
        <ele>917.662367</ele>
        <time>2022-08-31T22:42:55.999Z</time>
      </trkpt>
      <trkpt lat="40.22399" lon="-2.85161">
        <ele>916.700517</ele>
        <time>2022-08-31T22:43:06.892Z</time>
      </trkpt>
      <trkpt lat="40.22383" lon="-2.85201">
        <ele>916.060619</ele>
        <time>2022-08-31T22:43:13.412Z</time>
      </trkpt>
      <trkpt lat="40.22371" lon="-2.85218">
        <ele>915.715315</ele>
        <time>2022-08-31T22:43:16.711Z</time>
      </trkpt>
      <trkpt lat="40.22182" lon="-2.85398">
        <ele>907.263358</ele>
        <time>2022-08-31T22:43:56.259Z</time>
      </trkpt>
      <trkpt lat="40.22157" lon="-2.85411">
        <ele>906.904037</ele>
        <time>2022-08-31T22:44:01.285Z</time>
      </trkpt>
      <trkpt lat="40.22115" lon="-2.8541">
        <ele>906.56504</ele>
        <time>2022-08-31T22:44:09.300Z</time>
      </trkpt>
      <trkpt lat="40.22091" lon="-2.85398">
        <ele>906.357973</ele>
        <time>2022-08-31T22:44:14.512Z</time>
      </trkpt>
      <trkpt lat="40.22028" lon="-2.85335">
        <ele>905.709336</ele>
        <time>2022-08-31T22:44:34.647Z</time>
      </trkpt>
      <trkpt lat="40.21982" lon="-2.85309">
        <ele>906.439878</ele>
        <time>2022-08-31T22:44:50.284Z</time>
      </trkpt>
      <trkpt lat="40.21841" lon="-2.85267">
        <ele>909.374769</ele>
        <time>2022-08-31T22:45:40.752Z</time>
      </trkpt>
      <trkpt lat="40.21816" lon="-2.85248">
        <ele>909.858186</ele>
        <time>2022-08-31T22:45:51.178Z</time>
      </trkpt>
      <trkpt lat="40.21784" lon="-2.85203">
        <ele>910.635974</ele>
        <time>2022-08-31T22:46:06.672Z</time>
      </trkpt>
      <trkpt lat="40.21764" lon="-2.85194">
        <ele>910.98835</ele>
        <time>2022-08-31T22:46:13.629Z</time>
      </trkpt>
      <trkpt lat="40.21749" lon="-2.85196">
        <ele>911.233359</ele>
        <time>2022-08-31T22:46:18.136Z</time>
      </trkpt>
      <trkpt lat="40.21736" lon="-2.85207">
        <ele>911.489842</ele>
        <time>2022-08-31T22:46:22.950Z</time>
      </trkpt>
      <trkpt lat="40.21698" lon="-2.85304">
        <ele>912.366849</ele>
        <time>2022-08-31T22:46:46.030Z</time>
      </trkpt>
      <trkpt lat="40.21668" lon="-2.85343">
        <ele>912.474822</ele>
        <time>2022-08-31T22:46:56.290Z</time>
      </trkpt>
      <trkpt lat="40.21511" lon="-2.85441">
        <ele>912.20308</ele>
        <time>2022-08-31T22:47:36.111Z</time>
      </trkpt>
      <trkpt lat="40.21436" lon="-2.85467">
        <ele>911.622123</ele>
        <time>2022-08-31T22:47:52.710Z</time>
      </trkpt>
      <trkpt lat="40.21428" lon="-2.85477">
        <ele>911.538802</ele>
        <time>2022-08-31T22:47:54.991Z</time>
      </trkpt>
      <trkpt lat="40.21161" lon="-2.85926">
        <ele>902.597308</ele>
        <time>2022-08-31T22:49:17.639Z</time>
      </trkpt>
      <trkpt lat="40.21131" lon="-2.85959">
        <ele>901.750065</ele>
        <time>2022-08-31T22:49:25.034Z</time>
      </trkpt>
      <trkpt lat="40.21086" lon="-2.85988">
        <ele>900.659777</ele>
        <time>2022-08-31T22:49:34.399Z</time>
      </trkpt>
      <trkpt lat="40.20964" lon="-2.86021">
        <ele>898.577276</ele>
        <time>2022-08-31T22:49:58.325Z</time>
      </trkpt>
      <trkpt lat="40.20943" lon="-2.86032">
        <ele>898.253935</ele>
        <time>2022-08-31T22:50:02.542Z</time>
      </trkpt>
      <trkpt lat="40.20636" lon="-2.86265">
        <ele>896.316697</ele>
        <time>2022-08-31T22:51:21.011Z</time>
      </trkpt>
      <trkpt lat="40.20471" lon="-2.86407">
        <ele>896.236057</ele>
        <time>2022-08-31T22:52:07.772Z</time>
      </trkpt>
      <trkpt lat="40.20426" lon="-2.86435">
        <ele>896.259454</ele>
        <time>2022-08-31T22:52:19.473Z</time>
      </trkpt>
      <trkpt lat="40.20211" lon="-2.86487">
        <ele>895.61614</ele>
        <time>2022-08-31T22:53:09.103Z</time>
      </trkpt>
      <trkpt lat="40.20191" lon="-2.86487">
        <ele>895.387594</ele>
        <time>2022-08-31T22:53:13.450Z</time>
      </trkpt>
      <trkpt lat="40.20169" lon="-2.86481">
        <ele>895.126725</ele>
        <time>2022-08-31T22:53:18.374Z</time>
      </trkpt>
      <trkpt lat="40.20018" lon="-2.86402">
        <ele>892.454529</ele>
        <time>2022-08-31T22:53:50.371Z</time>
      </trkpt>
      <trkpt lat="40.19935" lon="-2.86536">
        <ele>889.116135</ele>
        <time>2022-08-31T22:54:13.162Z</time>
      </trkpt>
      <trkpt lat="40.19873" lon="-2.86614">
        <ele>886.771968</ele>
        <time>2022-08-31T22:54:27.971Z</time>
      </trkpt>
      <trkpt lat="40.19792" lon="-2.86692">
        <ele>884.26803</ele>
        <time>2022-08-31T22:54:45.780Z</time>
      </trkpt>
      <trkpt lat="40.19722" lon="-2.86742">
        <ele>883.157489</ele>
        <time>2022-08-31T22:55:00.820Z</time>
      </trkpt>
      <trkpt lat="40.19676" lon="-2.86768">
        <ele>882.44432</ele>
        <time>2022-08-31T22:55:10.930Z</time>
      </trkpt>
      <trkpt lat="40.19613" lon="-2.86795">
        <ele>881.943376</ele>
        <time>2022-08-31T22:55:24.438Z</time>
      </trkpt>
      <trkpt lat="40.19534" lon="-2.86818">
        <ele>881.798743</ele>
        <time>2022-08-31T22:55:42.086Z</time>
      </trkpt>
      <trkpt lat="40.19482" lon="-2.86827">
        <ele>881.706192</ele>
        <time>2022-08-31T22:55:53.734Z</time>
      </trkpt>
      <trkpt lat="40.19375" lon="-2.86829">
        <ele>882.02355</ele>
        <time>2022-08-31T22:56:18.930Z</time>
      </trkpt>
      <trkpt lat="40.19178" lon="-2.86807">
        <ele>882.545257</ele>
        <time>2022-08-31T22:57:08.032Z</time>
      </trkpt>
      <trkpt lat="40.19104" lon="-2.86809">
        <ele>882.586154</ele>
        <time>2022-08-31T22:57:24.364Z</time>
      </trkpt>
      <trkpt lat="40.1904" lon="-2.86818">
        <ele>881.795818</ele>
        <time>2022-08-31T22:57:37.440Z</time>
      </trkpt>
      <trkpt lat="40.18978" lon="-2.86836">
        <ele>881.018677</ele>
        <time>2022-08-31T22:57:49.586Z</time>
      </trkpt>
      <trkpt lat="40.18426" lon="-2.87039">
        <ele>869.179924</ele>
        <time>2022-08-31T22:59:33.593Z</time>
      </trkpt>
      <trkpt lat="40.18387" lon="-2.87069">
        <ele>868.515894</ele>
        <time>2022-08-31T22:59:42.155Z</time>
      </trkpt>
      <trkpt lat="40.18378" lon="-2.87077">
        <ele>868.374811</ele>
        <time>2022-08-31T22:59:44.244Z</time>
      </trkpt>
      <trkpt lat="40.18367" lon="-2.87076">
        <ele>868.234633</ele>
        <time>2022-08-31T22:59:46.374Z</time>
      </trkpt>
      <trkpt lat="40.18315" lon="-2.87079">
        <ele>867.56711</ele>
        <time>2022-08-31T22:59:56.540Z</time>
      </trkpt>
      <trkpt lat="40.18062" lon="-2.87174">
        <ele>865.04112</ele>
        <time>2022-08-31T23:00:49.264Z</time>
      </trkpt>
      <trkpt lat="40.18028" lon="-2.87191">
        <ele>864.934322</ele>
        <time>2022-08-31T23:00:56.825Z</time>
      </trkpt>
      <trkpt lat="40.17985" lon="-2.87231">
        <ele>864.779444</ele>
        <time>2022-08-31T23:01:08.088Z</time>
      </trkpt>
      <trkpt lat="40.17934" lon="-2.87298">
        <ele>864.565174</ele>
        <time>2022-08-31T23:01:24.195Z</time>
      </trkpt>
      <trkpt lat="40.17901" lon="-2.87321">
        <ele>864.541868</ele>
        <time>2022-08-31T23:01:32.731Z</time>
      </trkpt>
      <trkpt lat="40.17857" lon="-2.87328">
        <ele>864.536682</ele>
        <time>2022-08-31T23:01:42.774Z</time>
      </trkpt>
      <trkpt lat="40.17786" lon="-2.87312">
        <ele>864.528251</ele>
        <time>2022-08-31T23:01:58.991Z</time>
      </trkpt>
      <trkpt lat="40.17759" lon="-2.87312">
        <ele>864.52502</ele>
        <time>2022-08-31T23:02:05.114Z</time>
      </trkpt>
      <trkpt lat="40.17651" lon="-2.87338">
        <ele>863.03162</ele>
        <time>2022-08-31T23:02:27.664Z</time>
      </trkpt>
      <trkpt lat="40.17624" lon="-2.87349">
        <ele>862.61741</ele>
        <time>2022-08-31T23:02:33.053Z</time>
      </trkpt>
      <trkpt lat="40.17595" lon="-2.8738">
        <ele>862.075461</ele>
        <time>2022-08-31T23:02:39.706Z</time>
      </trkpt>
      <trkpt lat="40.17555" lon="-2.87457">
        <ele>859.83085</ele>
        <time>2022-08-31T23:02:51.608Z</time>
      </trkpt>
      <trkpt lat="40.17522" lon="-2.87481">
        <ele>858.528808</ele>
        <time>2022-08-31T23:02:57.815Z</time>
      </trkpt>
      <trkpt lat="40.17485" lon="-2.87481">
        <ele>857.258377</ele>
        <time>2022-08-31T23:03:03.843Z</time>
      </trkpt>
      <trkpt lat="40.17458" lon="-2.87465">
        <ele>856.246782</ele>
        <time>2022-08-31T23:03:08.708Z</time>
      </trkpt>
      <trkpt lat="40.17405" lon="-2.87394">
        <ele>855.110031</ele>
        <time>2022-08-31T23:03:22.252Z</time>
      </trkpt>
      <trkpt lat="40.17374" lon="-2.87371">
        <ele>854.747596</ele>
        <time>2022-08-31T23:03:29.404Z</time>
      </trkpt>
      <trkpt lat="40.17338" lon="-2.87364">
        <ele>854.371113</ele>
        <time>2022-08-31T23:03:37.468Z</time>
      </trkpt>
      <trkpt lat="40.17298" lon="-2.87379">
        <ele>853.951842</ele>
        <time>2022-08-31T23:03:47.889Z</time>
      </trkpt>
      <trkpt lat="40.17264" lon="-2.87417">
        <ele>853.68277</ele>
        <time>2022-08-31T23:03:59.861Z</time>
      </trkpt>
      <trkpt lat="40.17082" lon="-2.87718">
        <ele>850.072544</ele>
        <time>2022-08-31T23:04:58.277Z</time>
      </trkpt>
      <trkpt lat="40.17063" lon="-2.87778">
        <ele>848.19652</ele>
        <time>2022-08-31T23:05:06.315Z</time>
      </trkpt>
      <trkpt lat="40.17038" lon="-2.87933">
        <ele>840.916016</ele>
        <time>2022-08-31T23:05:24.649Z</time>
      </trkpt>
      <trkpt lat="40.17018" lon="-2.87988">
        <ele>838.2019</ele>
        <time>2022-08-31T23:05:31.537Z</time>
      </trkpt>
      <trkpt lat="40.17" lon="-2.88022">
        <ele>836.54582</ele>
        <time>2022-08-31T23:05:36.384Z</time>
      </trkpt>
      <trkpt lat="40.16955" lon="-2.88072">
        <ele>833.553414</ele>
        <time>2022-08-31T23:05:45.394Z</time>
      </trkpt>
      <trkpt lat="40.16905" lon="-2.88104">
        <ele>830.713792</ele>
        <time>2022-08-31T23:05:54.425Z</time>
      </trkpt>
      <trkpt lat="40.16859" lon="-2.88118">
        <ele>829.339399</ele>
        <time>2022-08-31T23:06:02.841Z</time>
      </trkpt>
      <trkpt lat="40.16756" lon="-2.88117">
        <ele>828.647801</ele>
        <time>2022-08-31T23:06:23.877Z</time>
      </trkpt>
      <trkpt lat="40.16726" lon="-2.88122">
        <ele>828.442343</ele>
        <time>2022-08-31T23:06:31.741Z</time>
      </trkpt>
      <trkpt lat="40.16695" lon="-2.88135">
        <ele>828.32965</ele>
        <time>2022-08-31T23:06:40.759Z</time>
      </trkpt>
      <trkpt lat="40.16659" lon="-2.88164">
        <ele>828.508643</ele>
        <time>2022-08-31T23:06:52.877Z</time>
      </trkpt>
      <trkpt lat="40.16565" lon="-2.88276">
        <ele>829.040603</ele>
        <time>2022-08-31T23:07:24.762Z</time>
      </trkpt>
      <trkpt lat="40.16534" lon="-2.88321">
        <ele>827.359233</ele>
        <time>2022-08-31T23:07:33.803Z</time>
      </trkpt>
      <trkpt lat="40.16511" lon="-2.88373">
        <ele>825.681402</ele>
        <time>2022-08-31T23:07:41.713Z</time>
      </trkpt>
      <trkpt lat="40.16473" lon="-2.88498">
        <ele>821.317389</ele>
        <time>2022-08-31T23:07:57.950Z</time>
      </trkpt>
      <trkpt lat="40.16447" lon="-2.88557">
        <ele>817.374114</ele>
        <time>2022-08-31T23:08:05.486Z</time>
      </trkpt>
      <trkpt lat="40.16397" lon="-2.88628">
        <ele>811.757241</ele>
        <time>2022-08-31T23:08:16.234Z</time>
      </trkpt>
      <trkpt lat="40.16349" lon="-2.88672">
        <ele>807.840796</ele>
        <time>2022-08-31T23:08:24.897Z</time>
      </trkpt>
      <trkpt lat="40.16271" lon="-2.88712">
        <ele>803.679139</ele>
        <time>2022-08-31T23:08:37.978Z</time>
      </trkpt>
      <trkpt lat="40.16225" lon="-2.88722">
        <ele>801.393955</ele>
        <time>2022-08-31T23:08:45.430Z</time>
      </trkpt>
      <trkpt lat="40.16047" lon="-2.88741">
        <ele>796.807281</ele>
        <time>2022-08-31T23:09:18.445Z</time>
      </trkpt>
      <trkpt lat="40.15899" lon="-2.88771">
        <ele>793.750044</ele>
        <time>2022-08-31T23:09:45.795Z</time>
      </trkpt>
      <trkpt lat="40.15445" lon="-2.88904">
        <ele>784.2854</ele>
        <time>2022-08-31T23:11:10.545Z</time>
      </trkpt>
      <trkpt lat="40.15403" lon="-2.88916">
        <ele>783.723369</ele>
        <time>2022-08-31T23:11:18.614Z</time>
      </trkpt>
      <trkpt lat="40.15398" lon="-2.88918">
        <ele>783.656004</ele>
        <time>2022-08-31T23:11:19.596Z</time>
      </trkpt>
      <trkpt lat="40.15355" lon="-2.88931">
        <ele>783.073651</ele>
        <time>2022-08-31T23:11:28.359Z</time>
      </trkpt>
      <trkpt lat="40.15268" lon="-2.88965">
        <ele>782.369286</ele>
        <time>2022-08-31T23:11:47.328Z</time>
      </trkpt>
      <trkpt lat="40.15206" lon="-2.88999">
        <ele>782.179664</ele>
        <time>2022-08-31T23:12:02.032Z</time>
      </trkpt>
      <trkpt lat="40.15132" lon="-2.89049">
        <ele>782.180507</ele>
        <time>2022-08-31T23:12:19.808Z</time>
      </trkpt>
      <trkpt lat="40.15072" lon="-2.89101">
        <ele>782.945197</ele>
        <time>2022-08-31T23:12:36.624Z</time>
      </trkpt>
      <trkpt lat="40.15021" lon="-2.89152">
        <ele>783.634872</ele>
        <time>2022-08-31T23:12:53.899Z</time>
      </trkpt>
      <trkpt lat="40.14849" lon="-2.8936">
        <ele>792.362239</ele>
        <time>2022-08-31T23:14:30.267Z</time>
      </trkpt>
      <trkpt lat="40.14784" lon="-2.89407">
        <ele>796.732799</ele>
        <time>2022-08-31T23:15:11.075Z</time>
      </trkpt>
      <trkpt lat="40.14718" lon="-2.89431">
        <ele>800.778727</ele>
        <time>2022-08-31T23:15:48.848Z</time>
      </trkpt>
      <trkpt lat="40.14625" lon="-2.89435">
        <ele>805.042333</ele>
        <time>2022-08-31T23:16:38.405Z</time>
      </trkpt>
      <trkpt lat="40.14338" lon="-2.89412">
        <ele>813.247836</ele>
        <time>2022-08-31T23:18:23.356Z</time>
      </trkpt>
      <trkpt lat="40.14256" lon="-2.89403">
        <ele>810.778317</ele>
        <time>2022-08-31T23:18:38.402Z</time>
      </trkpt>
      <trkpt lat="40.14049" lon="-2.89358">
        <ele>800.587616</ele>
        <time>2022-08-31T23:19:10.897Z</time>
      </trkpt>
      <trkpt lat="40.13997" lon="-2.89352">
        <ele>797.369045</ele>
        <time>2022-08-31T23:19:18.780Z</time>
      </trkpt>
      <trkpt lat="40.13925" lon="-2.89356">
        <ele>792.348339</ele>
        <time>2022-08-31T23:19:29.604Z</time>
      </trkpt>
      <trkpt lat="40.13803" lon="-2.89388">
        <ele>783.639151</ele>
        <time>2022-08-31T23:19:48.338Z</time>
      </trkpt>
      <trkpt lat="40.13731" lon="-2.89399">
        <ele>778.329796</ele>
        <time>2022-08-31T23:19:59.134Z</time>
      </trkpt>
      <trkpt lat="40.1367" lon="-2.89393">
        <ele>773.912464</ele>
        <time>2022-08-31T23:20:08.083Z</time>
      </trkpt>
      <trkpt lat="40.13579" lon="-2.89367">
        <ele>767.272965</ele>
        <time>2022-08-31T23:20:22.024Z</time>
      </trkpt>
      <trkpt lat="40.13516" lon="-2.89354">
        <ele>762.789533</ele>
        <time>2022-08-31T23:20:31.527Z</time>
      </trkpt>
      <trkpt lat="40.13462" lon="-2.89358">
        <ele>758.937828</ele>
        <time>2022-08-31T23:20:39.703Z</time>
      </trkpt>
      <trkpt lat="40.13421" lon="-2.89369">
        <ele>756.544379</ele>
        <time>2022-08-31T23:20:46.047Z</time>
      </trkpt>
      <trkpt lat="40.13364" lon="-2.89402">
        <ele>753.008683</ele>
        <time>2022-08-31T23:20:55.677Z</time>
      </trkpt>
      <trkpt lat="40.13338" lon="-2.89425">
        <ele>751.185384</ele>
        <time>2022-08-31T23:21:00.723Z</time>
      </trkpt>
      <trkpt lat="40.13297" lon="-2.89471">
        <ele>748.213642</ele>
        <time>2022-08-31T23:21:09.170Z</time>
      </trkpt>
      <trkpt lat="40.1322" lon="-2.8959">
        <ele>742.836391</ele>
        <time>2022-08-31T23:21:28.364Z</time>
      </trkpt>
      <trkpt lat="40.13183" lon="-2.89638">
        <ele>740.477397</ele>
        <time>2022-08-31T23:21:36.905Z</time>
      </trkpt>
      <trkpt lat="40.13147" lon="-2.89678">
        <ele>738.803184</ele>
        <time>2022-08-31T23:21:44.690Z</time>
      </trkpt>
      <trkpt lat="40.131" lon="-2.8972">
        <ele>736.771407</ele>
        <time>2022-08-31T23:21:54.241Z</time>
      </trkpt>
      <trkpt lat="40.12872" lon="-2.89926">
        <ele>727.575082</ele>
        <time>2022-08-31T23:22:41.593Z</time>
      </trkpt>
      <trkpt lat="40.12754" lon="-2.90039">
        <ele>722.829222</ele>
        <time>2022-08-31T23:23:06.397Z</time>
      </trkpt>
      <trkpt lat="40.12692" lon="-2.90111">
        <ele>720.833767</ele>
        <time>2022-08-31T23:23:20.792Z</time>
      </trkpt>
      <trkpt lat="40.12585" lon="-2.90254">
        <ele>717.885931</ele>
        <time>2022-08-31T23:23:49.195Z</time>
      </trkpt>
      <trkpt lat="40.1255" lon="-2.90295">
        <ele>717.376086</ele>
        <time>2022-08-31T23:23:58.703Z</time>
      </trkpt>
      <trkpt lat="40.12512" lon="-2.90327">
        <ele>716.896105</ele>
        <time>2022-08-31T23:24:07.560Z</time>
      </trkpt>
      <trkpt lat="40.12266" lon="-2.90447">
        <ele>716.682772</ele>
        <time>2022-08-31T23:25:02.642Z</time>
      </trkpt>
      <trkpt lat="40.12254" lon="-2.90452">
        <ele>716.99668</ele>
        <time>2022-08-31T23:25:06.808Z</time>
      </trkpt>
      <trkpt lat="40.12233" lon="-2.90465">
        <ele>717.582009</ele>
        <time>2022-08-31T23:25:14.134Z</time>
      </trkpt>
      <trkpt lat="40.12227" lon="-2.9047">
        <ele>717.769491</ele>
        <time>2022-08-31T23:25:16.958Z</time>
      </trkpt>
      <trkpt lat="40.12208" lon="-2.90443">
        <ele>718.504811</ele>
        <time>2022-08-31T23:25:28.790Z</time>
      </trkpt>
      <trkpt lat="40.1217" lon="-2.904">
        <ele>719.773686</ele>
        <time>2022-08-31T23:25:49.858Z</time>
      </trkpt>
      <trkpt lat="40.12139" lon="-2.90329">
        <ele>721.941638</ele>
        <time>2022-08-31T23:26:16.808Z</time>
      </trkpt>
      <trkpt lat="40.12123" lon="-2.903">
        <ele>723.012072</ele>
        <time>2022-08-31T23:26:29.514Z</time>
      </trkpt>
      <trkpt lat="40.12084" lon="-2.90249">
        <ele>725.187683</ele>
        <time>2022-08-31T23:26:53.410Z</time>
      </trkpt>
      <trkpt lat="40.1206" lon="-2.90206">
        <ele>726.766529</ele>
        <time>2022-08-31T23:27:09.323Z</time>
      </trkpt>
      <trkpt lat="40.12046" lon="-2.90172">
        <ele>727.910504</ele>
        <time>2022-08-31T23:27:20.389Z</time>
      </trkpt>
      <trkpt lat="40.12018" lon="-2.90059">
        <ele>731.429709</ele>
        <time>2022-08-31T23:27:53.285Z</time>
      </trkpt>
      <trkpt lat="40.11964" lon="-2.89959">
        <ele>735.611133</ele>
        <time>2022-08-31T23:28:37.157Z</time>
      </trkpt>
      <trkpt lat="40.11891" lon="-2.89825">
        <ele>743.802277</ele>
        <time>2022-08-31T23:29:46.853Z</time>
      </trkpt>
      <trkpt lat="40.11867" lon="-2.89798">
        <ele>745.843542</ele>
        <time>2022-08-31T23:30:06.032Z</time>
      </trkpt>
      <trkpt lat="40.11568" lon="-2.89605">
        <ele>770.051463</ele>
        <time>2022-08-31T23:33:22.943Z</time>
      </trkpt>
      <trkpt lat="40.11282" lon="-2.894">
        <ele>791.478395</ele>
        <time>2022-08-31T23:36:23.047Z</time>
      </trkpt>
      <trkpt lat="40.1126" lon="-2.89391">
        <ele>792.943424</ele>
        <time>2022-08-31T23:36:34.950Z</time>
      </trkpt>
      <trkpt lat="40.1123" lon="-2.89386">
        <ele>794.854307</ele>
        <time>2022-08-31T23:36:50.708Z</time>
      </trkpt>
      <trkpt lat="40.11176" lon="-2.89381">
        <ele>798.159524</ele>
        <time>2022-08-31T23:37:18.591Z</time>
      </trkpt>
      <trkpt lat="40.11137" lon="-2.89393">
        <ele>800.553881</ele>
        <time>2022-08-31T23:37:37.864Z</time>
      </trkpt>
      <trkpt lat="40.11108" lon="-2.89427">
        <ele>802.902929</ele>
        <time>2022-08-31T23:37:57.545Z</time>
      </trkpt>
      <trkpt lat="40.11076" lon="-2.89492">
        <ele>806.537272</ele>
        <time>2022-08-31T23:38:30.879Z</time>
      </trkpt>
      <trkpt lat="40.1104" lon="-2.89518">
        <ele>809.675396</ele>
        <time>2022-08-31T23:38:53.917Z</time>
      </trkpt>
      <trkpt lat="40.11002" lon="-2.89528">
        <ele>812.612624</ele>
        <time>2022-08-31T23:39:16.973Z</time>
      </trkpt>
      <trkpt lat="40.10915" lon="-2.89536">
        <ele>819.284529</ele>
        <time>2022-08-31T23:40:12.547Z</time>
      </trkpt>
      <trkpt lat="40.10858" lon="-2.89554">
        <ele>823.314377</ele>
        <time>2022-08-31T23:40:49.218Z</time>
      </trkpt>
      <trkpt lat="40.10838" lon="-2.89551">
        <ele>824.694618</ele>
        <time>2022-08-31T23:41:01.779Z</time>
      </trkpt>
      <trkpt lat="40.10826" lon="-2.89535">
        <ele>825.801836</ele>
        <time>2022-08-31T23:41:11.144Z</time>
      </trkpt>
      <trkpt lat="40.10818" lon="-2.89508">
        <ele>827.288524</ele>
        <time>2022-08-31T23:41:22.956Z</time>
      </trkpt>
      <trkpt lat="40.10812" lon="-2.89452">
        <ele>830.210944</ele>
        <time>2022-08-31T23:41:43.938Z</time>
      </trkpt>
      <trkpt lat="40.10805" lon="-2.89437">
        <ele>831.125126</ele>
        <time>2022-08-31T23:41:52.162Z</time>
      </trkpt>
      <trkpt lat="40.10792" lon="-2.89429">
        <ele>832.064043</ele>
        <time>2022-08-31T23:41:58.376Z</time>
      </trkpt>
      <trkpt lat="40.10758" lon="-2.89433">
        <ele>833.805165</ele>
        <time>2022-08-31T23:42:15.708Z</time>
      </trkpt>
      <trkpt lat="40.10687" lon="-2.89473">
        <ele>837.807446</ele>
        <time>2022-08-31T23:42:52.797Z</time>
      </trkpt>
      <trkpt lat="40.10667" lon="-2.89469">
        <ele>838.865171</ele>
        <time>2022-08-31T23:43:04.183Z</time>
      </trkpt>
      <trkpt lat="40.10653" lon="-2.89463">
        <ele>839.61035</ele>
        <time>2022-08-31T23:43:09.634Z</time>
      </trkpt>
      <trkpt lat="40.1058" lon="-2.89426">
        <ele>842.952162</ele>
        <time>2022-08-31T23:43:46.004Z</time>
      </trkpt>
      <trkpt lat="40.10456" lon="-2.89409">
        <ele>847.386672</ele>
        <time>2022-08-31T23:44:35.820Z</time>
      </trkpt>
      <trkpt lat="40.10311" lon="-2.89329">
        <ele>850.059578</ele>
        <time>2022-08-31T23:45:21.134Z</time>
      </trkpt>
      <trkpt lat="40.1018" lon="-2.89302">
        <ele>852.346558</ele>
        <time>2022-08-31T23:46:00.254Z</time>
      </trkpt>
      <trkpt lat="40.09806" lon="-2.89227">
        <ele>860.211048</ele>
        <time>2022-08-31T23:48:06.045Z</time>
      </trkpt>
      <trkpt lat="40.0961" lon="-2.89124">
        <ele>863.002871</ele>
        <time>2022-08-31T23:49:13.767Z</time>
      </trkpt>
      <trkpt lat="40.09579" lon="-2.89112">
        <ele>863.209813</ele>
        <time>2022-08-31T23:49:20.473Z</time>
      </trkpt>
      <trkpt lat="40.09275" lon="-2.89102">
        <ele>852.003543</ele>
        <time>2022-08-31T23:50:10.657Z</time>
      </trkpt>
      <trkpt lat="40.09263" lon="-2.89091">
        <ele>851.414011</ele>
        <time>2022-08-31T23:50:12.912Z</time>
      </trkpt>
      <trkpt lat="40.0924" lon="-2.8905">
        <ele>849.783734</ele>
        <time>2022-08-31T23:50:19.198Z</time>
      </trkpt>
      <trkpt lat="40.09225" lon="-2.89043">
        <ele>849.208001</ele>
        <time>2022-08-31T23:50:21.764Z</time>
      </trkpt>
      <trkpt lat="40.09148" lon="-2.89019">
        <ele>846.334711</ele>
        <time>2022-08-31T23:50:34.636Z</time>
      </trkpt>
      <trkpt lat="40.09047" lon="-2.89014">
        <ele>843.368585</ele>
        <time>2022-08-31T23:50:51.986Z</time>
      </trkpt>
      <trkpt lat="40.09004" lon="-2.88972">
        <ele>843.721213</ele>
        <time>2022-08-31T23:51:03.017Z</time>
      </trkpt>
      <trkpt lat="40.08961" lon="-2.88963">
        <ele>844.012678</ele>
        <time>2022-08-31T23:51:14.489Z</time>
      </trkpt>
      <trkpt lat="40.0887" lon="-2.88988">
        <ele>845.791469</ele>
        <time>2022-08-31T23:51:48.364Z</time>
      </trkpt>
      <trkpt lat="40.08823" lon="-2.88956">
        <ele>848.469169</ele>
        <time>2022-08-31T23:52:11.950Z</time>
      </trkpt>
      <trkpt lat="40.08809" lon="-2.88954">
        <ele>849.193914</ele>
        <time>2022-08-31T23:52:19.376Z</time>
      </trkpt>
      <trkpt lat="40.0879" lon="-2.88964">
        <ele>850.259272</ele>
        <time>2022-08-31T23:52:30.308Z</time>
      </trkpt>
      <trkpt lat="40.0875" lon="-2.88996">
        <ele>852.617772</ele>
        <time>2022-08-31T23:52:54.713Z</time>
      </trkpt>
      <trkpt lat="40.08683" lon="-2.88994">
        <ele>856.849165</ele>
        <time>2022-08-31T23:53:31.213Z</time>
      </trkpt>
      <trkpt lat="40.08646" lon="-2.89016">
        <ele>859.561321</ele>
        <time>2022-08-31T23:53:53.976Z</time>
      </trkpt>
      <trkpt lat="40.08577" lon="-2.89029">
        <ele>864.234664</ele>
        <time>2022-08-31T23:54:34.144Z</time>
      </trkpt>
      <trkpt lat="40.08521" lon="-2.89048">
        <ele>867.484443</ele>
        <time>2022-08-31T23:55:07.478Z</time>
      </trkpt>
      <trkpt lat="40.0841" lon="-2.89046">
        <ele>873.016043</ele>
        <time>2022-08-31T23:56:02.101Z</time>
      </trkpt>
      <trkpt lat="40.08362" lon="-2.89058">
        <ele>874.542608</ele>
        <time>2022-08-31T23:56:19.884Z</time>
      </trkpt>
      <trkpt lat="40.08262" lon="-2.89064">
        <ele>874.239399</ele>
        <time>2022-08-31T23:56:43.178Z</time>
      </trkpt>
      <trkpt lat="40.08244" lon="-2.89069">
        <ele>874.183059</ele>
        <time>2022-08-31T23:56:46.604Z</time>
      </trkpt>
      <trkpt lat="40.08189" lon="-2.89108">
        <ele>873.398825</ele>
        <time>2022-08-31T23:56:57.405Z</time>
      </trkpt>
      <trkpt lat="40.08015" lon="-2.89129">
        <ele>866.919332</ele>
        <time>2022-08-31T23:57:26.325Z</time>
      </trkpt>
      <trkpt lat="40.07881" lon="-2.89143">
        <ele>861.97936</ele>
        <time>2022-08-31T23:57:48.456Z</time>
      </trkpt>
      <trkpt lat="40.07717" lon="-2.89124">
        <ele>858.439308</ele>
        <time>2022-08-31T23:58:17.565Z</time>
      </trkpt>
      <trkpt lat="40.07422" lon="-2.89087">
        <ele>858.818713</ele>
        <time>2022-08-31T23:59:30.861Z</time>
      </trkpt>
      <trkpt lat="40.07319" lon="-2.89059">
        <ele>859.523084</ele>
        <time>2022-08-31T23:59:59.348Z</time>
      </trkpt>
      <trkpt lat="40.07247" lon="-2.89072">
        <ele>859.230031</ele>
        <time>2022-09-01T00:00:16.399Z</time>
      </trkpt>
      <trkpt lat="40.07019" lon="-2.89098">
        <ele>857.189945</ele>
        <time>2022-09-01T00:01:01.522Z</time>
      </trkpt>
      <trkpt lat="40.06687" lon="-2.89229">
        <ele>851.971084</ele>
        <time>2022-09-01T00:02:07.121Z</time>
      </trkpt>
      <trkpt lat="40.06339" lon="-2.89289">
        <ele>847.361587</ele>
        <time>2022-09-01T00:03:14.310Z</time>
      </trkpt>
      <trkpt lat="40.06336" lon="-2.8929">
        <ele>847.331242</ele>
        <time>2022-09-01T00:03:15.004Z</time>
      </trkpt>
      <trkpt lat="40.06307" lon="-2.893">
        <ele>847.048792</ele>
        <time>2022-09-01T00:03:21.172Z</time>
      </trkpt>
      <trkpt lat="40.06228" lon="-2.89354">
        <ele>846.499012</ele>
        <time>2022-09-01T00:03:40.269Z</time>
      </trkpt>
      <trkpt lat="40.06061" lon="-2.89391">
        <ele>846.034636</ele>
        <time>2022-09-01T00:04:17.693Z</time>
      </trkpt>
      <trkpt lat="40.06026" lon="-2.89393">
        <ele>845.710297</ele>
        <time>2022-09-01T00:04:25.047Z</time>
      </trkpt>
      <trkpt lat="40.05997" lon="-2.89388">
        <ele>845.436719</ele>
        <time>2022-09-01T00:04:31.129Z</time>
      </trkpt>
      <trkpt lat="40.057" lon="-2.89291">
        <ele>841.618695</ele>
        <time>2022-09-01T00:05:29.504Z</time>
      </trkpt>
      <trkpt lat="40.05335" lon="-2.89205">
        <ele>836.783018</ele>
        <time>2022-09-01T00:06:42.463Z</time>
      </trkpt>
      <trkpt lat="40.05309" lon="-2.89187">
        <ele>836.099784</ele>
        <time>2022-09-01T00:06:47.899Z</time>
      </trkpt>
      <trkpt lat="40.05253" lon="-2.89133">
        <ele>834.527154</ele>
        <time>2022-09-01T00:07:00.093Z</time>
      </trkpt>
      <trkpt lat="40.05183" lon="-2.89082">
        <ele>832.305345</ele>
        <time>2022-09-01T00:07:13.746Z</time>
      </trkpt>
      <trkpt lat="40.05071" lon="-2.89021">
        <ele>828.526356</ele>
        <time>2022-09-01T00:07:34.519Z</time>
      </trkpt>
      <trkpt lat="40.0506" lon="-2.89009">
        <ele>828.070151</ele>
        <time>2022-09-01T00:07:37.063Z</time>
      </trkpt>
      <trkpt lat="40.05043" lon="-2.89004">
        <ele>827.53884</ele>
        <time>2022-09-01T00:07:39.984Z</time>
      </trkpt>
      <trkpt lat="40.05029" lon="-2.89012">
        <ele>827.073592</ele>
        <time>2022-09-01T00:07:42.586Z</time>
      </trkpt>
      <trkpt lat="40.05011" lon="-2.89001">
        <ele>826.45582</ele>
        <time>2022-09-01T00:07:45.984Z</time>
      </trkpt>
      <trkpt lat="40.05008" lon="-2.88972">
        <ele>825.77285</ele>
        <time>2022-09-01T00:07:49.757Z</time>
      </trkpt>
      <trkpt lat="40.04998" lon="-2.88949">
        <ele>825.122582</ele>
        <time>2022-09-01T00:07:53.292Z</time>
      </trkpt>
      <trkpt lat="40.04914" lon="-2.88852">
        <ele>821.61315</ele>
        <time>2022-09-01T00:08:12.634Z</time>
      </trkpt>
      <trkpt lat="40.04889" lon="-2.88841">
        <ele>820.812663</ele>
        <time>2022-09-01T00:08:16.956Z</time>
      </trkpt>
      <trkpt lat="40.04873" lon="-2.88843">
        <ele>820.309493</ele>
        <time>2022-09-01T00:08:19.657Z</time>
      </trkpt>
      <trkpt lat="40.04866" lon="-2.88838">
        <ele>820.0543</ele>
        <time>2022-09-01T00:08:20.999Z</time>
      </trkpt>
      <trkpt lat="40.04857" lon="-2.88815">
        <ele>819.432061</ele>
        <time>2022-09-01T00:08:24.387Z</time>
      </trkpt>
      <trkpt lat="40.04848" lon="-2.88802">
        <ele>819.015775</ele>
        <time>2022-09-01T00:08:26.631Z</time>
      </trkpt>
      <trkpt lat="40.04826" lon="-2.88793">
        <ele>818.277217</ele>
        <time>2022-09-01T00:08:30.741Z</time>
      </trkpt>
      <trkpt lat="40.04792" lon="-2.88804">
        <ele>817.186854</ele>
        <time>2022-09-01T00:08:36.761Z</time>
      </trkpt>
      <trkpt lat="40.04761" lon="-2.88826">
        <ele>816.214956</ele>
        <time>2022-09-01T00:08:42.933Z</time>
      </trkpt>
      <trkpt lat="40.04728" lon="-2.88836">
        <ele>815.349881</ele>
        <time>2022-09-01T00:08:48.757Z</time>
      </trkpt>
      <trkpt lat="40.04681" lon="-2.88837">
        <ele>814.123685</ele>
        <time>2022-09-01T00:08:57.058Z</time>
      </trkpt>
      <trkpt lat="40.04602" lon="-2.88825">
        <ele>812.169775</ele>
        <time>2022-09-01T00:09:11.213Z</time>
      </trkpt>
      <trkpt lat="40.04593" lon="-2.88825">
        <ele>812.093117</ele>
        <time>2022-09-01T00:09:12.818Z</time>
      </trkpt>
      <trkpt lat="40.04574" lon="-2.88839">
        <ele>811.907135</ele>
        <time>2022-09-01T00:09:16.815Z</time>
      </trkpt>
      <trkpt lat="40.04561" lon="-2.88849">
        <ele>811.773327</ele>
        <time>2022-09-01T00:09:19.675Z</time>
      </trkpt>
      <trkpt lat="40.04547" lon="-2.88851">
        <ele>811.651165</ele>
        <time>2022-09-01T00:09:22.394Z</time>
      </trkpt>
      <trkpt lat="40.04538" lon="-2.88845">
        <ele>811.562146</ele>
        <time>2022-09-01T00:09:24.315Z</time>
      </trkpt>
      <trkpt lat="40.04535" lon="-2.88832">
        <ele>811.473098</ele>
        <time>2022-09-01T00:09:26.295Z</time>
      </trkpt>
      <trkpt lat="40.04503" lon="-2.88805">
        <ele>811.14567</ele>
        <time>2022-09-01T00:09:33.874Z</time>
      </trkpt>
      <trkpt lat="40.0448" lon="-2.88796">
        <ele>810.937896</ele>
        <time>2022-09-01T00:09:38.994Z</time>
      </trkpt>
      <trkpt lat="40.04327" lon="-2.8873">
        <ele>813.393178</ele>
        <time>2022-09-01T00:10:27.259Z</time>
      </trkpt>
      <trkpt lat="40.04301" lon="-2.88712">
        <ele>813.999512</ele>
        <time>2022-09-01T00:10:38.728Z</time>
      </trkpt>
      <trkpt lat="40.04277" lon="-2.88675">
        <ele>815.082948</ele>
        <time>2022-09-01T00:10:53.769Z</time>
      </trkpt>
      <trkpt lat="40.04267" lon="-2.88644">
        <ele>816.096145</ele>
        <time>2022-09-01T00:11:04.491Z</time>
      </trkpt>
      <trkpt lat="40.04264" lon="-2.88623">
        <ele>816.71733</ele>
        <time>2022-09-01T00:11:11.604Z</time>
      </trkpt>
      <trkpt lat="40.04269" lon="-2.88583">
        <ele>817.945021</ele>
        <time>2022-09-01T00:11:25.285Z</time>
      </trkpt>
      <trkpt lat="40.04193" lon="-2.88549">
        <ele>821.085989</ele>
        <time>2022-09-01T00:12:01.389Z</time>
      </trkpt>
      <trkpt lat="40.04151" lon="-2.88505">
        <ele>822.338334</ele>
        <time>2022-09-01T00:12:23.639Z</time>
      </trkpt>
      <trkpt lat="40.04074" lon="-2.88445">
        <ele>824.177141</ele>
        <time>2022-09-01T00:12:54.213Z</time>
      </trkpt>
      <trkpt lat="40.03861" lon="-2.88544">
        <ele>825.324563</ele>
        <time>2022-09-01T00:13:46.876Z</time>
      </trkpt>
      <trkpt lat="40.0374" lon="-2.88592">
        <ele>825.355917</ele>
        <time>2022-09-01T00:14:16.920Z</time>
      </trkpt>
      <trkpt lat="40.03683" lon="-2.88627">
        <ele>825.264598</ele>
        <time>2022-09-01T00:14:31.729Z</time>
      </trkpt>
      <trkpt lat="40.03648" lon="-2.8864">
        <ele>824.940171</ele>
        <time>2022-09-01T00:14:39.739Z</time>
      </trkpt>
      <trkpt lat="40.03299" lon="-2.88682">
        <ele>821.947804</ele>
        <time>2022-09-01T00:15:51.438Z</time>
      </trkpt>
      <trkpt lat="40.03045" lon="-2.88674">
        <ele>823.69286</ele>
        <time>2022-09-01T00:17:01.558Z</time>
      </trkpt>
      <trkpt lat="40.02898" lon="-2.88658">
        <ele>825.437133</ele>
        <time>2022-09-01T00:17:46.142Z</time>
      </trkpt>
      <trkpt lat="40.02713" lon="-2.88597">
        <ele>828.384064</ele>
        <time>2022-09-01T00:18:41.670Z</time>
      </trkpt>
      <trkpt lat="40.02258" lon="-2.88306">
        <ele>841.258599</ele>
        <time>2022-09-01T00:21:42.703Z</time>
      </trkpt>
      <trkpt lat="40.02121" lon="-2.88216">
        <ele>846.792011</ele>
        <time>2022-09-01T00:22:52.287Z</time>
      </trkpt>
      <trkpt lat="40.02006" lon="-2.88133">
        <ele>850.985295</ele>
        <time>2022-09-01T00:23:43.667Z</time>
      </trkpt>
      <trkpt lat="40.01967" lon="-2.88113">
        <ele>851.897517</ele>
        <time>2022-09-01T00:23:57.027Z</time>
      </trkpt>
      <trkpt lat="40.01934" lon="-2.88108">
        <ele>852.372967</ele>
        <time>2022-09-01T00:24:06.812Z</time>
      </trkpt>
      <trkpt lat="40.016" lon="-2.88133">
        <ele>857.11179</ele>
        <time>2022-09-01T00:25:44.300Z</time>
      </trkpt>
      <trkpt lat="40.01552" lon="-2.88127">
        <ele>858.208483</ele>
        <time>2022-09-01T00:25:59.700Z</time>
      </trkpt>
      <trkpt lat="40.01321" lon="-2.87983">
        <ele>865.551425</ele>
        <time>2022-09-01T00:27:37.514Z</time>
      </trkpt>
      <trkpt lat="40.01161" lon="-2.87848">
        <ele>873.00612</ele>
        <time>2022-09-01T00:29:01.149Z</time>
      </trkpt>
      <trkpt lat="40.01136" lon="-2.87776">
        <ele>874.951466</ele>
        <time>2022-09-01T00:29:26.948Z</time>
      </trkpt>
      <trkpt lat="40.01119" lon="-2.87761">
        <ele>875.571332</ele>
        <time>2022-09-01T00:29:34.662Z</time>
      </trkpt>
      <trkpt lat="40.01104" lon="-2.87757">
        <ele>876.029197</ele>
        <time>2022-09-01T00:29:41.377Z</time>
      </trkpt>
      <trkpt lat="40.01089" lon="-2.87755">
        <ele>876.472845</ele>
        <time>2022-09-01T00:29:46.550Z</time>
      </trkpt>
      <trkpt lat="40.01068" lon="-2.8775">
        <ele>877.110051</ele>
        <time>2022-09-01T00:29:55.149Z</time>
      </trkpt>
      <trkpt lat="40.01051" lon="-2.87739">
        <ele>877.680006</ele>
        <time>2022-09-01T00:30:01.428Z</time>
      </trkpt>
      <trkpt lat="40.01003" lon="-2.87678">
        <ele>879.1858</ele>
        <time>2022-09-01T00:30:24.399Z</time>
      </trkpt>
      <trkpt lat="40.00897" lon="-2.87593">
        <ele>880.631453</ele>
        <time>2022-09-01T00:31:00.820Z</time>
      </trkpt>
      <trkpt lat="40.00682" lon="-2.87448">
        <ele>880.677647</ele>
        <time>2022-09-01T00:31:55.435Z</time>
      </trkpt>
      <trkpt lat="40.00555" lon="-2.87397">
        <ele>880.621515</ele>
        <time>2022-09-01T00:32:25.611Z</time>
      </trkpt>
      <trkpt lat="40.00439" lon="-2.87341">
        <ele>881.209842</ele>
        <time>2022-09-01T00:32:58.382Z</time>
      </trkpt>
      <trkpt lat="40.00357" lon="-2.87325">
        <ele>881.54762</ele>
        <time>2022-09-01T00:33:20.568Z</time>
      </trkpt>
      <trkpt lat="40.00298" lon="-2.87333">
        <ele>881.406786</ele>
        <time>2022-09-01T00:33:34.075Z</time>
      </trkpt>
      <trkpt lat="40.00083" lon="-2.87322">
        <ele>881.115136</ele>
        <time>2022-09-01T00:34:20.588Z</time>
      </trkpt>
      <trkpt lat="39.99997" lon="-2.87354">
        <ele>881.303008</ele>
        <time>2022-09-01T00:34:44.285Z</time>
      </trkpt>
      <trkpt lat="39.99971" lon="-2.87358">
        <ele>881.626315</ele>
        <time>2022-09-01T00:34:52.053Z</time>
      </trkpt>
      <trkpt lat="39.99872" lon="-2.87357">
        <ele>882.833937</ele>
        <time>2022-09-01T00:35:23.121Z</time>
      </trkpt>
      <trkpt lat="39.99742" lon="-2.87344">
        <ele>883.259185</ele>
        <time>2022-09-01T00:35:59.098Z</time>
      </trkpt>
      <trkpt lat="39.99696" lon="-2.87327">
        <ele>883.246674</ele>
        <time>2022-09-01T00:36:09.598Z</time>
      </trkpt>
      <trkpt lat="39.99631" lon="-2.8733">
        <ele>882.563688</ele>
        <time>2022-09-01T00:36:22.662Z</time>
      </trkpt>
      <trkpt lat="39.99485" lon="-2.873">
        <ele>878.763118</ele>
        <time>2022-09-01T00:36:49.805Z</time>
      </trkpt>
      <trkpt lat="39.99351" lon="-2.87306">
        <ele>873.969822</ele>
        <time>2022-09-01T00:37:13.287Z</time>
      </trkpt>
      <trkpt lat="39.99283" lon="-2.87295">
        <ele>871.410975</ele>
        <time>2022-09-01T00:37:25.244Z</time>
      </trkpt>
      <trkpt lat="39.98977" lon="-2.87269">
        <ele>859.499158</ele>
        <time>2022-09-01T00:38:18.147Z</time>
      </trkpt>
      <trkpt lat="39.98929" lon="-2.87248">
        <ele>857.753436</ele>
        <time>2022-09-01T00:38:27.476Z</time>
      </trkpt>
      <trkpt lat="39.98852" lon="-2.87244">
        <ele>855.626463</ele>
        <time>2022-09-01T00:38:41.777Z</time>
      </trkpt>
      <trkpt lat="39.98771" lon="-2.87264">
        <ele>853.364652</ele>
        <time>2022-09-01T00:38:57.024Z</time>
      </trkpt>
      <trkpt lat="39.98494" lon="-2.87265">
        <ele>843.60854</ele>
        <time>2022-09-01T00:39:46.019Z</time>
      </trkpt>
      <trkpt lat="39.98428" lon="-2.8729">
        <ele>841.055184</ele>
        <time>2022-09-01T00:39:57.831Z</time>
      </trkpt>
      <trkpt lat="39.98184" lon="-2.87234">
        <ele>831.738166</ele>
        <time>2022-09-01T00:40:40.677Z</time>
      </trkpt>
      <trkpt lat="39.9814" lon="-2.87194">
        <ele>830.049892</ele>
        <time>2022-09-01T00:40:50.348Z</time>
      </trkpt>
      <trkpt lat="39.97976" lon="-2.87095">
        <ele>824.767881</ele>
        <time>2022-09-01T00:41:23.769Z</time>
      </trkpt>
      <trkpt lat="39.97898" lon="-2.87198">
        <ele>821.88866</ele>
        <time>2022-09-01T00:41:43.080Z</time>
      </trkpt>
      <trkpt lat="39.97841" lon="-2.87308">
        <ele>819.541189</ele>
        <time>2022-09-01T00:42:01.106Z</time>
      </trkpt>
      <trkpt lat="39.9772" lon="-2.87222">
        <ele>818.488323</ele>
        <time>2022-09-01T00:42:28.570Z</time>
      </trkpt>
      <trkpt lat="39.97628" lon="-2.87187">
        <ele>818.813416</ele>
        <time>2022-09-01T00:42:56.366Z</time>
      </trkpt>
      <trkpt lat="39.97546" lon="-2.8712">
        <ele>822.265679</ele>
        <time>2022-09-01T00:43:34.522Z</time>
      </trkpt>
      <trkpt lat="39.9735" lon="-2.8694">
        <ele>832.683773</ele>
        <time>2022-09-01T00:45:25.968Z</time>
      </trkpt>
      <trkpt lat="39.97204" lon="-2.86755">
        <ele>840.062361</ele>
        <time>2022-09-01T00:46:49.659Z</time>
      </trkpt>
      <trkpt lat="39.96889" lon="-2.86673">
        <ele>845.777413</ele>
        <time>2022-09-01T00:48:28.234Z</time>
      </trkpt>
      <trkpt lat="39.96602" lon="-2.86736">
        <ele>848.301876</ele>
        <time>2022-09-01T00:49:47.190Z</time>
      </trkpt>
      <trkpt lat="39.96124" lon="-2.86892">
        <ele>849.329754</ele>
        <time>2022-09-01T00:51:38.351Z</time>
      </trkpt>
      <trkpt lat="39.95954" lon="-2.86911">
        <ele>849.945374</ele>
        <time>2022-09-01T00:52:19.907Z</time>
      </trkpt>
      <trkpt lat="39.95915" lon="-2.8693">
        <ele>850.143902</ele>
        <time>2022-09-01T00:52:30.784Z</time>
      </trkpt>
      <trkpt lat="39.95654" lon="-2.86959">
        <ele>850.830031</ele>
        <time>2022-09-01T00:53:34.440Z</time>
      </trkpt>
      <trkpt lat="39.95597" lon="-2.86989">
        <ele>850.369192</ele>
        <time>2022-09-01T00:53:46.861Z</time>
      </trkpt>
      <trkpt lat="39.95143" lon="-2.87106">
        <ele>843.843397</ele>
        <time>2022-09-01T00:55:13.889Z</time>
      </trkpt>
      <trkpt lat="39.94649" lon="-2.87248">
        <ele>843.580678</ele>
        <time>2022-09-01T00:57:07.930Z</time>
      </trkpt>
      <trkpt lat="39.94301" lon="-2.87424">
        <ele>845.065944</ele>
        <time>2022-09-01T00:58:35.734Z</time>
      </trkpt>
      <trkpt lat="39.94221" lon="-2.87464">
        <ele>845.984839</ele>
        <time>2022-09-01T00:59:02.213Z</time>
      </trkpt>
      <trkpt lat="39.94124" lon="-2.87533">
        <ele>848.089515</ele>
        <time>2022-09-01T00:59:37.787Z</time>
      </trkpt>
      <trkpt lat="39.94072" lon="-2.87573">
        <ele>849.354569</ele>
        <time>2022-09-01T00:59:56.188Z</time>
      </trkpt>
      <trkpt lat="39.94051" lon="-2.87586">
        <ele>850.044969</ele>
        <time>2022-09-01T01:00:03.881Z</time>
      </trkpt>
      <trkpt lat="39.94038" lon="-2.87586">
        <ele>850.4176</ele>
        <time>2022-09-01T01:00:07.996Z</time>
      </trkpt>
      <trkpt lat="39.93977" lon="-2.87555">
        <ele>852.370584</ele>
        <time>2022-09-01T01:00:31.613Z</time>
      </trkpt>
      <trkpt lat="39.93963" lon="-2.87552">
        <ele>852.769403</ele>
        <time>2022-09-01T01:00:36.616Z</time>
      </trkpt>
      <trkpt lat="39.93797" lon="-2.87573">
        <ele>859.608135</ele>
        <time>2022-09-01T01:01:48.356Z</time>
      </trkpt>
      <trkpt lat="39.93709" lon="-2.87585">
        <ele>863.965785</ele>
        <time>2022-09-01T01:02:31.925Z</time>
      </trkpt>
      <trkpt lat="39.93499" lon="-2.87718">
        <ele>876.692132</ele>
        <time>2022-09-01T01:04:33.341Z</time>
      </trkpt>
      <trkpt lat="39.9348" lon="-2.87727">
        <ele>877.643579</ele>
        <time>2022-09-01T01:04:42.953Z</time>
      </trkpt>
      <trkpt lat="39.93454" lon="-2.8773">
        <ele>878.907744</ele>
        <time>2022-09-01T01:04:55.144Z</time>
      </trkpt>
      <trkpt lat="39.93418" lon="-2.87735">
        <ele>880.599483</ele>
        <time>2022-09-01T01:05:10.392Z</time>
      </trkpt>
      <trkpt lat="39.93396" lon="-2.87747">
        <ele>881.613435</ele>
        <time>2022-09-01T01:05:19.700Z</time>
      </trkpt>
      <trkpt lat="39.93263" lon="-2.87863">
        <ele>883.928588</ele>
        <time>2022-09-01T01:06:06.991Z</time>
      </trkpt>
      <trkpt lat="39.93234" lon="-2.87905">
        <ele>884.098514</ele>
        <time>2022-09-01T01:06:16.479Z</time>
      </trkpt>
      <trkpt lat="39.93168" lon="-2.87999">
        <ele>883.836308</ele>
        <time>2022-09-01T01:06:36.614Z</time>
      </trkpt>
      <trkpt lat="39.92976" lon="-2.8814">
        <ele>883.44235</ele>
        <time>2022-09-01T01:07:24.149Z</time>
      </trkpt>
      <trkpt lat="39.92839" lon="-2.88205">
        <ele>882.996713</ele>
        <time>2022-09-01T01:07:58.246Z</time>
      </trkpt>
      <trkpt lat="39.92813" lon="-2.88218">
        <ele>882.906939</ele>
        <time>2022-09-01T01:08:03.966Z</time>
      </trkpt>
      <trkpt lat="39.92719" lon="-2.88269">
        <ele>880.793111</ele>
        <time>2022-09-01T01:08:22.654Z</time>
      </trkpt>
      <trkpt lat="39.926" lon="-2.8836">
        <ele>877.508805</ele>
        <time>2022-09-01T01:08:46.180Z</time>
      </trkpt>
      <trkpt lat="39.92244" lon="-2.88557">
        <ele>871.077388</ele>
        <time>2022-09-01T01:09:59.297Z</time>
      </trkpt>
      <trkpt lat="39.92202" lon="-2.88584">
        <ele>870.522054</ele>
        <time>2022-09-01T01:10:09.030Z</time>
      </trkpt>
      <trkpt lat="39.92174" lon="-2.88542">
        <ele>870.021264</ele>
        <time>2022-09-01T01:10:17.532Z</time>
      </trkpt>
      <trkpt lat="39.92165" lon="-2.88517">
        <ele>869.770109</ele>
        <time>2022-09-01T01:10:21.782Z</time>
      </trkpt>
      <trkpt lat="39.92106" lon="-2.88489">
        <ele>868.552824</ele>
        <time>2022-09-01T01:10:34.226Z</time>
      </trkpt>
      <trkpt lat="39.92095" lon="-2.88482">
        <ele>868.307242</ele>
        <time>2022-09-01T01:10:36.718Z</time>
      </trkpt>
      <trkpt lat="39.92085" lon="-2.88479">
        <ele>868.094317</ele>
        <time>2022-09-01T01:10:38.683Z</time>
      </trkpt>
      <trkpt lat="39.92081" lon="-2.88466">
        <ele>867.895949</ele>
        <time>2022-09-01T01:10:40.644Z</time>
      </trkpt>
      <trkpt lat="39.92088" lon="-2.88459">
        <ele>867.722944</ele>
        <time>2022-09-01T01:10:42.509Z</time>
      </trkpt>
      <trkpt lat="39.92041" lon="-2.88422">
        <ele>866.623287</ele>
        <time>2022-09-01T01:10:52.588Z</time>
      </trkpt>
      <trkpt lat="39.9203" lon="-2.88389">
        <ele>866.053718</ele>
        <time>2022-09-01T01:10:57.749Z</time>
      </trkpt>
      <trkpt lat="39.92" lon="-2.88402">
        <ele>865.220117</ele>
        <time>2022-09-01T01:11:03.514Z</time>
      </trkpt>
      <trkpt lat="39.91977" lon="-2.88413">
        <ele>864.545869</ele>
        <time>2022-09-01T01:11:08.039Z</time>
      </trkpt>
      <trkpt lat="39.91973" lon="-2.88416">
        <ele>864.416697</ele>
        <time>2022-09-01T01:11:08.971Z</time>
      </trkpt>
      <trkpt lat="39.91935" lon="-2.88434">
        <ele>863.348911</ele>
        <time>2022-09-01T01:11:15.797Z</time>
      </trkpt>
      <trkpt lat="39.91927" lon="-2.88437">
        <ele>863.128321</ele>
        <time>2022-09-01T01:11:17.149Z</time>
      </trkpt>
      <trkpt lat="39.91913" lon="-2.88409">
        <ele>862.443038</ele>
        <time>2022-09-01T01:11:21.925Z</time>
      </trkpt>
      <trkpt lat="39.91773" lon="-2.88456">
        <ele>859.563604</ele>
        <time>2022-09-01T01:11:49.369Z</time>
      </trkpt>
      <trkpt lat="39.91532" lon="-2.88111">
        <ele>855.530185</ele>
        <time>2022-09-01T01:13:00.780Z</time>
      </trkpt>
      <trkpt lat="39.91311" lon="-2.87922">
        <ele>853.213108</ele>
        <time>2022-09-01T01:13:53.535Z</time>
      </trkpt>
      <trkpt lat="39.91067" lon="-2.87783">
        <ele>851.637491</ele>
        <time>2022-09-01T01:14:49.611Z</time>
      </trkpt>
      <trkpt lat="39.90958" lon="-2.87723">
        <ele>850.484849</ele>
        <time>2022-09-01T01:15:13.312Z</time>
      </trkpt>
      <trkpt lat="39.90694" lon="-2.87672">
        <ele>845.851657</ele>
        <time>2022-09-01T01:16:02.785Z</time>
      </trkpt>
      <trkpt lat="39.90671" lon="-2.87658">
        <ele>845.397505</ele>
        <time>2022-09-01T01:16:07.241Z</time>
      </trkpt>
      <trkpt lat="39.90536" lon="-2.87535">
        <ele>843.905723</ele>
        <time>2022-09-01T01:16:38.660Z</time>
      </trkpt>
      <trkpt lat="39.90405" lon="-2.87465">
        <ele>845.598207</ele>
        <time>2022-09-01T01:17:19.445Z</time>
      </trkpt>
      <trkpt lat="39.90167" lon="-2.87015">
        <ele>857.977005</ele>
        <time>2022-09-01T01:20:02.790Z</time>
      </trkpt>
      <trkpt lat="39.90049" lon="-2.86848">
        <ele>860.594746</ele>
        <time>2022-09-01T01:20:51.950Z</time>
      </trkpt>
      <trkpt lat="39.89897" lon="-2.86739">
        <ele>862.698116</ele>
        <time>2022-09-01T01:21:37.381Z</time>
      </trkpt>
      <trkpt lat="39.89848" lon="-2.86698">
        <ele>863.642997</ele>
        <time>2022-09-01T01:21:55.938Z</time>
      </trkpt>
      <trkpt lat="39.89664" lon="-2.86523">
        <ele>870.155918</ele>
        <time>2022-09-01T01:23:21.448Z</time>
      </trkpt>
      <trkpt lat="39.89564" lon="-2.86427">
        <ele>873.847132</ele>
        <time>2022-09-01T01:24:07.098Z</time>
      </trkpt>
      <trkpt lat="39.89374" lon="-2.86149">
        <ele>881.930109</ele>
        <time>2022-09-01T01:25:54.542Z</time>
      </trkpt>
      <trkpt lat="39.89357" lon="-2.86133">
        <ele>882.455481</ele>
        <time>2022-09-01T01:26:01.614Z</time>
      </trkpt>
      <trkpt lat="39.89101" lon="-2.85951">
        <ele>886.171228</ele>
        <time>2022-09-01T01:27:24.588Z</time>
      </trkpt>
      <trkpt lat="39.88848" lon="-2.85833">
        <ele>886.551646</ele>
        <time>2022-09-01T01:28:24.453Z</time>
      </trkpt>
      <trkpt lat="39.88793" lon="-2.858">
        <ele>886.248388</ele>
        <time>2022-09-01T01:28:37.420Z</time>
      </trkpt>
      <trkpt lat="39.88573" lon="-2.85616">
        <ele>883.211848</ele>
        <time>2022-09-01T01:29:29.371Z</time>
      </trkpt>
      <trkpt lat="39.8837" lon="-2.85476">
        <ele>878.113333</ele>
        <time>2022-09-01T01:30:09.550Z</time>
      </trkpt>
      <trkpt lat="39.88266" lon="-2.85383">
        <ele>877.938432</ele>
        <time>2022-09-01T01:30:35.741Z</time>
      </trkpt>
      <trkpt lat="39.8811" lon="-2.85297">
        <ele>880.005871</ele>
        <time>2022-09-01T01:31:28.356Z</time>
      </trkpt>
      <trkpt lat="39.88024" lon="-2.85262">
        <ele>881.598848</ele>
        <time>2022-09-01T01:31:59.007Z</time>
      </trkpt>
      <trkpt lat="39.87993" lon="-2.85236">
        <ele>881.868936</ele>
        <time>2022-09-01T01:32:10.639Z</time>
      </trkpt>
      <trkpt lat="39.87948" lon="-2.85197">
        <ele>882.26625</ele>
        <time>2022-09-01T01:32:26.065Z</time>
      </trkpt>
      <trkpt lat="39.87871" lon="-2.85133">
        <ele>882.409049</ele>
        <time>2022-09-01T01:32:45.787Z</time>
      </trkpt>
      <trkpt lat="39.87844" lon="-2.85098">
        <ele>881.407562</ele>
        <time>2022-09-01T01:32:52.866Z</time>
      </trkpt>
      <trkpt lat="39.87802" lon="-2.84931">
        <ele>877.668161</ele>
        <time>2022-09-01T01:33:15.876Z</time>
      </trkpt>
      <trkpt lat="39.87793" lon="-2.8491">
        <ele>876.837723</ele>
        <time>2022-09-01T01:33:18.907Z</time>
      </trkpt>
      <trkpt lat="39.87737" lon="-2.84839">
        <ele>873.35376</ele>
        <time>2022-09-01T01:33:31.435Z</time>
      </trkpt>
      <trkpt lat="39.87706" lon="-2.84814">
        <ele>871.709707</ele>
        <time>2022-09-01T01:33:37.300Z</time>
      </trkpt>
      <trkpt lat="39.87642" lon="-2.84775">
        <ele>868.478869</ele>
        <time>2022-09-01T01:33:48.652Z</time>
      </trkpt>
      <trkpt lat="39.87543" lon="-2.84756">
        <ele>863.88434</ele>
        <time>2022-09-01T01:34:04.624Z</time>
      </trkpt>
      <trkpt lat="39.87505" lon="-2.84747">
        <ele>862.072316</ele>
        <time>2022-09-01T01:34:10.935Z</time>
      </trkpt>
      <trkpt lat="39.8749" lon="-2.84735">
        <ele>861.274222</ele>
        <time>2022-09-01T01:34:13.721Z</time>
      </trkpt>
      <trkpt lat="39.87432" lon="-2.84631">
        <ele>856.77806</ele>
        <time>2022-09-01T01:34:29.575Z</time>
      </trkpt>
      <trkpt lat="39.87378" lon="-2.84515">
        <ele>852.190438</ele>
        <time>2022-09-01T01:34:46.458Z</time>
      </trkpt>
      <trkpt lat="39.87283" lon="-2.84314">
        <ele>844.95618</ele>
        <time>2022-09-01T01:35:16.195Z</time>
      </trkpt>
      <trkpt lat="39.87228" lon="-2.84231">
        <ele>842.069275</ele>
        <time>2022-09-01T01:35:30.988Z</time>
      </trkpt>
      <trkpt lat="39.87208" lon="-2.84218">
        <ele>841.329365</ele>
        <time>2022-09-01T01:35:34.609Z</time>
      </trkpt>
      <trkpt lat="39.87181" lon="-2.84219">
        <ele>840.408608</ele>
        <time>2022-09-01T01:35:39.241Z</time>
      </trkpt>
      <trkpt lat="39.8711" lon="-2.84256">
        <ele>836.807335</ele>
        <time>2022-09-01T01:35:52.050Z</time>
      </trkpt>
      <trkpt lat="39.87088" lon="-2.84259">
        <ele>835.753044</ele>
        <time>2022-09-01T01:35:55.499Z</time>
      </trkpt>
      <trkpt lat="39.87068" lon="-2.84248">
        <ele>834.683737</ele>
        <time>2022-09-01T01:35:58.825Z</time>
      </trkpt>
      <trkpt lat="39.87006" lon="-2.84164">
        <ele>830.138932</ele>
        <time>2022-09-01T01:36:12.721Z</time>
      </trkpt>
      <trkpt lat="39.86967" lon="-2.84088">
        <ele>826.099263</ele>
        <time>2022-09-01T01:36:23.412Z</time>
      </trkpt>
      <trkpt lat="39.8695" lon="-2.84068">
        <ele>824.787699</ele>
        <time>2022-09-01T01:36:26.932Z</time>
      </trkpt>
      <trkpt lat="39.86911" lon="-2.8405">
        <ele>822.413272</ele>
        <time>2022-09-01T01:36:33.366Z</time>
      </trkpt>
      <trkpt lat="39.86891" lon="-2.84021">
        <ele>820.709947</ele>
        <time>2022-09-01T01:36:38.065Z</time>
      </trkpt>
      <trkpt lat="39.86824" lon="-2.84007">
        <ele>817.494491</ele>
        <time>2022-09-01T01:36:49.022Z</time>
      </trkpt>
      <trkpt lat="39.86744" lon="-2.83948">
        <ele>813.142219</ele>
        <time>2022-09-01T01:37:04.062Z</time>
      </trkpt>
      <trkpt lat="39.86596" lon="-2.83965">
        <ele>804.448213</ele>
        <time>2022-09-01T01:37:27.121Z</time>
      </trkpt>
      <trkpt lat="39.86571" lon="-2.83961">
        <ele>802.940421</ele>
        <time>2022-09-01T01:37:30.808Z</time>
      </trkpt>
      <trkpt lat="39.86528" lon="-2.83944">
        <ele>800.134296</ele>
        <time>2022-09-01T01:37:37.527Z</time>
      </trkpt>
      <trkpt lat="39.86492" lon="-2.83943">
        <ele>797.835116</ele>
        <time>2022-09-01T01:37:42.828Z</time>
      </trkpt>
      <trkpt lat="39.86423" lon="-2.83951">
        <ele>793.348978</ele>
        <time>2022-09-01T01:37:53.328Z</time>
      </trkpt>
      <trkpt lat="39.86336" lon="-2.83976">
        <ele>788.390842</ele>
        <time>2022-09-01T01:38:07.183Z</time>
      </trkpt>
      <trkpt lat="39.86215" lon="-2.83979">
        <ele>783.425063</ele>
        <time>2022-09-01T01:38:27.127Z</time>
      </trkpt>
      <trkpt lat="39.86083" lon="-2.84022">
        <ele>779.577784</ele>
        <time>2022-09-01T01:38:51.193Z</time>
      </trkpt>
      <trkpt lat="39.86062" lon="-2.84019">
        <ele>779.049508</ele>
        <time>2022-09-01T01:38:54.859Z</time>
      </trkpt>
      <trkpt lat="39.85981" lon="-2.83977">
        <ele>777.439148</ele>
        <time>2022-09-01T01:39:10.905Z</time>
      </trkpt>
      <trkpt lat="39.85962" lon="-2.83962">
        <ele>777.210064</ele>
        <time>2022-09-01T01:39:14.983Z</time>
      </trkpt>
      <trkpt lat="39.85933" lon="-2.83919">
        <ele>776.759444</ele>
        <time>2022-09-01T01:39:23.861Z</time>
      </trkpt>
      <trkpt lat="39.8591" lon="-2.83878">
        <ele>776.36378</ele>
        <time>2022-09-01T01:39:32.178Z</time>
      </trkpt>
      <trkpt lat="39.85888" lon="-2.83857">
        <ele>776.084795</ele>
        <time>2022-09-01T01:39:37.836Z</time>
      </trkpt>
      <trkpt lat="39.85865" lon="-2.83857">
        <ele>775.997486</ele>
        <time>2022-09-01T01:39:43.190Z</time>
      </trkpt>
      <trkpt lat="39.85855" lon="-2.83862">
        <ele>775.994436</ele>
        <time>2022-09-01T01:39:45.106Z</time>
      </trkpt>
      <trkpt lat="39.85839" lon="-2.8386">
        <ele>775.989403</ele>
        <time>2022-09-01T01:39:49.226Z</time>
      </trkpt>
      <trkpt lat="39.85826" lon="-2.83847">
        <ele>775.984372</ele>
        <time>2022-09-01T01:39:52.917Z</time>
      </trkpt>
      <trkpt lat="39.85823" lon="-2.83841">
        <ele>775.982627</ele>
        <time>2022-09-01T01:39:54.234Z</time>
      </trkpt>
      <trkpt lat="39.85806" lon="-2.83819">
        <ele>775.975213</ele>
        <time>2022-09-01T01:40:00.014Z</time>
      </trkpt>
      <trkpt lat="39.85783" lon="-2.83817">
        <ele>775.967874</ele>
        <time>2022-09-01T01:40:05.208Z</time>
      </trkpt>
      <trkpt lat="39.85733" lon="-2.83816">
        <ele>775.95246</ele>
        <time>2022-09-01T01:40:16.272Z</time>
      </trkpt>
      <trkpt lat="39.85719" lon="-2.83817">
        <ele>775.948387</ele>
        <time>2022-09-01T01:40:19.132Z</time>
      </trkpt>
      <trkpt lat="39.85691" lon="-2.83817">
        <ele>775.784031</ele>
        <time>2022-09-01T01:40:25.774Z</time>
      </trkpt>
      <trkpt lat="39.85665" lon="-2.83823">
        <ele>775.606934</ele>
        <time>2022-09-01T01:40:31.716Z</time>
      </trkpt>
      <trkpt lat="39.85623" lon="-2.83836">
        <ele>775.313106</ele>
        <time>2022-09-01T01:40:40.371Z</time>
      </trkpt>
      <trkpt lat="39.85539" lon="-2.83873">
        <ele>774.696789</ele>
        <time>2022-09-01T01:40:58.062Z</time>
      </trkpt>
      <trkpt lat="39.85396" lon="-2.83953">
        <ele>772.652373</ele>
        <time>2022-09-01T01:41:28.234Z</time>
      </trkpt>
      <trkpt lat="39.85317" lon="-2.83997">
        <ele>771.970851</ele>
        <time>2022-09-01T01:41:44.450Z</time>
      </trkpt>
      <trkpt lat="39.85196" lon="-2.84027">
        <ele>771.342546</ele>
        <time>2022-09-01T01:42:10.504Z</time>
      </trkpt>
      <trkpt lat="39.85048" lon="-2.83992">
        <ele>773.457462</ele>
        <time>2022-09-01T01:42:53.382Z</time>
      </trkpt>
      <trkpt lat="39.85" lon="-2.83963">
        <ele>774.857712</ele>
        <time>2022-09-01T01:43:13.514Z</time>
      </trkpt>
      <trkpt lat="39.84947" lon="-2.83932">
        <ele>776.889616</ele>
        <time>2022-09-01T01:43:37.261Z</time>
      </trkpt>
      <trkpt lat="39.84813" lon="-2.83853">
        <ele>781.891535</ele>
        <time>2022-09-01T01:44:38.621Z</time>
      </trkpt>
      <trkpt lat="39.84639" lon="-2.83817">
        <ele>786.949502</ele>
        <time>2022-09-01T01:45:43.034Z</time>
      </trkpt>
      <trkpt lat="39.84475" lon="-2.83815">
        <ele>790.040604</ele>
        <time>2022-09-01T01:46:34.553Z</time>
      </trkpt>
      <trkpt lat="39.84255" lon="-2.83827">
        <ele>791.652258</ele>
        <time>2022-09-01T01:47:32.563Z</time>
      </trkpt>
      <trkpt lat="39.84144" lon="-2.83834">
        <ele>792.020211</ele>
        <time>2022-09-01T01:47:54.655Z</time>
      </trkpt>
      <trkpt lat="39.84043" lon="-2.83826">
        <ele>795.3412</ele>
        <time>2022-09-01T01:48:27.927Z</time>
      </trkpt>
      <trkpt lat="39.83876" lon="-2.83808">
        <ele>802.445239</ele>
        <time>2022-09-01T01:49:56.249Z</time>
      </trkpt>
      <trkpt lat="39.83485" lon="-2.83749">
        <ele>818.05191</ele>
        <time>2022-09-01T01:52:36.805Z</time>
      </trkpt>
      <trkpt lat="39.83147" lon="-2.8362">
        <ele>830.638288</ele>
        <time>2022-09-01T01:54:58.371Z</time>
      </trkpt>
      <trkpt lat="39.8294" lon="-2.83516">
        <ele>837.899297</ele>
        <time>2022-09-01T01:56:25.562Z</time>
      </trkpt>
      <trkpt lat="39.82818" lon="-2.83484">
        <ele>840.817287</ele>
        <time>2022-09-01T01:57:05.634Z</time>
      </trkpt>
      <trkpt lat="39.82749" lon="-2.83464">
        <ele>842.392139</ele>
        <time>2022-09-01T01:57:28.180Z</time>
      </trkpt>
      <trkpt lat="39.82583" lon="-2.83478">
        <ele>847.356542</ele>
        <time>2022-09-01T01:58:30.996Z</time>
      </trkpt>
      <trkpt lat="39.82312" lon="-2.83547">
        <ele>855.976496</ele>
        <time>2022-09-01T02:00:17.223Z</time>
      </trkpt>
      <trkpt lat="39.82209" lon="-2.83564">
        <ele>858.946479</ele>
        <time>2022-09-01T02:00:53.371Z</time>
      </trkpt>
      <trkpt lat="39.81967" lon="-2.8356">
        <ele>864.37019</ele>
        <time>2022-09-01T02:02:19.940Z</time>
      </trkpt>
      <trkpt lat="39.8183" lon="-2.83514">
        <ele>865.000508</ele>
        <time>2022-09-01T02:02:55.644Z</time>
      </trkpt>
      <trkpt lat="39.81672" lon="-2.83419">
        <ele>860.611398</ele>
        <time>2022-09-01T02:03:25.417Z</time>
      </trkpt>
      <trkpt lat="39.81531" lon="-2.83327">
        <ele>855.206359</ele>
        <time>2022-09-01T02:03:51.318Z</time>
      </trkpt>
      <trkpt lat="39.81297" lon="-2.83095">
        <ele>852.865438</ele>
        <time>2022-09-01T02:04:54.386Z</time>
      </trkpt>
      <trkpt lat="39.81041" lon="-2.82963">
        <ele>848.557297</ele>
        <time>2022-09-01T02:05:45.841Z</time>
      </trkpt>
      <trkpt lat="39.80989" lon="-2.82927">
        <ele>847.512572</ele>
        <time>2022-09-01T02:05:56.407Z</time>
      </trkpt>
      <trkpt lat="39.80895" lon="-2.82832">
        <ele>845.723615</ele>
        <time>2022-09-01T02:06:18.797Z</time>
      </trkpt>
      <trkpt lat="39.80615" lon="-2.82547">
        <ele>843.809575</ele>
        <time>2022-09-01T02:07:33.759Z</time>
      </trkpt>
      <trkpt lat="39.80471" lon="-2.82441">
        <ele>843.435585</ele>
        <time>2022-09-01T02:08:08.206Z</time>
      </trkpt>
      <trkpt lat="39.80184" lon="-2.82228">
        <ele>847.598911</ele>
        <time>2022-09-01T02:09:45.257Z</time>
      </trkpt>
      <trkpt lat="39.79946" lon="-2.82147">
        <ele>850.496747</ele>
        <time>2022-09-01T02:10:57.430Z</time>
      </trkpt>
      <trkpt lat="39.79337" lon="-2.81711">
        <ele>852.567713</ele>
        <time>2022-09-01T02:13:38.412Z</time>
      </trkpt>
      <trkpt lat="39.79263" lon="-2.81666">
        <ele>853.07265</ele>
        <time>2022-09-01T02:13:59.688Z</time>
      </trkpt>
      <trkpt lat="39.7912" lon="-2.81589">
        <ele>853.726931</ele>
        <time>2022-09-01T02:14:39.830Z</time>
      </trkpt>
      <trkpt lat="39.78807" lon="-2.81457">
        <ele>853.59775</ele>
        <time>2022-09-01T02:15:51.752Z</time>
      </trkpt>
      <trkpt lat="39.78629" lon="-2.81381">
        <ele>852.578045</ele>
        <time>2022-09-01T02:16:31.713Z</time>
      </trkpt>
      <trkpt lat="39.78605" lon="-2.8137">
        <ele>852.305578</ele>
        <time>2022-09-01T02:16:36.734Z</time>
      </trkpt>
      <trkpt lat="39.78548" lon="-2.81346">
        <ele>851.662966</ele>
        <time>2022-09-01T02:16:48.310Z</time>
      </trkpt>
      <trkpt lat="39.78542" lon="-2.81341">
        <ele>851.58626</ele>
        <time>2022-09-01T02:16:49.665Z</time>
      </trkpt>
      <trkpt lat="39.78474" lon="-2.81275">
        <ele>850.12212</ele>
        <time>2022-09-01T02:17:05.318Z</time>
      </trkpt>
      <trkpt lat="39.78379" lon="-2.81223">
        <ele>847.958468</ele>
        <time>2022-09-01T02:17:23.830Z</time>
      </trkpt>
      <trkpt lat="39.78317" lon="-2.81189">
        <ele>847.037209</ele>
        <time>2022-09-01T02:17:36.257Z</time>
      </trkpt>
      <trkpt lat="39.78311" lon="-2.81187">
        <ele>846.979817</ele>
        <time>2022-09-01T02:17:37.285Z</time>
      </trkpt>
      <trkpt lat="39.78261" lon="-2.8116">
        <ele>846.40945</ele>
        <time>2022-09-01T02:17:47.739Z</time>
      </trkpt>
      <trkpt lat="39.78135" lon="-2.81092">
        <ele>846.497919</ele>
        <time>2022-09-01T02:18:17.307Z</time>
      </trkpt>
      <trkpt lat="39.77732" lon="-2.80876">
        <ele>852.448337</ele>
        <time>2022-09-01T02:20:31.897Z</time>
      </trkpt>
      <trkpt lat="39.76274" lon="-2.8001">
        <ele>856.697948</ele>
        <time>2022-09-01T02:26:46.024Z</time>
      </trkpt>
      <trkpt lat="39.76219" lon="-2.79969">
        <ele>856.957289</ele>
        <time>2022-09-01T02:27:02.203Z</time>
      </trkpt>
      <trkpt lat="39.76162" lon="-2.79915">
        <ele>857.429344</ele>
        <time>2022-09-01T02:27:20.598Z</time>
      </trkpt>
      <trkpt lat="39.76097" lon="-2.79829">
        <ele>858.051204</ele>
        <time>2022-09-01T02:27:44.381Z</time>
      </trkpt>
      <trkpt lat="39.75934" lon="-2.79586">
        <ele>859.81023</ele>
        <time>2022-09-01T02:28:45.440Z</time>
      </trkpt>
      <trkpt lat="39.75885" lon="-2.79518">
        <ele>860.750571</ele>
        <time>2022-09-01T02:29:06.660Z</time>
      </trkpt>
      <trkpt lat="39.75857" lon="-2.79479">
        <ele>861.286604</ele>
        <time>2022-09-01T02:29:19.581Z</time>
      </trkpt>
      <trkpt lat="39.75778" lon="-2.79402">
        <ele>862.8391</ele>
        <time>2022-09-01T02:29:52.292Z</time>
      </trkpt>
      <trkpt lat="39.75522" lon="-2.79209">
        <ele>865.96222</ele>
        <time>2022-09-01T02:31:14.366Z</time>
      </trkpt>
      <trkpt lat="39.75367" lon="-2.78967">
        <ele>865.202473</ele>
        <time>2022-09-01T02:32:04.422Z</time>
      </trkpt>
      <trkpt lat="39.75333" lon="-2.78915">
        <ele>865.001006</ele>
        <time>2022-09-01T02:32:15.185Z</time>
      </trkpt>
      <trkpt lat="39.75201" lon="-2.78763">
        <ele>865.4161</ele>
        <time>2022-09-01T02:32:56.387Z</time>
      </trkpt>
      <trkpt lat="39.75018" lon="-2.78648">
        <ele>866.924513</ele>
        <time>2022-09-01T02:33:52.185Z</time>
      </trkpt>
      <trkpt lat="39.74916" lon="-2.78614">
        <ele>866.923544</ele>
        <time>2022-09-01T02:34:16.315Z</time>
      </trkpt>
      <trkpt lat="39.74863" lon="-2.78606">
        <ele>866.819287</ele>
        <time>2022-09-01T02:34:27.445Z</time>
      </trkpt>
      <trkpt lat="39.74497" lon="-2.78564">
        <ele>864.583771</ele>
        <time>2022-09-01T02:35:43.096Z</time>
      </trkpt>
      <trkpt lat="39.74239" lon="-2.78527">
        <ele>862.318842</ele>
        <time>2022-09-01T02:36:34.835Z</time>
      </trkpt>
      <trkpt lat="39.74162" lon="-2.78508">
        <ele>861.747671</ele>
        <time>2022-09-01T02:36:50.894Z</time>
      </trkpt>
      <trkpt lat="39.74059" lon="-2.7847">
        <ele>861.032798</ele>
        <time>2022-09-01T02:37:13.213Z</time>
      </trkpt>
      <trkpt lat="39.73767" lon="-2.7835">
        <ele>858.963766</ele>
        <time>2022-09-01T02:38:16.318Z</time>
      </trkpt>
      <trkpt lat="39.737" lon="-2.78306">
        <ele>857.391695</ele>
        <time>2022-09-01T02:38:30.899Z</time>
      </trkpt>
      <trkpt lat="39.73224" lon="-2.77885">
        <ele>845.073411</ele>
        <time>2022-09-01T02:40:14.366Z</time>
      </trkpt>
      <trkpt lat="39.71977" lon="-2.76762">
        <ele>816.704872</ele>
        <time>2022-09-01T02:44:54.432Z</time>
      </trkpt>
      <trkpt lat="39.71742" lon="-2.76551">
        <ele>818.921639</ele>
        <time>2022-09-01T02:46:15.978Z</time>
      </trkpt>
      <trkpt lat="39.71613" lon="-2.76465">
        <ele>817.729977</ele>
        <time>2022-09-01T02:46:48.017Z</time>
      </trkpt>
      <trkpt lat="39.71288" lon="-2.76294">
        <ele>806.546186</ele>
        <time>2022-09-01T02:47:46.198Z</time>
      </trkpt>
      <trkpt lat="39.71147" lon="-2.76222">
        <ele>801.837164</ele>
        <time>2022-09-01T02:48:12.726Z</time>
      </trkpt>
      <trkpt lat="39.71078" lon="-2.76197">
        <ele>799.751044</ele>
        <time>2022-09-01T02:48:25.188Z</time>
      </trkpt>
      <trkpt lat="39.7091" lon="-2.76167">
        <ele>794.525515</ele>
        <time>2022-09-01T02:48:54.292Z</time>
      </trkpt>
      <trkpt lat="39.7083" lon="-2.76143">
        <ele>791.902759</ele>
        <time>2022-09-01T02:49:08.249Z</time>
      </trkpt>
      <trkpt lat="39.70777" lon="-2.76119">
        <ele>790.339554</ele>
        <time>2022-09-01T02:49:17.950Z</time>
      </trkpt>
      <trkpt lat="39.70723" lon="-2.76087">
        <ele>788.682598</ele>
        <time>2022-09-01T02:49:28.308Z</time>
      </trkpt>
      <trkpt lat="39.70652" lon="-2.7603">
        <ele>786.981736</ele>
        <time>2022-09-01T02:49:43.165Z</time>
      </trkpt>
      <trkpt lat="39.70614" lon="-2.7599">
        <ele>786.92027</ele>
        <time>2022-09-01T02:49:52.305Z</time>
      </trkpt>
      <trkpt lat="39.70616" lon="-2.75976">
        <ele>786.905869</ele>
        <time>2022-09-01T02:49:54.573Z</time>
      </trkpt>
      <trkpt lat="39.70611" lon="-2.75963">
        <ele>786.892069</ele>
        <time>2022-09-01T02:49:57.068Z</time>
      </trkpt>
      <trkpt lat="39.70596" lon="-2.7595">
        <ele>786.869191</ele>
        <time>2022-09-01T02:50:00.790Z</time>
      </trkpt>
      <trkpt lat="39.70561" lon="-2.75901">
        <ele>786.804585</ele>
        <time>2022-09-01T02:50:17.695Z</time>
      </trkpt>
      <trkpt lat="39.70516" lon="-2.75788">
        <ele>789.615145</ele>
        <time>2022-09-01T02:50:55.639Z</time>
      </trkpt>
      <trkpt lat="39.70482" lon="-2.75759">
        <ele>790.996196</ele>
        <time>2022-09-01T02:51:14.047Z</time>
      </trkpt>
      <trkpt lat="39.70312" lon="-2.75717">
        <ele>795.540922</ele>
        <time>2022-09-01T02:52:25.769Z</time>
      </trkpt>
      <trkpt lat="39.70265" lon="-2.75705">
        <ele>796.60092</ele>
        <time>2022-09-01T02:52:37.384Z</time>
      </trkpt>
      <trkpt lat="39.7016" lon="-2.75761">
        <ele>795.147958</ele>
        <time>2022-09-01T02:53:00.877Z</time>
      </trkpt>
      <trkpt lat="39.70033" lon="-2.75791">
        <ele>792.031627</ele>
        <time>2022-09-01T02:53:23.058Z</time>
      </trkpt>
      <trkpt lat="39.69965" lon="-2.75783">
        <ele>789.698683</ele>
        <time>2022-09-01T02:53:34.713Z</time>
      </trkpt>
      <trkpt lat="39.69945" lon="-2.75777">
        <ele>788.99516</ele>
        <time>2022-09-01T02:53:38.096Z</time>
      </trkpt>
      <trkpt lat="39.69877" lon="-2.75739">
        <ele>786.660302</ele>
        <time>2022-09-01T02:53:50.341Z</time>
      </trkpt>
      <trkpt lat="39.69783" lon="-2.75661">
        <ele>783.533841</ele>
        <time>2022-09-01T02:54:09.499Z</time>
      </trkpt>
      <trkpt lat="39.69745" lon="-2.75644">
        <ele>782.449103</ele>
        <time>2022-09-01T02:54:16.905Z</time>
      </trkpt>
      <trkpt lat="39.69327" lon="-2.7553">
        <ele>780.036779</ele>
        <time>2022-09-01T02:55:47.063Z</time>
      </trkpt>
      <trkpt lat="39.69165" lon="-2.7552">
        <ele>778.978429</ele>
        <time>2022-09-01T02:56:19.950Z</time>
      </trkpt>
      <trkpt lat="39.68337" lon="-2.75487">
        <ele>773.481084</ele>
        <time>2022-09-01T02:59:10.369Z</time>
      </trkpt>
      <trkpt lat="39.67905" lon="-2.75528">
        <ele>770.806241</ele>
        <time>2022-09-01T03:00:38.807Z</time>
      </trkpt>
      <trkpt lat="39.6781" lon="-2.7555">
        <ele>770.792767</ele>
        <time>2022-09-01T03:01:00.614Z</time>
      </trkpt>
      <trkpt lat="39.67547" lon="-2.75647">
        <ele>772.600444</ele>
        <time>2022-09-01T03:02:14.698Z</time>
      </trkpt>
      <trkpt lat="39.67481" lon="-2.75669">
        <ele>772.755729</ele>
        <time>2022-09-01T03:02:31.509Z</time>
      </trkpt>
      <trkpt lat="39.67237" lon="-2.75758">
        <ele>770.771895</ele>
        <time>2022-09-01T03:03:22.081Z</time>
      </trkpt>
      <trkpt lat="39.6708" lon="-2.75809">
        <ele>768.776491</ele>
        <time>2022-09-01T03:03:53.053Z</time>
      </trkpt>
      <trkpt lat="39.67018" lon="-2.75818">
        <ele>768.484872</ele>
        <time>2022-09-01T03:04:05.435Z</time>
      </trkpt>
      <trkpt lat="39.66916" lon="-2.75814">
        <ele>768.004243</ele>
        <time>2022-09-01T03:04:27.634Z</time>
      </trkpt>
      <trkpt lat="39.66877" lon="-2.75809">
        <ele>768.228825</ele>
        <time>2022-09-01T03:04:36.950Z</time>
      </trkpt>
      <trkpt lat="39.66494" lon="-2.75764">
        <ele>771.140634</ele>
        <time>2022-09-01T03:06:22.109Z</time>
      </trkpt>
      <trkpt lat="39.66275" lon="-2.7574">
        <ele>770.319437</ele>
        <time>2022-09-01T03:07:07.532Z</time>
      </trkpt>
      <trkpt lat="39.66272" lon="-2.75741">
        <ele>770.296663</ele>
        <time>2022-09-01T03:07:08.126Z</time>
      </trkpt>
      <trkpt lat="39.66248" lon="-2.75738">
        <ele>770.109022</ele>
        <time>2022-09-01T03:07:12.991Z</time>
      </trkpt>
      <trkpt lat="39.66171" lon="-2.75727">
        <ele>769.346269</ele>
        <time>2022-09-01T03:07:28.320Z</time>
      </trkpt>
      <trkpt lat="39.66129" lon="-2.75703">
        <ele>768.651619</ele>
        <time>2022-09-01T03:07:37.172Z</time>
      </trkpt>
      <trkpt lat="39.66023" lon="-2.7562">
        <ele>766.777782</ele>
        <time>2022-09-01T03:08:00.374Z</time>
      </trkpt>
      <trkpt lat="39.65973" lon="-2.75578">
        <ele>765.870379</ele>
        <time>2022-09-01T03:08:11.496Z</time>
      </trkpt>
      <trkpt lat="39.65854" lon="-2.75482">
        <ele>763.916292</ele>
        <time>2022-09-01T03:08:38.553Z</time>
      </trkpt>
      <trkpt lat="39.65846" lon="-2.75476">
        <ele>763.8248</ele>
        <time>2022-09-01T03:08:40.336Z</time>
      </trkpt>
      <trkpt lat="39.65825" lon="-2.75459">
        <ele>763.572877</ele>
        <time>2022-09-01T03:08:45.315Z</time>
      </trkpt>
      <trkpt lat="39.658" lon="-2.75439">
        <ele>763.273298</ele>
        <time>2022-09-01T03:08:51.213Z</time>
      </trkpt>
      <trkpt lat="39.65789" lon="-2.75429">
        <ele>763.129938</ele>
        <time>2022-09-01T03:08:53.981Z</time>
      </trkpt>
      <trkpt lat="39.65659" lon="-2.75323">
        <ele>761.666997</ele>
        <time>2022-09-01T03:09:24.479Z</time>
      </trkpt>
      <trkpt lat="39.64987" lon="-2.74778">
        <ele>754.803918</ele>
        <time>2022-09-01T03:12:03.700Z</time>
      </trkpt>
      <trkpt lat="39.64488" lon="-2.74375">
        <ele>753.367581</ele>
        <time>2022-09-01T03:14:10.619Z</time>
      </trkpt>
      <trkpt lat="39.64045" lon="-2.74013">
        <ele>754.367058</ele>
        <time>2022-09-01T03:16:14.012Z</time>
      </trkpt>
      <trkpt lat="39.63388" lon="-2.73489">
        <ele>749.451607</ele>
        <time>2022-09-01T03:18:52.718Z</time>
      </trkpt>
      <trkpt lat="39.63196" lon="-2.73334">
        <ele>747.518631</ele>
        <time>2022-09-01T03:19:36.703Z</time>
      </trkpt>
      <trkpt lat="39.63115" lon="-2.73279">
        <ele>747.249267</ele>
        <time>2022-09-01T03:19:56.879Z</time>
      </trkpt>
      <trkpt lat="39.63008" lon="-2.7324">
        <ele>748.759605</ele>
        <time>2022-09-01T03:20:28.586Z</time>
      </trkpt>
      <trkpt lat="39.6293" lon="-2.73231">
        <ele>750.084829</ele>
        <time>2022-09-01T03:20:55.024Z</time>
      </trkpt>
      <trkpt lat="39.62851" lon="-2.7323">
        <ele>751.942203</ele>
        <time>2022-09-01T03:21:22.695Z</time>
      </trkpt>
      <trkpt lat="39.62772" lon="-2.73242">
        <ele>753.781156</ele>
        <time>2022-09-01T03:21:50.274Z</time>
      </trkpt>
      <trkpt lat="39.626" lon="-2.73298">
        <ele>756.612372</ele>
        <time>2022-09-01T03:22:44.103Z</time>
      </trkpt>
      <trkpt lat="39.62528" lon="-2.73308">
        <ele>756.859285</ele>
        <time>2022-09-01T03:23:01.813Z</time>
      </trkpt>
      <trkpt lat="39.62458" lon="-2.73307">
        <ele>757.095957</ele>
        <time>2022-09-01T03:23:17.639Z</time>
      </trkpt>
      <trkpt lat="39.62388" lon="-2.73295">
        <ele>757.144501</ele>
        <time>2022-09-01T03:23:33.060Z</time>
      </trkpt>
      <trkpt lat="39.62305" lon="-2.73269">
        <ele>756.962993</ele>
        <time>2022-09-01T03:23:51.530Z</time>
      </trkpt>
      <trkpt lat="39.62223" lon="-2.73232">
        <ele>756.703292</ele>
        <time>2022-09-01T03:24:10.542Z</time>
      </trkpt>
      <trkpt lat="39.61194" lon="-2.7277">
        <ele>751.909912</ele>
        <time>2022-09-01T03:27:58.366Z</time>
      </trkpt>
      <trkpt lat="39.60586" lon="-2.72498">
        <ele>754.540467</ele>
        <time>2022-09-01T03:30:37.519Z</time>
      </trkpt>
      <trkpt lat="39.59794" lon="-2.72144">
        <ele>755.029951</ele>
        <time>2022-09-01T03:33:46.598Z</time>
      </trkpt>
      <trkpt lat="39.5906" lon="-2.71817">
        <ele>753.52415</ele>
        <time>2022-09-01T03:36:34.935Z</time>
      </trkpt>
      <trkpt lat="39.58779" lon="-2.71692">
        <ele>751.198845</ele>
        <time>2022-09-01T03:37:34.506Z</time>
      </trkpt>
      <trkpt lat="39.58693" lon="-2.71639">
        <ele>750.461915</ele>
        <time>2022-09-01T03:37:53.846Z</time>
      </trkpt>
      <trkpt lat="39.58631" lon="-2.71591">
        <ele>750.102733</ele>
        <time>2022-09-01T03:38:09.009Z</time>
      </trkpt>
      <trkpt lat="39.57952" lon="-2.70864">
        <ele>746.074588</ele>
        <time>2022-09-01T03:41:14.616Z</time>
      </trkpt>
      <trkpt lat="39.57838" lon="-2.70743">
        <ele>744.972209</ele>
        <time>2022-09-01T03:41:43.343Z</time>
      </trkpt>
      <trkpt lat="39.57559" lon="-2.70447">
        <ele>747.76714</ele>
        <time>2022-09-01T03:43:20.374Z</time>
      </trkpt>
      <trkpt lat="39.57547" lon="-2.70438">
        <ele>747.808591</ele>
        <time>2022-09-01T03:43:24.389Z</time>
      </trkpt>
      <trkpt lat="39.57533" lon="-2.70431">
        <ele>747.854202</ele>
        <time>2022-09-01T03:43:28.711Z</time>
      </trkpt>
      <trkpt lat="39.57516" lon="-2.70434">
        <ele>747.907105</ele>
        <time>2022-09-01T03:43:33.627Z</time>
      </trkpt>
      <trkpt lat="39.57394" lon="-2.70523">
        <ele>748.155797</ele>
        <time>2022-09-01T03:44:05.280Z</time>
      </trkpt>
      <trkpt lat="39.57252" lon="-2.70633">
        <ele>746.737383</ele>
        <time>2022-09-01T03:44:37.540Z</time>
      </trkpt>
      <trkpt lat="39.57175" lon="-2.70667">
        <ele>747.367167</ele>
        <time>2022-09-01T03:44:54.887Z</time>
      </trkpt>
      <trkpt lat="39.57089" lon="-2.70685">
        <ele>748.046391</ele>
        <time>2022-09-01T03:45:20.404Z</time>
      </trkpt>
      <trkpt lat="39.5689" lon="-2.70683">
        <ele>753.610978</ele>
        <time>2022-09-01T03:46:35.800Z</time>
      </trkpt>
      <trkpt lat="39.56749" lon="-2.70691">
        <ele>757.157902</ele>
        <time>2022-09-01T03:47:27.471Z</time>
      </trkpt>
      <trkpt lat="39.56658" lon="-2.70709">
        <ele>758.223788</ele>
        <time>2022-09-01T03:47:53.152Z</time>
      </trkpt>
      <trkpt lat="39.56593" lon="-2.70731">
        <ele>758.5483</ele>
        <time>2022-09-01T03:48:08.014Z</time>
      </trkpt>
      <trkpt lat="39.56537" lon="-2.70765">
        <ele>758.980624</ele>
        <time>2022-09-01T03:48:21.338Z</time>
      </trkpt>
      <trkpt lat="39.56488" lon="-2.70781">
        <ele>759.803036</ele>
        <time>2022-09-01T03:48:33.512Z</time>
      </trkpt>
      <trkpt lat="39.56355" lon="-2.70761">
        <ele>761.97172</ele>
        <time>2022-09-01T03:49:19.859Z</time>
      </trkpt>
      <trkpt lat="39.56356" lon="-2.7075">
        <ele>762.101959</ele>
        <time>2022-09-01T03:49:23.463Z</time>
      </trkpt>
      <trkpt lat="39.56357" lon="-2.70709">
        <ele>762.549451</ele>
        <time>2022-09-01T03:49:34.445Z</time>
      </trkpt>
      <trkpt lat="39.56348" lon="-2.70691">
        <ele>762.785821</ele>
        <time>2022-09-01T03:49:40.894Z</time>
      </trkpt>
      <trkpt lat="39.56197" lon="-2.70596">
        <ele>763.066983</ele>
        <time>2022-09-01T03:50:25.382Z</time>
      </trkpt>
      <trkpt lat="39.56146" lon="-2.70566">
        <ele>761.928165</ele>
        <time>2022-09-01T03:50:38.785Z</time>
      </trkpt>
      <trkpt lat="39.56132" lon="-2.70595">
        <ele>761.396613</ele>
        <time>2022-09-01T03:50:43.354Z</time>
      </trkpt>
      <trkpt lat="39.5608" lon="-2.70642">
        <ele>759.480191</ele>
        <time>2022-09-01T03:50:54.336Z</time>
      </trkpt>
      <trkpt lat="39.5608" lon="-2.70651">
        <ele>759.168352</ele>
        <time>2022-09-01T03:50:55.565Z</time>
      </trkpt>
      <trkpt lat="39.56079" lon="-2.70652">
        <ele>759.108676</ele>
        <time>2022-09-01T03:50:55.797Z</time>
      </trkpt>
      <trkpt lat="39.56074" lon="-2.70652">
        <ele>758.880744</ele>
        <time>2022-09-01T03:50:56.718Z</time>
      </trkpt>
      <trkpt lat="39.56073" lon="-2.70664">
        <ele>758.47221</ele>
        <time>2022-09-01T03:50:58.325Z</time>
      </trkpt>
      <trkpt lat="39.56043" lon="-2.70695">
        <ele>756.811459</ele>
        <time>2022-09-01T03:51:04.486Z</time>
      </trkpt>
      <trkpt lat="39.56008" lon="-2.70751">
        <ele>754.423074</ele>
        <time>2022-09-01T03:51:13.405Z</time>
      </trkpt>
      <trkpt lat="39.55995" lon="-2.70769">
        <ele>753.60605</ele>
        <time>2022-09-01T03:51:16.540Z</time>
      </trkpt>
      <trkpt lat="39.55955" lon="-2.70829">
        <ele>751.753645</ele>
        <time>2022-09-01T03:51:26.698Z</time>
      </trkpt>
      <trkpt lat="39.55938" lon="-2.70827">
        <ele>751.305447</ele>
        <time>2022-09-01T03:51:29.670Z</time>
      </trkpt>
      <trkpt lat="39.55865" lon="-2.70819">
        <ele>749.380815</ele>
        <time>2022-09-01T03:51:42.764Z</time>
      </trkpt>
      <trkpt lat="39.55815" lon="-2.70814">
        <ele>748.160848</ele>
        <time>2022-09-01T03:51:52.139Z</time>
      </trkpt>
      <trkpt lat="39.55753" lon="-2.70808">
        <ele>747.295757</ele>
        <time>2022-09-01T03:52:04.629Z</time>
      </trkpt>
      <trkpt lat="39.55749" lon="-2.70808">
        <ele>747.227348</ele>
        <time>2022-09-01T03:52:05.593Z</time>
      </trkpt>
      <trkpt lat="39.55726" lon="-2.70806">
        <ele>746.914688</ele>
        <time>2022-09-01T03:52:10.042Z</time>
      </trkpt>
      <trkpt lat="39.55673" lon="-2.70809">
        <ele>746.170564</ele>
        <time>2022-09-01T03:52:20.323Z</time>
      </trkpt>
      <trkpt lat="39.55655" lon="-2.70816">
        <ele>745.908752</ele>
        <time>2022-09-01T03:52:23.881Z</time>
      </trkpt>
      <trkpt lat="39.5565" lon="-2.70819">
        <ele>745.829101</ele>
        <time>2022-09-01T03:52:24.940Z</time>
      </trkpt>
      <trkpt lat="39.5563" lon="-2.7083">
        <ele>745.361096</ele>
        <time>2022-09-01T03:52:28.976Z</time>
      </trkpt>
      <trkpt lat="39.55619" lon="-2.70836">
        <ele>745.087962</ele>
        <time>2022-09-01T03:52:31.022Z</time>
      </trkpt>
      <trkpt lat="39.55602" lon="-2.70845">
        <ele>744.621795</ele>
        <time>2022-09-01T03:52:34.438Z</time>
      </trkpt>
      <trkpt lat="39.5557" lon="-2.70861">
        <ele>743.776774</ele>
        <time>2022-09-01T03:52:40.565Z</time>
      </trkpt>
      <trkpt lat="39.55528" lon="-2.70881">
        <ele>742.684679</ele>
        <time>2022-09-01T03:52:48.387Z</time>
      </trkpt>
      <trkpt lat="39.55438" lon="-2.70926">
        <ele>740.392584</ele>
        <time>2022-09-01T03:53:05.144Z</time>
      </trkpt>
      <trkpt lat="39.55344" lon="-2.70973">
        <ele>738.145345</ele>
        <time>2022-09-01T03:53:23.019Z</time>
      </trkpt>
      <trkpt lat="39.55306" lon="-2.70993">
        <ele>737.254243</ele>
        <time>2022-09-01T03:53:30.774Z</time>
      </trkpt>
      <trkpt lat="39.55196" lon="-2.71048">
        <ele>736.263989</ele>
        <time>2022-09-01T03:53:54.726Z</time>
      </trkpt>
      <trkpt lat="39.55083" lon="-2.71104">
        <ele>735.540903</ele>
        <time>2022-09-01T03:54:20.200Z</time>
      </trkpt>
      <trkpt lat="39.55084" lon="-2.71118">
        <ele>735.500385</ele>
        <time>2022-09-01T03:54:22.514Z</time>
      </trkpt>
      <trkpt lat="39.55075" lon="-2.71133">
        <ele>735.447243</ele>
        <time>2022-09-01T03:54:25.609Z</time>
      </trkpt>
      <trkpt lat="39.5506" lon="-2.71136">
        <ele>735.389559</ele>
        <time>2022-09-01T03:54:29.002Z</time>
      </trkpt>
      <trkpt lat="39.55049" lon="-2.71126">
        <ele>735.340298</ele>
        <time>2022-09-01T03:54:31.831Z</time>
      </trkpt>
      <trkpt lat="39.54037" lon="-2.7163">
        <ele>729.545607</ele>
        <time>2022-09-01T03:58:19.955Z</time>
      </trkpt>
      <trkpt lat="39.53892" lon="-2.71704">
        <ele>727.449982</ele>
        <time>2022-09-01T03:58:47.249Z</time>
      </trkpt>
      <trkpt lat="39.51952" lon="-2.72682">
        <ele>728.346571</ele>
        <time>2022-09-01T04:06:40.731Z</time>
      </trkpt>
      <trkpt lat="39.51109" lon="-2.73106">
        <ele>730.116339</ele>
        <time>2022-09-01T04:10:12.428Z</time>
      </trkpt>
      <trkpt lat="39.50309" lon="-2.73508">
        <ele>723.449921</ele>
        <time>2022-09-01T04:13:05.652Z</time>
      </trkpt>
      <trkpt lat="39.49646" lon="-2.73841">
        <ele>723.101225</ele>
        <time>2022-09-01T04:15:45.001Z</time>
      </trkpt>
      <trkpt lat="39.49569" lon="-2.7388">
        <ele>722.108353</ele>
        <time>2022-09-01T04:16:01.598Z</time>
      </trkpt>
      <trkpt lat="39.49026" lon="-2.74153">
        <ele>713.371923</ele>
        <time>2022-09-01T04:17:50.369Z</time>
      </trkpt>
      <trkpt lat="39.4878" lon="-2.74276">
        <ele>713.638924</ele>
        <time>2022-09-01T04:18:54.267Z</time>
      </trkpt>
      <trkpt lat="39.48768" lon="-2.74294">
        <ele>713.825283</ele>
        <time>2022-09-01T04:18:59.142Z</time>
      </trkpt>
      <trkpt lat="39.48766" lon="-2.74301">
        <ele>713.877236</ele>
        <time>2022-09-01T04:19:00.540Z</time>
      </trkpt>
      <trkpt lat="39.48762" lon="-2.7431">
        <ele>713.962303</ele>
        <time>2022-09-01T04:19:02.831Z</time>
      </trkpt>
      <trkpt lat="39.48752" lon="-2.74316">
        <ele>714.076651</ele>
        <time>2022-09-01T04:19:06.058Z</time>
      </trkpt>
      <trkpt lat="39.48746" lon="-2.74315">
        <ele>714.134671</ele>
        <time>2022-09-01T04:19:07.642Z</time>
      </trkpt>
      <trkpt lat="39.48742" lon="-2.74314">
        <ele>714.177522</ele>
        <time>2022-09-01T04:19:08.772Z</time>
      </trkpt>
      <trkpt lat="39.48719" lon="-2.74307">
        <ele>714.413603</ele>
        <time>2022-09-01T04:19:15.563Z</time>
      </trkpt>
      <trkpt lat="39.48628" lon="-2.74353">
        <ele>715.4004</ele>
        <time>2022-09-01T04:19:43.019Z</time>
      </trkpt>
      <trkpt lat="39.48625" lon="-2.74354">
        <ele>715.421488</ele>
        <time>2022-09-01T04:19:43.889Z</time>
      </trkpt>
      <trkpt lat="39.48577" lon="-2.74381">
        <ele>715.704944</ele>
        <time>2022-09-01T04:19:57.703Z</time>
      </trkpt>
      <trkpt lat="39.48572" lon="-2.74367">
        <ele>715.768948</ele>
        <time>2022-09-01T04:20:00.394Z</time>
      </trkpt>
      <trkpt lat="39.4854" lon="-2.74375">
        <ele>715.946515</ele>
        <time>2022-09-01T04:20:09.068Z</time>
      </trkpt>
      <trkpt lat="39.4847" lon="-2.74346">
        <ele>716.344226</ele>
        <time>2022-09-01T04:20:27.545Z</time>
      </trkpt>
      <trkpt lat="39.48438" lon="-2.7433">
        <ele>716.278064</ele>
        <time>2022-09-01T04:20:35.540Z</time>
      </trkpt>
      <trkpt lat="39.48416" lon="-2.74319">
        <ele>716.18599</ele>
        <time>2022-09-01T04:20:40.756Z</time>
      </trkpt>
      <trkpt lat="39.48403" lon="-2.74313">
        <ele>716.132262</ele>
        <time>2022-09-01T04:20:43.854Z</time>
      </trkpt>
      <trkpt lat="39.48352" lon="-2.74272">
        <ele>715.895934</ele>
        <time>2022-09-01T04:20:56.920Z</time>
      </trkpt>
      <trkpt lat="39.48293" lon="-2.74227">
        <ele>715.588768</ele>
        <time>2022-09-01T04:21:11.458Z</time>
      </trkpt>
      <trkpt lat="39.48172" lon="-2.74129">
        <ele>714.559798</ele>
        <time>2022-09-01T04:21:41.754Z</time>
      </trkpt>
      <trkpt lat="39.48164" lon="-2.74113">
        <ele>714.453365</ele>
        <time>2022-09-01T04:21:44.940Z</time>
      </trkpt>
      <trkpt lat="39.48129" lon="-2.74038">
        <ele>714.296633</ele>
        <time>2022-09-01T04:21:59.695Z</time>
      </trkpt>
      <trkpt lat="39.47802" lon="-2.73429">
        <ele>713.788849</ele>
        <time>2022-09-01T04:24:10.899Z</time>
      </trkpt>
      <trkpt lat="39.47759" lon="-2.7336">
        <ele>713.944492</ele>
        <time>2022-09-01T04:24:27.433Z</time>
      </trkpt>
      <trkpt lat="39.47445" lon="-2.72977">
        <ele>717.959589</ele>
        <time>2022-09-01T04:26:28.655Z</time>
      </trkpt>
      <trkpt lat="39.47432" lon="-2.72962">
        <ele>718.145474</ele>
        <time>2022-09-01T04:26:33.624Z</time>
      </trkpt>
      <trkpt lat="39.47413" lon="-2.72937">
        <ele>718.44236</ele>
        <time>2022-09-01T04:26:41.665Z</time>
      </trkpt>
      <trkpt lat="39.47392" lon="-2.72891">
        <ele>718.883704</ele>
        <time>2022-09-01T04:26:53.481Z</time>
      </trkpt>
      <trkpt lat="39.47373" lon="-2.72872">
        <ele>719.134406</ele>
        <time>2022-09-01T04:27:00.547Z</time>
      </trkpt>
      <trkpt lat="39.47321" lon="-2.72833">
        <ele>719.234222</ele>
        <time>2022-09-01T04:27:18.065Z</time>
      </trkpt>
      <trkpt lat="39.473" lon="-2.72814">
        <ele>719.165833</ele>
        <time>2022-09-01T04:27:24.325Z</time>
      </trkpt>
      <trkpt lat="39.4728" lon="-2.72785">
        <ele>719.08364</ele>
        <time>2022-09-01T04:27:30.973Z</time>
      </trkpt>
      <trkpt lat="39.47227" lon="-2.72678">
        <ele>718.647424</ele>
        <time>2022-09-01T04:27:50.902Z</time>
      </trkpt>
      <trkpt lat="39.47201" lon="-2.72618">
        <ele>717.883307</ele>
        <time>2022-09-01T04:28:01.833Z</time>
      </trkpt>
      <trkpt lat="39.47163" lon="-2.72553">
        <ele>716.976659</ele>
        <time>2022-09-01T04:28:14.483Z</time>
      </trkpt>
      <trkpt lat="39.47098" lon="-2.72466">
        <ele>715.615433</ele>
        <time>2022-09-01T04:28:32.841Z</time>
      </trkpt>
      <trkpt lat="39.46752" lon="-2.71934">
        <ele>708.011386</ele>
        <time>2022-09-01T04:30:20.241Z</time>
      </trkpt>
      <trkpt lat="39.4669" lon="-2.718">
        <ele>706.761333</ele>
        <time>2022-09-01T04:30:45.759Z</time>
      </trkpt>
      <trkpt lat="39.46649" lon="-2.71727">
        <ele>705.780139</ele>
        <time>2022-09-01T04:31:00.088Z</time>
      </trkpt>
      <trkpt lat="39.46553" lon="-2.7149">
        <ele>702.951429</ele>
        <time>2022-09-01T04:31:40.392Z</time>
      </trkpt>
      <trkpt lat="39.46455" lon="-2.71347">
        <ele>701.864671</ele>
        <time>2022-09-01T04:32:12.154Z</time>
      </trkpt>
      <trkpt lat="39.46423" lon="-2.71262">
        <ele>701.953764</ele>
        <time>2022-09-01T04:32:30.557Z</time>
      </trkpt>
      <trkpt lat="39.46405" lon="-2.71197">
        <ele>702.018516</ele>
        <time>2022-09-01T04:32:44.257Z</time>
      </trkpt>
      <trkpt lat="39.46363" lon="-2.71112">
        <ele>702.268456</ele>
        <time>2022-09-01T04:33:04.190Z</time>
      </trkpt>
      <trkpt lat="39.46333" lon="-2.71032">
        <ele>702.502331</ele>
        <time>2022-09-01T04:33:21.313Z</time>
      </trkpt>
      <trkpt lat="39.46306" lon="-2.70982">
        <ele>702.64755</ele>
        <time>2022-09-01T04:33:32.466Z</time>
      </trkpt>
      <trkpt lat="39.46227" lon="-2.70867">
        <ele>702.78345</ele>
        <time>2022-09-01T04:33:59.922Z</time>
      </trkpt>
      <trkpt lat="39.46185" lon="-2.70822">
        <ele>702.847259</ele>
        <time>2022-09-01T04:34:13.244Z</time>
      </trkpt>
      <trkpt lat="39.4608" lon="-2.70706">
        <ele>703.284201</ele>
        <time>2022-09-01T04:34:47.573Z</time>
      </trkpt>
      <trkpt lat="39.46056" lon="-2.70662">
        <ele>703.414942</ele>
        <time>2022-09-01T04:34:58.147Z</time>
      </trkpt>
      <trkpt lat="39.46027" lon="-2.70586">
        <ele>703.11464</ele>
        <time>2022-09-01T04:35:13.716Z</time>
      </trkpt>
      <trkpt lat="39.45928" lon="-2.70419">
        <ele>702.002552</ele>
        <time>2022-09-01T04:35:47.996Z</time>
      </trkpt>
      <trkpt lat="39.45853" lon="-2.70253">
        <ele>700.321099</ele>
        <time>2022-09-01T04:36:17.843Z</time>
      </trkpt>
      <trkpt lat="39.45835" lon="-2.70222">
        <ele>700.188857</ele>
        <time>2022-09-01T04:36:24.035Z</time>
      </trkpt>
      <trkpt lat="39.4579" lon="-2.70164">
        <ele>699.911512</ele>
        <time>2022-09-01T04:36:37.713Z</time>
      </trkpt>
      <trkpt lat="39.45767" lon="-2.70121">
        <ele>699.735693</ele>
        <time>2022-09-01T04:36:46.960Z</time>
      </trkpt>
      <trkpt lat="39.45733" lon="-2.70025">
        <ele>699.875746</ele>
        <time>2022-09-01T04:37:08.050Z</time>
      </trkpt>
      <trkpt lat="39.45689" lon="-2.69883">
        <ele>700.480919</ele>
        <time>2022-09-01T04:37:39.310Z</time>
      </trkpt>
      <trkpt lat="39.45656" lon="-2.69754">
        <ele>700.455275</ele>
        <time>2022-09-01T04:38:04.606Z</time>
      </trkpt>
      <trkpt lat="39.45592" lon="-2.69502">
        <ele>699.942356</ele>
        <time>2022-09-01T04:38:49.504Z</time>
      </trkpt>
      <trkpt lat="39.45545" lon="-2.69339">
        <ele>699.881874</ele>
        <time>2022-09-01T04:39:19.877Z</time>
      </trkpt>
      <trkpt lat="39.455" lon="-2.69214">
        <ele>700.116404</ele>
        <time>2022-09-01T04:39:46.871Z</time>
      </trkpt>
      <trkpt lat="39.45421" lon="-2.69053">
        <ele>701.179912</ele>
        <time>2022-09-01T04:40:27.303Z</time>
      </trkpt>
      <trkpt lat="39.45398" lon="-2.68965">
        <ele>701.367716</ele>
        <time>2022-09-01T04:40:45.632Z</time>
      </trkpt>
      <trkpt lat="39.45392" lon="-2.68939">
        <ele>701.349088</ele>
        <time>2022-09-01T04:40:50.667Z</time>
      </trkpt>
      <trkpt lat="39.45386" lon="-2.68902">
        <ele>701.323151</ele>
        <time>2022-09-01T04:40:57.425Z</time>
      </trkpt>
      <trkpt lat="39.45378" lon="-2.68824">
        <ele>701.268948</ele>
        <time>2022-09-01T04:41:11.019Z</time>
      </trkpt>
      <trkpt lat="39.45366" lon="-2.68513">
        <ele>700.176751</ele>
        <time>2022-09-01T04:42:02.325Z</time>
      </trkpt>
      <trkpt lat="39.45341" lon="-2.68329">
        <ele>700.733867</ele>
        <time>2022-09-01T04:42:38.881Z</time>
      </trkpt>
      <trkpt lat="39.45322" lon="-2.6825">
        <ele>701.925687</ele>
        <time>2022-09-01T04:43:00.246Z</time>
      </trkpt>
      <trkpt lat="39.45304" lon="-2.68168">
        <ele>703.207062</ele>
        <time>2022-09-01T04:43:23.529Z</time>
      </trkpt>
      <trkpt lat="39.45306" lon="-2.68129">
        <ele>703.797209</ele>
        <time>2022-09-01T04:43:34.019Z</time>
      </trkpt>
      <trkpt lat="39.45319" lon="-2.68073">
        <ele>704.306555</ele>
        <time>2022-09-01T04:43:48.532Z</time>
      </trkpt>
      <trkpt lat="39.45319" lon="-2.68067">
        <ele>704.319171</ele>
        <time>2022-09-01T04:43:49.877Z</time>
      </trkpt>
      <trkpt lat="39.45305" lon="-2.68057">
        <ele>704.36795</ele>
        <time>2022-09-01T04:43:54.483Z</time>
      </trkpt>
      <trkpt lat="39.45308" lon="-2.68042">
        <ele>704.403358</ele>
        <time>2022-09-01T04:43:57.812Z</time>
      </trkpt>
      <trkpt lat="39.45322" lon="-2.68013">
        <ele>704.483735</ele>
        <time>2022-09-01T04:44:04.988Z</time>
      </trkpt>
      <trkpt lat="39.45269" lon="-2.67966">
        <ele>704.676325</ele>
        <time>2022-09-01T04:44:19.542Z</time>
      </trkpt>
      <trkpt lat="39.45296" lon="-2.67889">
        <ele>704.455253</ele>
        <time>2022-09-01T04:44:32.915Z</time>
      </trkpt>
      <trkpt lat="39.45264" lon="-2.67858">
        <ele>704.022651</ele>
        <time>2022-09-01T04:44:40.415Z</time>
      </trkpt>
      <trkpt lat="39.45243" lon="-2.67837">
        <ele>703.736814</ele>
        <time>2022-09-01T04:44:45.394Z</time>
      </trkpt>
      <trkpt lat="39.45217" lon="-2.6781">
        <ele>703.375138</ele>
        <time>2022-09-01T04:44:51.800Z</time>
      </trkpt>
      <trkpt lat="39.45147" lon="-2.67744">
        <ele>702.934502</ele>
        <time>2022-09-01T04:45:09.734Z</time>
      </trkpt>
      <trkpt lat="39.45124" lon="-2.67721">
        <ele>703.015954</ele>
        <time>2022-09-01T04:45:16.790Z</time>
      </trkpt>
      <trkpt lat="39.45113" lon="-2.67711">
        <ele>703.054776</ele>
        <time>2022-09-01T04:45:20.264Z</time>
      </trkpt>
      <trkpt lat="39.45064" lon="-2.67665">
        <ele>703.227416</ele>
        <time>2022-09-01T04:45:36.285Z</time>
      </trkpt>
      <trkpt lat="39.45041" lon="-2.67644">
        <ele>703.305392</ele>
        <time>2022-09-01T04:45:43.137Z</time>
      </trkpt>
      <trkpt lat="39.44975" lon="-2.67582">
        <ele>703.373802</ele>
        <time>2022-09-01T04:46:02.631Z</time>
      </trkpt>
      <trkpt lat="39.44949" lon="-2.67559">
        <ele>703.388436</ele>
        <time>2022-09-01T04:46:09.596Z</time>
      </trkpt>
      <trkpt lat="39.44902" lon="-2.67516">
        <ele>703.415742</ele>
        <time>2022-09-01T04:46:22.494Z</time>
      </trkpt>
      <trkpt lat="39.44896" lon="-2.67521">
        <ele>703.418985</ele>
        <time>2022-09-01T04:46:23.996Z</time>
      </trkpt>
      <trkpt lat="39.44889" lon="-2.67518">
        <ele>703.422272</ele>
        <time>2022-09-01T04:46:25.560Z</time>
      </trkpt>
      <trkpt lat="39.44888" lon="-2.67515">
        <ele>703.42363</ele>
        <time>2022-09-01T04:46:26.261Z</time>
      </trkpt>
      <trkpt lat="39.4488" lon="-2.67517">
        <ele>703.383128</ele>
        <time>2022-09-01T04:46:27.981Z</time>
      </trkpt>
      <trkpt lat="39.44869" lon="-2.67521">
        <ele>703.258175</ele>
        <time>2022-09-01T04:46:30.519Z</time>
      </trkpt>
      <trkpt lat="39.44807" lon="-2.6752">
        <ele>702.598725</ele>
        <time>2022-09-01T04:46:43.450Z</time>
      </trkpt>
      <trkpt lat="39.44796" lon="-2.67518">
        <ele>702.476278</ele>
        <time>2022-09-01T04:46:45.772Z</time>
      </trkpt>
      <trkpt lat="39.4474" lon="-2.67496">
        <ele>701.84871</ele>
        <time>2022-09-01T04:46:57.535Z</time>
      </trkpt>
      <trkpt lat="39.44669" lon="-2.67466">
        <ele>700.78314</ele>
        <time>2022-09-01T04:47:12.341Z</time>
      </trkpt>
      <trkpt lat="39.44661" lon="-2.67464">
        <ele>700.634075</ele>
        <time>2022-09-01T04:47:14.027Z</time>
      </trkpt>
      <trkpt lat="39.44638" lon="-2.67457">
        <ele>700.225771</ele>
        <time>2022-09-01T04:47:18.688Z</time>
      </trkpt>
      <trkpt lat="39.44626" lon="-2.6745">
        <ele>700.008032</ele>
        <time>2022-09-01T04:47:21.126Z</time>
      </trkpt>
      <trkpt lat="39.44581" lon="-2.67424">
        <ele>699.15934</ele>
        <time>2022-09-01T04:47:30.649Z</time>
      </trkpt>
      <trkpt lat="39.44529" lon="-2.67393">
        <ele>698.245725</ele>
        <time>2022-09-01T04:47:41.843Z</time>
      </trkpt>
      <trkpt lat="39.44493" lon="-2.67384">
        <ele>697.844407</ele>
        <time>2022-09-01T04:47:48.909Z</time>
      </trkpt>
      <trkpt lat="39.4447" lon="-2.67379">
        <ele>697.578419</ele>
        <time>2022-09-01T04:47:53.734Z</time>
      </trkpt>
      <trkpt lat="39.44442" lon="-2.67372">
        <ele>697.262753</ele>
        <time>2022-09-01T04:47:59.608Z</time>
      </trkpt>
      <trkpt lat="39.44425" lon="-2.67376">
        <ele>697.07587</ele>
        <time>2022-09-01T04:48:03.206Z</time>
      </trkpt>
      <trkpt lat="39.44421" lon="-2.67292">
        <ele>696.391021</ele>
        <time>2022-09-01T04:48:17.114Z</time>
      </trkpt>
      <trkpt lat="39.44345" lon="-2.6732">
        <ele>696.209535</ele>
        <time>2022-09-01T04:48:34.853Z</time>
      </trkpt>
      <trkpt lat="39.44303" lon="-2.67337">
        <ele>696.107002</ele>
        <time>2022-09-01T04:48:44.994Z</time>
      </trkpt>
      <trkpt lat="39.44285" lon="-2.6736">
        <ele>696.047761</ele>
        <time>2022-09-01T04:48:50.866Z</time>
      </trkpt>
      <trkpt lat="39.44283" lon="-2.67367">
        <ele>696.034809</ele>
        <time>2022-09-01T04:48:52.091Z</time>
      </trkpt>
      <trkpt lat="39.4427" lon="-2.67376">
        <ele>696.001768</ele>
        <time>2022-09-01T04:48:55.234Z</time>
      </trkpt>
      <trkpt lat="39.4426" lon="-2.67372">
        <ele>695.968613</ele>
        <time>2022-09-01T04:48:57.499Z</time>
      </trkpt>
      <trkpt lat="39.44258" lon="-2.67369">
        <ele>695.946839</ele>
        <time>2022-09-01T04:48:58.210Z</time>
      </trkpt>
      <trkpt lat="39.44236" lon="-2.67369">
        <ele>695.801898</ele>
        <time>2022-09-01T04:49:03.104Z</time>
      </trkpt>
      <trkpt lat="39.44221" lon="-2.67371">
        <ele>695.705493</ele>
        <time>2022-09-01T04:49:06.325Z</time>
      </trkpt>
      <trkpt lat="39.442" lon="-2.67383">
        <ele>695.553076</ele>
        <time>2022-09-01T04:49:11.323Z</time>
      </trkpt>
      <trkpt lat="39.44044" lon="-2.67439">
        <ele>694.367211</ele>
        <time>2022-09-01T04:49:45.392Z</time>
      </trkpt>
      <trkpt lat="39.44027" lon="-2.67435">
        <ele>694.207975</ele>
        <time>2022-09-01T04:49:49.030Z</time>
      </trkpt>
      <trkpt lat="39.44003" lon="-2.67429">
        <ele>693.977443</ele>
        <time>2022-09-01T04:49:54.254Z</time>
      </trkpt>
      <trkpt lat="39.43951" lon="-2.67424">
        <ele>693.501752</ele>
        <time>2022-09-01T04:50:05.037Z</time>
      </trkpt>
      <trkpt lat="39.4388" lon="-2.67415">
        <ele>692.928906</ele>
        <time>2022-09-01T04:50:19.937Z</time>
      </trkpt>
      <trkpt lat="39.43749" lon="-2.67492">
        <ele>691.978774</ele>
        <time>2022-09-01T04:50:50.825Z</time>
      </trkpt>
      <trkpt lat="39.4354" lon="-2.67488">
        <ele>691.95025</ele>
        <time>2022-09-01T04:51:39.662Z</time>
      </trkpt>
      <trkpt lat="39.43439" lon="-2.67497">
        <ele>692.129688</ele>
        <time>2022-09-01T04:52:03.764Z</time>
      </trkpt>
      <trkpt lat="39.4327" lon="-2.67447">
        <ele>692.939113</ele>
        <time>2022-09-01T04:52:46.147Z</time>
      </trkpt>
      <trkpt lat="39.43099" lon="-2.67379">
        <ele>694.828053</ele>
        <time>2022-09-01T04:53:38.966Z</time>
      </trkpt>
      <trkpt lat="39.42871" lon="-2.67323">
        <ele>697.508516</ele>
        <time>2022-09-01T04:54:48.218Z</time>
      </trkpt>
      <trkpt lat="39.4273" lon="-2.67353">
        <ele>697.28007</ele>
        <time>2022-09-01T04:55:20.440Z</time>
      </trkpt>
      <trkpt lat="39.42642" lon="-2.67361">
        <ele>696.909491</ele>
        <time>2022-09-01T04:55:38.894Z</time>
      </trkpt>
      <trkpt lat="39.42382" lon="-2.67334">
        <ele>695.727944</ele>
        <time>2022-09-01T04:56:35.843Z</time>
      </trkpt>
      <trkpt lat="39.42284" lon="-2.67276">
        <ele>695.604451</ele>
        <time>2022-09-01T04:57:02.264Z</time>
      </trkpt>
      <trkpt lat="39.42191" lon="-2.67179">
        <ele>695.666871</ele>
        <time>2022-09-01T04:57:30.769Z</time>
      </trkpt>
      <trkpt lat="39.42145" lon="-2.6716">
        <ele>695.319696</ele>
        <time>2022-09-01T04:57:41.351Z</time>
      </trkpt>
      <trkpt lat="39.41896" lon="-2.67117">
        <ele>693.633343</ele>
        <time>2022-09-01T04:58:33.027Z</time>
      </trkpt>
      <trkpt lat="39.41719" lon="-2.67121">
        <ele>694.184589</ele>
        <time>2022-09-01T04:59:19.968Z</time>
      </trkpt>
      <trkpt lat="39.41564" lon="-2.67149">
        <ele>695.12049</ele>
        <time>2022-09-01T05:00:04.121Z</time>
      </trkpt>
      <trkpt lat="39.41551" lon="-2.67151">
        <ele>695.178938</ele>
        <time>2022-09-01T05:00:07.443Z</time>
      </trkpt>
      <trkpt lat="39.41327" lon="-2.67113">
        <ele>695.139479</ele>
        <time>2022-09-01T05:00:58.616Z</time>
      </trkpt>
      <trkpt lat="39.41049" lon="-2.66964">
        <ele>693.723469</ele>
        <time>2022-09-01T05:02:03.343Z</time>
      </trkpt>
      <trkpt lat="39.40838" lon="-2.66874">
        <ele>693.878353</ele>
        <time>2022-09-01T05:02:56.086Z</time>
      </trkpt>
      <trkpt lat="39.40669" lon="-2.66801">
        <ele>694.955276</ele>
        <time>2022-09-01T05:03:44.450Z</time>
      </trkpt>
      <trkpt lat="39.40432" lon="-2.66728">
        <ele>696.169554</ele>
        <time>2022-09-01T05:04:48.889Z</time>
      </trkpt>
      <trkpt lat="39.40291" lon="-2.66638">
        <ele>695.049492</ele>
        <time>2022-09-01T05:05:21.428Z</time>
      </trkpt>
      <trkpt lat="39.40224" lon="-2.66586">
        <ele>694.880461</ele>
        <time>2022-09-01T05:05:38.172Z</time>
      </trkpt>
      <trkpt lat="39.40214" lon="-2.6659">
        <ele>694.868572</ele>
        <time>2022-09-01T05:05:41.971Z</time>
      </trkpt>
      <trkpt lat="39.40067" lon="-2.66593">
        <ele>694.866718</ele>
        <time>2022-09-01T05:06:38.670Z</time>
      </trkpt>
      <trkpt lat="39.39799" lon="-2.66501">
        <ele>695.491587</ele>
        <time>2022-09-01T05:08:25.042Z</time>
      </trkpt>
      <trkpt lat="39.39593" lon="-2.66411">
        <ele>695.523909</ele>
        <time>2022-09-01T05:09:45.430Z</time>
      </trkpt>
      <trkpt lat="39.39419" lon="-2.66398">
        <ele>695.553356</ele>
        <time>2022-09-01T05:10:50.188Z</time>
      </trkpt>
      <trkpt lat="39.3927" lon="-2.66447">
        <ele>695.268907</ele>
        <time>2022-09-01T05:11:46.886Z</time>
      </trkpt>
      <trkpt lat="39.39074" lon="-2.66589">
        <ele>694.37767</ele>
        <time>2022-09-01T05:13:06.956Z</time>
      </trkpt>
      <trkpt lat="39.39049" lon="-2.66595">
        <ele>694.291921</ele>
        <time>2022-09-01T05:13:16.085Z</time>
      </trkpt>
      <trkpt lat="39.38913" lon="-2.66591">
        <ele>693.827437</ele>
        <time>2022-09-01T05:14:05.359Z</time>
      </trkpt>
      <trkpt lat="39.38708" lon="-2.66564">
        <ele>692.935161</ele>
        <time>2022-09-01T05:15:18.877Z</time>
      </trkpt>
      <trkpt lat="39.38607" lon="-2.66501">
        <ele>693.120231</ele>
        <time>2022-09-01T05:16:00.427Z</time>
      </trkpt>
      <trkpt lat="39.38516" lon="-2.66465">
        <ele>693.515614</ele>
        <time>2022-09-01T05:16:39.405Z</time>
      </trkpt>
      <trkpt lat="39.38455" lon="-2.66408">
        <ele>694.02996</ele>
        <time>2022-09-01T05:17:10.749Z</time>
      </trkpt>
      <trkpt lat="39.38318" lon="-2.66346">
        <ele>694.294212</ele>
        <time>2022-09-01T05:18:07.601Z</time>
      </trkpt>
      <trkpt lat="39.38199" lon="-2.6632">
        <ele>693.949275</ele>
        <time>2022-09-01T05:18:50.412Z</time>
      </trkpt>
      <trkpt lat="39.38158" lon="-2.66323">
        <ele>693.653577</ele>
        <time>2022-09-01T05:19:04.468Z</time>
      </trkpt>
      <trkpt lat="39.38063" lon="-2.66306">
        <ele>692.961984</ele>
        <time>2022-09-01T05:19:37.524Z</time>
      </trkpt>
      <trkpt lat="39.37683" lon="-2.66253">
        <ele>691.866811</ele>
        <time>2022-09-01T05:21:56.734Z</time>
      </trkpt>
      <trkpt lat="39.37472" lon="-2.66234">
        <ele>691.926849</ele>
        <time>2022-09-01T05:23:15.065Z</time>
      </trkpt>
      <trkpt lat="39.37279" lon="-2.66207">
        <ele>692.355779</ele>
        <time>2022-09-01T05:24:30.560Z</time>
      </trkpt>
      <trkpt lat="39.36968" lon="-2.66023">
        <ele>692.490544</ele>
        <time>2022-09-01T05:26:37.259Z</time>
      </trkpt>
      <trkpt lat="39.36621" lon="-2.65851">
        <ele>692.305535</ele>
        <time>2022-09-01T05:28:54.657Z</time>
      </trkpt>
      <trkpt lat="39.36413" lon="-2.6576">
        <ele>691.987751</ele>
        <time>2022-09-01T05:30:14.300Z</time>
      </trkpt>
      <trkpt lat="39.35745" lon="-2.65568">
        <ele>691.68251</ele>
        <time>2022-09-01T05:34:27.425Z</time>
      </trkpt>
      <trkpt lat="39.35555" lon="-2.6552">
        <ele>691.360259</ele>
        <time>2022-09-01T05:35:38.966Z</time>
      </trkpt>
      <trkpt lat="39.35238" lon="-2.65429">
        <ele>689.737541</ele>
        <time>2022-09-01T05:37:34.080Z</time>
      </trkpt>
      <trkpt lat="39.35233" lon="-2.65422">
        <ele>689.722917</ele>
        <time>2022-09-01T05:37:36.428Z</time>
      </trkpt>
      <trkpt lat="39.34655" lon="-2.65257">
        <ele>689.049068</ele>
        <time>2022-09-01T05:41:13.022Z</time>
      </trkpt>
      <trkpt lat="39.34709" lon="-2.64944">
        <ele>690.72404</ele>
        <time>2022-09-01T05:42:55.463Z</time>
      </trkpt>
      <trkpt lat="39.34706" lon="-2.64918">
        <ele>690.902218</ele>
        <time>2022-09-01T05:43:03.996Z</time>
      </trkpt>
      <trkpt lat="39.34699" lon="-2.64907">
        <ele>691.019757</ele>
        <time>2022-09-01T05:43:08.448Z</time>
      </trkpt>
      <trkpt lat="39.34437" lon="-2.64809">
        <ele>694.522285</ele>
        <time>2022-09-01T05:45:06.251Z</time>
      </trkpt>
      <trkpt lat="39.34412" lon="-2.64777">
        <ele>695.053609</ele>
        <time>2022-09-01T05:45:22.328Z</time>
      </trkpt>
      <trkpt lat="39.34318" lon="-2.64756">
        <ele>696.650692</ele>
        <time>2022-09-01T05:46:06.713Z</time>
      </trkpt>
      <trkpt lat="39.34257" lon="-2.64722">
        <ele>697.842863</ele>
        <time>2022-09-01T05:46:37.881Z</time>
      </trkpt>
      <trkpt lat="39.34205" lon="-2.64719">
        <ele>698.773091</ele>
        <time>2022-09-01T05:47:01.223Z</time>
      </trkpt>
      <trkpt lat="39.34144" lon="-2.647">
        <ele>699.689751</ele>
        <time>2022-09-01T05:47:29.374Z</time>
      </trkpt>
      <trkpt lat="39.34111" lon="-2.64685">
        <ele>700.185827</ele>
        <time>2022-09-01T05:47:45.188Z</time>
      </trkpt>
      <trkpt lat="39.34072" lon="-2.64649">
        <ele>700.846129</ele>
        <time>2022-09-01T05:48:06.055Z</time>
      </trkpt>
      <trkpt lat="39.34058" lon="-2.64648">
        <ele>701.049356</ele>
        <time>2022-09-01T05:48:12.468Z</time>
      </trkpt>
      <trkpt lat="39.34049" lon="-2.64657">
        <ele>701.204204</ele>
        <time>2022-09-01T05:48:17.280Z</time>
      </trkpt>
      <trkpt lat="39.34032" lon="-2.64654">
        <ele>701.444845</ele>
        <time>2022-09-01T05:48:24.807Z</time>
      </trkpt>
      <trkpt lat="39.33998" lon="-2.64642">
        <ele>701.610878</ele>
        <time>2022-09-01T05:48:39.777Z</time>
      </trkpt>
      <trkpt lat="39.33978" lon="-2.64623">
        <ele>701.728296</ele>
        <time>2022-09-01T05:48:50.160Z</time>
      </trkpt>
      <trkpt lat="39.33951" lon="-2.6462">
        <ele>701.852029</ele>
        <time>2022-09-01T05:49:00.843Z</time>
      </trkpt>
      <trkpt lat="39.33943" lon="-2.64612">
        <ele>701.898966</ele>
        <time>2022-09-01T05:49:04.838Z</time>
      </trkpt>
      <trkpt lat="39.33928" lon="-2.64576">
        <ele>702.048824</ele>
        <time>2022-09-01T05:49:17.351Z</time>
      </trkpt>
      <trkpt lat="39.33904" lon="-2.64545">
        <ele>702.20875</ele>
        <time>2022-09-01T05:49:30.104Z</time>
      </trkpt>
      <trkpt lat="39.33902" lon="-2.64494">
        <ele>702.092607</ele>
        <time>2022-09-01T05:49:44.256Z</time>
      </trkpt>
      <trkpt lat="39.33884" lon="-2.64403">
        <ele>701.472781</ele>
        <time>2022-09-01T05:50:09.825Z</time>
      </trkpt>
      <trkpt lat="39.33882" lon="-2.64358">
        <ele>701.181294</ele>
        <time>2022-09-01T05:50:21.785Z</time>
      </trkpt>
      <trkpt lat="39.3388" lon="-2.64347">
        <ele>701.105532</ele>
        <time>2022-09-01T05:50:24.713Z</time>
      </trkpt>
      <trkpt lat="39.33872" lon="-2.64339">
        <ele>701.020754</ele>
        <time>2022-09-01T05:50:28.249Z</time>
      </trkpt>
      <trkpt lat="39.33844" lon="-2.64327">
        <ele>700.775204</ele>
        <time>2022-09-01T05:50:37.897Z</time>
      </trkpt>
      <trkpt lat="39.33741" lon="-2.64255">
        <ele>699.616705</ele>
        <time>2022-09-01T05:51:17.815Z</time>
      </trkpt>
      <trkpt lat="39.33727" lon="-2.64232">
        <ele>699.391559</ele>
        <time>2022-09-01T05:51:25.657Z</time>
      </trkpt>
      <trkpt lat="39.3362" lon="-2.636">
        <ele>696.539435</ele>
        <time>2022-09-01T05:54:25.675Z</time>
      </trkpt>
      <trkpt lat="39.3362" lon="-2.6358">
        <ele>696.37695</ele>
        <time>2022-09-01T05:54:30.986Z</time>
      </trkpt>
      <trkpt lat="39.33637" lon="-2.63493">
        <ele>695.58543</ele>
        <time>2022-09-01T05:54:53.833Z</time>
      </trkpt>
      <trkpt lat="39.33641" lon="-2.63439">
        <ele>694.464079</ele>
        <time>2022-09-01T05:55:07.172Z</time>
      </trkpt>
      <trkpt lat="39.33603" lon="-2.6323">
        <ele>690.52908</ele>
        <time>2022-09-01T05:55:58.507Z</time>
      </trkpt>
      <trkpt lat="39.33581" lon="-2.63096">
        <ele>689.279125</ele>
        <time>2022-09-01T05:56:33.968Z</time>
      </trkpt>
      <trkpt lat="39.33557" lon="-2.63075">
        <ele>688.937744</ele>
        <time>2022-09-01T05:56:45.083Z</time>
      </trkpt>
      <trkpt lat="39.33546" lon="-2.63053">
        <ele>688.940459</ele>
        <time>2022-09-01T05:56:53.407Z</time>
      </trkpt>
      <trkpt lat="39.33514" lon="-2.63008">
        <ele>690.0083</ele>
        <time>2022-09-01T05:57:14.973Z</time>
      </trkpt>
      <trkpt lat="39.33435" lon="-2.62964">
        <ele>691.9226</ele>
        <time>2022-09-01T05:57:57.415Z</time>
      </trkpt>
      <trkpt lat="39.3341" lon="-2.6295">
        <ele>692.532123</ele>
        <time>2022-09-01T05:58:08.170Z</time>
      </trkpt>
      <trkpt lat="39.33356" lon="-2.62916">
        <ele>694.207639</ele>
        <time>2022-09-01T05:58:32.657Z</time>
      </trkpt>
      <trkpt lat="39.33318" lon="-2.62884">
        <ele>695.572145</ele>
        <time>2022-09-01T05:58:51.032Z</time>
      </trkpt>
      <trkpt lat="39.33237" lon="-2.62799">
        <ele>698.394907</ele>
        <time>2022-09-01T05:59:29.116Z</time>
      </trkpt>
      <trkpt lat="39.33193" lon="-2.62747">
        <ele>699.305704</ele>
        <time>2022-09-01T05:59:48.864Z</time>
      </trkpt>
      <trkpt lat="39.33007" lon="-2.62574">
        <ele>701.724348</ele>
        <time>2022-09-01T06:00:52.552Z</time>
      </trkpt>
      <trkpt lat="39.32963" lon="-2.62524">
        <ele>702.074599</ele>
        <time>2022-09-01T06:01:06.828Z</time>
      </trkpt>
      <trkpt lat="39.32814" lon="-2.62323">
        <ele>701.628172</ele>
        <time>2022-09-01T06:01:55.269Z</time>
      </trkpt>
      <trkpt lat="39.32591" lon="-2.62159">
        <ele>700.651283</ele>
        <time>2022-09-01T06:02:51.815Z</time>
      </trkpt>
      <trkpt lat="39.32536" lon="-2.62112">
        <ele>700.399056</ele>
        <time>2022-09-01T06:03:06.524Z</time>
      </trkpt>
      <trkpt lat="39.32366" lon="-2.61998">
        <ele>699.616158</ele>
        <time>2022-09-01T06:03:49.226Z</time>
      </trkpt>
      <trkpt lat="39.32338" lon="-2.61969">
        <ele>699.223229</ele>
        <time>2022-09-01T06:03:56.968Z</time>
      </trkpt>
      <trkpt lat="39.32251" lon="-2.61853">
        <ele>697.861359</ele>
        <time>2022-09-01T06:04:22.422Z</time>
      </trkpt>
      <trkpt lat="39.32176" lon="-2.6178">
        <ele>696.279908</ele>
        <time>2022-09-01T06:04:40.660Z</time>
      </trkpt>
      <trkpt lat="39.32104" lon="-2.61677">
        <ele>694.531823</ele>
        <time>2022-09-01T06:05:01.598Z</time>
      </trkpt>
      <trkpt lat="39.32048" lon="-2.61624">
        <ele>693.726087</ele>
        <time>2022-09-01T06:05:15.366Z</time>
      </trkpt>
      <trkpt lat="39.31865" lon="-2.61482">
        <ele>692.594269</ele>
        <time>2022-09-01T06:06:00.869Z</time>
      </trkpt>
      <trkpt lat="39.31731" lon="-2.61356">
        <ele>694.312969</ele>
        <time>2022-09-01T06:06:49.269Z</time>
      </trkpt>
      <trkpt lat="39.31513" lon="-2.61138">
        <ele>699.760513</ele>
        <time>2022-09-01T06:08:25.139Z</time>
      </trkpt>
      <trkpt lat="39.31414" lon="-2.61028">
        <ele>701.193009</ele>
        <time>2022-09-01T06:09:02.183Z</time>
      </trkpt>
      <trkpt lat="39.31259" lon="-2.60889">
        <ele>701.984403</ele>
        <time>2022-09-01T06:09:48.382Z</time>
      </trkpt>
      <trkpt lat="39.31183" lon="-2.6084">
        <ele>702.252229</ele>
        <time>2022-09-01T06:10:08.930Z</time>
      </trkpt>
      <trkpt lat="39.31115" lon="-2.60818">
        <ele>702.476628</ele>
        <time>2022-09-01T06:10:26.139Z</time>
      </trkpt>
      <trkpt lat="39.31108" lon="-2.60816">
        <ele>702.498644</ele>
        <time>2022-09-01T06:10:27.864Z</time>
      </trkpt>
      <trkpt lat="39.30944" lon="-2.6075">
        <ele>703.407357</ele>
        <time>2022-09-01T06:11:12.149Z</time>
      </trkpt>
      <trkpt lat="39.30832" lon="-2.60723">
        <ele>704.336871</ele>
        <time>2022-09-01T06:11:42.894Z</time>
      </trkpt>
      <trkpt lat="39.30773" lon="-2.60712">
        <ele>704.913403</ele>
        <time>2022-09-01T06:11:59.450Z</time>
      </trkpt>
      <trkpt lat="39.30639" lon="-2.60725">
        <ele>706.573771</ele>
        <time>2022-09-01T06:12:39.320Z</time>
      </trkpt>
      <trkpt lat="39.30423" lon="-2.60716">
        <ele>709.436784</ele>
        <time>2022-09-01T06:13:45.205Z</time>
      </trkpt>
      <trkpt lat="39.30294" lon="-2.60718">
        <ele>710.896062</ele>
        <time>2022-09-01T06:14:20.693Z</time>
      </trkpt>
      <trkpt lat="39.30192" lon="-2.6073">
        <ele>711.93326</ele>
        <time>2022-09-01T06:14:49.264Z</time>
      </trkpt>
      <trkpt lat="39.29969" lon="-2.60716">
        <ele>715.644094</ele>
        <time>2022-09-01T06:16:00.721Z</time>
      </trkpt>
      <trkpt lat="39.2992" lon="-2.60702">
        <ele>716.444478</ele>
        <time>2022-09-01T06:16:16.731Z</time>
      </trkpt>
      <trkpt lat="39.29709" lon="-2.60684">
        <ele>719.620757</ele>
        <time>2022-09-01T06:17:21.399Z</time>
      </trkpt>
      <trkpt lat="39.2969" lon="-2.60683">
        <ele>719.886986</ele>
        <time>2022-09-01T06:17:27.029Z</time>
      </trkpt>
      <trkpt lat="39.29626" lon="-2.60663">
        <ele>720.773855</ele>
        <time>2022-09-01T06:17:46.833Z</time>
      </trkpt>
      <trkpt lat="39.29454" lon="-2.60585">
        <ele>722.977575</ele>
        <time>2022-09-01T06:18:40.315Z</time>
      </trkpt>
      <trkpt lat="39.29394" lon="-2.60562">
        <ele>723.553586</ele>
        <time>2022-09-01T06:18:58.004Z</time>
      </trkpt>
      <trkpt lat="39.2931" lon="-2.60545">
        <ele>724.332462</ele>
        <time>2022-09-01T06:19:20.984Z</time>
      </trkpt>
      <trkpt lat="39.29263" lon="-2.60527">
        <ele>724.643047</ele>
        <time>2022-09-01T06:19:33.945Z</time>
      </trkpt>
      <trkpt lat="39.29044" lon="-2.60486">
        <ele>725.09363</ele>
        <time>2022-09-01T06:20:31.104Z</time>
      </trkpt>
      <trkpt lat="39.28819" lon="-2.60419">
        <ele>722.778966</ele>
        <time>2022-09-01T06:21:17.854Z</time>
      </trkpt>
      <trkpt lat="39.28722" lon="-2.60378">
        <ele>721.230685</ele>
        <time>2022-09-01T06:21:37.711Z</time>
      </trkpt>
      <trkpt lat="39.28543" lon="-2.60383">
        <ele>718.834212</ele>
        <time>2022-09-01T06:22:13.476Z</time>
      </trkpt>
      <trkpt lat="39.28423" lon="-2.60395">
        <ele>717.901985</ele>
        <time>2022-09-01T06:22:39.616Z</time>
      </trkpt>
      <trkpt lat="39.28176" lon="-2.60366">
        <ele>718.26292</ele>
        <time>2022-09-01T06:23:39.397Z</time>
      </trkpt>
      <trkpt lat="39.28092" lon="-2.60345">
        <ele>718.514612</ele>
        <time>2022-09-01T06:24:00.591Z</time>
      </trkpt>
      <trkpt lat="39.28059" lon="-2.60343">
        <ele>718.627822</ele>
        <time>2022-09-01T06:24:08.820Z</time>
      </trkpt>
      <trkpt lat="39.28005" lon="-2.6034">
        <ele>719.082334</ele>
        <time>2022-09-01T06:24:22.136Z</time>
      </trkpt>
      <trkpt lat="39.27961" lon="-2.60338">
        <ele>719.465039</ele>
        <time>2022-09-01T06:24:33.823Z</time>
      </trkpt>
      <trkpt lat="39.27926" lon="-2.60336">
        <ele>719.76071</ele>
        <time>2022-09-01T06:24:43.149Z</time>
      </trkpt>
      <trkpt lat="39.27907" lon="-2.60334">
        <ele>719.926172</ele>
        <time>2022-09-01T06:24:48.649Z</time>
      </trkpt>
      <trkpt lat="39.27901" lon="-2.60342">
        <ele>720.000379</ele>
        <time>2022-09-01T06:24:51.254Z</time>
      </trkpt>
      <trkpt lat="39.27893" lon="-2.60339">
        <ele>720.074314</ele>
        <time>2022-09-01T06:24:53.866Z</time>
      </trkpt>
      <trkpt lat="39.27892" lon="-2.60333">
        <ele>720.112849</ele>
        <time>2022-09-01T06:24:55.175Z</time>
      </trkpt>
      <trkpt lat="39.27779" lon="-2.60322">
        <ele>723.192956</ele>
        <time>2022-09-01T06:25:34.846Z</time>
      </trkpt>
      <trkpt lat="39.27721" lon="-2.60311">
        <ele>724.825861</ele>
        <time>2022-09-01T06:25:58.846Z</time>
      </trkpt>
      <trkpt lat="39.27641" lon="-2.60287">
        <ele>727.733076</ele>
        <time>2022-09-01T06:26:34.272Z</time>
      </trkpt>
      <trkpt lat="39.27575" lon="-2.60296">
        <ele>730.140831</ele>
        <time>2022-09-01T06:27:02.142Z</time>
      </trkpt>
      <trkpt lat="39.27572" lon="-2.60296">
        <ele>730.265117</ele>
        <time>2022-09-01T06:27:03.568Z</time>
      </trkpt>
      <trkpt lat="39.27545" lon="-2.603">
        <ele>731.268454</ele>
        <time>2022-09-01T06:27:14.662Z</time>
      </trkpt>
      <trkpt lat="39.27507" lon="-2.60307">
        <ele>732.026476</ele>
        <time>2022-09-01T06:27:28.973Z</time>
      </trkpt>
      <trkpt lat="39.27422" lon="-2.60332">
        <ele>733.056253</ele>
        <time>2022-09-01T06:27:55.106Z</time>
      </trkpt>
      <trkpt lat="39.27405" lon="-2.60337">
        <ele>733.265084</ele>
        <time>2022-09-01T06:27:59.481Z</time>
      </trkpt>
      <trkpt lat="39.27377" lon="-2.60345">
        <ele>733.602425</ele>
        <time>2022-09-01T06:28:06.040Z</time>
      </trkpt>
      <trkpt lat="39.27369" lon="-2.60347">
        <ele>733.699859</ele>
        <time>2022-09-01T06:28:07.780Z</time>
      </trkpt>
      <trkpt lat="39.27352" lon="-2.60353">
        <ele>733.752157</ele>
        <time>2022-09-01T06:28:11.460Z</time>
      </trkpt>
      <trkpt lat="39.2731" lon="-2.60361">
        <ele>732.865978</ele>
        <time>2022-09-01T06:28:19.631Z</time>
      </trkpt>
      <trkpt lat="39.2727" lon="-2.6035">
        <ele>732.014534</ele>
        <time>2022-09-01T06:28:27.068Z</time>
      </trkpt>
      <trkpt lat="39.2723" lon="-2.60336">
        <ele>731.148546</ele>
        <time>2022-09-01T06:28:34.353Z</time>
      </trkpt>
      <trkpt lat="39.27208" lon="-2.60335">
        <ele>730.69865</ele>
        <time>2022-09-01T06:28:38.073Z</time>
      </trkpt>
      <trkpt lat="39.27189" lon="-2.60335">
        <ele>730.298736</ele>
        <time>2022-09-01T06:28:41.402Z</time>
      </trkpt>
      <trkpt lat="39.2716" lon="-2.60334">
        <ele>729.72591</ele>
        <time>2022-09-01T06:28:46.354Z</time>
      </trkpt>
      <trkpt lat="39.27085" lon="-2.60302">
        <ele>728.16221</ele>
        <time>2022-09-01T06:29:00.377Z</time>
      </trkpt>
      <trkpt lat="39.27035" lon="-2.60284">
        <ele>727.1254</ele>
        <time>2022-09-01T06:29:10.182Z</time>
      </trkpt>
      <trkpt lat="39.26963" lon="-2.60275">
        <ele>726.47761</ele>
        <time>2022-09-01T06:29:25.114Z</time>
      </trkpt>
      <trkpt lat="39.26867" lon="-2.60269">
        <ele>726.303976</ele>
        <time>2022-09-01T06:29:46.815Z</time>
      </trkpt>
      <trkpt lat="39.26855" lon="-2.60268">
        <ele>726.282404</ele>
        <time>2022-09-01T06:29:49.450Z</time>
      </trkpt>
      <trkpt lat="39.26822" lon="-2.60252">
        <ele>726.222155</ele>
        <time>2022-09-01T06:29:57.371Z</time>
      </trkpt>
      <trkpt lat="39.26794" lon="-2.60239">
        <ele>726.180657</ele>
        <time>2022-09-01T06:30:04.491Z</time>
      </trkpt>
      <trkpt lat="39.26742" lon="-2.60214">
        <ele>726.10673</ele>
        <time>2022-09-01T06:30:16.774Z</time>
      </trkpt>
      <trkpt lat="39.26662" lon="-2.60176">
        <ele>725.990814</ele>
        <time>2022-09-01T06:30:35.328Z</time>
      </trkpt>
      <trkpt lat="39.26655" lon="-2.60173">
        <ele>725.953224</ele>
        <time>2022-09-01T06:30:36.820Z</time>
      </trkpt>
      <trkpt lat="39.26653" lon="-2.60172">
        <ele>725.93622</ele>
        <time>2022-09-01T06:30:37.285Z</time>
      </trkpt>
      <trkpt lat="39.26617" lon="-2.60157">
        <ele>725.629137</ele>
        <time>2022-09-01T06:30:45.045Z</time>
      </trkpt>
      <trkpt lat="39.26617" lon="-2.60153">
        <ele>725.604532</ele>
        <time>2022-09-01T06:30:45.708Z</time>
      </trkpt>
      <trkpt lat="39.26617" lon="-2.60152">
        <ele>725.595189</ele>
        <time>2022-09-01T06:30:45.950Z</time>
      </trkpt>
      <trkpt lat="39.26575" lon="-2.60136">
        <ele>725.248001</ele>
        <time>2022-09-01T06:30:55.246Z</time>
      </trkpt>
      <trkpt lat="39.26524" lon="-2.60118">
        <ele>724.831713</ele>
        <time>2022-09-01T06:31:06.333Z</time>
      </trkpt>
      <trkpt lat="39.2652" lon="-2.6013">
        <ele>724.755267</ele>
        <time>2022-09-01T06:31:08.471Z</time>
      </trkpt>
      <trkpt lat="39.26469" lon="-2.60109">
        <ele>724.110564</ele>
        <time>2022-09-01T06:31:19.604Z</time>
      </trkpt>
      <trkpt lat="39.2646" lon="-2.60131">
        <ele>723.824044</ele>
        <time>2022-09-01T06:31:23.555Z</time>
      </trkpt>
      <trkpt lat="39.26408" lon="-2.60264">
        <ele>722.082089</ele>
        <time>2022-09-01T06:31:46.374Z</time>
      </trkpt>
      <trkpt lat="39.26404" lon="-2.60264">
        <ele>722.019682</ele>
        <time>2022-09-01T06:31:47.119Z</time>
      </trkpt>
      <trkpt lat="39.26345" lon="-2.60265">
        <ele>720.828511</ele>
        <time>2022-09-01T06:31:57.792Z</time>
      </trkpt>
      <trkpt lat="39.26332" lon="-2.60265">
        <ele>720.551633</ele>
        <time>2022-09-01T06:32:00.137Z</time>
      </trkpt>
      <trkpt lat="39.26297" lon="-2.60265">
        <ele>719.79613</ele>
        <time>2022-09-01T06:32:06.519Z</time>
      </trkpt>
      <trkpt lat="39.26271" lon="-2.60266">
        <ele>719.246644</ele>
        <time>2022-09-01T06:32:11.185Z</time>
      </trkpt>
      <trkpt lat="39.26245" lon="-2.60266">
        <ele>718.684304</ele>
        <time>2022-09-01T06:32:15.933Z</time>
      </trkpt>
      <trkpt lat="39.26193" lon="-2.60267">
        <ele>717.629099</ele>
        <time>2022-09-01T06:32:25.325Z</time>
      </trkpt>
      <trkpt lat="39.26138" lon="-2.60268">
        <ele>716.612274</ele>
        <time>2022-09-01T06:32:35.257Z</time>
      </trkpt>
      <trkpt lat="39.26088" lon="-2.60269">
        <ele>715.694744</ele>
        <time>2022-09-01T06:32:44.290Z</time>
      </trkpt>
      <trkpt lat="39.26081" lon="-2.60268">
        <ele>715.571032</ele>
        <time>2022-09-01T06:32:45.550Z</time>
      </trkpt>
      <trkpt lat="39.26016" lon="-2.6026">
        <ele>714.583985</ele>
        <time>2022-09-01T06:32:58.484Z</time>
      </trkpt>
      <trkpt lat="39.26014" lon="-2.60259">
        <ele>714.568922</ele>
        <time>2022-09-01T06:32:59.034Z</time>
      </trkpt>
      <trkpt lat="39.25972" lon="-2.60254">
        <ele>714.337066</ele>
        <time>2022-09-01T06:33:07.502Z</time>
      </trkpt>
      <trkpt lat="39.25964" lon="-2.60253">
        <ele>714.293821</ele>
        <time>2022-09-01T06:33:09.055Z</time>
      </trkpt>
      <trkpt lat="39.25938" lon="-2.60264">
        <ele>714.142211</ele>
        <time>2022-09-01T06:33:14.690Z</time>
      </trkpt>
      <trkpt lat="39.25937" lon="-2.60266">
        <ele>714.133978</ele>
        <time>2022-09-01T06:33:15.007Z</time>
      </trkpt>
      <trkpt lat="39.25927" lon="-2.6027">
        <ele>714.075909</ele>
        <time>2022-09-01T06:33:17.180Z</time>
      </trkpt>
      <trkpt lat="39.2592" lon="-2.60265">
        <ele>714.031359</ele>
        <time>2022-09-01T06:33:18.905Z</time>
      </trkpt>
      <trkpt lat="39.25917" lon="-2.60261">
        <ele>714.008303</ele>
        <time>2022-09-01T06:33:19.756Z</time>
      </trkpt>
      <trkpt lat="39.25889" lon="-2.60243">
        <ele>713.835347</ele>
        <time>2022-09-01T06:33:26.458Z</time>
      </trkpt>
      <trkpt lat="39.25556" lon="-2.60204">
        <ele>714.176904</ele>
        <time>2022-09-01T06:34:43.147Z</time>
      </trkpt>
      <trkpt lat="39.25396" lon="-2.60186">
        <ele>715.338984</ele>
        <time>2022-09-01T06:35:23.338Z</time>
      </trkpt>
      <trkpt lat="39.25357" lon="-2.6019">
        <ele>715.713221</ele>
        <time>2022-09-01T06:35:34.553Z</time>
      </trkpt>
      <trkpt lat="39.25346" lon="-2.60192">
        <ele>715.814156</ele>
        <time>2022-09-01T06:35:37.670Z</time>
      </trkpt>
      <trkpt lat="39.25336" lon="-2.60189">
        <ele>715.917093</ele>
        <time>2022-09-01T06:35:40.856Z</time>
      </trkpt>
      <trkpt lat="39.253" lon="-2.60174">
        <ele>716.556598</ele>
        <time>2022-09-01T06:35:52.374Z</time>
      </trkpt>
      <trkpt lat="39.25283" lon="-2.60172">
        <ele>716.902062</ele>
        <time>2022-09-01T06:35:57.685Z</time>
      </trkpt>
      <trkpt lat="39.24975" lon="-2.60135">
        <ele>723.347475</ele>
        <time>2022-09-01T06:37:40.170Z</time>
      </trkpt>
      <trkpt lat="39.24869" lon="-2.60123">
        <ele>725.129833</ele>
        <time>2022-09-01T06:38:14.116Z</time>
      </trkpt>
      <trkpt lat="39.24858" lon="-2.60121">
        <ele>725.301538</ele>
        <time>2022-09-01T06:38:17.269Z</time>
      </trkpt>
      <trkpt lat="39.24788" lon="-2.60113">
        <ele>726.450384</ele>
        <time>2022-09-01T06:38:37.843Z</time>
      </trkpt>
      <trkpt lat="39.24776" lon="-2.60111">
        <ele>726.537789</ele>
        <time>2022-09-01T06:38:41.290Z</time>
      </trkpt>
      <trkpt lat="39.24651" lon="-2.60096">
        <ele>727.414475</ele>
        <time>2022-09-01T06:39:13.338Z</time>
      </trkpt>
      <trkpt lat="39.24435" lon="-2.60068">
        <ele>728.306028</ele>
        <time>2022-09-01T06:40:05.147Z</time>
      </trkpt>
      <trkpt lat="39.24127" lon="-2.59983">
        <ele>729.430576</ele>
        <time>2022-09-01T06:41:20.933Z</time>
      </trkpt>
      <trkpt lat="39.22984" lon="-2.59664">
        <ele>734.558593</ele>
        <time>2022-09-01T06:46:05.726Z</time>
      </trkpt>
      <trkpt lat="39.22302" lon="-2.59472">
        <ele>739.924003</ele>
        <time>2022-09-01T06:49:08.598Z</time>
      </trkpt>
      <trkpt lat="39.21338" lon="-2.59202">
        <ele>748.299987</ele>
        <time>2022-09-01T06:53:30.675Z</time>
      </trkpt>
      <trkpt lat="39.20182" lon="-2.58878">
        <ele>755.816894</ele>
        <time>2022-09-01T06:58:31.216Z</time>
      </trkpt>
      <trkpt lat="39.18613" lon="-2.58437">
        <ele>762.694005</ele>
        <time>2022-09-01T07:05:02.055Z</time>
      </trkpt>
      <trkpt lat="39.17815" lon="-2.58215">
        <ele>765.886695</ele>
        <time>2022-09-01T07:08:20.341Z</time>
      </trkpt>
      <trkpt lat="39.17755" lon="-2.58191">
        <ele>766.078109</ele>
        <time>2022-09-01T07:08:34.831Z</time>
      </trkpt>
      <trkpt lat="39.17485" lon="-2.58048">
        <ele>766.590899</ele>
        <time>2022-09-01T07:09:40.999Z</time>
      </trkpt>
      <trkpt lat="39.16543" lon="-2.57554">
        <ele>771.727439</ele>
        <time>2022-09-01T07:13:54.463Z</time>
      </trkpt>
      <trkpt lat="39.16074" lon="-2.57306">
        <ele>772.47231</ele>
        <time>2022-09-01T07:15:51.483Z</time>
      </trkpt>
      <trkpt lat="39.16031" lon="-2.57277">
        <ele>772.292147</ele>
        <time>2022-09-01T07:16:01.338Z</time>
      </trkpt>
      <trkpt lat="39.1597" lon="-2.57218">
        <ele>772.008661</ele>
        <time>2022-09-01T07:16:16.910Z</time>
      </trkpt>
      <trkpt lat="39.15944" lon="-2.57217">
        <ele>771.91061</ele>
        <time>2022-09-01T07:16:22.297Z</time>
      </trkpt>
      <trkpt lat="39.15482" lon="-2.57145">
        <ele>774.066153</ele>
        <time>2022-09-01T07:18:16.733Z</time>
      </trkpt>
      <trkpt lat="39.12871" lon="-2.56739">
        <ele>801.733757</ele>
        <time>2022-09-01T07:30:21.757Z</time>
      </trkpt>
      <trkpt lat="39.12659" lon="-2.56705">
        <ele>803.956167</ele>
        <time>2022-09-01T07:31:18.210Z</time>
      </trkpt>
      <trkpt lat="39.10082" lon="-2.56305">
        <ele>841.074199</ele>
        <time>2022-09-01T07:44:04.027Z</time>
      </trkpt>
      <trkpt lat="39.09783" lon="-2.56261">
        <ele>843.559651</ele>
        <time>2022-09-01T07:45:24.050Z</time>
      </trkpt>
      <trkpt lat="39.09713" lon="-2.56269">
        <ele>843.851928</ele>
        <time>2022-09-01T07:45:40.614Z</time>
      </trkpt>
      <trkpt lat="39.09452" lon="-2.56319">
        <ele>843.311816</ele>
        <time>2022-09-01T07:46:37.744Z</time>
      </trkpt>
      <trkpt lat="39.09294" lon="-2.56331">
        <ele>841.721441</ele>
        <time>2022-09-01T07:47:09.999Z</time>
      </trkpt>
      <trkpt lat="39.09201" lon="-2.56337">
        <ele>839.554991</ele>
        <time>2022-09-01T07:47:26.695Z</time>
      </trkpt>
      <trkpt lat="39.08994" lon="-2.56321">
        <ele>833.272749</ele>
        <time>2022-09-01T07:48:01.800Z</time>
      </trkpt>
      <trkpt lat="39.08922" lon="-2.56332">
        <ele>831.001312</ele>
        <time>2022-09-01T07:48:14.218Z</time>
      </trkpt>
      <trkpt lat="39.08899" lon="-2.56347">
        <ele>830.211524</ele>
        <time>2022-09-01T07:48:18.734Z</time>
      </trkpt>
      <trkpt lat="39.08839" lon="-2.56452">
        <ele>827.171604</ele>
        <time>2022-09-01T07:48:36.394Z</time>
      </trkpt>
      <trkpt lat="39.08826" lon="-2.5646">
        <ele>826.768478</ele>
        <time>2022-09-01T07:48:38.764Z</time>
      </trkpt>
      <trkpt lat="39.0881" lon="-2.56462">
        <ele>826.370042</ele>
        <time>2022-09-01T07:48:41.514Z</time>
      </trkpt>
      <trkpt lat="39.08784" lon="-2.56449">
        <ele>825.67652</ele>
        <time>2022-09-01T07:48:46.246Z</time>
      </trkpt>
      <trkpt lat="39.08776" lon="-2.56434">
        <ele>825.323033</ele>
        <time>2022-09-01T07:48:48.734Z</time>
      </trkpt>
      <trkpt lat="39.08759" lon="-2.56376">
        <ele>824.147402</ele>
        <time>2022-09-01T07:48:56.958Z</time>
      </trkpt>
      <trkpt lat="39.08721" lon="-2.56296">
        <ele>822.404561</ele>
        <time>2022-09-01T07:49:10.445Z</time>
      </trkpt>
      <trkpt lat="39.08708" lon="-2.5628">
        <ele>822.494773</ele>
        <time>2022-09-01T07:49:13.989Z</time>
      </trkpt>
      <trkpt lat="39.08682" lon="-2.56271">
        <ele>822.63296</ele>
        <time>2022-09-01T07:49:19.807Z</time>
      </trkpt>
      <trkpt lat="39.08663" lon="-2.56275">
        <ele>822.736116</ele>
        <time>2022-09-01T07:49:24.325Z</time>
      </trkpt>
      <trkpt lat="39.08645" lon="-2.56288">
        <ele>822.842999</ele>
        <time>2022-09-01T07:49:29.085Z</time>
      </trkpt>
      <trkpt lat="39.08638" lon="-2.56293">
        <ele>822.884794</ele>
        <time>2022-09-01T07:49:31.045Z</time>
      </trkpt>
      <trkpt lat="39.08565" lon="-2.56343">
        <ele>823.308833</ele>
        <time>2022-09-01T07:49:54.578Z</time>
      </trkpt>
      <trkpt lat="39.08478" lon="-2.56377">
        <ele>825.295832</ele>
        <time>2022-09-01T07:50:26.308Z</time>
      </trkpt>
      <trkpt lat="39.08287" lon="-2.56492">
        <ele>829.66629</ele>
        <time>2022-09-01T07:51:36.729Z</time>
      </trkpt>
      <trkpt lat="39.08245" lon="-2.56503">
        <ele>830.516235</ele>
        <time>2022-09-01T07:51:49.820Z</time>
      </trkpt>
      <trkpt lat="39.08217" lon="-2.56502">
        <ele>831.004874</ele>
        <time>2022-09-01T07:51:58.178Z</time>
      </trkpt>
      <trkpt lat="39.08189" lon="-2.56494">
        <ele>831.395693</ele>
        <time>2022-09-01T07:52:06.198Z</time>
      </trkpt>
      <trkpt lat="39.08105" lon="-2.56415">
        <ele>832.8366</ele>
        <time>2022-09-01T07:52:35.484Z</time>
      </trkpt>
      <trkpt lat="39.08021" lon="-2.56372">
        <ele>834.28702</ele>
        <time>2022-09-01T07:53:03.583Z</time>
      </trkpt>
      <trkpt lat="39.07859" lon="-2.56331">
        <ele>837.087989</ele>
        <time>2022-09-01T07:53:55.106Z</time>
      </trkpt>
      <trkpt lat="39.07773" lon="-2.56333">
        <ele>838.456347</ele>
        <time>2022-09-01T07:54:21.259Z</time>
      </trkpt>
      <trkpt lat="39.07712" lon="-2.56338">
        <ele>839.399403</ele>
        <time>2022-09-01T07:54:38.810Z</time>
      </trkpt>
      <trkpt lat="39.07675" lon="-2.56321">
        <ele>839.981572</ele>
        <time>2022-09-01T07:54:50.136Z</time>
      </trkpt>
      <trkpt lat="39.07459" lon="-2.5622">
        <ele>843.340162</ele>
        <time>2022-09-01T07:55:58.534Z</time>
      </trkpt>
      <trkpt lat="39.07418" lon="-2.56213">
        <ele>843.95354</ele>
        <time>2022-09-01T07:56:10.984Z</time>
      </trkpt>
      <trkpt lat="39.07308" lon="-2.5622">
        <ele>845.489768</ele>
        <time>2022-09-01T07:56:43.034Z</time>
      </trkpt>
      <trkpt lat="39.07212" lon="-2.56225">
        <ele>846.788587</ele>
        <time>2022-09-01T07:57:10.703Z</time>
      </trkpt>
      <trkpt lat="39.0579" lon="-2.56305">
        <ele>865.766422</ele>
        <time>2022-09-01T08:04:01.422Z</time>
      </trkpt>
      <trkpt lat="39.04348" lon="-2.56387">
        <ele>890.513906</ele>
        <time>2022-09-01T08:11:32.746Z</time>
      </trkpt>
      <trkpt lat="39.04328" lon="-2.56393">
        <ele>890.721235</ele>
        <time>2022-09-01T08:11:36.808Z</time>
      </trkpt>
      <trkpt lat="39.04318" lon="-2.56396">
        <ele>890.708036</ele>
        <time>2022-09-01T08:11:38.805Z</time>
      </trkpt>
      <trkpt lat="39.04307" lon="-2.56405">
        <ele>890.169347</ele>
        <time>2022-09-01T08:11:41.387Z</time>
      </trkpt>
      <trkpt lat="39.04301" lon="-2.56424">
        <ele>889.56346</ele>
        <time>2022-09-01T08:11:44.254Z</time>
      </trkpt>
      <trkpt lat="39.04301" lon="-2.56435">
        <ele>889.225685</ele>
        <time>2022-09-01T08:11:45.803Z</time>
      </trkpt>
      <trkpt lat="39.04317" lon="-2.56464">
        <ele>888.162573</ele>
        <time>2022-09-01T08:11:50.537Z</time>
      </trkpt>
      <trkpt lat="39.04438" lon="-2.5669">
        <ele>878.076208</ele>
        <time>2022-09-01T08:12:23.984Z</time>
      </trkpt>
      <trkpt lat="39.04479" lon="-2.56801">
        <ele>872.486753</ele>
        <time>2022-09-01T08:12:38.667Z</time>
      </trkpt>
      <trkpt lat="39.04496" lon="-2.56881">
        <ele>868.104433</ele>
        <time>2022-09-01T08:12:48.529Z</time>
      </trkpt>
      <trkpt lat="39.04503" lon="-2.56935">
        <ele>865.257913</ele>
        <time>2022-09-01T08:12:54.782Z</time>
      </trkpt>
      <trkpt lat="39.04505" lon="-2.56998">
        <ele>861.941896</ele>
        <time>2022-09-01T08:13:02.040Z</time>
      </trkpt>
      <trkpt lat="39.045" lon="-2.57091">
        <ele>858.606665</ele>
        <time>2022-09-01T08:13:13.024Z</time>
      </trkpt>
      <trkpt lat="39.04494" lon="-2.57126">
        <ele>857.380324</ele>
        <time>2022-09-01T08:13:17.537Z</time>
      </trkpt>
      <trkpt lat="39.04482" lon="-2.57179">
        <ele>855.50649</ele>
        <time>2022-09-01T08:13:24.777Z</time>
      </trkpt>
      <trkpt lat="39.04448" lon="-2.57276">
        <ele>853.781775</ele>
        <time>2022-09-01T08:13:39.958Z</time>
      </trkpt>
      <trkpt lat="39.0444" lon="-2.57295">
        <ele>853.860533</ele>
        <time>2022-09-01T08:13:43.899Z</time>
      </trkpt>
      <trkpt lat="39.04439" lon="-2.57298">
        <ele>853.875227</ele>
        <time>2022-09-01T08:13:44.759Z</time>
      </trkpt>
      <trkpt lat="39.04403" lon="-2.57277">
        <ele>854.062109</ele>
        <time>2022-09-01T08:13:55.450Z</time>
      </trkpt>
      <trkpt lat="39.0435" lon="-2.57243">
        <ele>854.337195</ele>
        <time>2022-09-01T08:14:13.246Z</time>
      </trkpt>
      <trkpt lat="39.04327" lon="-2.57229">
        <ele>854.494871</ele>
        <time>2022-09-01T08:14:21.555Z</time>
      </trkpt>
      <trkpt lat="39.04289" lon="-2.57193">
        <ele>855.249121</ele>
        <time>2022-09-01T08:14:36.802Z</time>
      </trkpt>
      <trkpt lat="39.04233" lon="-2.57189">
        <ele>856.149846</ele>
        <time>2022-09-01T08:14:53.144Z</time>
      </trkpt>
      <trkpt lat="39.04173" lon="-2.57159">
        <ele>857.178169</ele>
        <time>2022-09-01T08:15:11.810Z</time>
      </trkpt>
      <trkpt lat="39.0412" lon="-2.57165">
        <ele>858.282575</ele>
        <time>2022-09-01T08:15:27.780Z</time>
      </trkpt>
      <trkpt lat="39.04097" lon="-2.5718">
        <ele>858.833438</ele>
        <time>2022-09-01T08:15:36.963Z</time>
      </trkpt>
      <trkpt lat="39.04032" lon="-2.57253">
        <ele>860.69642</ele>
        <time>2022-09-01T08:16:07.677Z</time>
      </trkpt>
      <trkpt lat="39.04015" lon="-2.57285">
        <ele>861.269988</ele>
        <time>2022-09-01T08:16:17.336Z</time>
      </trkpt>
      <trkpt lat="39.03999" lon="-2.57298">
        <ele>861.432467</ele>
        <time>2022-09-01T08:16:23.632Z</time>
      </trkpt>
      <trkpt lat="39.03965" lon="-2.57288">
        <ele>861.735658</ele>
        <time>2022-09-01T08:16:33.905Z</time>
      </trkpt>
      <trkpt lat="39.03947" lon="-2.57274">
        <ele>861.918729</ele>
        <time>2022-09-01T08:16:39.262Z</time>
      </trkpt>
      <trkpt lat="39.03943" lon="-2.57263">
        <ele>862.002291</ele>
        <time>2022-09-01T08:16:42.116Z</time>
      </trkpt>
      <trkpt lat="39.03943" lon="-2.57217">
        <ele>862.317279</ele>
        <time>2022-09-01T08:16:51.700Z</time>
      </trkpt>
      <trkpt lat="39.0395" lon="-2.57136">
        <ele>862.690968</ele>
        <time>2022-09-01T08:17:06.979Z</time>
      </trkpt>
      <trkpt lat="39.0396" lon="-2.57089">
        <ele>862.284283</ele>
        <time>2022-09-01T08:17:14.098Z</time>
      </trkpt>
      <trkpt lat="39.03968" lon="-2.57077">
        <ele>862.159022</ele>
        <time>2022-09-01T08:17:16.124Z</time>
      </trkpt>
      <trkpt lat="39.04021" lon="-2.57043">
        <ele>861.531319</ele>
        <time>2022-09-01T08:17:27.091Z</time>
      </trkpt>
      <trkpt lat="39.04035" lon="-2.57025">
        <ele>861.324125</ele>
        <time>2022-09-01T08:17:30.863Z</time>
      </trkpt>
      <trkpt lat="39.04039" lon="-2.57013">
        <ele>861.216531</ele>
        <time>2022-09-01T08:17:33.093Z</time>
      </trkpt>
      <trkpt lat="39.04036" lon="-2.56991">
        <ele>861.036079</ele>
        <time>2022-09-01T08:17:36.325Z</time>
      </trkpt>
      <trkpt lat="39.03995" lon="-2.56934">
        <ele>861.433931</ele>
        <time>2022-09-01T08:17:50.703Z</time>
      </trkpt>
      <trkpt lat="39.03862" lon="-2.56848">
        <ele>863.321476</ele>
        <time>2022-09-01T08:18:35.800Z</time>
      </trkpt>
      <trkpt lat="39.03811" lon="-2.56779">
        <ele>864.856206</ele>
        <time>2022-09-01T08:19:01.463Z</time>
      </trkpt>
      <trkpt lat="39.03768" lon="-2.56666">
        <ele>866.862938</ele>
        <time>2022-09-01T08:19:33.315Z</time>
      </trkpt>
      <trkpt lat="39.03722" lon="-2.56619">
        <ele>867.772046</ele>
        <time>2022-09-01T08:19:50.889Z</time>
      </trkpt>
      <trkpt lat="39.037" lon="-2.56589">
        <ele>868.259324</ele>
        <time>2022-09-01T08:20:00.246Z</time>
      </trkpt>
      <trkpt lat="39.03622" lon="-2.56419">
        <ele>870.30021</ele>
        <time>2022-09-01T08:20:45.994Z</time>
      </trkpt>
      <trkpt lat="39.03569" lon="-2.56247">
        <ele>871.574597</ele>
        <time>2022-09-01T08:21:23.887Z</time>
      </trkpt>
      <trkpt lat="39.0355" lon="-2.56212">
        <ele>871.661752</ele>
        <time>2022-09-01T08:21:32.045Z</time>
      </trkpt>
      <trkpt lat="39.0352" lon="-2.56178">
        <ele>871.765822</ele>
        <time>2022-09-01T08:21:41.369Z</time>
      </trkpt>
      <trkpt lat="39.03262" lon="-2.5597">
        <ele>871.865704</ele>
        <time>2022-09-01T08:22:47.274Z</time>
      </trkpt>
      <trkpt lat="39.03197" lon="-2.55932">
        <ele>872.187556</ele>
        <time>2022-09-01T08:23:04.637Z</time>
      </trkpt>
      <trkpt lat="39.03135" lon="-2.55864">
        <ele>872.852603</ele>
        <time>2022-09-01T08:23:27.213Z</time>
      </trkpt>
      <trkpt lat="39.03059" lon="-2.55801">
        <ele>874.275448</ele>
        <time>2022-09-01T08:23:54.864Z</time>
      </trkpt>
      <trkpt lat="39.02825" lon="-2.55612">
        <ele>878.757681</ele>
        <time>2022-09-01T08:25:21.838Z</time>
      </trkpt>
      <trkpt lat="39.02764" lon="-2.55577">
        <ele>879.290068</ele>
        <time>2022-09-01T08:25:38.861Z</time>
      </trkpt>
      <trkpt lat="39.02538" lon="-2.55502">
        <ele>880.834542</ele>
        <time>2022-09-01T08:26:34.134Z</time>
      </trkpt>
      <trkpt lat="39.02503" lon="-2.55502">
        <ele>881.119419</ele>
        <time>2022-09-01T08:26:44.331Z</time>
      </trkpt>
      <trkpt lat="39.02338" lon="-2.55532">
        <ele>883.88278</ele>
        <time>2022-09-01T08:27:37.399Z</time>
      </trkpt>
      <trkpt lat="39.02308" lon="-2.5553">
        <ele>884.175848</ele>
        <time>2022-09-01T08:27:46.392Z</time>
      </trkpt>
      <trkpt lat="39.02284" lon="-2.55515">
        <ele>884.402372</ele>
        <time>2022-09-01T08:27:53.894Z</time>
      </trkpt>
      <trkpt lat="39.02193" lon="-2.55406">
        <ele>885.475294</ele>
        <time>2022-09-01T08:28:25.483Z</time>
      </trkpt>
      <trkpt lat="39.02167" lon="-2.55389">
        <ele>885.670241</ele>
        <time>2022-09-01T08:28:31.876Z</time>
      </trkpt>
      <trkpt lat="39.02149" lon="-2.55383">
        <ele>885.79257</ele>
        <time>2022-09-01T08:28:36.241Z</time>
      </trkpt>
      <trkpt lat="39.0199" lon="-2.5537">
        <ele>887.032559</ele>
        <time>2022-09-01T08:29:17.078Z</time>
      </trkpt>
      <trkpt lat="39.01782" lon="-2.55441">
        <ele>890.499622</ele>
        <time>2022-09-01T08:30:23.675Z</time>
      </trkpt>
      <trkpt lat="39.01743" lon="-2.55459">
        <ele>891.239534</ele>
        <time>2022-09-01T08:30:36.675Z</time>
      </trkpt>
      <trkpt lat="39.01648" lon="-2.55518">
        <ele>893.142589</ele>
        <time>2022-09-01T08:31:09.414Z</time>
      </trkpt>
      <trkpt lat="39.01595" lon="-2.55522">
        <ele>894.16644</ele>
        <time>2022-09-01T08:31:26.292Z</time>
      </trkpt>
      <trkpt lat="39.01478" lon="-2.55516">
        <ele>896.349587</ele>
        <time>2022-09-01T08:32:04.389Z</time>
      </trkpt>
      <trkpt lat="39.01425" lon="-2.55523">
        <ele>897.130578</ele>
        <time>2022-09-01T08:32:20.917Z</time>
      </trkpt>
      <trkpt lat="39.01392" lon="-2.55539">
        <ele>897.647192</ele>
        <time>2022-09-01T08:32:31.445Z</time>
      </trkpt>
      <trkpt lat="39.01347" lon="-2.55575">
        <ele>898.420697</ele>
        <time>2022-09-01T08:32:46.435Z</time>
      </trkpt>
      <trkpt lat="39.01331" lon="-2.55595">
        <ele>898.741151</ele>
        <time>2022-09-01T08:32:52.583Z</time>
      </trkpt>
      <trkpt lat="39.0131" lon="-2.55628">
        <ele>898.977914</ele>
        <time>2022-09-01T08:33:01.369Z</time>
      </trkpt>
      <trkpt lat="39.01268" lon="-2.55724">
        <ele>899.580661</ele>
        <time>2022-09-01T08:33:22.238Z</time>
      </trkpt>
      <trkpt lat="39.01246" lon="-2.5575">
        <ele>899.793312</ele>
        <time>2022-09-01T08:33:29.976Z</time>
      </trkpt>
      <trkpt lat="39.01231" lon="-2.5576">
        <ele>899.906738</ele>
        <time>2022-09-01T08:33:34.206Z</time>
      </trkpt>
      <trkpt lat="39.01215" lon="-2.55765">
        <ele>900.039314</ele>
        <time>2022-09-01T08:33:38.790Z</time>
      </trkpt>
      <trkpt lat="39.01178" lon="-2.55763">
        <ele>900.466655</ele>
        <time>2022-09-01T08:33:48.779Z</time>
      </trkpt>
      <trkpt lat="39.01057" lon="-2.55725">
        <ele>901.902473</ele>
        <time>2022-09-01T08:34:23.736Z</time>
      </trkpt>
      <trkpt lat="39.01028" lon="-2.55702">
        <ele>902.361047</ele>
        <time>2022-09-01T08:34:33.907Z</time>
      </trkpt>
      <trkpt lat="39.00933" lon="-2.55603">
        <ele>904.216498</ele>
        <time>2022-09-01T08:35:10.598Z</time>
      </trkpt>
      <trkpt lat="39.00906" lon="-2.55583">
        <ele>904.684288</ele>
        <time>2022-09-01T08:35:19.853Z</time>
      </trkpt>
      <trkpt lat="39.00755" lon="-2.55586">
        <ele>907.091458</ele>
        <time>2022-09-01T08:36:05.223Z</time>
      </trkpt>
      <trkpt lat="39.00727" lon="-2.55581">
        <ele>907.52528</ele>
        <time>2022-09-01T08:36:13.405Z</time>
      </trkpt>
      <trkpt lat="39.00414" lon="-2.55442">
        <ele>912.88151</ele>
        <time>2022-09-01T08:37:56.315Z</time>
      </trkpt>
      <trkpt lat="39.00387" lon="-2.55447">
        <ele>913.269009</ele>
        <time>2022-09-01T08:38:03.371Z</time>
      </trkpt>
      <trkpt lat="39.00224" lon="-2.55571">
        <ele>914.499099</ele>
        <time>2022-09-01T08:38:50.019Z</time>
      </trkpt>
      <trkpt lat="39.00202" lon="-2.55569">
        <ele>914.797273</ele>
        <time>2022-09-01T08:38:55.555Z</time>
      </trkpt>
      <trkpt lat="39.00185" lon="-2.55559">
        <ele>915.064466</ele>
        <time>2022-09-01T08:39:00.716Z</time>
      </trkpt>
      <trkpt lat="39.00152" lon="-2.55525">
        <ele>915.673209</ele>
        <time>2022-09-01T08:39:13.078Z</time>
      </trkpt>
      <trkpt lat="39.00107" lon="-2.55458">
        <ele>916.639343</ele>
        <time>2022-09-01T08:39:34.098Z</time>
      </trkpt>
      <trkpt lat="39.00049" lon="-2.55375">
        <ele>918.12453</ele>
        <time>2022-09-01T08:40:01.818Z</time>
      </trkpt>
      <trkpt lat="39.00015" lon="-2.55347">
        <ele>918.882411</ele>
        <time>2022-09-01T08:40:14.649Z</time>
      </trkpt>
      <trkpt lat="38.9996" lon="-2.55318">
        <ele>919.985107</ele>
        <time>2022-09-01T08:40:33.744Z</time>
      </trkpt>
      <trkpt lat="38.99934" lon="-2.55312">
        <ele>920.480429</ele>
        <time>2022-09-01T08:40:42.029Z</time>
      </trkpt>
      <trkpt lat="38.9987" lon="-2.55325">
        <ele>921.595769</ele>
        <time>2022-09-01T08:41:01.274Z</time>
      </trkpt>
      <trkpt lat="38.99847" lon="-2.55323">
        <ele>921.99477</ele>
        <time>2022-09-01T08:41:08.165Z</time>
      </trkpt>
      <trkpt lat="38.99766" lon="-2.5527">
        <ele>923.552851</ele>
        <time>2022-09-01T08:41:36.483Z</time>
      </trkpt>
      <trkpt lat="38.99748" lon="-2.55252">
        <ele>923.913489</ele>
        <time>2022-09-01T08:41:43.925Z</time>
      </trkpt>
      <trkpt lat="38.99727" lon="-2.55217">
        <ele>924.447446</ele>
        <time>2022-09-01T08:41:54.989Z</time>
      </trkpt>
      <trkpt lat="38.99664" lon="-2.55071">
        <ele>926.401986</ele>
        <time>2022-09-01T08:42:33.565Z</time>
      </trkpt>
      <trkpt lat="38.99598" lon="-2.54924">
        <ele>927.341788</ele>
        <time>2022-09-01T08:43:07.647Z</time>
      </trkpt>
      <trkpt lat="38.99567" lon="-2.54883">
        <ele>927.658605</ele>
        <time>2022-09-01T08:43:18.037Z</time>
      </trkpt>
      <trkpt lat="38.9954" lon="-2.54858">
        <ele>927.860278</ele>
        <time>2022-09-01T08:43:25.734Z</time>
      </trkpt>
      <trkpt lat="38.99488" lon="-2.54826">
        <ele>928.217338</ele>
        <time>2022-09-01T08:43:40.113Z</time>
      </trkpt>
      <trkpt lat="38.99434" lon="-2.54803">
        <ele>928.562914</ele>
        <time>2022-09-01T08:43:54.843Z</time>
      </trkpt>
      <trkpt lat="38.99296" lon="-2.54792">
        <ele>929.886503</ele>
        <time>2022-09-01T08:44:32.180Z</time>
      </trkpt>
      <trkpt lat="38.99244" lon="-2.54775">
        <ele>930.436923</ele>
        <time>2022-09-01T08:44:47.185Z</time>
      </trkpt>
      <trkpt lat="38.99196" lon="-2.54745">
        <ele>931.238333</ele>
        <time>2022-09-01T08:45:02.435Z</time>
      </trkpt>
      <trkpt lat="38.99043" lon="-2.54606">
        <ele>934.581786</ele>
        <time>2022-09-01T08:46:01.081Z</time>
      </trkpt>
      <trkpt lat="38.98885" lon="-2.54498">
        <ele>938.341197</ele>
        <time>2022-09-01T08:47:01.070Z</time>
      </trkpt>
      <trkpt lat="38.98808" lon="-2.54436">
        <ele>940.15465</ele>
        <time>2022-09-01T08:47:30.257Z</time>
      </trkpt>
      <trkpt lat="38.98492" lon="-2.5414">
        <ele>947.057013</ele>
        <time>2022-09-01T08:49:30.280Z</time>
      </trkpt>
      <trkpt lat="38.9836" lon="-2.54008">
        <ele>950.66697</ele>
        <time>2022-09-01T08:50:26.672Z</time>
      </trkpt>
      <trkpt lat="38.98271" lon="-2.5394">
        <ele>952.712401</ele>
        <time>2022-09-01T08:51:00.252Z</time>
      </trkpt>
      <trkpt lat="38.98246" lon="-2.53935">
        <ele>953.192169</ele>
        <time>2022-09-01T08:51:08.086Z</time>
      </trkpt>
      <trkpt lat="38.98171" lon="-2.53955">
        <ele>954.668841</ele>
        <time>2022-09-01T08:51:32.165Z</time>
      </trkpt>
      <trkpt lat="38.9815" lon="-2.53942">
        <ele>955.039249</ele>
        <time>2022-09-01T08:51:39.195Z</time>
      </trkpt>
      <trkpt lat="38.98044" lon="-2.53819">
        <ele>957.35739</ele>
        <time>2022-09-01T08:52:22.593Z</time>
      </trkpt>
      <trkpt lat="38.98018" lon="-2.5381">
        <ele>957.822306</ele>
        <time>2022-09-01T08:52:30.726Z</time>
      </trkpt>
      <trkpt lat="38.9795" lon="-2.53821">
        <ele>959.046866</ele>
        <time>2022-09-01T08:52:50.854Z</time>
      </trkpt>
      <trkpt lat="38.97919" lon="-2.5382">
        <ele>959.602535</ele>
        <time>2022-09-01T08:53:00.308Z</time>
      </trkpt>
      <trkpt lat="38.97852" lon="-2.53787">
        <ele>960.940933</ele>
        <time>2022-09-01T08:53:23.318Z</time>
      </trkpt>
      <trkpt lat="38.97817" lon="-2.53793">
        <ele>961.874248</ele>
        <time>2022-09-01T08:53:35.165Z</time>
      </trkpt>
      <trkpt lat="38.97694" lon="-2.53848">
        <ele>965.311533</ele>
        <time>2022-09-01T08:54:22.647Z</time>
      </trkpt>
      <trkpt lat="38.97613" lon="-2.53839">
        <ele>967.374937</ele>
        <time>2022-09-01T08:54:52.553Z</time>
      </trkpt>
      <trkpt lat="38.9757" lon="-2.53852">
        <ele>968.510084</ele>
        <time>2022-09-01T08:55:07.820Z</time>
      </trkpt>
      <trkpt lat="38.97535" lon="-2.5387">
        <ele>969.465414</ele>
        <time>2022-09-01T08:55:20.343Z</time>
      </trkpt>
      <trkpt lat="38.97455" lon="-2.53926">
        <ele>971.978965</ele>
        <time>2022-09-01T08:55:51.147Z</time>
      </trkpt>
      <trkpt lat="38.97426" lon="-2.53936">
        <ele>972.840108</ele>
        <time>2022-09-01T08:56:01.729Z</time>
      </trkpt>
      <trkpt lat="38.97183" lon="-2.53935">
        <ele>980.338713</ele>
        <time>2022-09-01T08:57:36.496Z</time>
      </trkpt>
      <trkpt lat="38.97056" lon="-2.53992">
        <ele>983.477498</ele>
        <time>2022-09-01T08:58:23.379Z</time>
      </trkpt>
      <trkpt lat="38.96999" lon="-2.5402">
        <ele>984.795761</ele>
        <time>2022-09-01T08:58:41.200Z</time>
      </trkpt>
      <trkpt lat="38.96943" lon="-2.54078">
        <ele>986.493353</ele>
        <time>2022-09-01T08:59:02.815Z</time>
      </trkpt>
      <trkpt lat="38.96933" lon="-2.54082">
        <ele>986.743176</ele>
        <time>2022-09-01T08:59:06.198Z</time>
      </trkpt>
      <trkpt lat="38.96905" lon="-2.54081">
        <ele>987.418522</ele>
        <time>2022-09-01T08:59:15.035Z</time>
      </trkpt>
      <trkpt lat="38.96874" lon="-2.54071">
        <ele>988.167854</ele>
        <time>2022-09-01T08:59:25.417Z</time>
      </trkpt>
      <trkpt lat="38.96177" lon="-2.53638">
        <ele>1018.91849</ele>
        <time>2022-09-01T09:04:56.346Z</time>
      </trkpt>
      <trkpt lat="38.96118" lon="-2.53624">
        <ele>1021.118626</ele>
        <time>2022-09-01T09:05:19.994Z</time>
      </trkpt>
      <trkpt lat="38.96044" lon="-2.53633">
        <ele>1023.84406</ele>
        <time>2022-09-01T09:05:49.795Z</time>
      </trkpt>
      <trkpt lat="38.96022" lon="-2.53646">
        <ele>1024.738962</ele>
        <time>2022-09-01T09:05:59.718Z</time>
      </trkpt>
      <trkpt lat="38.95993" lon="-2.53682">
        <ele>1026.466744</ele>
        <time>2022-09-01T09:06:16.333Z</time>
      </trkpt>
      <trkpt lat="38.95973" lon="-2.53693">
        <ele>1027.426824</ele>
        <time>2022-09-01T09:06:24.884Z</time>
      </trkpt>
      <trkpt lat="38.95924" lon="-2.53671">
        <ele>1029.762822</ele>
        <time>2022-09-01T09:06:47.481Z</time>
      </trkpt>
      <trkpt lat="38.95833" lon="-2.53588">
        <ele>1035.088589</ele>
        <time>2022-09-01T09:07:41.831Z</time>
      </trkpt>
      <trkpt lat="38.95724" lon="-2.53581">
        <ele>1040.889312</ele>
        <time>2022-09-01T09:08:35.945Z</time>
      </trkpt>
      <trkpt lat="38.95669" lon="-2.53603">
        <ele>1043.736709</ele>
        <time>2022-09-01T09:09:03.563Z</time>
      </trkpt>
      <trkpt lat="38.95624" lon="-2.53574">
        <ele>1045.943474</ele>
        <time>2022-09-01T09:09:27.055Z</time>
      </trkpt>
      <trkpt lat="38.95615" lon="-2.53573">
        <ele>1046.332167</ele>
        <time>2022-09-01T09:09:30.978Z</time>
      </trkpt>
      <trkpt lat="38.95597" lon="-2.53583">
        <ele>1047.194923</ele>
        <time>2022-09-01T09:09:39.713Z</time>
      </trkpt>
      <trkpt lat="38.95565" lon="-2.53621">
        <ele>1049.083552</ele>
        <time>2022-09-01T09:09:57.887Z</time>
      </trkpt>
      <trkpt lat="38.95545" lon="-2.53624">
        <ele>1049.95389</ele>
        <time>2022-09-01T09:10:05.871Z</time>
      </trkpt>
      <trkpt lat="38.95534" lon="-2.53618">
        <ele>1050.470855</ele>
        <time>2022-09-01T09:10:10.636Z</time>
      </trkpt>
      <trkpt lat="38.95485" lon="-2.53562">
        <ele>1052.699663</ele>
        <time>2022-09-01T09:10:36.971Z</time>
      </trkpt>
      <trkpt lat="38.95467" lon="-2.53553">
        <ele>1053.317509</ele>
        <time>2022-09-01T09:10:44.598Z</time>
      </trkpt>
      <trkpt lat="38.95394" lon="-2.53594">
        <ele>1055.972508</ele>
        <time>2022-09-01T09:11:16.723Z</time>
      </trkpt>
      <trkpt lat="38.95296" lon="-2.53567">
        <ele>1057.231754</ele>
        <time>2022-09-01T09:11:49.586Z</time>
      </trkpt>
      <trkpt lat="38.95276" lon="-2.53559">
        <ele>1057.394628</ele>
        <time>2022-09-01T09:11:54.848Z</time>
      </trkpt>
      <trkpt lat="38.95255" lon="-2.53581">
        <ele>1057.601632</ele>
        <time>2022-09-01T09:12:01.162Z</time>
      </trkpt>
      <trkpt lat="38.9523" lon="-2.53595">
        <ele>1057.817256</ele>
        <time>2022-09-01T09:12:07.055Z</time>
      </trkpt>
      <trkpt lat="38.95228" lon="-2.53596">
        <ele>1057.839395</ele>
        <time>2022-09-01T09:12:07.614Z</time>
      </trkpt>
      <trkpt lat="38.95225" lon="-2.53597">
        <ele>1057.861463</ele>
        <time>2022-09-01T09:12:08.170Z</time>
      </trkpt>
      <trkpt lat="38.95209" lon="-2.53601">
        <ele>1057.989846</ele>
        <time>2022-09-01T09:12:11.351Z</time>
      </trkpt>
      <trkpt lat="38.95193" lon="-2.53605">
        <ele>1057.632865</ele>
        <time>2022-09-01T09:12:14.381Z</time>
      </trkpt>
      <trkpt lat="38.95117" lon="-2.53624">
        <ele>1055.631309</ele>
        <time>2022-09-01T09:12:28.106Z</time>
      </trkpt>
      <trkpt lat="38.95061" lon="-2.53638">
        <ele>1054.166462</ele>
        <time>2022-09-01T09:12:37.869Z</time>
      </trkpt>
      <trkpt lat="38.9502" lon="-2.53647">
        <ele>1053.133058</ele>
        <time>2022-09-01T09:12:44.943Z</time>
      </trkpt>
      <trkpt lat="38.94964" lon="-2.53662">
        <ele>1051.783667</ele>
        <time>2022-09-01T09:12:54.927Z</time>
      </trkpt>
      <trkpt lat="38.94889" lon="-2.53681">
        <ele>1050.003357</ele>
        <time>2022-09-01T09:13:08.616Z</time>
      </trkpt>
      <trkpt lat="38.94823" lon="-2.53697">
        <ele>1048.809552</ele>
        <time>2022-09-01T09:13:21.435Z</time>
      </trkpt>
      <trkpt lat="38.9481" lon="-2.53706">
        <ele>1048.638023</ele>
        <time>2022-09-01T09:13:24.353Z</time>
      </trkpt>
      <trkpt lat="38.94809" lon="-2.53709">
        <ele>1048.604826</ele>
        <time>2022-09-01T09:13:24.910Z</time>
      </trkpt>
      <trkpt lat="38.94807" lon="-2.53712">
        <ele>1048.571377</ele>
        <time>2022-09-01T09:13:25.468Z</time>
      </trkpt>
      <trkpt lat="38.94802" lon="-2.53715">
        <ele>1048.502455</ele>
        <time>2022-09-01T09:13:26.624Z</time>
      </trkpt>
      <trkpt lat="38.948" lon="-2.53715">
        <ele>1048.488545</ele>
        <time>2022-09-01T09:13:26.874Z</time>
      </trkpt>
      <trkpt lat="38.94792" lon="-2.53708">
        <ele>1048.366663</ele>
        <time>2022-09-01T09:13:28.958Z</time>
      </trkpt>
      <trkpt lat="38.94791" lon="-2.53704">
        <ele>1048.331173</ele>
        <time>2022-09-01T09:13:29.578Z</time>
      </trkpt>
      <trkpt lat="38.94777" lon="-2.53685">
        <ele>1048.097599</ele>
        <time>2022-09-01T09:13:33.609Z</time>
      </trkpt>
      <trkpt lat="38.9475" lon="-2.53673">
        <ele>1047.769144</ele>
        <time>2022-09-01T09:13:39.285Z</time>
      </trkpt>
      <trkpt lat="38.94725" lon="-2.53669">
        <ele>1047.47597</ele>
        <time>2022-09-01T09:13:44.331Z</time>
      </trkpt>
      <trkpt lat="38.9462" lon="-2.53682">
        <ele>1045.809823</ele>
        <time>2022-09-01T09:14:05.203Z</time>
      </trkpt>
      <trkpt lat="38.94409" lon="-2.53708">
        <ele>1041.453228</ele>
        <time>2022-09-01T09:14:43.473Z</time>
      </trkpt>
      <trkpt lat="38.94345" lon="-2.53709">
        <ele>1039.924822</ele>
        <time>2022-09-01T09:14:54.871Z</time>
      </trkpt>
      <trkpt lat="38.94308" lon="-2.53699">
        <ele>1039.134964</ele>
        <time>2022-09-01T09:15:01.387Z</time>
      </trkpt>
      <trkpt lat="38.94144" lon="-2.53616">
        <ele>1035.902272</ele>
        <time>2022-09-01T09:15:33.757Z</time>
      </trkpt>
      <trkpt lat="38.93935" lon="-2.53558">
        <ele>1034.759447</ele>
        <time>2022-09-01T09:16:20.690Z</time>
      </trkpt>
      <trkpt lat="38.9387" lon="-2.53547">
        <ele>1034.312063</ele>
        <time>2022-09-01T09:16:34.706Z</time>
      </trkpt>
      <trkpt lat="38.93794" lon="-2.53552">
        <ele>1033.464496</ele>
        <time>2022-09-01T09:16:49.415Z</time>
      </trkpt>
      <trkpt lat="38.9353" lon="-2.53595">
        <ele>1027.326349</ele>
        <time>2022-09-01T09:17:36.131Z</time>
      </trkpt>
      <trkpt lat="38.93451" lon="-2.53596">
        <ele>1025.715927</ele>
        <time>2022-09-01T09:17:51.213Z</time>
      </trkpt>
      <trkpt lat="38.9339" lon="-2.53579">
        <ele>1025.190225</ele>
        <time>2022-09-01T09:18:04.149Z</time>
      </trkpt>
      <trkpt lat="38.9325" lon="-2.53506">
        <ele>1023.912621</ele>
        <time>2022-09-01T09:18:34.764Z</time>
      </trkpt>
      <trkpt lat="38.93084" lon="-2.53425">
        <ele>1022.785449</ele>
        <time>2022-09-01T09:19:09.905Z</time>
      </trkpt>
      <trkpt lat="38.92884" lon="-2.53371">
        <ele>1024.046549</ele>
        <time>2022-09-01T09:20:04.476Z</time>
      </trkpt>
      <trkpt lat="38.92709" lon="-2.53301">
        <ele>1025.560671</ele>
        <time>2022-09-01T09:20:56.488Z</time>
      </trkpt>
      <trkpt lat="38.92435" lon="-2.53282">
        <ele>1025.61232</ele>
        <time>2022-09-01T09:21:55.438Z</time>
      </trkpt>
      <trkpt lat="38.9226" lon="-2.53226">
        <ele>1025.554592</ele>
        <time>2022-09-01T09:22:36.815Z</time>
      </trkpt>
      <trkpt lat="38.9218" lon="-2.53188">
        <ele>1025.087088</ele>
        <time>2022-09-01T09:22:55.024Z</time>
      </trkpt>
      <trkpt lat="38.92027" lon="-2.53088">
        <ele>1023.807645</ele>
        <time>2022-09-01T09:23:29.142Z</time>
      </trkpt>
      <trkpt lat="38.91977" lon="-2.53067">
        <ele>1023.403021</ele>
        <time>2022-09-01T09:23:39.264Z</time>
      </trkpt>
      <trkpt lat="38.91953" lon="-2.53062">
        <ele>1023.213413</ele>
        <time>2022-09-01T09:23:44.142Z</time>
      </trkpt>
      <trkpt lat="38.91814" lon="-2.53061">
        <ele>1023.190189</ele>
        <time>2022-09-01T09:24:14.935Z</time>
      </trkpt>
      <trkpt lat="38.9169" lon="-2.53055">
        <ele>1023.650889</ele>
        <time>2022-09-01T09:24:47.897Z</time>
      </trkpt>
      <trkpt lat="38.91649" lon="-2.53043">
        <ele>1023.801624</ele>
        <time>2022-09-01T09:24:58.988Z</time>
      </trkpt>
      <trkpt lat="38.91614" lon="-2.53023">
        <ele>1023.938488</ele>
        <time>2022-09-01T09:25:08.601Z</time>
      </trkpt>
      <trkpt lat="38.91522" lon="-2.5293">
        <ele>1023.40149</ele>
        <time>2022-09-01T09:25:33.803Z</time>
      </trkpt>
      <trkpt lat="38.91459" lon="-2.52841">
        <ele>1022.06431</ele>
        <time>2022-09-01T09:25:51.348Z</time>
      </trkpt>
      <trkpt lat="38.91279" lon="-2.52526">
        <ele>1015.484861</ele>
        <time>2022-09-01T09:26:45.308Z</time>
      </trkpt>
      <trkpt lat="38.91237" lon="-2.52461">
        <ele>1014.3085</ele>
        <time>2022-09-01T09:26:57.976Z</time>
      </trkpt>
      <trkpt lat="38.91195" lon="-2.52413">
        <ele>1013.972012</ele>
        <time>2022-09-01T09:27:09.392Z</time>
      </trkpt>
      <trkpt lat="38.90452" lon="-2.51893">
        <ele>1015.591698</ele>
        <time>2022-09-01T09:30:28.825Z</time>
      </trkpt>
      <trkpt lat="38.90425" lon="-2.5187">
        <ele>1015.565065</ele>
        <time>2022-09-01T09:30:35.966Z</time>
      </trkpt>
      <trkpt lat="38.90383" lon="-2.5182">
        <ele>1015.269293</ele>
        <time>2022-09-01T09:30:48.336Z</time>
      </trkpt>
      <trkpt lat="38.90331" lon="-2.51734">
        <ele>1014.831417</ele>
        <time>2022-09-01T09:31:05.843Z</time>
      </trkpt>
      <trkpt lat="38.90059" lon="-2.51237">
        <ele>1013.116402</ele>
        <time>2022-09-01T09:32:39.504Z</time>
      </trkpt>
      <trkpt lat="38.89462" lon="-2.5014">
        <ele>1037.208033</ele>
        <time>2022-09-01T09:38:54.159Z</time>
      </trkpt>
      <trkpt lat="38.89201" lon="-2.49386">
        <ele>1037.263261</ele>
        <time>2022-09-01T09:41:12.524Z</time>
      </trkpt>
      <trkpt lat="38.89122" lon="-2.49159">
        <ele>1037.564456</ele>
        <time>2022-09-01T09:41:58.034Z</time>
      </trkpt>
      <trkpt lat="38.89083" lon="-2.49063">
        <ele>1037.584183</ele>
        <time>2022-09-01T09:42:17.432Z</time>
      </trkpt>
      <trkpt lat="38.89046" lon="-2.49009">
        <ele>1037.578558</ele>
        <time>2022-09-01T09:42:29.667Z</time>
      </trkpt>
      <trkpt lat="38.89007" lon="-2.48975">
        <ele>1037.573813</ele>
        <time>2022-09-01T09:42:39.861Z</time>
      </trkpt>
      <trkpt lat="38.88971" lon="-2.48958">
        <ele>1037.526161</ele>
        <time>2022-09-01T09:42:48.096Z</time>
      </trkpt>
      <trkpt lat="38.88924" lon="-2.48944">
        <ele>1037.456016</ele>
        <time>2022-09-01T09:42:58.631Z</time>
      </trkpt>
      <trkpt lat="38.88693" lon="-2.48925">
        <ele>1037.233328</ele>
        <time>2022-09-01T09:43:49.627Z</time>
      </trkpt>
      <trkpt lat="38.88532" lon="-2.48897">
        <ele>1036.985852</ele>
        <time>2022-09-01T09:44:25.580Z</time>
      </trkpt>
      <trkpt lat="38.88459" lon="-2.48876">
        <ele>1036.778851</ele>
        <time>2022-09-01T09:44:41.330Z</time>
      </trkpt>
      <trkpt lat="38.88363" lon="-2.4884">
        <ele>1035.962218</ele>
        <time>2022-09-01T09:45:01.664Z</time>
      </trkpt>
      <trkpt lat="38.88266" lon="-2.48792">
        <ele>1035.164832</ele>
        <time>2022-09-01T09:45:22.134Z</time>
      </trkpt>
      <trkpt lat="38.88187" lon="-2.48744">
        <ele>1034.58285</ele>
        <time>2022-09-01T09:45:40.116Z</time>
      </trkpt>
      <trkpt lat="38.88143" lon="-2.48713">
        <ele>1034.251081</ele>
        <time>2022-09-01T09:45:50.764Z</time>
      </trkpt>
      <trkpt lat="38.88098" lon="-2.48671">
        <ele>1034.103019</ele>
        <time>2022-09-01T09:46:02.736Z</time>
      </trkpt>
      <trkpt lat="38.8804" lon="-2.48595">
        <ele>1033.936901</ele>
        <time>2022-09-01T09:46:20.815Z</time>
      </trkpt>
      <trkpt lat="38.87974" lon="-2.4849">
        <ele>1033.494598</ele>
        <time>2022-09-01T09:46:43.938Z</time>
      </trkpt>
      <trkpt lat="38.87912" lon="-2.48425">
        <ele>1033.006375</ele>
        <time>2022-09-01T09:47:00.402Z</time>
      </trkpt>
      <trkpt lat="38.87777" lon="-2.48299">
        <ele>1031.004855</ele>
        <time>2022-09-01T09:47:32.864Z</time>
      </trkpt>
      <trkpt lat="38.87211" lon="-2.47768">
        <ele>1019.4695</ele>
        <time>2022-09-01T09:49:42.578Z</time>
      </trkpt>
      <trkpt lat="38.86203" lon="-2.46826">
        <ele>1034.646412</ele>
        <time>2022-09-01T09:55:48.991Z</time>
      </trkpt>
      <trkpt lat="38.85736" lon="-2.46478">
        <ele>1029.58226</ele>
        <time>2022-09-01T09:57:33.085Z</time>
      </trkpt>
      <trkpt lat="38.85195" lon="-2.46081">
        <ele>1033.745784</ele>
        <time>2022-09-01T10:00:17.695Z</time>
      </trkpt>
      <trkpt lat="38.84994" lon="-2.45936">
        <ele>1034.78306</ele>
        <time>2022-09-01T10:01:16.024Z</time>
      </trkpt>
      <trkpt lat="38.84968" lon="-2.45917">
        <ele>1034.710413</ele>
        <time>2022-09-01T10:01:22.795Z</time>
      </trkpt>
      <trkpt lat="38.84934" lon="-2.45891">
        <ele>1034.613762</ele>
        <time>2022-09-01T10:01:31.450Z</time>
      </trkpt>
      <trkpt lat="38.84391" lon="-2.45492">
        <ele>1027.575259</ele>
        <time>2022-09-01T10:03:34.241Z</time>
      </trkpt>
      <trkpt lat="38.84335" lon="-2.45455">
        <ele>1025.940815</ele>
        <time>2022-09-01T10:03:45.384Z</time>
      </trkpt>
      <trkpt lat="38.84302" lon="-2.45435">
        <ele>1025.008692</ele>
        <time>2022-09-01T10:03:51.619Z</time>
      </trkpt>
      <trkpt lat="38.84287" lon="-2.45428">
        <ele>1024.584378</ele>
        <time>2022-09-01T10:03:54.410Z</time>
      </trkpt>
      <trkpt lat="38.84272" lon="-2.45422">
        <ele>1024.185916</ele>
        <time>2022-09-01T10:03:57.030Z</time>
      </trkpt>
      <trkpt lat="38.84217" lon="-2.454">
        <ele>1022.584904</ele>
        <time>2022-09-01T10:04:06.876Z</time>
      </trkpt>
      <trkpt lat="38.84205" lon="-2.45396">
        <ele>1022.230407</ele>
        <time>2022-09-01T10:04:09.017Z</time>
      </trkpt>
      <trkpt lat="38.84177" lon="-2.45392">
        <ele>1021.401647</ele>
        <time>2022-09-01T10:04:14.198Z</time>
      </trkpt>
      <trkpt lat="38.84139" lon="-2.45385">
        <ele>1020.286397</ele>
        <time>2022-09-01T10:04:21.190Z</time>
      </trkpt>
      <trkpt lat="38.84107" lon="-2.45365">
        <ele>1019.252693</ele>
        <time>2022-09-01T10:04:27.672Z</time>
      </trkpt>
      <trkpt lat="38.84085" lon="-2.45424">
        <ele>1017.9997</ele>
        <time>2022-09-01T10:04:37.144Z</time>
      </trkpt>
      <trkpt lat="38.84001" lon="-2.45381">
        <ele>1016.569463</ele>
        <time>2022-09-01T10:04:54.381Z</time>
      </trkpt>
      <trkpt lat="38.83939" lon="-2.45352">
        <ele>1015.516356</ele>
        <time>2022-09-01T10:05:08.392Z</time>
      </trkpt>
      <trkpt lat="38.83893" lon="-2.4533">
        <ele>1015.570622</ele>
        <time>2022-09-01T10:05:19.030Z</time>
      </trkpt>
      <trkpt lat="38.83707" lon="-2.45236">
        <ele>1015.986258</ele>
        <time>2022-09-01T10:06:12.542Z</time>
      </trkpt>
      <trkpt lat="38.83668" lon="-2.45204">
        <ele>1015.942157</ele>
        <time>2022-09-01T10:06:23.297Z</time>
      </trkpt>
      <trkpt lat="38.83522" lon="-2.45242">
        <ele>1015.146109</ele>
        <time>2022-09-01T10:06:53.295Z</time>
      </trkpt>
      <trkpt lat="38.83293" lon="-2.453">
        <ele>1012.970252</ele>
        <time>2022-09-01T10:07:39.782Z</time>
      </trkpt>
      <trkpt lat="38.83135" lon="-2.45342">
        <ele>1011.671021</ele>
        <time>2022-09-01T10:08:12.440Z</time>
      </trkpt>
      <trkpt lat="38.83085" lon="-2.45349">
        <ele>1011.29411</ele>
        <time>2022-09-01T10:08:22.772Z</time>
      </trkpt>
      <trkpt lat="38.83051" lon="-2.45347">
        <ele>1011.087585</ele>
        <time>2022-09-01T10:08:29.859Z</time>
      </trkpt>
      <trkpt lat="38.82959" lon="-2.45343">
        <ele>1010.647299</ele>
        <time>2022-09-01T10:08:49.136Z</time>
      </trkpt>
      <trkpt lat="38.82726" lon="-2.45319">
        <ele>1009.152087</ele>
        <time>2022-09-01T10:09:37.991Z</time>
      </trkpt>
      <trkpt lat="38.81861" lon="-2.45232">
        <ele>997.076397</ele>
        <time>2022-09-01T10:12:23.988Z</time>
      </trkpt>
      <trkpt lat="38.8153" lon="-2.45198">
        <ele>992.92979</ele>
        <time>2022-09-01T10:13:28.634Z</time>
      </trkpt>
      <trkpt lat="38.81469" lon="-2.45207">
        <ele>992.192595</ele>
        <time>2022-09-01T10:13:40.731Z</time>
      </trkpt>
      <trkpt lat="38.8144" lon="-2.4522">
        <ele>991.829009</ele>
        <time>2022-09-01T10:13:46.877Z</time>
      </trkpt>
      <trkpt lat="38.81385" lon="-2.4526">
        <ele>991.11618</ele>
        <time>2022-09-01T10:13:59.213Z</time>
      </trkpt>
      <trkpt lat="38.81349" lon="-2.45287">
        <ele>990.646372</ele>
        <time>2022-09-01T10:14:07.325Z</time>
      </trkpt>
      <trkpt lat="38.81285" lon="-2.45319">
        <ele>989.969682</ele>
        <time>2022-09-01T10:14:20.846Z</time>
      </trkpt>
      <trkpt lat="38.81238" lon="-2.45326">
        <ele>989.87715</ele>
        <time>2022-09-01T10:14:30.175Z</time>
      </trkpt>
      <trkpt lat="38.81182" lon="-2.45324">
        <ele>989.765482</ele>
        <time>2022-09-01T10:14:41.838Z</time>
      </trkpt>
      <trkpt lat="38.80036" lon="-2.45274">
        <ele>998.222776</ele>
        <time>2022-09-01T10:19:41.616Z</time>
      </trkpt>
      <trkpt lat="38.79906" lon="-2.45261">
        <ele>1000.724092</ele>
        <time>2022-09-01T10:20:21.573Z</time>
      </trkpt>
      <trkpt lat="38.79624" lon="-2.45105">
        <ele>1008.297081</ele>
        <time>2022-09-01T10:22:14.234Z</time>
      </trkpt>
      <trkpt lat="38.79448" lon="-2.45009">
        <ele>1009.339409</ele>
        <time>2022-09-01T10:23:07.190Z</time>
      </trkpt>
      <trkpt lat="38.79388" lon="-2.44999">
        <ele>1008.766557</ele>
        <time>2022-09-01T10:23:18.231Z</time>
      </trkpt>
      <trkpt lat="38.79346" lon="-2.45002">
        <ele>1007.788666</ele>
        <time>2022-09-01T10:23:25.229Z</time>
      </trkpt>
      <trkpt lat="38.79323" lon="-2.4501">
        <ele>1006.524586</ele>
        <time>2022-09-01T10:23:29.101Z</time>
      </trkpt>
      <trkpt lat="38.79159" lon="-2.45097">
        <ele>997.246855</ele>
        <time>2022-09-01T10:23:56.435Z</time>
      </trkpt>
      <trkpt lat="38.79074" lon="-2.45143">
        <ele>992.583965</ele>
        <time>2022-09-01T10:24:10.927Z</time>
      </trkpt>
      <trkpt lat="38.78937" lon="-2.45213">
        <ele>987.747811</ele>
        <time>2022-09-01T10:24:35.649Z</time>
      </trkpt>
      <trkpt lat="38.789" lon="-2.45214">
        <ele>986.876018</ele>
        <time>2022-09-01T10:24:42.613Z</time>
      </trkpt>
      <trkpt lat="38.78829" lon="-2.45204">
        <ele>985.947421</ele>
        <time>2022-09-01T10:24:56.930Z</time>
      </trkpt>
      <trkpt lat="38.78765" lon="-2.45196">
        <ele>986.527025</ele>
        <time>2022-09-01T10:25:12.774Z</time>
      </trkpt>
      <trkpt lat="38.78711" lon="-2.452">
        <ele>987.019227</ele>
        <time>2022-09-01T10:25:28.320Z</time>
      </trkpt>
      <trkpt lat="38.78342" lon="-2.45265">
        <ele>995.432904</ele>
        <time>2022-09-01T10:27:38.659Z</time>
      </trkpt>
      <trkpt lat="38.78293" lon="-2.45274">
        <ele>996.137016</ele>
        <time>2022-09-01T10:27:53.313Z</time>
      </trkpt>
      <trkpt lat="38.78213" lon="-2.45278">
        <ele>996.56549</ele>
        <time>2022-09-01T10:28:14.639Z</time>
      </trkpt>
      <trkpt lat="38.77794" lon="-2.45182">
        <ele>995.309143</ele>
        <time>2022-09-01T10:29:44.654Z</time>
      </trkpt>
      <trkpt lat="38.77703" lon="-2.45145">
        <ele>994.453095</ele>
        <time>2022-09-01T10:30:03.382Z</time>
      </trkpt>
      <trkpt lat="38.77615" lon="-2.45097">
        <ele>993.561387</ele>
        <time>2022-09-01T10:30:22.507Z</time>
      </trkpt>
      <trkpt lat="38.77579" lon="-2.45089">
        <ele>993.344601</ele>
        <time>2022-09-01T10:30:29.920Z</time>
      </trkpt>
      <trkpt lat="38.77569" lon="-2.45093">
        <ele>993.286061</ele>
        <time>2022-09-01T10:30:31.866Z</time>
      </trkpt>
      <trkpt lat="38.77553" lon="-2.45083">
        <ele>993.181736</ele>
        <time>2022-09-01T10:30:35.476Z</time>
      </trkpt>
      <trkpt lat="38.77551" lon="-2.45074">
        <ele>993.137753</ele>
        <time>2022-09-01T10:30:37.063Z</time>
      </trkpt>
      <trkpt lat="38.77512" lon="-2.45041">
        <ele>992.866551</ele>
        <time>2022-09-01T10:30:46.468Z</time>
      </trkpt>
      <trkpt lat="38.77453" lon="-2.4501">
        <ele>992.546408</ele>
        <time>2022-09-01T10:31:00.394Z</time>
      </trkpt>
      <trkpt lat="38.77427" lon="-2.45012">
        <ele>992.741967</ele>
        <time>2022-09-01T10:31:06.295Z</time>
      </trkpt>
      <trkpt lat="38.77396" lon="-2.4503">
        <ele>993.000121</ele>
        <time>2022-09-01T10:31:14.578Z</time>
      </trkpt>
      <trkpt lat="38.77354" lon="-2.45036">
        <ele>993.312562</ele>
        <time>2022-09-01T10:31:25.443Z</time>
      </trkpt>
      <trkpt lat="38.77186" lon="-2.4505">
        <ele>995.009744</ele>
        <time>2022-09-01T10:32:14.131Z</time>
      </trkpt>
      <trkpt lat="38.77167" lon="-2.45023">
        <ele>995.353869</ele>
        <time>2022-09-01T10:32:24.433Z</time>
      </trkpt>
      <trkpt lat="38.77084" lon="-2.45034">
        <ele>996.216777</ele>
        <time>2022-09-01T10:32:53.155Z</time>
      </trkpt>
      <trkpt lat="38.77" lon="-2.45036">
        <ele>996.794271</ele>
        <time>2022-09-01T10:33:26.677Z</time>
      </trkpt>
      <trkpt lat="38.76915" lon="-2.45008">
        <ele>997.355966</ele>
        <time>2022-09-01T10:34:01.864Z</time>
      </trkpt>
      <trkpt lat="38.76895" lon="-2.44988">
        <ele>997.477147</ele>
        <time>2022-09-01T10:34:12.070Z</time>
      </trkpt>
      <trkpt lat="38.76771" lon="-2.45273">
        <ele>998.831232</ele>
        <time>2022-09-01T10:35:19.956Z</time>
      </trkpt>
      <trkpt lat="38.76515" lon="-2.45867">
        <ele>1003.434801</ele>
        <time>2022-09-01T10:37:55.739Z</time>
      </trkpt>
      <trkpt lat="38.76452" lon="-2.45981">
        <ele>1004.240496</ele>
        <time>2022-09-01T10:38:25.318Z</time>
      </trkpt>
      <trkpt lat="38.76236" lon="-2.46267">
        <ele>1006.840665</ele>
        <time>2022-09-01T10:39:52.853Z</time>
      </trkpt>
      <trkpt lat="38.76025" lon="-2.46545">
        <ele>1014.675232</ele>
        <time>2022-09-01T10:41:48.152Z</time>
      </trkpt>
      <trkpt lat="38.75955" lon="-2.46632">
        <ele>1017.374142</ele>
        <time>2022-09-01T10:42:28.585Z</time>
      </trkpt>
      <trkpt lat="38.75915" lon="-2.46674">
        <ele>1018.618211</ele>
        <time>2022-09-01T10:42:49.127Z</time>
      </trkpt>
      <trkpt lat="38.75819" lon="-2.46753">
        <ele>1021.127248</ele>
        <time>2022-09-01T10:43:28.757Z</time>
      </trkpt>
      <trkpt lat="38.75315" lon="-2.4704">
        <ele>1026.186038</ele>
        <time>2022-09-01T10:46:04.769Z</time>
      </trkpt>
      <trkpt lat="38.75215" lon="-2.47097">
        <ele>1029.021612</ele>
        <time>2022-09-01T10:46:46.221Z</time>
      </trkpt>
      <trkpt lat="38.74997" lon="-2.47216">
        <ele>1037.141703</ele>
        <time>2022-09-01T10:48:31.973Z</time>
      </trkpt>
      <trkpt lat="38.74923" lon="-2.47235">
        <ele>1038.224105</ele>
        <time>2022-09-01T10:48:58.244Z</time>
      </trkpt>
      <trkpt lat="38.74846" lon="-2.47232">
        <ele>1039.330153</ele>
        <time>2022-09-01T10:49:19.274Z</time>
      </trkpt>
      <trkpt lat="38.74773" lon="-2.4721">
        <ele>1039.727048</ele>
        <time>2022-09-01T10:49:37.420Z</time>
      </trkpt>
      <trkpt lat="38.74693" lon="-2.47161">
        <ele>1039.990197</ele>
        <time>2022-09-01T10:49:59.848Z</time>
      </trkpt>
      <trkpt lat="38.74514" lon="-2.46992">
        <ele>1042.044734</ele>
        <time>2022-09-01T10:51:07.846Z</time>
      </trkpt>
      <trkpt lat="38.74459" lon="-2.46942">
        <ele>1042.160166</ele>
        <time>2022-09-01T10:51:26.208Z</time>
      </trkpt>
      <trkpt lat="38.7444" lon="-2.46937">
        <ele>1042.193802</ele>
        <time>2022-09-01T10:51:30.856Z</time>
      </trkpt>
      <trkpt lat="38.74404" lon="-2.46947">
        <ele>1042.256128</ele>
        <time>2022-09-01T10:51:39.877Z</time>
      </trkpt>
      <trkpt lat="38.74301" lon="-2.469">
        <ele>1042.570898</ele>
        <time>2022-09-01T10:52:05.764Z</time>
      </trkpt>
      <trkpt lat="38.73796" lon="-2.46808">
        <ele>1045.117116</ele>
        <time>2022-09-01T10:54:25.463Z</time>
      </trkpt>
      <trkpt lat="38.73781" lon="-2.468">
        <ele>1045.293021</ele>
        <time>2022-09-01T10:54:30.649Z</time>
      </trkpt>
      <trkpt lat="38.7378" lon="-2.46787">
        <ele>1045.401325</ele>
        <time>2022-09-01T10:54:34.035Z</time>
      </trkpt>
      <trkpt lat="38.73782" lon="-2.4677">
        <ele>1045.556469</ele>
        <time>2022-09-01T10:54:38.662Z</time>
      </trkpt>
      <trkpt lat="38.73779" lon="-2.46738">
        <ele>1045.832278</ele>
        <time>2022-09-01T10:54:47.366Z</time>
      </trkpt>
      <trkpt lat="38.73765" lon="-2.4672">
        <ele>1046.056221</ele>
        <time>2022-09-01T10:54:54.198Z</time>
      </trkpt>
      <trkpt lat="38.73627" lon="-2.46645">
        <ele>1046.342817</ele>
        <time>2022-09-01T10:55:35.922Z</time>
      </trkpt>
      <trkpt lat="38.73596" lon="-2.46654">
        <ele>1046.209206</ele>
        <time>2022-09-01T10:55:42.802Z</time>
      </trkpt>
      <trkpt lat="38.73531" lon="-2.46694">
        <ele>1045.698997</ele>
        <time>2022-09-01T10:55:58.129Z</time>
      </trkpt>
      <trkpt lat="38.73486" lon="-2.46708">
        <ele>1044.792887</ele>
        <time>2022-09-01T10:56:07.672Z</time>
      </trkpt>
      <trkpt lat="38.73402" lon="-2.46694">
        <ele>1043.144701</ele>
        <time>2022-09-01T10:56:25.320Z</time>
      </trkpt>
      <trkpt lat="38.73335" lon="-2.46661">
        <ele>1041.400251</ele>
        <time>2022-09-01T10:56:39.925Z</time>
      </trkpt>
      <trkpt lat="38.73285" lon="-2.4666">
        <ele>1039.925222</ele>
        <time>2022-09-01T10:56:50.007Z</time>
      </trkpt>
      <trkpt lat="38.73252" lon="-2.46687">
        <ele>1038.796536</ele>
        <time>2022-09-01T10:56:57.494Z</time>
      </trkpt>
      <trkpt lat="38.73236" lon="-2.46714">
        <ele>1038.013185</ele>
        <time>2022-09-01T10:57:02.631Z</time>
      </trkpt>
      <trkpt lat="38.7323" lon="-2.46734">
        <ele>1037.515281</ele>
        <time>2022-09-01T10:57:05.948Z</time>
      </trkpt>
      <trkpt lat="38.73213" lon="-2.46787">
        <ele>1035.565742</ele>
        <time>2022-09-01T10:57:14.445Z</time>
      </trkpt>
      <trkpt lat="38.73181" lon="-2.46815">
        <ele>1033.684259</ele>
        <time>2022-09-01T10:57:21.532Z</time>
      </trkpt>
      <trkpt lat="38.73131" lon="-2.46872">
        <ele>1030.441994</ele>
        <time>2022-09-01T10:57:33.226Z</time>
      </trkpt>
      <trkpt lat="38.731" lon="-2.46924">
        <ele>1028.087544</ele>
        <time>2022-09-01T10:57:42.162Z</time>
      </trkpt>
      <trkpt lat="38.73064" lon="-2.47001">
        <ele>1025.379815</ele>
        <time>2022-09-01T10:57:54.828Z</time>
      </trkpt>
      <trkpt lat="38.72895" lon="-2.47403">
        <ele>1017.288911</ele>
        <time>2022-09-01T10:59:05.282Z</time>
      </trkpt>
      <trkpt lat="38.72802" lon="-2.4761">
        <ele>1019.913642</ele>
        <time>2022-09-01T11:00:24.404Z</time>
      </trkpt>
      <trkpt lat="38.7276" lon="-2.47668">
        <ele>1021.219014</ele>
        <time>2022-09-01T11:00:46.565Z</time>
      </trkpt>
      <trkpt lat="38.72701" lon="-2.47724">
        <ele>1020.705473</ele>
        <time>2022-09-01T11:01:02.945Z</time>
      </trkpt>
      <trkpt lat="38.72655" lon="-2.47752">
        <ele>1019.049049</ele>
        <time>2022-09-01T11:01:12.963Z</time>
      </trkpt>
      <trkpt lat="38.72336" lon="-2.47915">
        <ele>1006.696458</ele>
        <time>2022-09-01T11:02:14.244Z</time>
      </trkpt>
      <trkpt lat="38.72276" lon="-2.47959">
        <ele>1006.539208</ele>
        <time>2022-09-01T11:02:40.800Z</time>
      </trkpt>
      <trkpt lat="38.72248" lon="-2.47992">
        <ele>1006.449375</ele>
        <time>2022-09-01T11:02:57.257Z</time>
      </trkpt>
      <trkpt lat="38.72219" lon="-2.48031">
        <ele>1006.196745</ele>
        <time>2022-09-01T11:03:16.241Z</time>
      </trkpt>
      <trkpt lat="38.72202" lon="-2.48065">
        <ele>1006.005293</ele>
        <time>2022-09-01T11:03:31.496Z</time>
      </trkpt>
      <trkpt lat="38.71919" lon="-2.48825">
        <ele>1000.041691</ele>
        <time>2022-09-01T11:05:43.825Z</time>
      </trkpt>
      <trkpt lat="38.71884" lon="-2.48903">
        <ele>998.161966</ele>
        <time>2022-09-01T11:05:57.034Z</time>
      </trkpt>
      <trkpt lat="38.71848" lon="-2.48968">
        <ele>996.48209</ele>
        <time>2022-09-01T11:06:09.042Z</time>
      </trkpt>
      <trkpt lat="38.71794" lon="-2.4904">
        <ele>995.427427</ele>
        <time>2022-09-01T11:06:25.256Z</time>
      </trkpt>
      <trkpt lat="38.71729" lon="-2.49106">
        <ele>995.237354</ele>
        <time>2022-09-01T11:06:47.325Z</time>
      </trkpt>
      <trkpt lat="38.71639" lon="-2.4917">
        <ele>994.378088</ele>
        <time>2022-09-01T11:07:16.925Z</time>
      </trkpt>
      <trkpt lat="38.7126" lon="-2.49406">
        <ele>987.87333</ele>
        <time>2022-09-01T11:08:38.312Z</time>
      </trkpt>
      <trkpt lat="38.7123" lon="-2.49431">
        <ele>987.287065</ele>
        <time>2022-09-01T11:08:45.621Z</time>
      </trkpt>
      <trkpt lat="38.71172" lon="-2.49497">
        <ele>987.12313</ele>
        <time>2022-09-01T11:09:02.869Z</time>
      </trkpt>
      <trkpt lat="38.71006" lon="-2.49789">
        <ele>990.322639</ele>
        <time>2022-09-01T11:10:37.785Z</time>
      </trkpt>
      <trkpt lat="38.7095" lon="-2.49861">
        <ele>990.23813</ele>
        <time>2022-09-01T11:10:57.203Z</time>
      </trkpt>
      <trkpt lat="38.70915" lon="-2.49892">
        <ele>989.73953</ele>
        <time>2022-09-01T11:11:06.440Z</time>
      </trkpt>
      <trkpt lat="38.70658" lon="-2.50083">
        <ele>984.57681</ele>
        <time>2022-09-01T11:12:08.131Z</time>
      </trkpt>
      <trkpt lat="38.70595" lon="-2.50128">
        <ele>982.699653</ele>
        <time>2022-09-01T11:12:22.808Z</time>
      </trkpt>
      <trkpt lat="38.7055" lon="-2.50152">
        <ele>981.444081</ele>
        <time>2022-09-01T11:12:32.002Z</time>
      </trkpt>
      <trkpt lat="38.70507" lon="-2.5017">
        <ele>980.362249</ele>
        <time>2022-09-01T11:12:39.886Z</time>
      </trkpt>
      <trkpt lat="38.70428" lon="-2.50177">
        <ele>978.960924</ele>
        <time>2022-09-01T11:12:57.555Z</time>
      </trkpt>
      <trkpt lat="38.70357" lon="-2.50168">
        <ele>977.702038</ele>
        <time>2022-09-01T11:13:12.144Z</time>
      </trkpt>
      <trkpt lat="38.7029" lon="-2.50142">
        <ele>975.33579</ele>
        <time>2022-09-01T11:13:26.565Z</time>
      </trkpt>
      <trkpt lat="38.70209" lon="-2.50081">
        <ele>971.615093</ele>
        <time>2022-09-01T11:13:43.902Z</time>
      </trkpt>
      <trkpt lat="38.70167" lon="-2.50028">
        <ele>967.87453</ele>
        <time>2022-09-01T11:13:53.132Z</time>
      </trkpt>
      <trkpt lat="38.70137" lon="-2.49977">
        <ele>963.169099</ele>
        <time>2022-09-01T11:14:00.315Z</time>
      </trkpt>
      <trkpt lat="38.70092" lon="-2.49871">
        <ele>954.271666</ele>
        <time>2022-09-01T11:14:14.328Z</time>
      </trkpt>
      <trkpt lat="38.70083" lon="-2.49834">
        <ele>951.823296</ele>
        <time>2022-09-01T11:14:18.897Z</time>
      </trkpt>
      <trkpt lat="38.70032" lon="-2.49863">
        <ele>947.661211</ele>
        <time>2022-09-01T11:14:34.106Z</time>
      </trkpt>
      <trkpt lat="38.69975" lon="-2.49874">
        <ele>943.299743</ele>
        <time>2022-09-01T11:14:50.009Z</time>
      </trkpt>
      <trkpt lat="38.69957" lon="-2.49888">
        <ele>941.764023</ele>
        <time>2022-09-01T11:14:55.586Z</time>
      </trkpt>
      <trkpt lat="38.69939" lon="-2.49941">
        <ele>938.145987</ele>
        <time>2022-09-01T11:15:08.139Z</time>
      </trkpt>
      <trkpt lat="38.6982" lon="-2.50064">
        <ele>924.758637</ele>
        <time>2022-09-01T11:15:48.348Z</time>
      </trkpt>
      <trkpt lat="38.69816" lon="-2.50087">
        <ele>923.119508</ele>
        <time>2022-09-01T11:15:52.989Z</time>
      </trkpt>
      <trkpt lat="38.69821" lon="-2.50117">
        <ele>920.939703</ele>
        <time>2022-09-01T11:15:59.256Z</time>
      </trkpt>
      <trkpt lat="38.6981" lon="-2.50128">
        <ele>919.670663</ele>
        <time>2022-09-01T11:16:02.774Z</time>
      </trkpt>
      <trkpt lat="38.69767" lon="-2.50149">
        <ele>915.538682</ele>
        <time>2022-09-01T11:16:14.629Z</time>
      </trkpt>
      <trkpt lat="38.69707" lon="-2.5019">
        <ele>909.438786</ele>
        <time>2022-09-01T11:16:32.417Z</time>
      </trkpt>
      <trkpt lat="38.69685" lon="-2.50185">
        <ele>907.585623</ele>
        <time>2022-09-01T11:16:38.557Z</time>
      </trkpt>
      <trkpt lat="38.69655" lon="-2.50141">
        <ele>905.096999</ele>
        <time>2022-09-01T11:16:51.159Z</time>
      </trkpt>
      <trkpt lat="38.69618" lon="-2.50128">
        <ele>903.043565</ele>
        <time>2022-09-01T11:17:01.807Z</time>
      </trkpt>
      <trkpt lat="38.6955" lon="-2.5012">
        <ele>899.325932</ele>
        <time>2022-09-01T11:17:21.560Z</time>
      </trkpt>
      <trkpt lat="38.69523" lon="-2.5013">
        <ele>897.992169</ele>
        <time>2022-09-01T11:17:30.039Z</time>
      </trkpt>
      <trkpt lat="38.69429" lon="-2.50198">
        <ele>895.750105</ele>
        <time>2022-09-01T11:18:04.604Z</time>
      </trkpt>
      <trkpt lat="38.69382" lon="-2.50239">
        <ele>894.577186</ele>
        <time>2022-09-01T11:18:24.152Z</time>
      </trkpt>
      <trkpt lat="38.69336" lon="-2.50327">
        <ele>893.621686</ele>
        <time>2022-09-01T11:18:53.244Z</time>
      </trkpt>
      <trkpt lat="38.69304" lon="-2.50323">
        <ele>893.282999</ele>
        <time>2022-09-01T11:19:04.659Z</time>
      </trkpt>
      <trkpt lat="38.69279" lon="-2.5033">
        <ele>893.017876</ele>
        <time>2022-09-01T11:19:13.410Z</time>
      </trkpt>
      <trkpt lat="38.69263" lon="-2.50327">
        <ele>892.855664</ele>
        <time>2022-09-01T11:19:18.698Z</time>
      </trkpt>
      <trkpt lat="38.69235" lon="-2.50335">
        <ele>892.553939</ele>
        <time>2022-09-01T11:19:28.412Z</time>
      </trkpt>
      <trkpt lat="38.69216" lon="-2.50351">
        <ele>892.015041</ele>
        <time>2022-09-01T11:19:36.091Z</time>
      </trkpt>
      <trkpt lat="38.69198" lon="-2.50385">
        <ele>891.189732</ele>
        <time>2022-09-01T11:19:46.683Z</time>
      </trkpt>
      <trkpt lat="38.69195" lon="-2.50392">
        <ele>891.025695</ele>
        <time>2022-09-01T11:19:47.922Z</time>
      </trkpt>
      <trkpt lat="38.69169" lon="-2.50383">
        <ele>890.343777</ele>
        <time>2022-09-01T11:19:53.022Z</time>
      </trkpt>
      <trkpt lat="38.69154" lon="-2.50402">
        <ele>889.788988</ele>
        <time>2022-09-01T11:19:57.040Z</time>
      </trkpt>
      <trkpt lat="38.69124" lon="-2.50386">
        <ele>888.944968</ele>
        <time>2022-09-01T11:20:02.871Z</time>
      </trkpt>
      <trkpt lat="38.69123" lon="-2.50391">
        <ele>888.843911</ele>
        <time>2022-09-01T11:20:03.568Z</time>
      </trkpt>
      <trkpt lat="38.69078" lon="-2.50532">
        <ele>884.555375</ele>
        <time>2022-09-01T11:20:24.045Z</time>
      </trkpt>
      <trkpt lat="38.69059" lon="-2.50512">
        <ele>883.554674</ele>
        <time>2022-09-01T11:20:27.968Z</time>
      </trkpt>
      <trkpt lat="38.6897" lon="-2.50664">
        <ele>878.116425</ele>
        <time>2022-09-01T11:21:12.364Z</time>
      </trkpt>
      <trkpt lat="38.6895" lon="-2.50675">
        <ele>877.418708</ele>
        <time>2022-09-01T11:21:19.127Z</time>
      </trkpt>
      <trkpt lat="38.68904" lon="-2.50656">
        <ele>875.888416</ele>
        <time>2022-09-01T11:21:34.075Z</time>
      </trkpt>
      <trkpt lat="38.68889" lon="-2.5066">
        <ele>875.395697</ele>
        <time>2022-09-01T11:21:38.973Z</time>
      </trkpt>
      <trkpt lat="38.68866" lon="-2.50707">
        <ele>874.245818</ele>
        <time>2022-09-01T11:21:52.963Z</time>
      </trkpt>
      <trkpt lat="38.68853" lon="-2.50752">
        <ele>873.452043</ele>
        <time>2022-09-01T11:22:05.206Z</time>
      </trkpt>
      <trkpt lat="38.68834" lon="-2.50793">
        <ele>872.678385</ele>
        <time>2022-09-01T11:22:17.295Z</time>
      </trkpt>
      <trkpt lat="38.68827" lon="-2.5083">
        <ele>872.061617</ele>
        <time>2022-09-01T11:22:26.861Z</time>
      </trkpt>
      <trkpt lat="38.68789" lon="-2.50913">
        <ele>870.412323</ele>
        <time>2022-09-01T11:22:51.364Z</time>
      </trkpt>
      <trkpt lat="38.6876" lon="-2.50953">
        <ele>869.431757</ele>
        <time>2022-09-01T11:23:04.736Z</time>
      </trkpt>
      <trkpt lat="38.68668" lon="-2.51036">
        <ele>866.795652</ele>
        <time>2022-09-01T11:23:40.774Z</time>
      </trkpt>
      <trkpt lat="38.68623" lon="-2.51113">
        <ele>865.086643</ele>
        <time>2022-09-01T11:24:04.581Z</time>
      </trkpt>
      <trkpt lat="38.6861" lon="-2.51151">
        <ele>864.334766</ele>
        <time>2022-09-01T11:24:15.098Z</time>
      </trkpt>
      <trkpt lat="38.68605" lon="-2.5119">
        <ele>863.637994</ele>
        <time>2022-09-01T11:24:24.910Z</time>
      </trkpt>
      <trkpt lat="38.68588" lon="-2.5122">
        <ele>862.98219</ele>
        <time>2022-09-01T11:24:34.223Z</time>
      </trkpt>
      <trkpt lat="38.68563" lon="-2.5125">
        <ele>862.334592</ele>
        <time>2022-09-01T11:24:45.412Z</time>
      </trkpt>
      <trkpt lat="38.68548" lon="-2.51282">
        <ele>861.874585</ele>
        <time>2022-09-01T11:24:55.012Z</time>
      </trkpt>
      <trkpt lat="38.68526" lon="-2.51315">
        <ele>861.352612</ele>
        <time>2022-09-01T11:25:05.986Z</time>
      </trkpt>
      <trkpt lat="38.6851" lon="-2.51358">
        <ele>860.756615</ele>
        <time>2022-09-01T11:25:18.649Z</time>
      </trkpt>
      <trkpt lat="38.68506" lon="-2.51382">
        <ele>860.467837</ele>
        <time>2022-09-01T11:25:24.843Z</time>
      </trkpt>
      <trkpt lat="38.68551" lon="-2.51483">
        <ele>859.614376</ele>
        <time>2022-09-01T11:25:55.994Z</time>
      </trkpt>
      <trkpt lat="38.68406" lon="-2.51407">
        <ele>859.478105</ele>
        <time>2022-09-01T11:26:52.861Z</time>
      </trkpt>
      <trkpt lat="38.68274" lon="-2.51362">
        <ele>861.519397</ele>
        <time>2022-09-01T11:27:55.006Z</time>
      </trkpt>
      <trkpt lat="38.68151" lon="-2.51227">
        <ele>865.831551</ele>
        <time>2022-09-01T11:29:18.790Z</time>
      </trkpt>
      <trkpt lat="38.68068" lon="-2.51163">
        <ele>868.342843</ele>
        <time>2022-09-01T11:30:08.573Z</time>
      </trkpt>
      <trkpt lat="38.68018" lon="-2.51116">
        <ele>869.90314</ele>
        <time>2022-09-01T11:30:39.267Z</time>
      </trkpt>
      <trkpt lat="38.67918" lon="-2.51062">
        <ele>872.057702</ele>
        <time>2022-09-01T11:31:31.369Z</time>
      </trkpt>
      <trkpt lat="38.67888" lon="-2.51015">
        <ele>872.731063</ele>
        <time>2022-09-01T11:31:53.228Z</time>
      </trkpt>
      <trkpt lat="38.67839" lon="-2.50972">
        <ele>873.566377</ele>
        <time>2022-09-01T11:32:18.736Z</time>
      </trkpt>
      <trkpt lat="38.67816" lon="-2.5097">
        <ele>873.823882</ele>
        <time>2022-09-01T11:32:28.389Z</time>
      </trkpt>
      <trkpt lat="38.6771" lon="-2.5094">
        <ele>872.703586</ele>
        <time>2022-09-01T11:33:06.629Z</time>
      </trkpt>
      <trkpt lat="38.67684" lon="-2.50982">
        <ele>872.268309</ele>
        <time>2022-09-01T11:33:20.456Z</time>
      </trkpt>
      <trkpt lat="38.67643" lon="-2.50968">
        <ele>871.546709</ele>
        <time>2022-09-01T11:33:27.927Z</time>
      </trkpt>
      <trkpt lat="38.67639" lon="-2.50967">
        <ele>871.430433</ele>
        <time>2022-09-01T11:33:28.608Z</time>
      </trkpt>
      <trkpt lat="38.67428" lon="-2.50909">
        <ele>865.643918</ele>
        <time>2022-09-01T11:34:05.680Z</time>
      </trkpt>
      <trkpt lat="38.67417" lon="-2.50908">
        <ele>865.419752</ele>
        <time>2022-09-01T11:34:07.739Z</time>
      </trkpt>
      <trkpt lat="38.67392" lon="-2.5092">
        <ele>864.880098</ele>
        <time>2022-09-01T11:34:12.657Z</time>
      </trkpt>
      <trkpt lat="38.67351" lon="-2.51069">
        <ele>862.708581</ele>
        <time>2022-09-01T11:34:36.394Z</time>
      </trkpt>
      <trkpt lat="38.67333" lon="-2.51114">
        <ele>862.242404</ele>
        <time>2022-09-01T11:34:44.341Z</time>
      </trkpt>
      <trkpt lat="38.67318" lon="-2.51146">
        <ele>861.906986</ele>
        <time>2022-09-01T11:34:50.035Z</time>
      </trkpt>
      <trkpt lat="38.67243" lon="-2.51257">
        <ele>860.500117</ele>
        <time>2022-09-01T11:35:12.562Z</time>
      </trkpt>
      <trkpt lat="38.6721" lon="-2.51315">
        <ele>859.760587</ele>
        <time>2022-09-01T11:35:23.292Z</time>
      </trkpt>
      <trkpt lat="38.66817" lon="-2.52123">
        <ele>849.803116</ele>
        <time>2022-09-01T11:37:46.139Z</time>
      </trkpt>
      <trkpt lat="38.66517" lon="-2.52753">
        <ele>844.529678</ele>
        <time>2022-09-01T11:39:41.897Z</time>
      </trkpt>
      <trkpt lat="38.66502" lon="-2.52819">
        <ele>843.948839</ele>
        <time>2022-09-01T11:39:52.835Z</time>
      </trkpt>
      <trkpt lat="38.66493" lon="-2.52888">
        <ele>843.257551</ele>
        <time>2022-09-01T11:40:03.937Z</time>
      </trkpt>
      <trkpt lat="38.66431" lon="-2.5358">
        <ele>836.207602</ele>
        <time>2022-09-01T11:41:48.463Z</time>
      </trkpt>
      <trkpt lat="38.6643" lon="-2.53669">
        <ele>835.330149</ele>
        <time>2022-09-01T11:42:02.068Z</time>
      </trkpt>
      <trkpt lat="38.66433" lon="-2.53738">
        <ele>834.684764</ele>
        <time>2022-09-01T11:42:12.667Z</time>
      </trkpt>
      <trkpt lat="38.66448" lon="-2.54298">
        <ele>829.203539</ele>
        <time>2022-09-01T11:43:38.244Z</time>
      </trkpt>
      <trkpt lat="38.66449" lon="-2.54563">
        <ele>825.648686</ele>
        <time>2022-09-01T11:44:15.973Z</time>
      </trkpt>
      <trkpt lat="38.66429" lon="-2.54645">
        <ele>824.7543</ele>
        <time>2022-09-01T11:44:29.075Z</time>
      </trkpt>
      <trkpt lat="38.66357" lon="-2.54755">
        <ele>824.242514</ele>
        <time>2022-09-01T11:44:52.366Z</time>
      </trkpt>
      <trkpt lat="38.66312" lon="-2.54817">
        <ele>824.203783</ele>
        <time>2022-09-01T11:45:07.930Z</time>
      </trkpt>
      <trkpt lat="38.66196" lon="-2.54973">
        <ele>825.477321</ele>
        <time>2022-09-01T11:45:51.989Z</time>
      </trkpt>
      <trkpt lat="38.66024" lon="-2.55163">
        <ele>828.431463</ele>
        <time>2022-09-01T11:46:58.810Z</time>
      </trkpt>
      <trkpt lat="38.66021" lon="-2.55165">
        <ele>828.471239</ele>
        <time>2022-09-01T11:46:59.818Z</time>
      </trkpt>
      <trkpt lat="38.65876" lon="-2.55328">
        <ele>829.965579</ele>
        <time>2022-09-01T11:47:53.167Z</time>
      </trkpt>
      <trkpt lat="38.65745" lon="-2.55561">
        <ele>829.16076</ele>
        <time>2022-09-01T11:48:39.812Z</time>
      </trkpt>
      <trkpt lat="38.6569" lon="-2.55662">
        <ele>828.311243</ele>
        <time>2022-09-01T11:48:58.540Z</time>
      </trkpt>
      <trkpt lat="38.65673" lon="-2.55685">
        <ele>828.042531</ele>
        <time>2022-09-01T11:49:03.394Z</time>
      </trkpt>
      <trkpt lat="38.65441" lon="-2.55942">
        <ele>824.980115</ele>
        <time>2022-09-01T11:50:03.994Z</time>
      </trkpt>
      <trkpt lat="38.65401" lon="-2.5598">
        <ele>824.835231</ele>
        <time>2022-09-01T11:50:14.512Z</time>
      </trkpt>
      <trkpt lat="38.64758" lon="-2.56461">
        <ele>821.896571</ele>
        <time>2022-09-01T11:52:55.091Z</time>
      </trkpt>
      <trkpt lat="38.64721" lon="-2.56491">
        <ele>821.31181</ele>
        <time>2022-09-01T11:53:02.909Z</time>
      </trkpt>
      <trkpt lat="38.64679" lon="-2.56522">
        <ele>820.660525</ele>
        <time>2022-09-01T11:53:11.680Z</time>
      </trkpt>
      <trkpt lat="38.64636" lon="-2.56554">
        <ele>820.208617</ele>
        <time>2022-09-01T11:53:20.836Z</time>
      </trkpt>
      <trkpt lat="38.646" lon="-2.56573">
        <ele>819.87895</ele>
        <time>2022-09-01T11:53:27.983Z</time>
      </trkpt>
      <trkpt lat="38.64596" lon="-2.56575">
        <ele>819.839136</ele>
        <time>2022-09-01T11:53:28.897Z</time>
      </trkpt>
      <trkpt lat="38.64586" lon="-2.56577">
        <ele>819.758106</ele>
        <time>2022-09-01T11:53:30.767Z</time>
      </trkpt>
      <trkpt lat="38.64578" lon="-2.5658">
        <ele>819.684859</ele>
        <time>2022-09-01T11:53:32.514Z</time>
      </trkpt>
      <trkpt lat="38.64561" lon="-2.56584">
        <ele>819.538503</ele>
        <time>2022-09-01T11:53:36.178Z</time>
      </trkpt>
      <trkpt lat="38.6448" lon="-2.56596">
        <ele>819.323753</ele>
        <time>2022-09-01T11:53:56.678Z</time>
      </trkpt>
      <trkpt lat="38.64463" lon="-2.56597">
        <ele>819.515645</ele>
        <time>2022-09-01T11:54:01.524Z</time>
      </trkpt>
      <trkpt lat="38.63845" lon="-2.56662">
        <ele>826.00834</ele>
        <time>2022-09-01T11:56:55.129Z</time>
      </trkpt>
      <trkpt lat="38.62906" lon="-2.56721">
        <ele>828.40031</ele>
        <time>2022-09-01T12:00:33.157Z</time>
      </trkpt>
      <trkpt lat="38.62853" lon="-2.56724">
        <ele>828.697237</ele>
        <time>2022-09-01T12:00:47.139Z</time>
      </trkpt>
      <trkpt lat="38.62677" lon="-2.56737">
        <ele>829.476317</ele>
        <time>2022-09-01T12:01:32.756Z</time>
      </trkpt>
      <trkpt lat="38.62651" lon="-2.56737">
        <ele>829.327325</ele>
        <time>2022-09-01T12:01:38.445Z</time>
      </trkpt>
      <trkpt lat="38.62649" lon="-2.56737">
        <ele>829.316032</ele>
        <time>2022-09-01T12:01:38.917Z</time>
      </trkpt>
      <trkpt lat="38.62647" lon="-2.56737">
        <ele>829.307522</ele>
        <time>2022-09-01T12:01:39.216Z</time>
      </trkpt>
      <trkpt lat="38.6264" lon="-2.56737">
        <ele>829.263503</ele>
        <time>2022-09-01T12:01:40.848Z</time>
      </trkpt>
      <trkpt lat="38.62613" lon="-2.56738">
        <ele>829.113288</ele>
        <time>2022-09-01T12:01:46.430Z</time>
      </trkpt>
      <trkpt lat="38.62617" lon="-2.56782">
        <ele>828.919466</ele>
        <time>2022-09-01T12:01:58.461Z</time>
      </trkpt>
      <trkpt lat="38.6263" lon="-2.56822">
        <ele>828.72946</ele>
        <time>2022-09-01T12:02:10.098Z</time>
      </trkpt>
      <trkpt lat="38.62675" lon="-2.56891">
        <ele>827.930175</ele>
        <time>2022-09-01T12:02:33.180Z</time>
      </trkpt>
      <trkpt lat="38.62697" lon="-2.56935">
        <ele>827.410011</ele>
        <time>2022-09-01T12:02:46.175Z</time>
      </trkpt>
      <trkpt lat="38.62702" lon="-2.56966">
        <ele>827.093274</ele>
        <time>2022-09-01T12:02:54.570Z</time>
      </trkpt>
      <trkpt lat="38.62762" lon="-2.56968">
        <ele>826.376774</ele>
        <time>2022-09-01T12:03:15.527Z</time>
      </trkpt>
      <trkpt lat="38.62763" lon="-2.56995">
        <ele>826.775558</ele>
        <time>2022-09-01T12:03:23.063Z</time>
      </trkpt>
      <trkpt lat="38.62273" lon="-2.57033">
        <ele>835.635634</ele>
        <time>2022-09-01T12:06:10.188Z</time>
      </trkpt>
      <trkpt lat="38.62017" lon="-2.57044">
        <ele>834.745427</ele>
        <time>2022-09-01T12:07:05.976Z</time>
      </trkpt>
      <trkpt lat="38.61911" lon="-2.57043">
        <ele>833.495838</ele>
        <time>2022-09-01T12:07:27.381Z</time>
      </trkpt>
      <trkpt lat="38.619" lon="-2.57052">
        <ele>833.333526</ele>
        <time>2022-09-01T12:07:30.075Z</time>
      </trkpt>
      <trkpt lat="38.61884" lon="-2.57076">
        <ele>832.817322</ele>
        <time>2022-09-01T12:07:34.833Z</time>
      </trkpt>
      <trkpt lat="38.61829" lon="-2.57152">
        <ele>830.633892</ele>
        <time>2022-09-01T12:07:49.871Z</time>
      </trkpt>
      <trkpt lat="38.61751" lon="-2.57274">
        <ele>827.188138</ele>
        <time>2022-09-01T12:08:11.774Z</time>
      </trkpt>
      <trkpt lat="38.6171" lon="-2.57365">
        <ele>824.756918</ele>
        <time>2022-09-01T12:08:26.489Z</time>
      </trkpt>
      <trkpt lat="38.61661" lon="-2.57523">
        <ele>821.666934</ele>
        <time>2022-09-01T12:08:51.453Z</time>
      </trkpt>
      <trkpt lat="38.61601" lon="-2.57773">
        <ele>818.804118</ele>
        <time>2022-09-01T12:09:32.619Z</time>
      </trkpt>
      <trkpt lat="38.61589" lon="-2.5785">
        <ele>818.218701</ele>
        <time>2022-09-01T12:09:45.741Z</time>
      </trkpt>
      <trkpt lat="38.61585" lon="-2.57906">
        <ele>817.931185</ele>
        <time>2022-09-01T12:09:55.588Z</time>
      </trkpt>
      <trkpt lat="38.6159" lon="-2.57992">
        <ele>817.675674</ele>
        <time>2022-09-01T12:10:10.961Z</time>
      </trkpt>
      <trkpt lat="38.61594" lon="-2.58038">
        <ele>817.539195</ele>
        <time>2022-09-01T12:10:19.195Z</time>
      </trkpt>
      <trkpt lat="38.61628" lon="-2.58222">
        <ele>816.151388</ele>
        <time>2022-09-01T12:10:50.386Z</time>
      </trkpt>
      <trkpt lat="38.61634" lon="-2.58298">
        <ele>815.400093</ele>
        <time>2022-09-01T12:11:02.167Z</time>
      </trkpt>
      <trkpt lat="38.61633" lon="-2.58342">
        <ele>814.880435</ele>
        <time>2022-09-01T12:11:08.894Z</time>
      </trkpt>
      <trkpt lat="38.6163" lon="-2.58385">
        <ele>814.114132</ele>
        <time>2022-09-01T12:11:15.481Z</time>
      </trkpt>
      <trkpt lat="38.61627" lon="-2.58416">
        <ele>813.574953</ele>
        <time>2022-09-01T12:11:20.037Z</time>
      </trkpt>
      <trkpt lat="38.61622" lon="-2.58439">
        <ele>813.159438</ele>
        <time>2022-09-01T12:11:23.476Z</time>
      </trkpt>
      <trkpt lat="38.61619" lon="-2.58452">
        <ele>812.906523</ele>
        <time>2022-09-01T12:11:25.560Z</time>
      </trkpt>
      <trkpt lat="38.61596" lon="-2.58527">
        <ele>811.501071</ele>
        <time>2022-09-01T12:11:36.912Z</time>
      </trkpt>
      <trkpt lat="38.61567" lon="-2.58583">
        <ele>810.883541</ele>
        <time>2022-09-01T12:11:47.088Z</time>
      </trkpt>
      <trkpt lat="38.61525" lon="-2.58644">
        <ele>810.560378</ele>
        <time>2022-09-01T12:12:00.483Z</time>
      </trkpt>
      <trkpt lat="38.61501" lon="-2.58674">
        <ele>810.390349</ele>
        <time>2022-09-01T12:12:08.004Z</time>
      </trkpt>
      <trkpt lat="38.61371" lon="-2.5879">
        <ele>811.680333</ele>
        <time>2022-09-01T12:12:52.305Z</time>
      </trkpt>
      <trkpt lat="38.61289" lon="-2.58873">
        <ele>813.473761</ele>
        <time>2022-09-01T12:13:27.803Z</time>
      </trkpt>
      <trkpt lat="38.61238" lon="-2.5896">
        <ele>815.4712</ele>
        <time>2022-09-01T12:13:57.723Z</time>
      </trkpt>
      <trkpt lat="38.61218" lon="-2.59019">
        <ele>816.648026</ele>
        <time>2022-09-01T12:14:15.540Z</time>
      </trkpt>
      <trkpt lat="38.61196" lon="-2.59137">
        <ele>818.246994</ele>
        <time>2022-09-01T12:14:48.734Z</time>
      </trkpt>
      <trkpt lat="38.61195" lon="-2.592">
        <ele>819.009216</ele>
        <time>2022-09-01T12:15:03.407Z</time>
      </trkpt>
      <trkpt lat="38.61204" lon="-2.59281">
        <ele>819.745063</ele>
        <time>2022-09-01T12:15:21.078Z</time>
      </trkpt>
      <trkpt lat="38.6127" lon="-2.59686">
        <ele>818.965849</ele>
        <time>2022-09-01T12:16:32.808Z</time>
      </trkpt>
      <trkpt lat="38.61278" lon="-2.59783">
        <ele>818.715771</ele>
        <time>2022-09-01T12:16:50.058Z</time>
      </trkpt>
      <trkpt lat="38.61277" lon="-2.59856">
        <ele>818.528908</ele>
        <time>2022-09-01T12:17:02.800Z</time>
      </trkpt>
      <trkpt lat="38.61267" lon="-2.59949">
        <ele>818.281916</ele>
        <time>2022-09-01T12:17:18.948Z</time>
      </trkpt>
      <trkpt lat="38.61248" lon="-2.60026">
        <ele>817.980749</ele>
        <time>2022-09-01T12:17:32.672Z</time>
      </trkpt>
      <trkpt lat="38.61202" lon="-2.60157">
        <ele>817.444741</ele>
        <time>2022-09-01T12:17:57.085Z</time>
      </trkpt>
      <trkpt lat="38.60698" lon="-2.6108">
        <ele>814.368842</ele>
        <time>2022-09-01T12:21:12.754Z</time>
      </trkpt>
      <trkpt lat="38.60642" lon="-2.61173">
        <ele>813.679552</ele>
        <time>2022-09-01T12:21:32.774Z</time>
      </trkpt>
      <trkpt lat="38.60292" lon="-2.61613">
        <ele>809.282616</ele>
        <time>2022-09-01T12:23:15.068Z</time>
      </trkpt>
      <trkpt lat="38.60035" lon="-2.61925">
        <ele>805.470334</ele>
        <time>2022-09-01T12:24:28.861Z</time>
      </trkpt>
      <trkpt lat="38.59935" lon="-2.62035">
        <ele>803.146163</ele>
        <time>2022-09-01T12:24:54.948Z</time>
      </trkpt>
      <trkpt lat="38.59627" lon="-2.62281">
        <ele>794.264648</ele>
        <time>2022-09-01T12:26:01.157Z</time>
      </trkpt>
      <trkpt lat="38.59598" lon="-2.62307">
        <ele>793.81687</ele>
        <time>2022-09-01T12:26:09.756Z</time>
      </trkpt>
      <trkpt lat="38.59521" lon="-2.62376">
        <ele>794.541603</ele>
        <time>2022-09-01T12:26:36.831Z</time>
      </trkpt>
      <trkpt lat="38.59481" lon="-2.6242">
        <ele>794.947059</ele>
        <time>2022-09-01T12:26:53.981Z</time>
      </trkpt>
      <trkpt lat="38.59314" lon="-2.62671">
        <ele>795.445524</ele>
        <time>2022-09-01T12:27:55.723Z</time>
      </trkpt>
      <trkpt lat="38.5925" lon="-2.6275">
        <ele>795.212761</ele>
        <time>2022-09-01T12:28:14.917Z</time>
      </trkpt>
      <trkpt lat="38.59166" lon="-2.62817">
        <ele>795.231273</ele>
        <time>2022-09-01T12:28:37.065Z</time>
      </trkpt>
      <trkpt lat="38.59112" lon="-2.62848">
        <ele>795.336121</ele>
        <time>2022-09-01T12:28:50.723Z</time>
      </trkpt>
      <trkpt lat="38.58804" lon="-2.62987">
        <ele>797.8739</ele>
        <time>2022-09-01T12:30:20.685Z</time>
      </trkpt>
      <trkpt lat="38.5869" lon="-2.63034">
        <ele>799.000196</ele>
        <time>2022-09-01T12:30:55.223Z</time>
      </trkpt>
      <trkpt lat="38.58576" lon="-2.63092">
        <ele>800.017272</ele>
        <time>2022-09-01T12:31:28.815Z</time>
      </trkpt>
      <trkpt lat="38.58482" lon="-2.63173">
        <ele>800.761048</ele>
        <time>2022-09-01T12:31:58.287Z</time>
      </trkpt>
      <trkpt lat="38.58412" lon="-2.63255">
        <ele>801.32538</ele>
        <time>2022-09-01T12:32:22.886Z</time>
      </trkpt>
      <trkpt lat="38.58367" lon="-2.63336">
        <ele>801.740126</ele>
        <time>2022-09-01T12:32:43.412Z</time>
      </trkpt>
      <trkpt lat="38.5821" lon="-2.63747">
        <ele>802.581634</ele>
        <time>2022-09-01T12:34:14.851Z</time>
      </trkpt>
      <trkpt lat="38.58182" lon="-2.63805">
        <ele>802.192109</ele>
        <time>2022-09-01T12:34:26.060Z</time>
      </trkpt>
      <trkpt lat="38.58141" lon="-2.63862">
        <ele>801.617584</ele>
        <time>2022-09-01T12:34:37.687Z</time>
      </trkpt>
      <trkpt lat="38.58091" lon="-2.63912">
        <ele>800.220551</ele>
        <time>2022-09-01T12:34:49.162Z</time>
      </trkpt>
      <trkpt lat="38.58044" lon="-2.63945">
        <ele>799.038763</ele>
        <time>2022-09-01T12:34:58.986Z</time>
      </trkpt>
      <trkpt lat="38.58001" lon="-2.63967">
        <ele>798.002511</ele>
        <time>2022-09-01T12:35:07.928Z</time>
      </trkpt>
      <trkpt lat="38.57904" lon="-2.63989">
        <ele>798.529557</ele>
        <time>2022-09-01T12:35:29.884Z</time>
      </trkpt>
      <trkpt lat="38.57691" lon="-2.64015">
        <ele>799.768697</ele>
        <time>2022-09-01T12:36:43.295Z</time>
      </trkpt>
      <trkpt lat="38.57629" lon="-2.64038">
        <ele>799.372302</ele>
        <time>2022-09-01T12:36:55.565Z</time>
      </trkpt>
      <trkpt lat="38.57584" lon="-2.64059">
        <ele>796.190294</ele>
        <time>2022-09-01T12:37:03.463Z</time>
      </trkpt>
      <trkpt lat="38.57509" lon="-2.64127">
        <ele>790.191095</ele>
        <time>2022-09-01T12:37:17.575Z</time>
      </trkpt>
      <trkpt lat="38.57477" lon="-2.64175">
        <ele>787.543452</ele>
        <time>2022-09-01T12:37:24.945Z</time>
      </trkpt>
      <trkpt lat="38.57395" lon="-2.64298">
        <ele>782.830039</ele>
        <time>2022-09-01T12:37:46.586Z</time>
      </trkpt>
      <trkpt lat="38.57361" lon="-2.64346">
        <ele>781.654458</ele>
        <time>2022-09-01T12:38:01.652Z</time>
      </trkpt>
      <trkpt lat="38.57312" lon="-2.6442">
        <ele>782.037597</ele>
        <time>2022-09-01T12:38:27.210Z</time>
      </trkpt>
      <trkpt lat="38.57289" lon="-2.64463">
        <ele>782.239387</ele>
        <time>2022-09-01T12:38:41.456Z</time>
      </trkpt>
      <trkpt lat="38.57176" lon="-2.64842">
        <ele>778.108677</ele>
        <time>2022-09-01T12:39:41.818Z</time>
      </trkpt>
      <trkpt lat="38.57116" lon="-2.65032">
        <ele>779.430592</ele>
        <time>2022-09-01T12:40:22.752Z</time>
      </trkpt>
      <trkpt lat="38.57007" lon="-2.65376">
        <ele>790.246797</ele>
        <time>2022-09-01T12:42:35.343Z</time>
      </trkpt>
      <trkpt lat="38.56892" lon="-2.65678">
        <ele>796.568966</ele>
        <time>2022-09-01T12:44:09.284Z</time>
      </trkpt>
      <trkpt lat="38.56855" lon="-2.65753">
        <ele>797.708763</ele>
        <time>2022-09-01T12:44:29.147Z</time>
      </trkpt>
      <trkpt lat="38.56816" lon="-2.65821">
        <ele>798.065108</ele>
        <time>2022-09-01T12:44:46.578Z</time>
      </trkpt>
      <trkpt lat="38.56725" lon="-2.65944">
        <ele>797.823507</ele>
        <time>2022-09-01T12:45:16.450Z</time>
      </trkpt>
      <trkpt lat="38.56624" lon="-2.66033">
        <ele>795.811801</ele>
        <time>2022-09-01T12:45:40.547Z</time>
      </trkpt>
      <trkpt lat="38.56544" lon="-2.66088">
        <ele>794.249819</ele>
        <time>2022-09-01T12:45:57.637Z</time>
      </trkpt>
      <trkpt lat="38.56498" lon="-2.66111">
        <ele>793.438036</ele>
        <time>2022-09-01T12:46:06.892Z</time>
      </trkpt>
      <trkpt lat="38.55943" lon="-2.66304">
        <ele>784.332687</ele>
        <time>2022-09-01T12:48:01.172Z</time>
      </trkpt>
      <trkpt lat="38.55847" lon="-2.66321">
        <ele>782.938507</ele>
        <time>2022-09-01T12:48:21.466Z</time>
      </trkpt>
      <trkpt lat="38.55775" lon="-2.66327">
        <ele>781.708008</ele>
        <time>2022-09-01T12:48:35.971Z</time>
      </trkpt>
      <trkpt lat="38.55767" lon="-2.66327">
        <ele>781.571096</ele>
        <time>2022-09-01T12:48:37.583Z</time>
      </trkpt>
      <trkpt lat="38.55397" lon="-2.66355">
        <ele>773.935048</ele>
        <time>2022-09-01T12:49:46.899Z</time>
      </trkpt>
      <trkpt lat="38.55314" lon="-2.66381">
        <ele>773.096847</ele>
        <time>2022-09-01T12:50:05.338Z</time>
      </trkpt>
      <trkpt lat="38.55284" lon="-2.66398">
        <ele>773.384386</ele>
        <time>2022-09-01T12:50:13.555Z</time>
      </trkpt>
      <trkpt lat="38.55233" lon="-2.66439">
        <ele>773.914666</ele>
        <time>2022-09-01T12:50:30.769Z</time>
      </trkpt>
      <trkpt lat="38.55197" lon="-2.66472">
        <ele>774.303621</ele>
        <time>2022-09-01T12:50:44.598Z</time>
      </trkpt>
      <trkpt lat="38.54849" lon="-2.66782">
        <ele>780.934065</ele>
        <time>2022-09-01T12:53:02.565Z</time>
      </trkpt>
      <trkpt lat="38.54768" lon="-2.66825">
        <ele>780.753775</ele>
        <time>2022-09-01T12:53:22.379Z</time>
      </trkpt>
      <trkpt lat="38.54308" lon="-2.67025">
        <ele>771.372826</ele>
        <time>2022-09-01T12:54:54.274Z</time>
      </trkpt>
      <trkpt lat="38.54243" lon="-2.67073">
        <ele>770.126276</ele>
        <time>2022-09-01T12:55:09.328Z</time>
      </trkpt>
      <trkpt lat="38.54197" lon="-2.67118">
        <ele>769.739579</ele>
        <time>2022-09-01T12:55:21.659Z</time>
      </trkpt>
      <trkpt lat="38.54171" lon="-2.67144">
        <ele>769.753842</ele>
        <time>2022-09-01T12:55:28.950Z</time>
      </trkpt>
      <trkpt lat="38.53935" lon="-2.67382">
        <ele>770.729815</ele>
        <time>2022-09-01T12:56:46.430Z</time>
      </trkpt>
      <trkpt lat="38.52986" lon="-2.68348">
        <ele>773.496347</ele>
        <time>2022-09-01T13:01:43.425Z</time>
      </trkpt>
      <trkpt lat="38.52939" lon="-2.68388">
        <ele>773.246686</ele>
        <time>2022-09-01T13:01:55.147Z</time>
      </trkpt>
      <trkpt lat="38.52859" lon="-2.68428">
        <ele>772.218075</ele>
        <time>2022-09-01T13:02:12.481Z</time>
      </trkpt>
      <trkpt lat="38.52772" lon="-2.68444">
        <ele>771.212391</ele>
        <time>2022-09-01T13:02:30.241Z</time>
      </trkpt>
      <trkpt lat="38.52723" lon="-2.68447">
        <ele>770.849076</ele>
        <time>2022-09-01T13:02:40.254Z</time>
      </trkpt>
      <trkpt lat="38.52504" lon="-2.6846">
        <ele>769.419503</ele>
        <time>2022-09-01T13:03:28.254Z</time>
      </trkpt>
      <trkpt lat="38.52452" lon="-2.68479">
        <ele>769.131997</ele>
        <time>2022-09-01T13:03:40.034Z</time>
      </trkpt>
      <trkpt lat="38.5239" lon="-2.68508">
        <ele>768.416455</ele>
        <time>2022-09-01T13:03:54.223Z</time>
      </trkpt>
      <trkpt lat="38.52298" lon="-2.68571">
        <ele>766.91931</ele>
        <time>2022-09-01T13:04:15.371Z</time>
      </trkpt>
      <trkpt lat="38.52195" lon="-2.68651">
        <ele>763.725773</ele>
        <time>2022-09-01T13:04:37.626Z</time>
      </trkpt>
      <trkpt lat="38.52174" lon="-2.68668">
        <ele>762.934608</ele>
        <time>2022-09-01T13:04:42.060Z</time>
      </trkpt>
      <trkpt lat="38.51987" lon="-2.68813">
        <ele>755.690752</ele>
        <time>2022-09-01T13:05:20.371Z</time>
      </trkpt>
      <trkpt lat="38.51894" lon="-2.6888">
        <ele>753.461678</ele>
        <time>2022-09-01T13:05:40.228Z</time>
      </trkpt>
      <trkpt lat="38.51737" lon="-2.68981">
        <ele>752.936623</ele>
        <time>2022-09-01T13:06:17.558Z</time>
      </trkpt>
      <trkpt lat="38.51698" lon="-2.69005">
        <ele>753.582963</ele>
        <time>2022-09-01T13:06:30.654Z</time>
      </trkpt>
      <trkpt lat="38.51515" lon="-2.69125">
        <ele>760.059005</ele>
        <time>2022-09-01T13:07:59.713Z</time>
      </trkpt>
      <trkpt lat="38.5149" lon="-2.69145">
        <ele>761.197691</ele>
        <time>2022-09-01T13:08:12.614Z</time>
      </trkpt>
      <trkpt lat="38.51428" lon="-2.69202">
        <ele>762.672826</ele>
        <time>2022-09-01T13:08:43.458Z</time>
      </trkpt>
      <trkpt lat="38.5105" lon="-2.69577">
        <ele>769.686345</ele>
        <time>2022-09-01T13:11:02.785Z</time>
      </trkpt>
      <trkpt lat="38.50944" lon="-2.69667">
        <ele>771.26011</ele>
        <time>2022-09-01T13:11:39.295Z</time>
      </trkpt>
      <trkpt lat="38.50787" lon="-2.69768">
        <ele>773.585679</ele>
        <time>2022-09-01T13:12:33.325Z</time>
      </trkpt>
      <trkpt lat="38.50624" lon="-2.69843">
        <ele>775.490192</ele>
        <time>2022-09-01T13:13:22.377Z</time>
      </trkpt>
      <trkpt lat="38.50483" lon="-2.69886">
        <ele>777.094547</ele>
        <time>2022-09-01T13:14:02.858Z</time>
      </trkpt>
      <trkpt lat="38.50126" lon="-2.69971">
        <ele>782.055373</ele>
        <time>2022-09-01T13:15:49.871Z</time>
      </trkpt>
      <trkpt lat="38.49502" lon="-2.70121">
        <ele>797.02545</ele>
        <time>2022-09-01T13:19:36.351Z</time>
      </trkpt>
      <trkpt lat="38.49442" lon="-2.70126">
        <ele>797.533806</ele>
        <time>2022-09-01T13:19:53.762Z</time>
      </trkpt>
      <trkpt lat="38.49389" lon="-2.70123">
        <ele>797.985824</ele>
        <time>2022-09-01T13:20:07.966Z</time>
      </trkpt>
      <trkpt lat="38.49321" lon="-2.70103">
        <ele>798.469869</ele>
        <time>2022-09-01T13:20:24.825Z</time>
      </trkpt>
      <trkpt lat="38.4928" lon="-2.70081">
        <ele>798.334755</ele>
        <time>2022-09-01T13:20:34.856Z</time>
      </trkpt>
      <trkpt lat="38.48345" lon="-2.69521">
        <ele>795.092865</ele>
        <time>2022-09-01T13:24:24.739Z</time>
      </trkpt>
      <trkpt lat="38.48261" lon="-2.69486">
        <ele>794.494652</ele>
        <time>2022-09-01T13:24:44.729Z</time>
      </trkpt>
      <trkpt lat="38.48223" lon="-2.69477">
        <ele>794.237134</ele>
        <time>2022-09-01T13:24:52.897Z</time>
      </trkpt>
      <trkpt lat="38.48185" lon="-2.69474">
        <ele>793.97599</ele>
        <time>2022-09-01T13:25:00.774Z</time>
      </trkpt>
      <trkpt lat="38.48092" lon="-2.6949">
        <ele>791.623815</ele>
        <time>2022-09-01T13:25:18.818Z</time>
      </trkpt>
      <trkpt lat="38.48032" lon="-2.6952">
        <ele>789.904925</ele>
        <time>2022-09-01T13:25:30.382Z</time>
      </trkpt>
      <trkpt lat="38.47975" lon="-2.69559">
        <ele>787.80135</ele>
        <time>2022-09-01T13:25:41.570Z</time>
      </trkpt>
      <trkpt lat="38.47843" lon="-2.69712">
        <ele>782.299062</ele>
        <time>2022-09-01T13:26:12.506Z</time>
      </trkpt>
      <trkpt lat="38.47306" lon="-2.70349">
        <ele>779.630552</ele>
        <time>2022-09-01T13:28:55.950Z</time>
      </trkpt>
      <trkpt lat="38.46968" lon="-2.70742">
        <ele>786.854356</ele>
        <time>2022-09-01T13:31:26.422Z</time>
      </trkpt>
      <trkpt lat="38.46686" lon="-2.71086">
        <ele>787.615519</ele>
        <time>2022-09-01T13:32:58.461Z</time>
      </trkpt>
      <trkpt lat="38.45759" lon="-2.71944">
        <ele>775.949167</ele>
        <time>2022-09-01T13:36:55.178Z</time>
      </trkpt>
      <trkpt lat="38.45713" lon="-2.71987">
        <ele>775.578095</ele>
        <time>2022-09-01T13:37:06.792Z</time>
      </trkpt>
      <trkpt lat="38.45538" lon="-2.72149">
        <ele>775.204758</ele>
        <time>2022-09-01T13:37:59.108Z</time>
      </trkpt>
      <trkpt lat="38.4517" lon="-2.72487">
        <ele>770.891846</ele>
        <time>2022-09-01T13:39:36.027Z</time>
      </trkpt>
      <trkpt lat="38.45129" lon="-2.72533">
        <ele>769.377212</ele>
        <time>2022-09-01T13:39:45.981Z</time>
      </trkpt>
      <trkpt lat="38.45032" lon="-2.72661">
        <ele>764.562175</ele>
        <time>2022-09-01T13:40:09.422Z</time>
      </trkpt>
      <trkpt lat="38.44946" lon="-2.72809">
        <ele>760.879453</ele>
        <time>2022-09-01T13:40:34.772Z</time>
      </trkpt>
      <trkpt lat="38.44731" lon="-2.73216">
        <ele>764.408364</ele>
        <time>2022-09-01T13:42:39.910Z</time>
      </trkpt>
      <trkpt lat="38.44699" lon="-2.73258">
        <ele>764.253633</ele>
        <time>2022-09-01T13:42:50.229Z</time>
      </trkpt>
      <trkpt lat="38.44611" lon="-2.73344">
        <ele>762.051711</ele>
        <time>2022-09-01T13:43:10.593Z</time>
      </trkpt>
      <trkpt lat="38.44431" lon="-2.73496">
        <ele>753.8593</ele>
        <time>2022-09-01T13:43:46.884Z</time>
      </trkpt>
      <trkpt lat="38.44364" lon="-2.73561">
        <ele>751.184878</ele>
        <time>2022-09-01T13:44:02.575Z</time>
      </trkpt>
      <trkpt lat="38.44323" lon="-2.73609">
        <ele>750.787124</ele>
        <time>2022-09-01T13:44:14.535Z</time>
      </trkpt>
      <trkpt lat="38.44266" lon="-2.73693">
        <ele>750.748088</ele>
        <time>2022-09-01T13:44:36.619Z</time>
      </trkpt>
      <trkpt lat="38.44228" lon="-2.73773">
        <ele>750.786159</ele>
        <time>2022-09-01T13:44:55.486Z</time>
      </trkpt>
      <trkpt lat="38.4413" lon="-2.74034">
        <ele>750.772767</ele>
        <time>2022-09-01T13:45:49.815Z</time>
      </trkpt>
      <trkpt lat="38.43736" lon="-2.74972">
        <ele>745.993598</ele>
        <time>2022-09-01T13:48:49.272Z</time>
      </trkpt>
      <trkpt lat="38.43644" lon="-2.75207">
        <ele>743.851823</ele>
        <time>2022-09-01T13:49:33.718Z</time>
      </trkpt>
      <trkpt lat="38.43534" lon="-2.75486">
        <ele>737.053014</ele>
        <time>2022-09-01T13:50:17.797Z</time>
      </trkpt>
      <trkpt lat="38.4346" lon="-2.7564">
        <ele>732.868128</ele>
        <time>2022-09-01T13:50:43.308Z</time>
      </trkpt>
      <trkpt lat="38.43392" lon="-2.7574">
        <ele>730.01254</ele>
        <time>2022-09-01T13:51:02.468Z</time>
      </trkpt>
      <trkpt lat="38.43306" lon="-2.75833">
        <ele>726.890592</ele>
        <time>2022-09-01T13:51:23.162Z</time>
      </trkpt>
      <trkpt lat="38.43048" lon="-2.76076">
        <ele>717.941083</ele>
        <time>2022-09-01T13:52:21.481Z</time>
      </trkpt>
      <trkpt lat="38.42978" lon="-2.76148">
        <ele>715.685231</ele>
        <time>2022-09-01T13:52:38.581Z</time>
      </trkpt>
      <trkpt lat="38.42567" lon="-2.7664">
        <ele>701.89435</ele>
        <time>2022-09-01T13:54:23.609Z</time>
      </trkpt>
      <trkpt lat="38.42513" lon="-2.76689">
        <ele>700.857684</ele>
        <time>2022-09-01T13:54:36.573Z</time>
      </trkpt>
      <trkpt lat="38.4247" lon="-2.76713">
        <ele>700.199864</ele>
        <time>2022-09-01T13:54:45.925Z</time>
      </trkpt>
      <trkpt lat="38.42387" lon="-2.76735">
        <ele>699.055591</ele>
        <time>2022-09-01T13:55:03.455Z</time>
      </trkpt>
      <trkpt lat="38.42336" lon="-2.7673">
        <ele>698.69858</ele>
        <time>2022-09-01T13:55:14.239Z</time>
      </trkpt>
      <trkpt lat="38.42044" lon="-2.76644">
        <ele>697.032184</ele>
        <time>2022-09-01T13:56:19.524Z</time>
      </trkpt>
      <trkpt lat="38.41979" lon="-2.76634">
        <ele>696.163922</ele>
        <time>2022-09-01T13:56:34.869Z</time>
      </trkpt>
      <trkpt lat="38.41887" lon="-2.76643">
        <ele>694.91102</ele>
        <time>2022-09-01T13:56:53.836Z</time>
      </trkpt>
      <trkpt lat="38.41822" lon="-2.76664">
        <ele>692.238296</ele>
        <time>2022-09-01T13:57:05.479Z</time>
      </trkpt>
      <trkpt lat="38.41758" lon="-2.76707">
        <ele>688.232891</ele>
        <time>2022-09-01T13:57:17.195Z</time>
      </trkpt>
      <trkpt lat="38.41687" lon="-2.76788">
        <ele>683.630304</ele>
        <time>2022-09-01T13:57:32.259Z</time>
      </trkpt>
      <trkpt lat="38.41655" lon="-2.76841">
        <ele>681.851194</ele>
        <time>2022-09-01T13:57:40.830Z</time>
      </trkpt>
      <trkpt lat="38.41631" lon="-2.76899">
        <ele>680.105616</ele>
        <time>2022-09-01T13:57:49.813Z</time>
      </trkpt>
      <trkpt lat="38.41461" lon="-2.77552">
        <ele>682.16804</ele>
        <time>2022-09-01T14:00:24.971Z</time>
      </trkpt>
      <trkpt lat="38.41309" lon="-2.78163">
        <ele>667.949303</ele>
        <time>2022-09-01T14:01:55.188Z</time>
      </trkpt>
      <trkpt lat="38.41274" lon="-2.78271">
        <ele>665.197951</ele>
        <time>2022-09-01T14:02:11.591Z</time>
      </trkpt>
      <trkpt lat="38.41248" lon="-2.78316">
        <ele>664.331223</ele>
        <time>2022-09-01T14:02:19.578Z</time>
      </trkpt>
      <trkpt lat="38.41203" lon="-2.7837">
        <ele>663.108752</ele>
        <time>2022-09-01T14:02:31.267Z</time>
      </trkpt>
      <trkpt lat="38.41125" lon="-2.78421">
        <ele>661.975344</ele>
        <time>2022-09-01T14:02:48.989Z</time>
      </trkpt>
      <trkpt lat="38.41084" lon="-2.78434">
        <ele>662.321763</ele>
        <time>2022-09-01T14:03:00.261Z</time>
      </trkpt>
      <trkpt lat="38.41029" lon="-2.78438">
        <ele>662.771072</ele>
        <time>2022-09-01T14:03:17.534Z</time>
      </trkpt>
      <trkpt lat="38.40993" lon="-2.78434">
        <ele>663.069919</ele>
        <time>2022-09-01T14:03:29.542Z</time>
      </trkpt>
      <trkpt lat="38.40945" lon="-2.78418">
        <ele>663.110526</ele>
        <time>2022-09-01T14:03:45.986Z</time>
      </trkpt>
      <trkpt lat="38.40455" lon="-2.78045">
        <ele>659.323378</ele>
        <time>2022-09-01T14:05:45.581Z</time>
      </trkpt>
      <trkpt lat="38.40246" lon="-2.77892">
        <ele>658.972448</ele>
        <time>2022-09-01T14:06:42.524Z</time>
      </trkpt>
      <trkpt lat="38.40143" lon="-2.77841">
        <ele>658.374979</ele>
        <time>2022-09-01T14:07:07.269Z</time>
      </trkpt>
      <trkpt lat="38.4007" lon="-2.77821">
        <ele>657.517055</ele>
        <time>2022-09-01T14:07:22.522Z</time>
      </trkpt>
      <trkpt lat="38.39714" lon="-2.77766">
        <ele>651.641563</ele>
        <time>2022-09-01T14:08:31.800Z</time>
      </trkpt>
      <trkpt lat="38.39657" lon="-2.77762">
        <ele>650.83931</ele>
        <time>2022-09-01T14:08:44.129Z</time>
      </trkpt>
      <trkpt lat="38.39597" lon="-2.77766">
        <ele>650.489894</ele>
        <time>2022-09-01T14:08:57.810Z</time>
      </trkpt>
      <trkpt lat="38.39541" lon="-2.77782">
        <ele>650.167896</ele>
        <time>2022-09-01T14:09:10.843Z</time>
      </trkpt>
      <trkpt lat="38.39501" lon="-2.778">
        <ele>649.932395</ele>
        <time>2022-09-01T14:09:20.088Z</time>
      </trkpt>
      <trkpt lat="38.39466" lon="-2.77824">
        <ele>649.462423</ele>
        <time>2022-09-01T14:09:28.297Z</time>
      </trkpt>
      <trkpt lat="38.39388" lon="-2.77895">
        <ele>647.646623</ele>
        <time>2022-09-01T14:09:46.297Z</time>
      </trkpt>
      <trkpt lat="38.39272" lon="-2.78009">
        <ele>645.966795</ele>
        <time>2022-09-01T14:10:34.325Z</time>
      </trkpt>
      <trkpt lat="38.39144" lon="-2.78183">
        <ele>645.222367</ele>
        <time>2022-09-01T14:11:48.499Z</time>
      </trkpt>
      <trkpt lat="38.39132" lon="-2.78192">
        <ele>645.190921</ele>
        <time>2022-09-01T14:11:53.547Z</time>
      </trkpt>
      <trkpt lat="38.39117" lon="-2.78191">
        <ele>645.156627</ele>
        <time>2022-09-01T14:11:58.782Z</time>
      </trkpt>
      <trkpt lat="38.39066" lon="-2.78155">
        <ele>645.020216</ele>
        <time>2022-09-01T14:12:19.328Z</time>
      </trkpt>
      <trkpt lat="38.3909" lon="-2.78105">
        <ele>643.542998</ele>
        <time>2022-09-01T14:12:28.129Z</time>
      </trkpt>
      <trkpt lat="38.39092" lon="-2.78079">
        <ele>642.847178</ele>
        <time>2022-09-01T14:12:31.667Z</time>
      </trkpt>
      <trkpt lat="38.39063" lon="-2.77965">
        <ele>639.533535</ele>
        <time>2022-09-01T14:12:47.155Z</time>
      </trkpt>
      <trkpt lat="38.3905" lon="-2.7794">
        <ele>638.70573</ele>
        <time>2022-09-01T14:12:50.917Z</time>
      </trkpt>
      <trkpt lat="38.38857" lon="-2.77672">
        <ele>620.555721</ele>
        <time>2022-09-01T14:13:34.218Z</time>
      </trkpt>
      <trkpt lat="38.3879" lon="-2.77593">
        <ele>614.659231</ele>
        <time>2022-09-01T14:13:48.017Z</time>
      </trkpt>
      <trkpt lat="38.38741" lon="-2.77544">
        <ele>610.984058</ele>
        <time>2022-09-01T14:13:57.468Z</time>
      </trkpt>
      <trkpt lat="38.38661" lon="-2.77483">
        <ele>605.461578</ele>
        <time>2022-09-01T14:14:11.933Z</time>
      </trkpt>
      <trkpt lat="38.38613" lon="-2.77434">
        <ele>603.832641</ele>
        <time>2022-09-01T14:14:21.642Z</time>
      </trkpt>
      <trkpt lat="38.38575" lon="-2.77417">
        <ele>602.945178</ele>
        <time>2022-09-01T14:14:28.836Z</time>
      </trkpt>
      <trkpt lat="38.38566" lon="-2.77403">
        <ele>602.650943</ele>
        <time>2022-09-01T14:14:31.502Z</time>
      </trkpt>
      <trkpt lat="38.38553" lon="-2.77357">
        <ele>601.806084</ele>
        <time>2022-09-01T14:14:39.463Z</time>
      </trkpt>
      <trkpt lat="38.38531" lon="-2.77342">
        <ele>601.251438</ele>
        <time>2022-09-01T14:14:44.902Z</time>
      </trkpt>
      <trkpt lat="38.38461" lon="-2.77314">
        <ele>602.551241</ele>
        <time>2022-09-01T14:15:05.537Z</time>
      </trkpt>
      <trkpt lat="38.38426" lon="-2.77317">
        <ele>603.364763</ele>
        <time>2022-09-01T14:15:17.014Z</time>
      </trkpt>
      <trkpt lat="38.38415" lon="-2.77326">
        <ele>603.674991</ele>
        <time>2022-09-01T14:15:21.976Z</time>
      </trkpt>
      <trkpt lat="38.38407" lon="-2.77364">
        <ele>604.394376</ele>
        <time>2022-09-01T14:15:33.907Z</time>
      </trkpt>
      <trkpt lat="38.38391" lon="-2.77381">
        <ele>604.872582</ele>
        <time>2022-09-01T14:15:43.009Z</time>
      </trkpt>
      <trkpt lat="38.38345" lon="-2.77411">
        <ele>606.319841</ele>
        <time>2022-09-01T14:16:05.218Z</time>
      </trkpt>
      <trkpt lat="38.38329" lon="-2.77406">
        <ele>606.824283</ele>
        <time>2022-09-01T14:16:12.188Z</time>
      </trkpt>
      <trkpt lat="38.38234" lon="-2.77194">
        <ele>609.904361</ele>
        <time>2022-09-01T14:17:19.928Z</time>
      </trkpt>
      <trkpt lat="38.3822" lon="-2.77179">
        <ele>609.68309</ele>
        <time>2022-09-01T14:17:23.558Z</time>
      </trkpt>
      <trkpt lat="38.38163" lon="-2.77138">
        <ele>608.924914</ele>
        <time>2022-09-01T14:17:35.035Z</time>
      </trkpt>
      <trkpt lat="38.38126" lon="-2.77078">
        <ele>607.090006</ele>
        <time>2022-09-01T14:17:44.672Z</time>
      </trkpt>
      <trkpt lat="38.38111" lon="-2.77045">
        <ele>605.548653</ele>
        <time>2022-09-01T14:17:49.178Z</time>
      </trkpt>
      <trkpt lat="38.38068" lon="-2.77027">
        <ele>603.195879</ele>
        <time>2022-09-01T14:17:56.134Z</time>
      </trkpt>
      <trkpt lat="38.38049" lon="-2.77026">
        <ele>602.229303</ele>
        <time>2022-09-01T14:17:59.006Z</time>
      </trkpt>
      <trkpt lat="38.38034" lon="-2.7701">
        <ele>601.21168</ele>
        <time>2022-09-01T14:18:02.050Z</time>
      </trkpt>
      <trkpt lat="38.38021" lon="-2.76984">
        <ele>599.924508</ele>
        <time>2022-09-01T14:18:05.978Z</time>
      </trkpt>
      <trkpt lat="38.38017" lon="-2.76963">
        <ele>599.159815</ele>
        <time>2022-09-01T14:18:08.670Z</time>
      </trkpt>
      <trkpt lat="38.38017" lon="-2.76925">
        <ele>598.725187</ele>
        <time>2022-09-01T14:18:13.657Z</time>
      </trkpt>
      <trkpt lat="38.38019" lon="-2.76909">
        <ele>598.547847</ele>
        <time>2022-09-01T14:18:15.838Z</time>
      </trkpt>
      <trkpt lat="38.38043" lon="-2.76869">
        <ele>597.986883</ele>
        <time>2022-09-01T14:18:22.922Z</time>
      </trkpt>
      <trkpt lat="38.3804" lon="-2.76849">
        <ele>597.758195</ele>
        <time>2022-09-01T14:18:25.904Z</time>
      </trkpt>
      <trkpt lat="38.38008" lon="-2.76819">
        <ele>597.17344</ele>
        <time>2022-09-01T14:18:34.519Z</time>
      </trkpt>
      <trkpt lat="38.37992" lon="-2.76792">
        <ele>596.797519</ele>
        <time>2022-09-01T14:18:40.723Z</time>
      </trkpt>
      <trkpt lat="38.37725" lon="-2.76598">
        <ele>602.822906</ele>
        <time>2022-09-01T14:20:26.634Z</time>
      </trkpt>
      <trkpt lat="38.37693" lon="-2.76587">
        <ele>603.455089</ele>
        <time>2022-09-01T14:20:36.486Z</time>
      </trkpt>
      <trkpt lat="38.37668" lon="-2.76585">
        <ele>603.936193</ele>
        <time>2022-09-01T14:20:43.463Z</time>
      </trkpt>
      <trkpt lat="38.37633" lon="-2.76604">
        <ele>604.123366</ele>
        <time>2022-09-01T14:20:53.591Z</time>
      </trkpt>
      <trkpt lat="38.37598" lon="-2.76613">
        <ele>604.174883</ele>
        <time>2022-09-01T14:21:01.882Z</time>
      </trkpt>
      <trkpt lat="38.37578" lon="-2.76608">
        <ele>604.205397</ele>
        <time>2022-09-01T14:21:06.486Z</time>
      </trkpt>
      <trkpt lat="38.37451" lon="-2.76536">
        <ele>604.28058</ele>
        <time>2022-09-01T14:21:36.279Z</time>
      </trkpt>
      <trkpt lat="38.37032" lon="-2.75989">
        <ele>602.336818</ele>
        <time>2022-09-01T14:23:47.647Z</time>
      </trkpt>
      <trkpt lat="38.36989" lon="-2.7596">
        <ele>601.748435</ele>
        <time>2022-09-01T14:23:56.363Z</time>
      </trkpt>
      <trkpt lat="38.3688" lon="-2.75824">
        <ele>597.862368</ele>
        <time>2022-09-01T14:24:22.318Z</time>
      </trkpt>
      <trkpt lat="38.36826" lon="-2.75648">
        <ele>595.47518</ele>
        <time>2022-09-01T14:24:49.404Z</time>
      </trkpt>
      <trkpt lat="38.36699" lon="-2.75475">
        <ele>594.007148</ele>
        <time>2022-09-01T14:25:33.907Z</time>
      </trkpt>
      <trkpt lat="38.36656" lon="-2.75461">
        <ele>593.711007</ele>
        <time>2022-09-01T14:25:43.073Z</time>
      </trkpt>
      <trkpt lat="38.36634" lon="-2.75444">
        <ele>593.545807</ele>
        <time>2022-09-01T14:25:47.787Z</time>
      </trkpt>
      <trkpt lat="38.36564" lon="-2.75423">
        <ele>590.791762</ele>
        <time>2022-09-01T14:25:59.882Z</time>
      </trkpt>
      <trkpt lat="38.36434" lon="-2.75321">
        <ele>584.653252</ele>
        <time>2022-09-01T14:26:24.165Z</time>
      </trkpt>
      <trkpt lat="38.36414" lon="-2.75318">
        <ele>583.971101</ele>
        <time>2022-09-01T14:26:27.417Z</time>
      </trkpt>
      <trkpt lat="38.36397" lon="-2.75303">
        <ele>583.298316</ele>
        <time>2022-09-01T14:26:30.662Z</time>
      </trkpt>
      <trkpt lat="38.36369" lon="-2.75241">
        <ele>581.397941</ele>
        <time>2022-09-01T14:26:40.358Z</time>
      </trkpt>
      <trkpt lat="38.36374" lon="-2.75163">
        <ele>579.771574</ele>
        <time>2022-09-01T14:26:51.915Z</time>
      </trkpt>
      <trkpt lat="38.36359" lon="-2.75143">
        <ele>579.620011</ele>
        <time>2022-09-01T14:26:56.545Z</time>
      </trkpt>
      <trkpt lat="38.36345" lon="-2.75132">
        <ele>579.508559</ele>
        <time>2022-09-01T14:26:59.991Z</time>
      </trkpt>
      <trkpt lat="38.36299" lon="-2.75032">
        <ele>578.879487</ele>
        <time>2022-09-01T14:27:19.504Z</time>
      </trkpt>
      <trkpt lat="38.36142" lon="-2.74884">
        <ele>577.5847</ele>
        <time>2022-09-01T14:27:59.713Z</time>
      </trkpt>
      <trkpt lat="38.36096" lon="-2.74824">
        <ele>577.26384</ele>
        <time>2022-09-01T14:28:13.042Z</time>
      </trkpt>
      <trkpt lat="38.3608" lon="-2.74796">
        <ele>577.150543</ele>
        <time>2022-09-01T14:28:18.555Z</time>
      </trkpt>
      <trkpt lat="38.36061" lon="-2.74738">
        <ele>576.942047</ele>
        <time>2022-09-01T14:28:28.823Z</time>
      </trkpt>
      <trkpt lat="38.36056" lon="-2.74735">
        <ele>576.919715</ele>
        <time>2022-09-01T14:28:29.848Z</time>
      </trkpt>
      <trkpt lat="38.36056" lon="-2.74732">
        <ele>576.908835</ele>
        <time>2022-09-01T14:28:30.435Z</time>
      </trkpt>
      <trkpt lat="38.36045" lon="-2.74516">
        <ele>576.824819</ele>
        <time>2022-09-01T14:29:10.665Z</time>
      </trkpt>
      <trkpt lat="38.36043" lon="-2.74495">
        <ele>576.841677</ele>
        <time>2022-09-01T14:29:14.519Z</time>
      </trkpt>
      <trkpt lat="38.36037" lon="-2.74496">
        <ele>576.847227</ele>
        <time>2022-09-01T14:29:15.683Z</time>
      </trkpt>
      <trkpt lat="38.36033" lon="-2.74476">
        <ele>576.864371</ele>
        <time>2022-09-01T14:29:19.777Z</time>
      </trkpt>
      <trkpt lat="38.36024" lon="-2.74453">
        <ele>576.885341</ele>
        <time>2022-09-01T14:29:24.257Z</time>
      </trkpt>
      <trkpt lat="38.36014" lon="-2.74436">
        <ele>576.88987</ele>
        <time>2022-09-01T14:29:28.162Z</time>
      </trkpt>
      <trkpt lat="38.3596" lon="-2.74377">
        <ele>576.907696</ele>
        <time>2022-09-01T14:29:44.958Z</time>
      </trkpt>
      <trkpt lat="38.35952" lon="-2.74368">
        <ele>576.910297</ele>
        <time>2022-09-01T14:29:47.448Z</time>
      </trkpt>
      <trkpt lat="38.35947" lon="-2.74375">
        <ele>576.912118</ele>
        <time>2022-09-01T14:29:49.034Z</time>
      </trkpt>
      <trkpt lat="38.35867" lon="-2.74292">
        <ele>577.209683</ele>
        <time>2022-09-01T14:30:12.277Z</time>
      </trkpt>
      <trkpt lat="38.35846" lon="-2.74273">
        <ele>577.465054</ele>
        <time>2022-09-01T14:30:18.364Z</time>
      </trkpt>
      <trkpt lat="38.35807" lon="-2.7424">
        <ele>577.931331</ele>
        <time>2022-09-01T14:30:31.070Z</time>
      </trkpt>
      <trkpt lat="38.35791" lon="-2.74229">
        <ele>578.117281</ele>
        <time>2022-09-01T14:30:36.545Z</time>
      </trkpt>
      <trkpt lat="38.35747" lon="-2.74198">
        <ele>578.617214</ele>
        <time>2022-09-01T14:30:52.369Z</time>
      </trkpt>
      <trkpt lat="38.35641" lon="-2.74124">
        <ele>582.058111</ele>
        <time>2022-09-01T14:31:36.088Z</time>
      </trkpt>
      <trkpt lat="38.35625" lon="-2.74119">
        <ele>582.553548</ele>
        <time>2022-09-01T14:31:42.981Z</time>
      </trkpt>
      <trkpt lat="38.35612" lon="-2.74103">
        <ele>583.095797</ele>
        <time>2022-09-01T14:31:50.356Z</time>
      </trkpt>
      <trkpt lat="38.35611" lon="-2.74094">
        <ele>583.307202</ele>
        <time>2022-09-01T14:31:53.412Z</time>
      </trkpt>
      <trkpt lat="38.35572" lon="-2.74077">
        <ele>584.732062</ele>
        <time>2022-09-01T14:32:10.405Z</time>
      </trkpt>
      <trkpt lat="38.35489" lon="-2.74049">
        <ele>588.428942</ele>
        <time>2022-09-01T14:32:48.731Z</time>
      </trkpt>
      <trkpt lat="38.35433" lon="-2.74032">
        <ele>590.873064</ele>
        <time>2022-09-01T14:33:13.144Z</time>
      </trkpt>
      <trkpt lat="38.35438" lon="-2.74003">
        <ele>591.887201</ele>
        <time>2022-09-01T14:33:24.762Z</time>
      </trkpt>
      <trkpt lat="38.35423" lon="-2.73989">
        <ele>592.498685</ele>
        <time>2022-09-01T14:33:32.838Z</time>
      </trkpt>
      <trkpt lat="38.35396" lon="-2.7394">
        <ele>594.058019</ele>
        <time>2022-09-01T14:33:54.435Z</time>
      </trkpt>
      <trkpt lat="38.3535" lon="-2.73877">
        <ele>596.314315</ele>
        <time>2022-09-01T14:34:21.979Z</time>
      </trkpt>
      <trkpt lat="38.35336" lon="-2.7385">
        <ele>597.149357</ele>
        <time>2022-09-01T14:34:31.083Z</time>
      </trkpt>
      <trkpt lat="38.35323" lon="-2.73818">
        <ele>597.908516</ele>
        <time>2022-09-01T14:34:40.297Z</time>
      </trkpt>
      <trkpt lat="38.35268" lon="-2.73787">
        <ele>598.293055</ele>
        <time>2022-09-01T14:34:55.877Z</time>
      </trkpt>
      <trkpt lat="38.35246" lon="-2.73768">
        <ele>598.459617</ele>
        <time>2022-09-01T14:35:01.928Z</time>
      </trkpt>
      <trkpt lat="38.35211" lon="-2.73744">
        <ele>598.714575</ele>
        <time>2022-09-01T14:35:11.269Z</time>
      </trkpt>
      <trkpt lat="38.35175" lon="-2.73732">
        <ele>598.952196</ele>
        <time>2022-09-01T14:35:19.504Z</time>
      </trkpt>
      <trkpt lat="38.35152" lon="-2.7373">
        <ele>599.146535</ele>
        <time>2022-09-01T14:35:24.379Z</time>
      </trkpt>
      <trkpt lat="38.35153" lon="-2.73715">
        <ele>599.262143</ele>
        <time>2022-09-01T14:35:30.734Z</time>
      </trkpt>
      <trkpt lat="38.3513" lon="-2.73707">
        <ele>599.494823</ele>
        <time>2022-09-01T14:35:37.491Z</time>
      </trkpt>
      <trkpt lat="38.35133" lon="-2.73686">
        <ele>599.656729</ele>
        <time>2022-09-01T14:35:44.752Z</time>
      </trkpt>
      <trkpt lat="38.3512" lon="-2.73679">
        <ele>599.792366</ele>
        <time>2022-09-01T14:35:48.448Z</time>
      </trkpt>
      <trkpt lat="38.35105" lon="-2.7367">
        <ele>599.95983</ele>
        <time>2022-09-01T14:35:56.632Z</time>
      </trkpt>
      <trkpt lat="38.3509" lon="-2.73662">
        <ele>600.116583</ele>
        <time>2022-09-01T14:36:00.349Z</time>
      </trkpt>
      <trkpt lat="38.35114" lon="-2.73569">
        <ele>600.415288</ele>
        <time>2022-09-01T14:36:18.045Z</time>
      </trkpt>
      <trkpt lat="38.3511" lon="-2.73567">
        <ele>600.30377</ele>
        <time>2022-09-01T14:36:18.733Z</time>
      </trkpt>
      <trkpt lat="38.3509" lon="-2.7355">
        <ele>599.575314</ele>
        <time>2022-09-01T14:36:24.042Z</time>
      </trkpt>
      <trkpt lat="38.35089" lon="-2.73543">
        <ele>599.382795</ele>
        <time>2022-09-01T14:36:25.430Z</time>
      </trkpt>
      <trkpt lat="38.35083" lon="-2.73514">
        <ele>598.687629</ele>
        <time>2022-09-01T14:36:30.267Z</time>
      </trkpt>
      <trkpt lat="38.35048" lon="-2.73526">
        <ele>597.602789</ele>
        <time>2022-09-01T14:36:36.920Z</time>
      </trkpt>
      <trkpt lat="38.35038" lon="-2.73519">
        <ele>597.243381</ele>
        <time>2022-09-01T14:36:38.909Z</time>
      </trkpt>
      <trkpt lat="38.35023" lon="-2.73507">
        <ele>596.717458</ele>
        <time>2022-09-01T14:36:41.637Z</time>
      </trkpt>
      <trkpt lat="38.34984" lon="-2.73493">
        <ele>595.472158</ele>
        <time>2022-09-01T14:36:47.991Z</time>
      </trkpt>
      <trkpt lat="38.34941" lon="-2.7346">
        <ele>593.294189</ele>
        <time>2022-09-01T14:36:55.494Z</time>
      </trkpt>
      <trkpt lat="38.34901" lon="-2.73458">
        <ele>591.508758</ele>
        <time>2022-09-01T14:37:01.491Z</time>
      </trkpt>
      <trkpt lat="38.34863" lon="-2.73456">
        <ele>589.803035</ele>
        <time>2022-09-01T14:37:07.879Z</time>
      </trkpt>
      <trkpt lat="38.34841" lon="-2.73447">
        <ele>588.759375</ele>
        <time>2022-09-01T14:37:12.111Z</time>
      </trkpt>
      <trkpt lat="38.34762" lon="-2.73374">
        <ele>586.905077</ele>
        <time>2022-09-01T14:37:30.056Z</time>
      </trkpt>
      <trkpt lat="38.34757" lon="-2.73368">
        <ele>586.868734</ele>
        <time>2022-09-01T14:37:31.864Z</time>
      </trkpt>
      <trkpt lat="38.34672" lon="-2.73283">
        <ele>586.276601</ele>
        <time>2022-09-01T14:37:57.478Z</time>
      </trkpt>
      <trkpt lat="38.34626" lon="-2.73233">
        <ele>586.265274</ele>
        <time>2022-09-01T14:38:11.496Z</time>
      </trkpt>
      <trkpt lat="38.34555" lon="-2.73113">
        <ele>586.254187</ele>
        <time>2022-09-01T14:38:37.195Z</time>
      </trkpt>
      <trkpt lat="38.34364" lon="-2.7296">
        <ele>585.83896</ele>
        <time>2022-09-01T14:39:25.853Z</time>
      </trkpt>
      <trkpt lat="38.3425" lon="-2.72827">
        <ele>586.000326</ele>
        <time>2022-09-01T14:40:00.504Z</time>
      </trkpt>
      <trkpt lat="38.34219" lon="-2.72761">
        <ele>586.510688</ele>
        <time>2022-09-01T14:40:15.746Z</time>
      </trkpt>
      <trkpt lat="38.34111" lon="-2.72474">
        <ele>589.149206</ele>
        <time>2022-09-01T14:41:26.744Z</time>
      </trkpt>
      <trkpt lat="38.34103" lon="-2.72414">
        <ele>589.642391</ele>
        <time>2022-09-01T14:41:40.305Z</time>
      </trkpt>
      <trkpt lat="38.34107" lon="-2.72319">
        <ele>590.170164</ele>
        <time>2022-09-01T14:42:00.088Z</time>
      </trkpt>
      <trkpt lat="38.34104" lon="-2.72282">
        <ele>590.37347</ele>
        <time>2022-09-01T14:42:07.208Z</time>
      </trkpt>
      <trkpt lat="38.34097" lon="-2.7225">
        <ele>590.556495</ele>
        <time>2022-09-01T14:42:13.474Z</time>
      </trkpt>
      <trkpt lat="38.3404" lon="-2.72109">
        <ele>591.308871</ele>
        <time>2022-09-01T14:42:43.320Z</time>
      </trkpt>
      <trkpt lat="38.34028" lon="-2.7206">
        <ele>591.532507</ele>
        <time>2022-09-01T14:42:53.716Z</time>
      </trkpt>
      <trkpt lat="38.34028" lon="-2.72027">
        <ele>591.682657</ele>
        <time>2022-09-01T14:43:00.665Z</time>
      </trkpt>
      <trkpt lat="38.34045" lon="-2.71926">
        <ele>592.104949</ele>
        <time>2022-09-01T14:43:22.267Z</time>
      </trkpt>
      <trkpt lat="38.34039" lon="-2.7188">
        <ele>592.287482</ele>
        <time>2022-09-01T14:43:31.729Z</time>
      </trkpt>
      <trkpt lat="38.34013" lon="-2.71807">
        <ele>592.60428</ele>
        <time>2022-09-01T14:43:47.080Z</time>
      </trkpt>
      <trkpt lat="38.33921" lon="-2.71709">
        <ele>592.263487</ele>
        <time>2022-09-01T14:44:12.711Z</time>
      </trkpt>
      <trkpt lat="38.33904" lon="-2.71672">
        <ele>592.104221</ele>
        <time>2022-09-01T14:44:19.545Z</time>
      </trkpt>
      <trkpt lat="38.33899" lon="-2.71636">
        <ele>591.968841</ele>
        <time>2022-09-01T14:44:25.361Z</time>
      </trkpt>
      <trkpt lat="38.33902" lon="-2.71604">
        <ele>591.849641</ele>
        <time>2022-09-01T14:44:30.382Z</time>
      </trkpt>
      <trkpt lat="38.33911" lon="-2.71569">
        <ele>591.692266</ele>
        <time>2022-09-01T14:44:36.392Z</time>
      </trkpt>
      <trkpt lat="38.3403" lon="-2.71314">
        <ele>590.455437</ele>
        <time>2022-09-01T14:45:25.267Z</time>
      </trkpt>
      <trkpt lat="38.34055" lon="-2.71253">
        <ele>590.177542</ele>
        <time>2022-09-01T14:45:36.468Z</time>
      </trkpt>
      <trkpt lat="38.34064" lon="-2.71203">
        <ele>589.965624</ele>
        <time>2022-09-01T14:45:44.795Z</time>
      </trkpt>
      <trkpt lat="38.34065" lon="-2.7118">
        <ele>589.91754</ele>
        <time>2022-09-01T14:45:48.376Z</time>
      </trkpt>
      <trkpt lat="38.34081" lon="-2.71121">
        <ele>589.786135</ele>
        <time>2022-09-01T14:45:58.652Z</time>
      </trkpt>
      <trkpt lat="38.34078" lon="-2.71103">
        <ele>589.74828</ele>
        <time>2022-09-01T14:46:01.507Z</time>
      </trkpt>
      <trkpt lat="38.34073" lon="-2.71096">
        <ele>589.728872</ele>
        <time>2022-09-01T14:46:02.989Z</time>
      </trkpt>
      <trkpt lat="38.34045" lon="-2.71081">
        <ele>589.648675</ele>
        <time>2022-09-01T14:46:09.263Z</time>
      </trkpt>
      <trkpt lat="38.34018" lon="-2.7107">
        <ele>589.571559</ele>
        <time>2022-09-01T14:46:15.555Z</time>
      </trkpt>
      <trkpt lat="38.33969" lon="-2.7104">
        <ele>589.966486</ele>
        <time>2022-09-01T14:46:28.751Z</time>
      </trkpt>
      <trkpt lat="38.33948" lon="-2.71021">
        <ele>590.527046</ele>
        <time>2022-09-01T14:46:35.836Z</time>
      </trkpt>
      <trkpt lat="38.33929" lon="-2.70992">
        <ele>591.149301</ele>
        <time>2022-09-01T14:46:44.553Z</time>
      </trkpt>
      <trkpt lat="38.3386" lon="-2.70759">
        <ele>596.276564</ele>
        <time>2022-09-01T14:47:59.088Z</time>
      </trkpt>
      <trkpt lat="38.33839" lon="-2.7072">
        <ele>597.450223</ele>
        <time>2022-09-01T14:48:14.012Z</time>
      </trkpt>
      <trkpt lat="38.33814" lon="-2.70685">
        <ele>598.63443</ele>
        <time>2022-09-01T14:48:28.705Z</time>
      </trkpt>
      <trkpt lat="38.33697" lon="-2.70594">
        <ele>601.415351</ele>
        <time>2022-09-01T14:49:14.763Z</time>
      </trkpt>
      <trkpt lat="38.33484" lon="-2.70446">
        <ele>604.069214</ele>
        <time>2022-09-01T14:50:18.213Z</time>
      </trkpt>
      <trkpt lat="38.33398" lon="-2.70374">
        <ele>605.366377</ele>
        <time>2022-09-01T14:50:46.466Z</time>
      </trkpt>
      <trkpt lat="38.33241" lon="-2.70165">
        <ele>609.0247</ele>
        <time>2022-09-01T14:51:56.823Z</time>
      </trkpt>
      <trkpt lat="38.3315" lon="-2.70067">
        <ele>611.499109</ele>
        <time>2022-09-01T14:52:34.244Z</time>
      </trkpt>
      <trkpt lat="38.33101" lon="-2.70031">
        <ele>612.732248</ele>
        <time>2022-09-01T14:52:53.132Z</time>
      </trkpt>
      <trkpt lat="38.33042" lon="-2.70001">
        <ele>614.256787</ele>
        <time>2022-09-01T14:53:16.430Z</time>
      </trkpt>
      <trkpt lat="38.32944" lon="-2.69986">
        <ele>616.809114</ele>
        <time>2022-09-01T14:53:53.289Z</time>
      </trkpt>
      <trkpt lat="38.32903" lon="-2.69987">
        <ele>617.871887</ele>
        <time>2022-09-01T14:54:07.844Z</time>
      </trkpt>
      <trkpt lat="38.32701" lon="-2.69996">
        <ele>619.193661</ele>
        <time>2022-09-01T14:54:58.706Z</time>
      </trkpt>
      <trkpt lat="38.32453" lon="-2.69932">
        <ele>618.534818</ele>
        <time>2022-09-01T14:55:50.234Z</time>
      </trkpt>
      <trkpt lat="38.32238" lon="-2.69819">
        <ele>620.729114</ele>
        <time>2022-09-01T14:56:57.012Z</time>
      </trkpt>
      <trkpt lat="38.31806" lon="-2.69769">
        <ele>627.58477</ele>
        <time>2022-09-01T14:59:09.560Z</time>
      </trkpt>
      <trkpt lat="38.31562" lon="-2.69782">
        <ele>629.371865</ele>
        <time>2022-09-01T15:00:16.524Z</time>
      </trkpt>
      <trkpt lat="38.31509" lon="-2.69787">
        <ele>629.409052</ele>
        <time>2022-09-01T15:00:26.966Z</time>
      </trkpt>
      <trkpt lat="38.31491" lon="-2.69796">
        <ele>629.422834</ele>
        <time>2022-09-01T15:00:30.654Z</time>
      </trkpt>
      <trkpt lat="38.31491" lon="-2.69853">
        <ele>629.129975</ele>
        <time>2022-09-01T15:00:39.187Z</time>
      </trkpt>
      <trkpt lat="38.31497" lon="-2.6992">
        <ele>628.744732</ele>
        <time>2022-09-01T15:00:49.417Z</time>
      </trkpt>
      <trkpt lat="38.31489" lon="-2.69938">
        <ele>628.620632</ele>
        <time>2022-09-01T15:00:52.719Z</time>
      </trkpt>
      <trkpt lat="38.31446" lon="-2.69953">
        <ele>628.295928</ele>
        <time>2022-09-01T15:01:01.614Z</time>
      </trkpt>
      <trkpt lat="38.31354" lon="-2.69979">
        <ele>629.228121</ele>
        <time>2022-09-01T15:01:27.627Z</time>
      </trkpt>
      <trkpt lat="38.31295" lon="-2.69982">
        <ele>630.191032</ele>
        <time>2022-09-01T15:01:47.305Z</time>
      </trkpt>
      <trkpt lat="38.31163" lon="-2.70032">
        <ele>632.746216</ele>
        <time>2022-09-01T15:02:33.080Z</time>
      </trkpt>
      <trkpt lat="38.31017" lon="-2.70199">
        <ele>636.318504</ele>
        <time>2022-09-01T15:03:34.387Z</time>
      </trkpt>
      <trkpt lat="38.30981" lon="-2.7023">
        <ele>637.05452</ele>
        <time>2022-09-01T15:03:47.746Z</time>
      </trkpt>
      <trkpt lat="38.30758" lon="-2.7036">
        <ele>640.341003</ele>
        <time>2022-09-01T15:04:58.599Z</time>
      </trkpt>
      <trkpt lat="38.30694" lon="-2.70428">
        <ele>641.399155</ele>
        <time>2022-09-01T15:05:20.708Z</time>
      </trkpt>
      <trkpt lat="38.30596" lon="-2.70468">
        <ele>643.411858</ele>
        <time>2022-09-01T15:05:51.147Z</time>
      </trkpt>
      <trkpt lat="38.30534" lon="-2.70473">
        <ele>645.392598</ele>
        <time>2022-09-01T15:06:13.392Z</time>
      </trkpt>
      <trkpt lat="38.30479" lon="-2.70478">
        <ele>647.173236</ele>
        <time>2022-09-01T15:06:36.626Z</time>
      </trkpt>
      <trkpt lat="38.30455" lon="-2.70488">
        <ele>647.985704</ele>
        <time>2022-09-01T15:06:47.729Z</time>
      </trkpt>
      <trkpt lat="38.30177" lon="-2.707">
        <ele>665.614281</ele>
        <time>2022-09-01T15:09:32.588Z</time>
      </trkpt>
      <trkpt lat="38.2989" lon="-2.70914">
        <ele>678.723512</ele>
        <time>2022-09-01T15:11:54.708Z</time>
      </trkpt>
      <trkpt lat="38.29743" lon="-2.7104">
        <ele>682.211079</ele>
        <time>2022-09-01T15:12:47.441Z</time>
      </trkpt>
      <trkpt lat="38.29665" lon="-2.71084">
        <ele>683.214932</ele>
        <time>2022-09-01T15:13:10.310Z</time>
      </trkpt>
      <trkpt lat="38.2964" lon="-2.71109">
        <ele>683.435185</ele>
        <time>2022-09-01T15:13:19.073Z</time>
      </trkpt>
      <trkpt lat="38.29599" lon="-2.71174">
        <ele>683.887744</ele>
        <time>2022-09-01T15:13:37.086Z</time>
      </trkpt>
      <trkpt lat="38.29581" lon="-2.71187">
        <ele>684.033969</ele>
        <time>2022-09-01T15:13:42.772Z</time>
      </trkpt>
      <trkpt lat="38.2955" lon="-2.71187">
        <ele>684.244297</ele>
        <time>2022-09-01T15:13:50.109Z</time>
      </trkpt>
      <trkpt lat="38.29471" lon="-2.71151">
        <ele>683.233554</ele>
        <time>2022-09-01T15:14:07.441Z</time>
      </trkpt>
      <trkpt lat="38.29437" lon="-2.7115">
        <ele>682.729011</ele>
        <time>2022-09-01T15:14:13.752Z</time>
      </trkpt>
      <trkpt lat="38.29285" lon="-2.71234">
        <ele>680.401669</ele>
        <time>2022-09-01T15:14:43.114Z</time>
      </trkpt>
      <trkpt lat="38.29244" lon="-2.71267">
        <ele>679.746012</ele>
        <time>2022-09-01T15:14:52.381Z</time>
      </trkpt>
      <trkpt lat="38.29071" lon="-2.71467">
        <ele>682.343376</ele>
        <time>2022-09-01T15:15:59.657Z</time>
      </trkpt>
      <trkpt lat="38.29019" lon="-2.71519">
        <ele>684.769975</ele>
        <time>2022-09-01T15:16:27.619Z</time>
      </trkpt>
      <trkpt lat="38.28925" lon="-2.71565">
        <ele>688.393492</ele>
        <time>2022-09-01T15:17:12.017Z</time>
      </trkpt>
      <trkpt lat="38.28887" lon="-2.71577">
        <ele>689.355</ele>
        <time>2022-09-01T15:17:28.994Z</time>
      </trkpt>
      <trkpt lat="38.28706" lon="-2.71566">
        <ele>692.487644</ele>
        <time>2022-09-01T15:18:26.795Z</time>
      </trkpt>
      <trkpt lat="38.28689" lon="-2.7156">
        <ele>692.370159</ele>
        <time>2022-09-01T15:18:30.320Z</time>
      </trkpt>
      <trkpt lat="38.28565" lon="-2.71512">
        <ele>691.560263</ele>
        <time>2022-09-01T15:18:54.399Z</time>
      </trkpt>
      <trkpt lat="38.28478" lon="-2.71543">
        <ele>691.420097</ele>
        <time>2022-09-01T15:19:11.999Z</time>
      </trkpt>
      <trkpt lat="38.28417" lon="-2.71537">
        <ele>691.325773</ele>
        <time>2022-09-01T15:19:27.348Z</time>
      </trkpt>
      <trkpt lat="38.28242" lon="-2.71566">
        <ele>694.91011</ele>
        <time>2022-09-01T15:20:27.762Z</time>
      </trkpt>
      <trkpt lat="38.28173" lon="-2.71547">
        <ele>696.50895</ele>
        <time>2022-09-01T15:20:53.040Z</time>
      </trkpt>
      <trkpt lat="38.28135" lon="-2.71545">
        <ele>697.361407</ele>
        <time>2022-09-01T15:21:06.268Z</time>
      </trkpt>
      <trkpt lat="38.28079" lon="-2.71554">
        <ele>698.634338</ele>
        <time>2022-09-01T15:21:25.152Z</time>
      </trkpt>
      <trkpt lat="38.28042" lon="-2.71578">
        <ele>699.52581</ele>
        <time>2022-09-01T15:21:38.111Z</time>
      </trkpt>
      <trkpt lat="38.27976" lon="-2.71673">
        <ele>701.034795</ele>
        <time>2022-09-01T15:22:08.127Z</time>
      </trkpt>
      <trkpt lat="38.2793" lon="-2.7171">
        <ele>701.850627</ele>
        <time>2022-09-01T15:22:23.675Z</time>
      </trkpt>
      <trkpt lat="38.27831" lon="-2.71767">
        <ele>703.34267</ele>
        <time>2022-09-01T15:22:54.774Z</time>
      </trkpt>
      <trkpt lat="38.27752" lon="-2.71828">
        <ele>704.588698</ele>
        <time>2022-09-01T15:23:21.728Z</time>
      </trkpt>
      <trkpt lat="38.27505" lon="-2.71978">
        <ele>708.681072</ele>
        <time>2022-09-01T15:24:41.113Z</time>
      </trkpt>
      <trkpt lat="38.27485" lon="-2.7199">
        <ele>709.060525</ele>
        <time>2022-09-01T15:24:48.027Z</time>
      </trkpt>
      <trkpt lat="38.27415" lon="-2.72026">
        <ele>710.444599</ele>
        <time>2022-09-01T15:25:13.152Z</time>
      </trkpt>
      <trkpt lat="38.27239" lon="-2.72096">
        <ele>714.654653</ele>
        <time>2022-09-01T15:26:17.060Z</time>
      </trkpt>
      <trkpt lat="38.27108" lon="-2.7214">
        <ele>716.899413</ele>
        <time>2022-09-01T15:26:57.950Z</time>
      </trkpt>
      <trkpt lat="38.26992" lon="-2.7219">
        <ele>718.87825</ele>
        <time>2022-09-01T15:27:32.013Z</time>
      </trkpt>
      <trkpt lat="38.26967" lon="-2.72194">
        <ele>719.294123</ele>
        <time>2022-09-01T15:27:40.055Z</time>
      </trkpt>
      <trkpt lat="38.26876" lon="-2.72186">
        <ele>721.167258</ele>
        <time>2022-09-01T15:28:09.417Z</time>
      </trkpt>
      <trkpt lat="38.26813" lon="-2.72202">
        <ele>723.108321</ele>
        <time>2022-09-01T15:28:33.353Z</time>
      </trkpt>
      <trkpt lat="38.26766" lon="-2.7219">
        <ele>724.541629</ele>
        <time>2022-09-01T15:28:52.073Z</time>
      </trkpt>
      <trkpt lat="38.26673" lon="-2.72143">
        <ele>727.493093</ele>
        <time>2022-09-01T15:29:32.562Z</time>
      </trkpt>
      <trkpt lat="38.26668" lon="-2.7214">
        <ele>727.650844</ele>
        <time>2022-09-01T15:29:34.638Z</time>
      </trkpt>
      <trkpt lat="38.26618" lon="-2.72113">
        <ele>729.254166</ele>
        <time>2022-09-01T15:29:55.382Z</time>
      </trkpt>
      <trkpt lat="38.26536" lon="-2.72052">
        <ele>731.324836</ele>
        <time>2022-09-01T15:30:26.609Z</time>
      </trkpt>
      <trkpt lat="38.26462" lon="-2.72012">
        <ele>732.19175</ele>
        <time>2022-09-01T15:30:47.789Z</time>
      </trkpt>
      <trkpt lat="38.26424" lon="-2.72002">
        <ele>732.599861</ele>
        <time>2022-09-01T15:30:57.206Z</time>
      </trkpt>
      <trkpt lat="38.26393" lon="-2.72018">
        <ele>732.964541</ele>
        <time>2022-09-01T15:31:05.706Z</time>
      </trkpt>
      <trkpt lat="38.2634" lon="-2.72067">
        <ele>733.665966</ele>
        <time>2022-09-01T15:31:22.522Z</time>
      </trkpt>
      <trkpt lat="38.2632" lon="-2.72076">
        <ele>733.895659</ele>
        <time>2022-09-01T15:31:28.295Z</time>
      </trkpt>
      <trkpt lat="38.26226" lon="-2.721">
        <ele>735.021145</ele>
        <time>2022-09-01T15:31:56.456Z</time>
      </trkpt>
      <trkpt lat="38.26039" lon="-2.72119">
        <ele>738.333117</ele>
        <time>2022-09-01T15:32:55.963Z</time>
      </trkpt>
      <trkpt lat="38.25971" lon="-2.72103">
        <ele>739.24471</ele>
        <time>2022-09-01T15:33:16.675Z</time>
      </trkpt>
      <trkpt lat="38.25942" lon="-2.72114">
        <ele>739.657101</ele>
        <time>2022-09-01T15:33:25.604Z</time>
      </trkpt>
      <trkpt lat="38.25898" lon="-2.7214">
        <ele>740.300512</ele>
        <time>2022-09-01T15:33:38.897Z</time>
      </trkpt>
      <trkpt lat="38.25834" lon="-2.72154">
        <ele>740.651524</ele>
        <time>2022-09-01T15:33:55.029Z</time>
      </trkpt>
      <trkpt lat="38.25789" lon="-2.72182">
        <ele>740.844921</ele>
        <time>2022-09-01T15:34:06.833Z</time>
      </trkpt>
      <trkpt lat="38.25734" lon="-2.72218">
        <ele>741.086509</ele>
        <time>2022-09-01T15:34:21.219Z</time>
      </trkpt>
      <trkpt lat="38.25696" lon="-2.72238">
        <ele>741.355513</ele>
        <time>2022-09-01T15:34:30.348Z</time>
      </trkpt>
      <trkpt lat="38.25557" lon="-2.72287">
        <ele>742.490015</ele>
        <time>2022-09-01T15:35:07.127Z</time>
      </trkpt>
      <trkpt lat="38.25254" lon="-2.72395">
        <ele>750.068889</ele>
        <time>2022-09-01T15:36:56.566Z</time>
      </trkpt>
      <trkpt lat="38.25162" lon="-2.72439">
        <ele>752.567006</ele>
        <time>2022-09-01T15:37:32.921Z</time>
      </trkpt>
      <trkpt lat="38.25151" lon="-2.72444">
        <ele>752.858351</ele>
        <time>2022-09-01T15:37:37.257Z</time>
      </trkpt>
      <trkpt lat="38.25129" lon="-2.72456">
        <ele>753.438785</ele>
        <time>2022-09-01T15:37:45.812Z</time>
      </trkpt>
      <trkpt lat="38.25124" lon="-2.72458">
        <ele>753.563524</ele>
        <time>2022-09-01T15:37:47.594Z</time>
      </trkpt>
      <trkpt lat="38.25096" lon="-2.72474">
        <ele>754.314176</ele>
        <time>2022-09-01T15:37:58.295Z</time>
      </trkpt>
      <trkpt lat="38.25027" lon="-2.72509">
        <ele>756.031762</ele>
        <time>2022-09-01T15:38:22.034Z</time>
      </trkpt>
      <trkpt lat="38.2501" lon="-2.72515">
        <ele>756.311919</ele>
        <time>2022-09-01T15:38:27.274Z</time>
      </trkpt>
      <trkpt lat="38.24951" lon="-2.72539">
        <ele>757.312529</ele>
        <time>2022-09-01T15:38:46.671Z</time>
      </trkpt>
      <trkpt lat="38.24907" lon="-2.72544">
        <ele>758.018509</ele>
        <time>2022-09-01T15:38:59.956Z</time>
      </trkpt>
      <trkpt lat="38.24855" lon="-2.72547">
        <ele>758.834562</ele>
        <time>2022-09-01T15:39:14.637Z</time>
      </trkpt>
      <trkpt lat="38.2485" lon="-2.72548">
        <ele>758.900777</ele>
        <time>2022-09-01T15:39:16.098Z</time>
      </trkpt>
      <trkpt lat="38.24827" lon="-2.72555">
        <ele>759.203421</ele>
        <time>2022-09-01T15:39:22.643Z</time>
      </trkpt>
      <trkpt lat="38.24805" lon="-2.72562">
        <ele>759.497215</ele>
        <time>2022-09-01T15:39:29.198Z</time>
      </trkpt>
      <trkpt lat="38.24779" lon="-2.72567">
        <ele>759.840333</ele>
        <time>2022-09-01T15:39:37.246Z</time>
      </trkpt>
      <trkpt lat="38.2473" lon="-2.72567">
        <ele>760.475392</ele>
        <time>2022-09-01T15:39:52.316Z</time>
      </trkpt>
      <trkpt lat="38.24712" lon="-2.72575">
        <ele>760.723442</ele>
        <time>2022-09-01T15:39:57.996Z</time>
      </trkpt>
      <trkpt lat="38.24712" lon="-2.72586">
        <ele>760.831121</ele>
        <time>2022-09-01T15:40:00.445Z</time>
      </trkpt>
      <trkpt lat="38.24707" lon="-2.72591">
        <ele>760.912735</ele>
        <time>2022-09-01T15:40:02.252Z</time>
      </trkpt>
      <trkpt lat="38.24696" lon="-2.72585">
        <ele>761.069252</ele>
        <time>2022-09-01T15:40:05.838Z</time>
      </trkpt>
      <trkpt lat="38.24685" lon="-2.72592">
        <ele>760.960721</ele>
        <time>2022-09-01T15:40:09.075Z</time>
      </trkpt>
      <trkpt lat="38.24653" lon="-2.72567">
        <ele>760.626655</ele>
        <time>2022-09-01T15:40:18.142Z</time>
      </trkpt>
      <trkpt lat="38.24625" lon="-2.72621">
        <ele>760.174334</ele>
        <time>2022-09-01T15:40:28.994Z</time>
      </trkpt>
      <trkpt lat="38.24628" lon="-2.72629">
        <ele>760.116928</ele>
        <time>2022-09-01T15:40:30.295Z</time>
      </trkpt>
      <trkpt lat="38.24602" lon="-2.72644">
        <ele>759.860428</ele>
        <time>2022-09-01T15:40:36.053Z</time>
      </trkpt>
      <trkpt lat="38.24587" lon="-2.72653">
        <ele>759.718377</ele>
        <time>2022-09-01T15:40:39.239Z</time>
      </trkpt>
      <trkpt lat="38.2454" lon="-2.72683">
        <ele>758.412825</ele>
        <time>2022-09-01T15:40:49.252Z</time>
      </trkpt>
      <trkpt lat="38.24473" lon="-2.72726">
        <ele>755.39045</ele>
        <time>2022-09-01T15:41:02.131Z</time>
      </trkpt>
      <trkpt lat="38.24445" lon="-2.72752">
        <ele>753.96783</ele>
        <time>2022-09-01T15:41:08.137Z</time>
      </trkpt>
      <trkpt lat="38.24445" lon="-2.7276">
        <ele>753.717687</ele>
        <time>2022-09-01T15:41:09.119Z</time>
      </trkpt>
      <trkpt lat="38.24349" lon="-2.72786">
        <ele>748.292624</ele>
        <time>2022-09-01T15:41:24.364Z</time>
      </trkpt>
      <trkpt lat="38.24291" lon="-2.72784">
        <ele>744.467122</ele>
        <time>2022-09-01T15:41:33.185Z</time>
      </trkpt>
      <trkpt lat="38.24269" lon="-2.72785">
        <ele>743.04597</ele>
        <time>2022-09-01T15:41:36.512Z</time>
      </trkpt>
      <trkpt lat="38.24259" lon="-2.72791">
        <ele>742.343273</ele>
        <time>2022-09-01T15:41:38.078Z</time>
      </trkpt>
      <trkpt lat="38.2425" lon="-2.72797">
        <ele>741.676705</ele>
        <time>2022-09-01T15:41:39.542Z</time>
      </trkpt>
      <trkpt lat="38.24237" lon="-2.72818">
        <ele>740.266107</ele>
        <time>2022-09-01T15:41:42.810Z</time>
      </trkpt>
      <trkpt lat="38.24218" lon="-2.72898">
        <ele>735.502157</ele>
        <time>2022-09-01T15:41:52.409Z</time>
      </trkpt>
      <trkpt lat="38.24202" lon="-2.72919">
        <ele>733.800321</ele>
        <time>2022-09-01T15:41:55.728Z</time>
      </trkpt>
      <trkpt lat="38.2411" lon="-2.72951">
        <ele>726.958827</ele>
        <time>2022-09-01T15:42:10.088Z</time>
      </trkpt>
      <trkpt lat="38.24091" lon="-2.72949">
        <ele>726.01514</ele>
        <time>2022-09-01T15:42:12.991Z</time>
      </trkpt>
      <trkpt lat="38.2407" lon="-2.72927">
        <ele>724.607014</ele>
        <time>2022-09-01T15:42:17.354Z</time>
      </trkpt>
      <trkpt lat="38.24059" lon="-2.72848">
        <ele>721.403257</ele>
        <time>2022-09-01T15:42:27.690Z</time>
      </trkpt>
      <trkpt lat="38.24041" lon="-2.72831">
        <ele>720.260495</ele>
        <time>2022-09-01T15:42:31.305Z</time>
      </trkpt>
      <trkpt lat="38.23976" lon="-2.72813">
        <ele>716.37642</ele>
        <time>2022-09-01T15:42:41.792Z</time>
      </trkpt>
      <trkpt lat="38.23947" lon="-2.72811">
        <ele>714.315769</ele>
        <time>2022-09-01T15:42:46.257Z</time>
      </trkpt>
      <trkpt lat="38.23791" lon="-2.72854">
        <ele>703.456243</ele>
        <time>2022-09-01T15:43:09.782Z</time>
      </trkpt>
      <trkpt lat="38.23756" lon="-2.72881">
        <ele>701.070487</ele>
        <time>2022-09-01T15:43:15.854Z</time>
      </trkpt>
      <trkpt lat="38.23732" lon="-2.72888">
        <ele>699.63581</ele>
        <time>2022-09-01T15:43:19.619Z</time>
      </trkpt>
      <trkpt lat="38.23655" lon="-2.72856">
        <ele>694.960581</ele>
        <time>2022-09-01T15:43:32.690Z</time>
      </trkpt>
      <trkpt lat="38.23608" lon="-2.72856">
        <ele>693.830811</ele>
        <time>2022-09-01T15:43:41.111Z</time>
      </trkpt>
      <trkpt lat="38.23538" lon="-2.72829">
        <ele>692.090885</ele>
        <time>2022-09-01T15:43:54.752Z</time>
      </trkpt>
      <trkpt lat="38.2341" lon="-2.72834">
        <ele>689.118543</ele>
        <time>2022-09-01T15:44:17.892Z</time>
      </trkpt>
      <trkpt lat="38.23368" lon="-2.72819">
        <ele>688.113511</ele>
        <time>2022-09-01T15:44:25.800Z</time>
      </trkpt>
      <trkpt lat="38.2333" lon="-2.72794">
        <ele>687.125043</ele>
        <time>2022-09-01T15:44:33.550Z</time>
      </trkpt>
      <trkpt lat="38.23228" lon="-2.72704">
        <ele>684.301163</ele>
        <time>2022-09-01T15:44:55.441Z</time>
      </trkpt>
      <trkpt lat="38.23099" lon="-2.72499">
        <ele>681.074162</ele>
        <time>2022-09-01T15:45:33.338Z</time>
      </trkpt>
      <trkpt lat="38.2308" lon="-2.7247">
        <ele>680.749692</ele>
        <time>2022-09-01T15:45:39.517Z</time>
      </trkpt>
      <trkpt lat="38.23077" lon="-2.72465">
        <ele>680.698215</ele>
        <time>2022-09-01T15:45:40.529Z</time>
      </trkpt>
      <trkpt lat="38.2306" lon="-2.72436">
        <ele>680.767323</ele>
        <time>2022-09-01T15:45:47.825Z</time>
      </trkpt>
      <trkpt lat="38.23034" lon="-2.72398">
        <ele>682.243014</ele>
        <time>2022-09-01T15:46:00.853Z</time>
      </trkpt>
      <trkpt lat="38.22988" lon="-2.72347">
        <ele>684.508576</ele>
        <time>2022-09-01T15:46:26.374Z</time>
      </trkpt>
      <trkpt lat="38.22831" lon="-2.72232">
        <ele>691.818667</ele>
        <time>2022-09-01T15:47:56.583Z</time>
      </trkpt>
      <trkpt lat="38.22812" lon="-2.72213">
        <ele>692.853157</ele>
        <time>2022-09-01T15:48:07.437Z</time>
      </trkpt>
      <trkpt lat="38.228" lon="-2.72187">
        <ele>693.861308</ele>
        <time>2022-09-01T15:48:17.382Z</time>
      </trkpt>
      <trkpt lat="38.22784" lon="-2.72095">
        <ele>694.522687</ele>
        <time>2022-09-01T15:48:35.575Z</time>
      </trkpt>
      <trkpt lat="38.22754" lon="-2.72011">
        <ele>694.15166</ele>
        <time>2022-09-01T15:48:50.167Z</time>
      </trkpt>
      <trkpt lat="38.2272" lon="-2.71956">
        <ele>693.873324</ele>
        <time>2022-09-01T15:49:00.094Z</time>
      </trkpt>
      <trkpt lat="38.22717" lon="-2.71935">
        <ele>693.834881</ele>
        <time>2022-09-01T15:49:04.277Z</time>
      </trkpt>
      <trkpt lat="38.22727" lon="-2.71919">
        <ele>693.797371</ele>
        <time>2022-09-01T15:49:07.040Z</time>
      </trkpt>
      <trkpt lat="38.22782" lon="-2.71883">
        <ele>693.654182</ele>
        <time>2022-09-01T15:49:19.553Z</time>
      </trkpt>
      <trkpt lat="38.22815" lon="-2.71832">
        <ele>693.533496</ele>
        <time>2022-09-01T15:49:30.512Z</time>
      </trkpt>
      <trkpt lat="38.22826" lon="-2.71782">
        <ele>693.623487</ele>
        <time>2022-09-01T15:49:44.239Z</time>
      </trkpt>
      <trkpt lat="38.2282" lon="-2.71732">
        <ele>694.520691</ele>
        <time>2022-09-01T15:49:56.718Z</time>
      </trkpt>
      <trkpt lat="38.22775" lon="-2.71636">
        <ele>696.511798</ele>
        <time>2022-09-01T15:50:27.489Z</time>
      </trkpt>
      <trkpt lat="38.22765" lon="-2.715">
        <ele>699.42387</ele>
        <time>2022-09-01T15:51:04.649Z</time>
      </trkpt>
      <trkpt lat="38.22754" lon="-2.71456">
        <ele>700.527329</ele>
        <time>2022-09-01T15:51:16.833Z</time>
      </trkpt>
      <trkpt lat="38.2274" lon="-2.71435">
        <ele>701.182051</ele>
        <time>2022-09-01T15:51:24.445Z</time>
      </trkpt>
      <trkpt lat="38.2267" lon="-2.7137">
        <ele>704.544342</ele>
        <time>2022-09-01T15:52:01.073Z</time>
      </trkpt>
      <trkpt lat="38.22656" lon="-2.71348">
        <ele>705.872589</ele>
        <time>2022-09-01T15:52:11.729Z</time>
      </trkpt>
      <trkpt lat="38.22644" lon="-2.71321">
        <ele>707.2476</ele>
        <time>2022-09-01T15:52:23.249Z</time>
      </trkpt>
      <trkpt lat="38.22638" lon="-2.71292">
        <ele>708.642747</ele>
        <time>2022-09-01T15:52:35.229Z</time>
      </trkpt>
      <trkpt lat="38.22635" lon="-2.71176">
        <ele>714.027524</ele>
        <time>2022-09-01T15:53:26.532Z</time>
      </trkpt>
      <trkpt lat="38.22628" lon="-2.71152">
        <ele>715.501853</ele>
        <time>2022-09-01T15:53:38.593Z</time>
      </trkpt>
      <trkpt lat="38.22617" lon="-2.71133">
        <ele>716.84136</ele>
        <time>2022-09-01T15:53:50.468Z</time>
      </trkpt>
      <trkpt lat="38.22601" lon="-2.71122">
        <ele>718.144129</ele>
        <time>2022-09-01T15:54:01.277Z</time>
      </trkpt>
      <trkpt lat="38.22581" lon="-2.71121">
        <ele>719.614039</ele>
        <time>2022-09-01T15:54:13.941Z</time>
      </trkpt>
      <trkpt lat="38.22544" lon="-2.7114">
        <ele>722.524339</ele>
        <time>2022-09-01T15:54:37.218Z</time>
      </trkpt>
      <trkpt lat="38.22472" lon="-2.7123">
        <ele>730.013667</ele>
        <time>2022-09-01T15:55:34.539Z</time>
      </trkpt>
      <trkpt lat="38.22466" lon="-2.71263">
        <ele>731.991575</ele>
        <time>2022-09-01T15:55:49.986Z</time>
      </trkpt>
      <trkpt lat="38.22476" lon="-2.71369">
        <ele>738.355209</ele>
        <time>2022-09-01T15:56:40.420Z</time>
      </trkpt>
      <trkpt lat="38.22467" lon="-2.71392">
        <ele>739.852359</ele>
        <time>2022-09-01T15:56:52.941Z</time>
      </trkpt>
      <trkpt lat="38.22451" lon="-2.71406">
        <ele>741.68612</ele>
        <time>2022-09-01T15:57:05.897Z</time>
      </trkpt>
      <trkpt lat="38.22369" lon="-2.71451">
        <ele>750.010054</ele>
        <time>2022-09-01T15:58:07.859Z</time>
      </trkpt>
      <trkpt lat="38.22358" lon="-2.71465">
        <ele>751.501904</ele>
        <time>2022-09-01T15:58:19.277Z</time>
      </trkpt>
      <trkpt lat="38.22336" lon="-2.71521">
        <ele>756.062416</ele>
        <time>2022-09-01T15:58:55.328Z</time>
      </trkpt>
      <trkpt lat="38.22313" lon="-2.71547">
        <ele>758.968563</ele>
        <time>2022-09-01T15:59:16.494Z</time>
      </trkpt>
      <trkpt lat="38.22231" lon="-2.71576">
        <ele>766.976626</ele>
        <time>2022-09-01T16:00:14.392Z</time>
      </trkpt>
      <trkpt lat="38.22213" lon="-2.71588">
        <ele>768.916301</ele>
        <time>2022-09-01T16:00:28.012Z</time>
      </trkpt>
      <trkpt lat="38.22195" lon="-2.7161">
        <ele>771.264412</ele>
        <time>2022-09-01T16:00:45.175Z</time>
      </trkpt>
      <trkpt lat="38.22186" lon="-2.71637">
        <ele>773.44919</ele>
        <time>2022-09-01T16:01:00.974Z</time>
      </trkpt>
      <trkpt lat="38.22166" lon="-2.71657">
        <ele>776.067387</ele>
        <time>2022-09-01T16:01:19.619Z</time>
      </trkpt>
      <trkpt lat="38.22125" lon="-2.71656">
        <ele>780.285268</ele>
        <time>2022-09-01T16:01:49.909Z</time>
      </trkpt>
      <trkpt lat="38.22093" lon="-2.71662">
        <ele>783.695301</ele>
        <time>2022-09-01T16:02:15.116Z</time>
      </trkpt>
      <trkpt lat="38.22043" lon="-2.71683">
        <ele>789.102321</ele>
        <time>2022-09-01T16:02:54.654Z</time>
      </trkpt>
      <trkpt lat="38.22024" lon="-2.71698">
        <ele>791.468997</ele>
        <time>2022-09-01T16:03:11.920Z</time>
      </trkpt>
      <trkpt lat="38.21966" lon="-2.71772">
        <ele>798.970365</ele>
        <time>2022-09-01T16:04:12.358Z</time>
      </trkpt>
      <trkpt lat="38.21957" lon="-2.71835">
        <ele>803.445102</ele>
        <time>2022-09-01T16:04:44.142Z</time>
      </trkpt>
      <trkpt lat="38.21948" lon="-2.7184">
        <ele>804.300565</ele>
        <time>2022-09-01T16:04:50.274Z</time>
      </trkpt>
      <trkpt lat="38.21936" lon="-2.71838">
        <ele>805.403741</ele>
        <time>2022-09-01T16:04:58.973Z</time>
      </trkpt>
      <trkpt lat="38.21927" lon="-2.7182">
        <ele>806.89163</ele>
        <time>2022-09-01T16:05:08.588Z</time>
      </trkpt>
      <trkpt lat="38.21913" lon="-2.7175">
        <ele>811.577415</ele>
        <time>2022-09-01T16:05:43.157Z</time>
      </trkpt>
      <trkpt lat="38.21913" lon="-2.71721">
        <ele>813.344896</ele>
        <time>2022-09-01T16:05:54.925Z</time>
      </trkpt>
      <trkpt lat="38.21921" lon="-2.71694">
        <ele>815.134314</ele>
        <time>2022-09-01T16:06:07.858Z</time>
      </trkpt>
      <trkpt lat="38.21946" lon="-2.71638">
        <ele>819.153092</ele>
        <time>2022-09-01T16:06:38.312Z</time>
      </trkpt>
      <trkpt lat="38.21996" lon="-2.71553">
        <ele>826.211451</ele>
        <time>2022-09-01T16:07:35.573Z</time>
      </trkpt>
      <trkpt lat="38.22104" lon="-2.71462">
        <ele>838.084811</ele>
        <time>2022-09-01T16:09:03.930Z</time>
      </trkpt>
      <trkpt lat="38.22109" lon="-2.71442">
        <ele>839.489095</ele>
        <time>2022-09-01T16:09:13.738Z</time>
      </trkpt>
      <trkpt lat="38.22101" lon="-2.7136">
        <ele>844.634101</ele>
        <time>2022-09-01T16:10:00.506Z</time>
      </trkpt>
      <trkpt lat="38.22111" lon="-2.7133">
        <ele>846.674719</ele>
        <time>2022-09-01T16:10:16.374Z</time>
      </trkpt>
      <trkpt lat="38.22139" lon="-2.7129">
        <ele>850.0248</ele>
        <time>2022-09-01T16:10:41.996Z</time>
      </trkpt>
      <trkpt lat="38.22143" lon="-2.71279">
        <ele>850.742658</ele>
        <time>2022-09-01T16:10:47.810Z</time>
      </trkpt>
      <trkpt lat="38.22139" lon="-2.71262">
        <ele>851.863857</ele>
        <time>2022-09-01T16:10:54.331Z</time>
      </trkpt>
      <trkpt lat="38.22132" lon="-2.71257">
        <ele>852.496142</ele>
        <time>2022-09-01T16:10:58.149Z</time>
      </trkpt>
      <trkpt lat="38.22119" lon="-2.71261">
        <ele>853.550048</ele>
        <time>2022-09-01T16:11:05.941Z</time>
      </trkpt>
      <trkpt lat="38.22091" lon="-2.71283">
        <ele>855.124202</ele>
        <time>2022-09-01T16:11:22.180Z</time>
      </trkpt>
      <trkpt lat="38.22042" lon="-2.71383">
        <ele>859.536341</ele>
        <time>2022-09-01T16:12:07.749Z</time>
      </trkpt>
      <trkpt lat="38.21975" lon="-2.7147">
        <ele>863.778877</ele>
        <time>2022-09-01T16:12:42.996Z</time>
      </trkpt>
      <trkpt lat="38.21944" lon="-2.71494">
        <ele>865.213661</ele>
        <time>2022-09-01T16:12:57.065Z</time>
      </trkpt>
      <trkpt lat="38.21854" lon="-2.71544">
        <ele>869.112335</ele>
        <time>2022-09-01T16:13:39.757Z</time>
      </trkpt>
      <trkpt lat="38.21782" lon="-2.71573">
        <ele>873.149373</ele>
        <time>2022-09-01T16:14:17.729Z</time>
      </trkpt>
      <trkpt lat="38.21733" lon="-2.71633">
        <ele>876.841978</ele>
        <time>2022-09-01T16:14:46.915Z</time>
      </trkpt>
      <trkpt lat="38.21662" lon="-2.71674">
        <ele>881.824325</ele>
        <time>2022-09-01T16:15:34.004Z</time>
      </trkpt>
      <trkpt lat="38.2164" lon="-2.71713">
        <ele>884.608253</ele>
        <time>2022-09-01T16:15:55.371Z</time>
      </trkpt>
      <trkpt lat="38.21627" lon="-2.7174">
        <ele>886.460055</ele>
        <time>2022-09-01T16:16:08.425Z</time>
      </trkpt>
      <trkpt lat="38.2161" lon="-2.7173">
        <ele>887.887407</ele>
        <time>2022-09-01T16:16:22.137Z</time>
      </trkpt>
      <trkpt lat="38.21586" lon="-2.71694">
        <ele>890.641844</ele>
        <time>2022-09-01T16:16:45.466Z</time>
      </trkpt>
      <trkpt lat="38.21574" lon="-2.7169">
        <ele>891.542935</ele>
        <time>2022-09-01T16:16:52.007Z</time>
      </trkpt>
      <trkpt lat="38.21504" lon="-2.7173">
        <ele>896.109985</ele>
        <time>2022-09-01T16:17:38.941Z</time>
      </trkpt>
      <trkpt lat="38.21491" lon="-2.71729">
        <ele>896.838294</ele>
        <time>2022-09-01T16:17:49.359Z</time>
      </trkpt>
      <trkpt lat="38.21422" lon="-2.71723">
        <ele>900.747634</ele>
        <time>2022-09-01T16:18:22.331Z</time>
      </trkpt>
      <trkpt lat="38.21398" lon="-2.71727">
        <ele>902.108283</ele>
        <time>2022-09-01T16:18:29.320Z</time>
      </trkpt>
      <trkpt lat="38.21364" lon="-2.71745">
        <ele>902.614855</ele>
        <time>2022-09-01T16:18:39.966Z</time>
      </trkpt>
      <trkpt lat="38.21332" lon="-2.71749">
        <ele>902.698613</ele>
        <time>2022-09-01T16:18:49.680Z</time>
      </trkpt>
      <trkpt lat="38.21279" lon="-2.71745">
        <ele>902.833977</ele>
        <time>2022-09-01T16:19:01.175Z</time>
      </trkpt>
      <trkpt lat="38.21215" lon="-2.7174">
        <ele>902.999563</ele>
        <time>2022-09-01T16:19:14.013Z</time>
      </trkpt>
      <trkpt lat="38.2115" lon="-2.71684">
        <ele>901.975614</ele>
        <time>2022-09-01T16:19:29.262Z</time>
      </trkpt>
      <trkpt lat="38.21112" lon="-2.71673">
        <ele>901.463743</ele>
        <time>2022-09-01T16:19:37.312Z</time>
      </trkpt>
      <trkpt lat="38.21019" lon="-2.71666">
        <ele>899.617238</ele>
        <time>2022-09-01T16:19:54.945Z</time>
      </trkpt>
      <trkpt lat="38.20793" lon="-2.71539">
        <ele>892.85164</ele>
        <time>2022-09-01T16:20:35.843Z</time>
      </trkpt>
      <trkpt lat="38.20774" lon="-2.71516">
        <ele>892.402209</ele>
        <time>2022-09-01T16:20:40.938Z</time>
      </trkpt>
      <trkpt lat="38.20777" lon="-2.71451">
        <ele>891.53668</ele>
        <time>2022-09-01T16:20:54.782Z</time>
      </trkpt>
      <trkpt lat="38.20813" lon="-2.71411">
        <ele>893.338385</ele>
        <time>2022-09-01T16:21:10.471Z</time>
      </trkpt>
      <trkpt lat="38.20859" lon="-2.71377">
        <ele>895.714885</ele>
        <time>2022-09-01T16:21:34.254Z</time>
      </trkpt>
      <trkpt lat="38.20838" lon="-2.71324">
        <ele>897.808848</ele>
        <time>2022-09-01T16:21:59.331Z</time>
      </trkpt>
      <trkpt lat="38.20806" lon="-2.71306">
        <ele>899.347909</ele>
        <time>2022-09-01T16:22:17.409Z</time>
      </trkpt>
      <trkpt lat="38.20799" lon="-2.71283">
        <ele>900.249758</ele>
        <time>2022-09-01T16:22:28.683Z</time>
      </trkpt>
      <trkpt lat="38.20811" lon="-2.71197">
        <ele>903.366253</ele>
        <time>2022-09-01T16:23:03.129Z</time>
      </trkpt>
      <trkpt lat="38.20809" lon="-2.71168">
        <ele>904.380967</ele>
        <time>2022-09-01T16:23:12.473Z</time>
      </trkpt>
      <trkpt lat="38.20793" lon="-2.71145">
        <ele>905.470422</ele>
        <time>2022-09-01T16:23:22.254Z</time>
      </trkpt>
      <trkpt lat="38.20771" lon="-2.71136">
        <ele>906.537096</ele>
        <time>2022-09-01T16:23:31.517Z</time>
      </trkpt>
      <trkpt lat="38.20758" lon="-2.71116">
        <ele>907.438807</ele>
        <time>2022-09-01T16:23:39.524Z</time>
      </trkpt>
      <trkpt lat="38.20735" lon="-2.71015">
        <ele>909.986167</ele>
        <time>2022-09-01T16:24:07.823Z</time>
      </trkpt>
      <trkpt lat="38.20734" lon="-2.70992">
        <ele>910.521474</ele>
        <time>2022-09-01T16:24:14.195Z</time>
      </trkpt>
      <trkpt lat="38.20773" lon="-2.70938">
        <ele>912.229814</ele>
        <time>2022-09-01T16:24:34.162Z</time>
      </trkpt>
      <trkpt lat="38.20795" lon="-2.70894">
        <ele>913.951606</ele>
        <time>2022-09-01T16:24:50.540Z</time>
      </trkpt>
      <trkpt lat="38.20811" lon="-2.70818">
        <ele>917.989574</ele>
        <time>2022-09-01T16:25:20.812Z</time>
      </trkpt>
      <trkpt lat="38.20882" lon="-2.70691">
        <ele>926.697664</ele>
        <time>2022-09-01T16:26:35.438Z</time>
      </trkpt>
      <trkpt lat="38.20908" lon="-2.70601">
        <ele>934.300665</ele>
        <time>2022-09-01T16:27:30.134Z</time>
      </trkpt>
      <trkpt lat="38.20949" lon="-2.70557">
        <ele>939.805864</ele>
        <time>2022-09-01T16:28:12.218Z</time>
      </trkpt>
      <trkpt lat="38.21009" lon="-2.70509">
        <ele>947.094211</ele>
        <time>2022-09-01T16:29:07.116Z</time>
      </trkpt>
      <trkpt lat="38.21026" lon="-2.70466">
        <ele>951.074058</ele>
        <time>2022-09-01T16:29:37.348Z</time>
      </trkpt>
      <trkpt lat="38.21032" lon="-2.7043">
        <ele>954.087431</ele>
        <time>2022-09-01T16:29:59.790Z</time>
      </trkpt>
      <trkpt lat="38.2097" lon="-2.70337">
        <ele>963.433581</ele>
        <time>2022-09-01T16:31:09.027Z</time>
      </trkpt>
      <trkpt lat="38.20888" lon="-2.70351">
        <ele>969.352145</ele>
        <time>2022-09-01T16:31:58.180Z</time>
      </trkpt>
      <trkpt lat="38.20746" lon="-2.70302">
        <ele>978.511584</ele>
        <time>2022-09-01T16:33:12.216Z</time>
      </trkpt>
      <trkpt lat="38.20738" lon="-2.70294">
        <ele>979.095322</ele>
        <time>2022-09-01T16:33:16.269Z</time>
      </trkpt>
      <trkpt lat="38.20737" lon="-2.70285">
        <ele>979.475381</ele>
        <time>2022-09-01T16:33:20.542Z</time>
      </trkpt>
      <trkpt lat="38.20739" lon="-2.70278">
        <ele>979.756191</ele>
        <time>2022-09-01T16:33:23.593Z</time>
      </trkpt>
      <trkpt lat="38.20748" lon="-2.70273">
        <ele>980.282163</ele>
        <time>2022-09-01T16:33:27.494Z</time>
      </trkpt>
      <trkpt lat="38.20775" lon="-2.70291">
        <ele>981.904778</ele>
        <time>2022-09-01T16:33:43.070Z</time>
      </trkpt>
      <trkpt lat="38.20858" lon="-2.70298">
        <ele>985.941723</ele>
        <time>2022-09-01T16:34:21.966Z</time>
      </trkpt>
      <trkpt lat="38.20906" lon="-2.70248">
        <ele>988.692872</ele>
        <time>2022-09-01T16:34:50.096Z</time>
      </trkpt>
      <trkpt lat="38.21007" lon="-2.70198">
        <ele>992.836832</ele>
        <time>2022-09-01T16:35:36.369Z</time>
      </trkpt>
      <trkpt lat="38.21015" lon="-2.70178">
        <ele>993.221404</ele>
        <time>2022-09-01T16:35:42.917Z</time>
      </trkpt>
      <trkpt lat="38.2099" lon="-2.70092">
        <ele>994.814192</ele>
        <time>2022-09-01T16:36:08.803Z</time>
      </trkpt>
      <trkpt lat="38.20993" lon="-2.70064">
        <ele>995.308624</ele>
        <time>2022-09-01T16:36:15.971Z</time>
      </trkpt>
      <trkpt lat="38.20984" lon="-2.70047">
        <ele>995.673592</ele>
        <time>2022-09-01T16:36:18.782Z</time>
      </trkpt>
      <trkpt lat="38.20992" lon="-2.70009">
        <ele>996.175023</ele>
        <time>2022-09-01T16:36:26.790Z</time>
      </trkpt>
      <trkpt lat="38.20975" lon="-2.69967">
        <ele>996.146633</ele>
        <time>2022-09-01T16:36:35.838Z</time>
      </trkpt>
      <trkpt lat="38.20981" lon="-2.69929">
        <ele>996.124391</ele>
        <time>2022-09-01T16:36:44.639Z</time>
      </trkpt>
      <trkpt lat="38.21002" lon="-2.69917">
        <ele>996.106809</ele>
        <time>2022-09-01T16:36:49.131Z</time>
      </trkpt>
      <trkpt lat="38.21008" lon="-2.69904">
        <ele>996.097457</ele>
        <time>2022-09-01T16:36:53.241Z</time>
      </trkpt>
      <trkpt lat="38.21005" lon="-2.69886">
        <ele>996.087047</ele>
        <time>2022-09-01T16:36:55.379Z</time>
      </trkpt>
      <trkpt lat="38.20998" lon="-2.69877">
        <ele>996.079439</ele>
        <time>2022-09-01T16:36:59.499Z</time>
      </trkpt>
      <trkpt lat="38.20954" lon="-2.69847">
        <ele>996.087897</ele>
        <time>2022-09-01T16:37:10.667Z</time>
      </trkpt>
      <trkpt lat="38.20937" lon="-2.69812">
        <ele>996.346022</ele>
        <time>2022-09-01T16:37:17.335Z</time>
      </trkpt>
      <trkpt lat="38.20921" lon="-2.69751">
        <ele>996.752585</ele>
        <time>2022-09-01T16:37:26.866Z</time>
      </trkpt>
      <trkpt lat="38.20912" lon="-2.69741">
        <ele>996.849863</ele>
        <time>2022-09-01T16:37:31.853Z</time>
      </trkpt>
      <trkpt lat="38.20888" lon="-2.69743">
        <ele>997.039108</ele>
        <time>2022-09-01T16:37:41.473Z</time>
      </trkpt>
      <trkpt lat="38.20862" lon="-2.69728">
        <ele>997.267347</ele>
        <time>2022-09-01T16:37:51.887Z</time>
      </trkpt>
      <trkpt lat="38.20827" lon="-2.69675">
        <ele>997.76417</ele>
        <time>2022-09-01T16:38:07.052Z</time>
      </trkpt>
      <trkpt lat="38.20822" lon="-2.6964">
        <ele>998.04856</ele>
        <time>2022-09-01T16:38:14.738Z</time>
      </trkpt>
      <trkpt lat="38.20824" lon="-2.69607">
        <ele>998.313109</ele>
        <time>2022-09-01T16:38:21.902Z</time>
      </trkpt>
      <trkpt lat="38.20853" lon="-2.69558">
        <ele>998.797163</ele>
        <time>2022-09-01T16:38:33.229Z</time>
      </trkpt>
      <trkpt lat="38.20858" lon="-2.69539">
        <ele>998.954235</ele>
        <time>2022-09-01T16:38:37.382Z</time>
      </trkpt>
      <trkpt lat="38.20843" lon="-2.69513">
        <ele>999.208505</ele>
        <time>2022-09-01T16:38:43.784Z</time>
      </trkpt>
      <trkpt lat="38.20789" lon="-2.69451">
        <ele>1000.310635</ele>
        <time>2022-09-01T16:39:05.642Z</time>
      </trkpt>
      <trkpt lat="38.20766" lon="-2.69435">
        <ele>1000.732303</ele>
        <time>2022-09-01T16:39:13.371Z</time>
      </trkpt>
      <trkpt lat="38.20745" lon="-2.69428">
        <ele>1001.083027</ele>
        <time>2022-09-01T16:39:20.366Z</time>
      </trkpt>
      <trkpt lat="38.2072" lon="-2.69436">
        <ele>1001.485623</ele>
        <time>2022-09-01T16:39:28.103Z</time>
      </trkpt>
      <trkpt lat="38.20711" lon="-2.6943">
        <ele>1001.650419</ele>
        <time>2022-09-01T16:39:31.542Z</time>
      </trkpt>
      <trkpt lat="38.20689" lon="-2.69399">
        <ele>1002.171361</ele>
        <time>2022-09-01T16:39:42.039Z</time>
      </trkpt>
      <trkpt lat="38.2068" lon="-2.69332">
        <ele>1002.757137</ele>
        <time>2022-09-01T16:39:58.754Z</time>
      </trkpt>
      <trkpt lat="38.20683" lon="-2.69291">
        <ele>1003.107701</ele>
        <time>2022-09-01T16:40:09.667Z</time>
      </trkpt>
      <trkpt lat="38.20708" lon="-2.69224">
        <ele>1003.73282</ele>
        <time>2022-09-01T16:40:25.241Z</time>
      </trkpt>
      <trkpt lat="38.20712" lon="-2.692">
        <ele>1003.937428</ele>
        <time>2022-09-01T16:40:29.414Z</time>
      </trkpt>
      <trkpt lat="38.20707" lon="-2.69185">
        <ele>1004.079103</ele>
        <time>2022-09-01T16:40:32.152Z</time>
      </trkpt>
      <trkpt lat="38.20674" lon="-2.69144">
        <ele>1004.639928</ele>
        <time>2022-09-01T16:40:41.619Z</time>
      </trkpt>
      <trkpt lat="38.20675" lon="-2.69125">
        <ele>1004.832039</ele>
        <time>2022-09-01T16:40:44.752Z</time>
      </trkpt>
      <trkpt lat="38.20694" lon="-2.69083">
        <ele>1005.302708</ele>
        <time>2022-09-01T16:40:52.267Z</time>
      </trkpt>
      <trkpt lat="38.20696" lon="-2.69054">
        <ele>1005.585122</ele>
        <time>2022-09-01T16:40:57.484Z</time>
      </trkpt>
      <trkpt lat="38.20688" lon="-2.6903">
        <ele>1005.839931</ele>
        <time>2022-09-01T16:41:02.894Z</time>
      </trkpt>
      <trkpt lat="38.20645" lon="-2.69">
        <ele>1006.868957</ele>
        <time>2022-09-01T16:41:27.609Z</time>
      </trkpt>
      <trkpt lat="38.20613" lon="-2.69001">
        <ele>1008.871236</ele>
        <time>2022-09-01T16:41:43.139Z</time>
      </trkpt>
      <trkpt lat="38.20593" lon="-2.68988">
        <ele>1010.315403</ele>
        <time>2022-09-01T16:41:54.471Z</time>
      </trkpt>
      <trkpt lat="38.20578" lon="-2.68938">
        <ele>1012.967456</ele>
        <time>2022-09-01T16:42:16.555Z</time>
      </trkpt>
      <trkpt lat="38.20588" lon="-2.68913">
        <ele>1014.393857</ele>
        <time>2022-09-01T16:42:30.596Z</time>
      </trkpt>
      <trkpt lat="38.20602" lon="-2.689">
        <ele>1015.482953</ele>
        <time>2022-09-01T16:42:39.241Z</time>
      </trkpt>
      <trkpt lat="38.20688" lon="-2.68871">
        <ele>1021.127603</ele>
        <time>2022-09-01T16:43:34.468Z</time>
      </trkpt>
      <trkpt lat="38.20726" lon="-2.6884">
        <ele>1023.958079</ele>
        <time>2022-09-01T16:44:02.376Z</time>
      </trkpt>
      <trkpt lat="38.20774" lon="-2.68751">
        <ele>1029.245854</ele>
        <time>2022-09-01T16:44:41.305Z</time>
      </trkpt>
      <trkpt lat="38.2079" lon="-2.687">
        <ele>1030.490508</ele>
        <time>2022-09-01T16:44:59.708Z</time>
      </trkpt>
      <trkpt lat="38.20795" lon="-2.68644">
        <ele>1031.762495</ele>
        <time>2022-09-01T16:45:16.718Z</time>
      </trkpt>
      <trkpt lat="38.20812" lon="-2.68599">
        <ele>1032.877684</ele>
        <time>2022-09-01T16:45:29.795Z</time>
      </trkpt>
      <trkpt lat="38.20812" lon="-2.68579">
        <ele>1033.345097</ele>
        <time>2022-09-01T16:45:34.718Z</time>
      </trkpt>
      <trkpt lat="38.20806" lon="-2.68533">
        <ele>1034.372014</ele>
        <time>2022-09-01T16:45:46.034Z</time>
      </trkpt>
      <trkpt lat="38.20797" lon="-2.68513">
        <ele>1034.696835</ele>
        <time>2022-09-01T16:45:51.767Z</time>
      </trkpt>
      <trkpt lat="38.20784" lon="-2.68448">
        <ele>1035.629875</ele>
        <time>2022-09-01T16:46:07.813Z</time>
      </trkpt>
      <trkpt lat="38.20753" lon="-2.68401">
        <ele>1036.477183</ele>
        <time>2022-09-01T16:46:21.502Z</time>
      </trkpt>
      <trkpt lat="38.20752" lon="-2.68388">
        <ele>1036.65455</ele>
        <time>2022-09-01T16:46:24.160Z</time>
      </trkpt>
      <trkpt lat="38.20768" lon="-2.68315">
        <ele>1037.960408</ele>
        <time>2022-09-01T16:46:43.300Z</time>
      </trkpt>
      <trkpt lat="38.2079" lon="-2.6829">
        <ele>1039.157317</ele>
        <time>2022-09-01T16:46:53.879Z</time>
      </trkpt>
      <trkpt lat="38.20814" lon="-2.68278">
        <ele>1040.191366</ele>
        <time>2022-09-01T16:47:03.846Z</time>
      </trkpt>
      <trkpt lat="38.20915" lon="-2.68255">
        <ele>1044.40155</ele>
        <time>2022-09-01T16:47:50.524Z</time>
      </trkpt>
      <trkpt lat="38.20943" lon="-2.68216">
        <ele>1046.741349</ele>
        <time>2022-09-01T16:48:11.456Z</time>
      </trkpt>
      <trkpt lat="38.20951" lon="-2.68187">
        <ele>1048.309626</ele>
        <time>2022-09-01T16:48:25.195Z</time>
      </trkpt>
      <trkpt lat="38.20947" lon="-2.6811">
        <ele>1052.147604</ele>
        <time>2022-09-01T16:48:59.149Z</time>
      </trkpt>
      <trkpt lat="38.20953" lon="-2.68069">
        <ele>1054.226718</ele>
        <time>2022-09-01T16:49:17.915Z</time>
      </trkpt>
      <trkpt lat="38.20975" lon="-2.68028">
        <ele>1056.608171</ele>
        <time>2022-09-01T16:49:40.098Z</time>
      </trkpt>
      <trkpt lat="38.20974" lon="-2.6794">
        <ele>1059.919985</ele>
        <time>2022-09-01T16:50:15.081Z</time>
      </trkpt>
      <trkpt lat="38.20953" lon="-2.67884">
        <ele>1062.268713</ele>
        <time>2022-09-01T16:50:37.507Z</time>
      </trkpt>
      <trkpt lat="38.20953" lon="-2.67868">
        <ele>1062.857185</ele>
        <time>2022-09-01T16:50:42.557Z</time>
      </trkpt>
      <trkpt lat="38.20972" lon="-2.67858">
        <ele>1063.845749</ele>
        <time>2022-09-01T16:50:50.356Z</time>
      </trkpt>
      <trkpt lat="38.21024" lon="-2.67875">
        <ele>1066.28604</ele>
        <time>2022-09-01T16:51:09.703Z</time>
      </trkpt>
      <trkpt lat="38.2106" lon="-2.67859">
        <ele>1067.973948</ele>
        <time>2022-09-01T16:51:25.555Z</time>
      </trkpt>
      <trkpt lat="38.21124" lon="-2.67788">
        <ele>1071.653727</ele>
        <time>2022-09-01T16:52:01.950Z</time>
      </trkpt>
      <trkpt lat="38.2117" lon="-2.67758">
        <ele>1074.571596</ele>
        <time>2022-09-01T16:52:30.399Z</time>
      </trkpt>
      <trkpt lat="38.21214" lon="-2.67718">
        <ele>1078.233514</ele>
        <time>2022-09-01T16:53:01.596Z</time>
      </trkpt>
      <trkpt lat="38.21233" lon="-2.67659">
        <ele>1081.603234</ele>
        <time>2022-09-01T16:53:32.261Z</time>
      </trkpt>
      <trkpt lat="38.2128" lon="-2.6756">
        <ele>1086.475332</ele>
        <time>2022-09-01T16:54:22.435Z</time>
      </trkpt>
      <trkpt lat="38.21316" lon="-2.67528">
        <ele>1088.063638</ele>
        <time>2022-09-01T16:54:42.055Z</time>
      </trkpt>
      <trkpt lat="38.21412" lon="-2.6748">
        <ele>1091.451883</ele>
        <time>2022-09-01T16:55:16.078Z</time>
      </trkpt>
      <trkpt lat="38.21429" lon="-2.67483">
        <ele>1091.322413</ele>
        <time>2022-09-01T16:55:21.030Z</time>
      </trkpt>
      <trkpt lat="38.21447" lon="-2.675">
        <ele>1091.155732</ele>
        <time>2022-09-01T16:55:25.700Z</time>
      </trkpt>
      <trkpt lat="38.21473" lon="-2.67512">
        <ele>1090.951628</ele>
        <time>2022-09-01T16:55:31.659Z</time>
      </trkpt>
      <trkpt lat="38.21506" lon="-2.67513">
        <ele>1090.712035</ele>
        <time>2022-09-01T16:55:38.254Z</time>
      </trkpt>
      <trkpt lat="38.21561" lon="-2.67497">
        <ele>1090.293934</ele>
        <time>2022-09-01T16:55:49.017Z</time>
      </trkpt>
      <trkpt lat="38.21576" lon="-2.6751">
        <ele>1090.09131</ele>
        <time>2022-09-01T16:55:52.093Z</time>
      </trkpt>
      <trkpt lat="38.21576" lon="-2.67532">
        <ele>1089.681157</ele>
        <time>2022-09-01T16:55:55.098Z</time>
      </trkpt>
      <trkpt lat="38.21569" lon="-2.67543">
        <ele>1089.421511</ele>
        <time>2022-09-01T16:55:56.986Z</time>
      </trkpt>
      <trkpt lat="38.21483" lon="-2.67585">
        <ele>1087.255746</ele>
        <time>2022-09-01T16:56:12.754Z</time>
      </trkpt>
      <trkpt lat="38.21423" lon="-2.67601">
        <ele>1086.109708</ele>
        <time>2022-09-01T16:56:24.216Z</time>
      </trkpt>
      <trkpt lat="38.21399" lon="-2.67626">
        <ele>1086.927105</ele>
        <time>2022-09-01T16:56:30.565Z</time>
      </trkpt>
      <trkpt lat="38.21395" lon="-2.67652">
        <ele>1087.48644</ele>
        <time>2022-09-01T16:56:36.098Z</time>
      </trkpt>
      <trkpt lat="38.21403" lon="-2.67669">
        <ele>1087.883362</ele>
        <time>2022-09-01T16:56:40.249Z</time>
      </trkpt>
      <trkpt lat="38.21419" lon="-2.67678">
        <ele>1088.341337</ele>
        <time>2022-09-01T16:56:46.175Z</time>
      </trkpt>
      <trkpt lat="38.21436" lon="-2.67663">
        <ele>1088.879864</ele>
        <time>2022-09-01T16:56:53.578Z</time>
      </trkpt>
      <trkpt lat="38.21448" lon="-2.67629">
        <ele>1089.658045</ele>
        <time>2022-09-01T16:57:06.256Z</time>
      </trkpt>
      <trkpt lat="38.21479" lon="-2.67606">
        <ele>1090.587142</ele>
        <time>2022-09-01T16:57:24.729Z</time>
      </trkpt>
      <trkpt lat="38.21583" lon="-2.67592">
        <ele>1097.538981</ele>
        <time>2022-09-01T16:58:28.147Z</time>
      </trkpt>
      <trkpt lat="38.21646" lon="-2.6764">
        <ele>1102.455683</ele>
        <time>2022-09-01T16:59:08.917Z</time>
      </trkpt>
      <trkpt lat="38.21667" lon="-2.67637">
        <ele>1103.534852</ele>
        <time>2022-09-01T16:59:19.721Z</time>
      </trkpt>
      <trkpt lat="38.21683" lon="-2.6761">
        <ele>1104.754531</ele>
        <time>2022-09-01T16:59:32.976Z</time>
      </trkpt>
      <trkpt lat="38.21703" lon="-2.67604">
        <ele>1105.658152</ele>
        <time>2022-09-01T16:59:41.930Z</time>
      </trkpt>
      <trkpt lat="38.21723" lon="-2.67607">
        <ele>1106.586848</ele>
        <time>2022-09-01T16:59:50.853Z</time>
      </trkpt>
      <trkpt lat="38.21735" lon="-2.67597">
        <ele>1107.217824</ele>
        <time>2022-09-01T16:59:56.678Z</time>
      </trkpt>
      <trkpt lat="38.21819" lon="-2.67464">
        <ele>1113.340547</ele>
        <time>2022-09-01T17:00:52.032Z</time>
      </trkpt>
      <trkpt lat="38.21834" lon="-2.67387">
        <ele>1116.245154</ele>
        <time>2022-09-01T17:01:19.524Z</time>
      </trkpt>
      <trkpt lat="38.2185" lon="-2.67367">
        <ele>1117.258373</ele>
        <time>2022-09-01T17:01:29.037Z</time>
      </trkpt>
      <trkpt lat="38.21876" lon="-2.67355">
        <ele>1118.533412</ele>
        <time>2022-09-01T17:01:42.170Z</time>
      </trkpt>
      <trkpt lat="38.21909" lon="-2.67363">
        <ele>1120.486619</ele>
        <time>2022-09-01T17:01:59.945Z</time>
      </trkpt>
      <trkpt lat="38.21929" lon="-2.67353">
        <ele>1121.897111</ele>
        <time>2022-09-01T17:02:12.037Z</time>
      </trkpt>
      <trkpt lat="38.21939" lon="-2.67287">
        <ele>1125.542987</ele>
        <time>2022-09-01T17:02:41.769Z</time>
      </trkpt>
      <trkpt lat="38.22031" lon="-2.67199">
        <ele>1133.380938</ele>
        <time>2022-09-01T17:03:49.920Z</time>
      </trkpt>
      <trkpt lat="38.22089" lon="-2.67169">
        <ele>1137.511341</ele>
        <time>2022-09-01T17:04:26.297Z</time>
      </trkpt>
      <trkpt lat="38.22106" lon="-2.67137">
        <ele>1139.520764</ele>
        <time>2022-09-01T17:04:43.461Z</time>
      </trkpt>
      <trkpt lat="38.22115" lon="-2.67087">
        <ele>1142.17483</ele>
        <time>2022-09-01T17:05:04.909Z</time>
      </trkpt>
      <trkpt lat="38.22115" lon="-2.67049">
        <ele>1144.119983</ele>
        <time>2022-09-01T17:05:19.884Z</time>
      </trkpt>
      <trkpt lat="38.22139" lon="-2.66999">
        <ele>1146.900218</ele>
        <time>2022-09-01T17:05:41.019Z</time>
      </trkpt>
      <trkpt lat="38.22154" lon="-2.66954">
        <ele>1149.223997</ele>
        <time>2022-09-01T17:05:59.547Z</time>
      </trkpt>
      <trkpt lat="38.22197" lon="-2.66916">
        <ele>1152.452584</ele>
        <time>2022-09-01T17:06:27.920Z</time>
      </trkpt>
      <trkpt lat="38.2222" lon="-2.66886">
        <ele>1154.457436</ele>
        <time>2022-09-01T17:06:46.960Z</time>
      </trkpt>
      <trkpt lat="38.22243" lon="-2.66893">
        <ele>1156.524187</ele>
        <time>2022-09-01T17:07:00.866Z</time>
      </trkpt>
      <trkpt lat="38.22262" lon="-2.66906">
        <ele>1158.43784</ele>
        <time>2022-09-01T17:07:15.407Z</time>
      </trkpt>
      <trkpt lat="38.22278" lon="-2.66897">
        <ele>1159.96492</ele>
        <time>2022-09-01T17:07:26.070Z</time>
      </trkpt>
      <trkpt lat="38.22295" lon="-2.66839">
        <ele>1164.228971</ele>
        <time>2022-09-01T17:07:59.920Z</time>
      </trkpt>
      <trkpt lat="38.22341" lon="-2.66769">
        <ele>1170.573426</ele>
        <time>2022-09-01T17:08:50.366Z</time>
      </trkpt>
      <trkpt lat="38.22397" lon="-2.66734">
        <ele>1175.474698</ele>
        <time>2022-09-01T17:09:32.835Z</time>
      </trkpt>
      <trkpt lat="38.22421" lon="-2.66739">
        <ele>1177.452081</ele>
        <time>2022-09-01T17:09:48.874Z</time>
      </trkpt>
      <trkpt lat="38.22446" lon="-2.66779">
        <ele>1180.611813</ele>
        <time>2022-09-01T17:10:12.861Z</time>
      </trkpt>
      <trkpt lat="38.22494" lon="-2.66814">
        <ele>1184.895773</ele>
        <time>2022-09-01T17:10:43.346Z</time>
      </trkpt>
      <trkpt lat="38.22512" lon="-2.66802">
        <ele>1186.083784</ele>
        <time>2022-09-01T17:10:54.017Z</time>
      </trkpt>
      <trkpt lat="38.22511" lon="-2.66738">
        <ele>1188.999416</ele>
        <time>2022-09-01T17:11:18.700Z</time>
      </trkpt>
      <trkpt lat="38.22524" lon="-2.66714">
        <ele>1190.320301</ele>
        <time>2022-09-01T17:11:30.009Z</time>
      </trkpt>
      <trkpt lat="38.22598" lon="-2.66644">
        <ele>1195.828887</ele>
        <time>2022-09-01T17:12:16.363Z</time>
      </trkpt>
      <trkpt lat="38.22635" lon="-2.66637">
        <ele>1198.528415</ele>
        <time>2022-09-01T17:12:36.836Z</time>
      </trkpt>
      <trkpt lat="38.227" lon="-2.66538">
        <ele>1205.768256</ele>
        <time>2022-09-01T17:13:36.382Z</time>
      </trkpt>
      <trkpt lat="38.22722" lon="-2.66523">
        <ele>1207.578231</ele>
        <time>2022-09-01T17:13:52.456Z</time>
      </trkpt>
      <trkpt lat="38.22745" lon="-2.66517">
        <ele>1209.4133</ele>
        <time>2022-09-01T17:14:07.238Z</time>
      </trkpt>
      <trkpt lat="38.22813" lon="-2.66482">
        <ele>1215.490441</ele>
        <time>2022-09-01T17:14:54.693Z</time>
      </trkpt>
      <trkpt lat="38.22837" lon="-2.66483">
        <ele>1217.459317</ele>
        <time>2022-09-01T17:15:10.706Z</time>
      </trkpt>
      <trkpt lat="38.22876" lon="-2.66501">
        <ele>1220.884467</ele>
        <time>2022-09-01T17:15:37.109Z</time>
      </trkpt>
      <trkpt lat="38.22921" lon="-2.66548">
        <ele>1225.334734</ele>
        <time>2022-09-01T17:16:12.282Z</time>
      </trkpt>
      <trkpt lat="38.22939" lon="-2.66546">
        <ele>1226.617467</ele>
        <time>2022-09-01T17:16:23.364Z</time>
      </trkpt>
      <trkpt lat="38.22951" lon="-2.66516">
        <ele>1228.504032</ele>
        <time>2022-09-01T17:16:40.359Z</time>
      </trkpt>
      <trkpt lat="38.22969" lon="-2.66505">
        <ele>1229.971941</ele>
        <time>2022-09-01T17:16:51.333Z</time>
      </trkpt>
      <trkpt lat="38.23003" lon="-2.66502">
        <ele>1232.404174</ele>
        <time>2022-09-01T17:17:10.468Z</time>
      </trkpt>
      <trkpt lat="38.2307" lon="-2.66454">
        <ele>1237.940453</ele>
        <time>2022-09-01T17:17:51.843Z</time>
      </trkpt>
      <trkpt lat="38.23104" lon="-2.66478">
        <ele>1240.79799</ele>
        <time>2022-09-01T17:18:12.866Z</time>
      </trkpt>
      <trkpt lat="38.23144" lon="-2.66468">
        <ele>1243.80305</ele>
        <time>2022-09-01T17:18:37.261Z</time>
      </trkpt>
      <trkpt lat="38.23199" lon="-2.66407">
        <ele>1249.202301</ele>
        <time>2022-09-01T17:19:23.772Z</time>
      </trkpt>
      <trkpt lat="38.23255" lon="-2.66365">
        <ele>1254.062842</ele>
        <time>2022-09-01T17:20:04.968Z</time>
      </trkpt>
      <trkpt lat="38.23323" lon="-2.66289">
        <ele>1260.911199</ele>
        <time>2022-09-01T17:20:58.285Z</time>
      </trkpt>
      <trkpt lat="38.23348" lon="-2.66271">
        <ele>1262.98553</ele>
        <time>2022-09-01T17:21:13.642Z</time>
      </trkpt>
      <trkpt lat="38.23365" lon="-2.66248">
        <ele>1264.550527</ele>
        <time>2022-09-01T17:21:27.718Z</time>
      </trkpt>
      <trkpt lat="38.23361" lon="-2.66236">
        <ele>1265.186741</ele>
        <time>2022-09-01T17:21:33.320Z</time>
      </trkpt>
      <trkpt lat="38.23335" lon="-2.6624">
        <ele>1266.841975</ele>
        <time>2022-09-01T17:21:48.269Z</time>
      </trkpt>
      <trkpt lat="38.23253" lon="-2.66231">
        <ele>1272.059119</ele>
        <time>2022-09-01T17:22:30.277Z</time>
      </trkpt>
      <trkpt lat="38.23204" lon="-2.66256">
        <ele>1275.571905</ele>
        <time>2022-09-01T17:22:58.144Z</time>
      </trkpt>
      <trkpt lat="38.2314" lon="-2.66246">
        <ele>1280.218726</ele>
        <time>2022-09-01T17:23:36.377Z</time>
      </trkpt>
      <trkpt lat="38.23088" lon="-2.66258">
        <ele>1283.984146</ele>
        <time>2022-09-01T17:24:09.312Z</time>
      </trkpt>
      <trkpt lat="38.23048" lon="-2.66246">
        <ele>1286.935181</ele>
        <time>2022-09-01T17:24:33.565Z</time>
      </trkpt>
      <trkpt lat="38.22996" lon="-2.66214">
        <ele>1290.809044</ele>
        <time>2022-09-01T17:25:05.017Z</time>
      </trkpt>
      <trkpt lat="38.22933" lon="-2.662">
        <ele>1295.114821</ele>
        <time>2022-09-01T17:25:38.897Z</time>
      </trkpt>
      <trkpt lat="38.22923" lon="-2.66175">
        <ele>1296.559745</ele>
        <time>2022-09-01T17:25:50.894Z</time>
      </trkpt>
      <trkpt lat="38.22928" lon="-2.66153">
        <ele>1297.807229</ele>
        <time>2022-09-01T17:26:02.325Z</time>
      </trkpt>
      <trkpt lat="38.22942" lon="-2.66154">
        <ele>1298.721592</ele>
        <time>2022-09-01T17:26:09.828Z</time>
      </trkpt>
      <trkpt lat="38.22973" lon="-2.6617">
        <ele>1301.6394</ele>
        <time>2022-09-01T17:26:29.637Z</time>
      </trkpt>
      <trkpt lat="38.23011" lon="-2.66176">
        <ele>1304.943871</ele>
        <time>2022-09-01T17:26:51.863Z</time>
      </trkpt>
      <trkpt lat="38.23087" lon="-2.66138">
        <ele>1312.091328</ele>
        <time>2022-09-01T17:27:48.570Z</time>
      </trkpt>
      <trkpt lat="38.23123" lon="-2.66111">
        <ele>1315.850715</ele>
        <time>2022-09-01T17:28:19.922Z</time>
      </trkpt>
      <trkpt lat="38.23154" lon="-2.66043">
        <ele>1321.560648</ele>
        <time>2022-09-01T17:29:06.364Z</time>
      </trkpt>
      <trkpt lat="38.23185" lon="-2.66018">
        <ele>1324.93432</ele>
        <time>2022-09-01T17:29:30.958Z</time>
      </trkpt>
      <trkpt lat="38.23251" lon="-2.66001">
        <ele>1331.168401</ele>
        <time>2022-09-01T17:30:13.318Z</time>
      </trkpt>
      <trkpt lat="38.2331" lon="-2.66009">
        <ele>1335.548241</ele>
        <time>2022-09-01T17:30:50.575Z</time>
      </trkpt>
      <trkpt lat="38.23354" lon="-2.65966">
        <ele>1339.709508</ele>
        <time>2022-09-01T17:31:24.739Z</time>
      </trkpt>
      <trkpt lat="38.2339" lon="-2.65942">
        <ele>1342.690007</ele>
        <time>2022-09-01T17:31:48.244Z</time>
      </trkpt>
      <trkpt lat="38.23419" lon="-2.65879">
        <ele>1346.14895</ele>
        <time>2022-09-01T17:32:18.603Z</time>
      </trkpt>
      <trkpt lat="38.23456" lon="-2.65844">
        <ele>1348.416761</ele>
        <time>2022-09-01T17:32:42.157Z</time>
      </trkpt>
      <trkpt lat="38.23477" lon="-2.65848">
        <ele>1349.444855</ele>
        <time>2022-09-01T17:32:52.213Z</time>
      </trkpt>
      <trkpt lat="38.23495" lon="-2.65897">
        <ele>1351.515973</ele>
        <time>2022-09-01T17:33:09.833Z</time>
      </trkpt>
      <trkpt lat="38.23512" lon="-2.65906">
        <ele>1352.386768</ele>
        <time>2022-09-01T17:33:16.935Z</time>
      </trkpt>
      <trkpt lat="38.23546" lon="-2.65904">
        <ele>1353.781305</ele>
        <time>2022-09-01T17:33:30.848Z</time>
      </trkpt>
      <trkpt lat="38.23579" lon="-2.65916">
        <ele>1354.831363</ele>
        <time>2022-09-01T17:33:44.206Z</time>
      </trkpt>
      <trkpt lat="38.23622" lon="-2.65913">
        <ele>1356.128172</ele>
        <time>2022-09-01T17:33:59.152Z</time>
      </trkpt>
      <trkpt lat="38.23658" lon="-2.65894">
        <ele>1357.308434</ele>
        <time>2022-09-01T17:34:13.221Z</time>
      </trkpt>
      <trkpt lat="38.23706" lon="-2.65881">
        <ele>1358.775817</ele>
        <time>2022-09-01T17:34:32.379Z</time>
      </trkpt>
      <trkpt lat="38.23752" lon="-2.65848">
        <ele>1359.887866</ele>
        <time>2022-09-01T17:34:50.922Z</time>
      </trkpt>
      <trkpt lat="38.23773" lon="-2.65843">
        <ele>1360.338144</ele>
        <time>2022-09-01T17:34:58.882Z</time>
      </trkpt>
      <trkpt lat="38.23788" lon="-2.65858">
        <ele>1360.737723</ele>
        <time>2022-09-01T17:35:04.843Z</time>
      </trkpt>
      <trkpt lat="38.23798" lon="-2.6588">
        <ele>1361.15847</ele>
        <time>2022-09-01T17:35:11.519Z</time>
      </trkpt>
      <trkpt lat="38.2386" lon="-2.65922">
        <ele>1362.666913</ele>
        <time>2022-09-01T17:35:32.200Z</time>
      </trkpt>
      <trkpt lat="38.23889" lon="-2.65949">
        <ele>1363.687911</ele>
        <time>2022-09-01T17:35:41.458Z</time>
      </trkpt>
      <trkpt lat="38.2391" lon="-2.65939">
        <ele>1364.330233</ele>
        <time>2022-09-01T17:35:47.501Z</time>
      </trkpt>
      <trkpt lat="38.23913" lon="-2.65907">
        <ele>1365.076963</ele>
        <time>2022-09-01T17:35:55.769Z</time>
      </trkpt>
      <trkpt lat="38.239" lon="-2.65899">
        <ele>1365.485542</ele>
        <time>2022-09-01T17:36:00.558Z</time>
      </trkpt>
      <trkpt lat="38.2385" lon="-2.65897">
        <ele>1366.936252</ele>
        <time>2022-09-01T17:36:19.836Z</time>
      </trkpt>
      <trkpt lat="38.23822" lon="-2.6588">
        <ele>1367.983831</ele>
        <time>2022-09-01T17:36:34.453Z</time>
      </trkpt>
      <trkpt lat="38.23801" lon="-2.65805">
        <ele>1372.997712</ele>
        <time>2022-09-01T17:37:11.381Z</time>
      </trkpt>
      <trkpt lat="38.23788" lon="-2.65783">
        <ele>1374.688306</ele>
        <time>2022-09-01T17:37:24.805Z</time>
      </trkpt>
      <trkpt lat="38.23764" lon="-2.65781">
        <ele>1376.58955</ele>
        <time>2022-09-01T17:37:41.009Z</time>
      </trkpt>
      <trkpt lat="38.23711" lon="-2.65805">
        <ele>1381.102913</ele>
        <time>2022-09-01T17:38:21.517Z</time>
      </trkpt>
      <trkpt lat="38.23576" lon="-2.65807">
        <ele>1392.107685</ele>
        <time>2022-09-01T17:39:48.132Z</time>
      </trkpt>
      <trkpt lat="38.23558" lon="-2.65786">
        <ele>1394.116453</ele>
        <time>2022-09-01T17:40:02.550Z</time>
      </trkpt>
      <trkpt lat="38.23547" lon="-2.65707">
        <ele>1398.713309</ele>
        <time>2022-09-01T17:40:40.581Z</time>
      </trkpt>
      <trkpt lat="38.23531" lon="-2.65699">
        <ele>1399.845803</ele>
        <time>2022-09-01T17:40:51.252Z</time>
      </trkpt>
      <trkpt lat="38.23441" lon="-2.65726">
        <ele>1405.834082</ele>
        <time>2022-09-01T17:41:36.687Z</time>
      </trkpt>
      <trkpt lat="38.23408" lon="-2.65709">
        <ele>1408.174872</ele>
        <time>2022-09-01T17:41:57.012Z</time>
      </trkpt>
      <trkpt lat="38.23388" lon="-2.65708">
        <ele>1409.35514</ele>
        <time>2022-09-01T17:42:08.889Z</time>
      </trkpt>
      <trkpt lat="38.23379" lon="-2.6569">
        <ele>1410.345552</ele>
        <time>2022-09-01T17:42:18.550Z</time>
      </trkpt>
      <trkpt lat="38.2339" lon="-2.65676">
        <ele>1411.266222</ele>
        <time>2022-09-01T17:42:27.502Z</time>
      </trkpt>
      <trkpt lat="38.23434" lon="-2.65693">
        <ele>1414.016135</ele>
        <time>2022-09-01T17:42:52.733Z</time>
      </trkpt>
      <trkpt lat="38.23537" lon="-2.6564">
        <ele>1420.040203</ele>
        <time>2022-09-01T17:43:46.359Z</time>
      </trkpt>
      <trkpt lat="38.23618" lon="-2.65613">
        <ele>1423.341252</ele>
        <time>2022-09-01T17:44:22.652Z</time>
      </trkpt>
      <trkpt lat="38.23634" lon="-2.65615">
        <ele>1423.954397</ele>
        <time>2022-09-01T17:44:30.381Z</time>
      </trkpt>
      <trkpt lat="38.23673" lon="-2.65653">
        <ele>1425.890446</ele>
        <time>2022-09-01T17:44:49.570Z</time>
      </trkpt>
      <trkpt lat="38.23734" lon="-2.65612">
        <ele>1426.125452</ele>
        <time>2022-09-01T17:45:09.642Z</time>
      </trkpt>
      <trkpt lat="38.23742" lon="-2.65596">
        <ele>1426.129003</ele>
        <time>2022-09-01T17:45:12.542Z</time>
      </trkpt>
      <trkpt lat="38.23743" lon="-2.65577">
        <ele>1426.132557</ele>
        <time>2022-09-01T17:45:16.438Z</time>
      </trkpt>
      <trkpt lat="38.23661" lon="-2.65515">
        <ele>1426.120489</ele>
        <time>2022-09-01T17:45:34.593Z</time>
      </trkpt>
      <trkpt lat="38.23613" lon="-2.65466">
        <ele>1425.881399</ele>
        <time>2022-09-01T17:45:46.481Z</time>
      </trkpt>
      <trkpt lat="38.23567" lon="-2.65434">
        <ele>1425.679152</ele>
        <time>2022-09-01T17:45:56.297Z</time>
      </trkpt>
      <trkpt lat="38.23499" lon="-2.65422">
        <ele>1425.974054</ele>
        <time>2022-09-01T17:46:14.463Z</time>
      </trkpt>
      <trkpt lat="38.23444" lon="-2.6543">
        <ele>1428.638516</ele>
        <time>2022-09-01T17:46:37.009Z</time>
      </trkpt>
      <trkpt lat="38.23346" lon="-2.65456">
        <ele>1433.463</ele>
        <time>2022-09-01T17:47:29.198Z</time>
      </trkpt>
      <trkpt lat="38.23217" lon="-2.65497">
        <ele>1441.899001</ele>
        <time>2022-09-01T17:48:45.246Z</time>
      </trkpt>
      <trkpt lat="38.2318" lon="-2.65498">
        <ele>1444.363282</ele>
        <time>2022-09-01T17:49:05.109Z</time>
      </trkpt>
      <trkpt lat="38.23162" lon="-2.65484">
        <ele>1445.697272</ele>
        <time>2022-09-01T17:49:15.914Z</time>
      </trkpt>
      <trkpt lat="38.23139" lon="-2.65424">
        <ele>1448.894688</ele>
        <time>2022-09-01T17:49:42.790Z</time>
      </trkpt>
      <trkpt lat="38.23123" lon="-2.65397">
        <ele>1450.497419</ele>
        <time>2022-09-01T17:49:56.851Z</time>
      </trkpt>
      <trkpt lat="38.23083" lon="-2.6537">
        <ele>1453.220626</ele>
        <time>2022-09-01T17:50:20.524Z</time>
      </trkpt>
      <trkpt lat="38.23055" lon="-2.65343">
        <ele>1455.3331</ele>
        <time>2022-09-01T17:50:38.609Z</time>
      </trkpt>
      <trkpt lat="38.23033" lon="-2.65308">
        <ele>1457.439772</ele>
        <time>2022-09-01T17:50:56.996Z</time>
      </trkpt>
      <trkpt lat="38.23021" lon="-2.65241">
        <ele>1460.785364</ele>
        <time>2022-09-01T17:51:27.127Z</time>
      </trkpt>
      <trkpt lat="38.22989" lon="-2.65194">
        <ele>1463.787232</ele>
        <time>2022-09-01T17:51:53.856Z</time>
      </trkpt>
      <trkpt lat="38.22831" lon="-2.65132">
        <ele>1473.170475</ele>
        <time>2022-09-01T17:53:17.805Z</time>
      </trkpt>
      <trkpt lat="38.22776" lon="-2.65124">
        <ele>1476.163809</ele>
        <time>2022-09-01T17:53:44.348Z</time>
      </trkpt>
      <trkpt lat="38.22714" lon="-2.65162">
        <ele>1479.278021</ele>
        <time>2022-09-01T17:54:16.113Z</time>
      </trkpt>
      <trkpt lat="38.22621" lon="-2.65218">
        <ele>1483.5089</ele>
        <time>2022-09-01T17:54:58.522Z</time>
      </trkpt>
      <trkpt lat="38.22581" lon="-2.65256">
        <ele>1485.6134</ele>
        <time>2022-09-01T17:55:19.200Z</time>
      </trkpt>
      <trkpt lat="38.2257" lon="-2.65261">
        <ele>1486.123859</ele>
        <time>2022-09-01T17:55:23.894Z</time>
      </trkpt>
      <trkpt lat="38.22545" lon="-2.65259">
        <ele>1487.229146</ele>
        <time>2022-09-01T17:55:34.440Z</time>
      </trkpt>
      <trkpt lat="38.22419" lon="-2.6521">
        <ele>1493.142686</ele>
        <time>2022-09-01T17:56:32.183Z</time>
      </trkpt>
      <trkpt lat="38.22356" lon="-2.65218">
        <ele>1497.052386</ele>
        <time>2022-09-01T17:57:06.461Z</time>
      </trkpt>
      <trkpt lat="38.22221" lon="-2.6525">
        <ele>1505.529198</ele>
        <time>2022-09-01T17:58:23.213Z</time>
      </trkpt>
      <trkpt lat="38.22174" lon="-2.65268">
        <ele>1508.361018</ele>
        <time>2022-09-01T17:58:50.086Z</time>
      </trkpt>
      <trkpt lat="38.22153" lon="-2.65268">
        <ele>1509.539248</ele>
        <time>2022-09-01T17:59:00.930Z</time>
      </trkpt>
      <trkpt lat="38.22118" lon="-2.65251">
        <ele>1511.734162</ele>
        <time>2022-09-01T17:59:19.928Z</time>
      </trkpt>
      <trkpt lat="38.22081" lon="-2.65264">
        <ele>1513.935328</ele>
        <time>2022-09-01T17:59:37.892Z</time>
      </trkpt>
      <trkpt lat="38.2202" lon="-2.65269">
        <ele>1515.8502</ele>
        <time>2022-09-01T18:00:03.670Z</time>
      </trkpt>
      <trkpt lat="38.21998" lon="-2.65265">
        <ele>1516.486167</ele>
        <time>2022-09-01T18:00:12.427Z</time>
      </trkpt>
      <trkpt lat="38.21967" lon="-2.65242">
        <ele>1517.490469</ele>
        <time>2022-09-01T18:00:25.690Z</time>
      </trkpt>
      <trkpt lat="38.21946" lon="-2.65237">
        <ele>1518.12352</ele>
        <time>2022-09-01T18:00:33.504Z</time>
      </trkpt>
      <trkpt lat="38.21922" lon="-2.65255">
        <ele>1518.910811</ele>
        <time>2022-09-01T18:00:41.879Z</time>
      </trkpt>
      <trkpt lat="38.21892" lon="-2.65304">
        <ele>1519.098328</ele>
        <time>2022-09-01T18:00:54.113Z</time>
      </trkpt>
      <trkpt lat="38.21869" lon="-2.6533">
        <ele>1518.806174</ele>
        <time>2022-09-01T18:01:01.078Z</time>
      </trkpt>
      <trkpt lat="38.21811" lon="-2.65374">
        <ele>1518.17398</ele>
        <time>2022-09-01T18:01:14.320Z</time>
      </trkpt>
      <trkpt lat="38.21799" lon="-2.65374">
        <ele>1518.060813</ele>
        <time>2022-09-01T18:01:16.440Z</time>
      </trkpt>
      <trkpt lat="38.21784" lon="-2.65366">
        <ele>1517.911826</ele>
        <time>2022-09-01T18:01:19.320Z</time>
      </trkpt>
      <trkpt lat="38.21775" lon="-2.65334">
        <ele>1517.546917</ele>
        <time>2022-09-01T18:01:24.050Z</time>
      </trkpt>
      <trkpt lat="38.21765" lon="-2.6532">
        <ele>1517.068945</ele>
        <time>2022-09-01T18:01:26.680Z</time>
      </trkpt>
      <trkpt lat="38.21754" lon="-2.65313">
        <ele>1516.663601</ele>
        <time>2022-09-01T18:01:28.836Z</time>
      </trkpt>
      <trkpt lat="38.21718" lon="-2.65303">
        <ele>1515.460194</ele>
        <time>2022-09-01T18:01:35.170Z</time>
      </trkpt>
      <trkpt lat="38.21688" lon="-2.6531">
        <ele>1514.481677</ele>
        <time>2022-09-01T18:01:40.310Z</time>
      </trkpt>
      <trkpt lat="38.2167" lon="-2.65328">
        <ele>1513.742166</ele>
        <time>2022-09-01T18:01:44.137Z</time>
      </trkpt>
      <trkpt lat="38.21658" lon="-2.65349">
        <ele>1513.097753</ele>
        <time>2022-09-01T18:01:47.496Z</time>
      </trkpt>
      <trkpt lat="38.21608" lon="-2.65518">
        <ele>1507.371341</ele>
        <time>2022-09-01T18:02:11.022Z</time>
      </trkpt>
      <trkpt lat="38.21585" lon="-2.6556">
        <ele>1505.65625</ele>
        <time>2022-09-01T18:02:17.428Z</time>
      </trkpt>
      <trkpt lat="38.21547" lon="-2.65611">
        <ele>1503.08649</ele>
        <time>2022-09-01T18:02:26.379Z</time>
      </trkpt>
      <trkpt lat="38.21397" lon="-2.65755">
        <ele>1493.756111</ele>
        <time>2022-09-01T18:02:55.902Z</time>
      </trkpt>
      <trkpt lat="38.21374" lon="-2.65771">
        <ele>1492.639867</ele>
        <time>2022-09-01T18:02:59.960Z</time>
      </trkpt>
      <trkpt lat="38.21308" lon="-2.65802">
        <ele>1489.611049</ele>
        <time>2022-09-01T18:03:11.371Z</time>
      </trkpt>
      <trkpt lat="38.2126" lon="-2.65839">
        <ele>1487.209742</ele>
        <time>2022-09-01T18:03:20.950Z</time>
      </trkpt>
      <trkpt lat="38.21253" lon="-2.65853">
        <ele>1486.822969</ele>
        <time>2022-09-01T18:03:23.193Z</time>
      </trkpt>
      <trkpt lat="38.21249" lon="-2.65874">
        <ele>1486.329512</ele>
        <time>2022-09-01T18:03:26.195Z</time>
      </trkpt>
      <trkpt lat="38.21263" lon="-2.65999">
        <ele>1483.411714</ele>
        <time>2022-09-01T18:03:43.585Z</time>
      </trkpt>
      <trkpt lat="38.2126" lon="-2.6602">
        <ele>1482.923457</ele>
        <time>2022-09-01T18:03:46.494Z</time>
      </trkpt>
      <trkpt lat="38.21251" lon="-2.66041">
        <ele>1482.367604</ele>
        <time>2022-09-01T18:03:49.746Z</time>
      </trkpt>
      <trkpt lat="38.21214" lon="-2.66071">
        <ele>1480.978888</ele>
        <time>2022-09-01T18:03:57.376Z</time>
      </trkpt>
      <trkpt lat="38.21138" lon="-2.66118">
        <ele>1478.251813</ele>
        <time>2022-09-01T18:04:11.614Z</time>
      </trkpt>
      <trkpt lat="38.21078" lon="-2.66166">
        <ele>1475.987675</ele>
        <time>2022-09-01T18:04:23.585Z</time>
      </trkpt>
      <trkpt lat="38.2106" lon="-2.66169">
        <ele>1475.555649</ele>
        <time>2022-09-01T18:04:26.654Z</time>
      </trkpt>
      <trkpt lat="38.20952" lon="-2.66154">
        <ele>1472.966328</ele>
        <time>2022-09-01T18:04:45.968Z</time>
      </trkpt>
      <trkpt lat="38.20918" lon="-2.66157">
        <ele>1472.144854</ele>
        <time>2022-09-01T18:04:52.494Z</time>
      </trkpt>
      <trkpt lat="38.20822" lon="-2.6618">
        <ele>1471.110452</ele>
        <time>2022-09-01T18:05:11.399Z</time>
      </trkpt>
      <trkpt lat="38.20779" lon="-2.66182">
        <ele>1470.746887</ele>
        <time>2022-09-01T18:05:20.075Z</time>
      </trkpt>
      <trkpt lat="38.20725" lon="-2.66207">
        <ele>1470.287011</ele>
        <time>2022-09-01T18:05:32.649Z</time>
      </trkpt>
      <trkpt lat="38.20563" lon="-2.66317">
        <ele>1469.807402</ele>
        <time>2022-09-01T18:06:13.966Z</time>
      </trkpt>
      <trkpt lat="38.20545" lon="-2.6632">
        <ele>1469.264768</ele>
        <time>2022-09-01T18:06:17.583Z</time>
      </trkpt>
      <trkpt lat="38.20532" lon="-2.66312">
        <ele>1468.849773</ele>
        <time>2022-09-01T18:06:20.348Z</time>
      </trkpt>
      <trkpt lat="38.20504" lon="-2.66281">
        <ele>1467.777405</ele>
        <time>2022-09-01T18:06:26.956Z</time>
      </trkpt>
      <trkpt lat="38.20417" lon="-2.66289">
        <ele>1465.222801</ele>
        <time>2022-09-01T18:06:41.570Z</time>
      </trkpt>
      <trkpt lat="38.20349" lon="-2.66328">
        <ele>1462.231711</ele>
        <time>2022-09-01T18:06:53.323Z</time>
      </trkpt>
      <trkpt lat="38.20333" lon="-2.66344">
        <ele>1461.355594</ele>
        <time>2022-09-01T18:06:56.535Z</time>
      </trkpt>
      <trkpt lat="38.20321" lon="-2.6637">
        <ele>1460.324143</ele>
        <time>2022-09-01T18:07:00.318Z</time>
      </trkpt>
      <trkpt lat="38.20282" lon="-2.66487">
        <ele>1456.829825</ele>
        <time>2022-09-01T18:07:16.877Z</time>
      </trkpt>
      <trkpt lat="38.20271" lon="-2.66502">
        <ele>1456.689474</ele>
        <time>2022-09-01T18:07:19.698Z</time>
      </trkpt>
      <trkpt lat="38.2026" lon="-2.6651">
        <ele>1456.571092</ele>
        <time>2022-09-01T18:07:22.126Z</time>
      </trkpt>
      <trkpt lat="38.20211" lon="-2.66526">
        <ele>1456.122034</ele>
        <time>2022-09-01T18:07:31.994Z</time>
      </trkpt>
      <trkpt lat="38.20164" lon="-2.66566">
        <ele>1455.605729</ele>
        <time>2022-09-01T18:07:45.491Z</time>
      </trkpt>
      <trkpt lat="38.2014" lon="-2.66571">
        <ele>1455.523391</ele>
        <time>2022-09-01T18:07:52.017Z</time>
      </trkpt>
      <trkpt lat="38.20072" lon="-2.66569">
        <ele>1457.185554</ele>
        <time>2022-09-01T18:08:14.374Z</time>
      </trkpt>
      <trkpt lat="38.20013" lon="-2.66593">
        <ele>1458.716914</ele>
        <time>2022-09-01T18:08:38.213Z</time>
      </trkpt>
      <trkpt lat="38.19987" lon="-2.66597">
        <ele>1459.354348</ele>
        <time>2022-09-01T18:08:48.404Z</time>
      </trkpt>
      <trkpt lat="38.19931" lon="-2.66572">
        <ele>1460.355681</ele>
        <time>2022-09-01T18:09:09.813Z</time>
      </trkpt>
      <trkpt lat="38.19913" lon="-2.66571">
        <ele>1460.596999</ele>
        <time>2022-09-01T18:09:15.504Z</time>
      </trkpt>
      <trkpt lat="38.19898" lon="-2.66559">
        <ele>1460.831754</ele>
        <time>2022-09-01T18:09:21.223Z</time>
      </trkpt>
      <trkpt lat="38.1988" lon="-2.66523">
        <ele>1461.283298</ele>
        <time>2022-09-01T18:09:30.892Z</time>
      </trkpt>
      <trkpt lat="38.1986" lon="-2.66508">
        <ele>1461.595266</ele>
        <time>2022-09-01T18:09:36.733Z</time>
      </trkpt>
      <trkpt lat="38.19732" lon="-2.66508">
        <ele>1462.327941</ele>
        <time>2022-09-01T18:10:04.734Z</time>
      </trkpt>
      <trkpt lat="38.19708" lon="-2.66526">
        <ele>1462.362853</ele>
        <time>2022-09-01T18:10:10.667Z</time>
      </trkpt>
      <trkpt lat="38.19654" lon="-2.66597">
        <ele>1462.514393</ele>
        <time>2022-09-01T18:10:28.963Z</time>
      </trkpt>
      <trkpt lat="38.19607" lon="-2.66634">
        <ele>1463.098126</ele>
        <time>2022-09-01T18:10:44.022Z</time>
      </trkpt>
      <trkpt lat="38.19581" lon="-2.6665">
        <ele>1463.406264</ele>
        <time>2022-09-01T18:10:52.236Z</time>
      </trkpt>
      <trkpt lat="38.19535" lon="-2.66663">
        <ele>1463.904898</ele>
        <time>2022-09-01T18:11:05.624Z</time>
      </trkpt>
      <trkpt lat="38.19465" lon="-2.66653">
        <ele>1464.690887</ele>
        <time>2022-09-01T18:11:25.654Z</time>
      </trkpt>
      <trkpt lat="38.19451" lon="-2.6666">
        <ele>1464.879964</ele>
        <time>2022-09-01T18:11:30.068Z</time>
      </trkpt>
      <trkpt lat="38.19418" lon="-2.66695">
        <ele>1465.411548</ele>
        <time>2022-09-01T18:11:42.486Z</time>
      </trkpt>
      <trkpt lat="38.19359" lon="-2.66776">
        <ele>1466.473685</ele>
        <time>2022-09-01T18:12:06.884Z</time>
      </trkpt>
      <trkpt lat="38.19333" lon="-2.66796">
        <ele>1466.817501</ele>
        <time>2022-09-01T18:12:15.165Z</time>
      </trkpt>
      <trkpt lat="38.19249" lon="-2.66818">
        <ele>1467.766743</ele>
        <time>2022-09-01T18:12:39.310Z</time>
      </trkpt>
      <trkpt lat="38.19225" lon="-2.66833">
        <ele>1468.064727</ele>
        <time>2022-09-01T18:12:46.703Z</time>
      </trkpt>
      <trkpt lat="38.19187" lon="-2.66868">
        <ele>1468.603883</ele>
        <time>2022-09-01T18:12:59.325Z</time>
      </trkpt>
      <trkpt lat="38.19155" lon="-2.66928">
        <ele>1469.660698</ele>
        <time>2022-09-01T18:13:15.563Z</time>
      </trkpt>
      <trkpt lat="38.191" lon="-2.66958">
        <ele>1470.756216</ele>
        <time>2022-09-01T18:13:33.917Z</time>
      </trkpt>
      <trkpt lat="38.19085" lon="-2.66972">
        <ele>1471.105987</ele>
        <time>2022-09-01T18:13:40.473Z</time>
      </trkpt>
      <trkpt lat="38.19" lon="-2.67083">
        <ele>1474.184188</ele>
        <time>2022-09-01T18:14:23.713Z</time>
      </trkpt>
      <trkpt lat="38.18984" lon="-2.67094">
        <ele>1474.717041</ele>
        <time>2022-09-01T18:14:31.101Z</time>
      </trkpt>
      <trkpt lat="38.18934" lon="-2.67099">
        <ele>1476.161057</ele>
        <time>2022-09-01T18:14:50.246Z</time>
      </trkpt>
      <trkpt lat="38.1879" lon="-2.67089">
        <ele>1480.871384</ele>
        <time>2022-09-01T18:15:42.726Z</time>
      </trkpt>
      <trkpt lat="38.18751" lon="-2.67079">
        <ele>1482.221927</ele>
        <time>2022-09-01T18:15:58.297Z</time>
      </trkpt>
      <trkpt lat="38.18464" lon="-2.6688">
        <ele>1496.982234</ele>
        <time>2022-09-01T18:18:29.093Z</time>
      </trkpt>
      <trkpt lat="38.18428" lon="-2.66877">
        <ele>1498.615125</ele>
        <time>2022-09-01T18:18:45.994Z</time>
      </trkpt>
      <trkpt lat="38.18294" lon="-2.66912">
        <ele>1503.147271</ele>
        <time>2022-09-01T18:19:40.402Z</time>
      </trkpt>
      <trkpt lat="38.18233" lon="-2.66934">
        <ele>1505.068436</ele>
        <time>2022-09-01T18:20:01.535Z</time>
      </trkpt>
      <trkpt lat="38.182" lon="-2.6693">
        <ele>1505.247935</ele>
        <time>2022-09-01T18:20:12.114Z</time>
      </trkpt>
      <trkpt lat="38.18184" lon="-2.66916">
        <ele>1505.292642</ele>
        <time>2022-09-01T18:20:18.308Z</time>
      </trkpt>
      <trkpt lat="38.18177" lon="-2.66893">
        <ele>1505.337551</ele>
        <time>2022-09-01T18:20:23.973Z</time>
      </trkpt>
      <trkpt lat="38.18174" lon="-2.66853">
        <ele>1505.410165</ele>
        <time>2022-09-01T18:20:32.198Z</time>
      </trkpt>
      <trkpt lat="38.18167" lon="-2.66841">
        <ele>1505.438019</ele>
        <time>2022-09-01T18:20:34.514Z</time>
      </trkpt>
      <trkpt lat="38.18122" lon="-2.66818">
        <ele>1505.548514</ele>
        <time>2022-09-01T18:20:44.575Z</time>
      </trkpt>
      <trkpt lat="38.18085" lon="-2.66784">
        <ele>1504.505244</ele>
        <time>2022-09-01T18:20:53.109Z</time>
      </trkpt>
      <trkpt lat="38.18072" lon="-2.66776">
        <ele>1503.909005</ele>
        <time>2022-09-01T18:20:55.422Z</time>
      </trkpt>
      <trkpt lat="38.18057" lon="-2.66776">
        <ele>1503.268926</ele>
        <time>2022-09-01T18:20:58.106Z</time>
      </trkpt>
      <trkpt lat="38.18001" lon="-2.6679">
        <ele>1500.847183</ele>
        <time>2022-09-01T18:21:07.392Z</time>
      </trkpt>
      <trkpt lat="38.17889" lon="-2.66792">
        <ele>1495.669102</ele>
        <time>2022-09-01T18:21:24.680Z</time>
      </trkpt>
      <trkpt lat="38.17801" lon="-2.66835">
        <ele>1490.702176</ele>
        <time>2022-09-01T18:21:39.149Z</time>
      </trkpt>
      <trkpt lat="38.17561" lon="-2.67051">
        <ele>1479.882964</ele>
        <time>2022-09-01T18:22:28.249Z</time>
      </trkpt>
      <trkpt lat="38.17527" lon="-2.67063">
        <ele>1478.995627</ele>
        <time>2022-09-01T18:22:34.764Z</time>
      </trkpt>
      <trkpt lat="38.17508" lon="-2.67063">
        <ele>1478.525621</ele>
        <time>2022-09-01T18:22:38.343Z</time>
      </trkpt>
      <trkpt lat="38.17495" lon="-2.67058">
        <ele>1478.170533</ele>
        <time>2022-09-01T18:22:41.006Z</time>
      </trkpt>
      <trkpt lat="38.17462" lon="-2.67025">
        <ele>1477.123015</ele>
        <time>2022-09-01T18:22:48.950Z</time>
      </trkpt>
      <trkpt lat="38.17448" lon="-2.67021">
        <ele>1476.77243</ele>
        <time>2022-09-01T18:22:51.838Z</time>
      </trkpt>
      <trkpt lat="38.17364" lon="-2.67045">
        <ele>1474.748705</ele>
        <time>2022-09-01T18:23:07.652Z</time>
      </trkpt>
      <trkpt lat="38.17347" lon="-2.67056">
        <ele>1474.293138</ele>
        <time>2022-09-01T18:23:10.843Z</time>
      </trkpt>
      <trkpt lat="38.17278" lon="-2.67128">
        <ele>1472.33272</ele>
        <time>2022-09-01T18:23:26.203Z</time>
      </trkpt>
      <trkpt lat="38.17253" lon="-2.67145">
        <ele>1471.7767</ele>
        <time>2022-09-01T18:23:31.137Z</time>
      </trkpt>
      <trkpt lat="38.1716" lon="-2.67176">
        <ele>1469.945325</ele>
        <time>2022-09-01T18:23:48.853Z</time>
      </trkpt>
      <trkpt lat="38.17105" lon="-2.67142">
        <ele>1469.921919</ele>
        <time>2022-09-01T18:24:01.889Z</time>
      </trkpt>
      <trkpt lat="38.1709" lon="-2.67138">
        <ele>1470.104959</ele>
        <time>2022-09-01T18:24:06.586Z</time>
      </trkpt>
      <trkpt lat="38.17039" lon="-2.67144">
        <ele>1470.692507</ele>
        <time>2022-09-01T18:24:21.933Z</time>
      </trkpt>
      <trkpt lat="38.17028" lon="-2.6714">
        <ele>1470.826687</ele>
        <time>2022-09-01T18:24:25.593Z</time>
      </trkpt>
      <trkpt lat="38.17005" lon="-2.67101">
        <ele>1471.27511</ele>
        <time>2022-09-01T18:24:37.137Z</time>
      </trkpt>
      <trkpt lat="38.16943" lon="-2.6707">
        <ele>1472.861859</ele>
        <time>2022-09-01T18:24:59.098Z</time>
      </trkpt>
      <trkpt lat="38.16905" lon="-2.67074">
        <ele>1474.083435</ele>
        <time>2022-09-01T18:25:13.764Z</time>
      </trkpt>
      <trkpt lat="38.16852" lon="-2.67065">
        <ele>1475.772941</ele>
        <time>2022-09-01T18:25:34.139Z</time>
      </trkpt>
      <trkpt lat="38.16747" lon="-2.67084">
        <ele>1479.727059</ele>
        <time>2022-09-01T18:26:19.619Z</time>
      </trkpt>
      <trkpt lat="38.16607" lon="-2.67077">
        <ele>1485.3208</ele>
        <time>2022-09-01T18:27:22.568Z</time>
      </trkpt>
      <trkpt lat="38.16595" lon="-2.67085">
        <ele>1485.662615</ele>
        <time>2022-09-01T18:27:27.407Z</time>
      </trkpt>
      <trkpt lat="38.16563" lon="-2.67156">
        <ele>1487.263611</ele>
        <time>2022-09-01T18:27:49.854Z</time>
      </trkpt>
      <trkpt lat="38.16552" lon="-2.67165">
        <ele>1487.583549</ele>
        <time>2022-09-01T18:27:53.838Z</time>
      </trkpt>
      <trkpt lat="38.16509" lon="-2.67165">
        <ele>1488.675072</ele>
        <time>2022-09-01T18:28:07.264Z</time>
      </trkpt>
      <trkpt lat="38.16495" lon="-2.67175">
        <ele>1489.073606</ele>
        <time>2022-09-01T18:28:12.195Z</time>
      </trkpt>
      <trkpt lat="38.1648" lon="-2.67226">
        <ele>1489.403551</ele>
        <time>2022-09-01T18:28:25.297Z</time>
      </trkpt>
      <trkpt lat="38.16479" lon="-2.67245">
        <ele>1489.43243</ele>
        <time>2022-09-01T18:28:29.621Z</time>
      </trkpt>
      <trkpt lat="38.16486" lon="-2.67264">
        <ele>1489.464045</ele>
        <time>2022-09-01T18:28:34.333Z</time>
      </trkpt>
      <trkpt lat="38.16495" lon="-2.67273">
        <ele>1489.486975</ele>
        <time>2022-09-01T18:28:37.392Z</time>
      </trkpt>
      <trkpt lat="38.16542" lon="-2.67292">
        <ele>1489.581415</ele>
        <time>2022-09-01T18:28:49.805Z</time>
      </trkpt>
      <trkpt lat="38.16552" lon="-2.67309">
        <ele>1489.613369</ele>
        <time>2022-09-01T18:28:53.236Z</time>
      </trkpt>
      <trkpt lat="38.16551" lon="-2.67339">
        <ele>1489.658997</ele>
        <time>2022-09-01T18:28:58.126Z</time>
      </trkpt>
      <trkpt lat="38.16523" lon="-2.67356">
        <ele>1489.10514</ele>
        <time>2022-09-01T18:29:03.772Z</time>
      </trkpt>
      <trkpt lat="38.16479" lon="-2.67395">
        <ele>1487.169444</ele>
        <time>2022-09-01T18:29:12.871Z</time>
      </trkpt>
      <trkpt lat="38.16467" lon="-2.67411">
        <ele>1486.547726</ele>
        <time>2022-09-01T18:29:15.815Z</time>
      </trkpt>
      <trkpt lat="38.16463" lon="-2.67464">
        <ele>1485.040308</ele>
        <time>2022-09-01T18:29:22.627Z</time>
      </trkpt>
      <trkpt lat="38.16447" lon="-2.67482">
        <ele>1484.276317</ele>
        <time>2022-09-01T18:29:25.933Z</time>
      </trkpt>
      <trkpt lat="38.16392" lon="-2.67515">
        <ele>1482.338214</ele>
        <time>2022-09-01T18:29:35.675Z</time>
      </trkpt>
      <trkpt lat="38.16343" lon="-2.67568">
        <ele>1480.556834</ele>
        <time>2022-09-01T18:29:46.389Z</time>
      </trkpt>
      <trkpt lat="38.16327" lon="-2.6758">
        <ele>1480.035011</ele>
        <time>2022-09-01T18:29:49.672Z</time>
      </trkpt>
      <trkpt lat="38.1627" lon="-2.67578">
        <ele>1478.477777</ele>
        <time>2022-09-01T18:30:00.685Z</time>
      </trkpt>
      <trkpt lat="38.16238" lon="-2.67605">
        <ele>1478.599078</ele>
        <time>2022-09-01T18:30:09.239Z</time>
      </trkpt>
      <trkpt lat="38.16166" lon="-2.67645">
        <ele>1479.578497</ele>
        <time>2022-09-01T18:30:29.609Z</time>
      </trkpt>
      <trkpt lat="38.1606" lon="-2.67641">
        <ele>1482.142396</ele>
        <time>2022-09-01T18:31:07.004Z</time>
      </trkpt>
      <trkpt lat="38.16041" lon="-2.6765">
        <ele>1483.084874</ele>
        <time>2022-09-01T18:31:14.905Z</time>
      </trkpt>
      <trkpt lat="38.15981" lon="-2.67708">
        <ele>1486.681303</ele>
        <time>2022-09-01T18:31:50.897Z</time>
      </trkpt>
      <trkpt lat="38.15882" lon="-2.67753">
        <ele>1491.891857</ele>
        <time>2022-09-01T18:32:48.463Z</time>
      </trkpt>
      <trkpt lat="38.15856" lon="-2.67759">
        <ele>1493.204176</ele>
        <time>2022-09-01T18:33:03.132Z</time>
      </trkpt>
      <trkpt lat="38.15808" lon="-2.67755">
        <ele>1495.637079</ele>
        <time>2022-09-01T18:33:27.435Z</time>
      </trkpt>
      <trkpt lat="38.15769" lon="-2.67773">
        <ele>1497.769961</ele>
        <time>2022-09-01T18:33:44.619Z</time>
      </trkpt>
      <trkpt lat="38.15725" lon="-2.67773">
        <ele>1497.807739</ele>
        <time>2022-09-01T18:33:58.379Z</time>
      </trkpt>
      <trkpt lat="38.15706" lon="-2.67783">
        <ele>1497.60056</ele>
        <time>2022-09-01T18:34:04.175Z</time>
      </trkpt>
      <trkpt lat="38.15459" lon="-2.68071">
        <ele>1491.114206</ele>
        <time>2022-09-01T18:35:02.996Z</time>
      </trkpt>
      <trkpt lat="38.15429" lon="-2.68103">
        <ele>1490.514615</ele>
        <time>2022-09-01T18:35:10.178Z</time>
      </trkpt>
      <trkpt lat="38.15405" lon="-2.68121">
        <ele>1490.095975</ele>
        <time>2022-09-01T18:35:15.307Z</time>
      </trkpt>
      <trkpt lat="38.15272" lon="-2.68169">
        <ele>1489.044813</ele>
        <time>2022-09-01T18:35:43.935Z</time>
      </trkpt>
      <trkpt lat="38.15199" lon="-2.68183">
        <ele>1489.276688</ele>
        <time>2022-09-01T18:36:02.203Z</time>
      </trkpt>
      <trkpt lat="38.15064" lon="-2.68179">
        <ele>1489.365936</ele>
        <time>2022-09-01T18:36:39.157Z</time>
      </trkpt>
      <trkpt lat="38.14996" lon="-2.68159">
        <ele>1489.313481</ele>
        <time>2022-09-01T18:36:54.443Z</time>
      </trkpt>
      <trkpt lat="38.14942" lon="-2.68155">
        <ele>1488.001288</ele>
        <time>2022-09-01T18:37:04.200Z</time>
      </trkpt>
      <trkpt lat="38.14894" lon="-2.68173">
        <ele>1485.797843</ele>
        <time>2022-09-01T18:37:12.586Z</time>
      </trkpt>
      <trkpt lat="38.14795" lon="-2.68231">
        <ele>1480.825284</ele>
        <time>2022-09-01T18:37:29.660Z</time>
      </trkpt>
      <trkpt lat="38.14747" lon="-2.6825">
        <ele>1477.718229</ele>
        <time>2022-09-01T18:37:37.175Z</time>
      </trkpt>
      <trkpt lat="38.14634" lon="-2.68268">
        <ele>1470.628637</ele>
        <time>2022-09-01T18:37:54.478Z</time>
      </trkpt>
      <trkpt lat="38.14568" lon="-2.68301">
        <ele>1467.377618</ele>
        <time>2022-09-01T18:38:05.703Z</time>
      </trkpt>
      <trkpt lat="38.1455" lon="-2.68302">
        <ele>1466.587032</ele>
        <time>2022-09-01T18:38:08.604Z</time>
      </trkpt>
      <trkpt lat="38.14447" lon="-2.68281">
        <ele>1462.09599</ele>
        <time>2022-09-01T18:38:25.866Z</time>
      </trkpt>
      <trkpt lat="38.14416" lon="-2.6828">
        <ele>1461.139218</ele>
        <time>2022-09-01T18:38:31.188Z</time>
      </trkpt>
      <trkpt lat="38.14378" lon="-2.68291">
        <ele>1459.934757</ele>
        <time>2022-09-01T18:38:38.024Z</time>
      </trkpt>
      <trkpt lat="38.14331" lon="-2.68328">
        <ele>1458.212557</ele>
        <time>2022-09-01T18:38:47.759Z</time>
      </trkpt>
      <trkpt lat="38.14289" lon="-2.68346">
        <ele>1456.866015</ele>
        <time>2022-09-01T18:38:55.292Z</time>
      </trkpt>
      <trkpt lat="38.14271" lon="-2.68349">
        <ele>1456.280102</ele>
        <time>2022-09-01T18:38:58.453Z</time>
      </trkpt>
      <trkpt lat="38.14196" lon="-2.68334">
        <ele>1453.837377</ele>
        <time>2022-09-01T18:39:11.234Z</time>
      </trkpt>
      <trkpt lat="38.14176" lon="-2.68337">
        <ele>1453.200936</ele>
        <time>2022-09-01T18:39:14.604Z</time>
      </trkpt>
      <trkpt lat="38.14163" lon="-2.68345">
        <ele>1452.753315</ele>
        <time>2022-09-01T18:39:16.907Z</time>
      </trkpt>
      <trkpt lat="38.14015" lon="-2.68554">
        <ele>1446.709173</ele>
        <time>2022-09-01T18:39:56.111Z</time>
      </trkpt>
      <trkpt lat="38.14011" lon="-2.68583">
        <ele>1446.118478</ele>
        <time>2022-09-01T18:40:00.292Z</time>
      </trkpt>
      <trkpt lat="38.14018" lon="-2.68666">
        <ele>1444.441518</ele>
        <time>2022-09-01T18:40:12.106Z</time>
      </trkpt>
      <trkpt lat="38.13993" lon="-2.68671">
        <ele>1443.80205</ele>
        <time>2022-09-01T18:40:16.762Z</time>
      </trkpt>
      <trkpt lat="38.13969" lon="-2.68664">
        <ele>1443.168479</ele>
        <time>2022-09-01T18:40:20.922Z</time>
      </trkpt>
      <trkpt lat="38.13958" lon="-2.68646">
        <ele>1442.708667</ele>
        <time>2022-09-01T18:40:24.223Z</time>
      </trkpt>
      <trkpt lat="38.13946" lon="-2.68583">
        <ele>1441.079274</ele>
        <time>2022-09-01T18:40:33.289Z</time>
      </trkpt>
      <trkpt lat="38.13902" lon="-2.68547">
        <ele>1438.524805</ele>
        <time>2022-09-01T18:40:41.940Z</time>
      </trkpt>
      <trkpt lat="38.13861" lon="-2.68522">
        <ele>1436.343338</ele>
        <time>2022-09-01T18:40:48.797Z</time>
      </trkpt>
      <trkpt lat="38.13823" lon="-2.68516">
        <ele>1434.467565</ele>
        <time>2022-09-01T18:40:54.741Z</time>
      </trkpt>
      <trkpt lat="38.1359" lon="-2.68572">
        <ele>1423.516717</ele>
        <time>2022-09-01T18:41:31.700Z</time>
      </trkpt>
      <trkpt lat="38.13381" lon="-2.68651">
        <ele>1425.610137</ele>
        <time>2022-09-01T18:42:35.629Z</time>
      </trkpt>
      <trkpt lat="38.133" lon="-2.68689">
        <ele>1428.457787</ele>
        <time>2022-09-01T18:43:15.945Z</time>
      </trkpt>
      <trkpt lat="38.13215" lon="-2.68737">
        <ele>1429.724763</ele>
        <time>2022-09-01T18:43:53.828Z</time>
      </trkpt>
      <trkpt lat="38.12964" lon="-2.68868">
        <ele>1426.860685</ele>
        <time>2022-09-01T18:44:45.565Z</time>
      </trkpt>
      <trkpt lat="38.12782" lon="-2.69001">
        <ele>1417.333706</ele>
        <time>2022-09-01T18:45:18.787Z</time>
      </trkpt>
      <trkpt lat="38.1273" lon="-2.69029">
        <ele>1414.992065</ele>
        <time>2022-09-01T18:45:27.716Z</time>
      </trkpt>
      <trkpt lat="38.12675" lon="-2.69042">
        <ele>1412.63108</ele>
        <time>2022-09-01T18:45:36.877Z</time>
      </trkpt>
      <trkpt lat="38.12614" lon="-2.69036">
        <ele>1410.09117</ele>
        <time>2022-09-01T18:45:47.221Z</time>
      </trkpt>
      <trkpt lat="38.12551" lon="-2.69006">
        <ele>1408.965146</ele>
        <time>2022-09-01T18:45:58.907Z</time>
      </trkpt>
      <trkpt lat="38.12497" lon="-2.68953">
        <ele>1407.81635</ele>
        <time>2022-09-01T18:46:12.221Z</time>
      </trkpt>
      <trkpt lat="38.12271" lon="-2.68617">
        <ele>1405.332306</ele>
        <time>2022-09-01T18:47:26.149Z</time>
      </trkpt>
      <trkpt lat="38.12238" lon="-2.68553">
        <ele>1404.730849</ele>
        <time>2022-09-01T18:47:37.580Z</time>
      </trkpt>
      <trkpt lat="38.12234" lon="-2.68541">
        <ele>1404.434006</ele>
        <time>2022-09-01T18:47:39.460Z</time>
      </trkpt>
      <trkpt lat="38.12204" lon="-2.68419">
        <ele>1401.462367</ele>
        <time>2022-09-01T18:47:57.379Z</time>
      </trkpt>
      <trkpt lat="38.12182" lon="-2.68368">
        <ele>1400.101205</ele>
        <time>2022-09-01T18:48:05.030Z</time>
      </trkpt>
      <trkpt lat="38.12154" lon="-2.68334">
        <ele>1398.407829</ele>
        <time>2022-09-01T18:48:11.287Z</time>
      </trkpt>
      <trkpt lat="38.12108" lon="-2.68302">
        <ele>1395.473427</ele>
        <time>2022-09-01T18:48:19.507Z</time>
      </trkpt>
      <trkpt lat="38.12011" lon="-2.68246">
        <ele>1389.452633</ele>
        <time>2022-09-01T18:48:36.007Z</time>
      </trkpt>
      <trkpt lat="38.11963" lon="-2.68233">
        <ele>1385.658569</ele>
        <time>2022-09-01T18:48:43.236Z</time>
      </trkpt>
      <trkpt lat="38.11902" lon="-2.68232">
        <ele>1380.954189</ele>
        <time>2022-09-01T18:48:52.070Z</time>
      </trkpt>
      <trkpt lat="38.1181" lon="-2.68272">
        <ele>1374.235411</ele>
        <time>2022-09-01T18:49:06.468Z</time>
      </trkpt>
      <trkpt lat="38.11816" lon="-2.68293">
        <ele>1373.378021</ele>
        <time>2022-09-01T18:49:09.336Z</time>
      </trkpt>
      <trkpt lat="38.11801" lon="-2.68316">
        <ele>1372.260129</ele>
        <time>2022-09-01T18:49:13.136Z</time>
      </trkpt>
      <trkpt lat="38.11745" lon="-2.68354">
        <ele>1369.182388</ele>
        <time>2022-09-01T18:49:23.733Z</time>
      </trkpt>
      <trkpt lat="38.11731" lon="-2.68358">
        <ele>1368.500579</ele>
        <time>2022-09-01T18:49:26.359Z</time>
      </trkpt>
      <trkpt lat="38.11712" lon="-2.68354">
        <ele>1367.577006</ele>
        <time>2022-09-01T18:49:29.728Z</time>
      </trkpt>
      <trkpt lat="38.11682" lon="-2.68378">
        <ele>1366.937953</ele>
        <time>2022-09-01T18:49:36.440Z</time>
      </trkpt>
      <trkpt lat="38.11661" lon="-2.68442">
        <ele>1367.199263</ele>
        <time>2022-09-01T18:49:49.933Z</time>
      </trkpt>
      <trkpt lat="38.11656" lon="-2.68472">
        <ele>1367.311971</ele>
        <time>2022-09-01T18:49:55.318Z</time>
      </trkpt>
      <trkpt lat="38.11641" lon="-2.68497">
        <ele>1367.428814</ele>
        <time>2022-09-01T18:50:01.440Z</time>
      </trkpt>
      <trkpt lat="38.11633" lon="-2.68545">
        <ele>1367.615143</ele>
        <time>2022-09-01T18:50:15.104Z</time>
      </trkpt>
      <trkpt lat="38.11614" lon="-2.68553">
        <ele>1367.839401</ele>
        <time>2022-09-01T18:50:23.218Z</time>
      </trkpt>
      <trkpt lat="38.11604" lon="-2.68559">
        <ele>1368.349253</ele>
        <time>2022-09-01T18:50:26.637Z</time>
      </trkpt>
      <trkpt lat="38.11593" lon="-2.68562">
        <ele>1368.863847</ele>
        <time>2022-09-01T18:50:31.144Z</time>
      </trkpt>
      <trkpt lat="38.11588" lon="-2.68555">
        <ele>1369.206395</ele>
        <time>2022-09-01T18:50:34.392Z</time>
      </trkpt>
      <trkpt lat="38.1158" lon="-2.68559">
        <ele>1369.581177</ele>
        <time>2022-09-01T18:50:38.070Z</time>
      </trkpt>
      <trkpt lat="38.11586" lon="-2.68582">
        <ele>1370.472153</ele>
        <time>2022-09-01T18:50:45.813Z</time>
      </trkpt>
      <trkpt lat="38.11581" lon="-2.68586">
        <ele>1370.7408</ele>
        <time>2022-09-01T18:50:48.672Z</time>
      </trkpt>
      <trkpt lat="38.11588" lon="-2.68605">
        <ele>1371.51144</ele>
        <time>2022-09-01T18:50:56.152Z</time>
      </trkpt>
      <trkpt lat="38.1159" lon="-2.68616">
        <ele>1371.916957</ele>
        <time>2022-09-01T18:50:59.070Z</time>
      </trkpt>
      <trkpt lat="38.1158" lon="-2.68624">
        <ele>1372.447699</ele>
        <time>2022-09-01T18:51:05.389Z</time>
      </trkpt>
      <trkpt lat="38.11568" lon="-2.6865">
        <ele>1373.539058</ele>
        <time>2022-09-01T18:51:16.075Z</time>
      </trkpt>
      <trkpt lat="38.1156" lon="-2.6865">
        <ele>1373.870644</ele>
        <time>2022-09-01T18:51:20.920Z</time>
      </trkpt>
      <trkpt lat="38.11527" lon="-2.68674">
        <ele>1375.625512</ele>
        <time>2022-09-01T18:51:42.473Z</time>
      </trkpt>
      <trkpt lat="38.11514" lon="-2.68689">
        <ele>1376.482031</ele>
        <time>2022-09-01T18:51:52.438Z</time>
      </trkpt>
      <trkpt lat="38.11499" lon="-2.68693">
        <ele>1377.268802</ele>
        <time>2022-09-01T18:52:00.124Z</time>
      </trkpt>
      <trkpt lat="38.11494" lon="-2.68698">
        <ele>1377.599616</ele>
        <time>2022-09-01T18:52:03.780Z</time>
      </trkpt>
      <trkpt lat="38.11469" lon="-2.68699">
        <ele>1378.825575</ele>
        <time>2022-09-01T18:52:15.854Z</time>
      </trkpt>
      <trkpt lat="38.11453" lon="-2.68715">
        <ele>1379.869559</ele>
        <time>2022-09-01T18:52:27.557Z</time>
      </trkpt>
      <trkpt lat="38.11442" lon="-2.68741">
        <ele>1381.048835</ele>
        <time>2022-09-01T18:52:39.269Z</time>
      </trkpt>
      <trkpt lat="38.11408" lon="-2.68798">
        <ele>1383.886317</ele>
        <time>2022-09-01T18:53:13.223Z</time>
      </trkpt>
      <trkpt lat="38.11365" lon="-2.68829">
        <ele>1385.484321</ele>
        <time>2022-09-01T18:53:39.198Z</time>
      </trkpt>
      <trkpt lat="38.11352" lon="-2.68829">
        <ele>1385.710402</ele>
        <time>2022-09-01T18:53:46.142Z</time>
      </trkpt>
      <trkpt lat="38.11325" lon="-2.68844">
        <ele>1386.186055</ele>
        <time>2022-09-01T18:54:00.381Z</time>
      </trkpt>
      <trkpt lat="38.11307" lon="-2.68859">
        <ele>1386.546462</ele>
        <time>2022-09-01T18:54:10.468Z</time>
      </trkpt>
      <trkpt lat="38.11292" lon="-2.68892">
        <ele>1387.039719</ele>
        <time>2022-09-01T18:54:23.463Z</time>
      </trkpt>
      <trkpt lat="38.11228" lon="-2.68977">
        <ele>1387.801754</ele>
        <time>2022-09-01T18:54:59.055Z</time>
      </trkpt>
      <trkpt lat="38.11205" lon="-2.69023">
        <ele>1387.497696</ele>
        <time>2022-09-01T18:55:14.198Z</time>
      </trkpt>
      <trkpt lat="38.11157" lon="-2.69078">
        <ele>1387.040567</ele>
        <time>2022-09-01T18:55:36.195Z</time>
      </trkpt>
      <trkpt lat="38.11128" lon="-2.69092">
        <ele>1386.818161</ele>
        <time>2022-09-01T18:55:46.795Z</time>
      </trkpt>
      <trkpt lat="38.11093" lon="-2.69136">
        <ele>1386.357518</ele>
        <time>2022-09-01T18:56:03.430Z</time>
      </trkpt>
      <trkpt lat="38.11065" lon="-2.69161">
        <ele>1386.015523</ele>
        <time>2022-09-01T18:56:15.210Z</time>
      </trkpt>
      <trkpt lat="38.11047" lon="-2.69193">
        <ele>1385.712866</ele>
        <time>2022-09-01T18:56:25.780Z</time>
      </trkpt>
      <trkpt lat="38.10989" lon="-2.6922">
        <ele>1385.104463</ele>
        <time>2022-09-01T18:56:47.402Z</time>
      </trkpt>
      <trkpt lat="38.10971" lon="-2.69244">
        <ele>1384.941386</ele>
        <time>2022-09-01T18:56:56.738Z</time>
      </trkpt>
      <trkpt lat="38.10901" lon="-2.69313">
        <ele>1384.674003</ele>
        <time>2022-09-01T18:57:28.629Z</time>
      </trkpt>
      <trkpt lat="38.1087" lon="-2.6935">
        <ele>1384.545331</ele>
        <time>2022-09-01T18:57:44.081Z</time>
      </trkpt>
      <trkpt lat="38.10842" lon="-2.69363">
        <ele>1384.453696</ele>
        <time>2022-09-01T18:57:55.149Z</time>
      </trkpt>
      <trkpt lat="38.10825" lon="-2.69434">
        <ele>1385.061975</ele>
        <time>2022-09-01T18:58:16.889Z</time>
      </trkpt>
      <trkpt lat="38.10813" lon="-2.69452">
        <ele>1385.275932</ele>
        <time>2022-09-01T18:58:24.280Z</time>
      </trkpt>
      <trkpt lat="38.10787" lon="-2.69474">
        <ele>1385.636501</ele>
        <time>2022-09-01T18:58:37.045Z</time>
      </trkpt>
      <trkpt lat="38.10745" lon="-2.69495">
        <ele>1386.156546</ele>
        <time>2022-09-01T18:58:56.769Z</time>
      </trkpt>
      <trkpt lat="38.10731" lon="-2.69497">
        <ele>1386.318523</ele>
        <time>2022-09-01T18:59:03.047Z</time>
      </trkpt>
      <trkpt lat="38.10709" lon="-2.69487">
        <ele>1386.74081</ele>
        <time>2022-09-01T18:59:14.859Z</time>
      </trkpt>
      <trkpt lat="38.10699" lon="-2.69499">
        <ele>1387.264877</ele>
        <time>2022-09-01T18:59:23.052Z</time>
      </trkpt>
      <trkpt lat="38.1062" lon="-2.69468">
        <ele>1390.315698</ele>
        <time>2022-09-01T19:00:12.014Z</time>
      </trkpt>
      <trkpt lat="38.10594" lon="-2.69477">
        <ele>1391.314841</ele>
        <time>2022-09-01T19:00:27.448Z</time>
      </trkpt>
      <trkpt lat="38.10568" lon="-2.6947">
        <ele>1392.307269</ele>
        <time>2022-09-01T19:00:41.994Z</time>
      </trkpt>
      <trkpt lat="38.10558" lon="-2.69472">
        <ele>1392.672535</ele>
        <time>2022-09-01T19:00:48.289Z</time>
      </trkpt>
      <trkpt lat="38.1054" lon="-2.69461">
        <ele>1393.235995</ele>
        <time>2022-09-01T19:00:58.412Z</time>
      </trkpt>
      <trkpt lat="38.10533" lon="-2.69431">
        <ele>1393.54491</ele>
        <time>2022-09-01T19:01:11.767Z</time>
      </trkpt>
      <trkpt lat="38.1054" lon="-2.69389">
        <ele>1393.983056</ele>
        <time>2022-09-01T19:01:28.983Z</time>
      </trkpt>
      <trkpt lat="38.10541" lon="-2.69304">
        <ele>1394.837572</ele>
        <time>2022-09-01T19:01:59.708Z</time>
      </trkpt>
      <trkpt lat="38.10518" lon="-2.69246">
        <ele>1395.378855</ele>
        <time>2022-09-01T19:02:16.902Z</time>
      </trkpt>
      <trkpt lat="38.10489" lon="-2.69201">
        <ele>1394.594916</ele>
        <time>2022-09-01T19:02:31.532Z</time>
      </trkpt>
      <trkpt lat="38.10485" lon="-2.69177">
        <ele>1394.262884</ele>
        <time>2022-09-01T19:02:37.940Z</time>
      </trkpt>
      <trkpt lat="38.10474" lon="-2.69172">
        <ele>1394.063874</ele>
        <time>2022-09-01T19:02:41.627Z</time>
      </trkpt>
      <trkpt lat="38.10449" lon="-2.69222">
        <ele>1393.270123</ele>
        <time>2022-09-01T19:02:50.195Z</time>
      </trkpt>
      <trkpt lat="38.10429" lon="-2.69247">
        <ele>1392.792129</ele>
        <time>2022-09-01T19:02:55.466Z</time>
      </trkpt>
      <trkpt lat="38.10423" lon="-2.69252">
        <ele>1392.660407</ele>
        <time>2022-09-01T19:02:56.879Z</time>
      </trkpt>
      <trkpt lat="38.10418" lon="-2.69249">
        <ele>1392.579312</ele>
        <time>2022-09-01T19:02:57.841Z</time>
      </trkpt>
      <trkpt lat="38.10395" lon="-2.69237">
        <ele>1392.297923</ele>
        <time>2022-09-01T19:03:06.236Z</time>
      </trkpt>
      <trkpt lat="38.1038" lon="-2.69238">
        <ele>1392.222139</ele>
        <time>2022-09-01T19:03:11.323Z</time>
      </trkpt>
      <trkpt lat="38.10328" lon="-2.69272">
        <ele>1391.928525</ele>
        <time>2022-09-01T19:03:30.915Z</time>
      </trkpt>
      <trkpt lat="38.10296" lon="-2.69305">
        <ele>1391.717707</ele>
        <time>2022-09-01T19:03:46.323Z</time>
      </trkpt>
      <trkpt lat="38.10273" lon="-2.69345">
        <ele>1391.52057</ele>
        <time>2022-09-01T19:04:01.382Z</time>
      </trkpt>
      <trkpt lat="38.10269" lon="-2.69362">
        <ele>1391.462731</ele>
        <time>2022-09-01T19:04:06.810Z</time>
      </trkpt>
      <trkpt lat="38.10217" lon="-2.69413">
        <ele>1392.612253</ele>
        <time>2022-09-01T19:04:34.476Z</time>
      </trkpt>
      <trkpt lat="38.10189" lon="-2.69466">
        <ele>1393.4874</ele>
        <time>2022-09-01T19:05:00.127Z</time>
      </trkpt>
      <trkpt lat="38.10178" lon="-2.69487">
        <ele>1393.82929</ele>
        <time>2022-09-01T19:05:08.519Z</time>
      </trkpt>
      <trkpt lat="38.1017" lon="-2.69535">
        <ele>1394.507966</ele>
        <time>2022-09-01T19:05:27.167Z</time>
      </trkpt>
      <trkpt lat="38.10161" lon="-2.6956">
        <ele>1394.811467</ele>
        <time>2022-09-01T19:05:38.522Z</time>
      </trkpt>
      <trkpt lat="38.10149" lon="-2.69568">
        <ele>1394.985922</ele>
        <time>2022-09-01T19:05:43.861Z</time>
      </trkpt>
      <trkpt lat="38.10131" lon="-2.6957">
        <ele>1395.2219</ele>
        <time>2022-09-01T19:05:53.815Z</time>
      </trkpt>
      <trkpt lat="38.10109" lon="-2.69547">
        <ele>1395.594465</ele>
        <time>2022-09-01T19:06:01.848Z</time>
      </trkpt>
      <trkpt lat="38.10065" lon="-2.69583">
        <ele>1396.285897</ele>
        <time>2022-09-01T19:06:17.037Z</time>
      </trkpt>
      <trkpt lat="38.10024" lon="-2.69587">
        <ele>1396.820978</ele>
        <time>2022-09-01T19:06:27.713Z</time>
      </trkpt>
      <trkpt lat="38.0992" lon="-2.69635">
        <ele>1397.195155</ele>
        <time>2022-09-01T19:06:51.677Z</time>
      </trkpt>
      <trkpt lat="38.09779" lon="-2.69772">
        <ele>1398.814971</ele>
        <time>2022-09-01T19:07:36.430Z</time>
      </trkpt>
      <trkpt lat="38.09768" lon="-2.69778">
        <ele>1398.987481</ele>
        <time>2022-09-01T19:07:40.277Z</time>
      </trkpt>
      <trkpt lat="38.09717" lon="-2.69809">
        <ele>1399.813657</ele>
        <time>2022-09-01T19:07:58.678Z</time>
      </trkpt>
      <trkpt lat="38.0965" lon="-2.69837">
        <ele>1402.667126</ele>
        <time>2022-09-01T19:08:24.866Z</time>
      </trkpt>
      <trkpt lat="38.0952" lon="-2.69868">
        <ele>1408.760542</ele>
        <time>2022-09-01T19:09:30.555Z</time>
      </trkpt>
      <trkpt lat="38.09487" lon="-2.69872">
        <ele>1410.464428</ele>
        <time>2022-09-01T19:09:47.991Z</time>
      </trkpt>
      <trkpt lat="38.09454" lon="-2.6988">
        <ele>1412.162917</ele>
        <time>2022-09-01T19:10:04.810Z</time>
      </trkpt>
      <trkpt lat="38.09358" lon="-2.69926">
        <ele>1417.28649</ele>
        <time>2022-09-01T19:10:51.364Z</time>
      </trkpt>
      <trkpt lat="38.09349" lon="-2.69938">
        <ele>1417.958972</ele>
        <time>2022-09-01T19:10:56.639Z</time>
      </trkpt>
      <trkpt lat="38.09285" lon="-2.70061">
        <ele>1423.928808</ele>
        <time>2022-09-01T19:11:48.218Z</time>
      </trkpt>
      <trkpt lat="38.09267" lon="-2.70058">
        <ele>1424.861396</ele>
        <time>2022-09-01T19:11:57.333Z</time>
      </trkpt>
      <trkpt lat="38.09223" lon="-2.70034">
        <ele>1427.513364</ele>
        <time>2022-09-01T19:12:25.790Z</time>
      </trkpt>
      <trkpt lat="38.09201" lon="-2.70016">
        <ele>1429.207397</ele>
        <time>2022-09-01T19:12:38.662Z</time>
      </trkpt>
      <trkpt lat="38.09178" lon="-2.70007">
        <ele>1430.830952</ele>
        <time>2022-09-01T19:12:54.876Z</time>
      </trkpt>
      <trkpt lat="38.09141" lon="-2.69999">
        <ele>1433.263938</ele>
        <time>2022-09-01T19:13:14.973Z</time>
      </trkpt>
      <trkpt lat="38.09139" lon="-2.70005">
        <ele>1433.616819</ele>
        <time>2022-09-01T19:13:16.739Z</time>
      </trkpt>
      <trkpt lat="38.09176" lon="-2.70022">
        <ele>1436.154989</ele>
        <time>2022-09-01T19:13:43.654Z</time>
      </trkpt>
      <trkpt lat="38.09198" lon="-2.70045">
        <ele>1437.999382</ele>
        <time>2022-09-01T19:14:06.430Z</time>
      </trkpt>
      <trkpt lat="38.09217" lon="-2.70089">
        <ele>1440.492017</ele>
        <time>2022-09-01T19:14:33.749Z</time>
      </trkpt>
      <trkpt lat="38.09215" lon="-2.70108">
        <ele>1441.426358</ele>
        <time>2022-09-01T19:14:43.547Z</time>
      </trkpt>
      <trkpt lat="38.09201" lon="-2.70114">
        <ele>1442.368718</ele>
        <time>2022-09-01T19:14:53.693Z</time>
      </trkpt>
      <trkpt lat="38.09196" lon="-2.70111">
        <ele>1442.718081</ele>
        <time>2022-09-01T19:14:55.624Z</time>
      </trkpt>
      <trkpt lat="38.09185" lon="-2.70081">
        <ele>1444.343783</ele>
        <time>2022-09-01T19:15:10.660Z</time>
      </trkpt>
      <trkpt lat="38.09175" lon="-2.7007">
        <ele>1445.13886</ele>
        <time>2022-09-01T19:15:17.790Z</time>
      </trkpt>
      <trkpt lat="38.0916" lon="-2.70063">
        <ele>1446.138802</ele>
        <time>2022-09-01T19:15:29.034Z</time>
      </trkpt>
      <trkpt lat="38.09107" lon="-2.70048">
        <ele>1449.578634</ele>
        <time>2022-09-01T19:16:08.529Z</time>
      </trkpt>
      <trkpt lat="38.09085" lon="-2.70051">
        <ele>1451.774148</ele>
        <time>2022-09-01T19:16:27.530Z</time>
      </trkpt>
      <trkpt lat="38.09062" lon="-2.70063">
        <ele>1454.200597</ele>
        <time>2022-09-01T19:16:46.917Z</time>
      </trkpt>
      <trkpt lat="38.09028" lon="-2.70113">
        <ele>1459.402599</ele>
        <time>2022-09-01T19:17:32.363Z</time>
      </trkpt>
      <trkpt lat="38.09014" lon="-2.70167">
        <ele>1463.850333</ele>
        <time>2022-09-01T19:18:12.586Z</time>
      </trkpt>
      <trkpt lat="38.08955" lon="-2.70234">
        <ele>1472.221678</ele>
        <time>2022-09-01T19:19:28.463Z</time>
      </trkpt>
      <trkpt lat="38.08911" lon="-2.70235">
        <ele>1477.114272</ele>
        <time>2022-09-01T19:20:08.950Z</time>
      </trkpt>
      <trkpt lat="38.08834" lon="-2.70201">
        <ele>1486.322164</ele>
        <time>2022-09-01T19:21:24.912Z</time>
      </trkpt>
      <trkpt lat="38.08762" lon="-2.70116">
        <ele>1496.381896</ele>
        <time>2022-09-01T19:22:55.354Z</time>
      </trkpt>
      <trkpt lat="38.0865" lon="-2.70136">
        <ele>1507.388038</ele>
        <time>2022-09-01T19:24:30.019Z</time>
      </trkpt>
      <trkpt lat="38.08631" lon="-2.70153">
        <ele>1509.294532</ele>
        <time>2022-09-01T19:24:49.897Z</time>
      </trkpt>
      <trkpt lat="38.08603" lon="-2.70143">
        <ele>1511.71034</ele>
        <time>2022-09-01T19:25:11.609Z</time>
      </trkpt>
      <trkpt lat="38.08568" lon="-2.70102">
        <ele>1515.654338</ele>
        <time>2022-09-01T19:25:48.149Z</time>
      </trkpt>
      <trkpt lat="38.08554" lon="-2.70054">
        <ele>1519.061219</ele>
        <time>2022-09-01T19:26:20.017Z</time>
      </trkpt>
      <trkpt lat="38.08534" lon="-2.70014">
        <ele>1521.846921</ele>
        <time>2022-09-01T19:26:50.244Z</time>
      </trkpt>
      <trkpt lat="38.08456" lon="-2.69949">
        <ele>1527.873433</ele>
        <time>2022-09-01T19:27:54.415Z</time>
      </trkpt>
      <trkpt lat="38.0839" lon="-2.69944">
        <ele>1532.195768</ele>
        <time>2022-09-01T19:28:39.246Z</time>
      </trkpt>
      <trkpt lat="38.0837" lon="-2.69935">
        <ele>1533.137783</ele>
        <time>2022-09-01T19:28:52.183Z</time>
      </trkpt>
      <trkpt lat="38.08332" lon="-2.6988">
        <ele>1535.554732</ele>
        <time>2022-09-01T19:29:27.287Z</time>
      </trkpt>
      <trkpt lat="38.0831" lon="-2.69859">
        <ele>1536.714853</ele>
        <time>2022-09-01T19:29:43.001Z</time>
      </trkpt>
      <trkpt lat="38.08202" lon="-2.69837">
        <ele>1541.377953</ele>
        <time>2022-09-01T19:30:40.994Z</time>
      </trkpt>
      <trkpt lat="38.08128" lon="-2.69793">
        <ele>1545.024842</ele>
        <time>2022-09-01T19:31:28.088Z</time>
      </trkpt>
      <trkpt lat="38.08077" lon="-2.69699">
        <ele>1549.448949</ele>
        <time>2022-09-01T19:32:26.502Z</time>
      </trkpt>
      <trkpt lat="38.08029" lon="-2.69643">
        <ele>1553.390369</ele>
        <time>2022-09-01T19:33:11.178Z</time>
      </trkpt>
      <trkpt lat="38.07938" lon="-2.69561">
        <ele>1560.10194</ele>
        <time>2022-09-01T19:34:27.943Z</time>
      </trkpt>
      <trkpt lat="38.07925" lon="-2.69541">
        <ele>1561.211097</ele>
        <time>2022-09-01T19:34:41.062Z</time>
      </trkpt>
      <trkpt lat="38.07909" lon="-2.69459">
        <ele>1564.981576</ele>
        <time>2022-09-01T19:35:23.920Z</time>
      </trkpt>
      <trkpt lat="38.07882" lon="-2.69403">
        <ele>1567.877476</ele>
        <time>2022-09-01T19:35:56.991Z</time>
      </trkpt>
      <trkpt lat="38.07844" lon="-2.69377">
        <ele>1570.296711</ele>
        <time>2022-09-01T19:36:24.348Z</time>
      </trkpt>
      <trkpt lat="38.07727" lon="-2.69354">
        <ele>1577.046074</ele>
        <time>2022-09-01T19:37:42.877Z</time>
      </trkpt>
      <trkpt lat="38.07674" lon="-2.69318">
        <ele>1580.313477</ele>
        <time>2022-09-01T19:38:22.320Z</time>
      </trkpt>
      <trkpt lat="38.07635" lon="-2.69274">
        <ele>1582.962934</ele>
        <time>2022-09-01T19:38:56.160Z</time>
      </trkpt>
      <trkpt lat="38.07616" lon="-2.69242">
        <ele>1584.590978</ele>
        <time>2022-09-01T19:39:16.313Z</time>
      </trkpt>
      <trkpt lat="38.07594" lon="-2.69183">
        <ele>1587.202448</ele>
        <time>2022-09-01T19:39:47.297Z</time>
      </trkpt>
      <trkpt lat="38.0758" lon="-2.69164">
        <ele>1588.255163</ele>
        <time>2022-09-01T19:39:59.377Z</time>
      </trkpt>
      <trkpt lat="38.07549" lon="-2.69128">
        <ele>1589.952804</ele>
        <time>2022-09-01T19:40:23.772Z</time>
      </trkpt>
      <trkpt lat="38.07468" lon="-2.6908">
        <ele>1593.501791</ele>
        <time>2022-09-01T19:41:14.185Z</time>
      </trkpt>
      <trkpt lat="38.07458" lon="-2.69057">
        <ele>1594.319315</ele>
        <time>2022-09-01T19:41:26.055Z</time>
      </trkpt>
      <trkpt lat="38.0743" lon="-2.69016">
        <ele>1595.903152</ele>
        <time>2022-09-01T19:41:50.300Z</time>
      </trkpt>
      <trkpt lat="38.07392" lon="-2.68971">
        <ele>1597.500709</ele>
        <time>2022-09-01T19:42:18.435Z</time>
      </trkpt>
      <trkpt lat="38.07349" lon="-2.68924">
        <ele>1599.250095</ele>
        <time>2022-09-01T19:42:49.085Z</time>
      </trkpt>
      <trkpt lat="38.07275" lon="-2.68859">
        <ele>1601.023511</ele>
        <time>2022-09-01T19:43:33.558Z</time>
      </trkpt>
      <trkpt lat="38.07216" lon="-2.68793">
        <ele>1600.977938</ele>
        <time>2022-09-01T19:44:03.754Z</time>
      </trkpt>
      <trkpt lat="38.07196" lon="-2.68778">
        <ele>1600.964844</ele>
        <time>2022-09-01T19:44:11.519Z</time>
      </trkpt>
      <trkpt lat="38.0714" lon="-2.68681">
        <ele>1600.448855</ele>
        <time>2022-09-01T19:44:42.308Z</time>
      </trkpt>
      <trkpt lat="38.07049" lon="-2.68671">
        <ele>1599.527611</ele>
        <time>2022-09-01T19:45:12.573Z</time>
      </trkpt>
      <trkpt lat="38.06929" lon="-2.68586">
        <ele>1600.892815</ele>
        <time>2022-09-01T19:46:09.884Z</time>
      </trkpt>
      <trkpt lat="38.06818" lon="-2.6853">
        <ele>1603.244801</ele>
        <time>2022-09-01T19:47:12.721Z</time>
      </trkpt>
      <trkpt lat="38.06805" lon="-2.68513">
        <ele>1603.661885</ele>
        <time>2022-09-01T19:47:23.193Z</time>
      </trkpt>
      <trkpt lat="38.06778" lon="-2.68498">
        <ele>1604.333177</ele>
        <time>2022-09-01T19:47:38.420Z</time>
      </trkpt>
      <trkpt lat="38.06727" lon="-2.68447">
        <ele>1605.805252</ele>
        <time>2022-09-01T19:48:08.810Z</time>
      </trkpt>
      <trkpt lat="38.067" lon="-2.68464">
        <ele>1606.488353</ele>
        <time>2022-09-01T19:48:21.417Z</time>
      </trkpt>
      <trkpt lat="38.06693" lon="-2.68473">
        <ele>1606.427951</ele>
        <time>2022-09-01T19:48:27.239Z</time>
      </trkpt>
      <trkpt lat="38.06695" lon="-2.6849">
        <ele>1606.326572</ele>
        <time>2022-09-01T19:48:32.114Z</time>
      </trkpt>
      <trkpt lat="38.06717" lon="-2.68537">
        <ele>1606.004997</ele>
        <time>2022-09-01T19:48:47.542Z</time>
      </trkpt>
      <trkpt lat="38.06727" lon="-2.68575">
        <ele>1605.772056</ele>
        <time>2022-09-01T19:48:58.234Z</time>
      </trkpt>
      <trkpt lat="38.06726" lon="-2.68605">
        <ele>1605.593999</ele>
        <time>2022-09-01T19:49:06.670Z</time>
      </trkpt>
      <trkpt lat="38.06718" lon="-2.68633">
        <ele>1605.416837</ele>
        <time>2022-09-01T19:49:14.315Z</time>
      </trkpt>
      <trkpt lat="38.06685" lon="-2.68692">
        <ele>1604.762663</ele>
        <time>2022-09-01T19:49:32.815Z</time>
      </trkpt>
      <trkpt lat="38.06667" lon="-2.68715">
        <ele>1604.287934</ele>
        <time>2022-09-01T19:49:41.246Z</time>
      </trkpt>
      <trkpt lat="38.06593" lon="-2.68779">
        <ele>1602.660058</ele>
        <time>2022-09-01T19:50:10.210Z</time>
      </trkpt>
      <trkpt lat="38.06571" lon="-2.68805">
        <ele>1602.123372</ele>
        <time>2022-09-01T19:50:19.976Z</time>
      </trkpt>
      <trkpt lat="38.06562" lon="-2.68819">
        <ele>1601.871808</ele>
        <time>2022-09-01T19:50:24.780Z</time>
      </trkpt>
      <trkpt lat="38.06545" lon="-2.68876">
        <ele>1601.662003</ele>
        <time>2022-09-01T19:50:41.244Z</time>
      </trkpt>
      <trkpt lat="38.06529" lon="-2.68906">
        <ele>1601.536211</ele>
        <time>2022-09-01T19:50:51.397Z</time>
      </trkpt>
      <trkpt lat="38.06482" lon="-2.68938">
        <ele>1601.302889</ele>
        <time>2022-09-01T19:51:10.820Z</time>
      </trkpt>
      <trkpt lat="38.06448" lon="-2.68953">
        <ele>1601.145701</ele>
        <time>2022-09-01T19:51:24.223Z</time>
      </trkpt>
      <trkpt lat="38.06433" lon="-2.68957">
        <ele>1601.102615</ele>
        <time>2022-09-01T19:51:30.055Z</time>
      </trkpt>
      <trkpt lat="38.0639" lon="-2.68951">
        <ele>1601.474467</ele>
        <time>2022-09-01T19:51:47.080Z</time>
      </trkpt>
      <trkpt lat="38.06388" lon="-2.68995">
        <ele>1601.770453</ele>
        <time>2022-09-01T19:52:01.303Z</time>
      </trkpt>
      <trkpt lat="38.06372" lon="-2.69046">
        <ele>1602.147348</ele>
        <time>2022-09-01T19:52:19.841Z</time>
      </trkpt>
      <trkpt lat="38.06331" lon="-2.69071">
        <ele>1602.538603</ele>
        <time>2022-09-01T19:52:39.165Z</time>
      </trkpt>
      <trkpt lat="38.06302" lon="-2.6914">
        <ele>1603.263385</ele>
        <time>2022-09-01T19:53:05.532Z</time>
      </trkpt>
      <trkpt lat="38.06274" lon="-2.69165">
        <ele>1603.695559</ele>
        <time>2022-09-01T19:53:20.466Z</time>
      </trkpt>
      <trkpt lat="38.06231" lon="-2.69216">
        <ele>1604.435189</ele>
        <time>2022-09-01T19:53:46.274Z</time>
      </trkpt>
      <trkpt lat="38.06184" lon="-2.69246">
        <ele>1605.056137</ele>
        <time>2022-09-01T19:54:09.114Z</time>
      </trkpt>
      <trkpt lat="38.06157" lon="-2.6928">
        <ele>1605.451426</ele>
        <time>2022-09-01T19:54:25.529Z</time>
      </trkpt>
      <trkpt lat="38.06093" lon="-2.69307">
        <ele>1606.143324</ele>
        <time>2022-09-01T19:54:53.417Z</time>
      </trkpt>
      <trkpt lat="38.06055" lon="-2.69335">
        <ele>1606.603533</ele>
        <time>2022-09-01T19:55:12.055Z</time>
      </trkpt>
      <trkpt lat="38.05992" lon="-2.69406">
        <ele>1607.677906</ele>
        <time>2022-09-01T19:55:47.190Z</time>
      </trkpt>
      <trkpt lat="38.05918" lon="-2.69441">
        <ele>1608.732294</ele>
        <time>2022-09-01T19:56:21.797Z</time>
      </trkpt>
      <trkpt lat="38.05862" lon="-2.69486">
        <ele>1609.906753</ele>
        <time>2022-09-01T19:56:52.611Z</time>
      </trkpt>
      <trkpt lat="38.05841" lon="-2.69511">
        <ele>1610.534839</ele>
        <time>2022-09-01T19:57:06.384Z</time>
      </trkpt>
      <trkpt lat="38.05814" lon="-2.69526">
        <ele>1611.172671</ele>
        <time>2022-09-01T19:57:20.547Z</time>
      </trkpt>
      <trkpt lat="38.05724" lon="-2.69599">
        <ele>1613.679518</ele>
        <time>2022-09-01T19:58:12.272Z</time>
      </trkpt>
      <trkpt lat="38.05672" lon="-2.69618">
        <ele>1615.401841</ele>
        <time>2022-09-01T19:58:39.914Z</time>
      </trkpt>
      <trkpt lat="38.05648" lon="-2.69641">
        <ele>1616.359005</ele>
        <time>2022-09-01T19:58:55.657Z</time>
      </trkpt>
      <trkpt lat="38.0561" lon="-2.69648">
        <ele>1617.587346</ele>
        <time>2022-09-01T19:59:16.517Z</time>
      </trkpt>
      <trkpt lat="38.05491" lon="-2.69708">
        <ele>1622.810924</ele>
        <time>2022-09-01T20:00:29.815Z</time>
      </trkpt>
      <trkpt lat="38.05448" lon="-2.6972">
        <ele>1624.766891</ele>
        <time>2022-09-01T20:00:56.193Z</time>
      </trkpt>
      <trkpt lat="38.05397" lon="-2.69774">
        <ele>1628.262985</ele>
        <time>2022-09-01T20:01:36.468Z</time>
      </trkpt>
      <trkpt lat="38.05369" lon="-2.6979">
        <ele>1630.458902</ele>
        <time>2022-09-01T20:01:57.624Z</time>
      </trkpt>
      <trkpt lat="38.05346" lon="-2.6979">
        <ele>1632.107171</ele>
        <time>2022-09-01T20:02:14.708Z</time>
      </trkpt>
      <trkpt lat="38.05295" lon="-2.69746">
        <ele>1636.4876</ele>
        <time>2022-09-01T20:02:59.979Z</time>
      </trkpt>
      <trkpt lat="38.0527" lon="-2.69737">
        <ele>1638.357948</ele>
        <time>2022-09-01T20:03:20.159Z</time>
      </trkpt>
      <trkpt lat="38.05253" lon="-2.6972">
        <ele>1640.030017</ele>
        <time>2022-09-01T20:03:37.723Z</time>
      </trkpt>
      <trkpt lat="38.05216" lon="-2.69698">
        <ele>1644.429763</ele>
        <time>2022-09-01T20:04:11.412Z</time>
      </trkpt>
      <trkpt lat="38.05153" lon="-2.69686">
        <ele>1651.4519</ele>
        <time>2022-09-01T20:05:09.675Z</time>
      </trkpt>
      <trkpt lat="38.05067" lon="-2.6965">
        <ele>1661.545552</ele>
        <time>2022-09-01T20:06:40.213Z</time>
      </trkpt>
      <trkpt lat="38.05035" lon="-2.69653">
        <ele>1665.609456</ele>
        <time>2022-09-01T20:07:12.752Z</time>
      </trkpt>
      <trkpt lat="38.0499" lon="-2.69666">
        <ele>1671.256474</ele>
        <time>2022-09-01T20:07:58.563Z</time>
      </trkpt>
      <trkpt lat="38.04937" lon="-2.69697">
        <ele>1678.556754</ele>
        <time>2022-09-01T20:08:57.749Z</time>
      </trkpt>
      <trkpt lat="38.04898" lon="-2.69736">
        <ele>1683.956899</ele>
        <time>2022-09-01T20:09:45.448Z</time>
      </trkpt>
      <trkpt lat="38.04854" lon="-2.69753">
        <ele>1688.372347</ele>
        <time>2022-09-01T20:10:28.422Z</time>
      </trkpt>
      <trkpt lat="38.04763" lon="-2.69871">
        <ele>1699.866229</ele>
        <time>2022-09-01T20:12:11.203Z</time>
      </trkpt>
      <trkpt lat="38.04725" lon="-2.69893">
        <ele>1702.015186</ele>
        <time>2022-09-01T20:12:40.083Z</time>
      </trkpt>
      <trkpt lat="38.04683" lon="-2.69942">
        <ele>1704.975812</ele>
        <time>2022-09-01T20:13:16.236Z</time>
      </trkpt>
      <trkpt lat="38.04648" lon="-2.69969">
        <ele>1707.070834</ele>
        <time>2022-09-01T20:13:39.002Z</time>
      </trkpt>
      <trkpt lat="38.04583" lon="-2.70042">
        <ele>1707.86409</ele>
        <time>2022-09-01T20:14:18.902Z</time>
      </trkpt>
      <trkpt lat="38.04523" lon="-2.7008">
        <ele>1707.71451</ele>
        <time>2022-09-01T20:14:43.570Z</time>
      </trkpt>
      <trkpt lat="38.04487" lon="-2.70113">
        <ele>1707.614833</ele>
        <time>2022-09-01T20:14:57.542Z</time>
      </trkpt>
      <trkpt lat="38.04468" lon="-2.70122">
        <ele>1706.144985</ele>
        <time>2022-09-01T20:15:03.494Z</time>
      </trkpt>
      <trkpt lat="38.04425" lon="-2.7016">
        <ele>1702.164195</ele>
        <time>2022-09-01T20:15:18.443Z</time>
      </trkpt>
      <trkpt lat="38.04419" lon="-2.70197">
        <ele>1699.91259</ele>
        <time>2022-09-01T20:15:26.315Z</time>
      </trkpt>
      <trkpt lat="38.04392" lon="-2.70229">
        <ele>1697.127961</ele>
        <time>2022-09-01T20:15:35.830Z</time>
      </trkpt>
      <trkpt lat="38.04361" lon="-2.70315">
        <ele>1690.941757</ele>
        <time>2022-09-01T20:15:54.910Z</time>
      </trkpt>
      <trkpt lat="38.04353" lon="-2.70374">
        <ele>1686.640194</ele>
        <time>2022-09-01T20:16:06.785Z</time>
      </trkpt>
      <trkpt lat="38.04352" lon="-2.70449">
        <ele>1681.185803</ele>
        <time>2022-09-01T20:16:22.251Z</time>
      </trkpt>
      <trkpt lat="38.04358" lon="-2.70495">
        <ele>1677.80504</ele>
        <time>2022-09-01T20:16:32.147Z</time>
      </trkpt>
      <trkpt lat="38.04371" lon="-2.70533">
        <ele>1676.976744</ele>
        <time>2022-09-01T20:16:41.177Z</time>
      </trkpt>
      <trkpt lat="38.04359" lon="-2.706">
        <ele>1675.95836</ele>
        <time>2022-09-01T20:16:57.935Z</time>
      </trkpt>
      <trkpt lat="38.04253" lon="-2.70701">
        <ele>1675.615979</ele>
        <time>2022-09-01T20:17:51.160Z</time>
      </trkpt>
      <trkpt lat="38.04226" lon="-2.70789">
        <ele>1678.6197</ele>
        <time>2022-09-01T20:18:33.274Z</time>
      </trkpt>
      <trkpt lat="38.04185" lon="-2.70842">
        <ele>1680.967291</ele>
        <time>2022-09-01T20:19:12.450Z</time>
      </trkpt>
      <trkpt lat="38.04175" lon="-2.70892">
        <ele>1683.241098</ele>
        <time>2022-09-01T20:19:41.810Z</time>
      </trkpt>
      <trkpt lat="38.04138" lon="-2.70975">
        <ele>1687.828089</ele>
        <time>2022-09-01T20:20:35.032Z</time>
      </trkpt>
      <trkpt lat="38.04082" lon="-2.71026">
        <ele>1692.011591</ele>
        <time>2022-09-01T20:21:20.313Z</time>
      </trkpt>
      <trkpt lat="38.04036" lon="-2.71055">
        <ele>1693.730397</ele>
        <time>2022-09-01T20:21:51.218Z</time>
      </trkpt>
      <trkpt lat="38.04029" lon="-2.71065">
        <ele>1694.06262</ele>
        <time>2022-09-01T20:21:57.639Z</time>
      </trkpt>
      <trkpt lat="38.04035" lon="-2.71117">
        <ele>1695.295743</ele>
        <time>2022-09-01T20:22:19.387Z</time>
      </trkpt>
      <trkpt lat="38.04032" lon="-2.71149">
        <ele>1696.065135</ele>
        <time>2022-09-01T20:22:31.897Z</time>
      </trkpt>
      <trkpt lat="38.04017" lon="-2.71176">
        <ele>1696.832184</ele>
        <time>2022-09-01T20:22:43.938Z</time>
      </trkpt>
      <trkpt lat="38.03992" lon="-2.71195">
        <ele>1697.702673</ele>
        <time>2022-09-01T20:22:56.700Z</time>
      </trkpt>
      <trkpt lat="38.03986" lon="-2.7121">
        <ele>1697.80565</ele>
        <time>2022-09-01T20:23:02.091Z</time>
      </trkpt>
      <trkpt lat="38.03987" lon="-2.71246">
        <ele>1697.885981</ele>
        <time>2022-09-01T20:23:13.695Z</time>
      </trkpt>
      <trkpt lat="38.03998" lon="-2.71297">
        <ele>1698.000231</ele>
        <time>2022-09-01T20:23:29.195Z</time>
      </trkpt>
      <trkpt lat="38.03997" lon="-2.71317">
        <ele>1698.046082</ele>
        <time>2022-09-01T20:23:35.433Z</time>
      </trkpt>
      <trkpt lat="38.03993" lon="-2.71327">
        <ele>1698.069572</ele>
        <time>2022-09-01T20:23:38.626Z</time>
      </trkpt>
      <trkpt lat="38.03966" lon="-2.71351">
        <ele>1698.160828</ele>
        <time>2022-09-01T20:23:50.841Z</time>
      </trkpt>
      <trkpt lat="38.03954" lon="-2.71383">
        <ele>1698.239055</ele>
        <time>2022-09-01T20:24:01.200Z</time>
      </trkpt>
      <trkpt lat="38.03943" lon="-2.71435">
        <ele>1698.009021</ele>
        <time>2022-09-01T20:24:16.471Z</time>
      </trkpt>
      <trkpt lat="38.03938" lon="-2.71501">
        <ele>1697.53054</ele>
        <time>2022-09-01T20:24:34.882Z</time>
      </trkpt>
      <trkpt lat="38.03929" lon="-2.71526">
        <ele>1697.333967</ele>
        <time>2022-09-01T20:24:42.481Z</time>
      </trkpt>
      <trkpt lat="38.03915" lon="-2.71556">
        <ele>1697.074347</ele>
        <time>2022-09-01T20:24:52.596Z</time>
      </trkpt>
      <trkpt lat="38.0389" lon="-2.71577">
        <ele>1696.801468</ele>
        <time>2022-09-01T20:25:02.654Z</time>
      </trkpt>
      <trkpt lat="38.03861" lon="-2.71594">
        <ele>1696.342971</ele>
        <time>2022-09-01T20:25:12.662Z</time>
      </trkpt>
      <trkpt lat="38.03833" lon="-2.71601">
        <ele>1695.691992</ele>
        <time>2022-09-01T20:25:21.744Z</time>
      </trkpt>
      <trkpt lat="38.03776" lon="-2.71629">
        <ele>1694.280372</ele>
        <time>2022-09-01T20:25:41.458Z</time>
      </trkpt>
      <trkpt lat="38.03766" lon="-2.71699">
        <ele>1692.997055</ele>
        <time>2022-09-01T20:25:58.971Z</time>
      </trkpt>
      <trkpt lat="38.03748" lon="-2.71715">
        <ele>1692.493139</ele>
        <time>2022-09-01T20:26:06.218Z</time>
      </trkpt>
      <trkpt lat="38.03684" lon="-2.7174">
        <ele>1692.149999</ele>
        <time>2022-09-01T20:26:27.828Z</time>
      </trkpt>
      <trkpt lat="38.03609" lon="-2.71807">
        <ele>1691.683299</ele>
        <time>2022-09-01T20:27:00.892Z</time>
      </trkpt>
      <trkpt lat="38.0357" lon="-2.71834">
        <ele>1692.24951</ele>
        <time>2022-09-01T20:27:22.438Z</time>
      </trkpt>
      <trkpt lat="38.0353" lon="-2.71852">
        <ele>1693.463684</ele>
        <time>2022-09-01T20:27:44.274Z</time>
      </trkpt>
      <trkpt lat="38.03463" lon="-2.71902">
        <ele>1695.677406</ele>
        <time>2022-09-01T20:28:26.784Z</time>
      </trkpt>
      <trkpt lat="38.03349" lon="-2.71966">
        <ele>1698.632344</ele>
        <time>2022-09-01T20:29:32.289Z</time>
      </trkpt>
      <trkpt lat="38.03307" lon="-2.72001">
        <ele>1699.741913</ele>
        <time>2022-09-01T20:29:54.935Z</time>
      </trkpt>
      <trkpt lat="38.03301" lon="-2.72012">
        <ele>1699.962818</ele>
        <time>2022-09-01T20:29:59.180Z</time>
      </trkpt>
      <trkpt lat="38.033" lon="-2.7203">
        <ele>1700.2856</ele>
        <time>2022-09-01T20:30:05.802Z</time>
      </trkpt>
      <trkpt lat="38.03319" lon="-2.72063">
        <ele>1700.723697</ele>
        <time>2022-09-01T20:30:19.088Z</time>
      </trkpt>
      <trkpt lat="38.03319" lon="-2.72083">
        <ele>1700.80659</ele>
        <time>2022-09-01T20:30:25.338Z</time>
      </trkpt>
      <trkpt lat="38.03296" lon="-2.72136">
        <ele>1701.068201</ele>
        <time>2022-09-01T20:30:44.644Z</time>
      </trkpt>
      <trkpt lat="38.03272" lon="-2.7218">
        <ele>1701.299702</ele>
        <time>2022-09-01T20:31:01.425Z</time>
      </trkpt>
      <trkpt lat="38.03256" lon="-2.72236">
        <ele>1701.5526</ele>
        <time>2022-09-01T20:31:18.881Z</time>
      </trkpt>
      <trkpt lat="38.03225" lon="-2.72297">
        <ele>1701.650093</ele>
        <time>2022-09-01T20:31:40.667Z</time>
      </trkpt>
      <trkpt lat="38.03219" lon="-2.72308">
        <ele>1701.657957</ele>
        <time>2022-09-01T20:31:45.126Z</time>
      </trkpt>
      <trkpt lat="38.03097" lon="-2.72557">
        <ele>1701.936971</ele>
        <time>2022-09-01T20:33:10.274Z</time>
      </trkpt>
      <trkpt lat="38.03066" lon="-2.72576">
        <ele>1701.998265</ele>
        <time>2022-09-01T20:33:23.634Z</time>
      </trkpt>
      <trkpt lat="38.0306" lon="-2.72588">
        <ele>1702.019384</ele>
        <time>2022-09-01T20:33:28.359Z</time>
      </trkpt>
      <trkpt lat="38.03062" lon="-2.72612">
        <ele>1702.053314</ele>
        <time>2022-09-01T20:33:35.884Z</time>
      </trkpt>
      <trkpt lat="38.03077" lon="-2.72638">
        <ele>1702.158405</ele>
        <time>2022-09-01T20:33:46.004Z</time>
      </trkpt>
      <trkpt lat="38.03084" lon="-2.72663">
        <ele>1702.267837</ele>
        <time>2022-09-01T20:33:54.632Z</time>
      </trkpt>
      <trkpt lat="38.03077" lon="-2.72728">
        <ele>1702.534067</ele>
        <time>2022-09-01T20:34:15.634Z</time>
      </trkpt>
      <trkpt lat="38.03068" lon="-2.72754">
        <ele>1702.649158</ele>
        <time>2022-09-01T20:34:24.700Z</time>
      </trkpt>
      <trkpt lat="38.02991" lon="-2.72874">
        <ele>1703.232497</ele>
        <time>2022-09-01T20:35:11.744Z</time>
      </trkpt>
      <trkpt lat="38.02932" lon="-2.72929">
        <ele>1703.551791</ele>
        <time>2022-09-01T20:35:38.917Z</time>
      </trkpt>
      <trkpt lat="38.02914" lon="-2.72995">
        <ele>1703.86516</ele>
        <time>2022-09-01T20:36:00.639Z</time>
      </trkpt>
      <trkpt lat="38.0284" lon="-2.73118">
        <ele>1707.125677</ele>
        <time>2022-09-01T20:36:59.889Z</time>
      </trkpt>
      <trkpt lat="38.02827" lon="-2.73154">
        <ele>1707.960419</ele>
        <time>2022-09-01T20:37:16.613Z</time>
      </trkpt>
      <trkpt lat="38.02813" lon="-2.73169">
        <ele>1708.451613</ele>
        <time>2022-09-01T20:37:27.800Z</time>
      </trkpt>
      <trkpt lat="38.02722" lon="-2.73172">
        <ele>1712.936883</ele>
        <time>2022-09-01T20:38:22.940Z</time>
      </trkpt>
      <trkpt lat="38.02692" lon="-2.7318">
        <ele>1714.480778</ele>
        <time>2022-09-01T20:38:43.659Z</time>
      </trkpt>
      <trkpt lat="38.02591" lon="-2.73254">
        <ele>1721.009356</ele>
        <time>2022-09-01T20:39:58.274Z</time>
      </trkpt>
      <trkpt lat="38.02564" lon="-2.73267">
        <ele>1722.761451</ele>
        <time>2022-09-01T20:40:17.953Z</time>
      </trkpt>
      <trkpt lat="38.02509" lon="-2.73278">
        <ele>1726.246084</ele>
        <time>2022-09-01T20:40:58.502Z</time>
      </trkpt>
      <trkpt lat="38.02465" lon="-2.73271">
        <ele>1728.999358</ele>
        <time>2022-09-01T20:41:28.841Z</time>
      </trkpt>
      <trkpt lat="38.02425" lon="-2.73289">
        <ele>1731.536369</ele>
        <time>2022-09-01T20:41:57.685Z</time>
      </trkpt>
      <trkpt lat="38.02388" lon="-2.73314">
        <ele>1734.036611</ele>
        <time>2022-09-01T20:42:25.943Z</time>
      </trkpt>
      <trkpt lat="38.02366" lon="-2.73341">
        <ele>1735.841526</ele>
        <time>2022-09-01T20:42:45.823Z</time>
      </trkpt>
      <trkpt lat="38.02342" lon="-2.7335">
        <ele>1737.353098</ele>
        <time>2022-09-01T20:43:02.562Z</time>
      </trkpt>
      <trkpt lat="38.02253" lon="-2.73347">
        <ele>1741.756334</ele>
        <time>2022-09-01T20:44:01.535Z</time>
      </trkpt>
      <trkpt lat="38.022" lon="-2.73326">
        <ele>1744.08521</ele>
        <time>2022-09-01T20:44:33.297Z</time>
      </trkpt>
      <trkpt lat="38.02191" lon="-2.73326">
        <ele>1744.477966</ele>
        <time>2022-09-01T20:44:38.818Z</time>
      </trkpt>
      <trkpt lat="38.02174" lon="-2.73337">
        <ele>1745.270507</ele>
        <time>2022-09-01T20:44:49.399Z</time>
      </trkpt>
      <trkpt lat="38.02139" lon="-2.7342">
        <ele>1748.283296</ele>
        <time>2022-09-01T20:45:27.303Z</time>
      </trkpt>
      <trkpt lat="38.02123" lon="-2.73483">
        <ele>1750.263403</ele>
        <time>2022-09-01T20:45:53.420Z</time>
      </trkpt>
      <trkpt lat="38.02118" lon="-2.73537">
        <ele>1751.918157</ele>
        <time>2022-09-01T20:46:15.366Z</time>
      </trkpt>
      <trkpt lat="38.02107" lon="-2.73549">
        <ele>1752.48851</ele>
        <time>2022-09-01T20:46:24.246Z</time>
      </trkpt>
      <trkpt lat="38.02081" lon="-2.73559">
        <ele>1753.526936</ele>
        <time>2022-09-01T20:46:41.614Z</time>
      </trkpt>
      <trkpt lat="38.02049" lon="-2.73602">
        <ele>1756.681456</ele>
        <time>2022-09-01T20:47:13.820Z</time>
      </trkpt>
      <trkpt lat="38.01995" lon="-2.73622">
        <ele>1761.164333</ele>
        <time>2022-09-01T20:47:58.050Z</time>
      </trkpt>
      <trkpt lat="38.01959" lon="-2.73651">
        <ele>1764.595057</ele>
        <time>2022-09-01T20:48:36.223Z</time>
      </trkpt>
      <trkpt lat="38.0187" lon="-2.73768">
        <ele>1771.537661</ele>
        <time>2022-09-01T20:50:13.613Z</time>
      </trkpt>
      <trkpt lat="38.01861" lon="-2.73796">
        <ele>1772.491489</ele>
        <time>2022-09-01T20:50:28.019Z</time>
      </trkpt>
      <trkpt lat="38.01841" lon="-2.73813">
        <ele>1773.414574</ele>
        <time>2022-09-01T20:50:38.917Z</time>
      </trkpt>
      <trkpt lat="38.018" lon="-2.73835">
        <ele>1775.181993</ele>
        <time>2022-09-01T20:50:56.190Z</time>
      </trkpt>
      <trkpt lat="38.01787" lon="-2.73849">
        <ele>1774.893997</ele>
        <time>2022-09-01T20:51:01.966Z</time>
      </trkpt>
      <trkpt lat="38.01739" lon="-2.73932">
        <ele>1770.731331</ele>
        <time>2022-09-01T20:51:25.792Z</time>
      </trkpt>
      <trkpt lat="38.01693" lon="-2.73983">
        <ele>1767.604433</ele>
        <time>2022-09-01T20:51:42.445Z</time>
      </trkpt>
      <trkpt lat="38.01625" lon="-2.74027">
        <ele>1762.779521</ele>
        <time>2022-09-01T20:52:02.935Z</time>
      </trkpt>
      <trkpt lat="38.01591" lon="-2.74019">
        <ele>1760.426244</ele>
        <time>2022-09-01T20:52:12.149Z</time>
      </trkpt>
      <trkpt lat="38.01571" lon="-2.74027">
        <ele>1758.985093</ele>
        <time>2022-09-01T20:52:17.792Z</time>
      </trkpt>
      <trkpt lat="38.01565" lon="-2.74025">
        <ele>1758.501409</ele>
        <time>2022-09-01T20:52:19.627Z</time>
      </trkpt>
      <trkpt lat="38.01531" lon="-2.73974">
        <ele>1754.871915</ele>
        <time>2022-09-01T20:52:34.486Z</time>
      </trkpt>
      <trkpt lat="38.01532" lon="-2.73956">
        <ele>1753.893109</ele>
        <time>2022-09-01T20:52:38.381Z</time>
      </trkpt>
      <trkpt lat="38.01546" lon="-2.73912">
        <ele>1752.184048</ele>
        <time>2022-09-01T20:52:48.838Z</time>
      </trkpt>
      <trkpt lat="38.01542" lon="-2.73905">
        <ele>1751.893673</ele>
        <time>2022-09-01T20:52:50.654Z</time>
      </trkpt>
      <trkpt lat="38.01511" lon="-2.73884">
        <ele>1750.321954</ele>
        <time>2022-09-01T20:53:00.550Z</time>
      </trkpt>
      <trkpt lat="38.01477" lon="-2.73874">
        <ele>1748.729717</ele>
        <time>2022-09-01T20:53:11.769Z</time>
      </trkpt>
      <trkpt lat="38.01446" lon="-2.73885">
        <ele>1747.286691</ele>
        <time>2022-09-01T20:53:21.767Z</time>
      </trkpt>
      <trkpt lat="38.01432" lon="-2.73852">
        <ele>1745.985031</ele>
        <time>2022-09-01T20:53:30.642Z</time>
      </trkpt>
      <trkpt lat="38.01291" lon="-2.73697">
        <ele>1737.810238</ele>
        <time>2022-09-01T20:54:24.859Z</time>
      </trkpt>
      <trkpt lat="38.01282" lon="-2.73691">
        <ele>1737.616812</ele>
        <time>2022-09-01T20:54:28.269Z</time>
      </trkpt>
      <trkpt lat="38.01259" lon="-2.7369">
        <ele>1737.200824</ele>
        <time>2022-09-01T20:54:35.104Z</time>
      </trkpt>
      <trkpt lat="38.01232" lon="-2.73733">
        <ele>1736.425552</ele>
        <time>2022-09-01T20:54:48.785Z</time>
      </trkpt>
      <trkpt lat="38.01182" lon="-2.73762">
        <ele>1735.419633</ele>
        <time>2022-09-01T20:55:07.458Z</time>
      </trkpt>
      <trkpt lat="38.01123" lon="-2.73822">
        <ele>1734.677797</ele>
        <time>2022-09-01T20:55:35.233Z</time>
      </trkpt>
      <trkpt lat="38.0107" lon="-2.73862">
        <ele>1734.897595</ele>
        <time>2022-09-01T20:56:01.312Z</time>
      </trkpt>
      <trkpt lat="38.01042" lon="-2.73866">
        <ele>1734.997645</ele>
        <time>2022-09-01T20:56:12.984Z</time>
      </trkpt>
      <trkpt lat="38.01026" lon="-2.73877">
        <ele>1735.063165</ele>
        <time>2022-09-01T20:56:20.473Z</time>
      </trkpt>
      <trkpt lat="38.00988" lon="-2.7393">
        <ele>1734.91372</ele>
        <time>2022-09-01T20:56:41.935Z</time>
      </trkpt>
      <trkpt lat="38.0096" lon="-2.73958">
        <ele>1734.113915</ele>
        <time>2022-09-01T20:56:54.310Z</time>
      </trkpt>
      <trkpt lat="38.00953" lon="-2.73979">
        <ele>1733.708552</ele>
        <time>2022-09-01T20:57:00.251Z</time>
      </trkpt>
      <trkpt lat="38.00927" lon="-2.74002">
        <ele>1732.996419</ele>
        <time>2022-09-01T20:57:10.363Z</time>
      </trkpt>
      <trkpt lat="38.00873" lon="-2.74035">
        <ele>1731.638258</ele>
        <time>2022-09-01T20:57:28.928Z</time>
      </trkpt>
      <trkpt lat="38.00831" lon="-2.74051">
        <ele>1730.020821</ele>
        <time>2022-09-01T20:57:42.068Z</time>
      </trkpt>
      <trkpt lat="38.00805" lon="-2.74069">
        <ele>1728.564564</ele>
        <time>2022-09-01T20:57:50.473Z</time>
      </trkpt>
      <trkpt lat="38.00734" lon="-2.74103">
        <ele>1724.78611</ele>
        <time>2022-09-01T20:58:11.917Z</time>
      </trkpt>
      <trkpt lat="38.00683" lon="-2.74134">
        <ele>1722.000016</ele>
        <time>2022-09-01T20:58:28.119Z</time>
      </trkpt>
      <trkpt lat="38.00662" lon="-2.74153">
        <ele>1721.034615</ele>
        <time>2022-09-01T20:58:35.427Z</time>
      </trkpt>
      <trkpt lat="38.00559" lon="-2.74207">
        <ele>1716.838078</ele>
        <time>2022-09-01T20:59:08.764Z</time>
      </trkpt>
      <trkpt lat="38.00467" lon="-2.74238">
        <ele>1714.480947</ele>
        <time>2022-09-01T20:59:39.303Z</time>
      </trkpt>
      <trkpt lat="38.00422" lon="-2.74266">
        <ele>1713.662677</ele>
        <time>2022-09-01T20:59:56.318Z</time>
      </trkpt>
      <trkpt lat="38.00377" lon="-2.74281">
        <ele>1712.922118</ele>
        <time>2022-09-01T21:00:12.011Z</time>
      </trkpt>
      <trkpt lat="38.00332" lon="-2.74311">
        <ele>1712.319193</ele>
        <time>2022-09-01T21:00:29.660Z</time>
      </trkpt>
      <trkpt lat="38.00274" lon="-2.74332">
        <ele>1711.881653</ele>
        <time>2022-09-01T21:00:51.065Z</time>
      </trkpt>
      <trkpt lat="38.00164" lon="-2.7444">
        <ele>1711.122965</ele>
        <time>2022-09-01T21:01:39.999Z</time>
      </trkpt>
      <trkpt lat="38.0009" lon="-2.74484">
        <ele>1710.974504</ele>
        <time>2022-09-01T21:02:09.425Z</time>
      </trkpt>
      <trkpt lat="37.99995" lon="-2.746">
        <ele>1711.469838</ele>
        <time>2022-09-01T21:03:01.124Z</time>
      </trkpt>
      <trkpt lat="37.99894" lon="-2.74673">
        <ele>1712.322817</ele>
        <time>2022-09-01T21:03:50.780Z</time>
      </trkpt>
      <trkpt lat="37.99882" lon="-2.74675">
        <ele>1712.383918</ele>
        <time>2022-09-01T21:03:55.647Z</time>
      </trkpt>
      <trkpt lat="37.99862" lon="-2.74663">
        <ele>1712.501676</ele>
        <time>2022-09-01T21:04:05.006Z</time>
      </trkpt>
      <trkpt lat="37.99846" lon="-2.74661">
        <ele>1712.582979</ele>
        <time>2022-09-01T21:04:11.397Z</time>
      </trkpt>
      <trkpt lat="37.99835" lon="-2.74671">
        <ele>1712.655651</ele>
        <time>2022-09-01T21:04:17.088Z</time>
      </trkpt>
      <trkpt lat="37.99818" lon="-2.74698">
        <ele>1712.799016</ele>
        <time>2022-09-01T21:04:27.983Z</time>
      </trkpt>
      <trkpt lat="37.99773" lon="-2.74723">
        <ele>1713.058878</ele>
        <time>2022-09-01T21:04:46.928Z</time>
      </trkpt>
      <trkpt lat="37.99751" lon="-2.74731">
        <ele>1713.178281</ele>
        <time>2022-09-01T21:04:55.277Z</time>
      </trkpt>
      <trkpt lat="37.99693" lon="-2.74734">
        <ele>1713.137505</ele>
        <time>2022-09-01T21:05:16.198Z</time>
      </trkpt>
      <trkpt lat="37.99659" lon="-2.74749">
        <ele>1713.100754</ele>
        <time>2022-09-01T21:05:29.392Z</time>
      </trkpt>
      <trkpt lat="37.99646" lon="-2.74761">
        <ele>1713.08486</ele>
        <time>2022-09-01T21:05:35.139Z</time>
      </trkpt>
      <trkpt lat="37.99642" lon="-2.74796">
        <ele>1713.057068</ele>
        <time>2022-09-01T21:05:45.229Z</time>
      </trkpt>
      <trkpt lat="37.99627" lon="-2.74808">
        <ele>1713.03931</ele>
        <time>2022-09-01T21:05:51.716Z</time>
      </trkpt>
      <trkpt lat="37.99608" lon="-2.74811">
        <ele>1713.020188</ele>
        <time>2022-09-01T21:05:58.757Z</time>
      </trkpt>
      <trkpt lat="37.99567" lon="-2.74802">
        <ele>1713.299711</ele>
        <time>2022-09-01T21:06:14.527Z</time>
      </trkpt>
      <trkpt lat="37.99501" lon="-2.74832">
        <ele>1713.910626</ele>
        <time>2022-09-01T21:06:42.445Z</time>
      </trkpt>
      <trkpt lat="37.9947" lon="-2.74852">
        <ele>1714.214205</ele>
        <time>2022-09-01T21:06:57.136Z</time>
      </trkpt>
      <trkpt lat="37.99434" lon="-2.74863">
        <ele>1714.540601</ele>
        <time>2022-09-01T21:07:13.838Z</time>
      </trkpt>
      <trkpt lat="37.99414" lon="-2.7489">
        <ele>1715.245405</ele>
        <time>2022-09-01T21:07:27.593Z</time>
      </trkpt>
      <trkpt lat="37.99377" lon="-2.74881">
        <ele>1716.268667</ele>
        <time>2022-09-01T21:07:46.524Z</time>
      </trkpt>
      <trkpt lat="37.99351" lon="-2.74893">
        <ele>1716.995248</ele>
        <time>2022-09-01T21:08:00.484Z</time>
      </trkpt>
      <trkpt lat="37.99322" lon="-2.74894">
        <ele>1717.784588</ele>
        <time>2022-09-01T21:08:16.017Z</time>
      </trkpt>
      <trkpt lat="37.99284" lon="-2.74908">
        <ele>1718.840384</ele>
        <time>2022-09-01T21:08:37.262Z</time>
      </trkpt>
      <trkpt lat="37.99239" lon="-2.74896">
        <ele>1719.597609</ele>
        <time>2022-09-01T21:09:02.170Z</time>
      </trkpt>
      <trkpt lat="37.99182" lon="-2.74939">
        <ele>1720.101477</ele>
        <time>2022-09-01T21:09:33.098Z</time>
      </trkpt>
      <trkpt lat="37.99128" lon="-2.74911">
        <ele>1720.552329</ele>
        <time>2022-09-01T21:09:55.461Z</time>
      </trkpt>
      <trkpt lat="37.99095" lon="-2.74905">
        <ele>1720.643169</ele>
        <time>2022-09-01T21:10:06.409Z</time>
      </trkpt>
      <trkpt lat="37.99039" lon="-2.74872">
        <ele>1717.841228</ele>
        <time>2022-09-01T21:10:25.262Z</time>
      </trkpt>
      <trkpt lat="37.98989" lon="-2.74872">
        <ele>1715.516351</ele>
        <time>2022-09-01T21:10:39.988Z</time>
      </trkpt>
      <trkpt lat="37.9896" lon="-2.74891">
        <ele>1714.043916</ele>
        <time>2022-09-01T21:10:48.940Z</time>
      </trkpt>
      <trkpt lat="37.98947" lon="-2.74923">
        <ele>1712.72905</ele>
        <time>2022-09-01T21:10:56.792Z</time>
      </trkpt>
      <trkpt lat="37.98858" lon="-2.74972">
        <ele>1706.034162</ele>
        <time>2022-09-01T21:11:23.402Z</time>
      </trkpt>
      <trkpt lat="37.98827" lon="-2.75001">
        <ele>1703.346298</ele>
        <time>2022-09-01T21:11:33.897Z</time>
      </trkpt>
      <trkpt lat="37.9876" lon="-2.75014">
        <ele>1698.619011</ele>
        <time>2022-09-01T21:11:52.320Z</time>
      </trkpt>
      <trkpt lat="37.98696" lon="-2.75018">
        <ele>1694.266067</ele>
        <time>2022-09-01T21:12:09.619Z</time>
      </trkpt>
      <trkpt lat="37.98661" lon="-2.75033">
        <ele>1691.796512</ele>
        <time>2022-09-01T21:12:19.511Z</time>
      </trkpt>
      <trkpt lat="37.98559" lon="-2.75124">
        <ele>1684.808901</ele>
        <time>2022-09-01T21:12:54.716Z</time>
      </trkpt>
      <trkpt lat="37.98517" lon="-2.75146">
        <ele>1682.795232</ele>
        <time>2022-09-01T21:13:07.991Z</time>
      </trkpt>
      <trkpt lat="37.98476" lon="-2.75206">
        <ele>1680.023611</ele>
        <time>2022-09-01T21:13:27.062Z</time>
      </trkpt>
      <trkpt lat="37.98448" lon="-2.75224">
        <ele>1679.33654</ele>
        <time>2022-09-01T21:13:37.119Z</time>
      </trkpt>
      <trkpt lat="37.98391" lon="-2.75249">
        <ele>1678.358182</ele>
        <time>2022-09-01T21:13:56.981Z</time>
      </trkpt>
      <trkpt lat="37.98309" lon="-2.75318">
        <ele>1676.766952</ele>
        <time>2022-09-01T21:14:30.752Z</time>
      </trkpt>
      <trkpt lat="37.98281" lon="-2.75331">
        <ele>1676.331625</ele>
        <time>2022-09-01T21:14:41.136Z</time>
      </trkpt>
      <trkpt lat="37.98251" lon="-2.75353">
        <ele>1675.831114</ele>
        <time>2022-09-01T21:14:52.935Z</time>
      </trkpt>
      <trkpt lat="37.98211" lon="-2.75354">
        <ele>1675.241385</ele>
        <time>2022-09-01T21:15:06.611Z</time>
      </trkpt>
      <trkpt lat="37.98188" lon="-2.75362">
        <ele>1674.905929</ele>
        <time>2022-09-01T21:15:14.267Z</time>
      </trkpt>
      <trkpt lat="37.98162" lon="-2.7536">
        <ele>1674.527358</ele>
        <time>2022-09-01T21:15:22.818Z</time>
      </trkpt>
      <trkpt lat="37.98087" lon="-2.75393">
        <ele>1673.048829</ele>
        <time>2022-09-01T21:15:48.718Z</time>
      </trkpt>
      <trkpt lat="37.98035" lon="-2.75433">
        <ele>1671.834135</ele>
        <time>2022-09-01T21:16:08.088Z</time>
      </trkpt>
      <trkpt lat="37.97924" lon="-2.75551">
        <ele>1669.946339</ele>
        <time>2022-09-01T21:16:56.269Z</time>
      </trkpt>
      <trkpt lat="37.97886" lon="-2.75585">
        <ele>1669.579347</ele>
        <time>2022-09-01T21:17:13.022Z</time>
      </trkpt>
      <trkpt lat="37.97837" lon="-2.75581">
        <ele>1669.192279</ele>
        <time>2022-09-01T21:17:31.312Z</time>
      </trkpt>
      <trkpt lat="37.97755" lon="-2.75607">
        <ele>1669.051953</ele>
        <time>2022-09-01T21:18:03.749Z</time>
      </trkpt>
      <trkpt lat="37.97725" lon="-2.75602">
        <ele>1669.001519</ele>
        <time>2022-09-01T21:18:15.239Z</time>
      </trkpt>
      <trkpt lat="37.97708" lon="-2.75617">
        <ele>1668.967765</ele>
        <time>2022-09-01T21:18:22.792Z</time>
      </trkpt>
      <trkpt lat="37.97686" lon="-2.75628">
        <ele>1668.928838</ele>
        <time>2022-09-01T21:18:31.254Z</time>
      </trkpt>
      <trkpt lat="37.97674" lon="-2.75652">
        <ele>1668.875263</ele>
        <time>2022-09-01T21:18:39.221Z</time>
      </trkpt>
      <trkpt lat="37.97577" lon="-2.757">
        <ele>1667.638146</ele>
        <time>2022-09-01T21:19:14.070Z</time>
      </trkpt>
      <trkpt lat="37.97568" lon="-2.757">
        <ele>1667.523488</ele>
        <time>2022-09-01T21:19:17.499Z</time>
      </trkpt>
      <trkpt lat="37.97531" lon="-2.75684">
        <ele>1667.063558</ele>
        <time>2022-09-01T21:19:30.683Z</time>
      </trkpt>
      <trkpt lat="37.9747" lon="-2.75704">
        <ele>1666.26427</ele>
        <time>2022-09-01T21:19:51.654Z</time>
      </trkpt>
      <trkpt lat="37.97459" lon="-2.75707">
        <ele>1666.111746</ele>
        <time>2022-09-01T21:19:56.274Z</time>
      </trkpt>
      <trkpt lat="37.97441" lon="-2.75699">
        <ele>1665.852884</ele>
        <time>2022-09-01T21:20:02.596Z</time>
      </trkpt>
      <trkpt lat="37.97356" lon="-2.75649">
        <ele>1664.619502</ele>
        <time>2022-09-01T21:20:34.338Z</time>
      </trkpt>
      <trkpt lat="37.97296" lon="-2.75686">
        <ele>1663.065576</ele>
        <time>2022-09-01T21:20:57.027Z</time>
      </trkpt>
      <trkpt lat="37.97232" lon="-2.75679">
        <ele>1661.319875</ele>
        <time>2022-09-01T21:21:16.716Z</time>
      </trkpt>
      <trkpt lat="37.97165" lon="-2.75658">
        <ele>1659.43796</ele>
        <time>2022-09-01T21:21:37.785Z</time>
      </trkpt>
      <trkpt lat="37.97126" lon="-2.75666">
        <ele>1658.487604</ele>
        <time>2022-09-01T21:21:49.922Z</time>
      </trkpt>
      <trkpt lat="37.9711" lon="-2.75667">
        <ele>1658.110349</ele>
        <time>2022-09-01T21:21:54.575Z</time>
      </trkpt>
      <trkpt lat="37.97084" lon="-2.75648">
        <ele>1657.40341</ele>
        <time>2022-09-01T21:22:03.777Z</time>
      </trkpt>
      <trkpt lat="37.97039" lon="-2.75661">
        <ele>1656.286831</ele>
        <time>2022-09-01T21:22:18.578Z</time>
      </trkpt>
      <trkpt lat="37.96999" lon="-2.75646">
        <ele>1655.281987</ele>
        <time>2022-09-01T21:22:32.522Z</time>
      </trkpt>
      <trkpt lat="37.96989" lon="-2.75633">
        <ele>1655.12047</ele>
        <time>2022-09-01T21:22:37.415Z</time>
      </trkpt>
      <trkpt lat="37.96993" lon="-2.75607">
        <ele>1655.054622</ele>
        <time>2022-09-01T21:22:44.736Z</time>
      </trkpt>
      <trkpt lat="37.96986" lon="-2.7557">
        <ele>1654.959546</ele>
        <time>2022-09-01T21:22:56.672Z</time>
      </trkpt>
      <trkpt lat="37.96988" lon="-2.75559">
        <ele>1654.931581</ele>
        <time>2022-09-01T21:23:00.226Z</time>
      </trkpt>
      <trkpt lat="37.97013" lon="-2.75501">
        <ele>1654.769998</ele>
        <time>2022-09-01T21:23:20.014Z</time>
      </trkpt>
      <trkpt lat="37.97013" lon="-2.75472">
        <ele>1654.696473</ele>
        <time>2022-09-01T21:23:28.425Z</time>
      </trkpt>
      <trkpt lat="37.96997" lon="-2.7546">
        <ele>1654.6375</ele>
        <time>2022-09-01T21:23:35.182Z</time>
      </trkpt>
      <trkpt lat="37.96928" lon="-2.75447">
        <ele>1653.873896</ele>
        <time>2022-09-01T21:23:59.769Z</time>
      </trkpt>
      <trkpt lat="37.96824" lon="-2.75394">
        <ele>1652.351971</ele>
        <time>2022-09-01T21:24:36.958Z</time>
      </trkpt>
      <trkpt lat="37.96781" lon="-2.75382">
        <ele>1651.766945</ele>
        <time>2022-09-01T21:24:51.116Z</time>
      </trkpt>
      <trkpt lat="37.9677" lon="-2.75382">
        <ele>1651.607194</ele>
        <time>2022-09-01T21:24:55.012Z</time>
      </trkpt>
      <trkpt lat="37.96738" lon="-2.75396">
        <ele>1651.151893</ele>
        <time>2022-09-01T21:25:06.223Z</time>
      </trkpt>
      <trkpt lat="37.96726" lon="-2.75394">
        <ele>1650.992399</ele>
        <time>2022-09-01T21:25:10.182Z</time>
      </trkpt>
      <trkpt lat="37.96692" lon="-2.75359">
        <ele>1650.409302</ele>
        <time>2022-09-01T21:25:25.027Z</time>
      </trkpt>
      <trkpt lat="37.96683" lon="-2.75342">
        <ele>1650.192521</ele>
        <time>2022-09-01T21:25:30.690Z</time>
      </trkpt>
      <trkpt lat="37.96661" lon="-2.75336">
        <ele>1649.880036</ele>
        <time>2022-09-01T21:25:38.815Z</time>
      </trkpt>
      <trkpt lat="37.96647" lon="-2.75339">
        <ele>1649.694167</ele>
        <time>2022-09-01T21:25:43.741Z</time>
      </trkpt>
      <trkpt lat="37.96618" lon="-2.75364">
        <ele>1649.274171</ele>
        <time>2022-09-01T21:25:56.004Z</time>
      </trkpt>
      <trkpt lat="37.96559" lon="-2.75402">
        <ele>1648.477405</ele>
        <time>2022-09-01T21:26:19.121Z</time>
      </trkpt>
      <trkpt lat="37.96515" lon="-2.7542">
        <ele>1647.928264</ele>
        <time>2022-09-01T21:26:34.611Z</time>
      </trkpt>
      <trkpt lat="37.96497" lon="-2.75435">
        <ele>1647.669204</ele>
        <time>2022-09-01T21:26:41.736Z</time>
      </trkpt>
      <trkpt lat="37.96487" lon="-2.75437">
        <ele>1647.535432</ele>
        <time>2022-09-01T21:26:44.899Z</time>
      </trkpt>
      <trkpt lat="37.96466" lon="-2.75428">
        <ele>1646.756814</ele>
        <time>2022-09-01T21:26:52.229Z</time>
      </trkpt>
      <trkpt lat="37.96439" lon="-2.75428">
        <ele>1645.81849</ele>
        <time>2022-09-01T21:27:00.948Z</time>
      </trkpt>
      <trkpt lat="37.96404" lon="-2.75436">
        <ele>1644.590129</ele>
        <time>2022-09-01T21:27:12.035Z</time>
      </trkpt>
      <trkpt lat="37.96369" lon="-2.75458">
        <ele>1643.250629</ele>
        <time>2022-09-01T21:27:23.606Z</time>
      </trkpt>
      <trkpt lat="37.96309" lon="-2.75472">
        <ele>1641.031822</ele>
        <time>2022-09-01T21:27:41.532Z</time>
      </trkpt>
      <trkpt lat="37.96271" lon="-2.7549">
        <ele>1638.961427</ele>
        <time>2022-09-01T21:27:53.124Z</time>
      </trkpt>
      <trkpt lat="37.96227" lon="-2.75492">
        <ele>1636.726258</ele>
        <time>2022-09-01T21:28:05.433Z</time>
      </trkpt>
      <trkpt lat="37.96182" lon="-2.75505">
        <ele>1634.374406</ele>
        <time>2022-09-01T21:28:18.550Z</time>
      </trkpt>
      <trkpt lat="37.96116" lon="-2.75513">
        <ele>1631.496004</ele>
        <time>2022-09-01T21:28:37.711Z</time>
      </trkpt>
      <trkpt lat="37.96084" lon="-2.75535">
        <ele>1630.444227</ele>
        <time>2022-09-01T21:28:48.608Z</time>
      </trkpt>
      <trkpt lat="37.96003" lon="-2.7556">
        <ele>1628.062041</ele>
        <time>2022-09-01T21:29:14.986Z</time>
      </trkpt>
      <trkpt lat="37.95982" lon="-2.75562">
        <ele>1627.480679</ele>
        <time>2022-09-01T21:29:21.774Z</time>
      </trkpt>
      <trkpt lat="37.95942" lon="-2.75582">
        <ele>1627.010914</ele>
        <time>2022-09-01T21:29:37.065Z</time>
      </trkpt>
      <trkpt lat="37.95872" lon="-2.75606">
        <ele>1626.989765</ele>
        <time>2022-09-01T21:30:03.841Z</time>
      </trkpt>
      <trkpt lat="37.95803" lon="-2.75623">
        <ele>1626.969198</ele>
        <time>2022-09-01T21:30:31.767Z</time>
      </trkpt>
      <trkpt lat="37.9571" lon="-2.75666">
        <ele>1627.421392</ele>
        <time>2022-09-01T21:31:11.412Z</time>
      </trkpt>
      <trkpt lat="37.95671" lon="-2.75652">
        <ele>1627.624024</ele>
        <time>2022-09-01T21:31:26.869Z</time>
      </trkpt>
      <trkpt lat="37.95639" lon="-2.75655">
        <ele>1627.790517</ele>
        <time>2022-09-01T21:31:39.726Z</time>
      </trkpt>
      <trkpt lat="37.95603" lon="-2.75648">
        <ele>1628.0636</ele>
        <time>2022-09-01T21:31:54.405Z</time>
      </trkpt>
      <trkpt lat="37.9558" lon="-2.75634">
        <ele>1628.307243</ele>
        <time>2022-09-01T21:32:04.532Z</time>
      </trkpt>
      <trkpt lat="37.95546" lon="-2.75599">
        <ele>1628.730652</ele>
        <time>2022-09-01T21:32:21.864Z</time>
      </trkpt>
      <trkpt lat="37.95536" lon="-2.75599">
        <ele>1628.829971</ele>
        <time>2022-09-01T21:32:26.961Z</time>
      </trkpt>
      <trkpt lat="37.9551" lon="-2.75613">
        <ele>1629.102641</ele>
        <time>2022-09-01T21:32:37.981Z</time>
      </trkpt>
      <trkpt lat="37.95469" lon="-2.75615">
        <ele>1629.506485</ele>
        <time>2022-09-01T21:32:56.320Z</time>
      </trkpt>
      <trkpt lat="37.95409" lon="-2.75655">
        <ele>1630.665478</ele>
        <time>2022-09-01T21:33:26.726Z</time>
      </trkpt>
      <trkpt lat="37.95372" lon="-2.75656">
        <ele>1631.369403</ele>
        <time>2022-09-01T21:33:44.132Z</time>
      </trkpt>
      <trkpt lat="37.95317" lon="-2.75671">
        <ele>1632.415079</ele>
        <time>2022-09-01T21:34:10.004Z</time>
      </trkpt>
      <trkpt lat="37.95283" lon="-2.75699">
        <ele>1633.212463</ele>
        <time>2022-09-01T21:34:30.320Z</time>
      </trkpt>
      <trkpt lat="37.95229" lon="-2.75779">
        <ele>1634.978673</ele>
        <time>2022-09-01T21:35:11.208Z</time>
      </trkpt>
      <trkpt lat="37.95213" lon="-2.75788">
        <ele>1635.354662</ele>
        <time>2022-09-01T21:35:20.134Z</time>
      </trkpt>
      <trkpt lat="37.95204" lon="-2.7581">
        <ele>1635.773567</ele>
        <time>2022-09-01T21:35:29.062Z</time>
      </trkpt>
      <trkpt lat="37.95172" lon="-2.75848">
        <ele>1636.694067</ele>
        <time>2022-09-01T21:35:49.058Z</time>
      </trkpt>
      <trkpt lat="37.95126" lon="-2.75934">
        <ele>1636.964555</ele>
        <time>2022-09-01T21:36:25.961Z</time>
      </trkpt>
      <trkpt lat="37.95122" lon="-2.75951">
        <ele>1636.983896</ele>
        <time>2022-09-01T21:36:31.050Z</time>
      </trkpt>
      <trkpt lat="37.95122" lon="-2.75998">
        <ele>1637.038901</ele>
        <time>2022-09-01T21:36:44.690Z</time>
      </trkpt>
      <trkpt lat="37.95102" lon="-2.761">
        <ele>1636.457151</ele>
        <time>2022-09-01T21:37:12.371Z</time>
      </trkpt>
      <trkpt lat="37.951" lon="-2.76169">
        <ele>1635.213127</ele>
        <time>2022-09-01T21:37:29.981Z</time>
      </trkpt>
      <trkpt lat="37.95095" lon="-2.76243">
        <ele>1633.879125</ele>
        <time>2022-09-01T21:37:48.399Z</time>
      </trkpt>
      <trkpt lat="37.95084" lon="-2.76296">
        <ele>1632.850317</ele>
        <time>2022-09-01T21:38:02.083Z</time>
      </trkpt>
      <trkpt lat="37.95059" lon="-2.76348">
        <ele>1631.565439</ele>
        <time>2022-09-01T21:38:16.693Z</time>
      </trkpt>
      <trkpt lat="37.95046" lon="-2.76412">
        <ele>1630.151192</ele>
        <time>2022-09-01T21:38:32.937Z</time>
      </trkpt>
      <trkpt lat="37.95006" lon="-2.76527">
        <ele>1627.764969</ele>
        <time>2022-09-01T21:39:04.688Z</time>
      </trkpt>
      <trkpt lat="37.94992" lon="-2.76631">
        <ele>1626.501553</ele>
        <time>2022-09-01T21:39:32.078Z</time>
      </trkpt>
      <trkpt lat="37.94912" lon="-2.76819">
        <ele>1624.375089</ele>
        <time>2022-09-01T21:40:30.807Z</time>
      </trkpt>
      <trkpt lat="37.94877" lon="-2.76916">
        <ele>1623.452465</ele>
        <time>2022-09-01T21:40:59.654Z</time>
      </trkpt>
      <trkpt lat="37.94847" lon="-2.77031">
        <ele>1621.253786</ele>
        <time>2022-09-01T21:41:30.881Z</time>
      </trkpt>
      <trkpt lat="37.94845" lon="-2.77053">
        <ele>1620.842732</ele>
        <time>2022-09-01T21:41:36.244Z</time>
      </trkpt>
      <trkpt lat="37.94859" lon="-2.77134">
        <ele>1619.335383</ele>
        <time>2022-09-01T21:41:56.550Z</time>
      </trkpt>
      <trkpt lat="37.94867" lon="-2.77216">
        <ele>1617.314546</ele>
        <time>2022-09-01T21:42:16.706Z</time>
      </trkpt>
      <trkpt lat="37.94883" lon="-2.77285">
        <ele>1615.569823</ele>
        <time>2022-09-01T21:42:33.950Z</time>
      </trkpt>
      <trkpt lat="37.94882" lon="-2.77324">
        <ele>1614.623031</ele>
        <time>2022-09-01T21:42:43.461Z</time>
      </trkpt>
      <trkpt lat="37.94861" lon="-2.774">
        <ele>1612.935818</ele>
        <time>2022-09-01T21:43:03.101Z</time>
      </trkpt>
      <trkpt lat="37.94858" lon="-2.77586">
        <ele>1609.594958</ele>
        <time>2022-09-01T21:43:50.325Z</time>
      </trkpt>
      <trkpt lat="37.94868" lon="-2.77632">
        <ele>1609.457124</ele>
        <time>2022-09-01T21:44:03.009Z</time>
      </trkpt>
      <trkpt lat="37.94883" lon="-2.77665">
        <ele>1609.348963</ele>
        <time>2022-09-01T21:44:13.241Z</time>
      </trkpt>
      <trkpt lat="37.94887" lon="-2.77715">
        <ele>1609.206285</ele>
        <time>2022-09-01T21:44:27.371Z</time>
      </trkpt>
      <trkpt lat="37.94864" lon="-2.77837">
        <ele>1608.903732</ele>
        <time>2022-09-01T21:45:08.695Z</time>
      </trkpt>
      <trkpt lat="37.94845" lon="-2.77879">
        <ele>1608.842227</ele>
        <time>2022-09-01T21:45:24.823Z</time>
      </trkpt>
      <trkpt lat="37.94825" lon="-2.77966">
        <ele>1608.727911</ele>
        <time>2022-09-01T21:45:51.399Z</time>
      </trkpt>
      <trkpt lat="37.94798" lon="-2.78021">
        <ele>1608.259119</ele>
        <time>2022-09-01T21:46:09.108Z</time>
      </trkpt>
      <trkpt lat="37.94754" lon="-2.78147">
        <ele>1603.786371</ele>
        <time>2022-09-01T21:46:41.843Z</time>
      </trkpt>
      <trkpt lat="37.94681" lon="-2.7842">
        <ele>1591.288939</ele>
        <time>2022-09-01T21:47:45.088Z</time>
      </trkpt>
      <trkpt lat="37.94658" lon="-2.78483">
        <ele>1588.746038</ele>
        <time>2022-09-01T21:48:00.966Z</time>
      </trkpt>
      <trkpt lat="37.94645" lon="-2.78542">
        <ele>1586.68302</ele>
        <time>2022-09-01T21:48:15.267Z</time>
      </trkpt>
      <trkpt lat="37.94657" lon="-2.78598">
        <ele>1584.732322</ele>
        <time>2022-09-01T21:48:28.899Z</time>
      </trkpt>
      <trkpt lat="37.94643" lon="-2.78625">
        <ele>1583.668413</ele>
        <time>2022-09-01T21:48:36.604Z</time>
      </trkpt>
      <trkpt lat="37.94622" lon="-2.78688">
        <ele>1581.774354</ele>
        <time>2022-09-01T21:48:53.313Z</time>
      </trkpt>
      <trkpt lat="37.9462" lon="-2.78722">
        <ele>1580.930787</ele>
        <time>2022-09-01T21:49:01.499Z</time>
      </trkpt>
      <trkpt lat="37.94629" lon="-2.78764">
        <ele>1579.872184</ele>
        <time>2022-09-01T21:49:11.910Z</time>
      </trkpt>
      <trkpt lat="37.94625" lon="-2.78806">
        <ele>1578.828042</ele>
        <time>2022-09-01T21:49:22.216Z</time>
      </trkpt>
      <trkpt lat="37.94631" lon="-2.7884">
        <ele>1577.982308</ele>
        <time>2022-09-01T21:49:30.662Z</time>
      </trkpt>
      <trkpt lat="37.94623" lon="-2.78865">
        <ele>1577.33584</ele>
        <time>2022-09-01T21:49:37.167Z</time>
      </trkpt>
      <trkpt lat="37.94603" lon="-2.78903">
        <ele>1576.721854</ele>
        <time>2022-09-01T21:49:48.667Z</time>
      </trkpt>
      <trkpt lat="37.9459" lon="-2.78921">
        <ele>1576.413268</ele>
        <time>2022-09-01T21:49:55.300Z</time>
      </trkpt>
      <trkpt lat="37.94531" lon="-2.78964">
        <ele>1575.321808</ele>
        <time>2022-09-01T21:50:18.488Z</time>
      </trkpt>
      <trkpt lat="37.94489" lon="-2.79006">
        <ele>1574.467847</ele>
        <time>2022-09-01T21:50:36.440Z</time>
      </trkpt>
      <trkpt lat="37.94405" lon="-2.79051">
        <ele>1573.482458</ele>
        <time>2022-09-01T21:51:07.601Z</time>
      </trkpt>
      <trkpt lat="37.94318" lon="-2.79087">
        <ele>1572.513976</ele>
        <time>2022-09-01T21:51:38.915Z</time>
      </trkpt>
      <trkpt lat="37.94228" lon="-2.7916">
        <ele>1572.727235</ele>
        <time>2022-09-01T21:52:17.746Z</time>
      </trkpt>
      <trkpt lat="37.9412" lon="-2.79227">
        <ele>1573.374655</ele>
        <time>2022-09-01T21:53:09.410Z</time>
      </trkpt>
      <trkpt lat="37.94024" lon="-2.79305">
        <ele>1574.584147</ele>
        <time>2022-09-01T21:53:59.392Z</time>
      </trkpt>
      <trkpt lat="37.9396" lon="-2.79348">
        <ele>1574.345065</ele>
        <time>2022-09-01T21:54:26.488Z</time>
      </trkpt>
      <trkpt lat="37.93919" lon="-2.79402">
        <ele>1573.809144</ele>
        <time>2022-09-01T21:54:46.848Z</time>
      </trkpt>
      <trkpt lat="37.93912" lon="-2.79419">
        <ele>1573.670276</ele>
        <time>2022-09-01T21:54:52.017Z</time>
      </trkpt>
      <trkpt lat="37.93906" lon="-2.79465">
        <ele>1573.336201</ele>
        <time>2022-09-01T21:55:04.177Z</time>
      </trkpt>
      <trkpt lat="37.93886" lon="-2.79506">
        <ele>1572.784755</ele>
        <time>2022-09-01T21:55:16.672Z</time>
      </trkpt>
      <trkpt lat="37.93872" lon="-2.7957">
        <ele>1571.798971</ele>
        <time>2022-09-01T21:55:33.644Z</time>
      </trkpt>
      <trkpt lat="37.93797" lon="-2.79715">
        <ele>1569.253764</ele>
        <time>2022-09-01T21:56:18.356Z</time>
      </trkpt>
      <trkpt lat="37.93777" lon="-2.79775">
        <ele>1568.3442</ele>
        <time>2022-09-01T21:56:35.305Z</time>
      </trkpt>
      <trkpt lat="37.93775" lon="-2.79818">
        <ele>1567.735995</ele>
        <time>2022-09-01T21:56:46.547Z</time>
      </trkpt>
      <trkpt lat="37.93789" lon="-2.79903">
        <ele>1566.544277</ele>
        <time>2022-09-01T21:57:08.999Z</time>
      </trkpt>
      <trkpt lat="37.93772" lon="-2.80009">
        <ele>1565.473044</ele>
        <time>2022-09-01T21:57:37.379Z</time>
      </trkpt>
      <trkpt lat="37.93773" lon="-2.80028">
        <ele>1565.28604</ele>
        <time>2022-09-01T21:57:42.386Z</time>
      </trkpt>
      <trkpt lat="37.93764" lon="-2.80057">
        <ele>1564.979588</ele>
        <time>2022-09-01T21:57:50.713Z</time>
      </trkpt>
      <trkpt lat="37.93771" lon="-2.80129">
        <ele>1564.394768</ele>
        <time>2022-09-01T21:58:10.687Z</time>
      </trkpt>
      <trkpt lat="37.9376" lon="-2.80172">
        <ele>1564.725393</ele>
        <time>2022-09-01T21:58:24.062Z</time>
      </trkpt>
      <trkpt lat="37.93744" lon="-2.80196">
        <ele>1564.954502</ele>
        <time>2022-09-01T21:58:33.892Z</time>
      </trkpt>
      <trkpt lat="37.937" lon="-2.80238">
        <ele>1565.452498</ele>
        <time>2022-09-01T21:58:56.721Z</time>
      </trkpt>
      <trkpt lat="37.93668" lon="-2.80258">
        <ele>1565.783801</ele>
        <time>2022-09-01T21:59:12.930Z</time>
      </trkpt>
      <trkpt lat="37.93638" lon="-2.80301">
        <ele>1566.605764</ele>
        <time>2022-09-01T21:59:34.563Z</time>
      </trkpt>
      <trkpt lat="37.9361" lon="-2.80329">
        <ele>1567.602828</ele>
        <time>2022-09-01T21:59:52.741Z</time>
      </trkpt>
      <trkpt lat="37.93566" lon="-2.8039">
        <ele>1569.401687</ele>
        <time>2022-09-01T22:00:26.514Z</time>
      </trkpt>
      <trkpt lat="37.93544" lon="-2.80434">
        <ele>1570.542241</ele>
        <time>2022-09-01T22:00:48.305Z</time>
      </trkpt>
      <trkpt lat="37.93461" lon="-2.80545">
        <ele>1573.987168</ele>
        <time>2022-09-01T22:01:51.382Z</time>
      </trkpt>
      <trkpt lat="37.9345" lon="-2.80556">
        <ele>1574.3846</ele>
        <time>2022-09-01T22:01:58.433Z</time>
      </trkpt>
      <trkpt lat="37.93363" lon="-2.80604">
        <ele>1577.028673</ele>
        <time>2022-09-01T22:02:45.695Z</time>
      </trkpt>
      <trkpt lat="37.9328" lon="-2.8064">
        <ele>1579.34614</ele>
        <time>2022-09-01T22:03:30.096Z</time>
      </trkpt>
      <trkpt lat="37.93248" lon="-2.80669">
        <ele>1580.37336</ele>
        <time>2022-09-01T22:03:49.797Z</time>
      </trkpt>
      <trkpt lat="37.9318" lon="-2.80705">
        <ele>1582.276411</ele>
        <time>2022-09-01T22:04:26.466Z</time>
      </trkpt>
      <trkpt lat="37.93132" lon="-2.80743">
        <ele>1583.741123</ele>
        <time>2022-09-01T22:04:54.892Z</time>
      </trkpt>
      <trkpt lat="37.93084" lon="-2.80741">
        <ele>1585.002635</ele>
        <time>2022-09-01T22:05:19.359Z</time>
      </trkpt>
      <trkpt lat="37.93038" lon="-2.80746">
        <ele>1586.132853</ele>
        <time>2022-09-01T22:05:42.259Z</time>
      </trkpt>
      <trkpt lat="37.92998" lon="-2.80741">
        <ele>1587.055794</ele>
        <time>2022-09-01T22:06:01.483Z</time>
      </trkpt>
      <trkpt lat="37.92945" lon="-2.80788">
        <ele>1588.561983</ele>
        <time>2022-09-01T22:06:32.496Z</time>
      </trkpt>
      <trkpt lat="37.92928" lon="-2.80795">
        <ele>1588.971688</ele>
        <time>2022-09-01T22:06:41.012Z</time>
      </trkpt>
      <trkpt lat="37.92881" lon="-2.80794">
        <ele>1590.144082</ele>
        <time>2022-09-01T22:07:03.772Z</time>
      </trkpt>
      <trkpt lat="37.92835" lon="-2.8085">
        <ele>1591.978836</ele>
        <time>2022-09-01T22:07:35.831Z</time>
      </trkpt>
      <trkpt lat="37.92815" lon="-2.80867">
        <ele>1592.684158</ele>
        <time>2022-09-01T22:07:48.377Z</time>
      </trkpt>
      <trkpt lat="37.92654" lon="-2.80901">
        <ele>1598.041179</ele>
        <time>2022-09-01T22:09:15.300Z</time>
      </trkpt>
      <trkpt lat="37.92549" lon="-2.80987">
        <ele>1602.667393</ele>
        <time>2022-09-01T22:10:26.785Z</time>
      </trkpt>
      <trkpt lat="37.92541" lon="-2.81034">
        <ele>1604.131341</ele>
        <time>2022-09-01T22:10:48.598Z</time>
      </trkpt>
      <trkpt lat="37.92514" lon="-2.81062">
        <ele>1605.467245</ele>
        <time>2022-09-01T22:11:07.981Z</time>
      </trkpt>
      <trkpt lat="37.92499" lon="-2.8111">
        <ele>1607.031294</ele>
        <time>2022-09-01T22:11:30.502Z</time>
      </trkpt>
      <trkpt lat="37.92475" lon="-2.81147">
        <ele>1608.504605</ele>
        <time>2022-09-01T22:11:51.481Z</time>
      </trkpt>
      <trkpt lat="37.9247" lon="-2.81164">
        <ele>1609.093347</ele>
        <time>2022-09-01T22:11:59.366Z</time>
      </trkpt>
      <trkpt lat="37.92473" lon="-2.81182">
        <ele>1609.687264</ele>
        <time>2022-09-01T22:12:07.315Z</time>
      </trkpt>
      <trkpt lat="37.92471" lon="-2.81197">
        <ele>1610.194762</ele>
        <time>2022-09-01T22:12:14.346Z</time>
      </trkpt>
      <trkpt lat="37.92443" lon="-2.81206">
        <ele>1611.386498</ele>
        <time>2022-09-01T22:12:30.664Z</time>
      </trkpt>
      <trkpt lat="37.92404" lon="-2.81234">
        <ele>1613.248584</ele>
        <time>2022-09-01T22:12:56.843Z</time>
      </trkpt>
      <trkpt lat="37.92391" lon="-2.813">
        <ele>1615.462404</ele>
        <time>2022-09-01T22:13:28.371Z</time>
      </trkpt>
      <trkpt lat="37.92352" lon="-2.81353">
        <ele>1617.964603</ele>
        <time>2022-09-01T22:14:03.336Z</time>
      </trkpt>
      <trkpt lat="37.92281" lon="-2.81507">
        <ele>1624.077352</ele>
        <time>2022-09-01T22:15:27.450Z</time>
      </trkpt>
      <trkpt lat="37.92252" lon="-2.8154">
        <ele>1625.250848</ele>
        <time>2022-09-01T22:15:47.774Z</time>
      </trkpt>
      <trkpt lat="37.92234" lon="-2.81606">
        <ele>1626.945593</ele>
        <time>2022-09-01T22:16:15.979Z</time>
      </trkpt>
      <trkpt lat="37.92233" lon="-2.81626">
        <ele>1627.416242</ele>
        <time>2022-09-01T22:16:23.889Z</time>
      </trkpt>
      <trkpt lat="37.92243" lon="-2.81664">
        <ele>1628.388052</ele>
        <time>2022-09-01T22:16:39.780Z</time>
      </trkpt>
      <trkpt lat="37.92273" lon="-2.81716">
        <ele>1630.063773</ele>
        <time>2022-09-01T22:17:05.404Z</time>
      </trkpt>
      <trkpt lat="37.92283" lon="-2.81778">
        <ele>1631.906736</ele>
        <time>2022-09-01T22:17:31.440Z</time>
      </trkpt>
      <trkpt lat="37.92298" lon="-2.81829">
        <ele>1633.50969</ele>
        <time>2022-09-01T22:17:55.172Z</time>
      </trkpt>
      <trkpt lat="37.92303" lon="-2.81867">
        <ele>1634.638986</ele>
        <time>2022-09-01T22:18:13.262Z</time>
      </trkpt>
      <trkpt lat="37.92329" lon="-2.81895">
        <ele>1635.882181</ele>
        <time>2022-09-01T22:18:33.655Z</time>
      </trkpt>
      <trkpt lat="37.92339" lon="-2.81927">
        <ele>1637.018079</ele>
        <time>2022-09-01T22:18:50.284Z</time>
      </trkpt>
      <trkpt lat="37.92312" lon="-2.82007">
        <ele>1639.891785</ele>
        <time>2022-09-01T22:19:32.558Z</time>
      </trkpt>
      <trkpt lat="37.92315" lon="-2.82022">
        <ele>1640.388527</ele>
        <time>2022-09-01T22:19:39.854Z</time>
      </trkpt>
      <trkpt lat="37.92332" lon="-2.8205">
        <ele>1641.569853</ele>
        <time>2022-09-01T22:19:55.687Z</time>
      </trkpt>
      <trkpt lat="37.92349" lon="-2.82132">
        <ele>1643.317469</ele>
        <time>2022-09-01T22:20:31.739Z</time>
      </trkpt>
      <trkpt lat="37.92348" lon="-2.82147">
        <ele>1643.259896</ele>
        <time>2022-09-01T22:20:37.749Z</time>
      </trkpt>
      <trkpt lat="37.92332" lon="-2.82186">
        <ele>1643.088562</ele>
        <time>2022-09-01T22:20:54.351Z</time>
      </trkpt>
      <trkpt lat="37.92333" lon="-2.82199">
        <ele>1643.036844</ele>
        <time>2022-09-01T22:20:58.795Z</time>
      </trkpt>
      <trkpt lat="37.92339" lon="-2.82214">
        <ele>1642.972103</ele>
        <time>2022-09-01T22:21:03.797Z</time>
      </trkpt>
      <trkpt lat="37.92357" lon="-2.82236">
        <ele>1642.850093</ele>
        <time>2022-09-01T22:21:12.351Z</time>
      </trkpt>
      <trkpt lat="37.92358" lon="-2.82246">
        <ele>1642.810877</ele>
        <time>2022-09-01T22:21:14.933Z</time>
      </trkpt>
      <trkpt lat="37.9235" lon="-2.82281">
        <ele>1642.669511</ele>
        <time>2022-09-01T22:21:23.889Z</time>
      </trkpt>
      <trkpt lat="37.92328" lon="-2.82343">
        <ele>1640.188004</ele>
        <time>2022-09-01T22:21:39.453Z</time>
      </trkpt>
      <trkpt lat="37.923" lon="-2.82373">
        <ele>1637.05281</ele>
        <time>2022-09-01T22:21:49.565Z</time>
      </trkpt>
      <trkpt lat="37.92292" lon="-2.82388">
        <ele>1635.897302</ele>
        <time>2022-09-01T22:21:53.126Z</time>
      </trkpt>
      <trkpt lat="37.92286" lon="-2.82431">
        <ele>1633.000784</ele>
        <time>2022-09-01T22:22:02.042Z</time>
      </trkpt>
      <trkpt lat="37.92297" lon="-2.82492">
        <ele>1628.868299</ele>
        <time>2022-09-01T22:22:14.655Z</time>
      </trkpt>
      <trkpt lat="37.92288" lon="-2.82537">
        <ele>1625.715598</ele>
        <time>2022-09-01T22:22:23.915Z</time>
      </trkpt>
      <trkpt lat="37.92272" lon="-2.82587">
        <ele>1622.001808</ele>
        <time>2022-09-01T22:22:34.654Z</time>
      </trkpt>
      <trkpt lat="37.92193" lon="-2.82689">
        <ele>1612.06862</ele>
        <time>2022-09-01T22:23:04.703Z</time>
      </trkpt>
      <trkpt lat="37.9217" lon="-2.8271">
        <ele>1610.269861</ele>
        <time>2022-09-01T22:23:12.652Z</time>
      </trkpt>
      <trkpt lat="37.92119" lon="-2.82738">
        <ele>1607.065737</ele>
        <time>2022-09-01T22:23:28.733Z</time>
      </trkpt>
      <trkpt lat="37.92075" lon="-2.82733">
        <ele>1604.531814</ele>
        <time>2022-09-01T22:23:41.203Z</time>
      </trkpt>
      <trkpt lat="37.92054" lon="-2.8274">
        <ele>1603.289511</ele>
        <time>2022-09-01T22:23:47.437Z</time>
      </trkpt>
      <trkpt lat="37.92025" lon="-2.82741">
        <ele>1601.648475</ele>
        <time>2022-09-01T22:23:55.626Z</time>
      </trkpt>
      <trkpt lat="37.91991" lon="-2.82717">
        <ele>1599.494847</ele>
        <time>2022-09-01T22:24:06.741Z</time>
      </trkpt>
      <trkpt lat="37.91975" lon="-2.8269">
        <ele>1598.065236</ele>
        <time>2022-09-01T22:24:14.019Z</time>
      </trkpt>
      <trkpt lat="37.91966" lon="-2.82684">
        <ele>1597.480728</ele>
        <time>2022-09-01T22:24:17.096Z</time>
      </trkpt>
      <trkpt lat="37.91959" lon="-2.82687">
        <ele>1597.071607</ele>
        <time>2022-09-01T22:24:19.178Z</time>
      </trkpt>
      <trkpt lat="37.91951" lon="-2.82697">
        <ele>1596.465166</ele>
        <time>2022-09-01T22:24:22.244Z</time>
      </trkpt>
      <trkpt lat="37.9192" lon="-2.82772">
        <ele>1592.793369</ele>
        <time>2022-09-01T22:24:41.300Z</time>
      </trkpt>
      <trkpt lat="37.91878" lon="-2.8278">
        <ele>1590.774949</ele>
        <time>2022-09-01T22:24:53.127Z</time>
      </trkpt>
      <trkpt lat="37.91808" lon="-2.82805">
        <ele>1587.908612</ele>
        <time>2022-09-01T22:25:14.642Z</time>
      </trkpt>
      <trkpt lat="37.9178" lon="-2.82821">
        <ele>1586.709277</ele>
        <time>2022-09-01T22:25:23.935Z</time>
      </trkpt>
      <trkpt lat="37.91756" lon="-2.82848">
        <ele>1585.452407</ele>
        <time>2022-09-01T22:25:33.815Z</time>
      </trkpt>
      <trkpt lat="37.91703" lon="-2.82866">
        <ele>1584.205503</ele>
        <time>2022-09-01T22:25:50.981Z</time>
      </trkpt>
      <trkpt lat="37.91676" lon="-2.82883">
        <ele>1583.966762</ele>
        <time>2022-09-01T22:26:00.858Z</time>
      </trkpt>
      <trkpt lat="37.91652" lon="-2.82924">
        <ele>1583.652574</ele>
        <time>2022-09-01T22:26:14.394Z</time>
      </trkpt>
      <trkpt lat="37.91619" lon="-2.82946">
        <ele>1583.362266</ele>
        <time>2022-09-01T22:26:28.479Z</time>
      </trkpt>
      <trkpt lat="37.91614" lon="-2.82969">
        <ele>1583.213224</ele>
        <time>2022-09-01T22:26:36.211Z</time>
      </trkpt>
      <trkpt lat="37.91613" lon="-2.8301">
        <ele>1583.18349</ele>
        <time>2022-09-01T22:26:50.259Z</time>
      </trkpt>
      <trkpt lat="37.91622" lon="-2.83135">
        <ele>1585.297834</ele>
        <time>2022-09-01T22:27:35.792Z</time>
      </trkpt>
      <trkpt lat="37.91613" lon="-2.832">
        <ele>1586.418994</ele>
        <time>2022-09-01T22:28:00.678Z</time>
      </trkpt>
      <trkpt lat="37.91623" lon="-2.83219">
        <ele>1586.80604</ele>
        <time>2022-09-01T22:28:10.249Z</time>
      </trkpt>
      <trkpt lat="37.91647" lon="-2.83236">
        <ele>1588.014856</ele>
        <time>2022-09-01T22:28:25.769Z</time>
      </trkpt>
      <trkpt lat="37.91657" lon="-2.83312">
        <ele>1590.841959</ele>
        <time>2022-09-01T22:29:02.882Z</time>
      </trkpt>
      <trkpt lat="37.91665" lon="-2.83328">
        <ele>1591.531703</ele>
        <time>2022-09-01T22:29:12.828Z</time>
      </trkpt>
      <trkpt lat="37.91679" lon="-2.83337">
        <ele>1592.242455</ele>
        <time>2022-09-01T22:29:22.869Z</time>
      </trkpt>
      <trkpt lat="37.91816" lon="-2.83304">
        <ele>1596.307056</ele>
        <time>2022-09-01T22:30:49.228Z</time>
      </trkpt>
      <trkpt lat="37.91842" lon="-2.83306">
        <ele>1596.67432</ele>
        <time>2022-09-01T22:30:59.920Z</time>
      </trkpt>
      <trkpt lat="37.91847" lon="-2.83311">
        <ele>1596.772298</ele>
        <time>2022-09-01T22:31:03.356Z</time>
      </trkpt>
      <trkpt lat="37.91884" lon="-2.83451">
        <ele>1596.526486</ele>
        <time>2022-09-01T22:31:41.389Z</time>
      </trkpt>
      <trkpt lat="37.9189" lon="-2.83463">
        <ele>1596.206327</ele>
        <time>2022-09-01T22:31:44.565Z</time>
      </trkpt>
      <trkpt lat="37.91927" lon="-2.83495">
        <ele>1594.943668</ele>
        <time>2022-09-01T22:31:57.795Z</time>
      </trkpt>
      <trkpt lat="37.9196" lon="-2.83506">
        <ele>1594.002262</ele>
        <time>2022-09-01T22:32:07.774Z</time>
      </trkpt>
      <trkpt lat="37.91976" lon="-2.83504">
        <ele>1593.524562</ele>
        <time>2022-09-01T22:32:13.361Z</time>
      </trkpt>
      <trkpt lat="37.92014" lon="-2.83544">
        <ele>1591.919291</ele>
        <time>2022-09-01T22:32:29.346Z</time>
      </trkpt>
      <trkpt lat="37.92047" lon="-2.83555">
        <ele>1590.582306</ele>
        <time>2022-09-01T22:32:41.537Z</time>
      </trkpt>
      <trkpt lat="37.92059" lon="-2.83554">
        <ele>1590.117314</ele>
        <time>2022-09-01T22:32:45.420Z</time>
      </trkpt>
      <trkpt lat="37.92088" lon="-2.83532">
        <ele>1588.755158</ele>
        <time>2022-09-01T22:32:57.108Z</time>
      </trkpt>
      <trkpt lat="37.92114" lon="-2.83523">
        <ele>1587.696387</ele>
        <time>2022-09-01T22:33:05.376Z</time>
      </trkpt>
      <trkpt lat="37.92151" lon="-2.83529">
        <ele>1586.231594</ele>
        <time>2022-09-01T22:33:15.767Z</time>
      </trkpt>
      <trkpt lat="37.92167" lon="-2.8355">
        <ele>1584.865683</ele>
        <time>2022-09-01T22:33:21.647Z</time>
      </trkpt>
      <trkpt lat="37.92196" lon="-2.8366">
        <ele>1576.357776</ele>
        <time>2022-09-01T22:33:44.991Z</time>
      </trkpt>
      <trkpt lat="37.92179" lon="-2.83701">
        <ele>1572.949713</ele>
        <time>2022-09-01T22:33:54.361Z</time>
      </trkpt>
      <trkpt lat="37.92182" lon="-2.83725">
        <ele>1571.187592</ele>
        <time>2022-09-01T22:33:59.083Z</time>
      </trkpt>
      <trkpt lat="37.92206" lon="-2.83745">
        <ele>1568.803866</ele>
        <time>2022-09-01T22:34:06.935Z</time>
      </trkpt>
      <trkpt lat="37.92213" lon="-2.83769">
        <ele>1568.341663</ele>
        <time>2022-09-01T22:34:12.573Z</time>
      </trkpt>
      <trkpt lat="37.92226" lon="-2.83784">
        <ele>1567.956265</ele>
        <time>2022-09-01T22:34:17.404Z</time>
      </trkpt>
      <trkpt lat="37.92258" lon="-2.83787">
        <ele>1567.216691</ele>
        <time>2022-09-01T22:34:27.377Z</time>
      </trkpt>
      <trkpt lat="37.92276" lon="-2.83782">
        <ele>1566.785571</ele>
        <time>2022-09-01T22:34:33.524Z</time>
      </trkpt>
      <trkpt lat="37.92314" lon="-2.8375">
        <ele>1565.751463</ele>
        <time>2022-09-01T22:34:50.211Z</time>
      </trkpt>
      <trkpt lat="37.92328" lon="-2.8375">
        <ele>1565.421055</ele>
        <time>2022-09-01T22:34:57.759Z</time>
      </trkpt>
      <trkpt lat="37.92365" lon="-2.83782">
        <ele>1564.314649</ele>
        <time>2022-09-01T22:35:16.912Z</time>
      </trkpt>
      <trkpt lat="37.92415" lon="-2.83814">
        <ele>1562.716483</ele>
        <time>2022-09-01T22:35:38.047Z</time>
      </trkpt>
      <trkpt lat="37.92433" lon="-2.83835">
        <ele>1562.021293</ele>
        <time>2022-09-01T22:35:45.803Z</time>
      </trkpt>
      <trkpt lat="37.92438" lon="-2.83852">
        <ele>1561.626468</ele>
        <time>2022-09-01T22:35:50.004Z</time>
      </trkpt>
      <trkpt lat="37.92434" lon="-2.83935">
        <ele>1559.768139</ele>
        <time>2022-09-01T22:36:09.101Z</time>
      </trkpt>
      <trkpt lat="37.92449" lon="-2.83982">
        <ele>1556.105133</ele>
        <time>2022-09-01T22:36:19.415Z</time>
      </trkpt>
      <trkpt lat="37.92461" lon="-2.84">
        <ele>1554.222741</ele>
        <time>2022-09-01T22:36:24.282Z</time>
      </trkpt>
      <trkpt lat="37.92487" lon="-2.84012">
        <ele>1551.476699</ele>
        <time>2022-09-01T22:36:31.399Z</time>
      </trkpt>
      <trkpt lat="37.92503" lon="-2.84028">
        <ele>1549.503882</ele>
        <time>2022-09-01T22:36:36.700Z</time>
      </trkpt>
      <trkpt lat="37.92506" lon="-2.84081">
        <ele>1545.396895</ele>
        <time>2022-09-01T22:36:47.267Z</time>
      </trkpt>
      <trkpt lat="37.92484" lon="-2.84105">
        <ele>1542.574712</ele>
        <time>2022-09-01T22:36:54.461Z</time>
      </trkpt>
      <trkpt lat="37.92447" lon="-2.84113">
        <ele>1538.905283</ele>
        <time>2022-09-01T22:37:04.034Z</time>
      </trkpt>
      <trkpt lat="37.9237" lon="-2.84161">
        <ele>1530.636222</ele>
        <time>2022-09-01T22:37:25.800Z</time>
      </trkpt>
      <trkpt lat="37.92337" lon="-2.84234">
        <ele>1524.456459</ele>
        <time>2022-09-01T22:37:43.532Z</time>
      </trkpt>
      <trkpt lat="37.92322" lon="-2.84251">
        <ele>1523.57093</ele>
        <time>2022-09-01T22:37:49.012Z</time>
      </trkpt>
      <trkpt lat="37.92252" lon="-2.84298">
        <ele>1520.055386</ele>
        <time>2022-09-01T22:38:12.009Z</time>
      </trkpt>
      <trkpt lat="37.92221" lon="-2.84304">
        <ele>1518.647479</ele>
        <time>2022-09-01T22:38:21.866Z</time>
      </trkpt>
      <trkpt lat="37.92201" lon="-2.84321">
        <ele>1517.563206</ele>
        <time>2022-09-01T22:38:29.626Z</time>
      </trkpt>
      <trkpt lat="37.92158" lon="-2.84312">
        <ele>1516.060434</ele>
        <time>2022-09-01T22:38:43.331Z</time>
      </trkpt>
      <trkpt lat="37.9207" lon="-2.84326">
        <ele>1513.710935</ele>
        <time>2022-09-01T22:39:11.384Z</time>
      </trkpt>
      <trkpt lat="37.92056" lon="-2.84337">
        <ele>1513.274494</ele>
        <time>2022-09-01T22:39:16.484Z</time>
      </trkpt>
      <trkpt lat="37.92028" lon="-2.8433">
        <ele>1512.509432</ele>
        <time>2022-09-01T22:39:25.409Z</time>
      </trkpt>
      <trkpt lat="37.91994" lon="-2.84342">
        <ele>1511.826846</ele>
        <time>2022-09-01T22:39:36.504Z</time>
      </trkpt>
      <trkpt lat="37.91962" lon="-2.84338">
        <ele>1511.628114</ele>
        <time>2022-09-01T22:39:46.762Z</time>
      </trkpt>
      <trkpt lat="37.91879" lon="-2.84353">
        <ele>1511.107607</ele>
        <time>2022-09-01T22:40:16.200Z</time>
      </trkpt>
      <trkpt lat="37.91817" lon="-2.84375">
        <ele>1511.086842</ele>
        <time>2022-09-01T22:40:43.134Z</time>
      </trkpt>
      <trkpt lat="37.91771" lon="-2.84408">
        <ele>1512.344335</ele>
        <time>2022-09-01T22:41:08.083Z</time>
      </trkpt>
      <trkpt lat="37.91655" lon="-2.84425">
        <ele>1515.072799</ele>
        <time>2022-09-01T22:42:08.767Z</time>
      </trkpt>
      <trkpt lat="37.91648" lon="-2.84438">
        <ele>1515.224862</ele>
        <time>2022-09-01T22:42:15.547Z</time>
      </trkpt>
      <trkpt lat="37.91647" lon="-2.8445">
        <ele>1515.338578</ele>
        <time>2022-09-01T22:42:20.555Z</time>
      </trkpt>
      <trkpt lat="37.91657" lon="-2.84505">
        <ele>1515.855415</ele>
        <time>2022-09-01T22:42:41.820Z</time>
      </trkpt>
      <trkpt lat="37.91653" lon="-2.84517">
        <ele>1515.977127</ele>
        <time>2022-09-01T22:42:46.670Z</time>
      </trkpt>
      <trkpt lat="37.91641" lon="-2.84531">
        <ele>1516.167849</ele>
        <time>2022-09-01T22:42:53.233Z</time>
      </trkpt>
      <trkpt lat="37.91604" lon="-2.84546">
        <ele>1516.613203</ele>
        <time>2022-09-01T22:43:07.943Z</time>
      </trkpt>
      <trkpt lat="37.91552" lon="-2.84546">
        <ele>1517.10665</ele>
        <time>2022-09-01T22:43:27.238Z</time>
      </trkpt>
      <trkpt lat="37.91542" lon="-2.84542">
        <ele>1517.025615</ele>
        <time>2022-09-01T22:43:31.116Z</time>
      </trkpt>
      <trkpt lat="37.91522" lon="-2.84522">
        <ele>1516.843077</ele>
        <time>2022-09-01T22:43:40.262Z</time>
      </trkpt>
      <trkpt lat="37.91511" lon="-2.84519">
        <ele>1516.755837</ele>
        <time>2022-09-01T22:43:44.280Z</time>
      </trkpt>
      <trkpt lat="37.91466" lon="-2.84551">
        <ele>1516.382317</ele>
        <time>2022-09-01T22:44:02.164Z</time>
      </trkpt>
      <trkpt lat="37.91447" lon="-2.84578">
        <ele>1516.17558</ele>
        <time>2022-09-01T22:44:12.039Z</time>
      </trkpt>
      <trkpt lat="37.91433" lon="-2.8459">
        <ele>1516.048908</ele>
        <time>2022-09-01T22:44:18.274Z</time>
      </trkpt>
      <trkpt lat="37.91388" lon="-2.84617">
        <ele>1515.565901</ele>
        <time>2022-09-01T22:44:34.920Z</time>
      </trkpt>
      <trkpt lat="37.91304" lon="-2.84613">
        <ele>1514.456671</ele>
        <time>2022-09-01T22:45:05.006Z</time>
      </trkpt>
      <trkpt lat="37.91255" lon="-2.8459">
        <ele>1513.769159</ele>
        <time>2022-09-01T22:45:22.456Z</time>
      </trkpt>
      <trkpt lat="37.91228" lon="-2.84597">
        <ele>1513.287316</ele>
        <time>2022-09-01T22:45:31.392Z</time>
      </trkpt>
      <trkpt lat="37.91181" lon="-2.84567">
        <ele>1511.497017</ele>
        <time>2022-09-01T22:45:47.290Z</time>
      </trkpt>
      <trkpt lat="37.91159" lon="-2.84569">
        <ele>1510.743201</ele>
        <time>2022-09-01T22:45:53.774Z</time>
      </trkpt>
      <trkpt lat="37.91119" lon="-2.84598">
        <ele>1509.147408</ele>
        <time>2022-09-01T22:46:07.402Z</time>
      </trkpt>
      <trkpt lat="37.91025" lon="-2.84639">
        <ele>1506.767456</ele>
        <time>2022-09-01T22:46:37.833Z</time>
      </trkpt>
      <trkpt lat="37.91003" lon="-2.84666">
        <ele>1506.419214</ele>
        <time>2022-09-01T22:46:47.871Z</time>
      </trkpt>
      <trkpt lat="37.90971" lon="-2.84682">
        <ele>1506.023706</ele>
        <time>2022-09-01T22:47:00.083Z</time>
      </trkpt>
      <trkpt lat="37.90924" lon="-2.8473">
        <ele>1505.335811</ele>
        <time>2022-09-01T22:47:24.047Z</time>
      </trkpt>
      <trkpt lat="37.90921" lon="-2.84741">
        <ele>1505.230225</ele>
        <time>2022-09-01T22:47:28.075Z</time>
      </trkpt>
      <trkpt lat="37.90901" lon="-2.84752">
        <ele>1505.022781</ele>
        <time>2022-09-01T22:47:37.588Z</time>
      </trkpt>
      <trkpt lat="37.90776" lon="-2.84737">
        <ele>1503.793903</ele>
        <time>2022-09-01T22:48:22.678Z</time>
      </trkpt>
      <trkpt lat="37.90749" lon="-2.8472">
        <ele>1503.503125</ele>
        <time>2022-09-01T22:48:31.902Z</time>
      </trkpt>
      <trkpt lat="37.90718" lon="-2.84736">
        <ele>1501.91915</ele>
        <time>2022-09-01T22:48:41.825Z</time>
      </trkpt>
      <trkpt lat="37.90663" lon="-2.84748">
        <ele>1499.108221</ele>
        <time>2022-09-01T22:48:57.986Z</time>
      </trkpt>
      <trkpt lat="37.90625" lon="-2.84762">
        <ele>1497.119891</ele>
        <time>2022-09-01T22:49:09.137Z</time>
      </trkpt>
      <trkpt lat="37.90605" lon="-2.84778">
        <ele>1495.917741</ele>
        <time>2022-09-01T22:49:15.723Z</time>
      </trkpt>
      <trkpt lat="37.90592" lon="-2.84781">
        <ele>1495.229186</ele>
        <time>2022-09-01T22:49:19.481Z</time>
      </trkpt>
      <trkpt lat="37.9058" lon="-2.84775">
        <ele>1494.607729</ele>
        <time>2022-09-01T22:49:22.869Z</time>
      </trkpt>
      <trkpt lat="37.90527" lon="-2.8469">
        <ele>1490.016345</ele>
        <time>2022-09-01T22:49:46.917Z</time>
      </trkpt>
      <trkpt lat="37.9051" lon="-2.84682">
        <ele>1489.029295</ele>
        <time>2022-09-01T22:49:52.172Z</time>
      </trkpt>
      <trkpt lat="37.90498" lon="-2.84687">
        <ele>1488.3567</ele>
        <time>2022-09-01T22:49:55.784Z</time>
      </trkpt>
      <trkpt lat="37.90447" lon="-2.84733">
        <ele>1485.018051</ele>
        <time>2022-09-01T22:50:13.825Z</time>
      </trkpt>
      <trkpt lat="37.90411" lon="-2.84752">
        <ele>1483.728952</ele>
        <time>2022-09-01T22:50:25.032Z</time>
      </trkpt>
      <trkpt lat="37.90327" lon="-2.84779">
        <ele>1481.151381</ele>
        <time>2022-09-01T22:50:50.657Z</time>
      </trkpt>
      <trkpt lat="37.90299" lon="-2.84775">
        <ele>1480.292081</ele>
        <time>2022-09-01T22:50:59.540Z</time>
      </trkpt>
      <trkpt lat="37.90132" lon="-2.84857">
        <ele>1481.75022</ele>
        <time>2022-09-01T22:52:17.866Z</time>
      </trkpt>
      <trkpt lat="37.90095" lon="-2.84882">
        <ele>1482.234563</ele>
        <time>2022-09-01T22:52:41.976Z</time>
      </trkpt>
      <trkpt lat="37.90077" lon="-2.84863">
        <ele>1482.154551</ele>
        <time>2022-09-01T22:52:54.790Z</time>
      </trkpt>
      <trkpt lat="37.9004" lon="-2.8486">
        <ele>1482.029796</ele>
        <time>2022-09-01T22:53:13.555Z</time>
      </trkpt>
      <trkpt lat="37.90033" lon="-2.84855">
        <ele>1482.000744</ele>
        <time>2022-09-01T22:53:17.718Z</time>
      </trkpt>
      <trkpt lat="37.9002" lon="-2.84843">
        <ele>1481.946961</ele>
        <time>2022-09-01T22:53:24.892Z</time>
      </trkpt>
      <trkpt lat="37.90016" lon="-2.8482">
        <ele>1481.885254</ele>
        <time>2022-09-01T22:53:32.315Z</time>
      </trkpt>
      <trkpt lat="37.90026" lon="-2.84767">
        <ele>1481.739495</ele>
        <time>2022-09-01T22:53:48.626Z</time>
      </trkpt>
      <trkpt lat="37.90029" lon="-2.84699">
        <ele>1477.812624</ele>
        <time>2022-09-01T22:54:03.047Z</time>
      </trkpt>
      <trkpt lat="37.90039" lon="-2.84676">
        <ele>1475.165281</ele>
        <time>2022-09-01T22:54:08.185Z</time>
      </trkpt>
      <trkpt lat="37.90033" lon="-2.84634">
        <ele>1470.96071</ele>
        <time>2022-09-01T22:54:16.471Z</time>
      </trkpt>
      <trkpt lat="37.90039" lon="-2.84592">
        <ele>1466.809332</ele>
        <time>2022-09-01T22:54:24.506Z</time>
      </trkpt>
      <trkpt lat="37.90035" lon="-2.84562">
        <ele>1463.780005</ele>
        <time>2022-09-01T22:54:30.568Z</time>
      </trkpt>
      <trkpt lat="37.9004" lon="-2.8455">
        <ele>1462.363338</ele>
        <time>2022-09-01T22:54:33.198Z</time>
      </trkpt>
      <trkpt lat="37.90121" lon="-2.84445">
        <ele>1445.271623</ele>
        <time>2022-09-01T22:55:01.246Z</time>
      </trkpt>
      <trkpt lat="37.90124" lon="-2.8443">
        <ele>1443.459141</ele>
        <time>2022-09-01T22:55:04.221Z</time>
      </trkpt>
      <trkpt lat="37.90115" lon="-2.84416">
        <ele>1441.314296</ele>
        <time>2022-09-01T22:55:07.433Z</time>
      </trkpt>
      <trkpt lat="37.90099" lon="-2.84412">
        <ele>1438.77263</ele>
        <time>2022-09-01T22:55:11.405Z</time>
      </trkpt>
      <trkpt lat="37.90075" lon="-2.84449">
        <ele>1432.887209</ele>
        <time>2022-09-01T22:55:20.688Z</time>
      </trkpt>
      <trkpt lat="37.9005" lon="-2.84441">
        <ele>1428.208515</ele>
        <time>2022-09-01T22:55:27.001Z</time>
      </trkpt>
      <trkpt lat="37.90031" lon="-2.84422">
        <ele>1423.622466</ele>
        <time>2022-09-01T22:55:32.700Z</time>
      </trkpt>
      <trkpt lat="37.90019" lon="-2.84392">
        <ele>1418.51779</ele>
        <time>2022-09-01T22:55:39.012Z</time>
      </trkpt>
      <trkpt lat="37.90008" lon="-2.8438">
        <ele>1415.687684</ele>
        <time>2022-09-01T22:55:42.463Z</time>
      </trkpt>
      <trkpt lat="37.90003" lon="-2.84344">
        <ele>1410.158832</ele>
        <time>2022-09-01T22:55:49.259Z</time>
      </trkpt>
      <trkpt lat="37.89945" lon="-2.84316">
        <ele>1398.337682</ele>
        <time>2022-09-01T22:56:03.479Z</time>
      </trkpt>
      <trkpt lat="37.8993" lon="-2.84315">
        <ele>1395.204524</ele>
        <time>2022-09-01T22:56:07.088Z</time>
      </trkpt>
      <trkpt lat="37.89799" lon="-2.84322">
        <ele>1367.888619</ele>
        <time>2022-09-01T22:56:37.289Z</time>
      </trkpt>
      <trkpt lat="37.89725" lon="-2.84357">
        <ele>1354.735603</ele>
        <time>2022-09-01T22:56:56.073Z</time>
      </trkpt>
      <trkpt lat="37.89672" lon="-2.84353">
        <ele>1348.303995</ele>
        <time>2022-09-01T22:57:09.274Z</time>
      </trkpt>
      <trkpt lat="37.89637" lon="-2.84368">
        <ele>1343.867211</ele>
        <time>2022-09-01T22:57:18.861Z</time>
      </trkpt>
      <trkpt lat="37.89574" lon="-2.8443">
        <ele>1335.295579</ele>
        <time>2022-09-01T22:57:39.642Z</time>
      </trkpt>
      <trkpt lat="37.89567" lon="-2.84427">
        <ele>1334.639792</ele>
        <time>2022-09-01T22:57:41.660Z</time>
      </trkpt>
      <trkpt lat="37.89569" lon="-2.84411">
        <ele>1333.563341</ele>
        <time>2022-09-01T22:57:45.017Z</time>
      </trkpt>
      <trkpt lat="37.89588" lon="-2.84356">
        <ele>1329.534447</ele>
        <time>2022-09-01T22:57:57.871Z</time>
      </trkpt>
      <trkpt lat="37.89584" lon="-2.843">
        <ele>1325.781818</ele>
        <time>2022-09-01T22:58:09.759Z</time>
      </trkpt>
      <trkpt lat="37.89593" lon="-2.84278">
        <ele>1324.142978</ele>
        <time>2022-09-01T22:58:14.899Z</time>
      </trkpt>
      <trkpt lat="37.89652" lon="-2.84221">
        <ele>1317.829359</ele>
        <time>2022-09-01T22:58:34.075Z</time>
      </trkpt>
      <trkpt lat="37.89689" lon="-2.84215">
        <ele>1314.599987</ele>
        <time>2022-09-01T22:58:43.774Z</time>
      </trkpt>
      <trkpt lat="37.89704" lon="-2.84166">
        <ele>1311.067442</ele>
        <time>2022-09-01T22:58:54.466Z</time>
      </trkpt>
      <trkpt lat="37.8973" lon="-2.84115">
        <ele>1306.933201</ele>
        <time>2022-09-01T22:59:07.496Z</time>
      </trkpt>
      <trkpt lat="37.89746" lon="-2.84101">
        <ele>1306.238161</ele>
        <time>2022-09-01T22:59:12.899Z</time>
      </trkpt>
      <trkpt lat="37.89746" lon="-2.8408">
        <ele>1305.6665</ele>
        <time>2022-09-01T22:59:17.568Z</time>
      </trkpt>
      <trkpt lat="37.89765" lon="-2.84055">
        <ele>1304.666589</ele>
        <time>2022-09-01T22:59:25.785Z</time>
      </trkpt>
      <trkpt lat="37.89776" lon="-2.84027">
        <ele>1303.789031</ele>
        <time>2022-09-01T22:59:33.241Z</time>
      </trkpt>
      <trkpt lat="37.898" lon="-2.84016">
        <ele>1302.889183</ele>
        <time>2022-09-01T22:59:40.981Z</time>
      </trkpt>
      <trkpt lat="37.89829" lon="-2.84022">
        <ele>1301.820789</ele>
        <time>2022-09-01T22:59:50.438Z</time>
      </trkpt>
      <trkpt lat="37.8987" lon="-2.83969">
        <ele>1300.448165</ele>
        <time>2022-09-01T23:00:10.108Z</time>
      </trkpt>
      <trkpt lat="37.89865" lon="-2.83961">
        <ele>1300.425857</ele>
        <time>2022-09-01T23:00:12.989Z</time>
      </trkpt>
      <trkpt lat="37.89768" lon="-2.83957">
        <ele>1300.162233</ele>
        <time>2022-09-01T23:00:50.234Z</time>
      </trkpt>
      <trkpt lat="37.89758" lon="-2.83963">
        <ele>1300.132324</ele>
        <time>2022-09-01T23:00:54.336Z</time>
      </trkpt>
      <trkpt lat="37.89739" lon="-2.84008">
        <ele>1300.021765</ele>
        <time>2022-09-01T23:01:09.313Z</time>
      </trkpt>
      <trkpt lat="37.89709" lon="-2.84021">
        <ele>1299.607696</ele>
        <time>2022-09-01T23:01:20.690Z</time>
      </trkpt>
      <trkpt lat="37.89669" lon="-2.84072">
        <ele>1298.821063</ele>
        <time>2022-09-01T23:01:40.509Z</time>
      </trkpt>
      <trkpt lat="37.896" lon="-2.84101">
        <ele>1297.819237</ele>
        <time>2022-09-01T23:02:04.318Z</time>
      </trkpt>
      <trkpt lat="37.89562" lon="-2.84128">
        <ele>1296.911874</ele>
        <time>2022-09-01T23:02:17.953Z</time>
      </trkpt>
      <trkpt lat="37.89547" lon="-2.8415">
        <ele>1296.275681</ele>
        <time>2022-09-01T23:02:25.167Z</time>
      </trkpt>
      <trkpt lat="37.89528" lon="-2.84167">
        <ele>1295.652623</ele>
        <time>2022-09-01T23:02:32.144Z</time>
      </trkpt>
      <trkpt lat="37.89487" lon="-2.84189">
        <ele>1294.44011</ele>
        <time>2022-09-01T23:02:45.925Z</time>
      </trkpt>
      <trkpt lat="37.89453" lon="-2.84287">
        <ele>1292.082021</ele>
        <time>2022-09-01T23:03:12.874Z</time>
      </trkpt>
      <trkpt lat="37.89424" lon="-2.84306">
        <ele>1291.103683</ele>
        <time>2022-09-01T23:03:23.706Z</time>
      </trkpt>
      <trkpt lat="37.89401" lon="-2.84357">
        <ele>1289.736637</ele>
        <time>2022-09-01T23:03:38.165Z</time>
      </trkpt>
      <trkpt lat="37.89357" lon="-2.84395">
        <ele>1288.160177</ele>
        <time>2022-09-01T23:03:54.244Z</time>
      </trkpt>
      <trkpt lat="37.89325" lon="-2.84431">
        <ele>1286.684709</ele>
        <time>2022-09-01T23:04:07.353Z</time>
      </trkpt>
      <trkpt lat="37.89311" lon="-2.84458">
        <ele>1285.60543</ele>
        <time>2022-09-01T23:04:14.843Z</time>
      </trkpt>
      <trkpt lat="37.89291" lon="-2.84517">
        <ele>1283.409855</ele>
        <time>2022-09-01T23:04:29.989Z</time>
      </trkpt>
      <trkpt lat="37.8928" lon="-2.84535">
        <ele>1282.608563</ele>
        <time>2022-09-01T23:04:35.466Z</time>
      </trkpt>
      <trkpt lat="37.89211" lon="-2.84604">
        <ele>1278.786615</ele>
        <time>2022-09-01T23:05:00.652Z</time>
      </trkpt>
      <trkpt lat="37.8921" lon="-2.84618">
        <ele>1278.284033</ele>
        <time>2022-09-01T23:05:03.886Z</time>
      </trkpt>
      <trkpt lat="37.89224" lon="-2.84654">
        <ele>1276.885992</ele>
        <time>2022-09-01T23:05:12.999Z</time>
      </trkpt>
      <trkpt lat="37.89224" lon="-2.84716">
        <ele>1274.731076</ele>
        <time>2022-09-01T23:05:27.509Z</time>
      </trkpt>
      <trkpt lat="37.89216" lon="-2.84737">
        <ele>1273.91604</ele>
        <time>2022-09-01T23:05:33.062Z</time>
      </trkpt>
      <trkpt lat="37.89183" lon="-2.84762">
        <ele>1272.184476</ele>
        <time>2022-09-01T23:05:44.632Z</time>
      </trkpt>
      <trkpt lat="37.89145" lon="-2.848">
        <ele>1270.007486</ele>
        <time>2022-09-01T23:05:58.820Z</time>
      </trkpt>
      <trkpt lat="37.89121" lon="-2.84813">
        <ele>1268.828401</ele>
        <time>2022-09-01T23:06:06.336Z</time>
      </trkpt>
      <trkpt lat="37.89109" lon="-2.8484">
        <ele>1267.734422</ele>
        <time>2022-09-01T23:06:13.290Z</time>
      </trkpt>
      <trkpt lat="37.89109" lon="-2.84869">
        <ele>1266.672877</ele>
        <time>2022-09-01T23:06:19.940Z</time>
      </trkpt>
      <trkpt lat="37.89101" lon="-2.84873">
        <ele>1266.259603</ele>
        <time>2022-09-01T23:06:22.586Z</time>
      </trkpt>
      <trkpt lat="37.89087" lon="-2.84871">
        <ele>1265.625105</ele>
        <time>2022-09-01T23:06:26.588Z</time>
      </trkpt>
      <trkpt lat="37.89067" lon="-2.84887">
        <ele>1264.5158</ele>
        <time>2022-09-01T23:06:33.792Z</time>
      </trkpt>
      <trkpt lat="37.89057" lon="-2.84907">
        <ele>1263.690961</ele>
        <time>2022-09-01T23:06:39.104Z</time>
      </trkpt>
      <trkpt lat="37.89052" lon="-2.84937">
        <ele>1262.840389</ele>
        <time>2022-09-01T23:06:46.558Z</time>
      </trkpt>
      <trkpt lat="37.8902" lon="-2.84982">
        <ele>1261.427113</ele>
        <time>2022-09-01T23:07:01.096Z</time>
      </trkpt>
      <trkpt lat="37.89" lon="-2.84998">
        <ele>1260.730576</ele>
        <time>2022-09-01T23:07:08.348Z</time>
      </trkpt>
      <trkpt lat="37.88958" lon="-2.85011">
        <ele>1259.479629</ele>
        <time>2022-09-01T23:07:21.644Z</time>
      </trkpt>
      <trkpt lat="37.88904" lon="-2.85049">
        <ele>1257.836873</ele>
        <time>2022-09-01T23:07:41.792Z</time>
      </trkpt>
      <trkpt lat="37.88884" lon="-2.85056">
        <ele>1257.491245</ele>
        <time>2022-09-01T23:07:49.040Z</time>
      </trkpt>
      <trkpt lat="37.88845" lon="-2.85088">
        <ele>1256.74364</ele>
        <time>2022-09-01T23:08:05.104Z</time>
      </trkpt>
      <trkpt lat="37.88795" lon="-2.8514">
        <ele>1255.694421</ele>
        <time>2022-09-01T23:08:26.915Z</time>
      </trkpt>
      <trkpt lat="37.88751" lon="-2.8521">
        <ele>1254.024838</ele>
        <time>2022-09-01T23:08:49.524Z</time>
      </trkpt>
      <trkpt lat="37.88712" lon="-2.85253">
        <ele>1252.42057</ele>
        <time>2022-09-01T23:09:05.649Z</time>
      </trkpt>
      <trkpt lat="37.88692" lon="-2.85265">
        <ele>1251.716363</ele>
        <time>2022-09-01T23:09:12.568Z</time>
      </trkpt>
      <trkpt lat="37.88631" lon="-2.85274">
        <ele>1249.814323</ele>
        <time>2022-09-01T23:09:30.945Z</time>
      </trkpt>
      <trkpt lat="37.88574" lon="-2.85245">
        <ele>1247.888324</ele>
        <time>2022-09-01T23:09:49.206Z</time>
      </trkpt>
      <trkpt lat="37.88521" lon="-2.85291">
        <ele>1245.84823</ele>
        <time>2022-09-01T23:10:08.854Z</time>
      </trkpt>
      <trkpt lat="37.88481" lon="-2.85333">
        <ele>1244.209246</ele>
        <time>2022-09-01T23:10:25.065Z</time>
      </trkpt>
      <trkpt lat="37.88449" lon="-2.85356">
        <ele>1243.614312</ele>
        <time>2022-09-01T23:10:36.945Z</time>
      </trkpt>
      <trkpt lat="37.8843" lon="-2.85381">
        <ele>1243.35651</ele>
        <time>2022-09-01T23:10:46.180Z</time>
      </trkpt>
      <trkpt lat="37.8841" lon="-2.85393">
        <ele>1243.150231</ele>
        <time>2022-09-01T23:10:53.739Z</time>
      </trkpt>
      <trkpt lat="37.88375" lon="-2.85397">
        <ele>1242.82912</ele>
        <time>2022-09-01T23:11:05.945Z</time>
      </trkpt>
      <trkpt lat="37.88334" lon="-2.85417">
        <ele>1242.412772</ele>
        <time>2022-09-01T23:11:22.200Z</time>
      </trkpt>
      <trkpt lat="37.88292" lon="-2.85422">
        <ele>1242.038181</ele>
        <time>2022-09-01T23:11:37.899Z</time>
      </trkpt>
      <trkpt lat="37.88257" lon="-2.85432">
        <ele>1241.736124</ele>
        <time>2022-09-01T23:11:51.374Z</time>
      </trkpt>
      <trkpt lat="37.882" lon="-2.85428">
        <ele>1241.253722</ele>
        <time>2022-09-01T23:12:12.167Z</time>
      </trkpt>
      <trkpt lat="37.8818" lon="-2.8544">
        <ele>1241.069655</ele>
        <time>2022-09-01T23:12:19.899Z</time>
      </trkpt>
      <trkpt lat="37.88139" lon="-2.85481">
        <ele>1240.510929</ele>
        <time>2022-09-01T23:12:37.047Z</time>
      </trkpt>
      <trkpt lat="37.88061" lon="-2.85488">
        <ele>1237.267319</ele>
        <time>2022-09-01T23:13:01.042Z</time>
      </trkpt>
      <trkpt lat="37.88034" lon="-2.85515">
        <ele>1235.861193</ele>
        <time>2022-09-01T23:13:10.956Z</time>
      </trkpt>
      <trkpt lat="37.88009" lon="-2.85558">
        <ele>1234.110657</ele>
        <time>2022-09-01T23:13:22.999Z</time>
      </trkpt>
      <trkpt lat="37.87955" lon="-2.85582">
        <ele>1231.792942</ele>
        <time>2022-09-01T23:13:39.300Z</time>
      </trkpt>
      <trkpt lat="37.87905" lon="-2.85568">
        <ele>1229.722157</ele>
        <time>2022-09-01T23:13:54.098Z</time>
      </trkpt>
      <trkpt lat="37.87879" lon="-2.85545">
        <ele>1228.471334</ele>
        <time>2022-09-01T23:14:03.305Z</time>
      </trkpt>
      <trkpt lat="37.87866" lon="-2.8554">
        <ele>1227.89678</ele>
        <time>2022-09-01T23:14:07.657Z</time>
      </trkpt>
      <trkpt lat="37.87815" lon="-2.85545">
        <ele>1225.957956</ele>
        <time>2022-09-01T23:14:23.670Z</time>
      </trkpt>
      <trkpt lat="37.87755" lon="-2.85528">
        <ele>1225.236042</ele>
        <time>2022-09-01T23:14:43.772Z</time>
      </trkpt>
      <trkpt lat="37.87662" lon="-2.85543">
        <ele>1224.130204</ele>
        <time>2022-09-01T23:15:17.325Z</time>
      </trkpt>
      <trkpt lat="37.87616" lon="-2.85566">
        <ele>1223.444064</ele>
        <time>2022-09-01T23:15:35.170Z</time>
      </trkpt>
      <trkpt lat="37.87586" lon="-2.85617">
        <ele>1222.663341</ele>
        <time>2022-09-01T23:15:52.723Z</time>
      </trkpt>
      <trkpt lat="37.87552" lon="-2.85654">
        <ele>1221.980383</ele>
        <time>2022-09-01T23:16:07.320Z</time>
      </trkpt>
      <trkpt lat="37.87518" lon="-2.8568">
        <ele>1221.357923</ele>
        <time>2022-09-01T23:16:20.170Z</time>
      </trkpt>
      <trkpt lat="37.87503" lon="-2.85698">
        <ele>1220.947685</ele>
        <time>2022-09-01T23:16:26.700Z</time>
      </trkpt>
      <trkpt lat="37.87435" lon="-2.85817">
        <ele>1216.921908</ele>
        <time>2022-09-01T23:17:02.433Z</time>
      </trkpt>
      <trkpt lat="37.87416" lon="-2.85829">
        <ele>1216.146217</ele>
        <time>2022-09-01T23:17:09.116Z</time>
      </trkpt>
      <trkpt lat="37.87372" lon="-2.8584">
        <ele>1214.401583</ele>
        <time>2022-09-01T23:17:22.108Z</time>
      </trkpt>
      <trkpt lat="37.87345" lon="-2.85866">
        <ele>1212.274458</ele>
        <time>2022-09-01T23:17:31.675Z</time>
      </trkpt>
      <trkpt lat="37.87331" lon="-2.85894">
        <ele>1210.61308</ele>
        <time>2022-09-01T23:17:39.116Z</time>
      </trkpt>
      <trkpt lat="37.87334" lon="-2.85984">
        <ele>1206.126775</ele>
        <time>2022-09-01T23:17:58.795Z</time>
      </trkpt>
      <trkpt lat="37.8733" lon="-2.8601">
        <ele>1204.801946</ele>
        <time>2022-09-01T23:18:04.410Z</time>
      </trkpt>
      <trkpt lat="37.87325" lon="-2.86023">
        <ele>1204.111223</ele>
        <time>2022-09-01T23:18:07.496Z</time>
      </trkpt>
      <trkpt lat="37.87274" lon="-2.86089">
        <ele>1199.152649</ele>
        <time>2022-09-01T23:18:26.978Z</time>
      </trkpt>
      <trkpt lat="37.87268" lon="-2.86107">
        <ele>1198.071597</ele>
        <time>2022-09-01T23:18:31.098Z</time>
      </trkpt>
      <trkpt lat="37.87269" lon="-2.8615">
        <ele>1195.730678</ele>
        <time>2022-09-01T23:18:40.160Z</time>
      </trkpt>
      <trkpt lat="37.87289" lon="-2.86226">
        <ele>1191.366104</ele>
        <time>2022-09-01T23:18:57.700Z</time>
      </trkpt>
      <trkpt lat="37.87288" lon="-2.86269">
        <ele>1189.877945</ele>
        <time>2022-09-01T23:19:07.808Z</time>
      </trkpt>
      <trkpt lat="37.87284" lon="-2.86286">
        <ele>1189.336104</ele>
        <time>2022-09-01T23:19:11.922Z</time>
      </trkpt>
      <trkpt lat="37.87275" lon="-2.86299">
        <ele>1188.802064</ele>
        <time>2022-09-01T23:19:16.001Z</time>
      </trkpt>
      <trkpt lat="37.87219" lon="-2.86348">
        <ele>1186.126127</ele>
        <time>2022-09-01T23:19:37.124Z</time>
      </trkpt>
      <trkpt lat="37.87207" lon="-2.86383">
        <ele>1184.947344</ele>
        <time>2022-09-01T23:19:46.267Z</time>
      </trkpt>
      <trkpt lat="37.87216" lon="-2.86437">
        <ele>1183.136692</ele>
        <time>2022-09-01T23:19:59.371Z</time>
      </trkpt>
      <trkpt lat="37.87253" lon="-2.86498">
        <ele>1180.500454</ele>
        <time>2022-09-01T23:20:17.473Z</time>
      </trkpt>
      <trkpt lat="37.87265" lon="-2.86557">
        <ele>1178.404886</ele>
        <time>2022-09-01T23:20:31.494Z</time>
      </trkpt>
      <trkpt lat="37.87291" lon="-2.86629">
        <ele>1175.853346</ele>
        <time>2022-09-01T23:20:49.366Z</time>
      </trkpt>
      <trkpt lat="37.87293" lon="-2.86665">
        <ele>1175.002461</ele>
        <time>2022-09-01T23:20:57.627Z</time>
      </trkpt>
      <trkpt lat="37.87307" lon="-2.86713">
        <ele>1173.791614</ele>
        <time>2022-09-01T23:21:09.473Z</time>
      </trkpt>
      <trkpt lat="37.87304" lon="-2.86763">
        <ele>1172.604227</ele>
        <time>2022-09-01T23:21:21.864Z</time>
      </trkpt>
      <trkpt lat="37.87289" lon="-2.86806">
        <ele>1171.502325</ele>
        <time>2022-09-01T23:21:34.188Z</time>
      </trkpt>
      <trkpt lat="37.87237" lon="-2.86873">
        <ele>1170.58989</ele>
        <time>2022-09-01T23:22:01.121Z</time>
      </trkpt>
      <trkpt lat="37.87211" lon="-2.86958">
        <ele>1170.293619</ele>
        <time>2022-09-01T23:22:27.583Z</time>
      </trkpt>
      <trkpt lat="37.87159" lon="-2.86982">
        <ele>1170.064922</ele>
        <time>2022-09-01T23:22:47.909Z</time>
      </trkpt>
      <trkpt lat="37.87142" lon="-2.86998">
        <ele>1169.557007</ele>
        <time>2022-09-01T23:22:55.379Z</time>
      </trkpt>
      <trkpt lat="37.87113" lon="-2.87066">
        <ele>1168.017958</ele>
        <time>2022-09-01T23:23:15.463Z</time>
      </trkpt>
      <trkpt lat="37.87106" lon="-2.87092">
        <ele>1167.451682</ele>
        <time>2022-09-01T23:23:22.427Z</time>
      </trkpt>
      <trkpt lat="37.87087" lon="-2.87117">
        <ele>1166.774259</ele>
        <time>2022-09-01T23:23:30.568Z</time>
      </trkpt>
      <trkpt lat="37.87088" lon="-2.87174">
        <ele>1165.633702</ele>
        <time>2022-09-01T23:23:43.922Z</time>
      </trkpt>
      <trkpt lat="37.87111" lon="-2.87228">
        <ele>1163.862094</ele>
        <time>2022-09-01T23:23:58.259Z</time>
      </trkpt>
      <trkpt lat="37.87105" lon="-2.87246">
        <ele>1163.281032</ele>
        <time>2022-09-01T23:24:02.833Z</time>
      </trkpt>
      <trkpt lat="37.87109" lon="-2.87287">
        <ele>1162.056587</ele>
        <time>2022-09-01T23:24:12.542Z</time>
      </trkpt>
      <trkpt lat="37.87104" lon="-2.87322">
        <ele>1160.997244</ele>
        <time>2022-09-01T23:24:20.958Z</time>
      </trkpt>
      <trkpt lat="37.87136" lon="-2.87374">
        <ele>1159.011677</ele>
        <time>2022-09-01T23:24:36.836Z</time>
      </trkpt>
      <trkpt lat="37.87144" lon="-2.8742">
        <ele>1157.587735</ele>
        <time>2022-09-01T23:24:48.305Z</time>
      </trkpt>
      <trkpt lat="37.8716" lon="-2.87452">
        <ele>1156.439665</ele>
        <time>2022-09-01T23:24:57.491Z</time>
      </trkpt>
      <trkpt lat="37.87163" lon="-2.87472">
        <ele>1155.835058</ele>
        <time>2022-09-01T23:25:02.356Z</time>
      </trkpt>
      <trkpt lat="37.8716" lon="-2.87494">
        <ele>1155.156147</ele>
        <time>2022-09-01T23:25:07.713Z</time>
      </trkpt>
      <trkpt lat="37.87137" lon="-2.87514">
        <ele>1154.063137</ele>
        <time>2022-09-01T23:25:16.346Z</time>
      </trkpt>
      <trkpt lat="37.87123" lon="-2.87547">
        <ele>1152.914855</ele>
        <time>2022-09-01T23:25:25.338Z</time>
      </trkpt>
      <trkpt lat="37.87109" lon="-2.87561">
        <ele>1152.270491</ele>
        <time>2022-09-01T23:25:30.290Z</time>
      </trkpt>
      <trkpt lat="37.87104" lon="-2.8758">
        <ele>1151.584006</ele>
        <time>2022-09-01T23:25:34.988Z</time>
      </trkpt>
      <trkpt lat="37.87099" lon="-2.87647">
        <ele>1148.42209</ele>
        <time>2022-09-01T23:25:50.144Z</time>
      </trkpt>
      <trkpt lat="37.87077" lon="-2.87711">
        <ele>1145.189428</ele>
        <time>2022-09-01T23:26:05.262Z</time>
      </trkpt>
      <trkpt lat="37.87081" lon="-2.87832">
        <ele>1140.15908</ele>
        <time>2022-09-01T23:26:31.496Z</time>
      </trkpt>
      <trkpt lat="37.87074" lon="-2.87861">
        <ele>1139.274886</ele>
        <time>2022-09-01T23:26:38.428Z</time>
      </trkpt>
      <trkpt lat="37.87063" lon="-2.87886">
        <ele>1138.443266</ele>
        <time>2022-09-01T23:26:44.956Z</time>
      </trkpt>
      <trkpt lat="37.87048" lon="-2.87901">
        <ele>1137.744713</ele>
        <time>2022-09-01T23:26:50.683Z</time>
      </trkpt>
      <trkpt lat="37.87035" lon="-2.87902">
        <ele>1137.259796</ele>
        <time>2022-09-01T23:26:54.621Z</time>
      </trkpt>
      <trkpt lat="37.87009" lon="-2.87921">
        <ele>1136.136659</ele>
        <time>2022-09-01T23:27:03.831Z</time>
      </trkpt>
      <trkpt lat="37.86989" lon="-2.87926">
        <ele>1135.381217</ele>
        <time>2022-09-01T23:27:10.236Z</time>
      </trkpt>
      <trkpt lat="37.8697" lon="-2.87949">
        <ele>1134.659997</ele>
        <time>2022-09-01T23:27:19.757Z</time>
      </trkpt>
      <trkpt lat="37.8694" lon="-2.87997">
        <ele>1136.155156</ele>
        <time>2022-09-01T23:27:40.410Z</time>
      </trkpt>
      <trkpt lat="37.86934" lon="-2.88021">
        <ele>1136.774907</ele>
        <time>2022-09-01T23:27:52.308Z</time>
      </trkpt>
      <trkpt lat="37.86937" lon="-2.88035">
        <ele>1137.125309</ele>
        <time>2022-09-01T23:27:56.797Z</time>
      </trkpt>
      <trkpt lat="37.86834" lon="-2.88142">
        <ele>1141.812138</ele>
        <time>2022-09-01T23:29:19.835Z</time>
      </trkpt>
      <trkpt lat="37.86789" lon="-2.88202">
        <ele>1144.799658</ele>
        <time>2022-09-01T23:29:59.147Z</time>
      </trkpt>
      <trkpt lat="37.86727" lon="-2.88253">
        <ele>1148.205461</ele>
        <time>2022-09-01T23:30:43.425Z</time>
      </trkpt>
      <trkpt lat="37.86708" lon="-2.88304">
        <ele>1150.201064</ele>
        <time>2022-09-01T23:31:08.800Z</time>
      </trkpt>
      <trkpt lat="37.8667" lon="-2.88344">
        <ele>1152.428044</ele>
        <time>2022-09-01T23:31:37.009Z</time>
      </trkpt>
      <trkpt lat="37.86654" lon="-2.88408">
        <ele>1154.844298</ele>
        <time>2022-09-01T23:32:09.981Z</time>
      </trkpt>
      <trkpt lat="37.86655" lon="-2.88493">
        <ele>1158.322675</ele>
        <time>2022-09-01T23:32:50.198Z</time>
      </trkpt>
      <trkpt lat="37.86648" lon="-2.88513">
        <ele>1159.366958</ele>
        <time>2022-09-01T23:33:01.711Z</time>
      </trkpt>
      <trkpt lat="37.86632" lon="-2.88538">
        <ele>1160.908784</ele>
        <time>2022-09-01T23:33:18.624Z</time>
      </trkpt>
      <trkpt lat="37.86623" lon="-2.88535">
        <ele>1161.427341</ele>
        <time>2022-09-01T23:33:24.665Z</time>
      </trkpt>
      <trkpt lat="37.86612" lon="-2.8851">
        <ele>1162.796078</ele>
        <time>2022-09-01T23:33:39.905Z</time>
      </trkpt>
      <trkpt lat="37.86618" lon="-2.88475">
        <ele>1164.502032</ele>
        <time>2022-09-01T23:33:59.251Z</time>
      </trkpt>
      <trkpt lat="37.86612" lon="-2.88468">
        <ele>1165.010224</ele>
        <time>2022-09-01T23:34:05.522Z</time>
      </trkpt>
      <trkpt lat="37.86599" lon="-2.88469">
        <ele>1165.804461</ele>
        <time>2022-09-01T23:34:15.093Z</time>
      </trkpt>
      <trkpt lat="37.86572" lon="-2.88499">
        <ele>1168.013129</ele>
        <time>2022-09-01T23:34:41.039Z</time>
      </trkpt>
      <trkpt lat="37.86554" lon="-2.88529">
        <ele>1169.875878</ele>
        <time>2022-09-01T23:35:02.417Z</time>
      </trkpt>
      <trkpt lat="37.8654" lon="-2.88539">
        <ele>1170.876921</ele>
        <time>2022-09-01T23:35:13.522Z</time>
      </trkpt>
      <trkpt lat="37.86492" lon="-2.88567">
        <ele>1174.226663</ele>
        <time>2022-09-01T23:35:51.562Z</time>
      </trkpt>
      <trkpt lat="37.86394" lon="-2.88607">
        <ele>1179.422971</ele>
        <time>2022-09-01T23:36:59.889Z</time>
      </trkpt>
      <trkpt lat="37.86326" lon="-2.88655">
        <ele>1181.318169</ele>
        <time>2022-09-01T23:37:38.399Z</time>
      </trkpt>
      <trkpt lat="37.86294" lon="-2.88686">
        <ele>1182.307102</ele>
        <time>2022-09-01T23:37:55.045Z</time>
      </trkpt>
      <trkpt lat="37.86238" lon="-2.88728">
        <ele>1183.057941</ele>
        <time>2022-09-01T23:38:19.096Z</time>
      </trkpt>
      <trkpt lat="37.86211" lon="-2.88734">
        <ele>1183.093277</ele>
        <time>2022-09-01T23:38:29.142Z</time>
      </trkpt>
      <trkpt lat="37.86173" lon="-2.88734">
        <ele>1183.141433</ele>
        <time>2022-09-01T23:38:42.848Z</time>
      </trkpt>
      <trkpt lat="37.86129" lon="-2.8875">
        <ele>1183.200643</ele>
        <time>2022-09-01T23:39:00.282Z</time>
      </trkpt>
      <trkpt lat="37.86094" lon="-2.8874">
        <ele>1183.237761</ele>
        <time>2022-09-01T23:39:14.616Z</time>
      </trkpt>
      <trkpt lat="37.86058" lon="-2.88744">
        <ele>1183.183123</ele>
        <time>2022-09-01T23:39:28.994Z</time>
      </trkpt>
      <trkpt lat="37.86001" lon="-2.88794">
        <ele>1183.079762</ele>
        <time>2022-09-01T23:39:53.907Z</time>
      </trkpt>
      <trkpt lat="37.85966" lon="-2.88836">
        <ele>1183.007546</ele>
        <time>2022-09-01T23:40:10.877Z</time>
      </trkpt>
      <trkpt lat="37.85929" lon="-2.88893">
        <ele>1183.837813</ele>
        <time>2022-09-01T23:40:31.397Z</time>
      </trkpt>
      <trkpt lat="37.85857" lon="-2.88976">
        <ele>1186.244901</ele>
        <time>2022-09-01T23:41:15.999Z</time>
      </trkpt>
      <trkpt lat="37.85834" lon="-2.88979">
        <ele>1186.829485</ele>
        <time>2022-09-01T23:41:29.604Z</time>
      </trkpt>
      <trkpt lat="37.85718" lon="-2.8897">
        <ele>1194.885801</ele>
        <time>2022-09-01T23:42:54.731Z</time>
      </trkpt>
      <trkpt lat="37.85689" lon="-2.88958">
        <ele>1197.344184</ele>
        <time>2022-09-01T23:43:20.081Z</time>
      </trkpt>
      <trkpt lat="37.85659" lon="-2.88939">
        <ele>1200.111658</ele>
        <time>2022-09-01T23:43:49.971Z</time>
      </trkpt>
      <trkpt lat="37.85612" lon="-2.88928">
        <ele>1203.888339</ele>
        <time>2022-09-01T23:44:30.672Z</time>
      </trkpt>
      <trkpt lat="37.85535" lon="-2.88937">
        <ele>1209.95416</ele>
        <time>2022-09-01T23:45:32.907Z</time>
      </trkpt>
      <trkpt lat="37.85499" lon="-2.88934">
        <ele>1212.795322</ele>
        <time>2022-09-01T23:45:58.948Z</time>
      </trkpt>
      <trkpt lat="37.85402" lon="-2.88982">
        <ele>1219.262915</ele>
        <time>2022-09-01T23:47:08.861Z</time>
      </trkpt>
      <trkpt lat="37.8538" lon="-2.89002">
        <ele>1220.577403</ele>
        <time>2022-09-01T23:47:25.241Z</time>
      </trkpt>
      <trkpt lat="37.85349" lon="-2.89019">
        <ele>1222.278555</ele>
        <time>2022-09-01T23:47:45.777Z</time>
      </trkpt>
      <trkpt lat="37.85311" lon="-2.89027">
        <ele>1224.237467</ele>
        <time>2022-09-01T23:48:08.557Z</time>
      </trkpt>
      <trkpt lat="37.85292" lon="-2.89038">
        <ele>1225.260842</ele>
        <time>2022-09-01T23:48:20.570Z</time>
      </trkpt>
      <trkpt lat="37.85259" lon="-2.89041">
        <ele>1226.760983</ele>
        <time>2022-09-01T23:48:38.971Z</time>
      </trkpt>
      <trkpt lat="37.85236" lon="-2.89054">
        <ele>1227.935039</ele>
        <time>2022-09-01T23:48:53.024Z</time>
      </trkpt>
      <trkpt lat="37.85215" lon="-2.89054">
        <ele>1228.856628</ele>
        <time>2022-09-01T23:49:04.654Z</time>
      </trkpt>
      <trkpt lat="37.85189" lon="-2.89066">
        <ele>1230.139974</ele>
        <time>2022-09-01T23:49:21.933Z</time>
      </trkpt>
      <trkpt lat="37.85109" lon="-2.89121">
        <ele>1234.634715</ele>
        <time>2022-09-01T23:50:18.838Z</time>
      </trkpt>
      <trkpt lat="37.85085" lon="-2.89129">
        <ele>1236.148933</ele>
        <time>2022-09-01T23:50:35.052Z</time>
      </trkpt>
      <trkpt lat="37.85072" lon="-2.89128">
        <ele>1236.921569</ele>
        <time>2022-09-01T23:50:43.744Z</time>
      </trkpt>
      <trkpt lat="37.85049" lon="-2.89141">
        <ele>1238.486931</ele>
        <time>2022-09-01T23:51:00.784Z</time>
      </trkpt>
      <trkpt lat="37.84971" lon="-2.89144">
        <ele>1243.259544</ele>
        <time>2022-09-01T23:51:55.371Z</time>
      </trkpt>
      <trkpt lat="37.84945" lon="-2.89136">
        <ele>1244.822002</ele>
        <time>2022-09-01T23:52:14.034Z</time>
      </trkpt>
      <trkpt lat="37.84895" lon="-2.89145">
        <ele>1247.763671</ele>
        <time>2022-09-01T23:52:50.223Z</time>
      </trkpt>
      <trkpt lat="37.84858" lon="-2.89166">
        <ele>1250.133221</ele>
        <time>2022-09-01T23:53:17.113Z</time>
      </trkpt>
      <trkpt lat="37.84832" lon="-2.89195">
        <ele>1252.121755</ele>
        <time>2022-09-01T23:53:38.741Z</time>
      </trkpt>
      <trkpt lat="37.84821" lon="-2.89216">
        <ele>1253.304141</ele>
        <time>2022-09-01T23:53:51.300Z</time>
      </trkpt>
      <trkpt lat="37.84778" lon="-2.8923">
        <ele>1255.810461</ele>
        <time>2022-09-01T23:54:18.545Z</time>
      </trkpt>
      <trkpt lat="37.84755" lon="-2.89258">
        <ele>1257.560929</ele>
        <time>2022-09-01T23:54:38.614Z</time>
      </trkpt>
      <trkpt lat="37.84741" lon="-2.89263">
        <ele>1258.356804</ele>
        <time>2022-09-01T23:54:47.955Z</time>
      </trkpt>
      <trkpt lat="37.84738" lon="-2.89287">
        <ele>1259.417607</ele>
        <time>2022-09-01T23:55:00.338Z</time>
      </trkpt>
      <trkpt lat="37.84729" lon="-2.89303">
        <ele>1260.267748</ele>
        <time>2022-09-01T23:55:10.655Z</time>
      </trkpt>
      <trkpt lat="37.84691" lon="-2.8934">
        <ele>1262.932304</ele>
        <time>2022-09-01T23:55:42.728Z</time>
      </trkpt>
      <trkpt lat="37.84657" lon="-2.89355">
        <ele>1264.855975</ele>
        <time>2022-09-01T23:56:06.675Z</time>
      </trkpt>
      <trkpt lat="37.84604" lon="-2.89363">
        <ele>1267.017123</ele>
        <time>2022-09-01T23:56:40.828Z</time>
      </trkpt>
      <trkpt lat="37.84583" lon="-2.89372">
        <ele>1267.945665</ele>
        <time>2022-09-01T23:56:55.292Z</time>
      </trkpt>
      <trkpt lat="37.84562" lon="-2.89391">
        <ele>1268.999608</ele>
        <time>2022-09-01T23:57:10.415Z</time>
      </trkpt>
      <trkpt lat="37.8454" lon="-2.89417">
        <ele>1270.226014</ele>
        <time>2022-09-01T23:57:26.892Z</time>
      </trkpt>
      <trkpt lat="37.84494" lon="-2.89507">
        <ele>1272.712808</ele>
        <time>2022-09-01T23:58:06.297Z</time>
      </trkpt>
      <trkpt lat="37.84472" lon="-2.89534">
        <ele>1273.240296</ele>
        <time>2022-09-01T23:58:19.552Z</time>
      </trkpt>
      <trkpt lat="37.84441" lon="-2.8959">
        <ele>1274.152463</ele>
        <time>2022-09-01T23:58:41.813Z</time>
      </trkpt>
      <trkpt lat="37.84424" lon="-2.89612">
        <ele>1274.558703</ele>
        <time>2022-09-01T23:58:51.899Z</time>
      </trkpt>
      <trkpt lat="37.84097" lon="-2.8972">
        <ele>1283.05817</ele>
        <time>2022-09-02T00:01:46.570Z</time>
      </trkpt>
      <trkpt lat="37.83966" lon="-2.89752">
        <ele>1283.459001</ele>
        <time>2022-09-02T00:02:41.491Z</time>
      </trkpt>
      <trkpt lat="37.83921" lon="-2.89757">
        <ele>1283.017703</ele>
        <time>2022-09-02T00:02:56.777Z</time>
      </trkpt>
      <trkpt lat="37.83851" lon="-2.89753">
        <ele>1281.544215</ele>
        <time>2022-09-02T00:03:18.892Z</time>
      </trkpt>
      <trkpt lat="37.83801" lon="-2.89746">
        <ele>1278.691556</ele>
        <time>2022-09-02T00:03:33.272Z</time>
      </trkpt>
      <trkpt lat="37.83719" lon="-2.89725">
        <ele>1273.926011</ele>
        <time>2022-09-02T00:03:56.129Z</time>
      </trkpt>
      <trkpt lat="37.83705" lon="-2.89717">
        <ele>1273.041902</ele>
        <time>2022-09-02T00:04:00.386Z</time>
      </trkpt>
      <trkpt lat="37.83638" lon="-2.89717">
        <ele>1269.351244</ele>
        <time>2022-09-02T00:04:18.624Z</time>
      </trkpt>
      <trkpt lat="37.83622" lon="-2.89682">
        <ele>1267.616899</ele>
        <time>2022-09-02T00:04:27.514Z</time>
      </trkpt>
      <trkpt lat="37.8361" lon="-2.89672">
        <ele>1266.814476</ele>
        <time>2022-09-02T00:04:31.716Z</time>
      </trkpt>
      <trkpt lat="37.83591" lon="-2.89662">
        <ele>1265.694919</ele>
        <time>2022-09-02T00:04:37.527Z</time>
      </trkpt>
      <trkpt lat="37.8357" lon="-2.89664">
        <ele>1264.537605</ele>
        <time>2022-09-02T00:04:43.693Z</time>
      </trkpt>
      <trkpt lat="37.83563" lon="-2.89679">
        <ele>1263.786728</ele>
        <time>2022-09-02T00:04:47.614Z</time>
      </trkpt>
      <trkpt lat="37.83566" lon="-2.89694">
        <ele>1263.107736</ele>
        <time>2022-09-02T00:04:51.272Z</time>
      </trkpt>
      <trkpt lat="37.83586" lon="-2.89714">
        <ele>1261.992385</ele>
        <time>2022-09-02T00:04:58.933Z</time>
      </trkpt>
      <trkpt lat="37.83634" lon="-2.89791">
        <ele>1259.394456</ele>
        <time>2022-09-02T00:05:24.142Z</time>
      </trkpt>
      <trkpt lat="37.8363" lon="-2.89803">
        <ele>1259.032972</ele>
        <time>2022-09-02T00:05:27.583Z</time>
      </trkpt>
      <trkpt lat="37.83619" lon="-2.89806">
        <ele>1258.679092</ele>
        <time>2022-09-02T00:05:30.984Z</time>
      </trkpt>
      <trkpt lat="37.83601" lon="-2.89806">
        <ele>1258.072573</ele>
        <time>2022-09-02T00:05:36.547Z</time>
      </trkpt>
      <trkpt lat="37.83533" lon="-2.89776">
        <ele>1254.907167</ele>
        <time>2022-09-02T00:05:57.471Z</time>
      </trkpt>
      <trkpt lat="37.83505" lon="-2.89761">
        <ele>1252.841163</ele>
        <time>2022-09-02T00:06:06.057Z</time>
      </trkpt>
      <trkpt lat="37.83477" lon="-2.89733">
        <ele>1250.363352</ele>
        <time>2022-09-02T00:06:16.055Z</time>
      </trkpt>
      <trkpt lat="37.83442" lon="-2.89743">
        <ele>1247.892054</ele>
        <time>2022-09-02T00:06:25.785Z</time>
      </trkpt>
      <trkpt lat="37.8342" lon="-2.89732">
        <ele>1246.257293</ele>
        <time>2022-09-02T00:06:32.183Z</time>
      </trkpt>
      <trkpt lat="37.83355" lon="-2.89724">
        <ele>1241.771164</ele>
        <time>2022-09-02T00:06:49.060Z</time>
      </trkpt>
      <trkpt lat="37.83341" lon="-2.89734">
        <ele>1240.595034</ele>
        <time>2022-09-02T00:06:53.358Z</time>
      </trkpt>
      <trkpt lat="37.83318" lon="-2.8972">
        <ele>1238.802253</ele>
        <time>2022-09-02T00:07:00.149Z</time>
      </trkpt>
      <trkpt lat="37.83232" lon="-2.89703">
        <ele>1232.583135</ele>
        <time>2022-09-02T00:07:24.825Z</time>
      </trkpt>
      <trkpt lat="37.83103" lon="-2.8972">
        <ele>1223.079038</ele>
        <time>2022-09-02T00:08:00.512Z</time>
      </trkpt>
      <trkpt lat="37.82974" lon="-2.89798">
        <ele>1210.669908</ele>
        <time>2022-09-02T00:08:38.053Z</time>
      </trkpt>
      <trkpt lat="37.82895" lon="-2.89833">
        <ele>1202.37048</ele>
        <time>2022-09-02T00:08:59.672Z</time>
      </trkpt>
      <trkpt lat="37.82848" lon="-2.89851">
        <ele>1196.638666</ele>
        <time>2022-09-02T00:09:11.935Z</time>
      </trkpt>
      <trkpt lat="37.82796" lon="-2.89844">
        <ele>1189.990698</ele>
        <time>2022-09-02T00:09:24.756Z</time>
      </trkpt>
      <trkpt lat="37.82767" lon="-2.89851">
        <ele>1186.139624</ele>
        <time>2022-09-02T00:09:32.203Z</time>
      </trkpt>
      <trkpt lat="37.8274" lon="-2.89871">
        <ele>1182.147311</ele>
        <time>2022-09-02T00:09:39.838Z</time>
      </trkpt>
      <trkpt lat="37.82716" lon="-2.89877">
        <ele>1178.903596</ele>
        <time>2022-09-02T00:09:46.144Z</time>
      </trkpt>
      <trkpt lat="37.82654" lon="-2.89914">
        <ele>1168.160192</ele>
        <time>2022-09-02T00:10:02.479Z</time>
      </trkpt>
      <trkpt lat="37.82624" lon="-2.89913">
        <ele>1163.247299</ele>
        <time>2022-09-02T00:10:09.486Z</time>
      </trkpt>
      <trkpt lat="37.82575" lon="-2.89899">
        <ele>1154.953627</ele>
        <time>2022-09-02T00:10:21.371Z</time>
      </trkpt>
      <trkpt lat="37.82565" lon="-2.89904">
        <ele>1153.288347</ele>
        <time>2022-09-02T00:10:23.892Z</time>
      </trkpt>
      <trkpt lat="37.82568" lon="-2.89917">
        <ele>1151.560615</ele>
        <time>2022-09-02T00:10:26.552Z</time>
      </trkpt>
      <trkpt lat="37.82578" lon="-2.89928">
        <ele>1149.353152</ele>
        <time>2022-09-02T00:10:29.710Z</time>
      </trkpt>
      <trkpt lat="37.82578" lon="-2.89943">
        <ele>1147.371021</ele>
        <time>2022-09-02T00:10:32.721Z</time>
      </trkpt>
      <trkpt lat="37.82569" lon="-2.89958">
        <ele>1145.334245</ele>
        <time>2022-09-02T00:10:36.397Z</time>
      </trkpt>
      <trkpt lat="37.82554" lon="-2.89954">
        <ele>1143.27428</ele>
        <time>2022-09-02T00:10:40.032Z</time>
      </trkpt>
      <trkpt lat="37.82532" lon="-2.89965">
        <ele>1140.027536</ele>
        <time>2022-09-02T00:10:45.894Z</time>
      </trkpt>
      <trkpt lat="37.82447" lon="-2.89973">
        <ele>1128.579602</ele>
        <time>2022-09-02T00:11:06.440Z</time>
      </trkpt>
      <trkpt lat="37.82377" lon="-2.89989">
        <ele>1119.460578</ele>
        <time>2022-09-02T00:11:24.570Z</time>
      </trkpt>
      <trkpt lat="37.82315" lon="-2.90009">
        <ele>1111.952575</ele>
        <time>2022-09-02T00:11:40.721Z</time>
      </trkpt>
      <trkpt lat="37.82289" lon="-2.90022">
        <ele>1108.730074</ele>
        <time>2022-09-02T00:11:47.565Z</time>
      </trkpt>
      <trkpt lat="37.82258" lon="-2.9005">
        <ele>1104.217699</ele>
        <time>2022-09-02T00:11:57.124Z</time>
      </trkpt>
      <trkpt lat="37.8224" lon="-2.90055">
        <ele>1102.035838</ele>
        <time>2022-09-02T00:12:01.731Z</time>
      </trkpt>
      <trkpt lat="37.82134" lon="-2.90062">
        <ele>1092.298667</ele>
        <time>2022-09-02T00:12:28.613Z</time>
      </trkpt>
      <trkpt lat="37.82045" lon="-2.90057">
        <ele>1084.322687</ele>
        <time>2022-09-02T00:12:53.269Z</time>
      </trkpt>
      <trkpt lat="37.81896" lon="-2.90068">
        <ele>1073.495739</ele>
        <time>2022-09-02T00:13:34.757Z</time>
      </trkpt>
      <trkpt lat="37.81894" lon="-2.90105">
        <ele>1070.403197</ele>
        <time>2022-09-02T00:13:42.185Z</time>
      </trkpt>
      <trkpt lat="37.81877" lon="-2.90118">
        <ele>1067.370948</ele>
        <time>2022-09-02T00:13:47.178Z</time>
      </trkpt>
      <trkpt lat="37.81828" lon="-2.90133">
        <ele>1059.775108</ele>
        <time>2022-09-02T00:13:59.560Z</time>
      </trkpt>
      <trkpt lat="37.81698" lon="-2.9019">
        <ele>1036.964063</ele>
        <time>2022-09-02T00:14:32.014Z</time>
      </trkpt>
      <trkpt lat="37.81668" lon="-2.90197">
        <ele>1030.643144</ele>
        <time>2022-09-02T00:14:39.119Z</time>
      </trkpt>
      <trkpt lat="37.81637" lon="-2.90215">
        <ele>1023.608166</ele>
        <time>2022-09-02T00:14:47.017Z</time>
      </trkpt>
      <trkpt lat="37.81604" lon="-2.90223">
        <ele>1016.785466</ele>
        <time>2022-09-02T00:14:54.680Z</time>
      </trkpt>
      <trkpt lat="37.81537" lon="-2.90237">
        <ele>1004.487204</ele>
        <time>2022-09-02T00:15:10.433Z</time>
      </trkpt>
      <trkpt lat="37.81459" lon="-2.90292">
        <ele>991.381291</ele>
        <time>2022-09-02T00:15:31.695Z</time>
      </trkpt>
      <trkpt lat="37.814" lon="-2.903">
        <ele>982.586321</ele>
        <time>2022-09-02T00:15:47.042Z</time>
      </trkpt>
      <trkpt lat="37.81362" lon="-2.90318">
        <ele>980.750013</ele>
        <time>2022-09-02T00:15:57.984Z</time>
      </trkpt>
      <trkpt lat="37.81317" lon="-2.90357">
        <ele>978.7835</ele>
        <time>2022-09-02T00:16:14.833Z</time>
      </trkpt>
      <trkpt lat="37.81304" lon="-2.90351">
        <ele>978.287589</ele>
        <time>2022-09-02T00:16:19.154Z</time>
      </trkpt>
      <trkpt lat="37.81309" lon="-2.90306">
        <ele>977.021686</ele>
        <time>2022-09-02T00:16:31.292Z</time>
      </trkpt>
      <trkpt lat="37.81304" lon="-2.90295">
        <ele>976.669492</ele>
        <time>2022-09-02T00:16:34.950Z</time>
      </trkpt>
      <trkpt lat="37.81295" lon="-2.9029">
        <ele>976.322992</ele>
        <time>2022-09-02T00:16:38.961Z</time>
      </trkpt>
      <trkpt lat="37.81272" lon="-2.90292">
        <ele>975.737107</ele>
        <time>2022-09-02T00:16:47.269Z</time>
      </trkpt>
      <trkpt lat="37.81252" lon="-2.90309">
        <ele>976.163615</ele>
        <time>2022-09-02T00:16:56.616Z</time>
      </trkpt>
      <trkpt lat="37.81241" lon="-2.90312">
        <ele>976.370689</ele>
        <time>2022-09-02T00:17:00.627Z</time>
      </trkpt>
      <trkpt lat="37.81232" lon="-2.9031">
        <ele>976.53193</ele>
        <time>2022-09-02T00:17:03.877Z</time>
      </trkpt>
      <trkpt lat="37.81217" lon="-2.90279">
        <ele>977.062685</ele>
        <time>2022-09-02T00:17:13.950Z</time>
      </trkpt>
      <trkpt lat="37.81212" lon="-2.90279">
        <ele>977.156704</ele>
        <time>2022-09-02T00:17:15.780Z</time>
      </trkpt>
      <trkpt lat="37.81123" lon="-2.90348">
        <ele>979.347252</ele>
        <time>2022-09-02T00:18:11.812Z</time>
      </trkpt>
      <trkpt lat="37.81012" lon="-2.90379">
        <ele>986.064003</ele>
        <time>2022-09-02T00:19:27.399Z</time>
      </trkpt>
      <trkpt lat="37.80951" lon="-2.90404">
        <ele>989.742784</ele>
        <time>2022-09-02T00:20:13.050Z</time>
      </trkpt>
      <trkpt lat="37.80941" lon="-2.90415">
        <ele>990.464327</ele>
        <time>2022-09-02T00:20:23.928Z</time>
      </trkpt>
      <trkpt lat="37.80937" lon="-2.90434">
        <ele>991.225011</ele>
        <time>2022-09-02T00:20:35.718Z</time>
      </trkpt>
      <trkpt lat="37.80928" lon="-2.90449">
        <ele>992.010299</ele>
        <time>2022-09-02T00:20:47.767Z</time>
      </trkpt>
      <trkpt lat="37.80914" lon="-2.90454">
        <ele>992.746401</ele>
        <time>2022-09-02T00:20:55.917Z</time>
      </trkpt>
      <trkpt lat="37.80893" lon="-2.90448">
        <ele>993.879845</ele>
        <time>2022-09-02T00:21:11.509Z</time>
      </trkpt>
      <trkpt lat="37.80881" lon="-2.9045">
        <ele>994.475273</ele>
        <time>2022-09-02T00:21:16.905Z</time>
      </trkpt>
      <trkpt lat="37.80832" lon="-2.90475">
        <ele>997.194878</ele>
        <time>2022-09-02T00:21:46.797Z</time>
      </trkpt>
      <trkpt lat="37.80789" lon="-2.90483">
        <ele>999.319053</ele>
        <time>2022-09-02T00:22:10.458Z</time>
      </trkpt>
      <trkpt lat="37.80777" lon="-2.90481">
        <ele>999.877657</ele>
        <time>2022-09-02T00:22:15.458Z</time>
      </trkpt>
      <trkpt lat="37.80719" lon="-2.90443">
        <ele>1002.845502</ele>
        <time>2022-09-02T00:22:55.851Z</time>
      </trkpt>
      <trkpt lat="37.80702" lon="-2.90442">
        <ele>1003.61206</ele>
        <time>2022-09-02T00:23:05.121Z</time>
      </trkpt>
      <trkpt lat="37.80687" lon="-2.9046">
        <ele>1004.560075</ele>
        <time>2022-09-02T00:23:18.695Z</time>
      </trkpt>
      <trkpt lat="37.80679" lon="-2.90478">
        <ele>1005.288116</ele>
        <time>2022-09-02T00:23:28.032Z</time>
      </trkpt>
      <trkpt lat="37.80678" lon="-2.90513">
        <ele>1006.54475</ele>
        <time>2022-09-02T00:23:43.348Z</time>
      </trkpt>
      <trkpt lat="37.80686" lon="-2.90586">
        <ele>1010.316981</ele>
        <time>2022-09-02T00:24:18.675Z</time>
      </trkpt>
      <trkpt lat="37.80668" lon="-2.90648">
        <ele>1013.791085</ele>
        <time>2022-09-02T00:24:52.861Z</time>
      </trkpt>
      <trkpt lat="37.80647" lon="-2.90691">
        <ele>1016.493412</ele>
        <time>2022-09-02T00:25:20.894Z</time>
      </trkpt>
      <trkpt lat="37.80616" lon="-2.90798">
        <ele>1021.641961</ele>
        <time>2022-09-02T00:26:17.351Z</time>
      </trkpt>
      <trkpt lat="37.80614" lon="-2.9082">
        <ele>1022.497017</ele>
        <time>2022-09-02T00:26:26.422Z</time>
      </trkpt>
      <trkpt lat="37.80625" lon="-2.90872">
        <ele>1024.638978</ele>
        <time>2022-09-02T00:26:50.213Z</time>
      </trkpt>
      <trkpt lat="37.8062" lon="-2.90885">
        <ele>1025.248041</ele>
        <time>2022-09-02T00:26:57.371Z</time>
      </trkpt>
      <trkpt lat="37.80601" lon="-2.90905">
        <ele>1026.455321</ele>
        <time>2022-09-02T00:27:08.843Z</time>
      </trkpt>
      <trkpt lat="37.8059" lon="-2.90906">
        <ele>1027.036832</ele>
        <time>2022-09-02T00:27:15.093Z</time>
      </trkpt>
      <trkpt lat="37.8058" lon="-2.909">
        <ele>1027.571206</ele>
        <time>2022-09-02T00:27:19.672Z</time>
      </trkpt>
      <trkpt lat="37.80558" lon="-2.90862">
        <ele>1027.965224</ele>
        <time>2022-09-02T00:27:35.269Z</time>
      </trkpt>
      <trkpt lat="37.80545" lon="-2.90827">
        <ele>1027.940392</ele>
        <time>2022-09-02T00:27:45.823Z</time>
      </trkpt>
      <trkpt lat="37.80513" lon="-2.90812">
        <ele>1027.911998</ele>
        <time>2022-09-02T00:27:56.415Z</time>
      </trkpt>
      <trkpt lat="37.80508" lon="-2.90801">
        <ele>1027.903892</ele>
        <time>2022-09-02T00:27:59.155Z</time>
      </trkpt>
      <trkpt lat="37.8051" lon="-2.90737">
        <ele>1027.861814</ele>
        <time>2022-09-02T00:28:12.608Z</time>
      </trkpt>
      <trkpt lat="37.80546" lon="-2.90663">
        <ele>1025.511922</ele>
        <time>2022-09-02T00:28:28.659Z</time>
      </trkpt>
      <trkpt lat="37.80543" lon="-2.90646">
        <ele>1024.791758</ele>
        <time>2022-09-02T00:28:31.547Z</time>
      </trkpt>
      <trkpt lat="37.80531" lon="-2.90634">
        <ele>1023.980809</ele>
        <time>2022-09-02T00:28:34.853Z</time>
      </trkpt>
      <trkpt lat="37.80515" lon="-2.90628">
        <ele>1023.039099</ele>
        <time>2022-09-02T00:28:38.586Z</time>
      </trkpt>
      <trkpt lat="37.80442" lon="-2.90625">
        <ele>1019.102551</ele>
        <time>2022-09-02T00:28:53.634Z</time>
      </trkpt>
      <trkpt lat="37.80318" lon="-2.90638">
        <ele>1010.681624</ele>
        <time>2022-09-02T00:29:19.264Z</time>
      </trkpt>
      <trkpt lat="37.80305" lon="-2.90635">
        <ele>1009.796306</ele>
        <time>2022-09-02T00:29:21.851Z</time>
      </trkpt>
      <trkpt lat="37.80286" lon="-2.90626">
        <ele>1008.36095</ele>
        <time>2022-09-02T00:29:26.180Z</time>
      </trkpt>
      <trkpt lat="37.80222" lon="-2.90588">
        <ele>1004.388168</ele>
        <time>2022-09-02T00:29:41.142Z</time>
      </trkpt>
      <trkpt lat="37.80208" lon="-2.90586">
        <ele>1003.847102</ele>
        <time>2022-09-02T00:29:44.155Z</time>
      </trkpt>
      <trkpt lat="37.80184" lon="-2.90586">
        <ele>1002.938089</ele>
        <time>2022-09-02T00:29:49.415Z</time>
      </trkpt>
      <trkpt lat="37.8012" lon="-2.90604">
        <ele>1000.425366</ele>
        <time>2022-09-02T00:30:04.481Z</time>
      </trkpt>
      <trkpt lat="37.80048" lon="-2.90627">
        <ele>998.407703</ele>
        <time>2022-09-02T00:30:23.256Z</time>
      </trkpt>
      <trkpt lat="37.79953" lon="-2.9064">
        <ele>997.547764</ele>
        <time>2022-09-02T00:30:49.547Z</time>
      </trkpt>
      <trkpt lat="37.79914" lon="-2.90661">
        <ele>997.171102</ele>
        <time>2022-09-02T00:31:01.397Z</time>
      </trkpt>
      <trkpt lat="37.79899" lon="-2.90663">
        <ele>997.04566</ele>
        <time>2022-09-02T00:31:05.519Z</time>
      </trkpt>
      <trkpt lat="37.79858" lon="-2.90675">
        <ele>996.953025</ele>
        <time>2022-09-02T00:31:17.284Z</time>
      </trkpt>
      <trkpt lat="37.79701" lon="-2.90695">
        <ele>996.667461</ele>
        <time>2022-09-02T00:32:02.871Z</time>
      </trkpt>
      <trkpt lat="37.79668" lon="-2.90707">
        <ele>996.692768</ele>
        <time>2022-09-02T00:32:12.986Z</time>
      </trkpt>
      <trkpt lat="37.79588" lon="-2.90718">
        <ele>996.752574</ele>
        <time>2022-09-02T00:32:37.162Z</time>
      </trkpt>
      <trkpt lat="37.79451" lon="-2.90778">
        <ele>996.624208</ele>
        <time>2022-09-02T00:33:20.114Z</time>
      </trkpt>
      <trkpt lat="37.79411" lon="-2.90791">
        <ele>996.55908</ele>
        <time>2022-09-02T00:33:31.529Z</time>
      </trkpt>
      <trkpt lat="37.79205" lon="-2.90819">
        <ele>995.82541</ele>
        <time>2022-09-02T00:34:29.667Z</time>
      </trkpt>
      <trkpt lat="37.79031" lon="-2.90804">
        <ele>995.723065</ele>
        <time>2022-09-02T00:35:20.803Z</time>
      </trkpt>
      <trkpt lat="37.78984" lon="-2.9083">
        <ele>995.632535</ele>
        <time>2022-09-02T00:35:36.093Z</time>
      </trkpt>
      <trkpt lat="37.78947" lon="-2.90851">
        <ele>995.537037</ele>
        <time>2022-09-02T00:35:47.892Z</time>
      </trkpt>
      <trkpt lat="37.7889" lon="-2.90884">
        <ele>995.387243</ele>
        <time>2022-09-02T00:36:05.828Z</time>
      </trkpt>
      <trkpt lat="37.78841" lon="-2.90903">
        <ele>995.212927</ele>
        <time>2022-09-02T00:36:19.988Z</time>
      </trkpt>
      <trkpt lat="37.7866" lon="-2.90938">
        <ele>993.905054</ele>
        <time>2022-09-02T00:37:09.501Z</time>
      </trkpt>
      <trkpt lat="37.78545" lon="-2.90976">
        <ele>994.029567</ele>
        <time>2022-09-02T00:37:43.062Z</time>
      </trkpt>
      <trkpt lat="37.7843" lon="-2.91065">
        <ele>996.332607</ele>
        <time>2022-09-02T00:38:33.070Z</time>
      </trkpt>
      <trkpt lat="37.78346" lon="-2.91142">
        <ele>999.146485</ele>
        <time>2022-09-02T00:39:21.455Z</time>
      </trkpt>
      <trkpt lat="37.78234" lon="-2.91193">
        <ele>1003.614949</ele>
        <time>2022-09-02T00:40:21.172Z</time>
      </trkpt>
      <trkpt lat="37.78225" lon="-2.91202">
        <ele>1004.051066</ele>
        <time>2022-09-02T00:40:26.547Z</time>
      </trkpt>
      <trkpt lat="37.78182" lon="-2.91218">
        <ele>1005.635176</ele>
        <time>2022-09-02T00:40:47.761Z</time>
      </trkpt>
      <trkpt lat="37.78132" lon="-2.91282">
        <ele>1007.13058</ele>
        <time>2022-09-02T00:41:18.598Z</time>
      </trkpt>
      <trkpt lat="37.78094" lon="-2.91322">
        <ele>1008.151339</ele>
        <time>2022-09-02T00:41:37.943Z</time>
      </trkpt>
      <trkpt lat="37.78092" lon="-2.91334">
        <ele>1008.358386</ele>
        <time>2022-09-02T00:41:41.540Z</time>
      </trkpt>
      <trkpt lat="37.78083" lon="-2.91342">
        <ele>1008.589574</ele>
        <time>2022-09-02T00:41:45.555Z</time>
      </trkpt>
      <trkpt lat="37.78069" lon="-2.91343">
        <ele>1008.892288</ele>
        <time>2022-09-02T00:41:50.432Z</time>
      </trkpt>
      <trkpt lat="37.78036" lon="-2.91317">
        <ele>1008.992203</ele>
        <time>2022-09-02T00:42:02.644Z</time>
      </trkpt>
      <trkpt lat="37.78002" lon="-2.91321">
        <ele>1008.518299</ele>
        <time>2022-09-02T00:42:12.971Z</time>
      </trkpt>
      <trkpt lat="37.77968" lon="-2.91347">
        <ele>1007.972075</ele>
        <time>2022-09-02T00:42:23.812Z</time>
      </trkpt>
      <trkpt lat="37.77951" lon="-2.91371">
        <ele>1007.623945</ele>
        <time>2022-09-02T00:42:30.160Z</time>
      </trkpt>
      <trkpt lat="37.77924" lon="-2.91406">
        <ele>1007.094505</ele>
        <time>2022-09-02T00:42:39.448Z</time>
      </trkpt>
      <trkpt lat="37.77884" lon="-2.91433">
        <ele>1005.906414</ele>
        <time>2022-09-02T00:42:50.019Z</time>
      </trkpt>
      <trkpt lat="37.77767" lon="-2.91495">
        <ele>1001.276612</ele>
        <time>2022-09-02T00:43:18.723Z</time>
      </trkpt>
      <trkpt lat="37.77762" lon="-2.9151">
        <ele>1000.819676</ele>
        <time>2022-09-02T00:43:21.606Z</time>
      </trkpt>
      <trkpt lat="37.77763" lon="-2.91527">
        <ele>1000.313968</ele>
        <time>2022-09-02T00:43:24.859Z</time>
      </trkpt>
      <trkpt lat="37.77772" lon="-2.91545">
        <ele>1000.28773</ele>
        <time>2022-09-02T00:43:28.616Z</time>
      </trkpt>
      <trkpt lat="37.77803" lon="-2.91572">
        <ele>1000.399988</ele>
        <time>2022-09-02T00:43:37.731Z</time>
      </trkpt>
      <trkpt lat="37.77808" lon="-2.91591">
        <ele>1000.449032</ele>
        <time>2022-09-02T00:43:42.213Z</time>
      </trkpt>
      <trkpt lat="37.77808" lon="-2.91613">
        <ele>1000.502341</ele>
        <time>2022-09-02T00:43:47.269Z</time>
      </trkpt>
      <trkpt lat="37.77781" lon="-2.91627">
        <ele>1000.591537</ele>
        <time>2022-09-02T00:43:57.943Z</time>
      </trkpt>
      <trkpt lat="37.77729" lon="-2.91631">
        <ele>1000.748404</ele>
        <time>2022-09-02T00:44:19.644Z</time>
      </trkpt>
      <trkpt lat="37.77699" lon="-2.91644">
        <ele>1001.43219</ele>
        <time>2022-09-02T00:44:34.131Z</time>
      </trkpt>
      <trkpt lat="37.7764" lon="-2.91657">
        <ele>1003.480984</ele>
        <time>2022-09-02T00:45:02.578Z</time>
      </trkpt>
      <trkpt lat="37.77583" lon="-2.91706">
        <ele>1005.871134</ele>
        <time>2022-09-02T00:45:36.532Z</time>
      </trkpt>
      <trkpt lat="37.77452" lon="-2.91791">
        <ele>1010.201404</ele>
        <time>2022-09-02T00:46:41.514Z</time>
      </trkpt>
      <trkpt lat="37.77428" lon="-2.91819">
        <ele>1011.118568</ele>
        <time>2022-09-02T00:46:54.440Z</time>
      </trkpt>
      <trkpt lat="37.77339" lon="-2.9187">
        <ele>1013.91501</ele>
        <time>2022-09-02T00:47:35.259Z</time>
      </trkpt>
      <trkpt lat="37.77327" lon="-2.91886">
        <ele>1014.408992</ele>
        <time>2022-09-02T00:47:43.037Z</time>
      </trkpt>
      <trkpt lat="37.77322" lon="-2.91905">
        <ele>1014.862617</ele>
        <time>2022-09-02T00:47:49.790Z</time>
      </trkpt>
      <trkpt lat="37.77324" lon="-2.91924">
        <ele>1015.314044</ele>
        <time>2022-09-02T00:47:56.999Z</time>
      </trkpt>
      <trkpt lat="37.77344" lon="-2.91963">
        <ele>1016.379116</ele>
        <time>2022-09-02T00:48:13.297Z</time>
      </trkpt>
      <trkpt lat="37.77366" lon="-2.92039">
        <ele>1017.856039</ele>
        <time>2022-09-02T00:48:43.609Z</time>
      </trkpt>
      <trkpt lat="37.77385" lon="-2.92074">
        <ele>1018.455364</ele>
        <time>2022-09-02T00:48:57.565Z</time>
      </trkpt>
      <trkpt lat="37.77428" lon="-2.92124">
        <ele>1019.506897</ele>
        <time>2022-09-02T00:49:20.586Z</time>
      </trkpt>
      <trkpt lat="37.7743" lon="-2.92138">
        <ele>1019.713134</ele>
        <time>2022-09-02T00:49:24.104Z</time>
      </trkpt>
      <trkpt lat="37.77416" lon="-2.92158">
        <ele>1020.090367</ele>
        <time>2022-09-02T00:49:31.530Z</time>
      </trkpt>
      <trkpt lat="37.77383" lon="-2.92143">
        <ele>1020.192563</ele>
        <time>2022-09-02T00:49:44.471Z</time>
      </trkpt>
      <trkpt lat="37.77345" lon="-2.92097">
        <ele>1019.147017</ele>
        <time>2022-09-02T00:50:02.213Z</time>
      </trkpt>
      <trkpt lat="37.77302" lon="-2.92033">
        <ele>1017.824875</ele>
        <time>2022-09-02T00:50:23.496Z</time>
      </trkpt>
      <trkpt lat="37.77262" lon="-2.92015">
        <ele>1016.978902</ele>
        <time>2022-09-02T00:50:36.152Z</time>
      </trkpt>
      <trkpt lat="37.77214" lon="-2.92001">
        <ele>1015.600464</ele>
        <time>2022-09-02T00:50:51.200Z</time>
      </trkpt>
      <trkpt lat="37.77142" lon="-2.91937">
        <ele>1013.082903</ele>
        <time>2022-09-02T00:51:18.412Z</time>
      </trkpt>
      <trkpt lat="37.77118" lon="-2.91924">
        <ele>1012.343516</ele>
        <time>2022-09-02T00:51:26.639Z</time>
      </trkpt>
      <trkpt lat="37.77089" lon="-2.91889">
        <ele>1011.478101</ele>
        <time>2022-09-02T00:51:39.657Z</time>
      </trkpt>
      <trkpt lat="37.76966" lon="-2.9171">
        <ele>1009.177046</ele>
        <time>2022-09-02T00:52:43.938Z</time>
      </trkpt>
      <trkpt lat="37.7678" lon="-2.91443">
        <ele>1006.878512</ele>
        <time>2022-09-02T00:54:23.642Z</time>
      </trkpt>
      <trkpt lat="37.7645" lon="-2.91042">
        <ele>998.550853</ele>
        <time>2022-09-02T00:56:53.412Z</time>
      </trkpt>
      <trkpt lat="37.76398" lon="-2.90982">
        <ele>996.853566</ele>
        <time>2022-09-02T00:57:16.318Z</time>
      </trkpt>
      <trkpt lat="37.76344" lon="-2.90956">
        <ele>995.451465</ele>
        <time>2022-09-02T00:57:34.943Z</time>
      </trkpt>
      <trkpt lat="37.76187" lon="-2.90883">
        <ele>989.178272</ele>
        <time>2022-09-02T00:58:23.825Z</time>
      </trkpt>
      <trkpt lat="37.76135" lon="-2.90865">
        <ele>988.875758</ele>
        <time>2022-09-02T00:58:40.973Z</time>
      </trkpt>
      <trkpt lat="37.76114" lon="-2.90857">
        <ele>989.115468</ele>
        <time>2022-09-02T00:58:48.320Z</time>
      </trkpt>
      <trkpt lat="37.76085" lon="-2.91053">
        <ele>991.730168</ele>
        <time>2022-09-02T00:59:44.711Z</time>
      </trkpt>
      <trkpt lat="37.7606" lon="-2.91103">
        <ele>993.453518</ele>
        <time>2022-09-02T01:00:09.736Z</time>
      </trkpt>
      <trkpt lat="37.75983" lon="-2.91239">
        <ele>996.971279</ele>
        <time>2022-09-02T01:01:02.940Z</time>
      </trkpt>
      <trkpt lat="37.75884" lon="-2.91389">
        <ele>996.153898</ele>
        <time>2022-09-02T01:01:32.216Z</time>
      </trkpt>
      <trkpt lat="37.75838" lon="-2.91457">
        <ele>994.634742</ele>
        <time>2022-09-02T01:01:44.943Z</time>
      </trkpt>
      <trkpt lat="37.75829" lon="-2.91471">
        <ele>994.306476</ele>
        <time>2022-09-02T01:01:47.575Z</time>
      </trkpt>
      <trkpt lat="37.75808" lon="-2.91501">
        <ele>993.627684</ele>
        <time>2022-09-02T01:01:53.170Z</time>
      </trkpt>
      <trkpt lat="37.75799" lon="-2.91513">
        <ele>993.346846</ele>
        <time>2022-09-02T01:01:55.443Z</time>
      </trkpt>
      <trkpt lat="37.75778" lon="-2.91534">
        <ele>992.766505</ele>
        <time>2022-09-02T01:02:00.159Z</time>
      </trkpt>
      <trkpt lat="37.75756" lon="-2.91548">
        <ele>992.290356</ele>
        <time>2022-09-02T01:02:04.670Z</time>
      </trkpt>
      <trkpt lat="37.75132" lon="-2.91679">
        <ele>983.122357</ele>
        <time>2022-09-02T01:04:05.899Z</time>
      </trkpt>
      <trkpt lat="37.74972" lon="-2.91713">
        <ele>981.260213</ele>
        <time>2022-09-02T01:04:37.165Z</time>
      </trkpt>
      <trkpt lat="37.74671" lon="-2.91777">
        <ele>979.432168</ele>
        <time>2022-09-02T01:05:40.667Z</time>
      </trkpt>
      <trkpt lat="37.74252" lon="-2.91864">
        <ele>979.691319</ele>
        <time>2022-09-02T01:07:16.560Z</time>
      </trkpt>
      <trkpt lat="37.74092" lon="-2.91898">
        <ele>980.94942</ele>
        <time>2022-09-02T01:07:56.575Z</time>
      </trkpt>
      <trkpt lat="37.74085" lon="-2.91899">
        <ele>981.034799</ele>
        <time>2022-09-02T01:07:58.491Z</time>
      </trkpt>
      <trkpt lat="37.73847" lon="-2.91949">
        <ele>984.728074</ele>
        <time>2022-09-02T01:09:16.193Z</time>
      </trkpt>
      <trkpt lat="37.73701" lon="-2.91981">
        <ele>985.082857</ele>
        <time>2022-09-02T01:09:53.649Z</time>
      </trkpt>
      <trkpt lat="37.73685" lon="-2.91984">
        <ele>985.054387</ele>
        <time>2022-09-02T01:09:57.083Z</time>
      </trkpt>
      <trkpt lat="37.73004" lon="-2.92128">
        <ele>972.246794</ele>
        <time>2022-09-02T01:12:04.351Z</time>
      </trkpt>
      <trkpt lat="37.7292" lon="-2.92146">
        <ele>970.332722</ele>
        <time>2022-09-02T01:12:19.032Z</time>
      </trkpt>
      <trkpt lat="37.71766" lon="-2.92387">
        <ele>949.248737</ele>
        <time>2022-09-02T01:15:57.050Z</time>
      </trkpt>
      <trkpt lat="37.71508" lon="-2.92442">
        <ele>943.724628</ele>
        <time>2022-09-02T01:16:44.831Z</time>
      </trkpt>
      <trkpt lat="37.71463" lon="-2.92448">
        <ele>942.1904</ele>
        <time>2022-09-02T01:16:52.803Z</time>
      </trkpt>
      <trkpt lat="37.71314" lon="-2.92455">
        <ele>936.982493</ele>
        <time>2022-09-02T01:17:17.784Z</time>
      </trkpt>
      <trkpt lat="37.70867" lon="-2.92446">
        <ele>916.431759</ele>
        <time>2022-09-02T01:18:29.433Z</time>
      </trkpt>
      <trkpt lat="37.7086" lon="-2.92543">
        <ele>912.989618</ele>
        <time>2022-09-02T01:18:42.394Z</time>
      </trkpt>
      <trkpt lat="37.70856" lon="-2.92733">
        <ele>908.016015</ele>
        <time>2022-09-02T01:19:09.144Z</time>
      </trkpt>
      <trkpt lat="37.70871" lon="-2.92896">
        <ele>903.433464</ele>
        <time>2022-09-02T01:19:33.366Z</time>
      </trkpt>
      <trkpt lat="37.70853" lon="-2.92973">
        <ele>901.16997</ele>
        <time>2022-09-02T01:19:44.134Z</time>
      </trkpt>
      <trkpt lat="37.7084" lon="-2.93015">
        <ele>899.431355</ele>
        <time>2022-09-02T01:19:50.093Z</time>
      </trkpt>
      <trkpt lat="37.70825" lon="-2.93036">
        <ele>898.105521</ele>
        <time>2022-09-02T01:19:53.619Z</time>
      </trkpt>
      <trkpt lat="37.70808" lon="-2.9306">
        <ele>896.547954</ele>
        <time>2022-09-02T01:19:57.889Z</time>
      </trkpt>
      <trkpt lat="37.70808" lon="-2.9307">
        <ele>896.071591</ele>
        <time>2022-09-02T01:19:59.106Z</time>
      </trkpt>
      <trkpt lat="37.7079" lon="-2.93113">
        <ele>893.716743</ele>
        <time>2022-09-02T01:20:05.295Z</time>
      </trkpt>
      <trkpt lat="37.7078" lon="-2.93125">
        <ele>892.893925</ele>
        <time>2022-09-02T01:20:07.456Z</time>
      </trkpt>
      <trkpt lat="37.70765" lon="-2.93133">
        <ele>891.89025</ele>
        <time>2022-09-02T01:20:10.001Z</time>
      </trkpt>
      <trkpt lat="37.70734" lon="-2.93152">
        <ele>889.775174</ele>
        <time>2022-09-02T01:20:15.471Z</time>
      </trkpt>
      <trkpt lat="37.7072" lon="-2.93174">
        <ele>888.479554</ele>
        <time>2022-09-02T01:20:19.012Z</time>
      </trkpt>
      <trkpt lat="37.70709" lon="-2.93208">
        <ele>886.775037</ele>
        <time>2022-09-02T01:20:23.703Z</time>
      </trkpt>
      <trkpt lat="37.70706" lon="-2.93253">
        <ele>884.702498</ele>
        <time>2022-09-02T01:20:29.557Z</time>
      </trkpt>
      <trkpt lat="37.70705" lon="-2.93279">
        <ele>883.488098</ele>
        <time>2022-09-02T01:20:32.991Z</time>
      </trkpt>
      <trkpt lat="37.70657" lon="-2.93295">
        <ele>880.585339</ele>
        <time>2022-09-02T01:20:41.287Z</time>
      </trkpt>
      <trkpt lat="37.70627" lon="-2.93303">
        <ele>878.748462</ele>
        <time>2022-09-02T01:20:46.292Z</time>
      </trkpt>
      <trkpt lat="37.70561" lon="-2.93335">
        <ele>874.007798</ele>
        <time>2022-09-02T01:20:57.728Z</time>
      </trkpt>
      <trkpt lat="37.70553" lon="-2.93339">
        <ele>873.487987</ele>
        <time>2022-09-02T01:20:58.999Z</time>
      </trkpt>
      <trkpt lat="37.70523" lon="-2.93366">
        <ele>870.994919</ele>
        <time>2022-09-02T01:21:05.027Z</time>
      </trkpt>
      <trkpt lat="37.70484" lon="-2.93444">
        <ele>866.021827</ele>
        <time>2022-09-02T01:21:16.313Z</time>
      </trkpt>
      <trkpt lat="37.70464" lon="-2.93492">
        <ele>862.852237</ele>
        <time>2022-09-02T01:21:22.899Z</time>
      </trkpt>
      <trkpt lat="37.70436" lon="-2.93493">
        <ele>860.793708</ele>
        <time>2022-09-02T01:21:27.203Z</time>
      </trkpt>
      <trkpt lat="37.70423" lon="-2.93529">
        <ele>858.528997</ele>
        <time>2022-09-02T01:21:32.004Z</time>
      </trkpt>
      <trkpt lat="37.70415" lon="-2.93528">
        <ele>857.938262</ele>
        <time>2022-09-02T01:21:33.228Z</time>
      </trkpt>
      <trkpt lat="37.70408" lon="-2.93546">
        <ele>856.782626</ele>
        <time>2022-09-02T01:21:35.739Z</time>
      </trkpt>
      <trkpt lat="37.70388" lon="-2.93545">
        <ele>855.297339</ele>
        <time>2022-09-02T01:21:38.943Z</time>
      </trkpt>
      <trkpt lat="37.70383" lon="-2.93563">
        <ele>854.169906</ele>
        <time>2022-09-02T01:21:41.425Z</time>
      </trkpt>
      <trkpt lat="37.70366" lon="-2.93603">
        <ele>852.596371</ele>
        <time>2022-09-02T01:21:47.249Z</time>
      </trkpt>
      <trkpt lat="37.70326" lon="-2.93662">
        <ele>850.088846</ele>
        <time>2022-09-02T01:21:57.308Z</time>
      </trkpt>
      <trkpt lat="37.70307" lon="-2.93692">
        <ele>848.831988</ele>
        <time>2022-09-02T01:22:02.479Z</time>
      </trkpt>
      <trkpt lat="37.70273" lon="-2.9375">
        <ele>846.533765</ele>
        <time>2022-09-02T01:22:12.828Z</time>
      </trkpt>
      <trkpt lat="37.70245" lon="-2.93797">
        <ele>846.053483</ele>
        <time>2022-09-02T01:22:21.912Z</time>
      </trkpt>
      <trkpt lat="37.70242" lon="-2.93796">
        <ele>846.018186</ele>
        <time>2022-09-02T01:22:22.624Z</time>
      </trkpt>
      <trkpt lat="37.70214" lon="-2.93848">
        <ele>845.497336</ele>
        <time>2022-09-02T01:22:32.555Z</time>
      </trkpt>
      <trkpt lat="37.70207" lon="-2.93906">
        <ele>845.010833</ele>
        <time>2022-09-02T01:22:41.779Z</time>
      </trkpt>
      <trkpt lat="37.70187" lon="-2.93947">
        <ele>844.643137</ele>
        <time>2022-09-02T01:22:49.565Z</time>
      </trkpt>
      <trkpt lat="37.70152" lon="-2.93995">
        <ele>844.326327</ele>
        <time>2022-09-02T01:23:00.979Z</time>
      </trkpt>
      <trkpt lat="37.70122" lon="-2.94019">
        <ele>844.109888</ele>
        <time>2022-09-02T01:23:08.604Z</time>
      </trkpt>
      <trkpt lat="37.70048" lon="-2.94061">
        <ele>843.610893</ele>
        <time>2022-09-02T01:23:25.106Z</time>
      </trkpt>
      <trkpt lat="37.69934" lon="-2.94113">
        <ele>842.264902</ele>
        <time>2022-09-02T01:23:48.733Z</time>
      </trkpt>
      <trkpt lat="37.69869" lon="-2.94134">
        <ele>841.49814</ele>
        <time>2022-09-02T01:24:01.805Z</time>
      </trkpt>
      <trkpt lat="37.69846" lon="-2.94136">
        <ele>841.171077</ele>
        <time>2022-09-02T01:24:06.315Z</time>
      </trkpt>
      <trkpt lat="37.69781" lon="-2.94145">
        <ele>840.242014</ele>
        <time>2022-09-02T01:24:19.144Z</time>
      </trkpt>
      <trkpt lat="37.69764" lon="-2.9415">
        <ele>839.987989</ele>
        <time>2022-09-02T01:24:22.616Z</time>
      </trkpt>
      <trkpt lat="37.69627" lon="-2.94193">
        <ele>837.335912</ele>
        <time>2022-09-02T01:24:48.960Z</time>
      </trkpt>
      <trkpt lat="37.69614" lon="-2.94218">
        <ele>836.7863</ele>
        <time>2022-09-02T01:24:53.075Z</time>
      </trkpt>
      <trkpt lat="37.69611" lon="-2.94234">
        <ele>836.475019</ele>
        <time>2022-09-02T01:24:55.458Z</time>
      </trkpt>
      <trkpt lat="37.69601" lon="-2.9425">
        <ele>836.093526</ele>
        <time>2022-09-02T01:24:58.254Z</time>
      </trkpt>
      <trkpt lat="37.69586" lon="-2.94257">
        <ele>835.712592</ele>
        <time>2022-09-02T01:25:01.160Z</time>
      </trkpt>
      <trkpt lat="37.6957" lon="-2.94253">
        <ele>835.329248</ele>
        <time>2022-09-02T01:25:03.943Z</time>
      </trkpt>
      <trkpt lat="37.69557" lon="-2.94238">
        <ele>834.913006</ele>
        <time>2022-09-02T01:25:07.053Z</time>
      </trkpt>
      <trkpt lat="37.69499" lon="-2.94284">
        <ele>833.09392</ele>
        <time>2022-09-02T01:25:18.789Z</time>
      </trkpt>
      <trkpt lat="37.69406" lon="-2.94354">
        <ele>830.186148</ele>
        <time>2022-09-02T01:25:37.782Z</time>
      </trkpt>
      <trkpt lat="37.69352" lon="-2.94385">
        <ele>829.152201</ele>
        <time>2022-09-02T01:25:48.514Z</time>
      </trkpt>
      <trkpt lat="37.69105" lon="-2.94483">
        <ele>825.771394</ele>
        <time>2022-09-02T01:26:39.208Z</time>
      </trkpt>
      <trkpt lat="37.68994" lon="-2.94532">
        <ele>824.803238</ele>
        <time>2022-09-02T01:27:02.971Z</time>
      </trkpt>
      <trkpt lat="37.68948" lon="-2.94561">
        <ele>824.46988</ele>
        <time>2022-09-02T01:27:13.644Z</time>
      </trkpt>
      <trkpt lat="37.68897" lon="-2.94602">
        <ele>824.084266</ele>
        <time>2022-09-02T01:27:26.098Z</time>
      </trkpt>
      <trkpt lat="37.68851" lon="-2.94654">
        <ele>823.814415</ele>
        <time>2022-09-02T01:27:38.948Z</time>
      </trkpt>
      <trkpt lat="37.68842" lon="-2.94644">
        <ele>823.763506</ele>
        <time>2022-09-02T01:27:41.583Z</time>
      </trkpt>
      <trkpt lat="37.68592" lon="-2.94851">
        <ele>822.572715</ele>
        <time>2022-09-02T01:28:47.915Z</time>
      </trkpt>
      <trkpt lat="37.68312" lon="-2.94977">
        <ele>821.748233</ele>
        <time>2022-09-02T01:29:53.040Z</time>
      </trkpt>
      <trkpt lat="37.68237" lon="-2.94986">
        <ele>822.000173</ele>
        <time>2022-09-02T01:30:13.509Z</time>
      </trkpt>
      <trkpt lat="37.6819" lon="-2.94992">
        <ele>822.552842</ele>
        <time>2022-09-02T01:30:27.300Z</time>
      </trkpt>
      <trkpt lat="37.6807" lon="-2.95038">
        <ele>823.995379</ele>
        <time>2022-09-02T01:31:05.039Z</time>
      </trkpt>
      <trkpt lat="37.68016" lon="-2.95037">
        <ele>824.514238</ele>
        <time>2022-09-02T01:31:20.575Z</time>
      </trkpt>
      <trkpt lat="37.67831" lon="-2.95143">
        <ele>825.927895</ele>
        <time>2022-09-02T01:32:15.476Z</time>
      </trkpt>
      <trkpt lat="37.67767" lon="-2.95161">
        <ele>826.180253</ele>
        <time>2022-09-02T01:32:31.292Z</time>
      </trkpt>
      <trkpt lat="37.67706" lon="-2.95178">
        <ele>825.931985</ele>
        <time>2022-09-02T01:32:45.414Z</time>
      </trkpt>
      <trkpt lat="37.67471" lon="-2.9532">
        <ele>823.505534</ele>
        <time>2022-09-02T01:33:39.333Z</time>
      </trkpt>
      <trkpt lat="37.6719" lon="-2.95284">
        <ele>820.903149</ele>
        <time>2022-09-02T01:34:37.785Z</time>
      </trkpt>
      <trkpt lat="37.66985" lon="-2.9528">
        <ele>820.58765</ele>
        <time>2022-09-02T01:35:25.078Z</time>
      </trkpt>
      <trkpt lat="37.66879" lon="-2.9529">
        <ele>820.716648</ele>
        <time>2022-09-02T01:35:51.433Z</time>
      </trkpt>
      <trkpt lat="37.66408" lon="-2.95241">
        <ele>820.555321</ele>
        <time>2022-09-02T01:37:39.672Z</time>
      </trkpt>
      <trkpt lat="37.66391" lon="-2.95313">
        <ele>820.589571</ele>
        <time>2022-09-02T01:37:53.502Z</time>
      </trkpt>
      <trkpt lat="37.66378" lon="-2.95336">
        <ele>820.637144</ele>
        <time>2022-09-02T01:37:58.950Z</time>
      </trkpt>
      <trkpt lat="37.66242" lon="-2.95396">
        <ele>821.174794</ele>
        <time>2022-09-02T01:38:34.037Z</time>
      </trkpt>
      <trkpt lat="37.66221" lon="-2.9541">
        <ele>821.263957</ele>
        <time>2022-09-02T01:38:39.871Z</time>
      </trkpt>
      <trkpt lat="37.6616" lon="-2.95463">
        <ele>821.187553</ele>
        <time>2022-09-02T01:38:57.428Z</time>
      </trkpt>
      <trkpt lat="37.66131" lon="-2.955">
        <ele>821.141971</ele>
        <time>2022-09-02T01:39:06.407Z</time>
      </trkpt>
      <trkpt lat="37.66106" lon="-2.95544">
        <ele>821.095378</ele>
        <time>2022-09-02T01:39:15.226Z</time>
      </trkpt>
      <trkpt lat="37.66098" lon="-2.95563">
        <ele>821.076287</ele>
        <time>2022-09-02T01:39:18.751Z</time>
      </trkpt>
      <trkpt lat="37.66092" lon="-2.95598">
        <ele>820.944837</ele>
        <time>2022-09-02T01:39:24.550Z</time>
      </trkpt>
      <trkpt lat="37.66094" lon="-2.9581">
        <ele>820.130123</ele>
        <time>2022-09-02T01:39:59.320Z</time>
      </trkpt>
      <trkpt lat="37.66087" lon="-2.95869">
        <ele>820.307859</ele>
        <time>2022-09-02T01:40:09.588Z</time>
      </trkpt>
      <trkpt lat="37.65941" lon="-2.9606">
        <ele>821.996961</ele>
        <time>2022-09-02T01:41:04.081Z</time>
      </trkpt>
      <trkpt lat="37.65928" lon="-2.96063">
        <ele>822.178853</ele>
        <time>2022-09-02T01:41:08.055Z</time>
      </trkpt>
      <trkpt lat="37.65875" lon="-2.9615">
        <ele>823.500129</ele>
        <time>2022-09-02T01:41:35.973Z</time>
      </trkpt>
      <trkpt lat="37.65703" lon="-2.96346">
        <ele>829.237559</ele>
        <time>2022-09-02T01:42:59.104Z</time>
      </trkpt>
      <trkpt lat="37.65634" lon="-2.96395">
        <ele>830.936681</ele>
        <time>2022-09-02T01:43:24.971Z</time>
      </trkpt>
      <trkpt lat="37.65595" lon="-2.96432">
        <ele>831.918273</ele>
        <time>2022-09-02T01:43:39.575Z</time>
      </trkpt>
      <trkpt lat="37.65565" lon="-2.96444">
        <ele>832.389121</ele>
        <time>2022-09-02T01:43:48.672Z</time>
      </trkpt>
      <trkpt lat="37.65502" lon="-2.9645">
        <ele>833.322952</ele>
        <time>2022-09-02T01:44:06.752Z</time>
      </trkpt>
      <trkpt lat="37.65456" lon="-2.96436">
        <ele>834.008682</ele>
        <time>2022-09-02T01:44:20.928Z</time>
      </trkpt>
      <trkpt lat="37.65392" lon="-2.96449">
        <ele>834.924585</ele>
        <time>2022-09-02T01:44:40.593Z</time>
      </trkpt>
      <trkpt lat="37.65379" lon="-2.96462">
        <ele>835.155454</ele>
        <time>2022-09-02T01:44:45.711Z</time>
      </trkpt>
      <trkpt lat="37.65355" lon="-2.96496">
        <ele>835.645316</ele>
        <time>2022-09-02T01:44:56.410Z</time>
      </trkpt>
      <trkpt lat="37.65211" lon="-2.96581">
        <ele>837.531294</ele>
        <time>2022-09-02T01:45:41.198Z</time>
      </trkpt>
      <trkpt lat="37.65182" lon="-2.96611">
        <ele>837.89096</ele>
        <time>2022-09-02T01:45:51.070Z</time>
      </trkpt>
      <trkpt lat="37.65075" lon="-2.9665">
        <ele>838.897856</ele>
        <time>2022-09-02T01:46:20.323Z</time>
      </trkpt>
      <trkpt lat="37.65067" lon="-2.96659">
        <ele>838.981903</ele>
        <time>2022-09-02T01:46:23.002Z</time>
      </trkpt>
      <trkpt lat="37.6499" lon="-2.96718">
        <ele>839.692432</ele>
        <time>2022-09-02T01:46:46.438Z</time>
      </trkpt>
      <trkpt lat="37.64909" lon="-2.96764">
        <ele>840.350931</ele>
        <time>2022-09-02T01:47:10.081Z</time>
      </trkpt>
      <trkpt lat="37.64782" lon="-2.968">
        <ele>841.247235</ele>
        <time>2022-09-02T01:47:43.190Z</time>
      </trkpt>
      <trkpt lat="37.64705" lon="-2.96842">
        <ele>841.488676</ele>
        <time>2022-09-02T01:48:04.007Z</time>
      </trkpt>
      <trkpt lat="37.64629" lon="-2.96873">
        <ele>841.7038</ele>
        <time>2022-09-02T01:48:22.547Z</time>
      </trkpt>
      <trkpt lat="37.64573" lon="-2.96907">
        <ele>841.439916</ele>
        <time>2022-09-02T01:48:36.114Z</time>
      </trkpt>
      <trkpt lat="37.64232" lon="-2.9707">
        <ele>837.674011</ele>
        <time>2022-09-02T01:49:48.461Z</time>
      </trkpt>
      <trkpt lat="37.64194" lon="-2.97094">
        <ele>836.892872</ele>
        <time>2022-09-02T01:49:56.430Z</time>
      </trkpt>
      <trkpt lat="37.64124" lon="-2.97199">
        <ele>834.692135</ele>
        <time>2022-09-02T01:50:15.984Z</time>
      </trkpt>
      <trkpt lat="37.64012" lon="-2.97235">
        <ele>831.385734</ele>
        <time>2022-09-02T01:50:35.968Z</time>
      </trkpt>
      <trkpt lat="37.63918" lon="-2.97313">
        <ele>828.559654</ele>
        <time>2022-09-02T01:50:55.422Z</time>
      </trkpt>
      <trkpt lat="37.63808" lon="-2.9743">
        <ele>825.657007</ele>
        <time>2022-09-02T01:51:21.894Z</time>
      </trkpt>
      <trkpt lat="37.63776" lon="-2.97459">
        <ele>825.221166</ele>
        <time>2022-09-02T01:51:35.659Z</time>
      </trkpt>
      <trkpt lat="37.63765" lon="-2.97494">
        <ele>824.89925</ele>
        <time>2022-09-02T01:51:45.966Z</time>
      </trkpt>
      <trkpt lat="37.63768" lon="-2.9751">
        <ele>824.762267</ele>
        <time>2022-09-02T01:51:50.432Z</time>
      </trkpt>
      <trkpt lat="37.63843" lon="-2.97576">
        <ele>823.404571</ele>
        <time>2022-09-02T01:52:22.937Z</time>
      </trkpt>
      <trkpt lat="37.63846" lon="-2.97587">
        <ele>823.170115</ele>
        <time>2022-09-02T01:52:26.144Z</time>
      </trkpt>
      <trkpt lat="37.63869" lon="-2.97698">
        <ele>820.854899</ele>
        <time>2022-09-02T01:52:57.078Z</time>
      </trkpt>
      <trkpt lat="37.63873" lon="-2.97936">
        <ele>810.543536</ele>
        <time>2022-09-02T01:53:49.973Z</time>
      </trkpt>
      <trkpt lat="37.63955" lon="-2.98079">
        <ele>799.39446</ele>
        <time>2022-09-02T01:54:26.463Z</time>
      </trkpt>
      <trkpt lat="37.64053" lon="-2.98149">
        <ele>790.417421</ele>
        <time>2022-09-02T01:54:56.121Z</time>
      </trkpt>
      <trkpt lat="37.64035" lon="-2.98232">
        <ele>786.404975</ele>
        <time>2022-09-02T01:55:15.726Z</time>
      </trkpt>
      <trkpt lat="37.64111" lon="-2.9842">
        <ele>776.928233</ele>
        <time>2022-09-02T01:56:03.519Z</time>
      </trkpt>
      <trkpt lat="37.641" lon="-2.98537">
        <ele>771.889575</ele>
        <time>2022-09-02T01:56:29.996Z</time>
      </trkpt>
      <trkpt lat="37.64055" lon="-2.98552">
        <ele>768.575781</ele>
        <time>2022-09-02T01:56:43.315Z</time>
      </trkpt>
      <trkpt lat="37.6406" lon="-2.98607">
        <ele>765.343805</ele>
        <time>2022-09-02T01:56:55.991Z</time>
      </trkpt>
      <trkpt lat="37.64134" lon="-2.98755">
        <ele>753.812047</ele>
        <time>2022-09-02T01:57:32.292Z</time>
      </trkpt>
      <trkpt lat="37.64141" lon="-2.98781">
        <ele>751.574005</ele>
        <time>2022-09-02T01:57:37.792Z</time>
      </trkpt>
      <trkpt lat="37.6417" lon="-2.98906">
        <ele>740.858769</ele>
        <time>2022-09-02T01:58:04.019Z</time>
      </trkpt>
      <trkpt lat="37.64168" lon="-2.98986">
        <ele>735.673672</ele>
        <time>2022-09-02T01:58:20.075Z</time>
      </trkpt>
      <trkpt lat="37.64159" lon="-2.99009">
        <ele>734.09019</ele>
        <time>2022-09-02T01:58:25.295Z</time>
      </trkpt>
      <trkpt lat="37.64137" lon="-2.99025">
        <ele>732.109299</ele>
        <time>2022-09-02T01:58:31.912Z</time>
      </trkpt>
      <trkpt lat="37.64133" lon="-2.99008">
        <ele>731.03161</ele>
        <time>2022-09-02T01:58:35.897Z</time>
      </trkpt>
      <trkpt lat="37.64113" lon="-2.98985">
        <ele>728.885353</ele>
        <time>2022-09-02T01:58:43.667Z</time>
      </trkpt>
      <trkpt lat="37.641" lon="-2.98989">
        <ele>727.851596</ele>
        <time>2022-09-02T01:58:47.657Z</time>
      </trkpt>
      <trkpt lat="37.64094" lon="-2.99007">
        <ele>726.630459</ele>
        <time>2022-09-02T01:58:52.136Z</time>
      </trkpt>
      <trkpt lat="37.64104" lon="-2.99028">
        <ele>725.229385</ele>
        <time>2022-09-02T01:58:57.881Z</time>
      </trkpt>
      <trkpt lat="37.64096" lon="-2.9905">
        <ele>723.997895</ele>
        <time>2022-09-02T01:59:03.081Z</time>
      </trkpt>
      <trkpt lat="37.64134" lon="-2.99092">
        <ele>720.584636</ele>
        <time>2022-09-02T01:59:18.104Z</time>
      </trkpt>
      <trkpt lat="37.64125" lon="-2.99123">
        <ele>718.843442</ele>
        <time>2022-09-02T01:59:25.335Z</time>
      </trkpt>
      <trkpt lat="37.64191" lon="-2.99164">
        <ele>713.930035</ele>
        <time>2022-09-02T01:59:44.976Z</time>
      </trkpt>
      <trkpt lat="37.64186" lon="-2.99203">
        <ele>710.16595</ele>
        <time>2022-09-02T01:59:53.200Z</time>
      </trkpt>
      <trkpt lat="37.6425" lon="-2.99268">
        <ele>700.019527</ele>
        <time>2022-09-02T02:00:13.542Z</time>
      </trkpt>
      <trkpt lat="37.64252" lon="-2.99407">
        <ele>685.851172</ele>
        <time>2022-09-02T02:00:40.351Z</time>
      </trkpt>
      <trkpt lat="37.64217" lon="-2.9948">
        <ele>676.665346</ele>
        <time>2022-09-02T02:00:57.075Z</time>
      </trkpt>
      <trkpt lat="37.64217" lon="-2.99648">
        <ele>658.568021</ele>
        <time>2022-09-02T02:01:29.598Z</time>
      </trkpt>
      <trkpt lat="37.6406" lon="-2.99786">
        <ele>634.768146</ele>
        <time>2022-09-02T02:02:16.491Z</time>
      </trkpt>
      <trkpt lat="37.64" lon="-2.99794">
        <ele>628.565908</ele>
        <time>2022-09-02T02:02:31.744Z</time>
      </trkpt>
      <trkpt lat="37.63913" lon="-2.99772">
        <ele>621.05107</ele>
        <time>2022-09-02T02:02:56.677Z</time>
      </trkpt>
      <trkpt lat="37.63877" lon="-2.99799">
        <ele>618.431108</ele>
        <time>2022-09-02T02:03:09.433Z</time>
      </trkpt>
      <trkpt lat="37.63892" lon="-2.99861">
        <ele>615.24721</ele>
        <time>2022-09-02T02:03:23.863Z</time>
      </trkpt>
      <trkpt lat="37.63941" lon="-2.99885">
        <ele>611.955936</ele>
        <time>2022-09-02T02:03:37.948Z</time>
      </trkpt>
      <trkpt lat="37.63915" lon="-3.00001">
        <ele>605.733649</ele>
        <time>2022-09-02T02:04:03.147Z</time>
      </trkpt>
      <trkpt lat="37.63957" lon="-3.00068">
        <ele>601.340051</ele>
        <time>2022-09-02T02:04:21.848Z</time>
      </trkpt>
      <trkpt lat="37.64087" lon="-3.00066">
        <ele>597.039042</ele>
        <time>2022-09-02T02:05:04.764Z</time>
      </trkpt>
      <trkpt lat="37.64132" lon="-3.00022">
        <ele>595.296905</ele>
        <time>2022-09-02T02:05:23.953Z</time>
      </trkpt>
      <trkpt lat="37.64146" lon="-3.00024">
        <ele>593.910069</ele>
        <time>2022-09-02T02:05:27.886Z</time>
      </trkpt>
      <trkpt lat="37.64083" lon="-3.00115">
        <ele>583.348598</ele>
        <time>2022-09-02T02:05:52.581Z</time>
      </trkpt>
      <trkpt lat="37.64006" lon="-3.00167">
        <ele>573.280886</ele>
        <time>2022-09-02T02:06:13.698Z</time>
      </trkpt>
      <trkpt lat="37.63927" lon="-3.00154">
        <ele>562.360221</ele>
        <time>2022-09-02T02:06:32.678Z</time>
      </trkpt>
      <trkpt lat="37.63904" lon="-3.00126">
        <ele>557.961757</ele>
        <time>2022-09-02T02:06:40.348Z</time>
      </trkpt>
      <trkpt lat="37.63833" lon="-3.00098">
        <ele>549.369465</ele>
        <time>2022-09-02T02:06:59.308Z</time>
      </trkpt>
      <trkpt lat="37.6381" lon="-3.00129">
        <ele>547.332659</ele>
        <time>2022-09-02T02:07:08.481Z</time>
      </trkpt>
      <trkpt lat="37.6381" lon="-3.00157">
        <ele>546.031581</ele>
        <time>2022-09-02T02:07:14.404Z</time>
      </trkpt>
      <trkpt lat="37.63795" lon="-3.00229">
        <ele>542.442486</ele>
        <time>2022-09-02T02:07:31.542Z</time>
      </trkpt>
      <trkpt lat="37.63776" lon="-3.00246">
        <ele>541.045044</ele>
        <time>2022-09-02T02:07:38.379Z</time>
      </trkpt>
      <trkpt lat="37.63736" lon="-3.00258">
        <ele>539.54148</ele>
        <time>2022-09-02T02:07:50.698Z</time>
      </trkpt>
      <trkpt lat="37.63648" lon="-3.00336">
        <ele>538.315885</ele>
        <time>2022-09-02T02:08:28.945Z</time>
      </trkpt>
      <trkpt lat="37.63586" lon="-3.0037">
        <ele>537.643725</ele>
        <time>2022-09-02T02:08:53.764Z</time>
      </trkpt>
      <trkpt lat="37.63391" lon="-3.00601">
        <ele>536.566296</ele>
        <time>2022-09-02T02:10:28.244Z</time>
      </trkpt>
      <trkpt lat="37.63326" lon="-3.00648">
        <ele>536.42819</ele>
        <time>2022-09-02T02:10:57.749Z</time>
      </trkpt>
      <trkpt lat="37.63311" lon="-3.00644">
        <ele>536.429039</ele>
        <time>2022-09-02T02:11:04.369Z</time>
      </trkpt>
      <trkpt lat="37.63296" lon="-3.00651">
        <ele>536.433621</ele>
        <time>2022-09-02T02:11:10.177Z</time>
      </trkpt>
      <trkpt lat="37.63229" lon="-3.00699">
        <ele>536.455365</ele>
        <time>2022-09-02T02:11:39.405Z</time>
      </trkpt>
      <trkpt lat="37.63205" lon="-3.00701">
        <ele>536.462302</ele>
        <time>2022-09-02T02:11:48.905Z</time>
      </trkpt>
      <trkpt lat="37.63108" lon="-3.00731">
        <ele>536.581507</ele>
        <time>2022-09-02T02:12:24.371Z</time>
      </trkpt>
      <trkpt lat="37.63066" lon="-3.00737">
        <ele>536.668743</ele>
        <time>2022-09-02T02:12:39.672Z</time>
      </trkpt>
      <trkpt lat="37.63039" lon="-3.00752">
        <ele>536.729792</ele>
        <time>2022-09-02T02:12:50.843Z</time>
      </trkpt>
      <trkpt lat="37.63012" lon="-3.00747">
        <ele>536.786385</ele>
        <time>2022-09-02T02:13:01.777Z</time>
      </trkpt>
      <trkpt lat="37.62989" lon="-3.00711">
        <ele>536.970491</ele>
        <time>2022-09-02T02:13:17.499Z</time>
      </trkpt>
      <trkpt lat="37.62955" lon="-3.00646">
        <ele>538.064056</ele>
        <time>2022-09-02T02:13:46.233Z</time>
      </trkpt>
      <trkpt lat="37.6289" lon="-3.00544">
        <ele>539.891817</ele>
        <time>2022-09-02T02:14:35.371Z</time>
      </trkpt>
      <trkpt lat="37.62845" lon="-3.00515">
        <ele>540.890006</ele>
        <time>2022-09-02T02:14:57.991Z</time>
      </trkpt>
      <trkpt lat="37.62793" lon="-3.00445">
        <ele>542.407289</ele>
        <time>2022-09-02T02:15:29.172Z</time>
      </trkpt>
      <trkpt lat="37.62778" lon="-3.00437">
        <ele>542.72322</ele>
        <time>2022-09-02T02:15:38.267Z</time>
      </trkpt>
      <trkpt lat="37.62761" lon="-3.00438">
        <ele>543.074215</ele>
        <time>2022-09-02T02:15:47.721Z</time>
      </trkpt>
      <trkpt lat="37.62715" lon="-3.00455">
        <ele>544.190056</ele>
        <time>2022-09-02T02:16:13.693Z</time>
      </trkpt>
      <trkpt lat="37.62674" lon="-3.00462">
        <ele>545.352775</ele>
        <time>2022-09-02T02:16:36.922Z</time>
      </trkpt>
      <trkpt lat="37.6265" lon="-3.00454">
        <ele>546.049172</ele>
        <time>2022-09-02T02:16:49.218Z</time>
      </trkpt>
      <trkpt lat="37.62628" lon="-3.00451">
        <ele>546.649506</ele>
        <time>2022-09-02T02:17:02.603Z</time>
      </trkpt>
      <trkpt lat="37.62566" lon="-3.00422">
        <ele>548.492967</ele>
        <time>2022-09-02T02:17:36.433Z</time>
      </trkpt>
      <trkpt lat="37.62395" lon="-3.00424">
        <ele>547.657765</ele>
        <time>2022-09-02T02:18:36.909Z</time>
      </trkpt>
      <trkpt lat="37.62348" lon="-3.00431">
        <ele>547.270687</ele>
        <time>2022-09-02T02:18:51.639Z</time>
      </trkpt>
      <trkpt lat="37.62319" lon="-3.00426">
        <ele>547.006026</ele>
        <time>2022-09-02T02:19:00.854Z</time>
      </trkpt>
      <trkpt lat="37.62223" lon="-3.00365">
        <ele>546.027021</ele>
        <time>2022-09-02T02:19:38.407Z</time>
      </trkpt>
      <trkpt lat="37.62211" lon="-3.00355">
        <ele>546.074054</ele>
        <time>2022-09-02T02:19:44.581Z</time>
      </trkpt>
      <trkpt lat="37.62184" lon="-3.00315">
        <ele>547.278723</ele>
        <time>2022-09-02T02:20:04.570Z</time>
      </trkpt>
      <trkpt lat="37.62158" lon="-3.00299">
        <ele>548.112257</ele>
        <time>2022-09-02T02:20:20.111Z</time>
      </trkpt>
      <trkpt lat="37.62063" lon="-3.0028">
        <ele>550.874103</ele>
        <time>2022-09-02T02:21:13.938Z</time>
      </trkpt>
      <trkpt lat="37.62007" lon="-3.0028">
        <ele>552.216327</ele>
        <time>2022-09-02T02:21:44.637Z</time>
      </trkpt>
      <trkpt lat="37.61982" lon="-3.00295">
        <ele>552.864961</ele>
        <time>2022-09-02T02:21:59.180Z</time>
      </trkpt>
      <trkpt lat="37.61957" lon="-3.00302">
        <ele>553.460884</ele>
        <time>2022-09-02T02:22:11.910Z</time>
      </trkpt>
      <trkpt lat="37.61903" lon="-3.00309">
        <ele>554.719738</ele>
        <time>2022-09-02T02:22:36.746Z</time>
      </trkpt>
      <trkpt lat="37.61857" lon="-3.00302">
        <ele>555.235804</ele>
        <time>2022-09-02T02:22:56.210Z</time>
      </trkpt>
      <trkpt lat="37.61703" lon="-3.00377">
        <ele>554.579761</ele>
        <time>2022-09-02T02:23:55.399Z</time>
      </trkpt>
      <trkpt lat="37.61681" lon="-3.00396">
        <ele>553.7807</ele>
        <time>2022-09-02T02:24:04.203Z</time>
      </trkpt>
      <trkpt lat="37.61588" lon="-3.00426">
        <ele>550.867847</ele>
        <time>2022-09-02T02:24:33.999Z</time>
      </trkpt>
      <trkpt lat="37.61527" lon="-3.00457">
        <ele>548.766963</ele>
        <time>2022-09-02T02:24:53.057Z</time>
      </trkpt>
      <trkpt lat="37.61462" lon="-3.005">
        <ele>545.782562</ele>
        <time>2022-09-02T02:25:14.545Z</time>
      </trkpt>
      <trkpt lat="37.61468" lon="-3.00635">
        <ele>541.948315</ele>
        <time>2022-09-02T02:25:46.333Z</time>
      </trkpt>
      <trkpt lat="37.61063" lon="-3.00691">
        <ele>539.573827</ele>
        <time>2022-09-02T02:28:12.433Z</time>
      </trkpt>
      <trkpt lat="37.60986" lon="-3.00707">
        <ele>539.688124</ele>
        <time>2022-09-02T02:28:43.384Z</time>
      </trkpt>
      <trkpt lat="37.60961" lon="-3.00701">
        <ele>539.72578</ele>
        <time>2022-09-02T02:28:53.389Z</time>
      </trkpt>
      <trkpt lat="37.60891" lon="-3.00662">
        <ele>539.915861</ele>
        <time>2022-09-02T02:29:22.961Z</time>
      </trkpt>
      <trkpt lat="37.60893" lon="-3.00638">
        <ele>539.967102</ele>
        <time>2022-09-02T02:29:30.506Z</time>
      </trkpt>
      <trkpt lat="37.60837" lon="-3.00672">
        <ele>540.134683</ele>
        <time>2022-09-02T02:29:53.785Z</time>
      </trkpt>
      <trkpt lat="37.60783" lon="-3.00659">
        <ele>540.315939</ele>
        <time>2022-09-02T02:30:14.973Z</time>
      </trkpt>
      <trkpt lat="37.60723" lon="-3.00637">
        <ele>540.586894</ele>
        <time>2022-09-02T02:30:38.953Z</time>
      </trkpt>
      <trkpt lat="37.60655" lon="-3.00635">
        <ele>540.876564</ele>
        <time>2022-09-02T02:31:05.514Z</time>
      </trkpt>
      <trkpt lat="37.60599" lon="-3.00648">
        <ele>541.237331</ele>
        <time>2022-09-02T02:31:29.369Z</time>
      </trkpt>
      <trkpt lat="37.60517" lon="-3.00605">
        <ele>541.974227</ele>
        <time>2022-09-02T02:32:06.014Z</time>
      </trkpt>
      <trkpt lat="37.60477" lon="-3.00552">
        <ele>542.455761</ele>
        <time>2022-09-02T02:32:29.738Z</time>
      </trkpt>
      <trkpt lat="37.60395" lon="-3.00532">
        <ele>543.686035</ele>
        <time>2022-09-02T02:33:04.831Z</time>
      </trkpt>
      <trkpt lat="37.60382" lon="-3.00523">
        <ele>543.904949</ele>
        <time>2022-09-02T02:33:11.185Z</time>
      </trkpt>
      <trkpt lat="37.60365" lon="-3.00458">
        <ele>544.731452</ele>
        <time>2022-09-02T02:33:35.866Z</time>
      </trkpt>
      <trkpt lat="37.60269" lon="-3.0043">
        <ele>546.982368</ele>
        <time>2022-09-02T02:34:24.506Z</time>
      </trkpt>
      <trkpt lat="37.60185" lon="-3.00462">
        <ele>549.357425</ele>
        <time>2022-09-02T02:35:10.210Z</time>
      </trkpt>
      <trkpt lat="37.60113" lon="-3.00524">
        <ele>551.918023</ele>
        <time>2022-09-02T02:35:54.267Z</time>
      </trkpt>
      <trkpt lat="37.60026" lon="-3.0053">
        <ele>554.546149</ele>
        <time>2022-09-02T02:36:39.626Z</time>
      </trkpt>
      <trkpt lat="37.59987" lon="-3.00471">
        <ele>556.605098</ele>
        <time>2022-09-02T02:37:13.132Z</time>
      </trkpt>
      <trkpt lat="37.59959" lon="-3.0046">
        <ele>557.689943</ele>
        <time>2022-09-02T02:37:28.433Z</time>
      </trkpt>
      <trkpt lat="37.59919" lon="-3.00435">
        <ele>559.335482</ele>
        <time>2022-09-02T02:37:53.507Z</time>
      </trkpt>
      <trkpt lat="37.59906" lon="-3.00455">
        <ele>560.0825</ele>
        <time>2022-09-02T02:38:03.937Z</time>
      </trkpt>
      <trkpt lat="37.59872" lon="-3.00437">
        <ele>561.432671</ele>
        <time>2022-09-02T02:38:24.902Z</time>
      </trkpt>
      <trkpt lat="37.5985" lon="-3.00439">
        <ele>562.238485</ele>
        <time>2022-09-02T02:38:38.713Z</time>
      </trkpt>
      <trkpt lat="37.59862" lon="-3.00559">
        <ele>564.946652</ele>
        <time>2022-09-02T02:39:33.149Z</time>
      </trkpt>
      <trkpt lat="37.59821" lon="-3.00546">
        <ele>566.144458</ele>
        <time>2022-09-02T02:39:53.315Z</time>
      </trkpt>
      <trkpt lat="37.59821" lon="-3.00627">
        <ele>566.983726</ele>
        <time>2022-09-02T02:40:20.856Z</time>
      </trkpt>
      <trkpt lat="37.59786" lon="-3.00679">
        <ele>566.307608</ele>
        <time>2022-09-02T02:40:40.899Z</time>
      </trkpt>
      <trkpt lat="37.59741" lon="-3.00692">
        <ele>565.727416</ele>
        <time>2022-09-02T02:40:56.616Z</time>
      </trkpt>
      <trkpt lat="37.59747" lon="-3.00725">
        <ele>565.394768</ele>
        <time>2022-09-02T02:41:04.746Z</time>
      </trkpt>
      <trkpt lat="37.59718" lon="-3.00769">
        <ele>564.404759</ele>
        <time>2022-09-02T02:41:18.455Z</time>
      </trkpt>
      <trkpt lat="37.59683" lon="-3.00785">
        <ele>563.002927</ele>
        <time>2022-09-02T02:41:29.440Z</time>
      </trkpt>
      <trkpt lat="37.59652" lon="-3.00808">
        <ele>561.652677</ele>
        <time>2022-09-02T02:41:40.065Z</time>
      </trkpt>
      <trkpt lat="37.59648" lon="-3.00824">
        <ele>561.143182</ele>
        <time>2022-09-02T02:41:43.910Z</time>
      </trkpt>
      <trkpt lat="37.59608" lon="-3.00832">
        <ele>559.616961</ele>
        <time>2022-09-02T02:41:55.999Z</time>
      </trkpt>
      <trkpt lat="37.5955" lon="-3.00806">
        <ele>557.926441</ele>
        <time>2022-09-02T02:42:14.856Z</time>
      </trkpt>
      <trkpt lat="37.59461" lon="-3.0078">
        <ele>556.794305</ele>
        <time>2022-09-02T02:42:44.792Z</time>
      </trkpt>
      <trkpt lat="37.59382" lon="-3.00744">
        <ele>556.21412</ele>
        <time>2022-09-02T02:43:18.254Z</time>
      </trkpt>
      <trkpt lat="37.59257" lon="-3.0066">
        <ele>557.623157</ele>
        <time>2022-09-02T02:44:19.127Z</time>
      </trkpt>
      <trkpt lat="37.5914" lon="-3.00672">
        <ele>557.696272</ele>
        <time>2022-09-02T02:45:07.631Z</time>
      </trkpt>
      <trkpt lat="37.59131" lon="-3.00676">
        <ele>557.686027</ele>
        <time>2022-09-02T02:45:11.627Z</time>
      </trkpt>
      <trkpt lat="37.59103" lon="-3.0069">
        <ele>557.654615</ele>
        <time>2022-09-02T02:45:21.807Z</time>
      </trkpt>
      <trkpt lat="37.59075" lon="-3.00728">
        <ele>557.605605</ele>
        <time>2022-09-02T02:45:35.570Z</time>
      </trkpt>
      <trkpt lat="37.59041" lon="-3.00733">
        <ele>556.775516</ele>
        <time>2022-09-02T02:45:46.751Z</time>
      </trkpt>
      <trkpt lat="37.59029" lon="-3.00763">
        <ele>556.136589</ele>
        <time>2022-09-02T02:45:55.175Z</time>
      </trkpt>
      <trkpt lat="37.58991" lon="-3.00772">
        <ele>555.189994</ele>
        <time>2022-09-02T02:46:07.540Z</time>
      </trkpt>
      <trkpt lat="37.58943" lon="-3.00971">
        <ele>551.692601</ele>
        <time>2022-09-02T02:46:59.172Z</time>
      </trkpt>
      <trkpt lat="37.58922" lon="-3.01019">
        <ele>550.881069</ele>
        <time>2022-09-02T02:47:13.642Z</time>
      </trkpt>
      <trkpt lat="37.58879" lon="-3.01044">
        <ele>549.994044</ele>
        <time>2022-09-02T02:47:29.910Z</time>
      </trkpt>
      <trkpt lat="37.58806" lon="-3.00998">
        <ele>549.661979</ele>
        <time>2022-09-02T02:47:58.928Z</time>
      </trkpt>
      <trkpt lat="37.58722" lon="-3.00987">
        <ele>549.376506</ele>
        <time>2022-09-02T02:48:30.371Z</time>
      </trkpt>
      <trkpt lat="37.58677" lon="-3.00968">
        <ele>549.201681</ele>
        <time>2022-09-02T02:48:47.471Z</time>
      </trkpt>
      <trkpt lat="37.58656" lon="-3.00932">
        <ele>549.063355</ele>
        <time>2022-09-02T02:49:00.086Z</time>
      </trkpt>
      <trkpt lat="37.58628" lon="-3.00913">
        <ele>548.935089</ele>
        <time>2022-09-02T02:49:11.734Z</time>
      </trkpt>
      <trkpt lat="37.58523" lon="-3.00781">
        <ele>548.349555</ele>
        <time>2022-09-02T02:50:04.389Z</time>
      </trkpt>
      <trkpt lat="37.58478" lon="-3.0074">
        <ele>548.13046</ele>
        <time>2022-09-02T02:50:24.221Z</time>
      </trkpt>
      <trkpt lat="37.58453" lon="-3.00694">
        <ele>547.954303</ele>
        <time>2022-09-02T02:50:40.348Z</time>
      </trkpt>
      <trkpt lat="37.58424" lon="-3.00669">
        <ele>547.884786</ele>
        <time>2022-09-02T02:50:53.093Z</time>
      </trkpt>
      <trkpt lat="37.58385" lon="-3.00646">
        <ele>547.864897</ele>
        <time>2022-09-02T02:51:09.091Z</time>
      </trkpt>
      <trkpt lat="37.58353" lon="-3.00575">
        <ele>547.835219</ele>
        <time>2022-09-02T02:51:33.295Z</time>
      </trkpt>
      <trkpt lat="37.58311" lon="-3.00547">
        <ele>547.813612</ele>
        <time>2022-09-02T02:51:50.933Z</time>
      </trkpt>
      <trkpt lat="37.58278" lon="-3.00509">
        <ele>548.070128</ele>
        <time>2022-09-02T02:52:07.420Z</time>
      </trkpt>
      <trkpt lat="37.58217" lon="-3.00493">
        <ele>548.479589</ele>
        <time>2022-09-02T02:52:30.907Z</time>
      </trkpt>
      <trkpt lat="37.58185" lon="-3.00509">
        <ele>548.702187</ele>
        <time>2022-09-02T02:52:44.726Z</time>
      </trkpt>
      <trkpt lat="37.58109" lon="-3.00493">
        <ele>550.107184</ele>
        <time>2022-09-02T02:53:19.290Z</time>
      </trkpt>
      <trkpt lat="37.58077" lon="-3.00519">
        <ele>551.405135</ele>
        <time>2022-09-02T02:53:38.284Z</time>
      </trkpt>
      <trkpt lat="37.57844" lon="-3.00539">
        <ele>560.130489</ele>
        <time>2022-09-02T02:55:56.203Z</time>
      </trkpt>
      <trkpt lat="37.57833" lon="-3.00533">
        <ele>560.624319</ele>
        <time>2022-09-02T02:56:03.652Z</time>
      </trkpt>
      <trkpt lat="37.57824" lon="-3.00519">
        <ele>561.206108</ele>
        <time>2022-09-02T02:56:11.461Z</time>
      </trkpt>
      <trkpt lat="37.57807" lon="-3.00519">
        <ele>561.89618</ele>
        <time>2022-09-02T02:56:21.529Z</time>
      </trkpt>
      <trkpt lat="37.5776" lon="-3.00543">
        <ele>562.638107</ele>
        <time>2022-09-02T02:56:46.627Z</time>
      </trkpt>
      <trkpt lat="37.57737" lon="-3.00543">
        <ele>562.804914</ele>
        <time>2022-09-02T02:56:57.519Z</time>
      </trkpt>
      <trkpt lat="37.57704" lon="-3.00551">
        <ele>563.050717</ele>
        <time>2022-09-02T02:57:11.532Z</time>
      </trkpt>
      <trkpt lat="37.57673" lon="-3.00534">
        <ele>563.293668</ele>
        <time>2022-09-02T02:57:23.892Z</time>
      </trkpt>
      <trkpt lat="37.57652" lon="-3.00536">
        <ele>563.447126</ele>
        <time>2022-09-02T02:57:31.295Z</time>
      </trkpt>
      <trkpt lat="37.57608" lon="-3.0053">
        <ele>563.37129</ele>
        <time>2022-09-02T02:57:46.206Z</time>
      </trkpt>
      <trkpt lat="37.5758" lon="-3.00514">
        <ele>562.801447</ele>
        <time>2022-09-02T02:57:56.116Z</time>
      </trkpt>
      <trkpt lat="37.57567" lon="-3.00514">
        <ele>562.544479</ele>
        <time>2022-09-02T02:58:00.496Z</time>
      </trkpt>
      <trkpt lat="37.5753" lon="-3.00476">
        <ele>561.654161</ele>
        <time>2022-09-02T02:58:15.672Z</time>
      </trkpt>
      <trkpt lat="37.57514" lon="-3.00466">
        <ele>561.318108</ele>
        <time>2022-09-02T02:58:21.325Z</time>
      </trkpt>
      <trkpt lat="37.57486" lon="-3.00387">
        <ele>560.128116</ele>
        <time>2022-09-02T02:58:43.749Z</time>
      </trkpt>
      <trkpt lat="37.57451" lon="-3.00372">
        <ele>559.747376</ele>
        <time>2022-09-02T02:58:55.966Z</time>
      </trkpt>
      <trkpt lat="37.57435" lon="-3.00345">
        <ele>559.471704</ele>
        <time>2022-09-02T02:59:05.040Z</time>
      </trkpt>
      <trkpt lat="37.57339" lon="-3.00299">
        <ele>558.411696</ele>
        <time>2022-09-02T02:59:41.175Z</time>
      </trkpt>
      <trkpt lat="37.57326" lon="-3.00283">
        <ele>558.261376</ele>
        <time>2022-09-02T02:59:47.996Z</time>
      </trkpt>
      <trkpt lat="37.5728" lon="-3.00268">
        <ele>557.865336</ele>
        <time>2022-09-02T03:00:05.950Z</time>
      </trkpt>
      <trkpt lat="37.57256" lon="-3.00232">
        <ele>557.55742</ele>
        <time>2022-09-02T03:00:19.042Z</time>
      </trkpt>
      <trkpt lat="37.57222" lon="-3.00195">
        <ele>557.190738</ele>
        <time>2022-09-02T03:00:34.226Z</time>
      </trkpt>
      <trkpt lat="37.57189" lon="-3.00172">
        <ele>556.842771</ele>
        <time>2022-09-02T03:00:46.757Z</time>
      </trkpt>
      <trkpt lat="37.57112" lon="-3.00157">
        <ele>555.565075</ele>
        <time>2022-09-02T03:01:12.754Z</time>
      </trkpt>
      <trkpt lat="37.57072" lon="-3.00174">
        <ele>554.88111</ele>
        <time>2022-09-02T03:01:26.489Z</time>
      </trkpt>
      <trkpt lat="37.5706" lon="-3.00193">
        <ele>554.56141</ele>
        <time>2022-09-02T03:01:32.866Z</time>
      </trkpt>
      <trkpt lat="37.57072" lon="-3.00248">
        <ele>553.963553</ele>
        <time>2022-09-02T03:01:47.147Z</time>
      </trkpt>
      <trkpt lat="37.57053" lon="-3.00247">
        <ele>553.931811</ele>
        <time>2022-09-02T03:01:53.568Z</time>
      </trkpt>
      <trkpt lat="37.57025" lon="-3.00272">
        <ele>553.875584</ele>
        <time>2022-09-02T03:02:05.588Z</time>
      </trkpt>
      <trkpt lat="37.56972" lon="-3.00266">
        <ele>553.789321</ele>
        <time>2022-09-02T03:02:25.803Z</time>
      </trkpt>
      <trkpt lat="37.56946" lon="-3.00229">
        <ele>553.725515</ele>
        <time>2022-09-02T03:02:41.695Z</time>
      </trkpt>
      <trkpt lat="37.56939" lon="-3.0013">
        <ele>554.239726</ele>
        <time>2022-09-02T03:03:14.619Z</time>
      </trkpt>
      <trkpt lat="37.56943" lon="-3.00113">
        <ele>554.385685</ele>
        <time>2022-09-02T03:03:21.292Z</time>
      </trkpt>
      <trkpt lat="37.56922" lon="-3.00021">
        <ele>555.177711</ele>
        <time>2022-09-02T03:03:54.234Z</time>
      </trkpt>
      <trkpt lat="37.56896" lon="-2.99997">
        <ele>555.508565</ele>
        <time>2022-09-02T03:04:07.575Z</time>
      </trkpt>
      <trkpt lat="37.56886" lon="-2.99974">
        <ele>555.57701</ele>
        <time>2022-09-02T03:04:15.348Z</time>
      </trkpt>
      <trkpt lat="37.56875" lon="-2.99974">
        <ele>555.592317</ele>
        <time>2022-09-02T03:04:20.331Z</time>
      </trkpt>
      <trkpt lat="37.56765" lon="-3.00075">
        <ele>555.780827</ele>
        <time>2022-09-02T03:05:10.887Z</time>
      </trkpt>
      <trkpt lat="37.56633" lon="-3.0009">
        <ele>556.710199</ele>
        <time>2022-09-02T03:05:59.098Z</time>
      </trkpt>
      <trkpt lat="37.56584" lon="-3.0014">
        <ele>557.204957</ele>
        <time>2022-09-02T03:06:29.280Z</time>
      </trkpt>
      <trkpt lat="37.56557" lon="-3.00154">
        <ele>558.173189</ele>
        <time>2022-09-02T03:06:44.672Z</time>
      </trkpt>
      <trkpt lat="37.56529" lon="-3.00183">
        <ele>559.39403</ele>
        <time>2022-09-02T03:07:04.234Z</time>
      </trkpt>
      <trkpt lat="37.56515" lon="-3.00217">
        <ele>560.424196</ele>
        <time>2022-09-02T03:07:20.986Z</time>
      </trkpt>
      <trkpt lat="37.565" lon="-3.00235">
        <ele>561.13927</ele>
        <time>2022-09-02T03:07:32.739Z</time>
      </trkpt>
      <trkpt lat="37.56467" lon="-3.00274">
        <ele>562.666077</ele>
        <time>2022-09-02T03:07:57.886Z</time>
      </trkpt>
      <trkpt lat="37.56459" lon="-3.0029">
        <ele>563.183332</ele>
        <time>2022-09-02T03:08:06.190Z</time>
      </trkpt>
      <trkpt lat="37.56446" lon="-3.00346">
        <ele>564.206559</ele>
        <time>2022-09-02T03:08:32.213Z</time>
      </trkpt>
      <trkpt lat="37.5645" lon="-3.00372">
        <ele>564.668134</ele>
        <time>2022-09-02T03:08:43.752Z</time>
      </trkpt>
      <trkpt lat="37.56462" lon="-3.00392">
        <ele>565.083706</ele>
        <time>2022-09-02T03:08:53.728Z</time>
      </trkpt>
      <trkpt lat="37.56493" lon="-3.00391">
        <ele>565.763261</ele>
        <time>2022-09-02T03:09:08.397Z</time>
      </trkpt>
      <trkpt lat="37.565" lon="-3.00405">
        <ele>566.040055</ele>
        <time>2022-09-02T03:09:13.968Z</time>
      </trkpt>
      <trkpt lat="37.56476" lon="-3.00456">
        <ele>567.05558</ele>
        <time>2022-09-02T03:09:32.729Z</time>
      </trkpt>
      <trkpt lat="37.56513" lon="-3.00505">
        <ele>567.417241</ele>
        <time>2022-09-02T03:09:53.764Z</time>
      </trkpt>
      <trkpt lat="37.56539" lon="-3.00571">
        <ele>567.739821</ele>
        <time>2022-09-02T03:10:16.912Z</time>
      </trkpt>
      <trkpt lat="37.56539" lon="-3.00597">
        <ele>567.851477</ele>
        <time>2022-09-02T03:10:24.562Z</time>
      </trkpt>
      <trkpt lat="37.5659" lon="-3.00623">
        <ele>568.208889</ele>
        <time>2022-09-02T03:10:45.517Z</time>
      </trkpt>
      <trkpt lat="37.56615" lon="-3.00677">
        <ele>569.254539</ele>
        <time>2022-09-02T03:11:07.920Z</time>
      </trkpt>
      <trkpt lat="37.56636" lon="-3.00686">
        <ele>569.729589</ele>
        <time>2022-09-02T03:11:18.264Z</time>
      </trkpt>
      <trkpt lat="37.56647" lon="-3.00703">
        <ele>570.094389</ele>
        <time>2022-09-02T03:11:26.402Z</time>
      </trkpt>
      <trkpt lat="37.56641" lon="-3.00744">
        <ele>570.791577</ele>
        <time>2022-09-02T03:11:42.999Z</time>
      </trkpt>
      <trkpt lat="37.56635" lon="-3.00752">
        <ele>570.970897</ele>
        <time>2022-09-02T03:11:46.354Z</time>
      </trkpt>
      <trkpt lat="37.56603" lon="-3.00788">
        <ele>571.889222</ele>
        <time>2022-09-02T03:12:09.488Z</time>
      </trkpt>
      <trkpt lat="37.56589" lon="-3.00812">
        <ele>572.622866</ele>
        <time>2022-09-02T03:12:21.762Z</time>
      </trkpt>
      <trkpt lat="37.56582" lon="-3.0084">
        <ele>573.397715</ele>
        <time>2022-09-02T03:12:34.917Z</time>
      </trkpt>
      <trkpt lat="37.56561" lon="-3.00862">
        <ele>574.285257</ele>
        <time>2022-09-02T03:12:49.795Z</time>
      </trkpt>
      <trkpt lat="37.56528" lon="-3.00924">
        <ele>576.20858</ele>
        <time>2022-09-02T03:13:23.320Z</time>
      </trkpt>
      <trkpt lat="37.56489" lon="-3.00956">
        <ele>577.745138</ele>
        <time>2022-09-02T03:13:47.310Z</time>
      </trkpt>
      <trkpt lat="37.5647" lon="-3.00951">
        <ele>578.042602</ele>
        <time>2022-09-02T03:13:57.116Z</time>
      </trkpt>
      <trkpt lat="37.56464" lon="-3.00971">
        <ele>578.240827</ele>
        <time>2022-09-02T03:14:05.257Z</time>
      </trkpt>
      <trkpt lat="37.56469" lon="-3.01031">
        <ele>578.7995</ele>
        <time>2022-09-02T03:14:26.514Z</time>
      </trkpt>
      <trkpt lat="37.56467" lon="-3.01058">
        <ele>579.050739</ele>
        <time>2022-09-02T03:14:35.488Z</time>
      </trkpt>
      <trkpt lat="37.56459" lon="-3.01081">
        <ele>579.282841</ele>
        <time>2022-09-02T03:14:43.565Z</time>
      </trkpt>
      <trkpt lat="37.56416" lon="-3.01079">
        <ele>579.796357</ele>
        <time>2022-09-02T03:15:00.649Z</time>
      </trkpt>
      <trkpt lat="37.56407" lon="-3.01088">
        <ele>579.934938</ele>
        <time>2022-09-02T03:15:05.287Z</time>
      </trkpt>
      <trkpt lat="37.56402" lon="-3.01115">
        <ele>579.987289</ele>
        <time>2022-09-02T03:15:12.920Z</time>
      </trkpt>
      <trkpt lat="37.56412" lon="-3.01166">
        <ele>580.046469</ele>
        <time>2022-09-02T03:15:27.797Z</time>
      </trkpt>
      <trkpt lat="37.56427" lon="-3.01183">
        <ele>580.076045</ele>
        <time>2022-09-02T03:15:35.348Z</time>
      </trkpt>
      <trkpt lat="37.5646" lon="-3.01198">
        <ele>580.127219</ele>
        <time>2022-09-02T03:15:48.667Z</time>
      </trkpt>
      <trkpt lat="37.56476" lon="-3.01229">
        <ele>580.169445</ele>
        <time>2022-09-02T03:15:59.976Z</time>
      </trkpt>
      <trkpt lat="37.56482" lon="-3.01257">
        <ele>580.202782</ele>
        <time>2022-09-02T03:16:08.562Z</time>
      </trkpt>
      <trkpt lat="37.56471" lon="-3.01296">
        <ele>580.574147</ele>
        <time>2022-09-02T03:16:21.414Z</time>
      </trkpt>
      <trkpt lat="37.56455" lon="-3.0131">
        <ele>580.89196</ele>
        <time>2022-09-02T03:16:29.550Z</time>
      </trkpt>
      <trkpt lat="37.56436" lon="-3.01297">
        <ele>581.248807</ele>
        <time>2022-09-02T03:16:38.925Z</time>
      </trkpt>
      <trkpt lat="37.56404" lon="-3.01265">
        <ele>581.929466</ele>
        <time>2022-09-02T03:16:58.096Z</time>
      </trkpt>
      <trkpt lat="37.56384" lon="-3.01269">
        <ele>582.261974</ele>
        <time>2022-09-02T03:17:07.754Z</time>
      </trkpt>
      <trkpt lat="37.56361" lon="-3.01299">
        <ele>582.799471</ele>
        <time>2022-09-02T03:17:23.639Z</time>
      </trkpt>
      <trkpt lat="37.5633" lon="-3.01394">
        <ele>584.814465</ele>
        <time>2022-09-02T03:18:03.864Z</time>
      </trkpt>
      <trkpt lat="37.56293" lon="-3.01409">
        <ele>585.889088</ele>
        <time>2022-09-02T03:18:22.438Z</time>
      </trkpt>
      <trkpt lat="37.56261" lon="-3.0143">
        <ele>586.893657</ele>
        <time>2022-09-02T03:18:39.420Z</time>
      </trkpt>
      <trkpt lat="37.56242" lon="-3.01459">
        <ele>587.735295</ele>
        <time>2022-09-02T03:18:56.863Z</time>
      </trkpt>
      <trkpt lat="37.56231" lon="-3.01473">
        <ele>588.181087</ele>
        <time>2022-09-02T03:19:05.746Z</time>
      </trkpt>
      <trkpt lat="37.56143" lon="-3.01532">
        <ele>593.778204</ele>
        <time>2022-09-02T03:20:02.716Z</time>
      </trkpt>
      <trkpt lat="37.56144" lon="-3.01559">
        <ele>594.966777</ele>
        <time>2022-09-02T03:20:17.854Z</time>
      </trkpt>
      <trkpt lat="37.56114" lon="-3.01652">
        <ele>600.849462</ele>
        <time>2022-09-02T03:21:16.195Z</time>
      </trkpt>
      <trkpt lat="37.56081" lon="-3.01702">
        <ele>607.295808</ele>
        <time>2022-09-02T03:22:04.318Z</time>
      </trkpt>
      <trkpt lat="37.56053" lon="-3.01787">
        <ele>616.330861</ele>
        <time>2022-09-02T03:23:20.642Z</time>
      </trkpt>
      <trkpt lat="37.56021" lon="-3.01829">
        <ele>622.487018</ele>
        <time>2022-09-02T03:24:15.938Z</time>
      </trkpt>
      <trkpt lat="37.55891" lon="-3.02054">
        <ele>653.24838</ele>
        <time>2022-09-02T03:28:34.075Z</time>
      </trkpt>
      <trkpt lat="37.55873" lon="-3.02115">
        <ele>657.516097</ele>
        <time>2022-09-02T03:29:13.307Z</time>
      </trkpt>
      <trkpt lat="37.55847" lon="-3.02175">
        <ele>662.087542</ele>
        <time>2022-09-02T03:29:46.928Z</time>
      </trkpt>
      <trkpt lat="37.55837" lon="-3.02247">
        <ele>664.828213</ele>
        <time>2022-09-02T03:30:11.914Z</time>
      </trkpt>
      <trkpt lat="37.55834" lon="-3.02292">
        <ele>665.722239</ele>
        <time>2022-09-02T03:30:25.484Z</time>
      </trkpt>
      <trkpt lat="37.55778" lon="-3.0244">
        <ele>669.342448</ele>
        <time>2022-09-02T03:31:33.019Z</time>
      </trkpt>
      <trkpt lat="37.55785" lon="-3.02617">
        <ele>675.109066</ele>
        <time>2022-09-02T03:32:57.142Z</time>
      </trkpt>
      <trkpt lat="37.5575" lon="-3.0277">
        <ele>679.724425</ele>
        <time>2022-09-02T03:34:07.848Z</time>
      </trkpt>
      <trkpt lat="37.55737" lon="-3.02896">
        <ele>683.351373</ele>
        <time>2022-09-02T03:35:00.308Z</time>
      </trkpt>
      <trkpt lat="37.55631" lon="-3.03079">
        <ele>690.044881</ele>
        <time>2022-09-02T03:36:41.683Z</time>
      </trkpt>
      <trkpt lat="37.55618" lon="-3.03153">
        <ele>692.357491</ele>
        <time>2022-09-02T03:37:16.932Z</time>
      </trkpt>
      <trkpt lat="37.55581" lon="-3.03231">
        <ele>695.113135</ele>
        <time>2022-09-02T03:37:57.062Z</time>
      </trkpt>
      <trkpt lat="37.55525" lon="-3.03305">
        <ele>697.442412</ele>
        <time>2022-09-02T03:38:39.955Z</time>
      </trkpt>
      <trkpt lat="37.55466" lon="-3.03301">
        <ele>698.974287</ele>
        <time>2022-09-02T03:39:11.853Z</time>
      </trkpt>
      <trkpt lat="37.55375" lon="-3.03519">
        <ele>701.832726</ele>
        <time>2022-09-02T03:40:35.440Z</time>
      </trkpt>
      <trkpt lat="37.55346" lon="-3.03545">
        <ele>702.172919</ele>
        <time>2022-09-02T03:40:48.754Z</time>
      </trkpt>
      <trkpt lat="37.55328" lon="-3.0356">
        <ele>702.560612</ele>
        <time>2022-09-02T03:40:56.945Z</time>
      </trkpt>
      <trkpt lat="37.55283" lon="-3.03652">
        <ele>704.504104</ele>
        <time>2022-09-02T03:41:33.461Z</time>
      </trkpt>
      <trkpt lat="37.5527" lon="-3.0366">
        <ele>704.834083</ele>
        <time>2022-09-02T03:41:40.004Z</time>
      </trkpt>
      <trkpt lat="37.55223" lon="-3.03675">
        <ele>705.923944</ele>
        <time>2022-09-02T03:42:05.606Z</time>
      </trkpt>
      <trkpt lat="37.55154" lon="-3.03759">
        <ele>711.509962</ele>
        <time>2022-09-02T03:43:09.096Z</time>
      </trkpt>
      <trkpt lat="37.55032" lon="-3.03856">
        <ele>720.49481</ele>
        <time>2022-09-02T03:44:58.019Z</time>
      </trkpt>
      <trkpt lat="37.54963" lon="-3.03867">
        <ele>724.295071</ele>
        <time>2022-09-02T03:45:44.432Z</time>
      </trkpt>
      <trkpt lat="37.54928" lon="-3.03854">
        <ele>726.276552</ele>
        <time>2022-09-02T03:46:05.667Z</time>
      </trkpt>
      <trkpt lat="37.54906" lon="-3.0384">
        <ele>727.604309</ele>
        <time>2022-09-02T03:46:18.976Z</time>
      </trkpt>
      <trkpt lat="37.54881" lon="-3.03813">
        <ele>728.774273</ele>
        <time>2022-09-02T03:46:36.111Z</time>
      </trkpt>
      <trkpt lat="37.5486" lon="-3.03748">
        <ele>730.479558</ele>
        <time>2022-09-02T03:47:03.144Z</time>
      </trkpt>
      <trkpt lat="37.54848" lon="-3.03739">
        <ele>730.9047</ele>
        <time>2022-09-02T03:47:09.858Z</time>
      </trkpt>
      <trkpt lat="37.54842" lon="-3.03742">
        <ele>731.095082</ele>
        <time>2022-09-02T03:47:13.032Z</time>
      </trkpt>
      <trkpt lat="37.54834" lon="-3.03765">
        <ele>731.705845</ele>
        <time>2022-09-02T03:47:23.422Z</time>
      </trkpt>
      <trkpt lat="37.54834" lon="-3.03818">
        <ele>733.022726</ele>
        <time>2022-09-02T03:47:46.534Z</time>
      </trkpt>
      <trkpt lat="37.54826" lon="-3.03844">
        <ele>733.695153</ele>
        <time>2022-09-02T03:47:58.384Z</time>
      </trkpt>
      <trkpt lat="37.54821" lon="-3.03887">
        <ele>734.818578</ele>
        <time>2022-09-02T03:48:17.734Z</time>
      </trkpt>
      <trkpt lat="37.54812" lon="-3.03901">
        <ele>735.28457</ele>
        <time>2022-09-02T03:48:25.642Z</time>
      </trkpt>
      <trkpt lat="37.54776" lon="-3.03922">
        <ele>736.571703</ele>
        <time>2022-09-02T03:48:48.282Z</time>
      </trkpt>
      <trkpt lat="37.5476" lon="-3.0396">
        <ele>737.65547</ele>
        <time>2022-09-02T03:49:06.254Z</time>
      </trkpt>
      <trkpt lat="37.54752" lon="-3.03995">
        <ele>738.589224</ele>
        <time>2022-09-02T03:49:21.458Z</time>
      </trkpt>
      <trkpt lat="37.54758" lon="-3.04023">
        <ele>739.311089</ele>
        <time>2022-09-02T03:49:33.928Z</time>
      </trkpt>
      <trkpt lat="37.54751" lon="-3.0403">
        <ele>739.357323</ele>
        <time>2022-09-02T03:49:37.593Z</time>
      </trkpt>
      <trkpt lat="37.54678" lon="-3.0405">
        <ele>739.785334</ele>
        <time>2022-09-02T03:50:09.706Z</time>
      </trkpt>
      <trkpt lat="37.54672" lon="-3.04067">
        <ele>739.869097</ele>
        <time>2022-09-02T03:50:15.081Z</time>
      </trkpt>
      <trkpt lat="37.54681" lon="-3.04095">
        <ele>740.006546</ele>
        <time>2022-09-02T03:50:23.631Z</time>
      </trkpt>
      <trkpt lat="37.54676" lon="-3.04118">
        <ele>740.115781</ele>
        <time>2022-09-02T03:50:30.386Z</time>
      </trkpt>
      <trkpt lat="37.54636" lon="-3.04136">
        <ele>740.359758</ele>
        <time>2022-09-02T03:50:44.983Z</time>
      </trkpt>
      <trkpt lat="37.54625" lon="-3.04155">
        <ele>740.489343</ele>
        <time>2022-09-02T03:50:51.655Z</time>
      </trkpt>
      <trkpt lat="37.54609" lon="-3.04228">
        <ele>740.909413</ele>
        <time>2022-09-02T03:51:13.519Z</time>
      </trkpt>
      <trkpt lat="37.54576" lon="-3.04299">
        <ele>741.368697</ele>
        <time>2022-09-02T03:51:40.109Z</time>
      </trkpt>
      <trkpt lat="37.54571" lon="-3.04346">
        <ele>741.882081</ele>
        <time>2022-09-02T03:51:58.017Z</time>
      </trkpt>
      <trkpt lat="37.54579" lon="-3.04374">
        <ele>743.155609</ele>
        <time>2022-09-02T03:52:10.805Z</time>
      </trkpt>
      <trkpt lat="37.5456" lon="-3.04409">
        <ele>744.920427</ele>
        <time>2022-09-02T03:52:30.175Z</time>
      </trkpt>
      <trkpt lat="37.54553" lon="-3.04448">
        <ele>746.604847</ele>
        <time>2022-09-02T03:52:50.211Z</time>
      </trkpt>
      <trkpt lat="37.54446" lon="-3.0455">
        <ele>757.221878</ele>
        <time>2022-09-02T03:54:26.323Z</time>
      </trkpt>
      <trkpt lat="37.54425" lon="-3.04562">
        <ele>760.108652</ele>
        <time>2022-09-02T03:54:47.453Z</time>
      </trkpt>
      <trkpt lat="37.54399" lon="-3.04566">
        <ele>763.342281</ele>
        <time>2022-09-02T03:55:11.828Z</time>
      </trkpt>
      <trkpt lat="37.54394" lon="-3.04577">
        <ele>764.583412</ele>
        <time>2022-09-02T03:55:22.833Z</time>
      </trkpt>
      <trkpt lat="37.54395" lon="-3.04622">
        <ele>768.922907</ele>
        <time>2022-09-02T03:56:02.575Z</time>
      </trkpt>
      <trkpt lat="37.54384" lon="-3.04679">
        <ele>775.208124</ele>
        <time>2022-09-02T03:57:01.535Z</time>
      </trkpt>
      <trkpt lat="37.54331" lon="-3.04748">
        <ele>788.575052</ele>
        <time>2022-09-02T03:58:42.966Z</time>
      </trkpt>
      <trkpt lat="37.54315" lon="-3.04776">
        <ele>793.404199</ele>
        <time>2022-09-02T03:59:19.328Z</time>
      </trkpt>
      <trkpt lat="37.5429" lon="-3.04818">
        <ele>800.577503</ele>
        <time>2022-09-02T04:00:11.116Z</time>
      </trkpt>
      <trkpt lat="37.54236" lon="-3.04833">
        <ele>807.598278</ele>
        <time>2022-09-02T04:01:14.239Z</time>
      </trkpt>
      <trkpt lat="37.54221" lon="-3.04845">
        <ele>809.189373</ele>
        <time>2022-09-02T04:01:31.803Z</time>
      </trkpt>
      <trkpt lat="37.54217" lon="-3.04856">
        <ele>809.97523</ele>
        <time>2022-09-02T04:01:40.203Z</time>
      </trkpt>
      <trkpt lat="37.54225" lon="-3.04901">
        <ele>813.222263</ele>
        <time>2022-09-02T04:02:10.996Z</time>
      </trkpt>
      <trkpt lat="37.54222" lon="-3.04906">
        <ele>813.621862</ele>
        <time>2022-09-02T04:02:13.996Z</time>
      </trkpt>
      <trkpt lat="37.54218" lon="-3.04906">
        <ele>814.01833</ele>
        <time>2022-09-02T04:02:17.624Z</time>
      </trkpt>
      <trkpt lat="37.54204" lon="-3.04851">
        <ele>818.072373</ele>
        <time>2022-09-02T04:02:45.532Z</time>
      </trkpt>
      <trkpt lat="37.54212" lon="-3.04821">
        <ele>820.263615</ele>
        <time>2022-09-02T04:02:59.377Z</time>
      </trkpt>
      <trkpt lat="37.54209" lon="-3.04811">
        <ele>820.843148</ele>
        <time>2022-09-02T04:03:03.818Z</time>
      </trkpt>
      <trkpt lat="37.54182" lon="-3.04795">
        <ele>822.332211</ele>
        <time>2022-09-02T04:03:20.374Z</time>
      </trkpt>
      <trkpt lat="37.54139" lon="-3.04797">
        <ele>824.449987</ele>
        <time>2022-09-02T04:03:44.848Z</time>
      </trkpt>
      <trkpt lat="37.54114" lon="-3.04808">
        <ele>825.778439</ele>
        <time>2022-09-02T04:04:00.713Z</time>
      </trkpt>
      <trkpt lat="37.54058" lon="-3.04873">
        <ele>829.520889</ele>
        <time>2022-09-02T04:04:52.657Z</time>
      </trkpt>
      <trkpt lat="37.53959" lon="-3.04914">
        <ele>834.315756</ele>
        <time>2022-09-02T04:06:00.093Z</time>
      </trkpt>
      <trkpt lat="37.53926" lon="-3.04933">
        <ele>835.96365</ele>
        <time>2022-09-02T04:06:20.507Z</time>
      </trkpt>
      <trkpt lat="37.53914" lon="-3.04946">
        <ele>836.68228</ele>
        <time>2022-09-02T04:06:28.835Z</time>
      </trkpt>
      <trkpt lat="37.53888" lon="-3.05008">
        <ele>838.54613</ele>
        <time>2022-09-02T04:06:57.578Z</time>
      </trkpt>
      <trkpt lat="37.53875" lon="-3.05008">
        <ele>838.854493</ele>
        <time>2022-09-02T04:07:03.596Z</time>
      </trkpt>
      <trkpt lat="37.53872" lon="-3.05004">
        <ele>838.957561</ele>
        <time>2022-09-02T04:07:05.693Z</time>
      </trkpt>
      <trkpt lat="37.53868" lon="-3.04991">
        <ele>839.212591</ele>
        <time>2022-09-02T04:07:10.639Z</time>
      </trkpt>
      <trkpt lat="37.53866" lon="-3.04953">
        <ele>839.928467</ele>
        <time>2022-09-02T04:07:24.800Z</time>
      </trkpt>
      <trkpt lat="37.53863" lon="-3.04946">
        <ele>840.080526</ele>
        <time>2022-09-02T04:07:27.830Z</time>
      </trkpt>
      <trkpt lat="37.5385" lon="-3.04945">
        <ele>840.379596</ele>
        <time>2022-09-02T04:07:33.795Z</time>
      </trkpt>
      <trkpt lat="37.53823" lon="-3.04984">
        <ele>841.332384</ele>
        <time>2022-09-02T04:07:53.012Z</time>
      </trkpt>
      <trkpt lat="37.53791" lon="-3.05008">
        <ele>842.156339</ele>
        <time>2022-09-02T04:08:11.124Z</time>
      </trkpt>
      <trkpt lat="37.53762" lon="-3.05017">
        <ele>842.685256</ele>
        <time>2022-09-02T04:08:26.458Z</time>
      </trkpt>
      <trkpt lat="37.53741" lon="-3.0504">
        <ele>843.193099</ele>
        <time>2022-09-02T04:08:41.376Z</time>
      </trkpt>
      <trkpt lat="37.53619" lon="-3.05098">
        <ele>844.998396</ele>
        <time>2022-09-02T04:09:39.639Z</time>
      </trkpt>
      <trkpt lat="37.53568" lon="-3.05128">
        <ele>844.145891</ele>
        <time>2022-09-02T04:09:59.874Z</time>
      </trkpt>
      <trkpt lat="37.53528" lon="-3.05146">
        <ele>843.514431</ele>
        <time>2022-09-02T04:10:13.792Z</time>
      </trkpt>
      <trkpt lat="37.53481" lon="-3.05154">
        <ele>842.797406</ele>
        <time>2022-09-02T04:10:28.866Z</time>
      </trkpt>
      <trkpt lat="37.53431" lon="-3.05214">
        <ele>841.02882</ele>
        <time>2022-09-02T04:10:48.953Z</time>
      </trkpt>
      <trkpt lat="37.53361" lon="-3.05251">
        <ele>838.786909</ele>
        <time>2022-09-02T04:11:11.935Z</time>
      </trkpt>
      <trkpt lat="37.533" lon="-3.05273">
        <ele>837.204807</ele>
        <time>2022-09-02T04:11:33.114Z</time>
      </trkpt>
      <trkpt lat="37.53238" lon="-3.05334">
        <ele>837.189283</ele>
        <time>2022-09-02T04:12:01.519Z</time>
      </trkpt>
      <trkpt lat="37.53229" lon="-3.05353">
        <ele>837.185705</ele>
        <time>2022-09-02T04:12:08.535Z</time>
      </trkpt>
      <trkpt lat="37.53208" lon="-3.05425">
        <ele>837.173659</ele>
        <time>2022-09-02T04:12:33.127Z</time>
      </trkpt>
      <trkpt lat="37.53163" lon="-3.05509">
        <ele>837.184684</ele>
        <time>2022-09-02T04:13:07.489Z</time>
      </trkpt>
      <trkpt lat="37.53146" lon="-3.05518">
        <ele>837.188206</ele>
        <time>2022-09-02T04:13:13.231Z</time>
      </trkpt>
      <trkpt lat="37.53069" lon="-3.05529">
        <ele>837.203595</ele>
        <time>2022-09-02T04:13:41.060Z</time>
      </trkpt>
      <trkpt lat="37.53046" lon="-3.05511">
        <ele>837.574377</ele>
        <time>2022-09-02T04:13:50.282Z</time>
      </trkpt>
      <trkpt lat="37.53024" lon="-3.05513">
        <ele>838.33071</ele>
        <time>2022-09-02T04:13:59.274Z</time>
      </trkpt>
      <trkpt lat="37.53008" lon="-3.05522">
        <ele>838.927376</ele>
        <time>2022-09-02T04:14:05.257Z</time>
      </trkpt>
      <trkpt lat="37.52969" lon="-3.0555">
        <ele>840.451401</ele>
        <time>2022-09-02T04:14:30.583Z</time>
      </trkpt>
      <trkpt lat="37.52928" lon="-3.05561">
        <ele>841.867784</ele>
        <time>2022-09-02T04:14:56.527Z</time>
      </trkpt>
      <trkpt lat="37.52899" lon="-3.05584">
        <ele>843.017027</ele>
        <time>2022-09-02T04:15:18.897Z</time>
      </trkpt>
      <trkpt lat="37.52861" lon="-3.05603">
        <ele>845.073902</ele>
        <time>2022-09-02T04:15:47.601Z</time>
      </trkpt>
      <trkpt lat="37.52832" lon="-3.05608">
        <ele>846.613156</ele>
        <time>2022-09-02T04:16:08.820Z</time>
      </trkpt>
      <trkpt lat="37.52817" lon="-3.05616">
        <ele>847.473896</ele>
        <time>2022-09-02T04:16:20.290Z</time>
      </trkpt>
      <trkpt lat="37.52809" lon="-3.05631">
        <ele>848.246759</ele>
        <time>2022-09-02T04:16:29.517Z</time>
      </trkpt>
      <trkpt lat="37.52802" lon="-3.05674">
        <ele>850.11017</ele>
        <time>2022-09-02T04:16:52.502Z</time>
      </trkpt>
      <trkpt lat="37.52789" lon="-3.05692">
        <ele>851.117937</ele>
        <time>2022-09-02T04:17:05.507Z</time>
      </trkpt>
      <trkpt lat="37.52765" lon="-3.05686">
        <ele>852.414819</ele>
        <time>2022-09-02T04:17:20.142Z</time>
      </trkpt>
      <trkpt lat="37.52719" lon="-3.05662">
        <ele>852.5515</ele>
        <time>2022-09-02T04:17:44.346Z</time>
      </trkpt>
      <trkpt lat="37.52682" lon="-3.05655">
        <ele>852.241686</ele>
        <time>2022-09-02T04:17:56.818Z</time>
      </trkpt>
      <trkpt lat="37.52617" lon="-3.05687">
        <ele>851.656054</ele>
        <time>2022-09-02T04:18:18.971Z</time>
      </trkpt>
      <trkpt lat="37.5252" lon="-3.05708">
        <ele>850.183559</ele>
        <time>2022-09-02T04:18:49.578Z</time>
      </trkpt>
      <trkpt lat="37.52432" lon="-3.05698">
        <ele>848.576796</ele>
        <time>2022-09-02T04:19:18.861Z</time>
      </trkpt>
      <trkpt lat="37.52372" lon="-3.05667">
        <ele>848.422127</ele>
        <time>2022-09-02T04:19:42.698Z</time>
      </trkpt>
      <trkpt lat="37.52228" lon="-3.05708">
        <ele>849.525308</ele>
        <time>2022-09-02T04:20:46.088Z</time>
      </trkpt>
      <trkpt lat="37.52214" lon="-3.05788">
        <ele>850.38003</ele>
        <time>2022-09-02T04:21:14.109Z</time>
      </trkpt>
      <trkpt lat="37.52222" lon="-3.05862">
        <ele>851.1656</ele>
        <time>2022-09-02T04:21:38.853Z</time>
      </trkpt>
      <trkpt lat="37.5221" lon="-3.05927">
        <ele>851.986212</ele>
        <time>2022-09-02T04:22:02.104Z</time>
      </trkpt>
      <trkpt lat="37.52141" lon="-3.05995">
        <ele>855.000497</ele>
        <time>2022-09-02T04:22:47.062Z</time>
      </trkpt>
      <trkpt lat="37.52128" lon="-3.06046">
        <ele>856.471642</ele>
        <time>2022-09-02T04:23:11.902Z</time>
      </trkpt>
      <trkpt lat="37.52132" lon="-3.06067">
        <ele>857.05213</ele>
        <time>2022-09-02T04:23:22.876Z</time>
      </trkpt>
      <trkpt lat="37.52195" lon="-3.06225">
        <ele>862.641754</ele>
        <time>2022-09-02T04:24:46.856Z</time>
      </trkpt>
      <trkpt lat="37.52209" lon="-3.0633">
        <ele>865.78584</ele>
        <time>2022-09-02T04:25:32.976Z</time>
      </trkpt>
      <trkpt lat="37.52196" lon="-3.06366">
        <ele>866.525891</ele>
        <time>2022-09-02T04:25:48.675Z</time>
      </trkpt>
      <trkpt lat="37.52198" lon="-3.06474">
        <ele>868.550141</ele>
        <time>2022-09-02T04:26:28.058Z</time>
      </trkpt>
      <trkpt lat="37.52243" lon="-3.06594">
        <ele>871.331755</ele>
        <time>2022-09-02T04:27:19.335Z</time>
      </trkpt>
      <trkpt lat="37.52242" lon="-3.06757">
        <ele>875.163085</ele>
        <time>2022-09-02T04:28:26.598Z</time>
      </trkpt>
      <trkpt lat="37.52184" lon="-3.06723">
        <ele>877.909942</ele>
        <time>2022-09-02T04:29:03.889Z</time>
      </trkpt>
      <trkpt lat="37.52137" lon="-3.06679">
        <ele>880.418719</ele>
        <time>2022-09-02T04:29:40.371Z</time>
      </trkpt>
      <trkpt lat="37.52002" lon="-3.06673">
        <ele>886.19036</ele>
        <time>2022-09-02T04:30:59.810Z</time>
      </trkpt>
      <trkpt lat="37.51911" lon="-3.06702">
        <ele>890.160965</ele>
        <time>2022-09-02T04:31:55.269Z</time>
      </trkpt>
      <trkpt lat="37.51589" lon="-3.06681">
        <ele>899.586706</ele>
        <time>2022-09-02T04:34:43.815Z</time>
      </trkpt>
      <trkpt lat="37.51635" lon="-3.06784">
        <ele>900.75577</ele>
        <time>2022-09-02T04:35:23.527Z</time>
      </trkpt>
      <trkpt lat="37.51643" lon="-3.06872">
        <ele>901.073557</ele>
        <time>2022-09-02T04:35:49.971Z</time>
      </trkpt>
      <trkpt lat="37.51633" lon="-3.06954">
        <ele>901.263881</ele>
        <time>2022-09-02T04:36:14.236Z</time>
      </trkpt>
      <trkpt lat="37.51636" lon="-3.07033">
        <ele>901.067628</ele>
        <time>2022-09-02T04:36:37.238Z</time>
      </trkpt>
      <trkpt lat="37.51614" lon="-3.07071">
        <ele>900.95307</ele>
        <time>2022-09-02T04:36:50.517Z</time>
      </trkpt>
      <trkpt lat="37.51651" lon="-3.0711">
        <ele>900.803072</ele>
        <time>2022-09-02T04:37:07.672Z</time>
      </trkpt>
      <trkpt lat="37.51712" lon="-3.07303">
        <ele>900.205625</ele>
        <time>2022-09-02T04:38:06.910Z</time>
      </trkpt>
      <trkpt lat="37.51632" lon="-3.07473">
        <ele>899.493195</ele>
        <time>2022-09-02T04:39:04.348Z</time>
      </trkpt>
      <trkpt lat="37.51424" lon="-3.07723">
        <ele>896.957626</ele>
        <time>2022-09-02T04:40:42.463Z</time>
      </trkpt>
      <trkpt lat="37.51417" lon="-3.07719">
        <ele>896.919082</ele>
        <time>2022-09-02T04:40:45.297Z</time>
      </trkpt>
      <trkpt lat="37.51382" lon="-3.07699">
        <ele>896.739075</ele>
        <time>2022-09-02T04:40:58.611Z</time>
      </trkpt>
      <trkpt lat="37.51315" lon="-3.07637">
        <ele>896.33739</ele>
        <time>2022-09-02T04:41:29.369Z</time>
      </trkpt>
      <trkpt lat="37.5127" lon="-3.07693">
        <ele>895.841571</ele>
        <time>2022-09-02T04:41:54.792Z</time>
      </trkpt>
      <trkpt lat="37.5121" lon="-3.0769">
        <ele>895.360727</ele>
        <time>2022-09-02T04:42:20.468Z</time>
      </trkpt>
      <trkpt lat="37.51043" lon="-3.0761">
        <ele>887.064975</ele>
        <time>2022-09-02T04:43:13.552Z</time>
      </trkpt>
      <trkpt lat="37.50882" lon="-3.07591">
        <ele>872.548312</ele>
        <time>2022-09-02T04:43:54.280Z</time>
      </trkpt>
      <trkpt lat="37.50842" lon="-3.07572">
        <ele>868.130217</ele>
        <time>2022-09-02T04:44:04.991Z</time>
      </trkpt>
      <trkpt lat="37.50766" lon="-3.07635">
        <ele>860.839607</ele>
        <time>2022-09-02T04:44:29.731Z</time>
      </trkpt>
      <trkpt lat="37.50741" lon="-3.07647">
        <ele>859.07248</ele>
        <time>2022-09-02T04:44:37.354Z</time>
      </trkpt>
      <trkpt lat="37.50774" lon="-3.07676">
        <ele>856.419437</ele>
        <time>2022-09-02T04:44:48.943Z</time>
      </trkpt>
      <trkpt lat="37.50779" lon="-3.07696">
        <ele>855.313635</ele>
        <time>2022-09-02T04:44:53.761Z</time>
      </trkpt>
      <trkpt lat="37.50752" lon="-3.07679">
        <ele>853.318002</ele>
        <time>2022-09-02T04:45:01.744Z</time>
      </trkpt>
      <trkpt lat="37.50726" lon="-3.07676">
        <ele>851.480058</ele>
        <time>2022-09-02T04:45:08.598Z</time>
      </trkpt>
      <trkpt lat="37.50713" lon="-3.07667">
        <ele>850.403073</ele>
        <time>2022-09-02T04:45:12.963Z</time>
      </trkpt>
      <trkpt lat="37.50705" lon="-3.07624">
        <ele>847.883201</ele>
        <time>2022-09-02T04:45:22.611Z</time>
      </trkpt>
      <trkpt lat="37.50685" lon="-3.07618">
        <ele>846.37996</ele>
        <time>2022-09-02T04:45:28.257Z</time>
      </trkpt>
      <trkpt lat="37.50673" lon="-3.07597">
        <ele>844.884041</ele>
        <time>2022-09-02T04:45:34.239Z</time>
      </trkpt>
      <trkpt lat="37.50655" lon="-3.07596">
        <ele>843.611059</ele>
        <time>2022-09-02T04:45:38.721Z</time>
      </trkpt>
      <trkpt lat="37.50646" lon="-3.07568">
        <ele>841.874281</ele>
        <time>2022-09-02T04:45:45.310Z</time>
      </trkpt>
      <trkpt lat="37.50631" lon="-3.07555">
        <ele>840.602045</ele>
        <time>2022-09-02T04:45:49.922Z</time>
      </trkpt>
      <trkpt lat="37.5063" lon="-3.07526">
        <ele>838.494424</ele>
        <time>2022-09-02T04:45:56.443Z</time>
      </trkpt>
      <trkpt lat="37.50641" lon="-3.0747">
        <ele>833.749845</ele>
        <time>2022-09-02T04:46:08.644Z</time>
      </trkpt>
      <trkpt lat="37.50617" lon="-3.07452">
        <ele>830.829988</ele>
        <time>2022-09-02T04:46:15.779Z</time>
      </trkpt>
      <trkpt lat="37.50586" lon="-3.07461">
        <ele>827.572895</ele>
        <time>2022-09-02T04:46:23.774Z</time>
      </trkpt>
      <trkpt lat="37.50533" lon="-3.07536">
        <ele>818.542702</ele>
        <time>2022-09-02T04:46:43.787Z</time>
      </trkpt>
      <trkpt lat="37.50499" lon="-3.07538">
        <ele>813.583405</ele>
        <time>2022-09-02T04:46:51.989Z</time>
      </trkpt>
      <trkpt lat="37.50468" lon="-3.07548">
        <ele>808.882753</ele>
        <time>2022-09-02T04:46:59.672Z</time>
      </trkpt>
      <trkpt lat="37.50411" lon="-3.07552">
        <ele>800.545695</ele>
        <time>2022-09-02T04:47:13.249Z</time>
      </trkpt>
      <trkpt lat="37.50324" lon="-3.07647">
        <ele>786.990026</ele>
        <time>2022-09-02T04:47:41.537Z</time>
      </trkpt>
      <trkpt lat="37.50265" lon="-3.07749">
        <ele>776.823347</ele>
        <time>2022-09-02T04:48:07.937Z</time>
      </trkpt>
      <trkpt lat="37.50263" lon="-3.07771">
        <ele>776.058695</ele>
        <time>2022-09-02T04:48:13.175Z</time>
      </trkpt>
      <trkpt lat="37.50207" lon="-3.07821">
        <ele>774.324655</ele>
        <time>2022-09-02T04:48:34.331Z</time>
      </trkpt>
      <trkpt lat="37.50193" lon="-3.07803">
        <ele>773.812515</ele>
        <time>2022-09-02T04:48:40.930Z</time>
      </trkpt>
      <trkpt lat="37.50223" lon="-3.07767">
        <ele>772.761141</ele>
        <time>2022-09-02T04:48:55.468Z</time>
      </trkpt>
      <trkpt lat="37.50211" lon="-3.07728">
        <ele>771.920641</ele>
        <time>2022-09-02T04:49:07.632Z</time>
      </trkpt>
      <trkpt lat="37.50228" lon="-3.07686">
        <ele>771.671477</ele>
        <time>2022-09-02T04:49:21.320Z</time>
      </trkpt>
      <trkpt lat="37.50246" lon="-3.07585">
        <ele>771.21193</ele>
        <time>2022-09-02T04:49:54.718Z</time>
      </trkpt>
      <trkpt lat="37.50185" lon="-3.07629">
        <ele>770.566129</ele>
        <time>2022-09-02T04:50:17.971Z</time>
      </trkpt>
      <trkpt lat="37.50161" lon="-3.07635">
        <ele>769.69625</ele>
        <time>2022-09-02T04:50:25.502Z</time>
      </trkpt>
      <trkpt lat="37.5011" lon="-3.07605">
        <ele>767.64257</ele>
        <time>2022-09-02T04:50:43.009Z</time>
      </trkpt>
      <trkpt lat="37.50091" lon="-3.0761">
        <ele>766.953582</ele>
        <time>2022-09-02T04:50:48.627Z</time>
      </trkpt>
      <trkpt lat="37.50072" lon="-3.07661">
        <ele>765.357966</ele>
        <time>2022-09-02T04:51:01.728Z</time>
      </trkpt>
      <trkpt lat="37.50088" lon="-3.07711">
        <ele>763.689233</ele>
        <time>2022-09-02T04:51:14.297Z</time>
      </trkpt>
      <trkpt lat="37.50082" lon="-3.07736">
        <ele>762.753482</ele>
        <time>2022-09-02T04:51:20.287Z</time>
      </trkpt>
      <trkpt lat="37.50056" lon="-3.07756">
        <ele>761.371307</ele>
        <time>2022-09-02T04:51:29.252Z</time>
      </trkpt>
      <trkpt lat="37.50059" lon="-3.078">
        <ele>759.789136</ele>
        <time>2022-09-02T04:51:39.468Z</time>
      </trkpt>
      <trkpt lat="37.50035" lon="-3.07824">
        <ele>758.411306</ele>
        <time>2022-09-02T04:51:48.563Z</time>
      </trkpt>
      <trkpt lat="37.49984" lon="-3.07807">
        <ele>756.135914</ele>
        <time>2022-09-02T04:52:04.121Z</time>
      </trkpt>
      <trkpt lat="37.49961" lon="-3.07756">
        <ele>754.457929</ele>
        <time>2022-09-02T04:52:17.930Z</time>
      </trkpt>
      <trkpt lat="37.49938" lon="-3.07778">
        <ele>753.40357</ele>
        <time>2022-09-02T04:52:26.374Z</time>
      </trkpt>
      <trkpt lat="37.50006" lon="-3.07993">
        <ele>749.503457</ele>
        <time>2022-09-02T04:52:57.854Z</time>
      </trkpt>
      <trkpt lat="37.50012" lon="-3.08047">
        <ele>749.325208</ele>
        <time>2022-09-02T04:53:08.657Z</time>
      </trkpt>
      <trkpt lat="37.50013" lon="-3.08081">
        <ele>749.214686</ele>
        <time>2022-09-02T04:53:16.858Z</time>
      </trkpt>
      <trkpt lat="37.50025" lon="-3.08114">
        <ele>749.373978</ele>
        <time>2022-09-02T04:53:27.535Z</time>
      </trkpt>
      <trkpt lat="37.50037" lon="-3.08123">
        <ele>750.170583</ele>
        <time>2022-09-02T04:53:32.999Z</time>
      </trkpt>
      <trkpt lat="37.50086" lon="-3.08135">
        <ele>752.981172</ele>
        <time>2022-09-02T04:53:56.848Z</time>
      </trkpt>
      <trkpt lat="37.50094" lon="-3.08144">
        <ele>753.599169</ele>
        <time>2022-09-02T04:54:02.427Z</time>
      </trkpt>
      <trkpt lat="37.50139" lon="-3.08222">
        <ele>757.931401</ele>
        <time>2022-09-02T04:54:45.252Z</time>
      </trkpt>
      <trkpt lat="37.50145" lon="-3.08247">
        <ele>759.108961</ele>
        <time>2022-09-02T04:54:56.359Z</time>
      </trkpt>
      <trkpt lat="37.50134" lon="-3.08336">
        <ele>765.930438</ele>
        <time>2022-09-02T04:55:39.129Z</time>
      </trkpt>
      <trkpt lat="37.50143" lon="-3.08356">
        <ele>767.687197</ele>
        <time>2022-09-02T04:55:51.810Z</time>
      </trkpt>
      <trkpt lat="37.50187" lon="-3.0841">
        <ele>773.664347</ele>
        <time>2022-09-02T04:56:39.670Z</time>
      </trkpt>
      <trkpt lat="37.50201" lon="-3.08454">
        <ele>777.427189</ele>
        <time>2022-09-02T04:57:11.609Z</time>
      </trkpt>
      <trkpt lat="37.50198" lon="-3.08595">
        <ele>789.679071</ele>
        <time>2022-09-02T04:58:44.945Z</time>
      </trkpt>
      <trkpt lat="37.50194" lon="-3.0861">
        <ele>791.040181</ele>
        <time>2022-09-02T04:58:55.157Z</time>
      </trkpt>
      <trkpt lat="37.50164" lon="-3.08657">
        <ele>796.325785</ele>
        <time>2022-09-02T04:59:29.478Z</time>
      </trkpt>
      <trkpt lat="37.5016" lon="-3.08673">
        <ele>796.981574</ele>
        <time>2022-09-02T04:59:38.223Z</time>
      </trkpt>
      <trkpt lat="37.50162" lon="-3.08691">
        <ele>797.488069</ele>
        <time>2022-09-02T04:59:46.126Z</time>
      </trkpt>
      <trkpt lat="37.50178" lon="-3.08731">
        <ele>798.787081</ele>
        <time>2022-09-02T05:00:03.239Z</time>
      </trkpt>
      <trkpt lat="37.502" lon="-3.08745">
        <ele>799.662804</ele>
        <time>2022-09-02T05:00:12.463Z</time>
      </trkpt>
      <trkpt lat="37.50238" lon="-3.0874">
        <ele>801.069282</ele>
        <time>2022-09-02T05:00:24.522Z</time>
      </trkpt>
      <trkpt lat="37.50259" lon="-3.08748">
        <ele>801.84762</ele>
        <time>2022-09-02T05:00:30.252Z</time>
      </trkpt>
      <trkpt lat="37.5031" lon="-3.0881">
        <ele>804.344432</ele>
        <time>2022-09-02T05:00:47.394Z</time>
      </trkpt>
      <trkpt lat="37.50321" lon="-3.08819">
        <ele>804.807587</ele>
        <time>2022-09-02T05:00:51.627Z</time>
      </trkpt>
      <trkpt lat="37.50377" lon="-3.0884">
        <ele>806.793699</ele>
        <time>2022-09-02T05:01:11.588Z</time>
      </trkpt>
      <trkpt lat="37.5042" lon="-3.0889">
        <ele>808.821397</ele>
        <time>2022-09-02T05:01:40.660Z</time>
      </trkpt>
      <trkpt lat="37.50428" lon="-3.08904">
        <ele>809.272972</ele>
        <time>2022-09-02T05:01:47.718Z</time>
      </trkpt>
      <trkpt lat="37.50438" lon="-3.08942">
        <ele>811.595488</ele>
        <time>2022-09-02T05:02:07.086Z</time>
      </trkpt>
      <trkpt lat="37.50435" lon="-3.08973">
        <ele>813.399727</ele>
        <time>2022-09-02T05:02:21.812Z</time>
      </trkpt>
      <trkpt lat="37.50421" lon="-3.0902">
        <ele>816.285331</ele>
        <time>2022-09-02T05:02:45.619Z</time>
      </trkpt>
      <trkpt lat="37.5043" lon="-3.09077">
        <ele>819.664758</ele>
        <time>2022-09-02T05:03:13.627Z</time>
      </trkpt>
      <trkpt lat="37.50446" lon="-3.09095">
        <ele>821.165738</ele>
        <time>2022-09-02T05:03:26.231Z</time>
      </trkpt>
      <trkpt lat="37.50493" lon="-3.09114">
        <ele>824.31222</ele>
        <time>2022-09-02T05:03:55.902Z</time>
      </trkpt>
      <trkpt lat="37.50504" lon="-3.09123">
        <ele>825.089111</ele>
        <time>2022-09-02T05:04:03.586Z</time>
      </trkpt>
      <trkpt lat="37.50513" lon="-3.09138">
        <ele>825.977234</ele>
        <time>2022-09-02T05:04:12.284Z</time>
      </trkpt>
      <trkpt lat="37.50571" lon="-3.09323">
        <ele>833.483424</ele>
        <time>2022-09-02T05:05:29.782Z</time>
      </trkpt>
      <trkpt lat="37.50592" lon="-3.09481">
        <ele>835.156703</ele>
        <time>2022-09-02T05:06:02.723Z</time>
      </trkpt>
      <trkpt lat="37.50603" lon="-3.095">
        <ele>835.171945</ele>
        <time>2022-09-02T05:06:06.040Z</time>
      </trkpt>
      <trkpt lat="37.50727" lon="-3.09649">
        <ele>830.32337</ele>
        <time>2022-09-02T05:06:34.943Z</time>
      </trkpt>
      <trkpt lat="37.50746" lon="-3.09705">
        <ele>829.71678</ele>
        <time>2022-09-02T05:06:43.593Z</time>
      </trkpt>
      <trkpt lat="37.50813" lon="-3.09938">
        <ele>827.249847</ele>
        <time>2022-09-02T05:07:24.932Z</time>
      </trkpt>
      <trkpt lat="37.50836" lon="-3.09962">
        <ele>826.815137</ele>
        <time>2022-09-02T05:07:30.591Z</time>
      </trkpt>
      <trkpt lat="37.5095" lon="-3.10034">
        <ele>824.083465</ele>
        <time>2022-09-02T05:07:53.836Z</time>
      </trkpt>
      <trkpt lat="37.50974" lon="-3.10065">
        <ele>822.865017</ele>
        <time>2022-09-02T05:07:59.726Z</time>
      </trkpt>
      <trkpt lat="37.5098" lon="-3.10085">
        <ele>822.239428</ele>
        <time>2022-09-02T05:08:02.647Z</time>
      </trkpt>
      <trkpt lat="37.51011" lon="-3.10249">
        <ele>816.192238</ele>
        <time>2022-09-02T05:08:24.234Z</time>
      </trkpt>
      <trkpt lat="37.51012" lon="-3.10271">
        <ele>815.067168</ele>
        <time>2022-09-02T05:08:26.882Z</time>
      </trkpt>
      <trkpt lat="37.51009" lon="-3.10292">
        <ele>813.955008</ele>
        <time>2022-09-02T05:08:29.591Z</time>
      </trkpt>
      <trkpt lat="37.50937" lon="-3.10526">
        <ele>800.919342</ele>
        <time>2022-09-02T05:08:59.085Z</time>
      </trkpt>
      <trkpt lat="37.50941" lon="-3.1055">
        <ele>799.590677</ele>
        <time>2022-09-02T05:09:01.971Z</time>
      </trkpt>
      <trkpt lat="37.50982" lon="-3.10657">
        <ele>794.131184</ele>
        <time>2022-09-02T05:09:16.654Z</time>
      </trkpt>
      <trkpt lat="37.50982" lon="-3.10682">
        <ele>793.343055</ele>
        <time>2022-09-02T05:09:20.218Z</time>
      </trkpt>
      <trkpt lat="37.50971" lon="-3.10703">
        <ele>792.509372</ele>
        <time>2022-09-02T05:09:23.509Z</time>
      </trkpt>
      <trkpt lat="37.5092" lon="-3.1073">
        <ele>790.264615</ele>
        <time>2022-09-02T05:09:32.984Z</time>
      </trkpt>
      <trkpt lat="37.50888" lon="-3.10751">
        <ele>788.83588</ele>
        <time>2022-09-02T05:09:38.853Z</time>
      </trkpt>
      <trkpt lat="37.50868" lon="-3.10756">
        <ele>788.089639</ele>
        <time>2022-09-02T05:09:42.103Z</time>
      </trkpt>
      <trkpt lat="37.50847" lon="-3.10752">
        <ele>787.62676</ele>
        <time>2022-09-02T05:09:45.940Z</time>
      </trkpt>
      <trkpt lat="37.50825" lon="-3.10748">
        <ele>787.138744</ele>
        <time>2022-09-02T05:09:49.450Z</time>
      </trkpt>
      <trkpt lat="37.50813" lon="-3.10755">
        <ele>786.841633</ele>
        <time>2022-09-02T05:09:52.894Z</time>
      </trkpt>
      <trkpt lat="37.50808" lon="-3.10774">
        <ele>786.480106</ele>
        <time>2022-09-02T05:09:55.642Z</time>
      </trkpt>
      <trkpt lat="37.50823" lon="-3.10799">
        <ele>785.931397</ele>
        <time>2022-09-02T05:10:00.282Z</time>
      </trkpt>
      <trkpt lat="37.5086" lon="-3.10797">
        <ele>785.137621</ele>
        <time>2022-09-02T05:10:06.871Z</time>
      </trkpt>
      <trkpt lat="37.50878" lon="-3.10812">
        <ele>784.653871</ele>
        <time>2022-09-02T05:10:11.154Z</time>
      </trkpt>
      <trkpt lat="37.50882" lon="-3.10836">
        <ele>784.245748</ele>
        <time>2022-09-02T05:10:15.213Z</time>
      </trkpt>
      <trkpt lat="37.50871" lon="-3.10853">
        <ele>784.309478</ele>
        <time>2022-09-02T05:10:18.172Z</time>
      </trkpt>
      <trkpt lat="37.50851" lon="-3.10863">
        <ele>784.386672</ele>
        <time>2022-09-02T05:10:24.241Z</time>
      </trkpt>
      <trkpt lat="37.50796" lon="-3.10846">
        <ele>784.599613</ele>
        <time>2022-09-02T05:10:40.604Z</time>
      </trkpt>
      <trkpt lat="37.50777" lon="-3.10845">
        <ele>784.667324</ele>
        <time>2022-09-02T05:10:48.854Z</time>
      </trkpt>
      <trkpt lat="37.50746" lon="-3.10857">
        <ele>784.790465</ele>
        <time>2022-09-02T05:11:03.578Z</time>
      </trkpt>
      <trkpt lat="37.50651" lon="-3.10914">
        <ele>778.471043</ele>
        <time>2022-09-02T05:11:21.338Z</time>
      </trkpt>
      <trkpt lat="37.50613" lon="-3.10937">
        <ele>774.72172</ele>
        <time>2022-09-02T05:11:27.366Z</time>
      </trkpt>
      <trkpt lat="37.50563" lon="-3.10994">
        <ele>768.589732</ele>
        <time>2022-09-02T05:11:36.430Z</time>
      </trkpt>
      <trkpt lat="37.50535" lon="-3.11054">
        <ele>759.34701</ele>
        <time>2022-09-02T05:11:43.757Z</time>
      </trkpt>
      <trkpt lat="37.50534" lon="-3.11088">
        <ele>754.891996</ele>
        <time>2022-09-02T05:11:47.234Z</time>
      </trkpt>
      <trkpt lat="37.50541" lon="-3.11146">
        <ele>747.107457</ele>
        <time>2022-09-02T05:11:53.315Z</time>
      </trkpt>
      <trkpt lat="37.50534" lon="-3.11174">
        <ele>743.17523</ele>
        <time>2022-09-02T05:11:56.414Z</time>
      </trkpt>
      <trkpt lat="37.50489" lon="-3.11241">
        <ele>733.999058</ele>
        <time>2022-09-02T05:12:05.861Z</time>
      </trkpt>
      <trkpt lat="37.50485" lon="-3.1127">
        <ele>731.491546</ele>
        <time>2022-09-02T05:12:09.070Z</time>
      </trkpt>
      <trkpt lat="37.50493" lon="-3.11299">
        <ele>728.813071</ele>
        <time>2022-09-02T05:12:12.585Z</time>
      </trkpt>
      <trkpt lat="37.50522" lon="-3.11364">
        <ele>722.34727</ele>
        <time>2022-09-02T05:12:21.127Z</time>
      </trkpt>
      <trkpt lat="37.50529" lon="-3.11401">
        <ele>719.049009</ele>
        <time>2022-09-02T05:12:25.537Z</time>
      </trkpt>
      <trkpt lat="37.50503" lon="-3.11457">
        <ele>714.818004</ele>
        <time>2022-09-02T05:12:32.917Z</time>
      </trkpt>
      <trkpt lat="37.50502" lon="-3.11486">
        <ele>712.85043</ele>
        <time>2022-09-02T05:12:36.216Z</time>
      </trkpt>
      <trkpt lat="37.50513" lon="-3.11515">
        <ele>710.700299</ele>
        <time>2022-09-02T05:12:39.917Z</time>
      </trkpt>
      <trkpt lat="37.50536" lon="-3.11529">
        <ele>708.579322</ele>
        <time>2022-09-02T05:12:43.619Z</time>
      </trkpt>
      <trkpt lat="37.50603" lon="-3.11533">
        <ele>703.530118</ele>
        <time>2022-09-02T05:12:53.471Z</time>
      </trkpt>
      <trkpt lat="37.50622" lon="-3.11564">
        <ele>702.160978</ele>
        <time>2022-09-02T05:12:58.285Z</time>
      </trkpt>
      <trkpt lat="37.50631" lon="-3.11616">
        <ele>700.346021</ele>
        <time>2022-09-02T05:13:04.971Z</time>
      </trkpt>
      <trkpt lat="37.50625" lon="-3.1164">
        <ele>699.464201</ele>
        <time>2022-09-02T05:13:08.195Z</time>
      </trkpt>
      <trkpt lat="37.50614" lon="-3.1166">
        <ele>698.630646</ele>
        <time>2022-09-02T05:13:11.315Z</time>
      </trkpt>
      <trkpt lat="37.50579" lon="-3.11685">
        <ele>696.897791</ele>
        <time>2022-09-02T05:13:18.188Z</time>
      </trkpt>
      <trkpt lat="37.50562" lon="-3.11687">
        <ele>696.259779</ele>
        <time>2022-09-02T05:13:21.325Z</time>
      </trkpt>
      <trkpt lat="37.50547" lon="-3.1168">
        <ele>696.287937</ele>
        <time>2022-09-02T05:13:24.861Z</time>
      </trkpt>
      <trkpt lat="37.50519" lon="-3.11641">
        <ele>696.358098</ele>
        <time>2022-09-02T05:13:36.019Z</time>
      </trkpt>
      <trkpt lat="37.50502" lon="-3.11629">
        <ele>696.39183</ele>
        <time>2022-09-02T05:13:41.736Z</time>
      </trkpt>
      <trkpt lat="37.50491" lon="-3.11626">
        <ele>696.410519</ele>
        <time>2022-09-02T05:13:44.759Z</time>
      </trkpt>
      <trkpt lat="37.50445" lon="-3.11636">
        <ele>696.490446</ele>
        <time>2022-09-02T05:13:57.677Z</time>
      </trkpt>
      <trkpt lat="37.50428" lon="-3.11647">
        <ele>696.521654</ele>
        <time>2022-09-02T05:14:02.473Z</time>
      </trkpt>
      <trkpt lat="37.5037" lon="-3.11717">
        <ele>696.062942</ele>
        <time>2022-09-02T05:14:19.619Z</time>
      </trkpt>
      <trkpt lat="37.50258" lon="-3.11809">
        <ele>694.893844</ele>
        <time>2022-09-02T05:14:45.685Z</time>
      </trkpt>
      <trkpt lat="37.50248" lon="-3.11829">
        <ele>694.74002</ele>
        <time>2022-09-02T05:14:49.206Z</time>
      </trkpt>
      <trkpt lat="37.50239" lon="-3.11891">
        <ele>694.331847</ele>
        <time>2022-09-02T05:14:58.866Z</time>
      </trkpt>
      <trkpt lat="37.50227" lon="-3.11912">
        <ele>694.165254</ele>
        <time>2022-09-02T05:15:02.836Z</time>
      </trkpt>
      <trkpt lat="37.50208" lon="-3.11922">
        <ele>693.997837</ele>
        <time>2022-09-02T05:15:07.039Z</time>
      </trkpt>
      <trkpt lat="37.5005" lon="-3.11946">
        <ele>694.564124</ele>
        <time>2022-09-02T05:15:42.300Z</time>
      </trkpt>
      <trkpt lat="37.49859" lon="-3.12059">
        <ele>699.557374</ele>
        <time>2022-09-02T05:16:54.537Z</time>
      </trkpt>
      <trkpt lat="37.49839" lon="-3.12057">
        <ele>700.184452</ele>
        <time>2022-09-02T05:17:04.718Z</time>
      </trkpt>
      <trkpt lat="37.49764" lon="-3.12027">
        <ele>702.549853</ele>
        <time>2022-09-02T05:17:41.726Z</time>
      </trkpt>
      <trkpt lat="37.49732" lon="-3.11995">
        <ele>703.713928</ele>
        <time>2022-09-02T05:17:58.833Z</time>
      </trkpt>
      <trkpt lat="37.49713" lon="-3.11986">
        <ele>704.280483</ele>
        <time>2022-09-02T05:18:07.035Z</time>
      </trkpt>
      <trkpt lat="37.497" lon="-3.11987">
        <ele>704.673683</ele>
        <time>2022-09-02T05:18:11.833Z</time>
      </trkpt>
      <trkpt lat="37.49644" lon="-3.12023">
        <ele>706.190427</ele>
        <time>2022-09-02T05:18:28.282Z</time>
      </trkpt>
      <trkpt lat="37.49604" lon="-3.12065">
        <ele>705.637721</ele>
        <time>2022-09-02T05:18:38.558Z</time>
      </trkpt>
      <trkpt lat="37.49522" lon="-3.12102">
        <ele>704.726621</ele>
        <time>2022-09-02T05:18:54.172Z</time>
      </trkpt>
      <trkpt lat="37.49508" lon="-3.12132">
        <ele>704.439948</ele>
        <time>2022-09-02T05:18:59.484Z</time>
      </trkpt>
      <trkpt lat="37.49497" lon="-3.12229">
        <ele>705.815159</ele>
        <time>2022-09-02T05:19:18.764Z</time>
      </trkpt>
      <trkpt lat="37.4949" lon="-3.12248">
        <ele>706.143831</ele>
        <time>2022-09-02T05:19:24.519Z</time>
      </trkpt>
      <trkpt lat="37.4948" lon="-3.12263">
        <ele>706.462304</ele>
        <time>2022-09-02T05:19:30.410Z</time>
      </trkpt>
      <trkpt lat="37.49417" lon="-3.1231">
        <ele>707.93992</ele>
        <time>2022-09-02T05:20:00.858Z</time>
      </trkpt>
      <trkpt lat="37.49396" lon="-3.12363">
        <ele>708.524218</ele>
        <time>2022-09-02T05:20:19.785Z</time>
      </trkpt>
      <trkpt lat="37.49364" lon="-3.12382">
        <ele>708.945986</ele>
        <time>2022-09-02T05:20:32.172Z</time>
      </trkpt>
      <trkpt lat="37.49353" lon="-3.12393">
        <ele>709.110756</ele>
        <time>2022-09-02T05:20:36.208Z</time>
      </trkpt>
      <trkpt lat="37.49326" lon="-3.12446">
        <ele>709.703181</ele>
        <time>2022-09-02T05:20:48.925Z</time>
      </trkpt>
      <trkpt lat="37.493" lon="-3.1247">
        <ele>710.078384</ele>
        <time>2022-09-02T05:20:55.216Z</time>
      </trkpt>
      <trkpt lat="37.49282" lon="-3.1251">
        <ele>709.123578</ele>
        <time>2022-09-02T05:21:01.756Z</time>
      </trkpt>
      <trkpt lat="37.49278" lon="-3.12537">
        <ele>708.444725</ele>
        <time>2022-09-02T05:21:05.354Z</time>
      </trkpt>
      <trkpt lat="37.4929" lon="-3.12622">
        <ele>706.293373</ele>
        <time>2022-09-02T05:21:16.665Z</time>
      </trkpt>
      <trkpt lat="37.49291" lon="-3.12665">
        <ele>705.236848</ele>
        <time>2022-09-02T05:21:22.261Z</time>
      </trkpt>
      <trkpt lat="37.49278" lon="-3.12729">
        <ele>704.352162</ele>
        <time>2022-09-02T05:21:31.244Z</time>
      </trkpt>
      <trkpt lat="37.49256" lon="-3.12794">
        <ele>704.06807</ele>
        <time>2022-09-02T05:21:41.649Z</time>
      </trkpt>
      <trkpt lat="37.49255" lon="-3.12817">
        <ele>703.974714</ele>
        <time>2022-09-02T05:21:45.320Z</time>
      </trkpt>
      <trkpt lat="37.49284" lon="-3.12905">
        <ele>703.58839</ele>
        <time>2022-09-02T05:22:06.680Z</time>
      </trkpt>
      <trkpt lat="37.49339" lon="-3.12947">
        <ele>705.691022</ele>
        <time>2022-09-02T05:22:31.274Z</time>
      </trkpt>
      <trkpt lat="37.49345" lon="-3.12964">
        <ele>706.176541</ele>
        <time>2022-09-02T05:22:37.728Z</time>
      </trkpt>
      <trkpt lat="37.49338" lon="-3.13109">
        <ele>709.907077</ele>
        <time>2022-09-02T05:23:24.550Z</time>
      </trkpt>
      <trkpt lat="37.49329" lon="-3.13139">
        <ele>710.570349</ele>
        <time>2022-09-02T05:23:35.583Z</time>
      </trkpt>
      <trkpt lat="37.49299" lon="-3.13184">
        <ele>711.774529</ele>
        <time>2022-09-02T05:23:54.065Z</time>
      </trkpt>
      <trkpt lat="37.49289" lon="-3.1329">
        <ele>713.987449</ele>
        <time>2022-09-02T05:24:22.787Z</time>
      </trkpt>
      <trkpt lat="37.4928" lon="-3.13313">
        <ele>714.17285</ele>
        <time>2022-09-02T05:24:28.081Z</time>
      </trkpt>
      <trkpt lat="37.49233" lon="-3.13365">
        <ele>713.771059</ele>
        <time>2022-09-02T05:24:41.175Z</time>
      </trkpt>
      <trkpt lat="37.49206" lon="-3.13419">
        <ele>713.45189</ele>
        <time>2022-09-02T05:24:50.925Z</time>
      </trkpt>
      <trkpt lat="37.49178" lon="-3.13536">
        <ele>713.511902</ele>
        <time>2022-09-02T05:25:09.558Z</time>
      </trkpt>
      <trkpt lat="37.49178" lon="-3.13579">
        <ele>713.854575</ele>
        <time>2022-09-02T05:25:16.514Z</time>
      </trkpt>
      <trkpt lat="37.49173" lon="-3.13603">
        <ele>714.057589</ele>
        <time>2022-09-02T05:25:21.308Z</time>
      </trkpt>
      <trkpt lat="37.49154" lon="-3.13629">
        <ele>714.341936</ele>
        <time>2022-09-02T05:25:29.149Z</time>
      </trkpt>
      <trkpt lat="37.49132" lon="-3.13638">
        <ele>714.572991</ele>
        <time>2022-09-02T05:25:36.519Z</time>
      </trkpt>
      <trkpt lat="37.49111" lon="-3.13636">
        <ele>714.788671</ele>
        <time>2022-09-02T05:25:44.731Z</time>
      </trkpt>
      <trkpt lat="37.49093" lon="-3.13621">
        <ele>715.361691</ele>
        <time>2022-09-02T05:25:53.670Z</time>
      </trkpt>
      <trkpt lat="37.49025" lon="-3.1353">
        <ele>720.519352</ele>
        <time>2022-09-02T05:26:46.440Z</time>
      </trkpt>
      <trkpt lat="37.48923" lon="-3.13457">
        <ele>724.620436</ele>
        <time>2022-09-02T05:27:43.249Z</time>
      </trkpt>
      <trkpt lat="37.48831" lon="-3.13438">
        <ele>725.448525</ele>
        <time>2022-09-02T05:28:06.113Z</time>
      </trkpt>
      <trkpt lat="37.48797" lon="-3.13443">
        <ele>725.753219</ele>
        <time>2022-09-02T05:28:12.241Z</time>
      </trkpt>
      <trkpt lat="37.48716" lon="-3.13522">
        <ele>723.52029</ele>
        <time>2022-09-02T05:28:29.399Z</time>
      </trkpt>
      <trkpt lat="37.48673" lon="-3.13612">
        <ele>721.516984</ele>
        <time>2022-09-02T05:28:44.297Z</time>
      </trkpt>
      <trkpt lat="37.4866" lon="-3.13624">
        <ele>721.64872</ele>
        <time>2022-09-02T05:28:47.925Z</time>
      </trkpt>
      <trkpt lat="37.48588" lon="-3.13665">
        <ele>722.521053</ele>
        <time>2022-09-02T05:29:09.435Z</time>
      </trkpt>
      <trkpt lat="37.48576" lon="-3.13678">
        <ele>722.692626</ele>
        <time>2022-09-02T05:29:14.354Z</time>
      </trkpt>
      <trkpt lat="37.48529" lon="-3.13801">
        <ele>724.437286</ele>
        <time>2022-09-02T05:29:51.320Z</time>
      </trkpt>
      <trkpt lat="37.48498" lon="-3.13901">
        <ele>726.625864</ele>
        <time>2022-09-02T05:30:18.744Z</time>
      </trkpt>
      <trkpt lat="37.48487" lon="-3.13969">
        <ele>728.027979</ele>
        <time>2022-09-02T05:30:40.229Z</time>
      </trkpt>
      <trkpt lat="37.4849" lon="-3.1405">
        <ele>730.347531</ele>
        <time>2022-09-02T05:31:05.104Z</time>
      </trkpt>
      <trkpt lat="37.48483" lon="-3.1409">
        <ele>731.52609</ele>
        <time>2022-09-02T05:31:18.792Z</time>
      </trkpt>
      <trkpt lat="37.48474" lon="-3.14101">
        <ele>731.996436</ele>
        <time>2022-09-02T05:31:24.706Z</time>
      </trkpt>
      <trkpt lat="37.48462" lon="-3.14105">
        <ele>732.460328</ele>
        <time>2022-09-02T05:31:29.739Z</time>
      </trkpt>
      <trkpt lat="37.48443" lon="-3.14103">
        <ele>733.148762</ele>
        <time>2022-09-02T05:31:37.713Z</time>
      </trkpt>
      <trkpt lat="37.48404" lon="-3.14088">
        <ele>734.606199</ele>
        <time>2022-09-02T05:31:54.637Z</time>
      </trkpt>
      <trkpt lat="37.48391" lon="-3.1409">
        <ele>734.857423</ele>
        <time>2022-09-02T05:31:59.425Z</time>
      </trkpt>
      <trkpt lat="37.48354" lon="-3.14112">
        <ele>735.695021</ele>
        <time>2022-09-02T05:32:16.039Z</time>
      </trkpt>
      <trkpt lat="37.48345" lon="-3.14135">
        <ele>736.107553</ele>
        <time>2022-09-02T05:32:23.830Z</time>
      </trkpt>
      <trkpt lat="37.48344" lon="-3.1421">
        <ele>737.305735</ele>
        <time>2022-09-02T05:32:41.655Z</time>
      </trkpt>
      <trkpt lat="37.4834" lon="-3.14232">
        <ele>737.670508</ele>
        <time>2022-09-02T05:32:46.374Z</time>
      </trkpt>
      <trkpt lat="37.48317" lon="-3.14278">
        <ele>738.082214</ele>
        <time>2022-09-02T05:32:57.170Z</time>
      </trkpt>
      <trkpt lat="37.48304" lon="-3.14292">
        <ele>737.918877</ele>
        <time>2022-09-02T05:33:00.644Z</time>
      </trkpt>
      <trkpt lat="37.48292" lon="-3.14295">
        <ele>737.792387</ele>
        <time>2022-09-02T05:33:03.256Z</time>
      </trkpt>
      <trkpt lat="37.48194" lon="-3.14274">
        <ele>736.826765</ele>
        <time>2022-09-02T05:33:22.626Z</time>
      </trkpt>
      <trkpt lat="37.48035" lon="-3.14178">
        <ele>734.37711</ele>
        <time>2022-09-02T05:33:55.312Z</time>
      </trkpt>
      <trkpt lat="37.48015" lon="-3.14174">
        <ele>734.077896</ele>
        <time>2022-09-02T05:33:59.058Z</time>
      </trkpt>
      <trkpt lat="37.47999" lon="-3.14182">
        <ele>733.813711</ele>
        <time>2022-09-02T05:34:02.494Z</time>
      </trkpt>
      <trkpt lat="37.47803" lon="-3.14347">
        <ele>734.352468</ele>
        <time>2022-09-02T05:34:58.780Z</time>
      </trkpt>
      <trkpt lat="37.47785" lon="-3.14368">
        <ele>734.51289</ele>
        <time>2022-09-02T05:35:06.389Z</time>
      </trkpt>
      <trkpt lat="37.47746" lon="-3.14436">
        <ele>734.947984</ele>
        <time>2022-09-02T05:35:22.991Z</time>
      </trkpt>
      <trkpt lat="37.47676" lon="-3.14507">
        <ele>734.600341</ele>
        <time>2022-09-02T05:35:46.195Z</time>
      </trkpt>
      <trkpt lat="37.47659" lon="-3.14521">
        <ele>734.391897</ele>
        <time>2022-09-02T05:35:50.109Z</time>
      </trkpt>
      <trkpt lat="37.47542" lon="-3.14579">
        <ele>732.731965</ele>
        <time>2022-09-02T05:36:13.619Z</time>
      </trkpt>
      <trkpt lat="37.47322" lon="-3.14623">
        <ele>727.75905</ele>
        <time>2022-09-02T05:36:52.463Z</time>
      </trkpt>
      <trkpt lat="37.47306" lon="-3.14622">
        <ele>727.552892</ele>
        <time>2022-09-02T05:36:55.402Z</time>
      </trkpt>
      <trkpt lat="37.47194" lon="-3.14541">
        <ele>726.390702</ele>
        <time>2022-09-02T05:37:22.540Z</time>
      </trkpt>
      <trkpt lat="37.47173" lon="-3.14535">
        <ele>726.520019</ele>
        <time>2022-09-02T05:37:28.269Z</time>
      </trkpt>
      <trkpt lat="37.46866" lon="-3.14605">
        <ele>729.059223</ele>
        <time>2022-09-02T05:38:51.881Z</time>
      </trkpt>
      <trkpt lat="37.46697" lon="-3.14644">
        <ele>731.267575</ele>
        <time>2022-09-02T05:39:39.955Z</time>
      </trkpt>
      <trkpt lat="37.46675" lon="-3.14653">
        <ele>731.837321</ele>
        <time>2022-09-02T05:39:47.428Z</time>
      </trkpt>
      <trkpt lat="37.46657" lon="-3.1467">
        <ele>732.462488</ele>
        <time>2022-09-02T05:39:54.912Z</time>
      </trkpt>
      <trkpt lat="37.46377" lon="-3.14979">
        <ele>741.909451</ele>
        <time>2022-09-02T05:42:16.534Z</time>
      </trkpt>
      <trkpt lat="37.46367" lon="-3.15002">
        <ele>741.924268</ele>
        <time>2022-09-02T05:42:20.851Z</time>
      </trkpt>
      <trkpt lat="37.46338" lon="-3.15117">
        <ele>741.992816</ele>
        <time>2022-09-02T05:42:39.713Z</time>
      </trkpt>
      <trkpt lat="37.46333" lon="-3.1517">
        <ele>741.437484</ele>
        <time>2022-09-02T05:42:47.284Z</time>
      </trkpt>
      <trkpt lat="37.46322" lon="-3.15193">
        <ele>741.07499</ele>
        <time>2022-09-02T05:42:51.017Z</time>
      </trkpt>
      <trkpt lat="37.46299" lon="-3.152">
        <ele>740.66788</ele>
        <time>2022-09-02T05:42:55.144Z</time>
      </trkpt>
      <trkpt lat="37.46265" lon="-3.15196">
        <ele>740.068115</ele>
        <time>2022-09-02T05:43:01.308Z</time>
      </trkpt>
      <trkpt lat="37.46241" lon="-3.15205">
        <ele>739.646968</ele>
        <time>2022-09-02T05:43:05.752Z</time>
      </trkpt>
      <trkpt lat="37.46172" lon="-3.15303">
        <ele>739.537963</ele>
        <time>2022-09-02T05:43:27.810Z</time>
      </trkpt>
      <trkpt lat="37.46001" lon="-3.15668">
        <ele>744.768488</ele>
        <time>2022-09-02T05:45:15.229Z</time>
      </trkpt>
      <trkpt lat="37.45957" lon="-3.15746">
        <ele>745.845887</ele>
        <time>2022-09-02T05:45:37.744Z</time>
      </trkpt>
      <trkpt lat="37.45942" lon="-3.15801">
        <ele>746.494555</ele>
        <time>2022-09-02T05:45:50.627Z</time>
      </trkpt>
      <trkpt lat="37.45942" lon="-3.15821">
        <ele>746.723251</ele>
        <time>2022-09-02T05:45:55.193Z</time>
      </trkpt>
      <trkpt lat="37.45958" lon="-3.15873">
        <ele>747.184935</ele>
        <time>2022-09-02T05:46:06.741Z</time>
      </trkpt>
      <trkpt lat="37.45956" lon="-3.15888">
        <ele>747.307503</ele>
        <time>2022-09-02T05:46:09.864Z</time>
      </trkpt>
      <trkpt lat="37.45928" lon="-3.15936">
        <ele>747.792823</ele>
        <time>2022-09-02T05:46:22.629Z</time>
      </trkpt>
      <trkpt lat="37.45935" lon="-3.15976">
        <ele>748.130427</ele>
        <time>2022-09-02T05:46:31.598Z</time>
      </trkpt>
      <trkpt lat="37.45932" lon="-3.16085">
        <ele>749.173815</ele>
        <time>2022-09-02T05:46:55.456Z</time>
      </trkpt>
      <trkpt lat="37.45913" lon="-3.16134">
        <ele>749.796101</ele>
        <time>2022-09-02T05:47:07.754Z</time>
      </trkpt>
      <trkpt lat="37.4577" lon="-3.16351">
        <ele>753.379688</ele>
        <time>2022-09-02T05:48:16.208Z</time>
      </trkpt>
      <trkpt lat="37.45767" lon="-3.16369">
        <ele>753.627552</ele>
        <time>2022-09-02T05:48:21.254Z</time>
      </trkpt>
      <trkpt lat="37.4578" lon="-3.1642">
        <ele>754.342086</ele>
        <time>2022-09-02T05:48:34.463Z</time>
      </trkpt>
      <trkpt lat="37.45777" lon="-3.16455">
        <ele>754.740534</ele>
        <time>2022-09-02T05:48:43.379Z</time>
      </trkpt>
      <trkpt lat="37.45772" lon="-3.1647">
        <ele>754.917697</ele>
        <time>2022-09-02T05:48:47.057Z</time>
      </trkpt>
      <trkpt lat="37.45765" lon="-3.16477">
        <ele>755.045754</ele>
        <time>2022-09-02T05:48:49.583Z</time>
      </trkpt>
      <trkpt lat="37.45769" lon="-3.16503">
        <ele>755.338155</ele>
        <time>2022-09-02T05:48:56.287Z</time>
      </trkpt>
      <trkpt lat="37.4575" lon="-3.16622">
        <ele>756.687701</ele>
        <time>2022-09-02T05:49:23.586Z</time>
      </trkpt>
      <trkpt lat="37.45772" lon="-3.1668">
        <ele>757.170847</ele>
        <time>2022-09-02T05:49:37.535Z</time>
      </trkpt>
      <trkpt lat="37.45773" lon="-3.16698">
        <ele>757.295011</ele>
        <time>2022-09-02T05:49:41.292Z</time>
      </trkpt>
      <trkpt lat="37.45766" lon="-3.16714">
        <ele>757.413953</ele>
        <time>2022-09-02T05:49:44.971Z</time>
      </trkpt>
      <trkpt lat="37.45722" lon="-3.16765">
        <ele>757.910781</ele>
        <time>2022-09-02T05:49:59.887Z</time>
      </trkpt>
      <trkpt lat="37.45694" lon="-3.16833">
        <ele>758.48826</ele>
        <time>2022-09-02T05:50:15.657Z</time>
      </trkpt>
      <trkpt lat="37.45665" lon="-3.16953">
        <ele>760.003685</ele>
        <time>2022-09-02T05:50:44.940Z</time>
      </trkpt>
      <trkpt lat="37.45596" lon="-3.17156">
        <ele>762.885523</ele>
        <time>2022-09-02T05:51:40.948Z</time>
      </trkpt>
      <trkpt lat="37.45585" lon="-3.17191">
        <ele>763.411229</ele>
        <time>2022-09-02T05:51:50.369Z</time>
      </trkpt>
      <trkpt lat="37.45553" lon="-3.17402">
        <ele>766.085078</ele>
        <time>2022-09-02T05:52:39.667Z</time>
      </trkpt>
      <trkpt lat="37.45516" lon="-3.17568">
        <ele>768.711841</ele>
        <time>2022-09-02T05:53:22.486Z</time>
      </trkpt>
      <trkpt lat="37.45514" lon="-3.17624">
        <ele>769.686829</ele>
        <time>2022-09-02T05:53:38.004Z</time>
      </trkpt>
      <trkpt lat="37.4552" lon="-3.17712">
        <ele>771.236633</ele>
        <time>2022-09-02T05:54:02.244Z</time>
      </trkpt>
      <trkpt lat="37.45536" lon="-3.17797">
        <ele>772.824914</ele>
        <time>2022-09-02T05:54:26.297Z</time>
      </trkpt>
      <trkpt lat="37.45537" lon="-3.17813">
        <ele>773.113264</ele>
        <time>2022-09-02T05:54:30.404Z</time>
      </trkpt>
      <trkpt lat="37.45578" lon="-3.18263">
        <ele>780.779807</ele>
        <time>2022-09-02T05:56:29.415Z</time>
      </trkpt>
      <trkpt lat="37.45543" lon="-3.18491">
        <ele>783.445012</ele>
        <time>2022-09-02T05:57:25.690Z</time>
      </trkpt>
      <trkpt lat="37.45413" lon="-3.18843">
        <ele>784.845014</ele>
        <time>2022-09-02T05:58:37.274Z</time>
      </trkpt>
      <trkpt lat="37.45402" lon="-3.18914">
        <ele>785.115591</ele>
        <time>2022-09-02T05:58:50.277Z</time>
      </trkpt>
      <trkpt lat="37.45349" lon="-3.19026">
        <ele>786.024692</ele>
        <time>2022-09-02T05:59:17.473Z</time>
      </trkpt>
      <trkpt lat="37.45292" lon="-3.19201">
        <ele>788.607528</ele>
        <time>2022-09-02T06:00:05.734Z</time>
      </trkpt>
      <trkpt lat="37.45251" lon="-3.19346">
        <ele>791.415081</ele>
        <time>2022-09-02T06:00:47.254Z</time>
      </trkpt>
      <trkpt lat="37.45257" lon="-3.19468">
        <ele>793.424279</ele>
        <time>2022-09-02T06:01:20.193Z</time>
      </trkpt>
      <trkpt lat="37.45267" lon="-3.19515">
        <ele>794.111367</ele>
        <time>2022-09-02T06:01:32.914Z</time>
      </trkpt>
      <trkpt lat="37.45285" lon="-3.19546">
        <ele>794.651919</ele>
        <time>2022-09-02T06:01:42.680Z</time>
      </trkpt>
      <trkpt lat="37.4538" lon="-3.19614">
        <ele>796.455202</ele>
        <time>2022-09-02T06:02:12.887Z</time>
      </trkpt>
      <trkpt lat="37.45396" lon="-3.19632">
        <ele>796.757119</ele>
        <time>2022-09-02T06:02:19.149Z</time>
      </trkpt>
      <trkpt lat="37.45414" lon="-3.19672">
        <ele>797.27217</ele>
        <time>2022-09-02T06:02:30.348Z</time>
      </trkpt>
      <trkpt lat="37.45418" lon="-3.19711">
        <ele>797.711203</ele>
        <time>2022-09-02T06:02:39.777Z</time>
      </trkpt>
      <trkpt lat="37.45417" lon="-3.19742">
        <ele>798.066475</ele>
        <time>2022-09-02T06:02:47.410Z</time>
      </trkpt>
      <trkpt lat="37.45414" lon="-3.19768">
        <ele>798.366512</ele>
        <time>2022-09-02T06:02:53.690Z</time>
      </trkpt>
      <trkpt lat="37.45406" lon="-3.1986">
        <ele>799.34261</ele>
        <time>2022-09-02T06:03:14.971Z</time>
      </trkpt>
      <trkpt lat="37.45411" lon="-3.19904">
        <ele>799.809993</ele>
        <time>2022-09-02T06:03:25.565Z</time>
      </trkpt>
      <trkpt lat="37.45476" lon="-3.20011">
        <ele>800.555558</ele>
        <time>2022-09-02T06:03:56.494Z</time>
      </trkpt>
      <trkpt lat="37.45497" lon="-3.20028">
        <ele>800.372656</ele>
        <time>2022-09-02T06:04:01.808Z</time>
      </trkpt>
      <trkpt lat="37.45496" lon="-3.20042">
        <ele>800.29121</ele>
        <time>2022-09-02T06:04:03.961Z</time>
      </trkpt>
      <trkpt lat="37.45487" lon="-3.20059">
        <ele>800.17627</ele>
        <time>2022-09-02T06:04:07.160Z</time>
      </trkpt>
      <trkpt lat="37.45458" lon="-3.20093">
        <ele>799.885746</ele>
        <time>2022-09-02T06:04:14.772Z</time>
      </trkpt>
      <trkpt lat="37.45447" lon="-3.20103">
        <ele>799.793298</ele>
        <time>2022-09-02T06:04:17.037Z</time>
      </trkpt>
      <trkpt lat="37.453" lon="-3.20228">
        <ele>798.61636</ele>
        <time>2022-09-02T06:04:50.933Z</time>
      </trkpt>
      <trkpt lat="37.45286" lon="-3.20251">
        <ele>798.469852</ele>
        <time>2022-09-02T06:04:56.216Z</time>
      </trkpt>
      <trkpt lat="37.45288" lon="-3.20615">
        <ele>804.656845</ele>
        <time>2022-09-02T06:06:36.284Z</time>
      </trkpt>
      <trkpt lat="37.45263" lon="-3.20814">
        <ele>808.657065</ele>
        <time>2022-09-02T06:07:33.081Z</time>
      </trkpt>
      <trkpt lat="37.45266" lon="-3.20969">
        <ele>811.544373</ele>
        <time>2022-09-02T06:08:14.914Z</time>
      </trkpt>
      <trkpt lat="37.45235" lon="-3.21103">
        <ele>813.432486</ele>
        <time>2022-09-02T06:08:49.884Z</time>
      </trkpt>
      <trkpt lat="37.45212" lon="-3.21157">
        <ele>814.272274</ele>
        <time>2022-09-02T06:09:04.060Z</time>
      </trkpt>
      <trkpt lat="37.4521" lon="-3.21182">
        <ele>814.497058</ele>
        <time>2022-09-02T06:09:09.433Z</time>
      </trkpt>
      <trkpt lat="37.45222" lon="-3.21232">
        <ele>814.792317</ele>
        <time>2022-09-02T06:09:20.188Z</time>
      </trkpt>
      <trkpt lat="37.45228" lon="-3.21302">
        <ele>815.18934</ele>
        <time>2022-09-02T06:09:33.621Z</time>
      </trkpt>
      <trkpt lat="37.45227" lon="-3.21343">
        <ele>815.427619</ele>
        <time>2022-09-02T06:09:41.884Z</time>
      </trkpt>
      <trkpt lat="37.45214" lon="-3.21374">
        <ele>815.621865</ele>
        <time>2022-09-02T06:09:48.917Z</time>
      </trkpt>
      <trkpt lat="37.45179" lon="-3.21403">
        <ele>816.03148</ele>
        <time>2022-09-02T06:09:59.882Z</time>
      </trkpt>
      <trkpt lat="37.45157" lon="-3.21419">
        <ele>816.300201</ele>
        <time>2022-09-02T06:10:06.386Z</time>
      </trkpt>
      <trkpt lat="37.45069" lon="-3.21481">
        <ele>817.373235</ele>
        <time>2022-09-02T06:10:34.259Z</time>
      </trkpt>
      <trkpt lat="37.4492" lon="-3.21612">
        <ele>820.631249</ele>
        <time>2022-09-02T06:11:31.246Z</time>
      </trkpt>
      <trkpt lat="37.449" lon="-3.21639">
        <ele>821.23956</ele>
        <time>2022-09-02T06:11:40.729Z</time>
      </trkpt>
      <trkpt lat="37.44702" lon="-3.22184">
        <ele>833.228497</ele>
        <time>2022-09-02T06:14:29.854Z</time>
      </trkpt>
      <trkpt lat="37.44588" lon="-3.22393">
        <ele>836.333482</ele>
        <time>2022-09-02T06:15:29.568Z</time>
      </trkpt>
      <trkpt lat="37.44545" lon="-3.22428">
        <ele>836.826037</ele>
        <time>2022-09-02T06:15:42.188Z</time>
      </trkpt>
      <trkpt lat="37.44446" lon="-3.22584">
        <ele>837.42212</ele>
        <time>2022-09-02T06:16:19.274Z</time>
      </trkpt>
      <trkpt lat="37.44358" lon="-3.22936">
        <ele>839.672734</ele>
        <time>2022-09-02T06:17:34.899Z</time>
      </trkpt>
      <trkpt lat="37.43985" lon="-3.23544">
        <ele>847.622872</ele>
        <time>2022-09-02T06:20:31.463Z</time>
      </trkpt>
      <trkpt lat="37.43931" lon="-3.23614">
        <ele>849.089759</ele>
        <time>2022-09-02T06:20:54.377Z</time>
      </trkpt>
      <trkpt lat="37.43921" lon="-3.23627">
        <ele>849.37404</ele>
        <time>2022-09-02T06:20:58.922Z</time>
      </trkpt>
      <trkpt lat="37.43844" lon="-3.23727">
        <ele>851.612992</ele>
        <time>2022-09-02T06:21:36.017Z</time>
      </trkpt>
      <trkpt lat="37.43778" lon="-3.23893">
        <ele>855.329365</ele>
        <time>2022-09-02T06:22:29.019Z</time>
      </trkpt>
      <trkpt lat="37.43761" lon="-3.23918">
        <ele>855.873884</ele>
        <time>2022-09-02T06:22:37.989Z</time>
      </trkpt>
      <trkpt lat="37.4374" lon="-3.23932">
        <ele>856.275819</ele>
        <time>2022-09-02T06:22:45.642Z</time>
      </trkpt>
      <trkpt lat="37.43631" lon="-3.23978">
        <ele>858.227931</ele>
        <time>2022-09-02T06:23:19.831Z</time>
      </trkpt>
      <trkpt lat="37.43622" lon="-3.23996">
        <ele>858.5139</ele>
        <time>2022-09-02T06:23:24.591Z</time>
      </trkpt>
      <trkpt lat="37.4358" lon="-3.24133">
        <ele>860.086279</ele>
        <time>2022-09-02T06:23:57.838Z</time>
      </trkpt>
      <trkpt lat="37.43571" lon="-3.2415">
        <ele>860.294994</ele>
        <time>2022-09-02T06:24:02.746Z</time>
      </trkpt>
      <trkpt lat="37.43441" lon="-3.24307">
        <ele>862.751245</ele>
        <time>2022-09-02T06:24:55.063Z</time>
      </trkpt>
      <trkpt lat="37.43426" lon="-3.24321">
        <ele>863.005749</ele>
        <time>2022-09-02T06:25:00.269Z</time>
      </trkpt>
      <trkpt lat="37.43368" lon="-3.24379">
        <ele>864.146205</ele>
        <time>2022-09-02T06:25:21.871Z</time>
      </trkpt>
      <trkpt lat="37.43204" lon="-3.24441">
        <ele>867.119208</ele>
        <time>2022-09-02T06:26:15.183Z</time>
      </trkpt>
      <trkpt lat="37.4308" lon="-3.24578">
        <ele>870.535836</ele>
        <time>2022-09-02T06:27:09.137Z</time>
      </trkpt>
      <trkpt lat="37.43058" lon="-3.24593">
        <ele>871.098133</ele>
        <time>2022-09-02T06:27:17.223Z</time>
      </trkpt>
      <trkpt lat="37.42941" lon="-3.24629">
        <ele>873.880115</ele>
        <time>2022-09-02T06:27:58.310Z</time>
      </trkpt>
      <trkpt lat="37.42907" lon="-3.24649">
        <ele>874.773797</ele>
        <time>2022-09-02T06:28:11.404Z</time>
      </trkpt>
      <trkpt lat="37.42673" lon="-3.24838">
        <ele>881.396383</ele>
        <time>2022-09-02T06:29:46.524Z</time>
      </trkpt>
      <trkpt lat="37.42632" lon="-3.24866">
        <ele>882.50254</ele>
        <time>2022-09-02T06:30:02.083Z</time>
      </trkpt>
      <trkpt lat="37.42583" lon="-3.24889">
        <ele>883.762019</ele>
        <time>2022-09-02T06:30:19.433Z</time>
      </trkpt>
      <trkpt lat="37.42559" lon="-3.24926">
        <ele>884.716837</ele>
        <time>2022-09-02T06:30:32.644Z</time>
      </trkpt>
      <trkpt lat="37.42546" lon="-3.24967">
        <ele>885.575831</ele>
        <time>2022-09-02T06:30:44.560Z</time>
      </trkpt>
      <trkpt lat="37.4253" lon="-3.25063">
        <ele>887.51931</ele>
        <time>2022-09-02T06:31:12.534Z</time>
      </trkpt>
      <trkpt lat="37.42528" lon="-3.25112">
        <ele>888.484514</ele>
        <time>2022-09-02T06:31:26.708Z</time>
      </trkpt>
      <trkpt lat="37.42522" lon="-3.25132">
        <ele>888.902969</ele>
        <time>2022-09-02T06:31:32.772Z</time>
      </trkpt>
      <trkpt lat="37.42509" lon="-3.25148">
        <ele>889.336048</ele>
        <time>2022-09-02T06:31:39.142Z</time>
      </trkpt>
      <trkpt lat="37.42493" lon="-3.25158">
        <ele>889.780021</ele>
        <time>2022-09-02T06:31:45.239Z</time>
      </trkpt>
      <trkpt lat="37.42422" lon="-3.2518">
        <ele>891.591484</ele>
        <time>2022-09-02T06:32:09.856Z</time>
      </trkpt>
      <trkpt lat="37.42409" lon="-3.25186">
        <ele>891.925959</ele>
        <time>2022-09-02T06:32:14.586Z</time>
      </trkpt>
      <trkpt lat="37.42399" lon="-3.252">
        <ele>892.223063</ele>
        <time>2022-09-02T06:32:19.351Z</time>
      </trkpt>
      <trkpt lat="37.42338" lon="-3.25348">
        <ele>894.898944</ele>
        <time>2022-09-02T06:33:01.417Z</time>
      </trkpt>
      <trkpt lat="37.42327" lon="-3.25414">
        <ele>896.149013</ele>
        <time>2022-09-02T06:33:19.287Z</time>
      </trkpt>
      <trkpt lat="37.42303" lon="-3.25486">
        <ele>897.778562</ele>
        <time>2022-09-02T06:33:40.287Z</time>
      </trkpt>
      <trkpt lat="37.42243" lon="-3.25579">
        <ele>900.313691</ele>
        <time>2022-09-02T06:34:15.341Z</time>
      </trkpt>
      <trkpt lat="37.42119" lon="-3.25734">
        <ele>906.126514</ele>
        <time>2022-09-02T06:35:24.039Z</time>
      </trkpt>
      <trkpt lat="37.42069" lon="-3.25813">
        <ele>908.389257</ele>
        <time>2022-09-02T06:35:54.491Z</time>
      </trkpt>
      <trkpt lat="37.42053" lon="-3.25835">
        <ele>909.057446</ele>
        <time>2022-09-02T06:36:03.210Z</time>
      </trkpt>
      <trkpt lat="37.42039" lon="-3.25872">
        <ele>909.959911</ele>
        <time>2022-09-02T06:36:14.604Z</time>
      </trkpt>
      <trkpt lat="37.4204" lon="-3.2592">
        <ele>911.042322</ele>
        <time>2022-09-02T06:36:27.764Z</time>
      </trkpt>
      <trkpt lat="37.42029" lon="-3.26014">
        <ele>912.898022</ele>
        <time>2022-09-02T06:36:52.764Z</time>
      </trkpt>
      <trkpt lat="37.42023" lon="-3.26043">
        <ele>913.480592</ele>
        <time>2022-09-02T06:37:01.040Z</time>
      </trkpt>
      <trkpt lat="37.42007" lon="-3.26131">
        <ele>915.236882</ele>
        <time>2022-09-02T06:37:26.259Z</time>
      </trkpt>
      <trkpt lat="37.42002" lon="-3.26133">
        <ele>915.365598</ele>
        <time>2022-09-02T06:37:28.042Z</time>
      </trkpt>
      <trkpt lat="37.41997" lon="-3.26133">
        <ele>915.485163</ele>
        <time>2022-09-02T06:37:29.662Z</time>
      </trkpt>
      <trkpt lat="37.41995" lon="-3.26133">
        <ele>915.531882</ele>
        <time>2022-09-02T06:37:30.315Z</time>
      </trkpt>
      <trkpt lat="37.4199" lon="-3.26177">
        <ele>916.493625</ele>
        <time>2022-09-02T06:37:42.904Z</time>
      </trkpt>
      <trkpt lat="37.41992" lon="-3.26223">
        <ele>917.498298</ele>
        <time>2022-09-02T06:37:55.999Z</time>
      </trkpt>
      <trkpt lat="37.42005" lon="-3.26288">
        <ele>918.960563</ele>
        <time>2022-09-02T06:38:15.335Z</time>
      </trkpt>
      <trkpt lat="37.42012" lon="-3.26339">
        <ele>920.079225</ele>
        <time>2022-09-02T06:38:30.297Z</time>
      </trkpt>
      <trkpt lat="37.42011" lon="-3.26361">
        <ele>920.568028</ele>
        <time>2022-09-02T06:38:36.680Z</time>
      </trkpt>
      <trkpt lat="37.41999" lon="-3.26412">
        <ele>921.663097</ele>
        <time>2022-09-02T06:38:52.155Z</time>
      </trkpt>
      <trkpt lat="37.41975" lon="-3.26483">
        <ele>923.266222</ele>
        <time>2022-09-02T06:39:13.448Z</time>
      </trkpt>
      <trkpt lat="37.4197" lon="-3.2652">
        <ele>924.030618</ele>
        <time>2022-09-02T06:39:23.489Z</time>
      </trkpt>
      <trkpt lat="37.4197" lon="-3.26578">
        <ele>925.239142</ele>
        <time>2022-09-02T06:39:38.897Z</time>
      </trkpt>
      <trkpt lat="37.41979" lon="-3.26623">
        <ele>926.635864</ele>
        <time>2022-09-02T06:39:52.535Z</time>
      </trkpt>
      <trkpt lat="37.41994" lon="-3.26666">
        <ele>928.07226</ele>
        <time>2022-09-02T06:40:07.841Z</time>
      </trkpt>
      <trkpt lat="37.42009" lon="-3.26765">
        <ele>931.144197</ele>
        <time>2022-09-02T06:40:41.785Z</time>
      </trkpt>
      <trkpt lat="37.42038" lon="-3.26808">
        <ele>932.902892</ele>
        <time>2022-09-02T06:41:02.805Z</time>
      </trkpt>
      <trkpt lat="37.42042" lon="-3.26912">
        <ele>936.258454</ele>
        <time>2022-09-02T06:41:40.961Z</time>
      </trkpt>
      <trkpt lat="37.42056" lon="-3.26973">
        <ele>938.296039</ele>
        <time>2022-09-02T06:42:01.863Z</time>
      </trkpt>
      <trkpt lat="37.42054" lon="-3.27044">
        <ele>939.942131</ele>
        <time>2022-09-02T06:42:22.300Z</time>
      </trkpt>
      <trkpt lat="37.42084" lon="-3.27161">
        <ele>941.668036</ele>
        <time>2022-09-02T06:42:53.920Z</time>
      </trkpt>
      <trkpt lat="37.42118" lon="-3.2725">
        <ele>942.795507</ele>
        <time>2022-09-02T06:43:13.621Z</time>
      </trkpt>
      <trkpt lat="37.42121" lon="-3.27274">
        <ele>942.933822</ele>
        <time>2022-09-02T06:43:18.024Z</time>
      </trkpt>
      <trkpt lat="37.42113" lon="-3.27305">
        <ele>943.125082</ele>
        <time>2022-09-02T06:43:24.769Z</time>
      </trkpt>
      <trkpt lat="37.42078" lon="-3.27364">
        <ele>943.547405</ele>
        <time>2022-09-02T06:43:40.124Z</time>
      </trkpt>
      <trkpt lat="37.42067" lon="-3.2741">
        <ele>943.823112</ele>
        <time>2022-09-02T06:43:49.537Z</time>
      </trkpt>
      <trkpt lat="37.42044" lon="-3.27642">
        <ele>946.417497</ele>
        <time>2022-09-02T06:44:40.466Z</time>
      </trkpt>
      <trkpt lat="37.42015" lon="-3.27766">
        <ele>950.570848</ele>
        <time>2022-09-02T06:45:23.285Z</time>
      </trkpt>
      <trkpt lat="37.41959" lon="-3.2796">
        <ele>958.704869</ele>
        <time>2022-09-02T06:46:43.644Z</time>
      </trkpt>
      <trkpt lat="37.41922" lon="-3.28017">
        <ele>961.972336</ele>
        <time>2022-09-02T06:47:13.440Z</time>
      </trkpt>
      <trkpt lat="37.41886" lon="-3.28142">
        <ele>968.166992</ele>
        <time>2022-09-02T06:48:09.167Z</time>
      </trkpt>
      <trkpt lat="37.41889" lon="-3.28204">
        <ele>971.082637</ele>
        <time>2022-09-02T06:48:35.366Z</time>
      </trkpt>
      <trkpt lat="37.41885" lon="-3.28229">
        <ele>972.322184</ele>
        <time>2022-09-02T06:48:47.042Z</time>
      </trkpt>
      <trkpt lat="37.41847" lon="-3.28368">
        <ele>977.965716</ele>
        <time>2022-09-02T06:49:44.389Z</time>
      </trkpt>
      <trkpt lat="37.41844" lon="-3.28404">
        <ele>979.153244</ele>
        <time>2022-09-02T06:49:56.823Z</time>
      </trkpt>
      <trkpt lat="37.41847" lon="-3.28438">
        <ele>980.251365</ele>
        <time>2022-09-02T06:50:07.221Z</time>
      </trkpt>
      <trkpt lat="37.41859" lon="-3.28484">
        <ele>981.833446</ele>
        <time>2022-09-02T06:50:21.757Z</time>
      </trkpt>
      <trkpt lat="37.4185" lon="-3.28606">
        <ele>984.315284</ele>
        <time>2022-09-02T06:50:55.131Z</time>
      </trkpt>
      <trkpt lat="37.41852" lon="-3.28646">
        <ele>985.02376</ele>
        <time>2022-09-02T06:51:05.193Z</time>
      </trkpt>
      <trkpt lat="37.41844" lon="-3.28722">
        <ele>986.391046</ele>
        <time>2022-09-02T06:51:25.223Z</time>
      </trkpt>
      <trkpt lat="37.41848" lon="-3.28756">
        <ele>986.871336</ele>
        <time>2022-09-02T06:51:34.137Z</time>
      </trkpt>
      <trkpt lat="37.41719" lon="-3.29314">
        <ele>994.128502</ele>
        <time>2022-09-02T06:53:53.527Z</time>
      </trkpt>
      <trkpt lat="37.41722" lon="-3.29418">
        <ele>995.141223</ele>
        <time>2022-09-02T06:54:15.930Z</time>
      </trkpt>
      <trkpt lat="37.41716" lon="-3.2945">
        <ele>995.378658</ele>
        <time>2022-09-02T06:54:23.062Z</time>
      </trkpt>
      <trkpt lat="37.41664" lon="-3.29628">
        <ele>996.796197</ele>
        <time>2022-09-02T06:55:02.933Z</time>
      </trkpt>
      <trkpt lat="37.41629" lon="-3.29683">
        <ele>997.440618</ele>
        <time>2022-09-02T06:55:18.172Z</time>
      </trkpt>
      <trkpt lat="37.41569" lon="-3.29765">
        <ele>998.459351</ele>
        <time>2022-09-02T06:55:43.119Z</time>
      </trkpt>
      <trkpt lat="37.41549" lon="-3.29816">
        <ele>999.274761</ele>
        <time>2022-09-02T06:55:56.481Z</time>
      </trkpt>
      <trkpt lat="37.41292" lon="-3.30633">
        <ele>1013.406034</ele>
        <time>2022-09-02T06:59:43.797Z</time>
      </trkpt>
      <trkpt lat="37.41291" lon="-3.30671">
        <ele>1014.103346</ele>
        <time>2022-09-02T06:59:53.456Z</time>
      </trkpt>
      <trkpt lat="37.41301" lon="-3.30708">
        <ele>1014.799428</ele>
        <time>2022-09-02T07:00:03.239Z</time>
      </trkpt>
      <trkpt lat="37.41303" lon="-3.3073">
        <ele>1015.210162</ele>
        <time>2022-09-02T07:00:09.042Z</time>
      </trkpt>
      <trkpt lat="37.41302" lon="-3.3074">
        <ele>1015.399723</ele>
        <time>2022-09-02T07:00:11.759Z</time>
      </trkpt>
      <trkpt lat="37.41264" lon="-3.30748">
        <ele>1016.26174</ele>
        <time>2022-09-02T07:00:24.815Z</time>
      </trkpt>
      <trkpt lat="37.41243" lon="-3.3077">
        <ele>1016.901837</ele>
        <time>2022-09-02T07:00:35.068Z</time>
      </trkpt>
      <trkpt lat="37.41235" lon="-3.30789">
        <ele>1017.298256</ele>
        <time>2022-09-02T07:00:40.721Z</time>
      </trkpt>
      <trkpt lat="37.41218" lon="-3.30871">
        <ele>1019.586234</ele>
        <time>2022-09-02T07:01:05.586Z</time>
      </trkpt>
      <trkpt lat="37.41207" lon="-3.30938">
        <ele>1021.413731</ele>
        <time>2022-09-02T07:01:26.565Z</time>
      </trkpt>
      <trkpt lat="37.41194" lon="-3.30983">
        <ele>1022.704247</ele>
        <time>2022-09-02T07:01:42.289Z</time>
      </trkpt>
      <trkpt lat="37.41164" lon="-3.3106">
        <ele>1025.527132</ele>
        <time>2022-09-02T07:02:12.405Z</time>
      </trkpt>
      <trkpt lat="37.41072" lon="-3.3127">
        <ele>1033.910804</ele>
        <time>2022-09-02T07:03:37.757Z</time>
      </trkpt>
      <trkpt lat="37.41003" lon="-3.31479">
        <ele>1041.703337</ele>
        <time>2022-09-02T07:04:56.152Z</time>
      </trkpt>
      <trkpt lat="37.40986" lon="-3.31545">
        <ele>1044.095871</ele>
        <time>2022-09-02T07:05:20.285Z</time>
      </trkpt>
      <trkpt lat="37.40958" lon="-3.3169">
        <ele>1049.016716</ele>
        <time>2022-09-02T07:06:12.216Z</time>
      </trkpt>
      <trkpt lat="37.40939" lon="-3.31836">
        <ele>1053.711471</ele>
        <time>2022-09-02T07:07:02.063Z</time>
      </trkpt>
      <trkpt lat="37.40932" lon="-3.32053">
        <ele>1059.365625</ele>
        <time>2022-09-02T07:08:08.973Z</time>
      </trkpt>
      <trkpt lat="37.40939" lon="-3.32199">
        <ele>1062.002169</ele>
        <time>2022-09-02T07:08:49.088Z</time>
      </trkpt>
      <trkpt lat="37.40946" lon="-3.32274">
        <ele>1063.277794</ele>
        <time>2022-09-02T07:09:08.239Z</time>
      </trkpt>
      <trkpt lat="37.40981" lon="-3.32477">
        <ele>1064.769193</ele>
        <time>2022-09-02T07:09:53.063Z</time>
      </trkpt>
      <trkpt lat="37.41051" lon="-3.32748">
        <ele>1064.318913</ele>
        <time>2022-09-02T07:10:40.940Z</time>
      </trkpt>
      <trkpt lat="37.4106" lon="-3.32831">
        <ele>1064.128765</ele>
        <time>2022-09-02T07:10:54.884Z</time>
      </trkpt>
      <trkpt lat="37.41074" lon="-3.33147">
        <ele>1063.77723</ele>
        <time>2022-09-02T07:11:49.609Z</time>
      </trkpt>
      <trkpt lat="37.4111" lon="-3.3341">
        <ele>1064.378564</ele>
        <time>2022-09-02T07:12:40.542Z</time>
      </trkpt>
      <trkpt lat="37.41109" lon="-3.33493">
        <ele>1064.532299</ele>
        <time>2022-09-02T07:12:56.262Z</time>
      </trkpt>
      <trkpt lat="37.41077" lon="-3.33708">
        <ele>1064.876453</ele>
        <time>2022-09-02T07:13:36.496Z</time>
      </trkpt>
      <trkpt lat="37.41072" lon="-3.33791">
        <ele>1064.966508</ele>
        <time>2022-09-02T07:13:51.818Z</time>
      </trkpt>
      <trkpt lat="37.41078" lon="-3.33881">
        <ele>1065.019406</ele>
        <time>2022-09-02T07:14:08.343Z</time>
      </trkpt>
      <trkpt lat="37.41126" lon="-3.34074">
        <ele>1064.897302</ele>
        <time>2022-09-02T07:14:43.514Z</time>
      </trkpt>
      <trkpt lat="37.41148" lon="-3.34158">
        <ele>1064.8703</ele>
        <time>2022-09-02T07:14:58.512Z</time>
      </trkpt>
      <trkpt lat="37.41157" lon="-3.34234">
        <ele>1064.846633</ele>
        <time>2022-09-02T07:15:11.828Z</time>
      </trkpt>
      <trkpt lat="37.41158" lon="-3.34276">
        <ele>1064.833432</ele>
        <time>2022-09-02T07:15:19.354Z</time>
      </trkpt>
      <trkpt lat="37.41147" lon="-3.34431">
        <ele>1065.938563</ele>
        <time>2022-09-02T07:15:49.494Z</time>
      </trkpt>
      <trkpt lat="37.41145" lon="-3.34602">
        <ele>1068.722396</ele>
        <time>2022-09-02T07:16:32.961Z</time>
      </trkpt>
      <trkpt lat="37.41158" lon="-3.35022">
        <ele>1079.421834</ele>
        <time>2022-09-02T07:18:52.524Z</time>
      </trkpt>
      <trkpt lat="37.41192" lon="-3.35543">
        <ele>1082.402801</ele>
        <time>2022-09-02T07:20:31.996Z</time>
      </trkpt>
      <trkpt lat="37.41205" lon="-3.35987">
        <ele>1084.757011</ele>
        <time>2022-09-02T07:22:00.328Z</time>
      </trkpt>
      <trkpt lat="37.41201" lon="-3.36082">
        <ele>1085.566805</ele>
        <time>2022-09-02T07:22:23.563Z</time>
      </trkpt>
      <trkpt lat="37.41189" lon="-3.36156">
        <ele>1085.965271</ele>
        <time>2022-09-02T07:22:41.297Z</time>
      </trkpt>
      <trkpt lat="37.41165" lon="-3.36246">
        <ele>1086.352137</ele>
        <time>2022-09-02T07:22:59.399Z</time>
      </trkpt>
      <trkpt lat="37.41159" lon="-3.36275">
        <ele>1086.476764</ele>
        <time>2022-09-02T07:23:04.914Z</time>
      </trkpt>
      <trkpt lat="37.41164" lon="-3.36298">
        <ele>1086.571607</ele>
        <time>2022-09-02T07:23:09.320Z</time>
      </trkpt>
      <trkpt lat="37.41187" lon="-3.36316">
        <ele>1086.584634</ele>
        <time>2022-09-02T07:23:15.218Z</time>
      </trkpt>
      <trkpt lat="37.4121" lon="-3.36342">
        <ele>1086.338156</ele>
        <time>2022-09-02T07:23:21.759Z</time>
      </trkpt>
      <trkpt lat="37.41219" lon="-3.36373">
        <ele>1086.13339</ele>
        <time>2022-09-02T07:23:27.063Z</time>
      </trkpt>
      <trkpt lat="37.41226" lon="-3.36518">
        <ele>1085.232999</ele>
        <time>2022-09-02T07:23:49.626Z</time>
      </trkpt>
      <trkpt lat="37.41222" lon="-3.36579">
        <ele>1085.006994</ele>
        <time>2022-09-02T07:24:00.129Z</time>
      </trkpt>
      <trkpt lat="37.41197" lon="-3.36698">
        <ele>1084.549273</ele>
        <time>2022-09-02T07:24:21.257Z</time>
      </trkpt>
      <trkpt lat="37.41085" lon="-3.3706">
        <ele>1081.601469</ele>
        <time>2022-09-02T07:25:23.871Z</time>
      </trkpt>
      <trkpt lat="37.41052" lon="-3.3716">
        <ele>1080.240537</ele>
        <time>2022-09-02T07:25:39.517Z</time>
      </trkpt>
      <trkpt lat="37.41027" lon="-3.37217">
        <ele>1078.556185</ele>
        <time>2022-09-02T07:25:48.667Z</time>
      </trkpt>
      <trkpt lat="37.41012" lon="-3.3725">
        <ele>1077.599225</ele>
        <time>2022-09-02T07:25:53.734Z</time>
      </trkpt>
      <trkpt lat="37.41001" lon="-3.37275">
        <ele>1076.854769</ele>
        <time>2022-09-02T07:25:57.632Z</time>
      </trkpt>
      <trkpt lat="37.40982" lon="-3.37333">
        <ele>1075.226675</ele>
        <time>2022-09-02T07:26:06.053Z</time>
      </trkpt>
      <trkpt lat="37.40973" lon="-3.37385">
        <ele>1073.595164</ele>
        <time>2022-09-02T07:26:13.047Z</time>
      </trkpt>
      <trkpt lat="37.40971" lon="-3.37392">
        <ele>1073.356251</ele>
        <time>2022-09-02T07:26:13.925Z</time>
      </trkpt>
      <trkpt lat="37.40954" lon="-3.37468">
        <ele>1070.584793</ele>
        <time>2022-09-02T07:26:24.081Z</time>
      </trkpt>
      <trkpt lat="37.4094" lon="-3.37537">
        <ele>1068.100987</ele>
        <time>2022-09-02T07:26:33.165Z</time>
      </trkpt>
      <trkpt lat="37.40936" lon="-3.37552">
        <ele>1067.55701</ele>
        <time>2022-09-02T07:26:35.147Z</time>
      </trkpt>
      <trkpt lat="37.40925" lon="-3.37594">
        <ele>1066.1023</ele>
        <time>2022-09-02T07:26:40.843Z</time>
      </trkpt>
      <trkpt lat="37.40922" lon="-3.37606">
        <ele>1065.745556</ele>
        <time>2022-09-02T07:26:42.410Z</time>
      </trkpt>
      <trkpt lat="37.40874" lon="-3.37754">
        <ele>1061.103022</ele>
        <time>2022-09-02T07:27:03.466Z</time>
      </trkpt>
      <trkpt lat="37.40814" lon="-3.37931">
        <ele>1057.665809</ele>
        <time>2022-09-02T07:27:31.119Z</time>
      </trkpt>
      <trkpt lat="37.40776" lon="-3.38017">
        <ele>1056.306344</ele>
        <time>2022-09-02T07:27:46.405Z</time>
      </trkpt>
      <trkpt lat="37.40774" lon="-3.38036">
        <ele>1056.111471</ele>
        <time>2022-09-02T07:27:51.586Z</time>
      </trkpt>
      <trkpt lat="37.40743" lon="-3.38081">
        <ele>1055.49836</ele>
        <time>2022-09-02T07:28:08.109Z</time>
      </trkpt>
      <trkpt lat="37.40703" lon="-3.38102">
        <ele>1054.953022</ele>
        <time>2022-09-02T07:28:22.721Z</time>
      </trkpt>
      <trkpt lat="37.4069" lon="-3.3812">
        <ele>1054.700445</ele>
        <time>2022-09-02T07:28:29.428Z</time>
      </trkpt>
      <trkpt lat="37.40671" lon="-3.38158">
        <ele>1054.224696</ele>
        <time>2022-09-02T07:28:41.261Z</time>
      </trkpt>
      <trkpt lat="37.40658" lon="-3.38202">
        <ele>1053.476275</ele>
        <time>2022-09-02T07:28:53.678Z</time>
      </trkpt>
      <trkpt lat="37.40653" lon="-3.38238">
        <ele>1052.887359</ele>
        <time>2022-09-02T07:29:03.269Z</time>
      </trkpt>
      <trkpt lat="37.40654" lon="-3.3827">
        <ele>1052.372669</ele>
        <time>2022-09-02T07:29:11.611Z</time>
      </trkpt>
      <trkpt lat="37.40679" lon="-3.38351">
        <ele>1050.998152</ele>
        <time>2022-09-02T07:29:33.405Z</time>
      </trkpt>
      <trkpt lat="37.40665" lon="-3.3845">
        <ele>1049.248274</ele>
        <time>2022-09-02T07:29:59.002Z</time>
      </trkpt>
      <trkpt lat="37.40645" lon="-3.38507">
        <ele>1048.153735</ele>
        <time>2022-09-02T07:30:14.892Z</time>
      </trkpt>
      <trkpt lat="37.4064" lon="-3.38532">
        <ele>1047.687112</ele>
        <time>2022-09-02T07:30:21.698Z</time>
      </trkpt>
      <trkpt lat="37.40631" lon="-3.3863">
        <ele>1045.810373</ele>
        <time>2022-09-02T07:30:46.961Z</time>
      </trkpt>
      <trkpt lat="37.40618" lon="-3.38666">
        <ele>1044.982205</ele>
        <time>2022-09-02T07:30:56.927Z</time>
      </trkpt>
      <trkpt lat="37.40604" lon="-3.38723">
        <ele>1043.740073</ele>
        <time>2022-09-02T07:31:11.907Z</time>
      </trkpt>
      <trkpt lat="37.40598" lon="-3.38743">
        <ele>1043.297807</ele>
        <time>2022-09-02T07:31:17.134Z</time>
      </trkpt>
      <trkpt lat="37.40596" lon="-3.38777">
        <ele>1042.572675</ele>
        <time>2022-09-02T07:31:25.795Z</time>
      </trkpt>
      <trkpt lat="37.40587" lon="-3.38794">
        <ele>1042.155231</ele>
        <time>2022-09-02T07:31:30.675Z</time>
      </trkpt>
      <trkpt lat="37.40586" lon="-3.38822">
        <ele>1041.442624</ele>
        <time>2022-09-02T07:31:34.558Z</time>
      </trkpt>
      <trkpt lat="37.40572" lon="-3.39059">
        <ele>1035.145546</ele>
        <time>2022-09-02T07:32:06.144Z</time>
      </trkpt>
      <trkpt lat="37.40557" lon="-3.39135">
        <ele>1033.546319</ele>
        <time>2022-09-02T07:32:16.979Z</time>
      </trkpt>
      <trkpt lat="37.40542" lon="-3.39189">
        <ele>1032.375148</ele>
        <time>2022-09-02T07:32:25.159Z</time>
      </trkpt>
      <trkpt lat="37.40503" lon="-3.39284">
        <ele>1030.458061</ele>
        <time>2022-09-02T07:32:40.838Z</time>
      </trkpt>
      <trkpt lat="37.40438" lon="-3.39388">
        <ele>1028.574819</ele>
        <time>2022-09-02T07:33:00.455Z</time>
      </trkpt>
      <trkpt lat="37.4034" lon="-3.39525">
        <ele>1026.219999</ele>
        <time>2022-09-02T07:33:27.914Z</time>
      </trkpt>
      <trkpt lat="37.40314" lon="-3.3958">
        <ele>1025.433403</ele>
        <time>2022-09-02T07:33:37.718Z</time>
      </trkpt>
      <trkpt lat="37.40296" lon="-3.39637">
        <ele>1024.765096</ele>
        <time>2022-09-02T07:33:47.259Z</time>
      </trkpt>
      <trkpt lat="37.40281" lon="-3.39734">
        <ele>1023.801097</ele>
        <time>2022-09-02T07:34:02.700Z</time>
      </trkpt>
      <trkpt lat="37.40282" lon="-3.39801">
        <ele>1023.141615</ele>
        <time>2022-09-02T07:34:13.050Z</time>
      </trkpt>
      <trkpt lat="37.40301" lon="-3.39994">
        <ele>1021.0744</ele>
        <time>2022-09-02T07:34:42.450Z</time>
      </trkpt>
      <trkpt lat="37.40298" lon="-3.40058">
        <ele>1020.389942</ele>
        <time>2022-09-02T07:34:52.381Z</time>
      </trkpt>
      <trkpt lat="37.40288" lon="-3.40122">
        <ele>1019.774203</ele>
        <time>2022-09-02T07:35:02.616Z</time>
      </trkpt>
      <trkpt lat="37.4028" lon="-3.40154">
        <ele>1019.459733</ele>
        <time>2022-09-02T07:35:07.859Z</time>
      </trkpt>
      <trkpt lat="37.40251" lon="-3.40231">
        <ele>1018.650947</ele>
        <time>2022-09-02T07:35:21.389Z</time>
      </trkpt>
      <trkpt lat="37.40099" lon="-3.40541">
        <ele>1014.504638</ele>
        <time>2022-09-02T07:36:16.394Z</time>
      </trkpt>
      <trkpt lat="37.40068" lon="-3.40615">
        <ele>1013.577303</ele>
        <time>2022-09-02T07:36:29.111Z</time>
      </trkpt>
      <trkpt lat="37.40036" lon="-3.40721">
        <ele>1012.474808</ele>
        <time>2022-09-02T07:36:46.825Z</time>
      </trkpt>
      <trkpt lat="37.40016" lon="-3.40807">
        <ele>1011.685174</ele>
        <time>2022-09-02T07:37:00.831Z</time>
      </trkpt>
      <trkpt lat="37.40001" lon="-3.40899">
        <ele>1010.801433</ele>
        <time>2022-09-02T07:37:15.545Z</time>
      </trkpt>
      <trkpt lat="37.39931" lon="-3.41438">
        <ele>1005.004668</ele>
        <time>2022-09-02T07:38:39.190Z</time>
      </trkpt>
      <trkpt lat="37.39916" lon="-3.41501">
        <ele>1004.296874</ele>
        <time>2022-09-02T07:38:49.405Z</time>
      </trkpt>
      <trkpt lat="37.39884" lon="-3.41592">
        <ele>1003.054157</ele>
        <time>2022-09-02T07:39:04.422Z</time>
      </trkpt>
      <trkpt lat="37.39786" lon="-3.41821">
        <ele>999.744527</ele>
        <time>2022-09-02T07:39:42.851Z</time>
      </trkpt>
      <trkpt lat="37.39744" lon="-3.4194">
        <ele>998.31727</ele>
        <time>2022-09-02T07:40:03.108Z</time>
      </trkpt>
      <trkpt lat="37.39719" lon="-3.4207">
        <ele>996.895219</ele>
        <time>2022-09-02T07:40:24.838Z</time>
      </trkpt>
      <trkpt lat="37.39711" lon="-3.42172">
        <ele>995.689701</ele>
        <time>2022-09-02T07:40:39.945Z</time>
      </trkpt>
      <trkpt lat="37.39713" lon="-3.4222">
        <ele>994.497447</ele>
        <time>2022-09-02T07:40:46.649Z</time>
      </trkpt>
      <trkpt lat="37.39714" lon="-3.42246">
        <ele>993.860801</ele>
        <time>2022-09-02T07:40:50.170Z</time>
      </trkpt>
      <trkpt lat="37.39719" lon="-3.42285">
        <ele>992.910708</ele>
        <time>2022-09-02T07:40:55.384Z</time>
      </trkpt>
      <trkpt lat="37.39733" lon="-3.42409">
        <ele>989.94176</ele>
        <time>2022-09-02T07:41:12.129Z</time>
      </trkpt>
      <trkpt lat="37.39747" lon="-3.42521">
        <ele>987.787023</ele>
        <time>2022-09-02T07:41:28.047Z</time>
      </trkpt>
      <trkpt lat="37.39753" lon="-3.42608">
        <ele>986.129218</ele>
        <time>2022-09-02T07:41:41.091Z</time>
      </trkpt>
      <trkpt lat="37.39753" lon="-3.42624">
        <ele>985.930586</ele>
        <time>2022-09-02T07:41:43.428Z</time>
      </trkpt>
      <trkpt lat="37.39746" lon="-3.42693">
        <ele>985.220683</ele>
        <time>2022-09-02T07:41:54.073Z</time>
      </trkpt>
      <trkpt lat="37.39731" lon="-3.4275">
        <ele>984.598904</ele>
        <time>2022-09-02T07:42:03.667Z</time>
      </trkpt>
      <trkpt lat="37.39715" lon="-3.428">
        <ele>984.047846</ele>
        <time>2022-09-02T07:42:12.022Z</time>
      </trkpt>
      <trkpt lat="37.39651" lon="-3.43005">
        <ele>981.413115</ele>
        <time>2022-09-02T07:42:45.075Z</time>
      </trkpt>
      <trkpt lat="37.39638" lon="-3.43077">
        <ele>980.466578</ele>
        <time>2022-09-02T07:42:56.527Z</time>
      </trkpt>
      <trkpt lat="37.39633" lon="-3.43143">
        <ele>979.582198</ele>
        <time>2022-09-02T07:43:06.458Z</time>
      </trkpt>
      <trkpt lat="37.39637" lon="-3.43259">
        <ele>978.008485</ele>
        <time>2022-09-02T07:43:23.695Z</time>
      </trkpt>
      <trkpt lat="37.39683" lon="-3.43712">
        <ele>970.42217</ele>
        <time>2022-09-02T07:44:29.354Z</time>
      </trkpt>
      <trkpt lat="37.39683" lon="-3.43842">
        <ele>968.874145</ele>
        <time>2022-09-02T07:44:48.790Z</time>
      </trkpt>
      <trkpt lat="37.3967" lon="-3.43974">
        <ele>967.335575</ele>
        <time>2022-09-02T07:45:09.726Z</time>
      </trkpt>
      <trkpt lat="37.39657" lon="-3.44039">
        <ele>966.59202</ele>
        <time>2022-09-02T07:45:20.190Z</time>
      </trkpt>
      <trkpt lat="37.39629" lon="-3.44133">
        <ele>965.47726</ele>
        <time>2022-09-02T07:45:35.639Z</time>
      </trkpt>
      <trkpt lat="37.39367" lon="-3.44856">
        <ele>951.283278</ele>
        <time>2022-09-02T07:47:29.346Z</time>
      </trkpt>
      <trkpt lat="37.39345" lon="-3.44923">
        <ele>949.888695</ele>
        <time>2022-09-02T07:47:39.328Z</time>
      </trkpt>
      <trkpt lat="37.39333" lon="-3.44984">
        <ele>948.676255</ele>
        <time>2022-09-02T07:47:48.144Z</time>
      </trkpt>
      <trkpt lat="37.39322" lon="-3.45143">
        <ele>946.336273</ele>
        <time>2022-09-02T07:48:11.644Z</time>
      </trkpt>
      <trkpt lat="37.39308" lon="-3.4524">
        <ele>944.914886</ele>
        <time>2022-09-02T07:48:26.703Z</time>
      </trkpt>
      <trkpt lat="37.39241" lon="-3.4552">
        <ele>940.041444</ele>
        <time>2022-09-02T07:49:09.583Z</time>
      </trkpt>
      <trkpt lat="37.39227" lon="-3.45598">
        <ele>938.3337</ele>
        <time>2022-09-02T07:49:20.553Z</time>
      </trkpt>
      <trkpt lat="37.39219" lon="-3.45668">
        <ele>936.82932</ele>
        <time>2022-09-02T07:49:30.144Z</time>
      </trkpt>
      <trkpt lat="37.39218" lon="-3.4574">
        <ele>935.280818</ele>
        <time>2022-09-02T07:49:39.752Z</time>
      </trkpt>
      <trkpt lat="37.39222" lon="-3.45812">
        <ele>933.714982</ele>
        <time>2022-09-02T07:49:49.632Z</time>
      </trkpt>
      <trkpt lat="37.39257" lon="-3.46002">
        <ele>931.729132</ele>
        <time>2022-09-02T07:50:19.129Z</time>
      </trkpt>
      <trkpt lat="37.39264" lon="-3.46036">
        <ele>931.554236</ele>
        <time>2022-09-02T07:50:25.703Z</time>
      </trkpt>
      <trkpt lat="37.39273" lon="-3.4609">
        <ele>931.285263</ele>
        <time>2022-09-02T07:50:36.733Z</time>
      </trkpt>
      <trkpt lat="37.39316" lon="-3.46295">
        <ele>932.431303</ele>
        <time>2022-09-02T07:51:23.678Z</time>
      </trkpt>
      <trkpt lat="37.39336" lon="-3.46423">
        <ele>931.13182</ele>
        <time>2022-09-02T07:51:44.348Z</time>
      </trkpt>
      <trkpt lat="37.39333" lon="-3.4643">
        <ele>931.035127</ele>
        <time>2022-09-02T07:51:45.473Z</time>
      </trkpt>
      <trkpt lat="37.39299" lon="-3.4644">
        <ele>930.490971</ele>
        <time>2022-09-02T07:51:51.734Z</time>
      </trkpt>
      <trkpt lat="37.39294" lon="-3.46439">
        <ele>930.403628</ele>
        <time>2022-09-02T07:51:52.690Z</time>
      </trkpt>
      <trkpt lat="37.39164" lon="-3.4648">
        <ele>928.19181</ele>
        <time>2022-09-02T07:52:16.279Z</time>
      </trkpt>
      <trkpt lat="37.39149" lon="-3.46502">
        <ele>927.812058</ele>
        <time>2022-09-02T07:52:20.530Z</time>
      </trkpt>
      <trkpt lat="37.39146" lon="-3.46514">
        <ele>927.635711</ele>
        <time>2022-09-02T07:52:22.494Z</time>
      </trkpt>
      <trkpt lat="37.39148" lon="-3.46543">
        <ele>927.243027</ele>
        <time>2022-09-02T07:52:27.216Z</time>
      </trkpt>
      <trkpt lat="37.39168" lon="-3.46631">
        <ele>926.915117</ele>
        <time>2022-09-02T07:52:43.195Z</time>
      </trkpt>
      <trkpt lat="37.39204" lon="-3.46829">
        <ele>927.682028</ele>
        <time>2022-09-02T07:53:27.639Z</time>
      </trkpt>
      <trkpt lat="37.39243" lon="-3.47243">
        <ele>925.876968</ele>
        <time>2022-09-02T07:54:35.667Z</time>
      </trkpt>
      <trkpt lat="37.39247" lon="-3.47396">
        <ele>924.206578</ele>
        <time>2022-09-02T07:54:59.445Z</time>
      </trkpt>
      <trkpt lat="37.39241" lon="-3.47636">
        <ele>920.76908</ele>
        <time>2022-09-02T07:55:34.481Z</time>
      </trkpt>
      <trkpt lat="37.39195" lon="-3.47918">
        <ele>916.484676</ele>
        <time>2022-09-02T07:56:16.302Z</time>
      </trkpt>
      <trkpt lat="37.39154" lon="-3.48083">
        <ele>915.340985</ele>
        <time>2022-09-02T07:56:45.182Z</time>
      </trkpt>
      <trkpt lat="37.39144" lon="-3.48153">
        <ele>914.740406</ele>
        <time>2022-09-02T07:56:56.774Z</time>
      </trkpt>
      <trkpt lat="37.39132" lon="-3.48233">
        <ele>912.949171</ele>
        <time>2022-09-02T07:57:09.172Z</time>
      </trkpt>
      <trkpt lat="37.39087" lon="-3.48395">
        <ele>907.802349</ele>
        <time>2022-09-02T07:57:32.032Z</time>
      </trkpt>
      <trkpt lat="37.39088" lon="-3.48415">
        <ele>906.583754</ele>
        <time>2022-09-02T07:57:34.432Z</time>
      </trkpt>
      <trkpt lat="37.39111" lon="-3.48477">
        <ele>902.457842</ele>
        <time>2022-09-02T07:57:42.348Z</time>
      </trkpt>
      <trkpt lat="37.39117" lon="-3.4851">
        <ele>900.385864</ele>
        <time>2022-09-02T07:57:46.277Z</time>
      </trkpt>
      <trkpt lat="37.39114" lon="-3.48576">
        <ele>896.41161</ele>
        <time>2022-09-02T07:57:53.744Z</time>
      </trkpt>
      <trkpt lat="37.39092" lon="-3.4867">
        <ele>890.036238</ele>
        <time>2022-09-02T07:58:04.894Z</time>
      </trkpt>
      <trkpt lat="37.39096" lon="-3.48691">
        <ele>888.580869</ele>
        <time>2022-09-02T07:58:07.422Z</time>
      </trkpt>
      <trkpt lat="37.39106" lon="-3.48707">
        <ele>887.240562</ele>
        <time>2022-09-02T07:58:09.741Z</time>
      </trkpt>
      <trkpt lat="37.39188" lon="-3.48756">
        <ele>880.608289</ele>
        <time>2022-09-02T07:58:23.305Z</time>
      </trkpt>
      <trkpt lat="37.39211" lon="-3.48795">
        <ele>878.914546</ele>
        <time>2022-09-02T07:58:29.410Z</time>
      </trkpt>
      <trkpt lat="37.39218" lon="-3.48825">
        <ele>877.813853</ele>
        <time>2022-09-02T07:58:33.560Z</time>
      </trkpt>
      <trkpt lat="37.39214" lon="-3.48913">
        <ele>874.74917</ele>
        <time>2022-09-02T07:58:45.246Z</time>
      </trkpt>
      <trkpt lat="37.39209" lon="-3.48934">
        <ele>873.963157</ele>
        <time>2022-09-02T07:58:48.213Z</time>
      </trkpt>
      <trkpt lat="37.39187" lon="-3.48955">
        <ele>873.349435</ele>
        <time>2022-09-02T07:58:52.803Z</time>
      </trkpt>
      <trkpt lat="37.3917" lon="-3.48955">
        <ele>873.119225</ele>
        <time>2022-09-02T07:58:55.925Z</time>
      </trkpt>
      <trkpt lat="37.39127" lon="-3.48922">
        <ele>872.458414</ele>
        <time>2022-09-02T07:59:05.292Z</time>
      </trkpt>
      <trkpt lat="37.39107" lon="-3.48916">
        <ele>872.191455</ele>
        <time>2022-09-02T07:59:09.218Z</time>
      </trkpt>
      <trkpt lat="37.39092" lon="-3.48922">
        <ele>871.979078</ele>
        <time>2022-09-02T07:59:12.430Z</time>
      </trkpt>
      <trkpt lat="37.39073" lon="-3.48946">
        <ele>871.632917</ele>
        <time>2022-09-02T07:59:17.831Z</time>
      </trkpt>
      <trkpt lat="37.39063" lon="-3.48969">
        <ele>871.361985</ele>
        <time>2022-09-02T07:59:22.310Z</time>
      </trkpt>
      <trkpt lat="37.39036" lon="-3.49118">
        <ele>873.281999</ele>
        <time>2022-09-02T07:59:57.111Z</time>
      </trkpt>
      <trkpt lat="37.39046" lon="-3.49215">
        <ele>874.869942</ele>
        <time>2022-09-02T08:00:26.693Z</time>
      </trkpt>
      <trkpt lat="37.39028" lon="-3.49319">
        <ele>877.840113</ele>
        <time>2022-09-02T08:00:59.473Z</time>
      </trkpt>
      <trkpt lat="37.39075" lon="-3.49455">
        <ele>881.829945</ele>
        <time>2022-09-02T08:01:48.106Z</time>
      </trkpt>
      <trkpt lat="37.39126" lon="-3.49554">
        <ele>884.689231</ele>
        <time>2022-09-02T08:02:25.856Z</time>
      </trkpt>
      <trkpt lat="37.39144" lon="-3.49623">
        <ele>886.363434</ele>
        <time>2022-09-02T08:02:47.121Z</time>
      </trkpt>
      <trkpt lat="37.39212" lon="-3.50007">
        <ele>886.418695</ele>
        <time>2022-09-02T08:03:56.154Z</time>
      </trkpt>
      <trkpt lat="37.39232" lon="-3.50304">
        <ele>883.604366</ele>
        <time>2022-09-02T08:04:41.769Z</time>
      </trkpt>
      <trkpt lat="37.39261" lon="-3.50726">
        <ele>877.841773</ele>
        <time>2022-09-02T08:05:44.718Z</time>
      </trkpt>
      <trkpt lat="37.39301" lon="-3.51033">
        <ele>872.58778</ele>
        <time>2022-09-02T08:06:29.241Z</time>
      </trkpt>
      <trkpt lat="37.39309" lon="-3.51104">
        <ele>871.549324</ele>
        <time>2022-09-02T08:06:39.922Z</time>
      </trkpt>
      <trkpt lat="37.39309" lon="-3.51234">
        <ele>869.588941</ele>
        <time>2022-09-02T08:06:59.570Z</time>
      </trkpt>
      <trkpt lat="37.39357" lon="-3.51476">
        <ele>865.152956</ele>
        <time>2022-09-02T08:07:35.568Z</time>
      </trkpt>
      <trkpt lat="37.39359" lon="-3.51506">
        <ele>864.45422</ele>
        <time>2022-09-02T08:07:39.820Z</time>
      </trkpt>
      <trkpt lat="37.39358" lon="-3.51563">
        <ele>863.163344</ele>
        <time>2022-09-02T08:07:47.514Z</time>
      </trkpt>
      <trkpt lat="37.39352" lon="-3.51585">
        <ele>862.616781</ele>
        <time>2022-09-02T08:07:50.769Z</time>
      </trkpt>
      <trkpt lat="37.3934" lon="-3.51608">
        <ele>861.99254</ele>
        <time>2022-09-02T08:07:54.412Z</time>
      </trkpt>
      <trkpt lat="37.3933" lon="-3.51626">
        <ele>861.454466</ele>
        <time>2022-09-02T08:07:57.458Z</time>
      </trkpt>
      <trkpt lat="37.39319" lon="-3.51665">
        <ele>860.34865</ele>
        <time>2022-09-02T08:08:02.823Z</time>
      </trkpt>
      <trkpt lat="37.39318" lon="-3.51783">
        <ele>857.11524</ele>
        <time>2022-09-02T08:08:18.751Z</time>
      </trkpt>
      <trkpt lat="37.39318" lon="-3.51838">
        <ele>855.628103</ele>
        <time>2022-09-02T08:08:26.029Z</time>
      </trkpt>
      <trkpt lat="37.39321" lon="-3.51884">
        <ele>854.379347</ele>
        <time>2022-09-02T08:08:32.297Z</time>
      </trkpt>
      <trkpt lat="37.39323" lon="-3.51921">
        <ele>853.401378</ele>
        <time>2022-09-02T08:08:37.315Z</time>
      </trkpt>
      <trkpt lat="37.39328" lon="-3.52002">
        <ele>851.235135</ele>
        <time>2022-09-02T08:08:48.489Z</time>
      </trkpt>
      <trkpt lat="37.39324" lon="-3.52066">
        <ele>849.507051</ele>
        <time>2022-09-02T08:08:57.175Z</time>
      </trkpt>
      <trkpt lat="37.39292" lon="-3.52154">
        <ele>846.130614</ele>
        <time>2022-09-02T08:09:09.698Z</time>
      </trkpt>
      <trkpt lat="37.39276" lon="-3.52218">
        <ele>843.751575</ele>
        <time>2022-09-02T08:09:18.262Z</time>
      </trkpt>
      <trkpt lat="37.39277" lon="-3.5225">
        <ele>842.618374</ele>
        <time>2022-09-02T08:09:22.315Z</time>
      </trkpt>
      <trkpt lat="37.39277" lon="-3.52267">
        <ele>842.019711</ele>
        <time>2022-09-02T08:09:24.494Z</time>
      </trkpt>
      <trkpt lat="37.3928" lon="-3.52382">
        <ele>838.250501</ele>
        <time>2022-09-02T08:09:39.058Z</time>
      </trkpt>
      <trkpt lat="37.39257" lon="-3.52503">
        <ele>834.255772</ele>
        <time>2022-09-02T08:09:55.509Z</time>
      </trkpt>
      <trkpt lat="37.39251" lon="-3.52542">
        <ele>833.218994</ele>
        <time>2022-09-02T08:10:01.075Z</time>
      </trkpt>
      <trkpt lat="37.39245" lon="-3.5257">
        <ele>832.498403</ele>
        <time>2022-09-02T08:10:05.139Z</time>
      </trkpt>
      <trkpt lat="37.39243" lon="-3.52632">
        <ele>830.978706</ele>
        <time>2022-09-02T08:10:13.807Z</time>
      </trkpt>
      <trkpt lat="37.39247" lon="-3.52666">
        <ele>830.1136</ele>
        <time>2022-09-02T08:10:18.721Z</time>
      </trkpt>
      <trkpt lat="37.39235" lon="-3.52688">
        <ele>829.453818</ele>
        <time>2022-09-02T08:10:22.769Z</time>
      </trkpt>
      <trkpt lat="37.39238" lon="-3.5274">
        <ele>827.765115</ele>
        <time>2022-09-02T08:10:30.086Z</time>
      </trkpt>
      <trkpt lat="37.39234" lon="-3.5278">
        <ele>825.514115</ele>
        <time>2022-09-02T08:10:35.292Z</time>
      </trkpt>
      <trkpt lat="37.3922" lon="-3.5287">
        <ele>820.360923</ele>
        <time>2022-09-02T08:10:47.068Z</time>
      </trkpt>
      <trkpt lat="37.39247" lon="-3.52927">
        <ele>816.661997</ele>
        <time>2022-09-02T08:10:54.866Z</time>
      </trkpt>
      <trkpt lat="37.3925" lon="-3.52947">
        <ele>815.384154</ele>
        <time>2022-09-02T08:10:57.254Z</time>
      </trkpt>
      <trkpt lat="37.39251" lon="-3.52964">
        <ele>813.906697</ele>
        <time>2022-09-02T08:10:59.244Z</time>
      </trkpt>
      <trkpt lat="37.39231" lon="-3.52969">
        <ele>811.740073</ele>
        <time>2022-09-02T08:11:02.085Z</time>
      </trkpt>
      <trkpt lat="37.39213" lon="-3.52972">
        <ele>809.789638</ele>
        <time>2022-09-02T08:11:04.624Z</time>
      </trkpt>
      <trkpt lat="37.39195" lon="-3.5297">
        <ele>807.782298</ele>
        <time>2022-09-02T08:11:07.228Z</time>
      </trkpt>
      <trkpt lat="37.39191" lon="-3.5297">
        <ele>807.345738</ele>
        <time>2022-09-02T08:11:07.787Z</time>
      </trkpt>
      <trkpt lat="37.39146" lon="-3.52955">
        <ele>802.292807</ele>
        <time>2022-09-02T08:11:14.208Z</time>
      </trkpt>
      <trkpt lat="37.39111" lon="-3.52949">
        <ele>798.383418</ele>
        <time>2022-09-02T08:11:19.241Z</time>
      </trkpt>
      <trkpt lat="37.3908" lon="-3.52934">
        <ele>794.989885</ele>
        <time>2022-09-02T08:11:23.884Z</time>
      </trkpt>
      <trkpt lat="37.39064" lon="-3.52924">
        <ele>793.259342</ele>
        <time>2022-09-02T08:11:26.433Z</time>
      </trkpt>
      <trkpt lat="37.39042" lon="-3.52893">
        <ele>790.0288</ele>
        <time>2022-09-02T08:11:31.037Z</time>
      </trkpt>
      <trkpt lat="37.39032" lon="-3.52883">
        <ele>788.806964</ele>
        <time>2022-09-02T08:11:32.780Z</time>
      </trkpt>
      <trkpt lat="37.38974" lon="-3.5286">
        <ele>782.809311</ele>
        <time>2022-09-02T08:11:41.685Z</time>
      </trkpt>
      <trkpt lat="37.38938" lon="-3.52845">
        <ele>779.15624</ele>
        <time>2022-09-02T08:11:47.348Z</time>
      </trkpt>
      <trkpt lat="37.38884" lon="-3.52849">
        <ele>775.943672</ele>
        <time>2022-09-02T08:11:55.476Z</time>
      </trkpt>
      <trkpt lat="37.3888" lon="-3.52855">
        <ele>775.598941</ele>
        <time>2022-09-02T08:11:56.437Z</time>
      </trkpt>
      <trkpt lat="37.3886" lon="-3.52849">
        <ele>774.421135</ele>
        <time>2022-09-02T08:11:59.604Z</time>
      </trkpt>
      <trkpt lat="37.38854" lon="-3.52847">
        <ele>774.038386</ele>
        <time>2022-09-02T08:12:00.636Z</time>
      </trkpt>
      <trkpt lat="37.38787" lon="-3.52833">
        <ele>770.212939</ele>
        <time>2022-09-02T08:12:11.282Z</time>
      </trkpt>
      <trkpt lat="37.3877" lon="-3.52834">
        <ele>769.24021</ele>
        <time>2022-09-02T08:12:14.149Z</time>
      </trkpt>
      <trkpt lat="37.38697" lon="-3.52842">
        <ele>769.415704</ele>
        <time>2022-09-02T08:12:29.547Z</time>
      </trkpt>
      <trkpt lat="37.38608" lon="-3.52878">
        <ele>770.755148</ele>
        <time>2022-09-02T08:13:07.210Z</time>
      </trkpt>
      <trkpt lat="37.38581" lon="-3.52879">
        <ele>771.123005</ele>
        <time>2022-09-02T08:13:17.950Z</time>
      </trkpt>
      <trkpt lat="37.38534" lon="-3.52854">
        <ele>770.941145</ele>
        <time>2022-09-02T08:13:31.101Z</time>
      </trkpt>
      <trkpt lat="37.38504" lon="-3.52864">
        <ele>770.830112</ele>
        <time>2022-09-02T08:13:37.861Z</time>
      </trkpt>
      <trkpt lat="37.38461" lon="-3.5288">
        <ele>770.670133</ele>
        <time>2022-09-02T08:13:47.565Z</time>
      </trkpt>
      <trkpt lat="37.38441" lon="-3.52912">
        <ele>770.554242</ele>
        <time>2022-09-02T08:13:53.655Z</time>
      </trkpt>
      <trkpt lat="37.38387" lon="-3.52954">
        <ele>768.950206</ele>
        <time>2022-09-02T08:14:04.458Z</time>
      </trkpt>
      <trkpt lat="37.38317" lon="-3.52994">
        <ele>766.244859</ele>
        <time>2022-09-02T08:14:16.598Z</time>
      </trkpt>
      <trkpt lat="37.38264" lon="-3.53036">
        <ele>764.14308</ele>
        <time>2022-09-02T08:14:27.563Z</time>
      </trkpt>
      <trkpt lat="37.38205" lon="-3.53105">
        <ele>763.168971</ele>
        <time>2022-09-02T08:14:43.601Z</time>
      </trkpt>
      <trkpt lat="37.38138" lon="-3.53216">
        <ele>761.801863</ele>
        <time>2022-09-02T08:15:05.989Z</time>
      </trkpt>
      <trkpt lat="37.37971" lon="-3.53427">
        <ele>758.284182</ele>
        <time>2022-09-02T08:15:50.894Z</time>
      </trkpt>
      <trkpt lat="37.3794" lon="-3.53456">
        <ele>757.629376</ele>
        <time>2022-09-02T08:15:58.109Z</time>
      </trkpt>
      <trkpt lat="37.37888" lon="-3.53483">
        <ele>756.687843</ele>
        <time>2022-09-02T08:16:08.670Z</time>
      </trkpt>
      <trkpt lat="37.37822" lon="-3.53555">
        <ele>755.50342</ele>
        <time>2022-09-02T08:16:25.167Z</time>
      </trkpt>
      <trkpt lat="37.37765" lon="-3.53587">
        <ele>754.692769</ele>
        <time>2022-09-02T08:16:37.573Z</time>
      </trkpt>
      <trkpt lat="37.37728" lon="-3.53598">
        <ele>754.200912</ele>
        <time>2022-09-02T08:16:45.111Z</time>
      </trkpt>
      <trkpt lat="37.37597" lon="-3.53608">
        <ele>752.777153</ele>
        <time>2022-09-02T08:17:10.892Z</time>
      </trkpt>
      <trkpt lat="37.37504" lon="-3.53602">
        <ele>752.091823</ele>
        <time>2022-09-02T08:17:29.165Z</time>
      </trkpt>
      <trkpt lat="37.37462" lon="-3.53584">
        <ele>751.971603</ele>
        <time>2022-09-02T08:17:38.226Z</time>
      </trkpt>
      <trkpt lat="37.37404" lon="-3.53593">
        <ele>751.815414</ele>
        <time>2022-09-02T08:17:50.774Z</time>
      </trkpt>
      <trkpt lat="37.37358" lon="-3.53606">
        <ele>751.91021</ele>
        <time>2022-09-02T08:18:02.769Z</time>
      </trkpt>
      <trkpt lat="37.37301" lon="-3.53665">
        <ele>753.381289</ele>
        <time>2022-09-02T08:18:25.637Z</time>
      </trkpt>
      <trkpt lat="37.37255" lon="-3.53683">
        <ele>754.335043</ele>
        <time>2022-09-02T08:18:42.565Z</time>
      </trkpt>
      <trkpt lat="37.37195" lon="-3.53697">
        <ele>755.412104</ele>
        <time>2022-09-02T08:19:04.246Z</time>
      </trkpt>
      <trkpt lat="37.37132" lon="-3.53769">
        <ele>756.182977</ele>
        <time>2022-09-02T08:19:32.652Z</time>
      </trkpt>
      <trkpt lat="37.37009" lon="-3.54088">
        <ele>754.60019</ele>
        <time>2022-09-02T08:20:29.810Z</time>
      </trkpt>
      <trkpt lat="37.36944" lon="-3.54185">
        <ele>751.813078</ele>
        <time>2022-09-02T08:20:47.070Z</time>
      </trkpt>
      <trkpt lat="37.36902" lon="-3.54261">
        <ele>749.854237</ele>
        <time>2022-09-02T08:20:59.445Z</time>
      </trkpt>
      <trkpt lat="37.36862" lon="-3.54317">
        <ele>748.545254</ele>
        <time>2022-09-02T08:21:09.782Z</time>
      </trkpt>
      <trkpt lat="37.36736" lon="-3.54483">
        <ele>746.198348</ele>
        <time>2022-09-02T08:21:44.774Z</time>
      </trkpt>
      <trkpt lat="37.36703" lon="-3.54514">
        <ele>746.164072</ele>
        <time>2022-09-02T08:21:55.119Z</time>
      </trkpt>
      <trkpt lat="37.36635" lon="-3.54562">
        <ele>746.271223</ele>
        <time>2022-09-02T08:22:16.578Z</time>
      </trkpt>
      <trkpt lat="37.36482" lon="-3.546">
        <ele>747.821668</ele>
        <time>2022-09-02T08:22:59.502Z</time>
      </trkpt>
      <trkpt lat="37.36449" lon="-3.54615">
        <ele>747.999557</ele>
        <time>2022-09-02T08:23:08.828Z</time>
      </trkpt>
      <trkpt lat="37.36401" lon="-3.54642">
        <ele>748.183919</ele>
        <time>2022-09-02T08:23:22.121Z</time>
      </trkpt>
      <trkpt lat="37.36321" lon="-3.54705">
        <ele>748.512561</ele>
        <time>2022-09-02T08:23:43.412Z</time>
      </trkpt>
      <trkpt lat="37.36298" lon="-3.54728">
        <ele>748.269517</ele>
        <time>2022-09-02T08:23:49.882Z</time>
      </trkpt>
      <trkpt lat="37.36278" lon="-3.54762">
        <ele>747.898405</ele>
        <time>2022-09-02T08:23:57.206Z</time>
      </trkpt>
      <trkpt lat="37.36268" lon="-3.54817">
        <ele>747.406715</ele>
        <time>2022-09-02T08:24:06.315Z</time>
      </trkpt>
      <trkpt lat="37.36241" lon="-3.54932">
        <ele>746.072428</ele>
        <time>2022-09-02T08:24:23.966Z</time>
      </trkpt>
      <trkpt lat="37.36248" lon="-3.55077">
        <ele>742.977669</ele>
        <time>2022-09-02T08:24:43.782Z</time>
      </trkpt>
      <trkpt lat="37.36261" lon="-3.55134">
        <ele>741.714825</ele>
        <time>2022-09-02T08:24:52.032Z</time>
      </trkpt>
      <trkpt lat="37.36266" lon="-3.55188">
        <ele>741.329689</ele>
        <time>2022-09-02T08:24:59.937Z</time>
      </trkpt>
      <trkpt lat="37.36256" lon="-3.55239">
        <ele>740.957167</ele>
        <time>2022-09-02T08:25:07.956Z</time>
      </trkpt>
      <trkpt lat="37.36224" lon="-3.55286">
        <ele>740.520414</ele>
        <time>2022-09-02T08:25:18.050Z</time>
      </trkpt>
      <trkpt lat="37.36166" lon="-3.55344">
        <ele>740.117249</ele>
        <time>2022-09-02T08:25:37.580Z</time>
      </trkpt>
      <trkpt lat="37.36118" lon="-3.55362">
        <ele>740.110634</ele>
        <time>2022-09-02T08:25:50.456Z</time>
      </trkpt>
      <trkpt lat="37.36001" lon="-3.55385">
        <ele>739.96777</ele>
        <time>2022-09-02T08:26:15.456Z</time>
      </trkpt>
      <trkpt lat="37.359" lon="-3.55428">
        <ele>739.170445</ele>
        <time>2022-09-02T08:26:36.629Z</time>
      </trkpt>
      <trkpt lat="37.3576" lon="-3.55419">
        <ele>738.752185</ele>
        <time>2022-09-02T08:27:05.738Z</time>
      </trkpt>
      <trkpt lat="37.35677" lon="-3.55441">
        <ele>738.752624</ele>
        <time>2022-09-02T08:27:26.560Z</time>
      </trkpt>
      <trkpt lat="37.35571" lon="-3.55475">
        <ele>739.550929</ele>
        <time>2022-09-02T08:27:54.195Z</time>
      </trkpt>
      <trkpt lat="37.35467" lon="-3.55553">
        <ele>740.77237</ele>
        <time>2022-09-02T08:28:27.639Z</time>
      </trkpt>
      <trkpt lat="37.35359" lon="-3.55678">
        <ele>742.842708</ele>
        <time>2022-09-02T08:29:11.767Z</time>
      </trkpt>
      <trkpt lat="37.35286" lon="-3.5582">
        <ele>744.397574</ele>
        <time>2022-09-02T08:29:51.386Z</time>
      </trkpt>
      <trkpt lat="37.35218" lon="-3.55888">
        <ele>744.61299</ele>
        <time>2022-09-02T08:30:12.292Z</time>
      </trkpt>
      <trkpt lat="37.35111" lon="-3.56127">
        <ele>742.976389</ele>
        <time>2022-09-02T08:30:56.042Z</time>
      </trkpt>
      <trkpt lat="37.35054" lon="-3.562">
        <ele>742.014069</ele>
        <time>2022-09-02T08:31:11.550Z</time>
      </trkpt>
      <trkpt lat="37.35019" lon="-3.56328">
        <ele>740.827601</ele>
        <time>2022-09-02T08:31:32.437Z</time>
      </trkpt>
      <trkpt lat="37.34885" lon="-3.56584">
        <ele>738.787928</ele>
        <time>2022-09-02T08:32:21.713Z</time>
      </trkpt>
      <trkpt lat="37.34836" lon="-3.56692">
        <ele>738.875643</ele>
        <time>2022-09-02T08:32:42.973Z</time>
      </trkpt>
      <trkpt lat="37.34827" lon="-3.56743">
        <ele>738.99769</ele>
        <time>2022-09-02T08:32:53.210Z</time>
      </trkpt>
      <trkpt lat="37.34813" lon="-3.56779">
        <ele>739.093071</ele>
        <time>2022-09-02T08:33:01.575Z</time>
      </trkpt>
      <trkpt lat="37.34788" lon="-3.56822">
        <ele>739.352572</ele>
        <time>2022-09-02T08:33:12.636Z</time>
      </trkpt>
      <trkpt lat="37.34731" lon="-3.56878">
        <ele>740.304696</ele>
        <time>2022-09-02T08:33:34.272Z</time>
      </trkpt>
      <trkpt lat="37.3467" lon="-3.56963">
        <ele>741.490981</ele>
        <time>2022-09-02T08:34:02.139Z</time>
      </trkpt>
      <trkpt lat="37.34593" lon="-3.57119">
        <ele>742.008109</ele>
        <time>2022-09-02T08:34:37.463Z</time>
      </trkpt>
      <trkpt lat="37.34543" lon="-3.57205">
        <ele>741.770207</ele>
        <time>2022-09-02T08:34:55.234Z</time>
      </trkpt>
      <trkpt lat="37.34483" lon="-3.5729">
        <ele>741.092005</ele>
        <time>2022-09-02T08:35:13.274Z</time>
      </trkpt>
      <trkpt lat="37.34432" lon="-3.57338">
        <ele>740.663403</ele>
        <time>2022-09-02T08:35:26.058Z</time>
      </trkpt>
      <trkpt lat="37.34202" lon="-3.57601">
        <ele>738.677588</ele>
        <time>2022-09-02T08:36:31.733Z</time>
      </trkpt>
      <trkpt lat="37.34171" lon="-3.57651">
        <ele>737.804372</ele>
        <time>2022-09-02T08:36:41.098Z</time>
      </trkpt>
      <trkpt lat="37.34129" lon="-3.57688">
        <ele>736.371702</ele>
        <time>2022-09-02T08:36:50.106Z</time>
      </trkpt>
      <trkpt lat="37.34042" lon="-3.57825">
        <ele>732.448098</ele>
        <time>2022-09-02T08:37:13.762Z</time>
      </trkpt>
      <trkpt lat="37.33999" lon="-3.57862">
        <ele>730.99151</ele>
        <time>2022-09-02T08:37:22.338Z</time>
      </trkpt>
      <trkpt lat="37.33898" lon="-3.57914">
        <ele>728.182148</ele>
        <time>2022-09-02T08:37:42.078Z</time>
      </trkpt>
      <trkpt lat="37.33826" lon="-3.57974">
        <ele>727.245051</ele>
        <time>2022-09-02T08:37:59.165Z</time>
      </trkpt>
      <trkpt lat="37.33702" lon="-3.58065">
        <ele>725.932699</ele>
        <time>2022-09-02T08:38:28.808Z</time>
      </trkpt>
      <trkpt lat="37.33575" lon="-3.58177">
        <ele>724.89052</ele>
        <time>2022-09-02T08:39:00.147Z</time>
      </trkpt>
      <trkpt lat="37.33562" lon="-3.58197">
        <ele>724.787217</ele>
        <time>2022-09-02T08:39:04.570Z</time>
      </trkpt>
      <trkpt lat="37.33538" lon="-3.58256">
        <ele>724.516118</ele>
        <time>2022-09-02T08:39:16.672Z</time>
      </trkpt>
      <trkpt lat="37.33474" lon="-3.58309">
        <ele>723.901613</ele>
        <time>2022-09-02T08:39:32.466Z</time>
      </trkpt>
      <trkpt lat="37.33392" lon="-3.58349">
        <ele>721.673703</ele>
        <time>2022-09-02T08:39:49.221Z</time>
      </trkpt>
      <trkpt lat="37.33303" lon="-3.58438">
        <ele>717.874606</ele>
        <time>2022-09-02T08:40:08.014Z</time>
      </trkpt>
      <trkpt lat="37.33257" lon="-3.58473">
        <ele>715.018826</ele>
        <time>2022-09-02T08:40:16.353Z</time>
      </trkpt>
      <trkpt lat="37.33277" lon="-3.58532">
        <ele>712.282213</ele>
        <time>2022-09-02T08:40:24.672Z</time>
      </trkpt>
      <trkpt lat="37.33283" lon="-3.58536">
        <ele>711.949823</ele>
        <time>2022-09-02T08:40:25.667Z</time>
      </trkpt>
      <trkpt lat="37.33289" lon="-3.58557">
        <ele>710.99874</ele>
        <time>2022-09-02T08:40:28.785Z</time>
      </trkpt>
      <trkpt lat="37.33295" lon="-3.58571">
        <ele>710.342787</ele>
        <time>2022-09-02T08:40:30.779Z</time>
      </trkpt>
      <trkpt lat="37.33291" lon="-3.58631">
        <ele>708.526698</ele>
        <time>2022-09-02T08:40:38.835Z</time>
      </trkpt>
      <trkpt lat="37.33279" lon="-3.58682">
        <ele>706.951168</ele>
        <time>2022-09-02T08:40:45.894Z</time>
      </trkpt>
      <trkpt lat="37.3319" lon="-3.58879">
        <ele>701.877324</ele>
        <time>2022-09-02T08:41:19.721Z</time>
      </trkpt>
      <trkpt lat="37.33171" lon="-3.58899">
        <ele>701.413928</ele>
        <time>2022-09-02T08:41:24.570Z</time>
      </trkpt>
      <trkpt lat="37.3316" lon="-3.58923">
        <ele>700.999233</ele>
        <time>2022-09-02T08:41:28.907Z</time>
      </trkpt>
      <trkpt lat="37.33118" lon="-3.59046">
        <ele>699.470187</ele>
        <time>2022-09-02T08:41:50.114Z</time>
      </trkpt>
      <trkpt lat="37.3309" lon="-3.59076">
        <ele>699.075142</ele>
        <time>2022-09-02T08:41:57.841Z</time>
      </trkpt>
      <trkpt lat="37.33088" lon="-3.59093">
        <ele>698.928386</ele>
        <time>2022-09-02T08:42:00.728Z</time>
      </trkpt>
      <trkpt lat="37.33107" lon="-3.59131">
        <ele>698.548767</ele>
        <time>2022-09-02T08:42:08.246Z</time>
      </trkpt>
      <trkpt lat="37.33104" lon="-3.59155">
        <ele>698.340287</ele>
        <time>2022-09-02T08:42:12.377Z</time>
      </trkpt>
      <trkpt lat="37.33065" lon="-3.59215">
        <ele>697.87428</ele>
        <time>2022-09-02T08:42:25.382Z</time>
      </trkpt>
      <trkpt lat="37.33055" lon="-3.59238">
        <ele>697.741894</ele>
        <time>2022-09-02T08:42:29.670Z</time>
      </trkpt>
      <trkpt lat="37.33055" lon="-3.5925">
        <ele>697.679737</ele>
        <time>2022-09-02T08:42:31.734Z</time>
      </trkpt>
      <trkpt lat="37.33059" lon="-3.59261">
        <ele>697.619111</ele>
        <time>2022-09-02T08:42:33.739Z</time>
      </trkpt>
      <trkpt lat="37.33077" lon="-3.59282">
        <ele>697.461317</ele>
        <time>2022-09-02T08:42:38.933Z</time>
      </trkpt>
      <trkpt lat="37.33079" lon="-3.59293">
        <ele>697.400074</ele>
        <time>2022-09-02T08:42:41.035Z</time>
      </trkpt>
      <trkpt lat="37.33076" lon="-3.59317">
        <ele>697.27788</ele>
        <time>2022-09-02T08:42:45.308Z</time>
      </trkpt>
      <trkpt lat="37.33068" lon="-3.59345">
        <ele>697.125821</ele>
        <time>2022-09-02T08:42:50.486Z</time>
      </trkpt>
      <trkpt lat="37.33071" lon="-3.59396">
        <ele>696.997417</ele>
        <time>2022-09-02T08:42:59.453Z</time>
      </trkpt>
      <trkpt lat="37.33052" lon="-3.59451">
        <ele>696.965727</ele>
        <time>2022-09-02T08:43:10.065Z</time>
      </trkpt>
      <trkpt lat="37.33053" lon="-3.59467">
        <ele>696.957263</ele>
        <time>2022-09-02T08:43:12.820Z</time>
      </trkpt>
      <trkpt lat="37.33034" lon="-3.59501">
        <ele>696.935214</ele>
        <time>2022-09-02T08:43:20.305Z</time>
      </trkpt>
      <trkpt lat="37.33003" lon="-3.59528">
        <ele>696.909926</ele>
        <time>2022-09-02T08:43:29.376Z</time>
      </trkpt>
      <trkpt lat="37.32978" lon="-3.59571">
        <ele>697.03587</ele>
        <time>2022-09-02T08:43:40.195Z</time>
      </trkpt>
      <trkpt lat="37.33065" lon="-3.59634">
        <ele>697.854918</ele>
        <time>2022-09-02T08:44:07.022Z</time>
      </trkpt>
      <trkpt lat="37.33141" lon="-3.59746">
        <ele>698.450151</ele>
        <time>2022-09-02T08:44:38.598Z</time>
      </trkpt>
      <trkpt lat="37.33137" lon="-3.59786">
        <ele>698.501359</ele>
        <time>2022-09-02T08:44:46.578Z</time>
      </trkpt>
      <trkpt lat="37.3312" lon="-3.59845">
        <ele>698.57853</ele>
        <time>2022-09-02T08:44:57.412Z</time>
      </trkpt>
      <trkpt lat="37.33065" lon="-3.59926">
        <ele>698.305522</ele>
        <time>2022-09-02T08:45:15.042Z</time>
      </trkpt>
      <trkpt lat="37.33038" lon="-3.59976">
        <ele>697.92078</ele>
        <time>2022-09-02T08:45:24.560Z</time>
      </trkpt>
      <trkpt lat="37.33028" lon="-3.60005">
        <ele>697.718446</ele>
        <time>2022-09-02T08:45:29.614Z</time>
      </trkpt>
      <trkpt lat="37.33016" lon="-3.60075">
        <ele>697.259644</ele>
        <time>2022-09-02T08:45:40.930Z</time>
      </trkpt>
      <trkpt lat="37.32996" lon="-3.60303">
        <ele>696.370919</ele>
        <time>2022-09-02T08:46:19.351Z</time>
      </trkpt>
      <trkpt lat="37.33008" lon="-3.60738">
        <ele>694.443956</ele>
        <time>2022-09-02T08:47:31.512Z</time>
      </trkpt>
      <trkpt lat="37.32994" lon="-3.60844">
        <ele>693.739258</ele>
        <time>2022-09-02T08:47:48.583Z</time>
      </trkpt>
      <trkpt lat="37.32981" lon="-3.60906">
        <ele>693.290887</ele>
        <time>2022-09-02T08:47:58.716Z</time>
      </trkpt>
      <trkpt lat="37.3295" lon="-3.6099">
        <ele>692.684571</ele>
        <time>2022-09-02T08:48:13.542Z</time>
      </trkpt>
      <trkpt lat="37.3294" lon="-3.61125">
        <ele>692.162095</ele>
        <time>2022-09-02T08:48:35.973Z</time>
      </trkpt>
      <trkpt lat="37.32942" lon="-3.61154">
        <ele>692.047689</ele>
        <time>2022-09-02T08:48:41.007Z</time>
      </trkpt>
      <trkpt lat="37.32958" lon="-3.61233">
        <ele>691.826769</ele>
        <time>2022-09-02T08:48:54.808Z</time>
      </trkpt>
      <trkpt lat="37.33007" lon="-3.6139">
        <ele>691.628966</ele>
        <time>2022-09-02T08:49:24.241Z</time>
      </trkpt>
      <trkpt lat="37.33022" lon="-3.61452">
        <ele>691.562518</ele>
        <time>2022-09-02T08:49:35.463Z</time>
      </trkpt>
      <trkpt lat="37.33021" lon="-3.61571">
        <ele>691.448017</ele>
        <time>2022-09-02T08:49:56.170Z</time>
      </trkpt>
      <trkpt lat="37.33014" lon="-3.61595">
        <ele>691.422943</ele>
        <time>2022-09-02T08:50:00.759Z</time>
      </trkpt>
      <trkpt lat="37.32987" lon="-3.61645">
        <ele>691.379475</ele>
        <time>2022-09-02T08:50:11.144Z</time>
      </trkpt>
      <trkpt lat="37.32949" lon="-3.61686">
        <ele>691.3622</ele>
        <time>2022-09-02T08:50:22.264Z</time>
      </trkpt>
      <trkpt lat="37.32912" lon="-3.61709">
        <ele>691.348038</ele>
        <time>2022-09-02T08:50:31.484Z</time>
      </trkpt>
      <trkpt lat="37.32852" lon="-3.6173">
        <ele>691.326379</ele>
        <time>2022-09-02T08:50:45.514Z</time>
      </trkpt>
      <trkpt lat="37.32835" lon="-3.61747">
        <ele>691.249585</ele>
        <time>2022-09-02T08:50:50.236Z</time>
      </trkpt>
      <trkpt lat="37.32817" lon="-3.61786">
        <ele>691.024898</ele>
        <time>2022-09-02T08:50:57.966Z</time>
      </trkpt>
      <trkpt lat="37.32806" lon="-3.61858">
        <ele>690.659565</ele>
        <time>2022-09-02T08:51:10.262Z</time>
      </trkpt>
      <trkpt lat="37.32803" lon="-3.61884">
        <ele>690.530653</ele>
        <time>2022-09-02T08:51:14.468Z</time>
      </trkpt>
      <trkpt lat="37.32796" lon="-3.61926">
        <ele>690.31589</ele>
        <time>2022-09-02T08:51:21.346Z</time>
      </trkpt>
      <trkpt lat="37.32779" lon="-3.61962">
        <ele>690.001994</ele>
        <time>2022-09-02T08:51:27.835Z</time>
      </trkpt>
      <trkpt lat="37.32724" lon="-3.62005">
        <ele>689.109258</ele>
        <time>2022-09-02T08:51:40.300Z</time>
      </trkpt>
      <trkpt lat="37.3267" lon="-3.62064">
        <ele>688.134168</ele>
        <time>2022-09-02T08:51:53.752Z</time>
      </trkpt>
      <trkpt lat="37.32595" lon="-3.62182">
        <ele>686.839572</ele>
        <time>2022-09-02T08:52:17.096Z</time>
      </trkpt>
      <trkpt lat="37.3254" lon="-3.62234">
        <ele>686.170917</ele>
        <time>2022-09-02T08:52:30.984Z</time>
      </trkpt>
      <trkpt lat="37.32527" lon="-3.62253">
        <ele>685.977874</ele>
        <time>2022-09-02T08:52:35.106Z</time>
      </trkpt>
      <trkpt lat="37.32498" lon="-3.62317">
        <ele>685.854698</ele>
        <time>2022-09-02T08:52:47.611Z</time>
      </trkpt>
      <trkpt lat="37.32304" lon="-3.62767">
        <ele>685.074103</ele>
        <time>2022-09-02T08:54:16.578Z</time>
      </trkpt>
      <trkpt lat="37.32289" lon="-3.62821">
        <ele>684.995759</ele>
        <time>2022-09-02T08:54:26.405Z</time>
      </trkpt>
      <trkpt lat="37.32293" lon="-3.62884">
        <ele>684.905712</ele>
        <time>2022-09-02T08:54:37.165Z</time>
      </trkpt>
      <trkpt lat="37.32349" lon="-3.63217">
        <ele>685.324721</ele>
        <time>2022-09-02T08:55:35.912Z</time>
      </trkpt>
      <trkpt lat="37.32358" lon="-3.63265">
        <ele>685.574444</ele>
        <time>2022-09-02T08:55:46.976Z</time>
      </trkpt>
      <trkpt lat="37.32361" lon="-3.63277">
        <ele>685.63849</ele>
        <time>2022-09-02T08:55:50.070Z</time>
      </trkpt>
      <trkpt lat="37.32377" lon="-3.63325">
        <ele>686.471132</ele>
        <time>2022-09-02T08:56:04.096Z</time>
      </trkpt>
      <trkpt lat="37.32416" lon="-3.63401">
        <ele>688.700381</ele>
        <time>2022-09-02T08:56:32.563Z</time>
      </trkpt>
      <trkpt lat="37.32425" lon="-3.6342">
        <ele>689.258725</ele>
        <time>2022-09-02T08:56:40.698Z</time>
      </trkpt>
      <trkpt lat="37.32459" lon="-3.63481">
        <ele>691.094659</ele>
        <time>2022-09-02T08:57:05.070Z</time>
      </trkpt>
      <trkpt lat="37.3248" lon="-3.63508">
        <ele>691.355209</ele>
        <time>2022-09-02T08:57:15.180Z</time>
      </trkpt>
      <trkpt lat="37.3249" lon="-3.63514">
        <ele>691.36095</ele>
        <time>2022-09-02T08:57:18.353Z</time>
      </trkpt>
      <trkpt lat="37.3251" lon="-3.63525">
        <ele>691.372268</ele>
        <time>2022-09-02T08:57:25.136Z</time>
      </trkpt>
      <trkpt lat="37.32512" lon="-3.63532">
        <ele>691.375438</ele>
        <time>2022-09-02T08:57:27.001Z</time>
      </trkpt>
      <trkpt lat="37.3251" lon="-3.6356">
        <ele>691.386971</ele>
        <time>2022-09-02T08:57:32.664Z</time>
      </trkpt>
      <trkpt lat="37.32482" lon="-3.63607">
        <ele>691.411257</ele>
        <time>2022-09-02T08:57:43.450Z</time>
      </trkpt>
      <trkpt lat="37.32461" lon="-3.63616">
        <ele>691.423044</ele>
        <time>2022-09-02T08:57:47.537Z</time>
      </trkpt>
      <trkpt lat="37.32394" lon="-3.63621">
        <ele>689.867385</ele>
        <time>2022-09-02T08:57:59.029Z</time>
      </trkpt>
      <trkpt lat="37.32353" lon="-3.63643">
        <ele>688.051972</ele>
        <time>2022-09-02T08:58:06.149Z</time>
      </trkpt>
      <trkpt lat="37.32319" lon="-3.63683">
        <ele>686.151857</ele>
        <time>2022-09-02T08:58:13.568Z</time>
      </trkpt>
      <trkpt lat="37.32305" lon="-3.63712">
        <ele>685.084913</ele>
        <time>2022-09-02T08:58:17.958Z</time>
      </trkpt>
      <trkpt lat="37.32292" lon="-3.63773">
        <ele>683.355083</ele>
        <time>2022-09-02T08:58:26.160Z</time>
      </trkpt>
      <trkpt lat="37.32279" lon="-3.63988">
        <ele>678.475835</ele>
        <time>2022-09-02T08:58:56.111Z</time>
      </trkpt>
      <trkpt lat="37.32264" lon="-3.64088">
        <ele>677.096122</ele>
        <time>2022-09-02T08:59:11.514Z</time>
      </trkpt>
      <trkpt lat="37.32251" lon="-3.64136">
        <ele>676.423388</ele>
        <time>2022-09-02T08:59:19.078Z</time>
      </trkpt>
      <trkpt lat="37.3221" lon="-3.64226">
        <ele>675.351645</ele>
        <time>2022-09-02T08:59:35.162Z</time>
      </trkpt>
      <trkpt lat="37.32182" lon="-3.64272">
        <ele>674.924202</ele>
        <time>2022-09-02T08:59:44.279Z</time>
      </trkpt>
      <trkpt lat="37.32073" lon="-3.64418">
        <ele>674.027233</ele>
        <time>2022-09-02T09:00:16.966Z</time>
      </trkpt>
      <trkpt lat="37.31991" lon="-3.64509">
        <ele>673.934647</ele>
        <time>2022-09-02T09:00:42.925Z</time>
      </trkpt>
      <trkpt lat="37.31934" lon="-3.64554">
        <ele>673.669472</ele>
        <time>2022-09-02T09:00:59.269Z</time>
      </trkpt>
      <trkpt lat="37.3185" lon="-3.64589">
        <ele>673.316843</ele>
        <time>2022-09-02T09:01:18.004Z</time>
      </trkpt>
      <trkpt lat="37.3173" lon="-3.6463">
        <ele>671.256584</ele>
        <time>2022-09-02T09:01:40.904Z</time>
      </trkpt>
      <trkpt lat="37.31682" lon="-3.64657">
        <ele>670.201787</ele>
        <time>2022-09-02T09:01:50.234Z</time>
      </trkpt>
      <trkpt lat="37.31634" lon="-3.64685">
        <ele>669.25758</ele>
        <time>2022-09-02T09:01:59.782Z</time>
      </trkpt>
      <trkpt lat="37.31562" lon="-3.64752">
        <ele>667.892463</ele>
        <time>2022-09-02T09:02:16.604Z</time>
      </trkpt>
      <trkpt lat="37.31482" lon="-3.6485">
        <ele>666.618447</ele>
        <time>2022-09-02T09:02:39.323Z</time>
      </trkpt>
      <trkpt lat="37.31403" lon="-3.64965">
        <ele>665.88447</ele>
        <time>2022-09-02T09:03:04.305Z</time>
      </trkpt>
      <trkpt lat="37.31386" lon="-3.65003">
        <ele>665.74388</ele>
        <time>2022-09-02T09:03:11.642Z</time>
      </trkpt>
      <trkpt lat="37.31325" lon="-3.65082">
        <ele>665.510821</ele>
        <time>2022-09-02T09:03:30.450Z</time>
      </trkpt>
      <trkpt lat="37.31288" lon="-3.65106">
        <ele>665.398337</ele>
        <time>2022-09-02T09:03:39.723Z</time>
      </trkpt>
      <trkpt lat="37.31229" lon="-3.65121">
        <ele>665.121022</ele>
        <time>2022-09-02T09:03:53.129Z</time>
      </trkpt>
      <trkpt lat="37.31074" lon="-3.65107">
        <ele>664.072807</ele>
        <time>2022-09-02T09:04:24.649Z</time>
      </trkpt>
      <trkpt lat="37.31013" lon="-3.65085">
        <ele>663.480942</ele>
        <time>2022-09-02T09:04:37.297Z</time>
      </trkpt>
      <trkpt lat="37.30971" lon="-3.65082">
        <ele>663.095124</ele>
        <time>2022-09-02T09:04:45.690Z</time>
      </trkpt>
      <trkpt lat="37.30937" lon="-3.65096">
        <ele>662.761192</ele>
        <time>2022-09-02T09:04:52.841Z</time>
      </trkpt>
      <trkpt lat="37.30906" lon="-3.65121">
        <ele>662.420727</ele>
        <time>2022-09-02T09:04:59.961Z</time>
      </trkpt>
      <trkpt lat="37.30888" lon="-3.65143">
        <ele>662.171135</ele>
        <time>2022-09-02T09:05:04.915Z</time>
      </trkpt>
      <trkpt lat="37.30855" lon="-3.6519">
        <ele>661.659755</ele>
        <time>2022-09-02T09:05:15.369Z</time>
      </trkpt>
      <trkpt lat="37.30655" lon="-3.65522">
        <ele>658.087959</ele>
        <time>2022-09-02T09:06:20.256Z</time>
      </trkpt>
      <trkpt lat="37.30616" lon="-3.65579">
        <ele>657.494523</ele>
        <time>2022-09-02T09:06:32.218Z</time>
      </trkpt>
      <trkpt lat="37.3059" lon="-3.65606">
        <ele>657.167304</ele>
        <time>2022-09-02T09:06:38.884Z</time>
      </trkpt>
      <trkpt lat="37.3054" lon="-3.65647">
        <ele>656.62458</ele>
        <time>2022-09-02T09:06:50.915Z</time>
      </trkpt>
      <trkpt lat="37.30174" lon="-3.65915">
        <ele>653.985834</ele>
        <time>2022-09-02T09:08:16.922Z</time>
      </trkpt>
      <trkpt lat="37.30165" lon="-3.65923">
        <ele>653.986186</ele>
        <time>2022-09-02T09:08:19.683Z</time>
      </trkpt>
      <trkpt lat="37.30156" lon="-3.65931">
        <ele>653.986502</ele>
        <time>2022-09-02T09:08:22.129Z</time>
      </trkpt>
      <trkpt lat="37.30147" lon="-3.65939">
        <ele>653.986869</ele>
        <time>2022-09-02T09:08:24.905Z</time>
      </trkpt>
      <trkpt lat="37.30024" lon="-3.66095">
        <ele>654.693811</ele>
        <time>2022-09-02T09:09:12.420Z</time>
      </trkpt>
      <trkpt lat="37.29988" lon="-3.66126">
        <ele>654.958654</ele>
        <time>2022-09-02T09:09:23.507Z</time>
      </trkpt>
      <trkpt lat="37.29963" lon="-3.6614">
        <ele>654.968776</ele>
        <time>2022-09-02T09:09:29.443Z</time>
      </trkpt>
      <trkpt lat="37.29887" lon="-3.66164">
        <ele>653.635122</ele>
        <time>2022-09-02T09:09:44.938Z</time>
      </trkpt>
      <trkpt lat="37.29853" lon="-3.66172">
        <ele>653.053706</ele>
        <time>2022-09-02T09:09:51.203Z</time>
      </trkpt>
      <trkpt lat="37.29759" lon="-3.66206">
        <ele>651.26041</ele>
        <time>2022-09-02T09:10:08.251Z</time>
      </trkpt>
      <trkpt lat="37.29696" lon="-3.66249">
        <ele>649.781505</ele>
        <time>2022-09-02T09:10:20.813Z</time>
      </trkpt>
      <trkpt lat="37.29642" lon="-3.66304">
        <ele>648.335848</ele>
        <time>2022-09-02T09:10:34.055Z</time>
      </trkpt>
      <trkpt lat="37.29548" lon="-3.66396">
        <ele>648.656066</ele>
        <time>2022-09-02T09:10:59.761Z</time>
      </trkpt>
      <trkpt lat="37.29473" lon="-3.6644">
        <ele>649.685089</ele>
        <time>2022-09-02T09:11:24.062Z</time>
      </trkpt>
      <trkpt lat="37.29409" lon="-3.66461">
        <ele>652.32827</ele>
        <time>2022-09-02T09:11:47.695Z</time>
      </trkpt>
      <trkpt lat="37.29144" lon="-3.66524">
        <ele>666.376109</ele>
        <time>2022-09-02T09:14:05.081Z</time>
      </trkpt>
      <trkpt lat="37.29054" lon="-3.66551">
        <ele>671.131553</ele>
        <time>2022-09-02T09:14:55.621Z</time>
      </trkpt>
      <trkpt lat="37.28992" lon="-3.6659">
        <ele>674.674848</ele>
        <time>2022-09-02T09:15:27.772Z</time>
      </trkpt>
      <trkpt lat="37.28948" lon="-3.66641">
        <ele>676.164465</ele>
        <time>2022-09-02T09:15:50.356Z</time>
      </trkpt>
      <trkpt lat="37.28877" lon="-3.6678">
        <ele>677.534546</ele>
        <time>2022-09-02T09:16:22.851Z</time>
      </trkpt>
      <trkpt lat="37.2882" lon="-3.66906">
        <ele>676.856204</ele>
        <time>2022-09-02T09:16:45.718Z</time>
      </trkpt>
      <trkpt lat="37.28792" lon="-3.66975">
        <ele>676.403275</ele>
        <time>2022-09-02T09:16:58.382Z</time>
      </trkpt>
      <trkpt lat="37.28765" lon="-3.67037">
        <ele>676.224538</ele>
        <time>2022-09-02T09:17:09.958Z</time>
      </trkpt>
      <trkpt lat="37.2873" lon="-3.67113">
        <ele>676.081685</ele>
        <time>2022-09-02T09:17:24.343Z</time>
      </trkpt>
      <trkpt lat="37.28683" lon="-3.67212">
        <ele>676.259336</ele>
        <time>2022-09-02T09:17:46.103Z</time>
      </trkpt>
      <trkpt lat="37.28616" lon="-3.67345">
        <ele>677.769956</ele>
        <time>2022-09-02T09:18:22.851Z</time>
      </trkpt>
      <trkpt lat="37.28594" lon="-3.67393">
        <ele>678.300623</ele>
        <time>2022-09-02T09:18:36.672Z</time>
      </trkpt>
      <trkpt lat="37.28574" lon="-3.67434">
        <ele>678.752403</ele>
        <time>2022-09-02T09:18:47.882Z</time>
      </trkpt>
      <trkpt lat="37.28563" lon="-3.6746">
        <ele>679.028029</ele>
        <time>2022-09-02T09:18:54.466Z</time>
      </trkpt>
      <trkpt lat="37.28556" lon="-3.67474">
        <ele>679.188654</ele>
        <time>2022-09-02T09:18:58.162Z</time>
      </trkpt>
      <trkpt lat="37.28547" lon="-3.67493">
        <ele>679.392248</ele>
        <time>2022-09-02T09:19:02.953Z</time>
      </trkpt>
      <trkpt lat="37.28522" lon="-3.67548">
        <ele>679.98528</ele>
        <time>2022-09-02T09:19:16.769Z</time>
      </trkpt>
      <trkpt lat="37.28503" lon="-3.67589">
        <ele>680.212784</ele>
        <time>2022-09-02T09:19:27.081Z</time>
      </trkpt>
      <trkpt lat="37.28492" lon="-3.6762">
        <ele>680.160887</ele>
        <time>2022-09-02T09:19:34.029Z</time>
      </trkpt>
      <trkpt lat="37.28489" lon="-3.67637">
        <ele>680.133956</ele>
        <time>2022-09-02T09:19:37.239Z</time>
      </trkpt>
      <trkpt lat="37.28488" lon="-3.67662">
        <ele>680.096655</ele>
        <time>2022-09-02T09:19:41.864Z</time>
      </trkpt>
      <trkpt lat="37.2849" lon="-3.67663">
        <ele>680.093755</ele>
        <time>2022-09-02T09:19:42.160Z</time>
      </trkpt>
      <trkpt lat="37.28493" lon="-3.67674">
        <ele>680.076219</ele>
        <time>2022-09-02T09:19:44.075Z</time>
      </trkpt>
      <trkpt lat="37.2849" lon="-3.67685">
        <ele>680.057786</ele>
        <time>2022-09-02T09:19:46.088Z</time>
      </trkpt>
      <trkpt lat="37.28482" lon="-3.67691">
        <ele>680.039652</ele>
        <time>2022-09-02T09:19:48.136Z</time>
      </trkpt>
      <trkpt lat="37.28457" lon="-3.67707">
        <ele>679.985844</ele>
        <time>2022-09-02T09:19:53.733Z</time>
      </trkpt>
      <trkpt lat="37.2844" lon="-3.67725">
        <ele>679.943938</ele>
        <time>2022-09-02T09:19:58.085Z</time>
      </trkpt>
      <trkpt lat="37.28438" lon="-3.67731">
        <ele>679.932685</ele>
        <time>2022-09-02T09:19:59.228Z</time>
      </trkpt>
      <trkpt lat="37.2841" lon="-3.67791">
        <ele>679.005393</ele>
        <time>2022-09-02T09:20:10.315Z</time>
      </trkpt>
      <trkpt lat="37.28379" lon="-3.67857">
        <ele>677.549218</ele>
        <time>2022-09-02T09:20:21.950Z</time>
      </trkpt>
      <trkpt lat="37.28303" lon="-3.68021">
        <ele>672.597725</ele>
        <time>2022-09-02T09:20:47.027Z</time>
      </trkpt>
      <trkpt lat="37.28247" lon="-3.6814">
        <ele>667.821537</ele>
        <time>2022-09-02T09:21:04.657Z</time>
      </trkpt>
      <trkpt lat="37.28183" lon="-3.68236">
        <ele>663.637086</ele>
        <time>2022-09-02T09:21:20.678Z</time>
      </trkpt>
      <trkpt lat="37.28142" lon="-3.68283">
        <ele>661.311017</ele>
        <time>2022-09-02T09:21:29.853Z</time>
      </trkpt>
      <trkpt lat="37.28071" lon="-3.68341">
        <ele>658.335444</ele>
        <time>2022-09-02T09:21:44.154Z</time>
      </trkpt>
      <trkpt lat="37.27993" lon="-3.68382">
        <ele>655.573867</ele>
        <time>2022-09-02T09:21:58.897Z</time>
      </trkpt>
      <trkpt lat="37.27916" lon="-3.68403">
        <ele>653.10256</ele>
        <time>2022-09-02T09:22:12.111Z</time>
      </trkpt>
      <trkpt lat="37.27844" lon="-3.68409">
        <ele>650.846745</ele>
        <time>2022-09-02T09:22:24.764Z</time>
      </trkpt>
      <trkpt lat="37.2777" lon="-3.68402">
        <ele>648.384367</ele>
        <time>2022-09-02T09:22:37.542Z</time>
      </trkpt>
      <trkpt lat="37.27744" lon="-3.68396">
        <ele>647.175431</ele>
        <time>2022-09-02T09:22:41.877Z</time>
      </trkpt>
      <trkpt lat="37.27694" lon="-3.68381">
        <ele>644.780256</ele>
        <time>2022-09-02T09:22:50.346Z</time>
      </trkpt>
      <trkpt lat="37.27639" lon="-3.68367">
        <ele>642.184441</ele>
        <time>2022-09-02T09:22:59.205Z</time>
      </trkpt>
      <trkpt lat="37.27635" lon="-3.68366">
        <ele>641.99584</ele>
        <time>2022-09-02T09:22:59.835Z</time>
      </trkpt>
      <trkpt lat="37.27632" lon="-3.68374">
        <ele>641.660983</ele>
        <time>2022-09-02T09:23:01.456Z</time>
      </trkpt>
      <trkpt lat="37.27632" lon="-3.68374">
        <ele>641.660983</ele>
        <time>2022-09-02T09:23:01.456Z</time>
      </trkpt>
      <trkpt lat="37.27535" lon="-3.68633">
        <ele>629.925278</ele>
        <time>2022-09-02T09:23:50.080Z</time>
      </trkpt>
      <trkpt lat="37.27523" lon="-3.68648">
        <ele>629.422459</ele>
        <time>2022-09-02T09:23:54.070Z</time>
      </trkpt>
      <trkpt lat="37.27508" lon="-3.68651">
        <ele>628.983693</ele>
        <time>2022-09-02T09:23:57.445Z</time>
      </trkpt>
      <trkpt lat="37.27502" lon="-3.68658">
        <ele>628.74424</ele>
        <time>2022-09-02T09:23:59.320Z</time>
      </trkpt>
      <trkpt lat="37.2748" lon="-3.68741">
        <ele>626.662242</ele>
        <time>2022-09-02T09:24:16.394Z</time>
      </trkpt>
      <trkpt lat="37.27474" lon="-3.68748">
        <ele>626.433708</ele>
        <time>2022-09-02T09:24:18.448Z</time>
      </trkpt>
      <trkpt lat="37.27461" lon="-3.68747">
        <ele>626.048752</ele>
        <time>2022-09-02T09:24:21.795Z</time>
      </trkpt>
      <trkpt lat="37.2746" lon="-3.68734">
        <ele>625.729578</ele>
        <time>2022-09-02T09:24:24.519Z</time>
      </trkpt>
      <trkpt lat="37.27474" lon="-3.68677">
        <ele>624.829903</ele>
        <time>2022-09-02T09:24:36.726Z</time>
      </trkpt>
      <trkpt lat="37.27472" lon="-3.68658">
        <ele>624.614462</ele>
        <time>2022-09-02T09:24:41.190Z</time>
      </trkpt>
      <trkpt lat="37.27466" lon="-3.6864">
        <ele>624.396142</ele>
        <time>2022-09-02T09:24:45.698Z</time>
      </trkpt>
      <trkpt lat="37.27453" lon="-3.68624">
        <ele>624.13587</ele>
        <time>2022-09-02T09:24:51.106Z</time>
      </trkpt>
      <trkpt lat="37.27425" lon="-3.68612">
        <ele>623.73365</ele>
        <time>2022-09-02T09:24:59.063Z</time>
      </trkpt>
      <trkpt lat="37.27407" lon="-3.68616">
        <ele>623.478807</ele>
        <time>2022-09-02T09:25:03.774Z</time>
      </trkpt>
      <trkpt lat="37.27375" lon="-3.68601">
        <ele>623.003813</ele>
        <time>2022-09-02T09:25:12.598Z</time>
      </trkpt>
      <trkpt lat="37.27349" lon="-3.6861">
        <ele>622.393937</ele>
        <time>2022-09-02T09:25:19.578Z</time>
      </trkpt>
      <trkpt lat="37.27334" lon="-3.68636">
        <ele>621.53387</ele>
        <time>2022-09-02T09:25:25.157Z</time>
      </trkpt>
      <trkpt lat="37.2731" lon="-3.68682">
        <ele>620.010149</ele>
        <time>2022-09-02T09:25:35.412Z</time>
      </trkpt>
      <trkpt lat="37.27298" lon="-3.68722">
        <ele>618.834227</ele>
        <time>2022-09-02T09:25:43.295Z</time>
      </trkpt>
      <trkpt lat="37.27286" lon="-3.68732">
        <ele>618.334121</ele>
        <time>2022-09-02T09:25:46.537Z</time>
      </trkpt>
      <trkpt lat="37.2729" lon="-3.68739">
        <ele>618.09968</ele>
        <time>2022-09-02T09:25:47.631Z</time>
      </trkpt>
      <trkpt lat="37.27289" lon="-3.68756">
        <ele>617.642213</ele>
        <time>2022-09-02T09:25:50.468Z</time>
      </trkpt>
      <trkpt lat="37.27277" lon="-3.68764">
        <ele>617.182878</ele>
        <time>2022-09-02T09:25:52.767Z</time>
      </trkpt>
      <trkpt lat="37.27275" lon="-3.68783">
        <ele>616.650308</ele>
        <time>2022-09-02T09:25:55.183Z</time>
      </trkpt>
      <trkpt lat="37.27252" lon="-3.68834">
        <ele>614.766357</ele>
        <time>2022-09-02T09:26:02.596Z</time>
      </trkpt>
      <trkpt lat="37.2723" lon="-3.68905">
        <ele>612.284516</ele>
        <time>2022-09-02T09:26:11.966Z</time>
      </trkpt>
      <trkpt lat="37.27226" lon="-3.68956">
        <ele>610.603384</ele>
        <time>2022-09-02T09:26:18.833Z</time>
      </trkpt>
      <trkpt lat="37.27228" lon="-3.68987">
        <ele>609.595718</ele>
        <time>2022-09-02T09:26:23.269Z</time>
      </trkpt>
      <trkpt lat="37.27235" lon="-3.68987">
        <ele>609.325069</ele>
        <time>2022-09-02T09:26:24.420Z</time>
      </trkpt>
      <trkpt lat="37.27245" lon="-3.68997">
        <ele>609.178773</ele>
        <time>2022-09-02T09:26:26.815Z</time>
      </trkpt>
      <trkpt lat="37.27244" lon="-3.69013">
        <ele>609.155707</ele>
        <time>2022-09-02T09:26:29.132Z</time>
      </trkpt>
      <trkpt lat="37.27261" lon="-3.69024">
        <ele>609.120431</ele>
        <time>2022-09-02T09:26:32.746Z</time>
      </trkpt>
      <trkpt lat="37.2728" lon="-3.69032">
        <ele>609.084733</ele>
        <time>2022-09-02T09:26:36.711Z</time>
      </trkpt>
      <trkpt lat="37.27317" lon="-3.69049">
        <ele>609.014003</ele>
        <time>2022-09-02T09:26:45.205Z</time>
      </trkpt>
      <trkpt lat="37.2733" lon="-3.69066">
        <ele>608.978724</ele>
        <time>2022-09-02T09:26:49.695Z</time>
      </trkpt>
      <trkpt lat="37.2734" lon="-3.69096">
        <ele>608.932291</ele>
        <time>2022-09-02T09:26:55.933Z</time>
      </trkpt>
      <trkpt lat="37.27351" lon="-3.69145">
        <ele>609.146888</ele>
        <time>2022-09-02T09:27:07.881Z</time>
      </trkpt>
      <trkpt lat="37.27367" lon="-3.6921">
        <ele>611.461023</ele>
        <time>2022-09-02T09:27:27.440Z</time>
      </trkpt>
      <trkpt lat="37.27367" lon="-3.69226">
        <ele>612.013509</ele>
        <time>2022-09-02T09:27:32.254Z</time>
      </trkpt>
      <trkpt lat="37.27361" lon="-3.69249">
        <ele>612.84725</ele>
        <time>2022-09-02T09:27:40.226Z</time>
      </trkpt>
      <trkpt lat="37.27354" lon="-3.6926">
        <ele>613.329993</ele>
        <time>2022-09-02T09:27:44.836Z</time>
      </trkpt>
      <trkpt lat="37.27322" lon="-3.69281">
        <ele>614.848659</ele>
        <time>2022-09-02T09:28:03.397Z</time>
      </trkpt>
      <trkpt lat="37.27307" lon="-3.69298">
        <ele>615.726615</ele>
        <time>2022-09-02T09:28:14.831Z</time>
      </trkpt>
      <trkpt lat="37.27273" lon="-3.69346">
        <ele>618.301648</ele>
        <time>2022-09-02T09:28:45.137Z</time>
      </trkpt>
      <trkpt lat="37.27263" lon="-3.6937">
        <ele>619.43968</ele>
        <time>2022-09-02T09:28:55.869Z</time>
      </trkpt>
      <trkpt lat="37.27241" lon="-3.69394">
        <ele>621.052247</ele>
        <time>2022-09-02T09:29:10.869Z</time>
      </trkpt>
      <trkpt lat="37.27236" lon="-3.69409">
        <ele>621.754666</ele>
        <time>2022-09-02T09:29:18.657Z</time>
      </trkpt>
      <trkpt lat="37.27236" lon="-3.69421">
        <ele>622.24529</ele>
        <time>2022-09-02T09:29:22.950Z</time>
      </trkpt>
      <trkpt lat="37.27234" lon="-3.69436">
        <ele>622.928572</ele>
        <time>2022-09-02T09:29:28.682Z</time>
      </trkpt>
      <trkpt lat="37.27225" lon="-3.69503">
        <ele>625.872583</ele>
        <time>2022-09-02T09:29:56.530Z</time>
      </trkpt>
      <trkpt lat="37.27245" lon="-3.69944">
        <ele>631.965283</ele>
        <time>2022-09-02T09:31:42.047Z</time>
      </trkpt>
      <trkpt lat="37.27254" lon="-3.70025">
        <ele>632.320699</ele>
        <time>2022-09-02T09:31:56.453Z</time>
      </trkpt>
      <trkpt lat="37.27265" lon="-3.70144">
        <ele>632.589369</ele>
        <time>2022-09-02T09:32:18.509Z</time>
      </trkpt>
      <trkpt lat="37.2727" lon="-3.7022">
        <ele>632.831254</ele>
        <time>2022-09-02T09:32:32.522Z</time>
      </trkpt>
      <trkpt lat="37.27262" lon="-3.7023">
        <ele>632.895437</ele>
        <time>2022-09-02T09:32:35.325Z</time>
      </trkpt>
      <trkpt lat="37.2725" lon="-3.70234">
        <ele>632.964074</ele>
        <time>2022-09-02T09:32:38.211Z</time>
      </trkpt>
      <trkpt lat="37.27198" lon="-3.70229">
        <ele>633.263195</ele>
        <time>2022-09-02T09:32:51.542Z</time>
      </trkpt>
      <trkpt lat="37.27178" lon="-3.70233">
        <ele>633.379681</ele>
        <time>2022-09-02T09:32:57.065Z</time>
      </trkpt>
      <trkpt lat="37.2715" lon="-3.70249">
        <ele>633.552816</ele>
        <time>2022-09-02T09:33:05.246Z</time>
      </trkpt>
      <trkpt lat="37.27071" lon="-3.70335">
        <ele>633.695304</ele>
        <time>2022-09-02T09:33:31.277Z</time>
      </trkpt>
      <trkpt lat="37.2697" lon="-3.70426">
        <ele>633.388079</ele>
        <time>2022-09-02T09:33:57.522Z</time>
      </trkpt>
      <trkpt lat="37.26932" lon="-3.7046">
        <ele>632.734016</ele>
        <time>2022-09-02T09:34:06.782Z</time>
      </trkpt>
      <trkpt lat="37.26906" lon="-3.70495">
        <ele>632.213038</ele>
        <time>2022-09-02T09:34:14.032Z</time>
      </trkpt>
      <trkpt lat="37.26764" lon="-3.70813">
        <ele>626.560384</ele>
        <time>2022-09-02T09:35:07.751Z</time>
      </trkpt>
      <trkpt lat="37.26589" lon="-3.71197">
        <ele>615.329585</ele>
        <time>2022-09-02T09:36:07.223Z</time>
      </trkpt>
      <trkpt lat="37.26563" lon="-3.71254">
        <ele>614.035038</ele>
        <time>2022-09-02T09:36:16.356Z</time>
      </trkpt>
      <trkpt lat="37.26534" lon="-3.71321">
        <ele>612.536817</ele>
        <time>2022-09-02T09:36:27.354Z</time>
      </trkpt>
      <trkpt lat="37.26528" lon="-3.71336">
        <ele>612.211801</ele>
        <time>2022-09-02T09:36:29.769Z</time>
      </trkpt>
      <trkpt lat="37.2652" lon="-3.71353">
        <ele>611.832308</ele>
        <time>2022-09-02T09:36:32.624Z</time>
      </trkpt>
      <trkpt lat="37.26516" lon="-3.71365">
        <ele>611.567249</ele>
        <time>2022-09-02T09:36:34.583Z</time>
      </trkpt>
      <trkpt lat="37.26545" lon="-3.7138">
        <ele>611.151178</ele>
        <time>2022-09-02T09:36:40.619Z</time>
      </trkpt>
      <trkpt lat="37.26556" lon="-3.71386">
        <ele>611.000332</ele>
        <time>2022-09-02T09:36:42.792Z</time>
      </trkpt>
      <trkpt lat="37.26576" lon="-3.71406">
        <ele>610.661766</ele>
        <time>2022-09-02T09:36:47.808Z</time>
      </trkpt>
      <trkpt lat="37.266" lon="-3.71433">
        <ele>610.23729</ele>
        <time>2022-09-02T09:36:54.177Z</time>
      </trkpt>
      <trkpt lat="37.26636" lon="-3.71449">
        <ele>609.735568</ele>
        <time>2022-09-02T09:37:01.535Z</time>
      </trkpt>
      <trkpt lat="37.2668" lon="-3.71507">
        <ele>608.975057</ele>
        <time>2022-09-02T09:37:14.208Z</time>
      </trkpt>
      <trkpt lat="37.26709" lon="-3.71552">
        <ele>608.524367</ele>
        <time>2022-09-02T09:37:23.063Z</time>
      </trkpt>
      <trkpt lat="37.26716" lon="-3.71576">
        <ele>608.327281</ele>
        <time>2022-09-02T09:37:27.177Z</time>
      </trkpt>
      <trkpt lat="37.26715" lon="-3.71589">
        <ele>608.22286</ele>
        <time>2022-09-02T09:37:29.121Z</time>
      </trkpt>
      <trkpt lat="37.26702" lon="-3.71618">
        <ele>607.967058</ele>
        <time>2022-09-02T09:37:34.588Z</time>
      </trkpt>
      <trkpt lat="37.26695" lon="-3.71679">
        <ele>607.483509</ele>
        <time>2022-09-02T09:37:44.504Z</time>
      </trkpt>
      <trkpt lat="37.26673" lon="-3.71743">
        <ele>607.255692</ele>
        <time>2022-09-02T09:37:56.116Z</time>
      </trkpt>
      <trkpt lat="37.26664" lon="-3.71816">
        <ele>607.04495</ele>
        <time>2022-09-02T09:38:08.573Z</time>
      </trkpt>
      <trkpt lat="37.26659" lon="-3.7194">
        <ele>606.630402</ele>
        <time>2022-09-02T09:38:30.188Z</time>
      </trkpt>
      <trkpt lat="37.2665" lon="-3.71989">
        <ele>606.410311</ele>
        <time>2022-09-02T09:38:38.670Z</time>
      </trkpt>
      <trkpt lat="37.26623" lon="-3.72059">
        <ele>606.071545</ele>
        <time>2022-09-02T09:38:51.399Z</time>
      </trkpt>
      <trkpt lat="37.266" lon="-3.72175">
        <ele>605.190328</ele>
        <time>2022-09-02T09:39:10.463Z</time>
      </trkpt>
      <trkpt lat="37.26599" lon="-3.72238">
        <ele>604.513752</ele>
        <time>2022-09-02T09:39:20.392Z</time>
      </trkpt>
      <trkpt lat="37.2661" lon="-3.72339">
        <ele>603.435802</ele>
        <time>2022-09-02T09:39:35.825Z</time>
      </trkpt>
      <trkpt lat="37.26639" lon="-3.72492">
        <ele>600.727239</ele>
        <time>2022-09-02T09:39:58.545Z</time>
      </trkpt>
      <trkpt lat="37.26647" lon="-3.72583">
        <ele>599.150692</ele>
        <time>2022-09-02T09:40:11.402Z</time>
      </trkpt>
      <trkpt lat="37.26625" lon="-3.7269">
        <ele>597.241831</ele>
        <time>2022-09-02T09:40:27.127Z</time>
      </trkpt>
      <trkpt lat="37.26589" lon="-3.72803">
        <ele>595.256681</ele>
        <time>2022-09-02T09:40:45.086Z</time>
      </trkpt>
      <trkpt lat="37.2658" lon="-3.72843">
        <ele>594.757098</ele>
        <time>2022-09-02T09:40:51.387Z</time>
      </trkpt>
      <trkpt lat="37.26573" lon="-3.73008">
        <ele>592.784757</ele>
        <time>2022-09-02T09:41:16.570Z</time>
      </trkpt>
      <trkpt lat="37.26498" lon="-3.73181">
        <ele>590.756346</ele>
        <time>2022-09-02T09:41:46.632Z</time>
      </trkpt>
      <trkpt lat="37.26393" lon="-3.73295">
        <ele>590.608804</ele>
        <time>2022-09-02T09:42:15.414Z</time>
      </trkpt>
      <trkpt lat="37.26321" lon="-3.73341">
        <ele>590.964059</ele>
        <time>2022-09-02T09:42:38.774Z</time>
      </trkpt>
      <trkpt lat="37.26259" lon="-3.7337">
        <ele>591.908636</ele>
        <time>2022-09-02T09:43:00.440Z</time>
      </trkpt>
      <trkpt lat="37.26201" lon="-3.73409">
        <ele>592.849409</ele>
        <time>2022-09-02T09:43:21.456Z</time>
      </trkpt>
      <trkpt lat="37.26181" lon="-3.73437">
        <ele>593.159631</ele>
        <time>2022-09-02T09:43:29.430Z</time>
      </trkpt>
      <trkpt lat="37.26146" lon="-3.73551">
        <ele>591.718949</ele>
        <time>2022-09-02T09:43:49.014Z</time>
      </trkpt>
      <trkpt lat="37.26126" lon="-3.73656">
        <ele>590.380836</ele>
        <time>2022-09-02T09:44:03.940Z</time>
      </trkpt>
      <trkpt lat="37.26131" lon="-3.73696">
        <ele>589.617383</ele>
        <time>2022-09-02T09:44:09.351Z</time>
      </trkpt>
      <trkpt lat="37.26161" lon="-3.73791">
        <ele>587.638607</ele>
        <time>2022-09-02T09:44:23.387Z</time>
      </trkpt>
      <trkpt lat="37.26167" lon="-3.7384">
        <ele>586.700285</ele>
        <time>2022-09-02T09:44:30.532Z</time>
      </trkpt>
      <trkpt lat="37.2618" lon="-3.7422">
        <ele>585.577737</ele>
        <time>2022-09-02T09:45:33.976Z</time>
      </trkpt>
      <trkpt lat="37.26178" lon="-3.74342">
        <ele>586.411002</ele>
        <time>2022-09-02T09:46:03.249Z</time>
      </trkpt>
      <trkpt lat="37.26172" lon="-3.74528">
        <ele>589.97149</ele>
        <time>2022-09-02T09:46:54.741Z</time>
      </trkpt>
      <trkpt lat="37.26174" lon="-3.74555">
        <ele>590.533535</ele>
        <time>2022-09-02T09:47:02.586Z</time>
      </trkpt>
      <trkpt lat="37.26194" lon="-3.74613">
        <ele>592.031049</ele>
        <time>2022-09-02T09:47:21.800Z</time>
      </trkpt>
      <trkpt lat="37.26197" lon="-3.74639">
        <ele>592.631919</ele>
        <time>2022-09-02T09:47:29.680Z</time>
      </trkpt>
      <trkpt lat="37.26193" lon="-3.74683">
        <ele>593.682368</ele>
        <time>2022-09-02T09:47:43.762Z</time>
      </trkpt>
      <trkpt lat="37.26157" lon="-3.74883">
        <ele>597.674693</ele>
        <time>2022-09-02T09:48:41.568Z</time>
      </trkpt>
      <trkpt lat="37.26151" lon="-3.74893">
        <ele>597.886563</ele>
        <time>2022-09-02T09:48:44.103Z</time>
      </trkpt>
      <trkpt lat="37.26073" lon="-3.74963">
        <ele>599.744328</ele>
        <time>2022-09-02T09:49:13.068Z</time>
      </trkpt>
      <trkpt lat="37.25969" lon="-3.75076">
        <ele>601.764215</ele>
        <time>2022-09-02T09:49:52.415Z</time>
      </trkpt>
      <trkpt lat="37.25793" lon="-3.75206">
        <ele>604.598925</ele>
        <time>2022-09-02T09:50:57.246Z</time>
      </trkpt>
      <trkpt lat="37.25765" lon="-3.75219">
        <ele>604.024544</ele>
        <time>2022-09-02T09:51:03.445Z</time>
      </trkpt>
      <trkpt lat="37.25753" lon="-3.7522">
        <ele>603.798227</ele>
        <time>2022-09-02T09:51:05.749Z</time>
      </trkpt>
      <trkpt lat="37.25637" lon="-3.75171">
        <ele>601.481963</ele>
        <time>2022-09-02T09:51:26.984Z</time>
      </trkpt>
      <trkpt lat="37.25553" lon="-3.75123">
        <ele>599.548891</ele>
        <time>2022-09-02T09:51:43.019Z</time>
      </trkpt>
      <trkpt lat="37.25523" lon="-3.75109">
        <ele>598.878701</ele>
        <time>2022-09-02T09:51:48.914Z</time>
      </trkpt>
      <trkpt lat="37.25529" lon="-3.75126">
        <ele>598.565116</ele>
        <time>2022-09-02T09:51:51.790Z</time>
      </trkpt>
      <trkpt lat="37.25578" lon="-3.75239">
        <ele>596.788041</ele>
        <time>2022-09-02T09:52:12.129Z</time>
      </trkpt>
      <trkpt lat="37.25644" lon="-3.75335">
        <ele>595.358106</ele>
        <time>2022-09-02T09:52:32.172Z</time>
      </trkpt>
      <trkpt lat="37.25694" lon="-3.75394">
        <ele>593.048446</ele>
        <time>2022-09-02T09:52:44.445Z</time>
      </trkpt>
      <trkpt lat="37.25595" lon="-3.75505">
        <ele>587.138734</ele>
        <time>2022-09-02T09:53:05.300Z</time>
      </trkpt>
      <trkpt lat="37.25553" lon="-3.75551">
        <ele>584.078961</ele>
        <time>2022-09-02T09:53:13.795Z</time>
      </trkpt>
      <trkpt lat="37.2553" lon="-3.75578">
        <ele>582.361029</ele>
        <time>2022-09-02T09:53:18.797Z</time>
      </trkpt>
      <trkpt lat="37.25505" lon="-3.75607">
        <ele>580.475052</ele>
        <time>2022-09-02T09:53:24.364Z</time>
      </trkpt>
      <trkpt lat="37.25472" lon="-3.75645">
        <ele>577.976604</ele>
        <time>2022-09-02T09:53:31.784Z</time>
      </trkpt>
      <trkpt lat="37.25493" lon="-3.75673">
        <ele>576.661002</ele>
        <time>2022-09-02T09:53:37.037Z</time>
      </trkpt>
      <trkpt lat="37.25507" lon="-3.7569">
        <ele>576.174273</ele>
        <time>2022-09-02T09:53:40.292Z</time>
      </trkpt>
      <trkpt lat="37.2553" lon="-3.7572">
        <ele>575.294583</ele>
        <time>2022-09-02T09:53:46.341Z</time>
      </trkpt>
      <trkpt lat="37.2555" lon="-3.75759">
        <ele>574.341754</ele>
        <time>2022-09-02T09:53:53.287Z</time>
      </trkpt>
      <trkpt lat="37.25572" lon="-3.75809">
        <ele>573.159126</ele>
        <time>2022-09-02T09:54:02.501Z</time>
      </trkpt>
      <trkpt lat="37.25597" lon="-3.75862">
        <ele>572.06052</ele>
        <time>2022-09-02T09:54:12.425Z</time>
      </trkpt>
      <trkpt lat="37.25638" lon="-3.75953">
        <ele>570.711097</ele>
        <time>2022-09-02T09:54:28.678Z</time>
      </trkpt>
      <trkpt lat="37.25691" lon="-3.76075">
        <ele>568.95005</ele>
        <time>2022-09-02T09:55:05.422Z</time>
      </trkpt>
      <trkpt lat="37.25741" lon="-3.76188">
        <ele>567.387562</ele>
        <time>2022-09-02T09:55:39.805Z</time>
      </trkpt>
      <trkpt lat="37.25802" lon="-3.76315">
        <ele>565.567383</ele>
        <time>2022-09-02T09:56:03.290Z</time>
      </trkpt>
      <trkpt lat="37.25796" lon="-3.76322">
        <ele>565.449011</ele>
        <time>2022-09-02T09:56:04.718Z</time>
      </trkpt>
      <trkpt lat="37.25818" lon="-3.76382">
        <ele>564.62978</ele>
        <time>2022-09-02T09:56:22.116Z</time>
      </trkpt>
      <trkpt lat="37.25911" lon="-3.76653">
        <ele>561.534595</ele>
        <time>2022-09-02T09:57:41.315Z</time>
      </trkpt>
      <trkpt lat="37.25944" lon="-3.76769">
        <ele>560.969946</ele>
        <time>2022-09-02T09:58:15.430Z</time>
      </trkpt>
      <trkpt lat="37.2594" lon="-3.76801">
        <ele>560.824668</ele>
        <time>2022-09-02T09:58:24.404Z</time>
      </trkpt>
      <trkpt lat="37.2596" lon="-3.76812">
        <ele>560.694147</ele>
        <time>2022-09-02T09:58:29.381Z</time>
      </trkpt>
      <trkpt lat="37.26001" lon="-3.76832">
        <ele>560.723158</ele>
        <time>2022-09-02T09:58:39.101Z</time>
      </trkpt>
      <trkpt lat="37.26107" lon="-3.76884">
        <ele>561.884691</ele>
        <time>2022-09-02T09:59:10.034Z</time>
      </trkpt>
      <trkpt lat="37.26137" lon="-3.76908">
        <ele>562.246588</ele>
        <time>2022-09-02T09:59:20.797Z</time>
      </trkpt>
      <trkpt lat="37.26151" lon="-3.76912">
        <ele>562.405172</ele>
        <time>2022-09-02T09:59:25.741Z</time>
      </trkpt>
      <trkpt lat="37.26153" lon="-3.7691">
        <ele>562.438513</ele>
        <time>2022-09-02T09:59:26.371Z</time>
      </trkpt>
      <trkpt lat="37.26157" lon="-3.76909">
        <ele>562.51189</ele>
        <time>2022-09-02T09:59:27.754Z</time>
      </trkpt>
      <trkpt lat="37.26173" lon="-3.76915">
        <ele>562.775331</ele>
        <time>2022-09-02T09:59:32.537Z</time>
      </trkpt>
      <trkpt lat="37.26177" lon="-3.76926">
        <ele>562.934079</ele>
        <time>2022-09-02T09:59:35.836Z</time>
      </trkpt>
      <trkpt lat="37.26176" lon="-3.76938">
        <ele>563.093632</ele>
        <time>2022-09-02T09:59:38.905Z</time>
      </trkpt>
      <trkpt lat="37.2617" lon="-3.76948">
        <ele>563.253612</ele>
        <time>2022-09-02T09:59:41.756Z</time>
      </trkpt>
      <trkpt lat="37.26161" lon="-3.76952">
        <ele>563.415584</ele>
        <time>2022-09-02T09:59:44.672Z</time>
      </trkpt>
      <trkpt lat="37.26137" lon="-3.76981">
        <ele>563.958044</ele>
        <time>2022-09-02T09:59:55.014Z</time>
      </trkpt>
      <trkpt lat="37.26128" lon="-3.77004">
        <ele>564.296054</ele>
        <time>2022-09-02T10:00:01.713Z</time>
      </trkpt>
      <trkpt lat="37.26096" lon="-3.77085">
        <ele>565.427446</ele>
        <time>2022-09-02T10:00:23.545Z</time>
      </trkpt>
      <trkpt lat="37.26096" lon="-3.77117">
        <ele>565.72262</ele>
        <time>2022-09-02T10:00:30.261Z</time>
      </trkpt>
      <trkpt lat="37.261" lon="-3.77134">
        <ele>565.881735</ele>
        <time>2022-09-02T10:00:34.190Z</time>
      </trkpt>
      <trkpt lat="37.26097" lon="-3.77143">
        <ele>565.97243</ele>
        <time>2022-09-02T10:00:36.430Z</time>
      </trkpt>
      <trkpt lat="37.26086" lon="-3.77151">
        <ele>566.116298</ele>
        <time>2022-09-02T10:00:39.660Z</time>
      </trkpt>
      <trkpt lat="37.26073" lon="-3.7717">
        <ele>566.346624</ele>
        <time>2022-09-02T10:00:45.471Z</time>
      </trkpt>
      <trkpt lat="37.26062" lon="-3.77216">
        <ele>566.786054</ele>
        <time>2022-09-02T10:00:55.996Z</time>
      </trkpt>
      <trkpt lat="37.25894" lon="-3.7818">
        <ele>574.444069</ele>
        <time>2022-09-02T10:04:27.782Z</time>
      </trkpt>
      <trkpt lat="37.25889" lon="-3.78206">
        <ele>574.714817</ele>
        <time>2022-09-02T10:04:34.581Z</time>
      </trkpt>
      <trkpt lat="37.25888" lon="-3.78211">
        <ele>574.765442</ele>
        <time>2022-09-02T10:04:35.789Z</time>
      </trkpt>
      <trkpt lat="37.25875" lon="-3.7829">
        <ele>575.558301</ele>
        <time>2022-09-02T10:04:54.999Z</time>
      </trkpt>
      <trkpt lat="37.25855" lon="-3.78404">
        <ele>576.559965</ele>
        <time>2022-09-02T10:05:21.450Z</time>
      </trkpt>
      <trkpt lat="37.25793" lon="-3.7876">
        <ele>577.234695</ele>
        <time>2022-09-02T10:06:27.440Z</time>
      </trkpt>
      <trkpt lat="37.2579" lon="-3.7878">
        <ele>577.255955</ele>
        <time>2022-09-02T10:06:31.277Z</time>
      </trkpt>
      <trkpt lat="37.25781" lon="-3.7883">
        <ele>577.31976</ele>
        <time>2022-09-02T10:06:40.800Z</time>
      </trkpt>
      <trkpt lat="37.25778" lon="-3.7885">
        <ele>577.381457</ele>
        <time>2022-09-02T10:06:44.422Z</time>
      </trkpt>
      <trkpt lat="37.25776" lon="-3.78858">
        <ele>577.409454</ele>
        <time>2022-09-02T10:06:46.073Z</time>
      </trkpt>
      <trkpt lat="37.25771" lon="-3.78887">
        <ele>577.50116</ele>
        <time>2022-09-02T10:06:51.440Z</time>
      </trkpt>
      <trkpt lat="37.25762" lon="-3.78941">
        <ele>577.676775</ele>
        <time>2022-09-02T10:07:02.519Z</time>
      </trkpt>
      <trkpt lat="37.25759" lon="-3.7896">
        <ele>577.736626</ele>
        <time>2022-09-02T10:07:06.420Z</time>
      </trkpt>
      <trkpt lat="37.25741" lon="-3.79066">
        <ele>577.966776</ele>
        <time>2022-09-02T10:07:28.034Z</time>
      </trkpt>
      <trkpt lat="37.25735" lon="-3.79094">
        <ele>577.895535</ele>
        <time>2022-09-02T10:07:33.328Z</time>
      </trkpt>
      <trkpt lat="37.2573" lon="-3.79126">
        <ele>577.817402</ele>
        <time>2022-09-02T10:07:38.973Z</time>
      </trkpt>
      <trkpt lat="37.25722" lon="-3.79175">
        <ele>577.694812</ele>
        <time>2022-09-02T10:07:47.479Z</time>
      </trkpt>
      <trkpt lat="37.25716" lon="-3.79208">
        <ele>577.613402</ele>
        <time>2022-09-02T10:07:53.075Z</time>
      </trkpt>
      <trkpt lat="37.2571" lon="-3.79242">
        <ele>577.529663</ele>
        <time>2022-09-02T10:07:58.695Z</time>
      </trkpt>
      <trkpt lat="37.25703" lon="-3.79285">
        <ele>577.240891</ele>
        <time>2022-09-02T10:08:05.917Z</time>
      </trkpt>
      <trkpt lat="37.25696" lon="-3.79324">
        <ele>576.762335</ele>
        <time>2022-09-02T10:08:11.973Z</time>
      </trkpt>
      <trkpt lat="37.25689" lon="-3.79367">
        <ele>576.218666</ele>
        <time>2022-09-02T10:08:18.644Z</time>
      </trkpt>
      <trkpt lat="37.25657" lon="-3.79549">
        <ele>573.683503</ele>
        <time>2022-09-02T10:08:46.147Z</time>
      </trkpt>
      <trkpt lat="37.25655" lon="-3.79558">
        <ele>573.526296</ele>
        <time>2022-09-02T10:08:47.553Z</time>
      </trkpt>
      <trkpt lat="37.25635" lon="-3.79677">
        <ele>571.532682</ele>
        <time>2022-09-02T10:09:05.303Z</time>
      </trkpt>
      <trkpt lat="37.25627" lon="-3.79722">
        <ele>570.707071</ele>
        <time>2022-09-02T10:09:11.910Z</time>
      </trkpt>
      <trkpt lat="37.25625" lon="-3.79735">
        <ele>570.415648</ele>
        <time>2022-09-02T10:09:13.833Z</time>
      </trkpt>
      <trkpt lat="37.25608" lon="-3.7984">
        <ele>568.109511</ele>
        <time>2022-09-02T10:09:28.636Z</time>
      </trkpt>
      <trkpt lat="37.25596" lon="-3.79911">
        <ele>566.554099</ele>
        <time>2022-09-02T10:09:38.665Z</time>
      </trkpt>
      <trkpt lat="37.25585" lon="-3.79977">
        <ele>565.390668</ele>
        <time>2022-09-02T10:09:48.190Z</time>
      </trkpt>
      <trkpt lat="37.25577" lon="-3.80027">
        <ele>564.610739</ele>
        <time>2022-09-02T10:09:55.374Z</time>
      </trkpt>
      <trkpt lat="37.25571" lon="-3.80061">
        <ele>564.065035</ele>
        <time>2022-09-02T10:10:00.428Z</time>
      </trkpt>
      <trkpt lat="37.25569" lon="-3.80073">
        <ele>563.881994</ele>
        <time>2022-09-02T10:10:02.178Z</time>
      </trkpt>
      <trkpt lat="37.2556" lon="-3.80128">
        <ele>563.015674</ele>
        <time>2022-09-02T10:10:10.596Z</time>
      </trkpt>
      <trkpt lat="37.25543" lon="-3.80233">
        <ele>562.422328</ele>
        <time>2022-09-02T10:10:28.371Z</time>
      </trkpt>
      <trkpt lat="37.25541" lon="-3.80243">
        <ele>562.396429</ele>
        <time>2022-09-02T10:10:30.073Z</time>
      </trkpt>
      <trkpt lat="37.25525" lon="-3.80342">
        <ele>562.126747</ele>
        <time>2022-09-02T10:10:47.874Z</time>
      </trkpt>
      <trkpt lat="37.25509" lon="-3.80445">
        <ele>561.863419</ele>
        <time>2022-09-02T10:11:06.325Z</time>
      </trkpt>
      <trkpt lat="37.25499" lon="-3.80503">
        <ele>561.71981</ele>
        <time>2022-09-02T10:11:16.088Z</time>
      </trkpt>
      <trkpt lat="37.25486" lon="-3.80586">
        <ele>561.515046</ele>
        <time>2022-09-02T10:11:30.303Z</time>
      </trkpt>
      <trkpt lat="37.25475" lon="-3.80657">
        <ele>561.831213</ele>
        <time>2022-09-02T10:11:42.871Z</time>
      </trkpt>
      <trkpt lat="37.25471" lon="-3.80681">
        <ele>561.960231</ele>
        <time>2022-09-02T10:11:47.188Z</time>
      </trkpt>
      <trkpt lat="37.25448" lon="-3.80823">
        <ele>562.828116</ele>
        <time>2022-09-02T10:12:18.137Z</time>
      </trkpt>
      <trkpt lat="37.25379" lon="-3.81235">
        <ele>570.90785</ele>
        <time>2022-09-02T10:14:17.596Z</time>
      </trkpt>
      <trkpt lat="37.25252" lon="-3.81953">
        <ele>577.19049</ele>
        <time>2022-09-02T10:16:57.514Z</time>
      </trkpt>
      <trkpt lat="37.25186" lon="-3.82319">
        <ele>579.92903</ele>
        <time>2022-09-02T10:18:13.667Z</time>
      </trkpt>
      <trkpt lat="37.25077" lon="-3.8293">
        <ele>591.673174</ele>
        <time>2022-09-02T10:21:06.927Z</time>
      </trkpt>
      <trkpt lat="37.25068" lon="-3.82985">
        <ele>592.76939</ele>
        <time>2022-09-02T10:21:22.524Z</time>
      </trkpt>
      <trkpt lat="37.25064" lon="-3.83005">
        <ele>593.164264</ele>
        <time>2022-09-02T10:21:28.183Z</time>
      </trkpt>
      <trkpt lat="37.25058" lon="-3.8304">
        <ele>593.772934</ele>
        <time>2022-09-02T10:21:38.039Z</time>
      </trkpt>
      <trkpt lat="37.25056" lon="-3.8305">
        <ele>593.910598</ele>
        <time>2022-09-02T10:21:40.708Z</time>
      </trkpt>
      <trkpt lat="37.25" lon="-3.83358">
        <ele>597.113497</ele>
        <time>2022-09-02T10:22:56.991Z</time>
      </trkpt>
      <trkpt lat="37.24998" lon="-3.83389">
        <ele>597.220458</ele>
        <time>2022-09-02T10:23:02.800Z</time>
      </trkpt>
      <trkpt lat="37.24992" lon="-3.8422">
        <ele>590.432091</ele>
        <time>2022-09-02T10:25:11.190Z</time>
      </trkpt>
      <trkpt lat="37.24991" lon="-3.84696">
        <ele>591.076824</ele>
        <time>2022-09-02T10:26:35.899Z</time>
      </trkpt>
      <trkpt lat="37.25016" lon="-3.84791">
        <ele>592.234345</ele>
        <time>2022-09-02T10:27:03.274Z</time>
      </trkpt>
      <trkpt lat="37.25046" lon="-3.84875">
        <ele>593.931955</ele>
        <time>2022-09-02T10:27:29.968Z</time>
      </trkpt>
      <trkpt lat="37.25056" lon="-3.84906">
        <ele>594.654692</ele>
        <time>2022-09-02T10:27:40.328Z</time>
      </trkpt>
      <trkpt lat="37.25061" lon="-3.84941">
        <ele>595.396935</ele>
        <time>2022-09-02T10:27:50.820Z</time>
      </trkpt>
      <trkpt lat="37.25078" lon="-3.85193">
        <ele>599.613962</ele>
        <time>2022-09-02T10:28:58.280Z</time>
      </trkpt>
      <trkpt lat="37.25101" lon="-3.85234">
        <ele>600.329761</ele>
        <time>2022-09-02T10:29:09.121Z</time>
      </trkpt>
      <trkpt lat="37.2513" lon="-3.85284">
        <ele>600.422194</ele>
        <time>2022-09-02T10:29:21.384Z</time>
      </trkpt>
      <trkpt lat="37.25141" lon="-3.85313">
        <ele>600.362097</ele>
        <time>2022-09-02T10:29:27.512Z</time>
      </trkpt>
      <trkpt lat="37.25143" lon="-3.85358">
        <ele>600.279492</ele>
        <time>2022-09-02T10:29:35.290Z</time>
      </trkpt>
      <trkpt lat="37.25141" lon="-3.85407">
        <ele>600.189371</ele>
        <time>2022-09-02T10:29:43.371Z</time>
      </trkpt>
      <trkpt lat="37.25139" lon="-3.85508">
        <ele>599.830006</ele>
        <time>2022-09-02T10:29:58.963Z</time>
      </trkpt>
      <trkpt lat="37.25133" lon="-3.85542">
        <ele>599.648099</ele>
        <time>2022-09-02T10:30:04.252Z</time>
      </trkpt>
      <trkpt lat="37.25082" lon="-3.85674">
        <ele>598.928048</ele>
        <time>2022-09-02T10:30:28.859Z</time>
      </trkpt>
      <trkpt lat="37.25079" lon="-3.85682">
        <ele>598.966228</ele>
        <time>2022-09-02T10:30:30.405Z</time>
      </trkpt>
      <trkpt lat="37.25068" lon="-3.8575">
        <ele>599.282798</ele>
        <time>2022-09-02T10:30:44.106Z</time>
      </trkpt>
      <trkpt lat="37.25061" lon="-3.85794">
        <ele>599.484182</ele>
        <time>2022-09-02T10:30:53.392Z</time>
      </trkpt>
      <trkpt lat="37.2506" lon="-3.85798">
        <ele>599.502117</ele>
        <time>2022-09-02T10:30:54.213Z</time>
      </trkpt>
      <trkpt lat="37.25042" lon="-3.85914">
        <ele>599.979694</ele>
        <time>2022-09-02T10:31:19.687Z</time>
      </trkpt>
      <trkpt lat="37.25018" lon="-3.86078">
        <ele>600.355248</ele>
        <time>2022-09-02T10:31:51.195Z</time>
      </trkpt>
      <trkpt lat="37.25016" lon="-3.86086">
        <ele>600.373115</ele>
        <time>2022-09-02T10:31:52.601Z</time>
      </trkpt>
      <trkpt lat="37.25005" lon="-3.86153">
        <ele>600.202196</ele>
        <time>2022-09-02T10:32:04.244Z</time>
      </trkpt>
      <trkpt lat="37.25006" lon="-3.86186">
        <ele>600.024647</ele>
        <time>2022-09-02T10:32:09.828Z</time>
      </trkpt>
      <trkpt lat="37.25056" lon="-3.86307">
        <ele>599.287669</ele>
        <time>2022-09-02T10:32:31.772Z</time>
      </trkpt>
      <trkpt lat="37.25063" lon="-3.86347">
        <ele>598.965801</ele>
        <time>2022-09-02T10:32:38.006Z</time>
      </trkpt>
      <trkpt lat="37.25062" lon="-3.86376">
        <ele>598.701791</ele>
        <time>2022-09-02T10:32:42.443Z</time>
      </trkpt>
      <trkpt lat="37.25036" lon="-3.86447">
        <ele>597.976115</ele>
        <time>2022-09-02T10:32:54.517Z</time>
      </trkpt>
      <trkpt lat="37.25032" lon="-3.86485">
        <ele>597.629339</ele>
        <time>2022-09-02T10:33:00.170Z</time>
      </trkpt>
      <trkpt lat="37.25056" lon="-3.86783">
        <ele>596.449683</ele>
        <time>2022-09-02T10:33:49.642Z</time>
      </trkpt>
      <trkpt lat="37.25056" lon="-3.86829">
        <ele>596.875427</ele>
        <time>2022-09-02T10:33:59.129Z</time>
      </trkpt>
      <trkpt lat="37.25048" lon="-3.86856">
        <ele>597.14338</ele>
        <time>2022-09-02T10:34:05.081Z</time>
      </trkpt>
      <trkpt lat="37.25046" lon="-3.86864">
        <ele>597.229747</ele>
        <time>2022-09-02T10:34:06.981Z</time>
      </trkpt>
      <trkpt lat="37.25037" lon="-3.86889">
        <ele>597.478102</ele>
        <time>2022-09-02T10:34:12.683Z</time>
      </trkpt>
      <trkpt lat="37.25037" lon="-3.86914">
        <ele>597.714203</ele>
        <time>2022-09-02T10:34:18.606Z</time>
      </trkpt>
      <trkpt lat="37.24952" lon="-3.87019">
        <ele>600.150105</ele>
        <time>2022-09-02T10:35:00.846Z</time>
      </trkpt>
      <trkpt lat="37.24915" lon="-3.87207">
        <ele>604.856128</ele>
        <time>2022-09-02T10:35:59.601Z</time>
      </trkpt>
      <trkpt lat="37.24883" lon="-3.87304">
        <ele>607.973389</ele>
        <time>2022-09-02T10:36:34.935Z</time>
      </trkpt>
      <trkpt lat="37.24741" lon="-3.87653">
        <ele>619.606339</ele>
        <time>2022-09-02T10:38:52.961Z</time>
      </trkpt>
      <trkpt lat="37.246" lon="-3.88021">
        <ele>624.906709</ele>
        <time>2022-09-02T10:40:32.221Z</time>
      </trkpt>
      <trkpt lat="37.24581" lon="-3.88084">
        <ele>624.869288</ele>
        <time>2022-09-02T10:40:45.290Z</time>
      </trkpt>
      <trkpt lat="37.24547" lon="-3.88279">
        <ele>623.733821</ele>
        <time>2022-09-02T10:41:18.274Z</time>
      </trkpt>
      <trkpt lat="37.24494" lon="-3.88437">
        <ele>621.572912</ele>
        <time>2022-09-02T10:41:44.774Z</time>
      </trkpt>
      <trkpt lat="37.24485" lon="-3.88511">
        <ele>620.472375</ele>
        <time>2022-09-02T10:41:56.144Z</time>
      </trkpt>
      <trkpt lat="37.245" lon="-3.88634">
        <ele>618.644277</ele>
        <time>2022-09-02T10:42:15.575Z</time>
      </trkpt>
      <trkpt lat="37.2455" lon="-3.88822">
        <ele>616.121003</ele>
        <time>2022-09-02T10:42:46.683Z</time>
      </trkpt>
      <trkpt lat="37.2456" lon="-3.88954">
        <ele>614.598412</ele>
        <time>2022-09-02T10:43:07.989Z</time>
      </trkpt>
      <trkpt lat="37.24598" lon="-3.89057">
        <ele>613.311865</ele>
        <time>2022-09-02T10:43:26.124Z</time>
      </trkpt>
      <trkpt lat="37.24631" lon="-3.89246">
        <ele>611.066214</ele>
        <time>2022-09-02T10:43:56.749Z</time>
      </trkpt>
      <trkpt lat="37.24638" lon="-3.89337">
        <ele>610.272105</ele>
        <time>2022-09-02T10:44:11.484Z</time>
      </trkpt>
      <trkpt lat="37.24642" lon="-3.89438">
        <ele>609.54979</ele>
        <time>2022-09-02T10:44:28.512Z</time>
      </trkpt>
      <trkpt lat="37.24634" lon="-3.89478">
        <ele>609.25425</ele>
        <time>2022-09-02T10:44:35.690Z</time>
      </trkpt>
      <trkpt lat="37.2464" lon="-3.89659">
        <ele>608.331686</ele>
        <time>2022-09-02T10:45:06.703Z</time>
      </trkpt>
      <trkpt lat="37.24639" lon="-3.8979">
        <ele>607.826528</ele>
        <time>2022-09-02T10:45:29.379Z</time>
      </trkpt>
      <trkpt lat="37.24633" lon="-3.89887">
        <ele>607.553814</ele>
        <time>2022-09-02T10:45:46.667Z</time>
      </trkpt>
      <trkpt lat="37.24631" lon="-3.90239">
        <ele>606.442062</ele>
        <time>2022-09-02T10:46:49.598Z</time>
      </trkpt>
      <trkpt lat="37.24638" lon="-3.90293">
        <ele>606.046072</ele>
        <time>2022-09-02T10:46:58.662Z</time>
      </trkpt>
      <trkpt lat="37.24641" lon="-3.90493">
        <ele>604.554015</ele>
        <time>2022-09-02T10:47:31.093Z</time>
      </trkpt>
      <trkpt lat="37.24636" lon="-3.9064">
        <ele>603.446336</ele>
        <time>2022-09-02T10:47:55.539Z</time>
      </trkpt>
      <trkpt lat="37.24636" lon="-3.91192">
        <ele>602.078372</ele>
        <time>2022-09-02T10:49:33.065Z</time>
      </trkpt>
      <trkpt lat="37.2466" lon="-3.91281">
        <ele>602.128404</ele>
        <time>2022-09-02T10:49:51.746Z</time>
      </trkpt>
      <trkpt lat="37.24666" lon="-3.91402">
        <ele>602.609981</ele>
        <time>2022-09-02T10:50:16.999Z</time>
      </trkpt>
      <trkpt lat="37.24654" lon="-3.91484">
        <ele>603.004894</ele>
        <time>2022-09-02T10:50:34.616Z</time>
      </trkpt>
      <trkpt lat="37.24589" lon="-3.91577">
        <ele>603.737064</ele>
        <time>2022-09-02T10:51:00.425Z</time>
      </trkpt>
      <trkpt lat="37.2457" lon="-3.9163">
        <ele>604.112184</ele>
        <time>2022-09-02T10:51:12.466Z</time>
      </trkpt>
      <trkpt lat="37.24525" lon="-3.91695">
        <ele>604.678357</ele>
        <time>2022-09-02T10:51:31.780Z</time>
      </trkpt>
      <trkpt lat="37.2446" lon="-3.91744">
        <ele>605.957405</ele>
        <time>2022-09-02T10:51:54.654Z</time>
      </trkpt>
      <trkpt lat="37.24435" lon="-3.91781">
        <ele>606.614125</ele>
        <time>2022-09-02T10:52:06.854Z</time>
      </trkpt>
      <trkpt lat="37.24397" lon="-3.91834">
        <ele>607.570161</ele>
        <time>2022-09-02T10:52:25.486Z</time>
      </trkpt>
      <trkpt lat="37.24349" lon="-3.91985">
        <ele>610.346891</ele>
        <time>2022-09-02T10:53:11.448Z</time>
      </trkpt>
      <trkpt lat="37.24311" lon="-3.92161">
        <ele>612.357192</ele>
        <time>2022-09-02T10:53:57.956Z</time>
      </trkpt>
      <trkpt lat="37.24304" lon="-3.92244">
        <ele>612.901915</ele>
        <time>2022-09-02T10:54:14.991Z</time>
      </trkpt>
      <trkpt lat="37.24314" lon="-3.92265">
        <ele>613.064601</ele>
        <time>2022-09-02T10:54:19.682Z</time>
      </trkpt>
      <trkpt lat="37.24309" lon="-3.92554">
        <ele>610.708254</ele>
        <time>2022-09-02T10:55:04.532Z</time>
      </trkpt>
      <trkpt lat="37.24304" lon="-3.92582">
        <ele>610.402074</ele>
        <time>2022-09-02T10:55:08.920Z</time>
      </trkpt>
      <trkpt lat="37.2425" lon="-3.92778">
        <ele>608.269724</ele>
        <time>2022-09-02T10:55:40.825Z</time>
      </trkpt>
      <trkpt lat="37.24165" lon="-3.92933">
        <ele>606.394379</ele>
        <time>2022-09-02T10:56:10.165Z</time>
      </trkpt>
      <trkpt lat="37.24142" lon="-3.92993">
        <ele>605.587212</ele>
        <time>2022-09-02T10:56:20.356Z</time>
      </trkpt>
      <trkpt lat="37.24125" lon="-3.93048">
        <ele>604.8697</ele>
        <time>2022-09-02T10:56:29.264Z</time>
      </trkpt>
      <trkpt lat="37.24097" lon="-3.93197">
        <ele>602.762393</ele>
        <time>2022-09-02T10:56:51.864Z</time>
      </trkpt>
      <trkpt lat="37.23994" lon="-3.93645">
        <ele>595.111715</ele>
        <time>2022-09-02T10:58:00.002Z</time>
      </trkpt>
      <trkpt lat="37.23987" lon="-3.93857">
        <ele>590.037197</ele>
        <time>2022-09-02T10:58:29.634Z</time>
      </trkpt>
      <trkpt lat="37.2398" lon="-3.93888">
        <ele>589.082234</ele>
        <time>2022-09-02T10:58:33.721Z</time>
      </trkpt>
      <trkpt lat="37.2393" lon="-3.94037">
        <ele>583.741292</ele>
        <time>2022-09-02T10:58:54.596Z</time>
      </trkpt>
      <trkpt lat="37.23919" lon="-3.9409">
        <ele>581.651288</ele>
        <time>2022-09-02T10:59:01.483Z</time>
      </trkpt>
      <trkpt lat="37.2392" lon="-3.94249">
        <ele>575.617359</ele>
        <time>2022-09-02T10:59:21.636Z</time>
      </trkpt>
      <trkpt lat="37.23926" lon="-3.94288">
        <ele>574.207501</ele>
        <time>2022-09-02T10:59:26.690Z</time>
      </trkpt>
      <trkpt lat="37.23955" lon="-3.94378">
        <ele>570.733726</ele>
        <time>2022-09-02T10:59:39.205Z</time>
      </trkpt>
      <trkpt lat="37.24005" lon="-3.94552">
        <ele>565.913013</ele>
        <time>2022-09-02T11:00:03.616Z</time>
      </trkpt>
      <trkpt lat="37.23973" lon="-3.95025">
        <ele>559.737379</ele>
        <time>2022-09-02T11:01:16.514Z</time>
      </trkpt>
      <trkpt lat="37.23967" lon="-3.95235">
        <ele>557.443482</ele>
        <time>2022-09-02T11:01:48.886Z</time>
      </trkpt>
      <trkpt lat="37.23962" lon="-3.95436">
        <ele>555.109863</ele>
        <time>2022-09-02T11:02:19.119Z</time>
      </trkpt>
      <trkpt lat="37.2395" lon="-3.95625">
        <ele>553.341476</ele>
        <time>2022-09-02T11:02:47.994Z</time>
      </trkpt>
      <trkpt lat="37.23959" lon="-3.9575">
        <ele>552.64312</ele>
        <time>2022-09-02T11:03:09.037Z</time>
      </trkpt>
      <trkpt lat="37.23958" lon="-3.95804">
        <ele>552.579006</ele>
        <time>2022-09-02T11:03:18.479Z</time>
      </trkpt>
      <trkpt lat="37.23935" lon="-3.95965">
        <ele>552.985828</ele>
        <time>2022-09-02T11:03:49.555Z</time>
      </trkpt>
      <trkpt lat="37.23923" lon="-3.96002">
        <ele>553.114897</ele>
        <time>2022-09-02T11:03:57.772Z</time>
      </trkpt>
      <trkpt lat="37.23831" lon="-3.96281">
        <ele>555.225648</ele>
        <time>2022-09-02T11:05:02.858Z</time>
      </trkpt>
      <trkpt lat="37.23812" lon="-3.96354">
        <ele>555.745152</ele>
        <time>2022-09-02T11:05:19.440Z</time>
      </trkpt>
      <trkpt lat="37.23806" lon="-3.96354">
        <ele>555.797575</ele>
        <time>2022-09-02T11:05:21.014Z</time>
      </trkpt>
      <trkpt lat="37.23769" lon="-3.96501">
        <ele>556.07455</ele>
        <time>2022-09-02T11:05:51.568Z</time>
      </trkpt>
      <trkpt lat="37.23764" lon="-3.96561">
        <ele>556.000961</ele>
        <time>2022-09-02T11:06:01.917Z</time>
      </trkpt>
      <trkpt lat="37.23762" lon="-3.96602">
        <ele>555.951027</ele>
        <time>2022-09-02T11:06:08.774Z</time>
      </trkpt>
      <trkpt lat="37.23761" lon="-3.96617">
        <ele>555.93382</ele>
        <time>2022-09-02T11:06:11.139Z</time>
      </trkpt>
      <trkpt lat="37.23756" lon="-3.96627">
        <ele>555.919439</ele>
        <time>2022-09-02T11:06:13.045Z</time>
      </trkpt>
      <trkpt lat="37.23751" lon="-3.96647">
        <ele>555.567931</ele>
        <time>2022-09-02T11:06:16.392Z</time>
      </trkpt>
      <trkpt lat="37.23744" lon="-3.96648">
        <ele>555.398317</ele>
        <time>2022-09-02T11:06:17.774Z</time>
      </trkpt>
      <trkpt lat="37.23738" lon="-3.96649">
        <ele>555.250069</ele>
        <time>2022-09-02T11:06:18.960Z</time>
      </trkpt>
      <trkpt lat="37.23723" lon="-3.9665">
        <ele>554.891847</ele>
        <time>2022-09-02T11:06:21.767Z</time>
      </trkpt>
      <trkpt lat="37.23723" lon="-3.96761">
        <ele>552.810882</ele>
        <time>2022-09-02T11:06:37.280Z</time>
      </trkpt>
      <trkpt lat="37.23725" lon="-3.96795">
        <ele>552.156226</ele>
        <time>2022-09-02T11:06:41.986Z</time>
      </trkpt>
      <trkpt lat="37.23726" lon="-3.96804">
        <ele>551.991623</ele>
        <time>2022-09-02T11:06:43.149Z</time>
      </trkpt>
      <trkpt lat="37.23729" lon="-3.96847">
        <ele>551.069341</ele>
        <time>2022-09-02T11:06:49.047Z</time>
      </trkpt>
      <trkpt lat="37.23732" lon="-3.9689">
        <ele>550.086696</ele>
        <time>2022-09-02T11:06:54.910Z</time>
      </trkpt>
      <trkpt lat="37.23735" lon="-3.96933">
        <ele>549.105322</ele>
        <time>2022-09-02T11:07:00.744Z</time>
      </trkpt>
      <trkpt lat="37.2375" lon="-3.97122">
        <ele>545.513741</ele>
        <time>2022-09-02T11:07:27.542Z</time>
      </trkpt>
      <trkpt lat="37.23748" lon="-3.97187">
        <ele>544.693544</ele>
        <time>2022-09-02T11:07:37.366Z</time>
      </trkpt>
      <trkpt lat="37.23746" lon="-3.97218">
        <ele>544.294991</ele>
        <time>2022-09-02T11:07:42.251Z</time>
      </trkpt>
      <trkpt lat="37.23744" lon="-3.97229">
        <ele>544.150276</ele>
        <time>2022-09-02T11:07:44.032Z</time>
      </trkpt>
      <trkpt lat="37.23743" lon="-3.97246">
        <ele>543.92667</ele>
        <time>2022-09-02T11:07:46.831Z</time>
      </trkpt>
      <trkpt lat="37.23743" lon="-3.97254">
        <ele>543.822906</ele>
        <time>2022-09-02T11:07:48.136Z</time>
      </trkpt>
      <trkpt lat="37.23738" lon="-3.97358">
        <ele>543.369961</ele>
        <time>2022-09-02T11:08:05.241Z</time>
      </trkpt>
      <trkpt lat="37.23735" lon="-3.97409">
        <ele>543.235257</ele>
        <time>2022-09-02T11:08:13.695Z</time>
      </trkpt>
      <trkpt lat="37.23733" lon="-3.9744">
        <ele>543.154238</ele>
        <time>2022-09-02T11:08:18.887Z</time>
      </trkpt>
      <trkpt lat="37.23723" lon="-3.97481">
        <ele>543.040012</ele>
        <time>2022-09-02T11:08:26.473Z</time>
      </trkpt>
      <trkpt lat="37.23695" lon="-3.97596">
        <ele>544.042736</ele>
        <time>2022-09-02T11:08:51.019Z</time>
      </trkpt>
      <trkpt lat="37.23685" lon="-3.97679">
        <ele>544.859929</ele>
        <time>2022-09-02T11:09:10.672Z</time>
      </trkpt>
      <trkpt lat="37.23672" lon="-3.9781">
        <ele>547.323758</ele>
        <time>2022-09-02T11:09:47.463Z</time>
      </trkpt>
      <trkpt lat="37.23705" lon="-3.97982">
        <ele>551.093796</ele>
        <time>2022-09-02T11:10:40.524Z</time>
      </trkpt>
      <trkpt lat="37.23699" lon="-3.98001">
        <ele>551.485504</ele>
        <time>2022-09-02T11:10:46.364Z</time>
      </trkpt>
      <trkpt lat="37.23685" lon="-3.98024">
        <ele>552.042077</ele>
        <time>2022-09-02T11:10:54.415Z</time>
      </trkpt>
      <trkpt lat="37.23614" lon="-3.9814">
        <ele>554.78801</ele>
        <time>2022-09-02T11:11:32.764Z</time>
      </trkpt>
      <trkpt lat="37.23551" lon="-3.98303">
        <ele>557.396093</ele>
        <time>2022-09-02T11:12:17.570Z</time>
      </trkpt>
      <trkpt lat="37.23527" lon="-3.98412">
        <ele>558.879182</ele>
        <time>2022-09-02T11:12:45.111Z</time>
      </trkpt>
      <trkpt lat="37.23513" lon="-3.98506">
        <ele>560.100407</ele>
        <time>2022-09-02T11:13:07.877Z</time>
      </trkpt>
      <trkpt lat="37.23502" lon="-3.98689">
        <ele>562.36508</ele>
        <time>2022-09-02T11:13:51.687Z</time>
      </trkpt>
      <trkpt lat="37.23499" lon="-3.98725">
        <ele>562.812327</ele>
        <time>2022-09-02T11:14:00.713Z</time>
      </trkpt>
      <trkpt lat="37.23407" lon="-3.98995">
        <ele>565.353972</ele>
        <time>2022-09-02T11:15:08.792Z</time>
      </trkpt>
      <trkpt lat="37.23357" lon="-3.99258">
        <ele>563.346327</ele>
        <time>2022-09-02T11:15:50.313Z</time>
      </trkpt>
      <trkpt lat="37.23305" lon="-3.9942">
        <ele>561.952855</ele>
        <time>2022-09-02T11:16:17.502Z</time>
      </trkpt>
      <trkpt lat="37.2327" lon="-3.99471">
        <ele>561.959026</ele>
        <time>2022-09-02T11:16:30.292Z</time>
      </trkpt>
      <trkpt lat="37.23187" lon="-3.99548">
        <ele>561.970853</ele>
        <time>2022-09-02T11:16:55.956Z</time>
      </trkpt>
      <trkpt lat="37.23175" lon="-3.9957">
        <ele>561.723165</ele>
        <time>2022-09-02T11:17:01.394Z</time>
      </trkpt>
      <trkpt lat="37.23162" lon="-3.99611">
        <ele>560.3815</ele>
        <time>2022-09-02T11:17:08.392Z</time>
      </trkpt>
      <trkpt lat="37.23155" lon="-3.99674">
        <ele>558.433552</ele>
        <time>2022-09-02T11:17:17.348Z</time>
      </trkpt>
      <trkpt lat="37.2314" lon="-3.99734">
        <ele>556.525513</ele>
        <time>2022-09-02T11:17:25.499Z</time>
      </trkpt>
      <trkpt lat="37.22964" lon="-4.00057">
        <ele>533.534298</ele>
        <time>2022-09-02T11:18:10.690Z</time>
      </trkpt>
      <trkpt lat="37.22934" lon="-4.00106">
        <ele>530.246148</ele>
        <time>2022-09-02T11:18:18.221Z</time>
      </trkpt>
      <trkpt lat="37.22897" lon="-4.0015">
        <ele>527.715312</ele>
        <time>2022-09-02T11:18:26.601Z</time>
      </trkpt>
      <trkpt lat="37.22882" lon="-4.00167">
        <ele>527.636963</ele>
        <time>2022-09-02T11:18:30.121Z</time>
      </trkpt>
      <trkpt lat="37.22815" lon="-4.00248">
        <ele>527.273805</ele>
        <time>2022-09-02T11:18:49.726Z</time>
      </trkpt>
      <trkpt lat="37.22801" lon="-4.00271">
        <ele>527.185705</ele>
        <time>2022-09-02T11:18:56.751Z</time>
      </trkpt>
      <trkpt lat="37.2275" lon="-4.00391">
        <ele>529.464458</ele>
        <time>2022-09-02T11:19:37.040Z</time>
      </trkpt>
      <trkpt lat="37.22717" lon="-4.00434">
        <ele>530.883887</ele>
        <time>2022-09-02T11:19:56.055Z</time>
      </trkpt>
      <trkpt lat="37.22639" lon="-4.00516">
        <ele>533.473831</ele>
        <time>2022-09-02T11:20:33.856Z</time>
      </trkpt>
      <trkpt lat="37.22624" lon="-4.00544">
        <ele>534.029632</ele>
        <time>2022-09-02T11:20:43.468Z</time>
      </trkpt>
      <trkpt lat="37.22521" lon="-4.00793">
        <ele>537.888642</ele>
        <time>2022-09-02T11:21:49.045Z</time>
      </trkpt>
      <trkpt lat="37.22505" lon="-4.00814">
        <ele>538.223573</ele>
        <time>2022-09-02T11:21:56.114Z</time>
      </trkpt>
      <trkpt lat="37.22416" lon="-4.00887">
        <ele>539.007786</ele>
        <time>2022-09-02T11:22:27.167Z</time>
      </trkpt>
      <trkpt lat="37.2235" lon="-4.0096">
        <ele>539.321052</ele>
        <time>2022-09-02T11:22:48.435Z</time>
      </trkpt>
      <trkpt lat="37.22287" lon="-4.01013">
        <ele>538.076112</ele>
        <time>2022-09-02T11:23:02.731Z</time>
      </trkpt>
      <trkpt lat="37.2225" lon="-4.01036">
        <ele>537.049451</ele>
        <time>2022-09-02T11:23:09.917Z</time>
      </trkpt>
      <trkpt lat="37.22234" lon="-4.01056">
        <ele>536.465004</ele>
        <time>2022-09-02T11:23:14.183Z</time>
      </trkpt>
      <trkpt lat="37.22213" lon="-4.0107">
        <ele>535.882474</ele>
        <time>2022-09-02T11:23:18.338Z</time>
      </trkpt>
      <trkpt lat="37.22186" lon="-4.01088">
        <ele>535.11476</ele>
        <time>2022-09-02T11:23:23.736Z</time>
      </trkpt>
      <trkpt lat="37.22167" lon="-4.011">
        <ele>534.377265</ele>
        <time>2022-09-02T11:23:27.557Z</time>
      </trkpt>
      <trkpt lat="37.22158" lon="-4.01106">
        <ele>533.968399</ele>
        <time>2022-09-02T11:23:29.300Z</time>
      </trkpt>
      <trkpt lat="37.22139" lon="-4.01105">
        <ele>533.187049</ele>
        <time>2022-09-02T11:23:32.629Z</time>
      </trkpt>
      <trkpt lat="37.22112" lon="-4.01113">
        <ele>532.074685</ele>
        <time>2022-09-02T11:23:37.297Z</time>
      </trkpt>
      <trkpt lat="37.22091" lon="-4.01107">
        <ele>531.186674</ele>
        <time>2022-09-02T11:23:41.004Z</time>
      </trkpt>
      <trkpt lat="37.22076" lon="-4.01097">
        <ele>530.464377</ele>
        <time>2022-09-02T11:23:44.091Z</time>
      </trkpt>
      <trkpt lat="37.22061" lon="-4.0109">
        <ele>529.83364</ele>
        <time>2022-09-02T11:23:46.713Z</time>
      </trkpt>
      <trkpt lat="37.22019" lon="-4.01091">
        <ele>528.124201</ele>
        <time>2022-09-02T11:23:53.910Z</time>
      </trkpt>
      <trkpt lat="37.2194" lon="-4.01098">
        <ele>524.3956</ele>
        <time>2022-09-02T11:24:07.254Z</time>
      </trkpt>
      <trkpt lat="37.21877" lon="-4.01111">
        <ele>521.315953</ele>
        <time>2022-09-02T11:24:17.828Z</time>
      </trkpt>
      <trkpt lat="37.21864" lon="-4.01117">
        <ele>520.626805</ele>
        <time>2022-09-02T11:24:20.081Z</time>
      </trkpt>
      <trkpt lat="37.21845" lon="-4.01121">
        <ele>519.720321</ele>
        <time>2022-09-02T11:24:23.053Z</time>
      </trkpt>
      <trkpt lat="37.21775" lon="-4.01139">
        <ele>515.915869</ele>
        <time>2022-09-02T11:24:34.509Z</time>
      </trkpt>
      <trkpt lat="37.21722" lon="-4.01149">
        <ele>512.98944</ele>
        <time>2022-09-02T11:24:42.945Z</time>
      </trkpt>
      <trkpt lat="37.21661" lon="-4.01151">
        <ele>509.653092</ele>
        <time>2022-09-02T11:24:52.361Z</time>
      </trkpt>
      <trkpt lat="37.21597" lon="-4.01148">
        <ele>506.408628</ele>
        <time>2022-09-02T11:25:02.233Z</time>
      </trkpt>
      <trkpt lat="37.21548" lon="-4.01157">
        <ele>503.952804</ele>
        <time>2022-09-02T11:25:10.062Z</time>
      </trkpt>
      <trkpt lat="37.21527" lon="-4.01163">
        <ele>502.890522</ele>
        <time>2022-09-02T11:25:13.479Z</time>
      </trkpt>
      <trkpt lat="37.21498" lon="-4.01191">
        <ele>501.060923</ele>
        <time>2022-09-02T11:25:19.693Z</time>
      </trkpt>
      <trkpt lat="37.21481" lon="-4.01239">
        <ele>499.692851</ele>
        <time>2022-09-02T11:25:26.933Z</time>
      </trkpt>
      <trkpt lat="37.21471" lon="-4.01255">
        <ele>499.413185</ele>
        <time>2022-09-02T11:25:29.805Z</time>
      </trkpt>
      <trkpt lat="37.21467" lon="-4.0126">
        <ele>499.318056</ele>
        <time>2022-09-02T11:25:30.756Z</time>
      </trkpt>
      <trkpt lat="37.21461" lon="-4.01282">
        <ele>498.989073</ele>
        <time>2022-09-02T11:25:34.267Z</time>
      </trkpt>
      <trkpt lat="37.21456" lon="-4.01299">
        <ele>498.733094</ele>
        <time>2022-09-02T11:25:37.009Z</time>
      </trkpt>
      <trkpt lat="37.2145" lon="-4.01329">
        <ele>498.297968</ele>
        <time>2022-09-02T11:25:42.027Z</time>
      </trkpt>
      <trkpt lat="37.21428" lon="-4.01326">
        <ele>497.917227</ele>
        <time>2022-09-02T11:25:46.445Z</time>
      </trkpt>
      <trkpt lat="37.21414" lon="-4.01425">
        <ele>496.902638</ele>
        <time>2022-09-02T11:26:04.887Z</time>
      </trkpt>
      <trkpt lat="37.2141" lon="-4.01459">
        <ele>496.871435</ele>
        <time>2022-09-02T11:26:10.808Z</time>
      </trkpt>
      <trkpt lat="37.21407" lon="-4.01475">
        <ele>496.856842</ele>
        <time>2022-09-02T11:26:13.838Z</time>
      </trkpt>
      <trkpt lat="37.21398" lon="-4.01545">
        <ele>496.791862</ele>
        <time>2022-09-02T11:26:26.178Z</time>
      </trkpt>
      <trkpt lat="37.21402" lon="-4.01599">
        <ele>496.742688</ele>
        <time>2022-09-02T11:26:35.815Z</time>
      </trkpt>
      <trkpt lat="37.21426" lon="-4.01743">
        <ele>495.913111</ele>
        <time>2022-09-02T11:27:01.004Z</time>
      </trkpt>
      <trkpt lat="37.21445" lon="-4.01861">
        <ele>494.93822</ele>
        <time>2022-09-02T11:27:19.297Z</time>
      </trkpt>
      <trkpt lat="37.2148" lon="-4.02057">
        <ele>491.814677</ele>
        <time>2022-09-02T11:27:48.825Z</time>
      </trkpt>
      <trkpt lat="37.21483" lon="-4.0207">
        <ele>491.601554</ele>
        <time>2022-09-02T11:27:50.749Z</time>
      </trkpt>
      <trkpt lat="37.21489" lon="-4.02106">
        <ele>491.019296</ele>
        <time>2022-09-02T11:27:55.792Z</time>
      </trkpt>
      <trkpt lat="37.2149" lon="-4.02129">
        <ele>490.658348</ele>
        <time>2022-09-02T11:27:58.996Z</time>
      </trkpt>
      <trkpt lat="37.21488" lon="-4.02174">
        <ele>489.948999</ele>
        <time>2022-09-02T11:28:05.323Z</time>
      </trkpt>
      <trkpt lat="37.21481" lon="-4.02203">
        <ele>489.464841</ele>
        <time>2022-09-02T11:28:09.800Z</time>
      </trkpt>
      <trkpt lat="37.21448" lon="-4.02276">
        <ele>488.17446</ele>
        <time>2022-09-02T11:28:22.616Z</time>
      </trkpt>
      <trkpt lat="37.21438" lon="-4.0231">
        <ele>487.996911</ele>
        <time>2022-09-02T11:28:28.318Z</time>
      </trkpt>
      <trkpt lat="37.21435" lon="-4.02345">
        <ele>487.828163</ele>
        <time>2022-09-02T11:28:33.728Z</time>
      </trkpt>
      <trkpt lat="37.21438" lon="-4.02482">
        <ele>487.168324</ele>
        <time>2022-09-02T11:28:56.945Z</time>
      </trkpt>
      <trkpt lat="37.21441" lon="-4.02659">
        <ele>487.168773</ele>
        <time>2022-09-02T11:29:29.690Z</time>
      </trkpt>
      <trkpt lat="37.21409" lon="-4.02809">
        <ele>487.325619</ele>
        <time>2022-09-02T11:29:57.075Z</time>
      </trkpt>
      <trkpt lat="37.21408" lon="-4.02826">
        <ele>487.349446</ele>
        <time>2022-09-02T11:30:00.109Z</time>
      </trkpt>
      <trkpt lat="37.21413" lon="-4.02855">
        <ele>487.390813</ele>
        <time>2022-09-02T11:30:05.335Z</time>
      </trkpt>
      <trkpt lat="37.2143" lon="-4.02902">
        <ele>487.464745</ele>
        <time>2022-09-02T11:30:15.014Z</time>
      </trkpt>
      <trkpt lat="37.2147" lon="-4.02992">
        <ele>487.830374</ele>
        <time>2022-09-02T11:30:35.604Z</time>
      </trkpt>
      <trkpt lat="37.21504" lon="-4.03139">
        <ele>488.546244</ele>
        <time>2022-09-02T11:31:06.613Z</time>
      </trkpt>
      <trkpt lat="37.2151" lon="-4.03162">
        <ele>488.575786</ele>
        <time>2022-09-02T11:31:11.382Z</time>
      </trkpt>
      <trkpt lat="37.21538" lon="-4.03211">
        <ele>488.601</ele>
        <time>2022-09-02T11:31:23.083Z</time>
      </trkpt>
      <trkpt lat="37.21598" lon="-4.03283">
        <ele>488.644776</ele>
        <time>2022-09-02T11:31:41.859Z</time>
      </trkpt>
      <trkpt lat="37.21616" lon="-4.03319">
        <ele>488.653653</ele>
        <time>2022-09-02T11:31:49.098Z</time>
      </trkpt>
      <trkpt lat="37.21622" lon="-4.03355">
        <ele>488.356352</ele>
        <time>2022-09-02T11:31:55.119Z</time>
      </trkpt>
      <trkpt lat="37.21621" lon="-4.03386">
        <ele>488.104681</ele>
        <time>2022-09-02T11:32:00.162Z</time>
      </trkpt>
      <trkpt lat="37.21564" lon="-4.03605">
        <ele>486.093017</ele>
        <time>2022-09-02T11:32:35.762Z</time>
      </trkpt>
      <trkpt lat="37.2153" lon="-4.0371">
        <ele>484.964342</ele>
        <time>2022-09-02T11:32:53.106Z</time>
      </trkpt>
      <trkpt lat="37.21471" lon="-4.03873">
        <ele>483.322594</ele>
        <time>2022-09-02T11:33:21.160Z</time>
      </trkpt>
      <trkpt lat="37.21455" lon="-4.03898">
        <ele>483.026636</ele>
        <time>2022-09-02T11:33:26.343Z</time>
      </trkpt>
      <trkpt lat="37.21439" lon="-4.03912">
        <ele>482.81041</ele>
        <time>2022-09-02T11:33:30.155Z</time>
      </trkpt>
      <trkpt lat="37.21405" lon="-4.03922">
        <ele>482.456003</ele>
        <time>2022-09-02T11:33:36.897Z</time>
      </trkpt>
      <trkpt lat="37.21368" lon="-4.03915">
        <ele>482.133477</ele>
        <time>2022-09-02T11:33:44.417Z</time>
      </trkpt>
      <trkpt lat="37.21363" lon="-4.03914">
        <ele>482.089666</ele>
        <time>2022-09-02T11:33:45.445Z</time>
      </trkpt>
      <trkpt lat="37.2136" lon="-4.03914">
        <ele>482.068275</ele>
        <time>2022-09-02T11:33:45.937Z</time>
      </trkpt>
      <trkpt lat="37.21337" lon="-4.03909">
        <ele>481.867548</ele>
        <time>2022-09-02T11:33:50.631Z</time>
      </trkpt>
      <trkpt lat="37.21199" lon="-4.03873">
        <ele>480.871669</ele>
        <time>2022-09-02T11:34:19.422Z</time>
      </trkpt>
      <trkpt lat="37.21162" lon="-4.03871">
        <ele>480.736341</ele>
        <time>2022-09-02T11:34:27.325Z</time>
      </trkpt>
      <trkpt lat="37.21136" lon="-4.03876">
        <ele>480.643292</ele>
        <time>2022-09-02T11:34:32.739Z</time>
      </trkpt>
      <trkpt lat="37.21125" lon="-4.03989">
        <ele>480.407061</ele>
        <time>2022-09-02T11:34:52.320Z</time>
      </trkpt>
      <trkpt lat="37.21119" lon="-4.04075">
        <ele>480.582615</ele>
        <time>2022-09-02T11:35:08.111Z</time>
      </trkpt>
      <trkpt lat="37.21112" lon="-4.04136">
        <ele>480.706749</ele>
        <time>2022-09-02T11:35:19.565Z</time>
      </trkpt>
      <trkpt lat="37.21108" lon="-4.0439">
        <ele>482.206922</ele>
        <time>2022-09-02T11:36:12.756Z</time>
      </trkpt>
      <trkpt lat="37.21106" lon="-4.04414">
        <ele>482.379875</ele>
        <time>2022-09-02T11:36:18.216Z</time>
      </trkpt>
      <trkpt lat="37.21107" lon="-4.0446">
        <ele>482.691661</ele>
        <time>2022-09-02T11:36:28.682Z</time>
      </trkpt>
      <trkpt lat="37.21102" lon="-4.04546">
        <ele>483.264645</ele>
        <time>2022-09-02T11:36:47.300Z</time>
      </trkpt>
      <trkpt lat="37.21106" lon="-4.0458">
        <ele>483.494918</ele>
        <time>2022-09-02T11:36:54.507Z</time>
      </trkpt>
      <trkpt lat="37.2112" lon="-4.04626">
        <ele>483.821116</ele>
        <time>2022-09-02T11:37:04.410Z</time>
      </trkpt>
      <trkpt lat="37.21125" lon="-4.04654">
        <ele>483.960108</ele>
        <time>2022-09-02T11:37:10.404Z</time>
      </trkpt>
      <trkpt lat="37.21131" lon="-4.04774">
        <ele>484.231995</ele>
        <time>2022-09-02T11:37:34.300Z</time>
      </trkpt>
      <trkpt lat="37.21133" lon="-4.04796">
        <ele>484.28195</ele>
        <time>2022-09-02T11:37:38.315Z</time>
      </trkpt>
      <trkpt lat="37.21169" lon="-4.04957">
        <ele>484.626323</ele>
        <time>2022-09-02T11:38:08.284Z</time>
      </trkpt>
      <trkpt lat="37.21189" lon="-4.05029">
        <ele>484.770465</ele>
        <time>2022-09-02T11:38:22.754Z</time>
      </trkpt>
      <trkpt lat="37.21204" lon="-4.05058">
        <ele>484.83619</ele>
        <time>2022-09-02T11:38:29.433Z</time>
      </trkpt>
      <trkpt lat="37.21221" lon="-4.05084">
        <ele>484.940574</ele>
        <time>2022-09-02T11:38:36.144Z</time>
      </trkpt>
      <trkpt lat="37.21237" lon="-4.05135">
        <ele>485.183049</ele>
        <time>2022-09-02T11:38:46.734Z</time>
      </trkpt>
      <trkpt lat="37.21242" lon="-4.05166">
        <ele>485.32295</ele>
        <time>2022-09-02T11:38:53.007Z</time>
      </trkpt>
      <trkpt lat="37.21244" lon="-4.05245">
        <ele>485.674559</ele>
        <time>2022-09-02T11:39:08.854Z</time>
      </trkpt>
      <trkpt lat="37.21221" lon="-4.05394">
        <ele>486.593075</ele>
        <time>2022-09-02T11:39:40.030Z</time>
      </trkpt>
      <trkpt lat="37.21191" lon="-4.05489">
        <ele>487.273365</ele>
        <time>2022-09-02T11:40:01.759Z</time>
      </trkpt>
      <trkpt lat="37.21202" lon="-4.0558">
        <ele>488.076963</ele>
        <time>2022-09-02T11:40:22.155Z</time>
      </trkpt>
      <trkpt lat="37.21215" lon="-4.05617">
        <ele>488.443859</ele>
        <time>2022-09-02T11:40:31.183Z</time>
      </trkpt>
      <trkpt lat="37.21273" lon="-4.05847">
        <ele>490.617428</ele>
        <time>2022-09-02T11:41:25.502Z</time>
      </trkpt>
      <trkpt lat="37.21296" lon="-4.05923">
        <ele>491.3421</ele>
        <time>2022-09-02T11:41:43.274Z</time>
      </trkpt>
      <trkpt lat="37.21286" lon="-4.06091">
        <ele>492.599251</ele>
        <time>2022-09-02T11:42:19.410Z</time>
      </trkpt>
      <trkpt lat="37.21285" lon="-4.06183">
        <ele>493.233921</ele>
        <time>2022-09-02T11:42:39.157Z</time>
      </trkpt>
      <trkpt lat="37.21303" lon="-4.06306">
        <ele>493.908423</ele>
        <time>2022-09-02T11:43:05.119Z</time>
      </trkpt>
      <trkpt lat="37.21299" lon="-4.06319">
        <ele>493.986931</ele>
        <time>2022-09-02T11:43:07.858Z</time>
      </trkpt>
      <trkpt lat="37.21279" lon="-4.06323">
        <ele>494.120834</ele>
        <time>2022-09-02T11:43:12.940Z</time>
      </trkpt>
      <trkpt lat="37.21296" lon="-4.06354">
        <ele>494.326764</ele>
        <time>2022-09-02T11:43:20.180Z</time>
      </trkpt>
      <trkpt lat="37.21157" lon="-4.06658">
        <ele>495.526915</ele>
        <time>2022-09-02T11:44:28.042Z</time>
      </trkpt>
      <trkpt lat="37.21147" lon="-4.06686">
        <ele>495.710365</ele>
        <time>2022-09-02T11:44:34.938Z</time>
      </trkpt>
      <trkpt lat="37.21144" lon="-4.06719">
        <ele>495.912667</ele>
        <time>2022-09-02T11:44:42.726Z</time>
      </trkpt>
      <trkpt lat="37.21146" lon="-4.06738">
        <ele>496.023647</ele>
        <time>2022-09-02T11:44:47.410Z</time>
      </trkpt>
      <trkpt lat="37.21162" lon="-4.06785">
        <ele>496.567168</ele>
        <time>2022-09-02T11:45:00.024Z</time>
      </trkpt>
      <trkpt lat="37.21216" lon="-4.06918">
        <ele>498.622359</ele>
        <time>2022-09-02T11:45:38.606Z</time>
      </trkpt>
      <trkpt lat="37.21276" lon="-4.07039">
        <ele>500.924594</ele>
        <time>2022-09-02T11:46:14.774Z</time>
      </trkpt>
      <trkpt lat="37.21279" lon="-4.07241">
        <ele>504.943378</ele>
        <time>2022-09-02T11:47:11.978Z</time>
      </trkpt>
      <trkpt lat="37.21283" lon="-4.07435">
        <ele>509.609134</ele>
        <time>2022-09-02T11:48:13.501Z</time>
      </trkpt>
      <trkpt lat="37.2129" lon="-4.07489">
        <ele>510.9318</ele>
        <time>2022-09-02T11:48:30.991Z</time>
      </trkpt>
      <trkpt lat="37.21306" lon="-4.07529">
        <ele>512.001866</ele>
        <time>2022-09-02T11:48:44.752Z</time>
      </trkpt>
      <trkpt lat="37.21329" lon="-4.07567">
        <ele>513.149449</ele>
        <time>2022-09-02T11:48:58.838Z</time>
      </trkpt>
      <trkpt lat="37.21349" lon="-4.07656">
        <ele>515.151386</ele>
        <time>2022-09-02T11:49:24.211Z</time>
      </trkpt>
      <trkpt lat="37.21358" lon="-4.07679">
        <ele>515.693483</ele>
        <time>2022-09-02T11:49:31.889Z</time>
      </trkpt>
      <trkpt lat="37.21374" lon="-4.07694">
        <ele>516.212057</ele>
        <time>2022-09-02T11:49:39.019Z</time>
      </trkpt>
      <trkpt lat="37.21434" lon="-4.077">
        <ele>517.757798</ele>
        <time>2022-09-02T11:50:00.356Z</time>
      </trkpt>
      <trkpt lat="37.21475" lon="-4.07722">
        <ele>519.055355</ele>
        <time>2022-09-02T11:50:16.573Z</time>
      </trkpt>
      <trkpt lat="37.21495" lon="-4.07748">
        <ele>520.228838</ele>
        <time>2022-09-02T11:50:27.450Z</time>
      </trkpt>
      <trkpt lat="37.21525" lon="-4.07839">
        <ele>523.469589</ele>
        <time>2022-09-02T11:51:00.938Z</time>
      </trkpt>
      <trkpt lat="37.21527" lon="-4.07872">
        <ele>524.540045</ele>
        <time>2022-09-02T11:51:13.364Z</time>
      </trkpt>
      <trkpt lat="37.21499" lon="-4.07927">
        <ele>527.00504</ele>
        <time>2022-09-02T11:51:39.384Z</time>
      </trkpt>
      <trkpt lat="37.2148" lon="-4.08016">
        <ele>531.604161</ele>
        <time>2022-09-02T11:52:18.530Z</time>
      </trkpt>
      <trkpt lat="37.21447" lon="-4.08102">
        <ele>536.342123</ele>
        <time>2022-09-02T11:53:01.550Z</time>
      </trkpt>
      <trkpt lat="37.21454" lon="-4.08149">
        <ele>538.900471</ele>
        <time>2022-09-02T11:53:23.904Z</time>
      </trkpt>
      <trkpt lat="37.21475" lon="-4.08225">
        <ele>543.302259</ele>
        <time>2022-09-02T11:54:00.502Z</time>
      </trkpt>
      <trkpt lat="37.21476" lon="-4.08289">
        <ele>546.85104</ele>
        <time>2022-09-02T11:54:29.963Z</time>
      </trkpt>
      <trkpt lat="37.21486" lon="-4.08415">
        <ele>553.82641</ele>
        <time>2022-09-02T11:55:28.499Z</time>
      </trkpt>
      <trkpt lat="37.21384" lon="-4.08571">
        <ele>564.072999</ele>
        <time>2022-09-02T11:57:03.208Z</time>
      </trkpt>
      <trkpt lat="37.21354" lon="-4.08609">
        <ele>565.912907</ele>
        <time>2022-09-02T11:57:24.371Z</time>
      </trkpt>
      <trkpt lat="37.21244" lon="-4.08763">
        <ele>571.175383</ele>
        <time>2022-09-02T11:58:24.963Z</time>
      </trkpt>
      <trkpt lat="37.21169" lon="-4.08907">
        <ele>573.874743</ele>
        <time>2022-09-02T11:58:59.693Z</time>
      </trkpt>
      <trkpt lat="37.21071" lon="-4.09006">
        <ele>579.041163</ele>
        <time>2022-09-02T11:59:50.537Z</time>
      </trkpt>
      <trkpt lat="37.21244" lon="-4.09175">
        <ele>597.349939</ele>
        <time>2022-09-02T12:02:20.851Z</time>
      </trkpt>
      <trkpt lat="37.21283" lon="-4.09204">
        <ele>601.889828</ele>
        <time>2022-09-02T12:02:56.292Z</time>
      </trkpt>
      <trkpt lat="37.21376" lon="-4.093">
        <ele>614.132389</ele>
        <time>2022-09-02T12:04:27.565Z</time>
      </trkpt>
      <trkpt lat="37.21496" lon="-4.09398">
        <ele>626.550027</ele>
        <time>2022-09-02T12:06:04.318Z</time>
      </trkpt>
      <trkpt lat="37.21536" lon="-4.09448">
        <ele>631.232873</ele>
        <time>2022-09-02T12:06:38.366Z</time>
      </trkpt>
      <trkpt lat="37.21563" lon="-4.09495">
        <ele>634.57783</ele>
        <time>2022-09-02T12:07:06.124Z</time>
      </trkpt>
      <trkpt lat="37.21657" lon="-4.09608">
        <ele>643.96812</ele>
        <time>2022-09-02T12:08:20.514Z</time>
      </trkpt>
      <trkpt lat="37.21734" lon="-4.09692">
        <ele>651.95032</ele>
        <time>2022-09-02T12:09:25.091Z</time>
      </trkpt>
      <trkpt lat="37.21785" lon="-4.09735">
        <ele>656.803346</ele>
        <time>2022-09-02T12:10:03.127Z</time>
      </trkpt>
      <trkpt lat="37.21807" lon="-4.09802">
        <ele>662.50284</ele>
        <time>2022-09-02T12:10:40.619Z</time>
      </trkpt>
      <trkpt lat="37.21821" lon="-4.09896">
        <ele>670.091572</ele>
        <time>2022-09-02T12:11:36.690Z</time>
      </trkpt>
      <trkpt lat="37.21846" lon="-4.09933">
        <ele>673.959802</ele>
        <time>2022-09-02T12:12:08.961Z</time>
      </trkpt>
      <trkpt lat="37.21874" lon="-4.09949">
        <ele>677.156204</ele>
        <time>2022-09-02T12:12:33.894Z</time>
      </trkpt>
      <trkpt lat="37.21883" lon="-4.0996">
        <ele>678.684982</ele>
        <time>2022-09-02T12:12:44.244Z</time>
      </trkpt>
      <trkpt lat="37.21927" lon="-4.10033">
        <ele>686.872601</ele>
        <time>2022-09-02T12:13:42.524Z</time>
      </trkpt>
      <trkpt lat="37.21931" lon="-4.10038">
        <ele>687.534894</ele>
        <time>2022-09-02T12:13:49.320Z</time>
      </trkpt>
      <trkpt lat="37.21952" lon="-4.1004">
        <ele>689.972997</ele>
        <time>2022-09-02T12:14:04.553Z</time>
      </trkpt>
      <trkpt lat="37.22003" lon="-4.10089">
        <ele>696.950365</ele>
        <time>2022-09-02T12:14:55.159Z</time>
      </trkpt>
      <trkpt lat="37.21918" lon="-4.10146">
        <ele>706.173983</ele>
        <time>2022-09-02T12:16:07.713Z</time>
      </trkpt>
      <trkpt lat="37.2191" lon="-4.10182">
        <ele>708.978312</ele>
        <time>2022-09-02T12:16:28.769Z</time>
      </trkpt>
      <trkpt lat="37.21907" lon="-4.10352">
        <ele>718.996913</ele>
        <time>2022-09-02T12:17:47.384Z</time>
      </trkpt>
      <trkpt lat="37.21904" lon="-4.10378">
        <ele>720.362399</ele>
        <time>2022-09-02T12:17:59.973Z</time>
      </trkpt>
      <trkpt lat="37.21889" lon="-4.10456">
        <ele>724.504569</ele>
        <time>2022-09-02T12:18:33.045Z</time>
      </trkpt>
      <trkpt lat="37.21895" lon="-4.10467">
        <ele>724.957555</ele>
        <time>2022-09-02T12:18:39.956Z</time>
      </trkpt>
      <trkpt lat="37.21961" lon="-4.10529">
        <ele>728.470585</ele>
        <time>2022-09-02T12:19:12.682Z</time>
      </trkpt>
      <trkpt lat="37.22017" lon="-4.10595">
        <ele>731.7874</ele>
        <time>2022-09-02T12:19:45.284Z</time>
      </trkpt>
      <trkpt lat="37.22075" lon="-4.10649">
        <ele>736.763794</ele>
        <time>2022-09-02T12:20:20.376Z</time>
      </trkpt>
      <trkpt lat="37.22117" lon="-4.10697">
        <ele>740.882232</ele>
        <time>2022-09-02T12:20:56.698Z</time>
      </trkpt>
      <trkpt lat="37.22159" lon="-4.10754">
        <ele>745.415575</ele>
        <time>2022-09-02T12:21:39.389Z</time>
      </trkpt>
      <trkpt lat="37.22197" lon="-4.10791">
        <ele>749.44885</ele>
        <time>2022-09-02T12:22:13.407Z</time>
      </trkpt>
      <trkpt lat="37.22214" lon="-4.10806">
        <ele>751.200757</ele>
        <time>2022-09-02T12:22:27.902Z</time>
      </trkpt>
      <trkpt lat="37.2224" lon="-4.10835">
        <ele>754.100071</ele>
        <time>2022-09-02T12:22:51.899Z</time>
      </trkpt>
      <trkpt lat="37.22308" lon="-4.10956">
        <ele>761.668957</ele>
        <time>2022-09-02T12:24:04.323Z</time>
      </trkpt>
      <trkpt lat="37.22349" lon="-4.11091">
        <ele>765.078109</ele>
        <time>2022-09-02T12:24:40.700Z</time>
      </trkpt>
      <trkpt lat="37.22351" lon="-4.11114">
        <ele>765.635561</ele>
        <time>2022-09-02T12:24:44.922Z</time>
      </trkpt>
      <trkpt lat="37.22374" lon="-4.11176">
        <ele>765.827569</ele>
        <time>2022-09-02T12:24:57.292Z</time>
      </trkpt>
      <trkpt lat="37.22376" lon="-4.11208">
        <ele>765.881827</ele>
        <time>2022-09-02T12:25:02.861Z</time>
      </trkpt>
      <trkpt lat="37.22366" lon="-4.11299">
        <ele>766.034341</ele>
        <time>2022-09-02T12:25:19.685Z</time>
      </trkpt>
      <trkpt lat="37.22374" lon="-4.11389">
        <ele>767.324279</ele>
        <time>2022-09-02T12:25:38.432Z</time>
      </trkpt>
      <trkpt lat="37.22341" lon="-4.11518">
        <ele>770.478603</ele>
        <time>2022-09-02T12:26:21.647Z</time>
      </trkpt>
      <trkpt lat="37.22338" lon="-4.1156">
        <ele>771.5255</ele>
        <time>2022-09-02T12:26:37.139Z</time>
      </trkpt>
      <trkpt lat="37.22332" lon="-4.1158">
        <ele>772.415139</ele>
        <time>2022-09-02T12:26:45.453Z</time>
      </trkpt>
      <trkpt lat="37.22327" lon="-4.11769">
        <ele>780.276136</ele>
        <time>2022-09-02T12:28:00.833Z</time>
      </trkpt>
      <trkpt lat="37.22298" lon="-4.11977">
        <ele>789.623896</ele>
        <time>2022-09-02T12:29:26.759Z</time>
      </trkpt>
      <trkpt lat="37.22302" lon="-4.1201">
        <ele>791.104765</ele>
        <time>2022-09-02T12:29:40.532Z</time>
      </trkpt>
      <trkpt lat="37.22303" lon="-4.12019">
        <ele>791.452633</ele>
        <time>2022-09-02T12:29:43.685Z</time>
      </trkpt>
      <trkpt lat="37.22266" lon="-4.12097">
        <ele>795.232812</ele>
        <time>2022-09-02T12:30:21.741Z</time>
      </trkpt>
      <trkpt lat="37.22224" lon="-4.12187">
        <ele>799.596939</ele>
        <time>2022-09-02T12:31:03.422Z</time>
      </trkpt>
      <trkpt lat="37.22196" lon="-4.12212">
        <ele>800.372712</ele>
        <time>2022-09-02T12:31:17.417Z</time>
      </trkpt>
      <trkpt lat="37.22182" lon="-4.12235">
        <ele>800.584421</ele>
        <time>2022-09-02T12:31:27.116Z</time>
      </trkpt>
      <trkpt lat="37.2217" lon="-4.1227">
        <ele>800.856459</ele>
        <time>2022-09-02T12:31:37.282Z</time>
      </trkpt>
      <trkpt lat="37.22142" lon="-4.12489">
        <ele>799.416039</ele>
        <time>2022-09-02T12:32:13.889Z</time>
      </trkpt>
      <trkpt lat="37.22103" lon="-4.12672">
        <ele>793.843491</ele>
        <time>2022-09-02T12:32:39.328Z</time>
      </trkpt>
      <trkpt lat="37.22123" lon="-4.12777">
        <ele>789.634064</ele>
        <time>2022-09-02T12:32:53.463Z</time>
      </trkpt>
      <trkpt lat="37.22124" lon="-4.12835">
        <ele>787.388347</ele>
        <time>2022-09-02T12:33:01.070Z</time>
      </trkpt>
      <trkpt lat="37.2214" lon="-4.12874">
        <ele>786.22544</ele>
        <time>2022-09-02T12:33:07.047Z</time>
      </trkpt>
      <trkpt lat="37.22143" lon="-4.12906">
        <ele>785.429563</ele>
        <time>2022-09-02T12:33:11.432Z</time>
      </trkpt>
      <trkpt lat="37.22141" lon="-4.12939">
        <ele>784.583648</ele>
        <time>2022-09-02T12:33:16.182Z</time>
      </trkpt>
      <trkpt lat="37.22129" lon="-4.1299">
        <ele>783.261048</ele>
        <time>2022-09-02T12:33:23.820Z</time>
      </trkpt>
      <trkpt lat="37.22123" lon="-4.13019">
        <ele>782.526657</ele>
        <time>2022-09-02T12:33:28.211Z</time>
      </trkpt>
      <trkpt lat="37.22108" lon="-4.13174">
        <ele>780.74619</ele>
        <time>2022-09-02T12:33:53.652Z</time>
      </trkpt>
      <trkpt lat="37.22061" lon="-4.13296">
        <ele>779.8262</ele>
        <time>2022-09-02T12:34:17.877Z</time>
      </trkpt>
      <trkpt lat="37.22024" lon="-4.13374">
        <ele>779.300775</ele>
        <time>2022-09-02T12:34:33.042Z</time>
      </trkpt>
      <trkpt lat="37.22023" lon="-4.13389">
        <ele>779.212802</ele>
        <time>2022-09-02T12:34:35.519Z</time>
      </trkpt>
      <trkpt lat="37.22157" lon="-4.13304">
        <ele>778.987216</ele>
        <time>2022-09-02T12:35:05.637Z</time>
      </trkpt>
      <trkpt lat="37.22365" lon="-4.13148">
        <ele>782.838409</ele>
        <time>2022-09-02T12:36:16.065Z</time>
      </trkpt>
      <trkpt lat="37.2242" lon="-4.13134">
        <ele>784.651715</ele>
        <time>2022-09-02T12:36:43.527Z</time>
      </trkpt>
      <trkpt lat="37.22451" lon="-4.13149">
        <ele>786.38576</ele>
        <time>2022-09-02T12:37:01.162Z</time>
      </trkpt>
      <trkpt lat="37.22477" lon="-4.13177">
        <ele>788.178666</ele>
        <time>2022-09-02T12:37:18.877Z</time>
      </trkpt>
      <trkpt lat="37.22504" lon="-4.13229">
        <ele>790.790177</ele>
        <time>2022-09-02T12:37:44.382Z</time>
      </trkpt>
      <trkpt lat="37.22522" lon="-4.13272">
        <ele>792.808498</ele>
        <time>2022-09-02T12:38:01.160Z</time>
      </trkpt>
      <trkpt lat="37.22533" lon="-4.13315">
        <ele>794.377892</ele>
        <time>2022-09-02T12:38:17.553Z</time>
      </trkpt>
      <trkpt lat="37.22543" lon="-4.1333">
        <ele>795.0316</ele>
        <time>2022-09-02T12:38:24.550Z</time>
      </trkpt>
      <trkpt lat="37.22554" lon="-4.13334">
        <ele>795.48733</ele>
        <time>2022-09-02T12:38:30.216Z</time>
      </trkpt>
      <trkpt lat="37.2264" lon="-4.13322">
        <ele>799.04554</ele>
        <time>2022-09-02T12:39:08.647Z</time>
      </trkpt>
      <trkpt lat="37.22682" lon="-4.13321">
        <ele>800.740979</ele>
        <time>2022-09-02T12:39:23.683Z</time>
      </trkpt>
      <trkpt lat="37.22721" lon="-4.1333">
        <ele>801.973947</ele>
        <time>2022-09-02T12:39:37.575Z</time>
      </trkpt>
      <trkpt lat="37.22742" lon="-4.13347">
        <ele>802.785678</ele>
        <time>2022-09-02T12:39:47.070Z</time>
      </trkpt>
      <trkpt lat="37.22749" lon="-4.13366">
        <ele>803.299418</ele>
        <time>2022-09-02T12:39:53.499Z</time>
      </trkpt>
      <trkpt lat="37.2273" lon="-4.1342">
        <ele>804.769559</ele>
        <time>2022-09-02T12:40:12.660Z</time>
      </trkpt>
      <trkpt lat="37.22727" lon="-4.13443">
        <ele>805.376977</ele>
        <time>2022-09-02T12:40:20.249Z</time>
      </trkpt>
      <trkpt lat="37.22739" lon="-4.13481">
        <ele>806.392442</ele>
        <time>2022-09-02T12:40:31.336Z</time>
      </trkpt>
      <trkpt lat="37.22757" lon="-4.13503">
        <ele>807.276545</ele>
        <time>2022-09-02T12:40:40.456Z</time>
      </trkpt>
      <trkpt lat="37.22767" lon="-4.13507">
        <ele>807.63636</ele>
        <time>2022-09-02T12:40:44.070Z</time>
      </trkpt>
      <trkpt lat="37.22778" lon="-4.13508">
        <ele>808.009902</ele>
        <time>2022-09-02T12:40:47.752Z</time>
      </trkpt>
      <trkpt lat="37.22877" lon="-4.13468">
        <ele>811.641229</ele>
        <time>2022-09-02T12:41:29.415Z</time>
      </trkpt>
      <trkpt lat="37.23006" lon="-4.13447">
        <ele>816.860777</ele>
        <time>2022-09-02T12:42:26.892Z</time>
      </trkpt>
      <trkpt lat="37.23044" lon="-4.13455">
        <ele>818.491427</ele>
        <time>2022-09-02T12:42:44.101Z</time>
      </trkpt>
      <trkpt lat="37.23116" lon="-4.13481">
        <ele>821.28867</ele>
        <time>2022-09-02T12:43:14.943Z</time>
      </trkpt>
      <trkpt lat="37.23132" lon="-4.13481">
        <ele>821.833619</ele>
        <time>2022-09-02T12:43:21.147Z</time>
      </trkpt>
      <trkpt lat="37.2325" lon="-4.13444">
        <ele>825.862573</ele>
        <time>2022-09-02T12:44:06.328Z</time>
      </trkpt>
      <trkpt lat="37.23265" lon="-4.13444">
        <ele>826.420788</ele>
        <time>2022-09-02T12:44:12.336Z</time>
      </trkpt>
      <trkpt lat="37.23337" lon="-4.13472">
        <ele>829.304245</ele>
        <time>2022-09-02T12:44:42.958Z</time>
      </trkpt>
      <trkpt lat="37.23358" lon="-4.13491">
        <ele>830.318631</ele>
        <time>2022-09-02T12:44:53.634Z</time>
      </trkpt>
      <trkpt lat="37.2343" lon="-4.1358">
        <ele>834.325511</ele>
        <time>2022-09-02T12:45:37.060Z</time>
      </trkpt>
      <trkpt lat="37.23464" lon="-4.13612">
        <ele>836.163493</ele>
        <time>2022-09-02T12:45:57.190Z</time>
      </trkpt>
      <trkpt lat="37.23477" lon="-4.13622">
        <ele>836.827569</ele>
        <time>2022-09-02T12:46:04.767Z</time>
      </trkpt>
      <trkpt lat="37.23525" lon="-4.13639">
        <ele>838.956487</ele>
        <time>2022-09-02T12:46:27.019Z</time>
      </trkpt>
      <trkpt lat="37.23542" lon="-4.13661">
        <ele>840.02254</ele>
        <time>2022-09-02T12:46:38.379Z</time>
      </trkpt>
      <trkpt lat="37.2355" lon="-4.13688">
        <ele>840.852458</ele>
        <time>2022-09-02T12:46:46.473Z</time>
      </trkpt>
      <trkpt lat="37.23546" lon="-4.13755">
        <ele>841.901453</ele>
        <time>2022-09-02T12:47:05.606Z</time>
      </trkpt>
      <trkpt lat="37.23549" lon="-4.13789">
        <ele>842.433054</ele>
        <time>2022-09-02T12:47:16.009Z</time>
      </trkpt>
      <trkpt lat="37.23563" lon="-4.13819">
        <ele>842.972006</ele>
        <time>2022-09-02T12:47:24.190Z</time>
      </trkpt>
      <trkpt lat="37.23599" lon="-4.1387">
        <ele>844.016165</ele>
        <time>2022-09-02T12:47:38.104Z</time>
      </trkpt>
      <trkpt lat="37.23622" lon="-4.13937">
        <ele>844.380861</ele>
        <time>2022-09-02T12:47:52.328Z</time>
      </trkpt>
      <trkpt lat="37.23664" lon="-4.13962">
        <ele>844.541354</ele>
        <time>2022-09-02T12:48:02.124Z</time>
      </trkpt>
      <trkpt lat="37.23695" lon="-4.13992">
        <ele>844.677954</ele>
        <time>2022-09-02T12:48:12.428Z</time>
      </trkpt>
      <trkpt lat="37.23712" lon="-4.14019">
        <ele>844.773043</ele>
        <time>2022-09-02T12:48:19.524Z</time>
      </trkpt>
      <trkpt lat="37.23712" lon="-4.14167">
        <ele>844.898816</ele>
        <time>2022-09-02T12:48:47.039Z</time>
      </trkpt>
      <trkpt lat="37.23723" lon="-4.14217">
        <ele>844.924604</ele>
        <time>2022-09-02T12:48:56.063Z</time>
      </trkpt>
      <trkpt lat="37.2376" lon="-4.14262">
        <ele>844.941079</ele>
        <time>2022-09-02T12:49:06.876Z</time>
      </trkpt>
      <trkpt lat="37.23849" lon="-4.14308">
        <ele>844.875214</ele>
        <time>2022-09-02T12:49:27.843Z</time>
      </trkpt>
      <trkpt lat="37.2392" lon="-4.14508">
        <ele>844.971873</ele>
        <time>2022-09-02T12:50:08.027Z</time>
      </trkpt>
      <trkpt lat="37.23944" lon="-4.14537">
        <ele>845.018356</ele>
        <time>2022-09-02T12:50:15.989Z</time>
      </trkpt>
      <trkpt lat="37.24005" lon="-4.14584">
        <ele>844.871418</ele>
        <time>2022-09-02T12:50:32.560Z</time>
      </trkpt>
      <trkpt lat="37.24055" lon="-4.14621">
        <ele>844.421459</ele>
        <time>2022-09-02T12:50:44.695Z</time>
      </trkpt>
      <trkpt lat="37.24067" lon="-4.14638">
        <ele>844.279722</ele>
        <time>2022-09-02T12:50:48.297Z</time>
      </trkpt>
      <trkpt lat="37.24109" lon="-4.14709">
        <ele>843.738956</ele>
        <time>2022-09-02T12:51:01.973Z</time>
      </trkpt>
      <trkpt lat="37.24133" lon="-4.14769">
        <ele>842.529449</ele>
        <time>2022-09-02T12:51:12.290Z</time>
      </trkpt>
      <trkpt lat="37.2415" lon="-4.14787">
        <ele>842.002129</ele>
        <time>2022-09-02T12:51:16.188Z</time>
      </trkpt>
      <trkpt lat="37.24246" lon="-4.14822">
        <ele>839.58658</ele>
        <time>2022-09-02T12:51:33.149Z</time>
      </trkpt>
      <trkpt lat="37.24323" lon="-4.14822">
        <ele>838.623446</ele>
        <time>2022-09-02T12:51:47.300Z</time>
      </trkpt>
      <trkpt lat="37.24405" lon="-4.14851">
        <ele>837.710785</ele>
        <time>2022-09-02T12:52:06.813Z</time>
      </trkpt>
      <trkpt lat="37.24422" lon="-4.14864">
        <ele>837.49955</ele>
        <time>2022-09-02T12:52:11.014Z</time>
      </trkpt>
      <trkpt lat="37.24439" lon="-4.14885">
        <ele>837.081045</ele>
        <time>2022-09-02T12:52:16.017Z</time>
      </trkpt>
      <trkpt lat="37.24446" lon="-4.14897">
        <ele>836.84523</ele>
        <time>2022-09-02T12:52:18.238Z</time>
      </trkpt>
      <trkpt lat="37.24472" lon="-4.14953">
        <ele>835.788587</ele>
        <time>2022-09-02T12:52:27.899Z</time>
      </trkpt>
      <trkpt lat="37.2449" lon="-4.1499">
        <ele>835.08518</ele>
        <time>2022-09-02T12:52:34.170Z</time>
      </trkpt>
      <trkpt lat="37.24512" lon="-4.15018">
        <ele>834.444191</ele>
        <time>2022-09-02T12:52:39.922Z</time>
      </trkpt>
      <trkpt lat="37.24517" lon="-4.15022">
        <ele>834.330196</ele>
        <time>2022-09-02T12:52:40.994Z</time>
      </trkpt>
      <trkpt lat="37.24575" lon="-4.15052">
        <ele>832.431845</ele>
        <time>2022-09-02T12:52:51.489Z</time>
      </trkpt>
      <trkpt lat="37.24604" lon="-4.15088">
        <ele>830.832748</ele>
        <time>2022-09-02T12:52:57.917Z</time>
      </trkpt>
      <trkpt lat="37.24629" lon="-4.1514">
        <ele>828.972917</ele>
        <time>2022-09-02T12:53:05.448Z</time>
      </trkpt>
      <trkpt lat="37.24651" lon="-4.15161">
        <ele>827.887467</ele>
        <time>2022-09-02T12:53:10.093Z</time>
      </trkpt>
      <trkpt lat="37.24684" lon="-4.15171">
        <ele>826.751036</ele>
        <time>2022-09-02T12:53:16.080Z</time>
      </trkpt>
      <trkpt lat="37.24718" lon="-4.15161">
        <ele>826.618071</ele>
        <time>2022-09-02T12:53:23.137Z</time>
      </trkpt>
      <trkpt lat="37.24726" lon="-4.15157">
        <ele>826.584296</ele>
        <time>2022-09-02T12:53:24.988Z</time>
      </trkpt>
      <trkpt lat="37.24748" lon="-4.15157">
        <ele>826.501047</ele>
        <time>2022-09-02T12:53:29.627Z</time>
      </trkpt>
      <trkpt lat="37.24767" lon="-4.15169">
        <ele>826.418173</ele>
        <time>2022-09-02T12:53:34.366Z</time>
      </trkpt>
      <trkpt lat="37.24776" lon="-4.15177">
        <ele>826.378721</ele>
        <time>2022-09-02T12:53:36.754Z</time>
      </trkpt>
      <trkpt lat="37.24826" lon="-4.15183">
        <ele>826.186487</ele>
        <time>2022-09-02T12:53:49.953Z</time>
      </trkpt>
      <trkpt lat="37.24842" lon="-4.1519">
        <ele>826.121728</ele>
        <time>2022-09-02T12:53:53.739Z</time>
      </trkpt>
      <trkpt lat="37.24896" lon="-4.15237">
        <ele>824.540913</ele>
        <time>2022-09-02T12:54:09.315Z</time>
      </trkpt>
      <trkpt lat="37.24913" lon="-4.15243">
        <ele>824.042916</ele>
        <time>2022-09-02T12:54:13.693Z</time>
      </trkpt>
      <trkpt lat="37.24915" lon="-4.15282">
        <ele>823.169692</ele>
        <time>2022-09-02T12:54:19.251Z</time>
      </trkpt>
      <trkpt lat="37.24915" lon="-4.15288">
        <ele>823.039192</ele>
        <time>2022-09-02T12:54:20.208Z</time>
      </trkpt>
      <trkpt lat="37.24909" lon="-4.15316">
        <ele>822.410635</ele>
        <time>2022-09-02T12:54:23.858Z</time>
      </trkpt>
      <trkpt lat="37.2488" lon="-4.15344">
        <ele>821.374933</ele>
        <time>2022-09-02T12:54:29.854Z</time>
      </trkpt>
      <trkpt lat="37.24869" lon="-4.1536">
        <ele>820.420469</ele>
        <time>2022-09-02T12:54:32.476Z</time>
      </trkpt>
      <trkpt lat="37.24865" lon="-4.15375">
        <ele>819.10261</ele>
        <time>2022-09-02T12:54:34.257Z</time>
      </trkpt>
      <trkpt lat="37.24882" lon="-4.15513">
        <ele>807.264688</ele>
        <time>2022-09-02T12:54:49.808Z</time>
      </trkpt>
      <trkpt lat="37.24877" lon="-4.15533">
        <ele>805.504477</ele>
        <time>2022-09-02T12:54:52.083Z</time>
      </trkpt>
      <trkpt lat="37.24864" lon="-4.1555">
        <ele>803.437199</ele>
        <time>2022-09-02T12:54:54.736Z</time>
      </trkpt>
      <trkpt lat="37.24818" lon="-4.15561">
        <ele>797.933851</ele>
        <time>2022-09-02T12:55:01.058Z</time>
      </trkpt>
      <trkpt lat="37.24801" lon="-4.15578">
        <ele>795.244768</ele>
        <time>2022-09-02T12:55:04.014Z</time>
      </trkpt>
      <trkpt lat="37.2478" lon="-4.15673">
        <ele>785.522336</ele>
        <time>2022-09-02T12:55:14.756Z</time>
      </trkpt>
      <trkpt lat="37.24781" lon="-4.15687">
        <ele>784.1968</ele>
        <time>2022-09-02T12:55:16.221Z</time>
      </trkpt>
      <trkpt lat="37.24796" lon="-4.15717">
        <ele>780.675498</ele>
        <time>2022-09-02T12:55:20.229Z</time>
      </trkpt>
      <trkpt lat="37.24798" lon="-4.15748">
        <ele>778.341016</ele>
        <time>2022-09-02T12:55:23.703Z</time>
      </trkpt>
      <trkpt lat="37.24792" lon="-4.15765">
        <ele>777.176346</ele>
        <time>2022-09-02T12:55:25.831Z</time>
      </trkpt>
      <trkpt lat="37.24779" lon="-4.15777">
        <ele>775.902288</ele>
        <time>2022-09-02T12:55:28.119Z</time>
      </trkpt>
      <trkpt lat="37.24738" lon="-4.15797">
        <ele>772.486871</ele>
        <time>2022-09-02T12:55:34.443Z</time>
      </trkpt>
      <trkpt lat="37.24723" lon="-4.15809">
        <ele>771.033059</ele>
        <time>2022-09-02T12:55:37.129Z</time>
      </trkpt>
      <trkpt lat="37.24712" lon="-4.15826">
        <ele>769.684365</ele>
        <time>2022-09-02T12:55:39.700Z</time>
      </trkpt>
      <trkpt lat="37.24703" lon="-4.15853">
        <ele>767.870174</ele>
        <time>2022-09-02T12:55:43.165Z</time>
      </trkpt>
      <trkpt lat="37.24704" lon="-4.15895">
        <ele>765.376559</ele>
        <time>2022-09-02T12:55:48.433Z</time>
      </trkpt>
      <trkpt lat="37.24731" lon="-4.15992">
        <ele>762.591307</ele>
        <time>2022-09-02T12:56:02.200Z</time>
      </trkpt>
      <trkpt lat="37.24797" lon="-4.16069">
        <ele>759.517032</ele>
        <time>2022-09-02T12:56:18.922Z</time>
      </trkpt>
      <trkpt lat="37.24813" lon="-4.16063">
        <ele>758.551996</ele>
        <time>2022-09-02T12:56:21.672Z</time>
      </trkpt>
      <trkpt lat="37.24821" lon="-4.16051">
        <ele>757.744988</ele>
        <time>2022-09-02T12:56:23.731Z</time>
      </trkpt>
      <trkpt lat="37.24851" lon="-4.15972">
        <ele>753.130847</ele>
        <time>2022-09-02T12:56:34.456Z</time>
      </trkpt>
      <trkpt lat="37.2486" lon="-4.15966">
        <ele>752.446717</ele>
        <time>2022-09-02T12:56:35.968Z</time>
      </trkpt>
      <trkpt lat="37.24877" lon="-4.1597">
        <ele>751.277702</ele>
        <time>2022-09-02T12:56:38.522Z</time>
      </trkpt>
      <trkpt lat="37.24927" lon="-4.16129">
        <ele>740.695027</ele>
        <time>2022-09-02T12:56:58.172Z</time>
      </trkpt>
      <trkpt lat="37.24941" lon="-4.16216">
        <ele>734.572383</ele>
        <time>2022-09-02T12:57:08.389Z</time>
      </trkpt>
      <trkpt lat="37.24947" lon="-4.16222">
        <ele>733.893665</ele>
        <time>2022-09-02T12:57:09.524Z</time>
      </trkpt>
      <trkpt lat="37.24957" lon="-4.1622">
        <ele>733.035823</ele>
        <time>2022-09-02T12:57:10.999Z</time>
      </trkpt>
      <trkpt lat="37.24966" lon="-4.16212">
        <ele>732.074979</ele>
        <time>2022-09-02T12:57:12.649Z</time>
      </trkpt>
      <trkpt lat="37.24986" lon="-4.16166">
        <ele>729.543312</ele>
        <time>2022-09-02T12:57:18.899Z</time>
      </trkpt>
      <trkpt lat="37.24996" lon="-4.1616">
        <ele>728.900008</ele>
        <time>2022-09-02T12:57:20.534Z</time>
      </trkpt>
      <trkpt lat="37.25014" lon="-4.16165">
        <ele>727.775755</ele>
        <time>2022-09-02T12:57:23.509Z</time>
      </trkpt>
      <trkpt lat="37.25021" lon="-4.1618">
        <ele>726.986846</ele>
        <time>2022-09-02T12:57:25.555Z</time>
      </trkpt>
      <trkpt lat="37.25054" lon="-4.16314">
        <ele>720.553431</ele>
        <time>2022-09-02T12:57:43.234Z</time>
      </trkpt>
      <trkpt lat="37.25038" lon="-4.16373">
        <ele>718.313183</ele>
        <time>2022-09-02T12:57:51.022Z</time>
      </trkpt>
      <trkpt lat="37.25037" lon="-4.16402">
        <ele>717.269113</ele>
        <time>2022-09-02T12:57:54.787Z</time>
      </trkpt>
      <trkpt lat="37.25059" lon="-4.16459">
        <ele>715.027096</ele>
        <time>2022-09-02T12:58:02.907Z</time>
      </trkpt>
      <trkpt lat="37.25068" lon="-4.16466">
        <ele>714.532612</ele>
        <time>2022-09-02T12:58:04.757Z</time>
      </trkpt>
      <trkpt lat="37.25091" lon="-4.16464">
        <ele>713.497231</ele>
        <time>2022-09-02T12:58:08.573Z</time>
      </trkpt>
      <trkpt lat="37.25142" lon="-4.16416">
        <ele>710.07145</ele>
        <time>2022-09-02T12:58:19.471Z</time>
      </trkpt>
      <trkpt lat="37.25162" lon="-4.16417">
        <ele>708.970759</ele>
        <time>2022-09-02T12:58:22.779Z</time>
      </trkpt>
      <trkpt lat="37.25172" lon="-4.16426">
        <ele>708.28007</ele>
        <time>2022-09-02T12:58:24.848Z</time>
      </trkpt>
      <trkpt lat="37.25176" lon="-4.16439">
        <ele>707.696906</ele>
        <time>2022-09-02T12:58:26.593Z</time>
      </trkpt>
      <trkpt lat="37.25175" lon="-4.16484">
        <ele>705.719541</ele>
        <time>2022-09-02T12:58:32.045Z</time>
      </trkpt>
      <trkpt lat="37.25179" lon="-4.165">
        <ele>705.007882</ele>
        <time>2022-09-02T12:58:34.009Z</time>
      </trkpt>
      <trkpt lat="37.25201" lon="-4.16534">
        <ele>702.972097</ele>
        <time>2022-09-02T12:58:39.200Z</time>
      </trkpt>
      <trkpt lat="37.25242" lon="-4.16575">
        <ele>698.683094</ele>
        <time>2022-09-02T12:58:46.634Z</time>
      </trkpt>
      <trkpt lat="37.2525" lon="-4.16589">
        <ele>697.559956</ele>
        <time>2022-09-02T12:58:48.604Z</time>
      </trkpt>
      <trkpt lat="37.2526" lon="-4.16626">
        <ele>694.986207</ele>
        <time>2022-09-02T12:58:53.007Z</time>
      </trkpt>
      <trkpt lat="37.25282" lon="-4.16813">
        <ele>685.540843</ele>
        <time>2022-09-02T12:59:15.581Z</time>
      </trkpt>
      <trkpt lat="37.25312" lon="-4.16812">
        <ele>684.316159</ele>
        <time>2022-09-02T12:59:20.665Z</time>
      </trkpt>
      <trkpt lat="37.25328" lon="-4.16819">
        <ele>683.613194</ele>
        <time>2022-09-02T12:59:23.858Z</time>
      </trkpt>
      <trkpt lat="37.25367" lon="-4.16814">
        <ele>681.981706</ele>
        <time>2022-09-02T12:59:30.892Z</time>
      </trkpt>
      <trkpt lat="37.25401" lon="-4.16828">
        <ele>680.61395</ele>
        <time>2022-09-02T12:59:37.631Z</time>
      </trkpt>
      <trkpt lat="37.2543" lon="-4.16846">
        <ele>679.50059</ele>
        <time>2022-09-02T12:59:44.433Z</time>
      </trkpt>
      <trkpt lat="37.25434" lon="-4.16861">
        <ele>679.074512</ele>
        <time>2022-09-02T12:59:46.818Z</time>
      </trkpt>
      <trkpt lat="37.25481" lon="-4.16896">
        <ele>677.199672</ele>
        <time>2022-09-02T12:59:56.524Z</time>
      </trkpt>
      <trkpt lat="37.25516" lon="-4.16916">
        <ele>675.896179</ele>
        <time>2022-09-02T13:00:02.570Z</time>
      </trkpt>
      <trkpt lat="37.25529" lon="-4.16928">
        <ele>675.338157</ele>
        <time>2022-09-02T13:00:05.065Z</time>
      </trkpt>
      <trkpt lat="37.25542" lon="-4.16932">
        <ele>674.864063</ele>
        <time>2022-09-02T13:00:07.136Z</time>
      </trkpt>
      <trkpt lat="37.25578" lon="-4.16953">
        <ele>672.204192</ele>
        <time>2022-09-02T13:00:13.083Z</time>
      </trkpt>
      <trkpt lat="37.25583" lon="-4.16963">
        <ele>671.558419</ele>
        <time>2022-09-02T13:00:14.522Z</time>
      </trkpt>
      <trkpt lat="37.25587" lon="-4.16983">
        <ele>670.47116</ele>
        <time>2022-09-02T13:00:16.940Z</time>
      </trkpt>
      <trkpt lat="37.25599" lon="-4.17">
        <ele>669.267662</ele>
        <time>2022-09-02T13:00:19.670Z</time>
      </trkpt>
      <trkpt lat="37.25636" lon="-4.17056">
        <ele>665.377332</ele>
        <time>2022-09-02T13:00:28.369Z</time>
      </trkpt>
      <trkpt lat="37.25656" lon="-4.17087">
        <ele>663.250042</ele>
        <time>2022-09-02T13:00:33.116Z</time>
      </trkpt>
      <trkpt lat="37.25677" lon="-4.17137">
        <ele>661.119211</ele>
        <time>2022-09-02T13:00:40.002Z</time>
      </trkpt>
      <trkpt lat="37.25694" lon="-4.17221">
        <ele>658.010334</ele>
        <time>2022-09-02T13:00:51.019Z</time>
      </trkpt>
      <trkpt lat="37.25704" lon="-4.1724">
        <ele>657.189478</ele>
        <time>2022-09-02T13:00:54.058Z</time>
      </trkpt>
      <trkpt lat="37.25712" lon="-4.17246">
        <ele>656.777726</ele>
        <time>2022-09-02T13:00:55.539Z</time>
      </trkpt>
      <trkpt lat="37.25715" lon="-4.17247">
        <ele>656.649803</ele>
        <time>2022-09-02T13:00:55.994Z</time>
      </trkpt>
      <trkpt lat="37.25733" lon="-4.1725">
        <ele>655.832217</ele>
        <time>2022-09-02T13:00:59.308Z</time>
      </trkpt>
      <trkpt lat="37.2585" lon="-4.17225">
        <ele>651.66915</ele>
        <time>2022-09-02T13:01:20.734Z</time>
      </trkpt>
      <trkpt lat="37.2587" lon="-4.17224">
        <ele>650.993879</ele>
        <time>2022-09-02T13:01:24.680Z</time>
      </trkpt>
      <trkpt lat="37.25878" lon="-4.17229">
        <ele>650.724266</ele>
        <time>2022-09-02T13:01:26.022Z</time>
      </trkpt>
      <trkpt lat="37.25881" lon="-4.17242">
        <ele>650.366911</ele>
        <time>2022-09-02T13:01:27.772Z</time>
      </trkpt>
      <trkpt lat="37.25839" lon="-4.17271">
        <ele>648.551738</ele>
        <time>2022-09-02T13:01:35.598Z</time>
      </trkpt>
      <trkpt lat="37.25815" lon="-4.17302">
        <ele>645.384025</ele>
        <time>2022-09-02T13:01:40.818Z</time>
      </trkpt>
      <trkpt lat="37.25793" lon="-4.17345">
        <ele>641.62704</ele>
        <time>2022-09-02T13:01:46.823Z</time>
      </trkpt>
      <trkpt lat="37.25784" lon="-4.17378">
        <ele>639.031588</ele>
        <time>2022-09-02T13:01:50.803Z</time>
      </trkpt>
      <trkpt lat="37.2578" lon="-4.17424">
        <ele>635.621874</ele>
        <time>2022-09-02T13:01:55.956Z</time>
      </trkpt>
      <trkpt lat="37.25786" lon="-4.17466">
        <ele>632.436062</ele>
        <time>2022-09-02T13:02:00.665Z</time>
      </trkpt>
      <trkpt lat="37.25811" lon="-4.17529">
        <ele>624.795288</ele>
        <time>2022-09-02T13:02:08.229Z</time>
      </trkpt>
      <trkpt lat="37.25872" lon="-4.17642">
        <ele>609.641927</ele>
        <time>2022-09-02T13:02:23.009Z</time>
      </trkpt>
      <trkpt lat="37.25916" lon="-4.17706">
        <ele>601.079261</ele>
        <time>2022-09-02T13:02:32.119Z</time>
      </trkpt>
      <trkpt lat="37.25943" lon="-4.17732">
        <ele>596.835377</ele>
        <time>2022-09-02T13:02:36.802Z</time>
      </trkpt>
      <trkpt lat="37.26112" lon="-4.1781">
        <ele>576.146057</ele>
        <time>2022-09-02T13:03:01.734Z</time>
      </trkpt>
      <trkpt lat="37.26178" lon="-4.17848">
        <ele>568.55808</ele>
        <time>2022-09-02T13:03:12.106Z</time>
      </trkpt>
      <trkpt lat="37.26199" lon="-4.17871">
        <ele>565.74912</ele>
        <time>2022-09-02T13:03:16.116Z</time>
      </trkpt>
      <trkpt lat="37.26222" lon="-4.1791">
        <ele>562.517424</ele>
        <time>2022-09-02T13:03:21.670Z</time>
      </trkpt>
      <trkpt lat="37.26236" lon="-4.17946">
        <ele>559.814598</ele>
        <time>2022-09-02T13:03:26.348Z</time>
      </trkpt>
      <trkpt lat="37.26243" lon="-4.17995">
        <ele>556.474153</ele>
        <time>2022-09-02T13:03:32.175Z</time>
      </trkpt>
      <trkpt lat="37.26241" lon="-4.18147">
        <ele>545.140518</ele>
        <time>2022-09-02T13:03:49.984Z</time>
      </trkpt>
      <trkpt lat="37.26233" lon="-4.18195">
        <ele>541.044878</ele>
        <time>2022-09-02T13:03:55.458Z</time>
      </trkpt>
      <trkpt lat="37.26223" lon="-4.18229">
        <ele>537.967287</ele>
        <time>2022-09-02T13:03:59.547Z</time>
      </trkpt>
      <trkpt lat="37.26199" lon="-4.18261">
        <ele>534.31262</ele>
        <time>2022-09-02T13:04:04.369Z</time>
      </trkpt>
      <trkpt lat="37.25958" lon="-4.1846">
        <ele>496.533171</ele>
        <time>2022-09-02T13:04:43.636Z</time>
      </trkpt>
      <trkpt lat="37.2593" lon="-4.18495">
        <ele>491.305488</ele>
        <time>2022-09-02T13:04:49.058Z</time>
      </trkpt>
      <trkpt lat="37.25918" lon="-4.18543">
        <ele>485.999316</ele>
        <time>2022-09-02T13:04:54.547Z</time>
      </trkpt>
      <trkpt lat="37.25913" lon="-4.18576">
        <ele>483.018747</ele>
        <time>2022-09-02T13:04:58.231Z</time>
      </trkpt>
      <trkpt lat="37.2591" lon="-4.18724">
        <ele>472.136286</ele>
        <time>2022-09-02T13:05:14.963Z</time>
      </trkpt>
      <trkpt lat="37.25922" lon="-4.18757">
        <ele>469.440151</ele>
        <time>2022-09-02T13:05:19.213Z</time>
      </trkpt>
      <trkpt lat="37.25933" lon="-4.18766">
        <ele>468.267937</ele>
        <time>2022-09-02T13:05:21.144Z</time>
      </trkpt>
      <trkpt lat="37.2595" lon="-4.18767">
        <ele>467.434475</ele>
        <time>2022-09-02T13:05:23.739Z</time>
      </trkpt>
      <trkpt lat="37.25971" lon="-4.18758">
        <ele>466.926559</ele>
        <time>2022-09-02T13:05:27.198Z</time>
      </trkpt>
      <trkpt lat="37.26129" lon="-4.18645">
        <ele>464.24209</ele>
        <time>2022-09-02T13:06:03.055Z</time>
      </trkpt>
      <trkpt lat="37.26168" lon="-4.18622">
        <ele>465.098149</ele>
        <time>2022-09-02T13:06:16.907Z</time>
      </trkpt>
      <trkpt lat="37.26199" lon="-4.1863">
        <ele>465.718561</ele>
        <time>2022-09-02T13:06:27.507Z</time>
      </trkpt>
      <trkpt lat="37.26206" lon="-4.18642">
        <ele>465.949224</ele>
        <time>2022-09-02T13:06:32.527Z</time>
      </trkpt>
      <trkpt lat="37.26205" lon="-4.18665">
        <ele>466.312245</ele>
        <time>2022-09-02T13:06:38.644Z</time>
      </trkpt>
      <trkpt lat="37.26195" lon="-4.18686">
        <ele>466.705185</ele>
        <time>2022-09-02T13:06:46.920Z</time>
      </trkpt>
      <trkpt lat="37.26154" lon="-4.18749">
        <ele>469.753092</ele>
        <time>2022-09-02T13:07:15.065Z</time>
      </trkpt>
      <trkpt lat="37.26154" lon="-4.18778">
        <ele>471.115696</ele>
        <time>2022-09-02T13:07:23.420Z</time>
      </trkpt>
      <trkpt lat="37.26168" lon="-4.18789">
        <ele>472.099047</ele>
        <time>2022-09-02T13:07:30.734Z</time>
      </trkpt>
      <trkpt lat="37.26185" lon="-4.1879">
        <ele>473.153637</ele>
        <time>2022-09-02T13:07:38.843Z</time>
      </trkpt>
      <trkpt lat="37.26207" lon="-4.18782">
        <ele>474.507355</ele>
        <time>2022-09-02T13:07:50.448Z</time>
      </trkpt>
      <trkpt lat="37.26223" lon="-4.18787">
        <ele>475.435826</ele>
        <time>2022-09-02T13:07:59.532Z</time>
      </trkpt>
      <trkpt lat="37.26235" lon="-4.18805">
        <ele>476.570403</ele>
        <time>2022-09-02T13:08:10.905Z</time>
      </trkpt>
      <trkpt lat="37.26241" lon="-4.18836">
        <ele>478.441436</ele>
        <time>2022-09-02T13:08:28.287Z</time>
      </trkpt>
      <trkpt lat="37.26231" lon="-4.18875">
        <ele>482.693137</ele>
        <time>2022-09-02T13:08:52.713Z</time>
      </trkpt>
      <trkpt lat="37.26149" lon="-4.19079">
        <ele>506.324348</ele>
        <time>2022-09-02T13:11:46.626Z</time>
      </trkpt>
      <trkpt lat="37.26151" lon="-4.19122">
        <ele>510.463851</ele>
        <time>2022-09-02T13:12:19.481Z</time>
      </trkpt>
      <trkpt lat="37.26164" lon="-4.19141">
        <ele>512.8348</ele>
        <time>2022-09-02T13:12:36.782Z</time>
      </trkpt>
      <trkpt lat="37.26203" lon="-4.19147">
        <ele>517.57066</ele>
        <time>2022-09-02T13:13:07.361Z</time>
      </trkpt>
      <trkpt lat="37.26288" lon="-4.19097">
        <ele>527.927711</ele>
        <time>2022-09-02T13:14:07.848Z</time>
      </trkpt>
      <trkpt lat="37.26303" lon="-4.19074">
        <ele>530.325339</ele>
        <time>2022-09-02T13:14:23.494Z</time>
      </trkpt>
      <trkpt lat="37.26319" lon="-4.19015">
        <ele>535.369845</ele>
        <time>2022-09-02T13:14:57.909Z</time>
      </trkpt>
      <trkpt lat="37.26332" lon="-4.18996">
        <ele>537.376056</ele>
        <time>2022-09-02T13:15:13.999Z</time>
      </trkpt>
      <trkpt lat="37.26352" lon="-4.18982">
        <ele>539.733271</ele>
        <time>2022-09-02T13:15:33.752Z</time>
      </trkpt>
      <trkpt lat="37.26456" lon="-4.18946">
        <ele>552.893865</ele>
        <time>2022-09-02T13:17:05.856Z</time>
      </trkpt>
      <trkpt lat="37.26499" lon="-4.1895">
        <ele>558.328854</ele>
        <time>2022-09-02T13:17:44.887Z</time>
      </trkpt>
      <trkpt lat="37.26517" lon="-4.18962">
        <ele>560.969187</ele>
        <time>2022-09-02T13:18:02.851Z</time>
      </trkpt>
      <trkpt lat="37.26528" lon="-4.1899">
        <ele>564.108809</ele>
        <time>2022-09-02T13:18:24.085Z</time>
      </trkpt>
      <trkpt lat="37.26527" lon="-4.19108">
        <ele>573.248257</ele>
        <time>2022-09-02T13:19:37.545Z</time>
      </trkpt>
      <trkpt lat="37.26506" lon="-4.19389">
        <ele>590.28778</ele>
        <time>2022-09-02T13:21:54.828Z</time>
      </trkpt>
      <trkpt lat="37.26513" lon="-4.19449">
        <ele>592.694883</ele>
        <time>2022-09-02T13:22:13.147Z</time>
      </trkpt>
      <trkpt lat="37.26528" lon="-4.19467">
        <ele>592.216887</ele>
        <time>2022-09-02T13:22:19.529Z</time>
      </trkpt>
      <trkpt lat="37.26548" lon="-4.19477">
        <ele>591.707895</ele>
        <time>2022-09-02T13:22:24.338Z</time>
      </trkpt>
      <trkpt lat="37.26568" lon="-4.1948">
        <ele>591.233291</ele>
        <time>2022-09-02T13:22:28.274Z</time>
      </trkpt>
      <trkpt lat="37.26602" lon="-4.19476">
        <ele>590.443977</ele>
        <time>2022-09-02T13:22:34.106Z</time>
      </trkpt>
      <trkpt lat="37.26672" lon="-4.19429">
        <ele>588.438616</ele>
        <time>2022-09-02T13:22:46.611Z</time>
      </trkpt>
      <trkpt lat="37.26694" lon="-4.19424">
        <ele>587.105454</ele>
        <time>2022-09-02T13:22:49.930Z</time>
      </trkpt>
      <trkpt lat="37.26718" lon="-4.19426">
        <ele>585.631374</ele>
        <time>2022-09-02T13:22:53.604Z</time>
      </trkpt>
      <trkpt lat="37.26793" lon="-4.1945">
        <ele>580.857931</ele>
        <time>2022-09-02T13:23:05.489Z</time>
      </trkpt>
      <trkpt lat="37.26815" lon="-4.19448">
        <ele>579.499186</ele>
        <time>2022-09-02T13:23:08.789Z</time>
      </trkpt>
      <trkpt lat="37.26892" lon="-4.19388">
        <ele>573.824021</ele>
        <time>2022-09-02T13:23:22.677Z</time>
      </trkpt>
      <trkpt lat="37.26959" lon="-4.19368">
        <ele>569.547685</ele>
        <time>2022-09-02T13:23:33.338Z</time>
      </trkpt>
      <trkpt lat="37.27015" lon="-4.19355">
        <ele>565.959886</ele>
        <time>2022-09-02T13:23:42.034Z</time>
      </trkpt>
      <trkpt lat="37.27044" lon="-4.19324">
        <ele>563.530919</ele>
        <time>2022-09-02T13:23:47.695Z</time>
      </trkpt>
      <trkpt lat="37.27075" lon="-4.19261">
        <ele>559.808649</ele>
        <time>2022-09-02T13:23:56.494Z</time>
      </trkpt>
      <trkpt lat="37.27104" lon="-4.19247">
        <ele>557.832847</ele>
        <time>2022-09-02T13:24:01.264Z</time>
      </trkpt>
      <trkpt lat="37.27118" lon="-4.19248">
        <ele>556.92666</ele>
        <time>2022-09-02T13:24:03.483Z</time>
      </trkpt>
      <trkpt lat="37.27131" lon="-4.19256">
        <ele>556.011238</ele>
        <time>2022-09-02T13:24:05.690Z</time>
      </trkpt>
      <trkpt lat="37.27169" lon="-4.19301">
        <ele>552.344247</ele>
        <time>2022-09-02T13:24:13.915Z</time>
      </trkpt>
      <trkpt lat="37.27203" lon="-4.19323">
        <ele>549.482668</ele>
        <time>2022-09-02T13:24:19.828Z</time>
      </trkpt>
      <trkpt lat="37.27222" lon="-4.19321">
        <ele>548.110649</ele>
        <time>2022-09-02T13:24:22.588Z</time>
      </trkpt>
      <trkpt lat="37.27266" lon="-4.19304">
        <ele>544.680928</ele>
        <time>2022-09-02T13:24:29.468Z</time>
      </trkpt>
      <trkpt lat="37.273" lon="-4.19317">
        <ele>542.098935</ele>
        <time>2022-09-02T13:24:34.537Z</time>
      </trkpt>
      <trkpt lat="37.27312" lon="-4.19311">
        <ele>541.031721</ele>
        <time>2022-09-02T13:24:36.377Z</time>
      </trkpt>
      <trkpt lat="37.27404" lon="-4.19208">
        <ele>529.964726</ele>
        <time>2022-09-02T13:24:53.917Z</time>
      </trkpt>
      <trkpt lat="37.27431" lon="-4.19199">
        <ele>527.436152</ele>
        <time>2022-09-02T13:24:57.938Z</time>
      </trkpt>
      <trkpt lat="37.27446" lon="-4.19201">
        <ele>526.095265</ele>
        <time>2022-09-02T13:25:00.129Z</time>
      </trkpt>
      <trkpt lat="37.27455" lon="-4.1921">
        <ele>525.239084</ele>
        <time>2022-09-02T13:25:01.879Z</time>
      </trkpt>
      <trkpt lat="37.27492" lon="-4.19302">
        <ele>521.617198</ele>
        <time>2022-09-02T13:25:14.527Z</time>
      </trkpt>
      <trkpt lat="37.275" lon="-4.1931">
        <ele>521.167144</ele>
        <time>2022-09-02T13:25:16.371Z</time>
      </trkpt>
      <trkpt lat="37.27521" lon="-4.19306">
        <ele>520.232569</ele>
        <time>2022-09-02T13:25:19.887Z</time>
      </trkpt>
      <trkpt lat="37.27568" lon="-4.19272">
        <ele>517.808413</ele>
        <time>2022-09-02T13:25:30.440Z</time>
      </trkpt>
      <trkpt lat="37.27628" lon="-4.19251">
        <ele>514.187025</ele>
        <time>2022-09-02T13:25:41.810Z</time>
      </trkpt>
      <trkpt lat="37.27661" lon="-4.19222">
        <ele>511.792383</ele>
        <time>2022-09-02T13:25:48.239Z</time>
      </trkpt>
      <trkpt lat="37.27708" lon="-4.19166">
        <ele>507.903039</ele>
        <time>2022-09-02T13:25:57.762Z</time>
      </trkpt>
      <trkpt lat="37.27723" lon="-4.19159">
        <ele>506.983766</ele>
        <time>2022-09-02T13:25:59.907Z</time>
      </trkpt>
      <trkpt lat="37.27741" lon="-4.19158">
        <ele>505.022986</ele>
        <time>2022-09-02T13:26:02.468Z</time>
      </trkpt>
      <trkpt lat="37.27874" lon="-4.19211">
        <ele>488.080887</ele>
        <time>2022-09-02T13:26:21.836Z</time>
      </trkpt>
      <trkpt lat="37.27986" lon="-4.19235">
        <ele>475.435079</ele>
        <time>2022-09-02T13:26:37.193Z</time>
      </trkpt>
      <trkpt lat="37.28003" lon="-4.19244">
        <ele>473.377597</ele>
        <time>2022-09-02T13:26:39.805Z</time>
      </trkpt>
      <trkpt lat="37.28012" lon="-4.19261">
        <ele>471.634766</ele>
        <time>2022-09-02T13:26:42.029Z</time>
      </trkpt>
      <trkpt lat="37.28015" lon="-4.19285">
        <ele>469.552829</ele>
        <time>2022-09-02T13:26:44.731Z</time>
      </trkpt>
      <trkpt lat="37.2801" lon="-4.19312">
        <ele>467.098953</ele>
        <time>2022-09-02T13:26:48.249Z</time>
      </trkpt>
      <trkpt lat="37.27958" lon="-4.1941">
        <ele>464.244267</ele>
        <time>2022-09-02T13:27:03.142Z</time>
      </trkpt>
      <trkpt lat="37.27937" lon="-4.19452">
        <ele>463.678051</ele>
        <time>2022-09-02T13:27:10.384Z</time>
      </trkpt>
      <trkpt lat="37.27937" lon="-4.19466">
        <ele>463.5143</ele>
        <time>2022-09-02T13:27:17.119Z</time>
      </trkpt>
      <trkpt lat="37.27953" lon="-4.19486">
        <ele>463.194887</ele>
        <time>2022-09-02T13:27:21.803Z</time>
      </trkpt>
      <trkpt lat="37.27976" lon="-4.19502">
        <ele>462.816156</ele>
        <time>2022-09-02T13:27:33.070Z</time>
      </trkpt>
      <trkpt lat="37.28012" lon="-4.19514">
        <ele>464.684631</ele>
        <time>2022-09-02T13:27:48.780Z</time>
      </trkpt>
      <trkpt lat="37.28057" lon="-4.19544">
        <ele>467.469915</ele>
        <time>2022-09-02T13:28:18.848Z</time>
      </trkpt>
      <trkpt lat="37.28069" lon="-4.19563">
        <ele>468.514967</ele>
        <time>2022-09-02T13:28:32.713Z</time>
      </trkpt>
      <trkpt lat="37.28086" lon="-4.19611">
        <ele>470.832943</ele>
        <time>2022-09-02T13:28:53.797Z</time>
      </trkpt>
      <trkpt lat="37.28113" lon="-4.19627">
        <ele>472.507406</ele>
        <time>2022-09-02T13:29:05.672Z</time>
      </trkpt>
      <trkpt lat="37.28188" lon="-4.1964">
        <ele>476.63145</ele>
        <time>2022-09-02T13:29:37.938Z</time>
      </trkpt>
      <trkpt lat="37.28256" lon="-4.19644">
        <ele>480.353857</ele>
        <time>2022-09-02T13:30:12.208Z</time>
      </trkpt>
      <trkpt lat="37.28283" lon="-4.19652">
        <ele>481.856803</ele>
        <time>2022-09-02T13:30:28.851Z</time>
      </trkpt>
      <trkpt lat="37.28295" lon="-4.19662">
        <ele>482.739781</ele>
        <time>2022-09-02T13:30:37.333Z</time>
      </trkpt>
      <trkpt lat="37.28303" lon="-4.19687">
        <ele>484.656636</ele>
        <time>2022-09-02T13:30:49.450Z</time>
      </trkpt>
      <trkpt lat="37.28299" lon="-4.19703">
        <ele>485.842161</ele>
        <time>2022-09-02T13:30:57.428Z</time>
      </trkpt>
      <trkpt lat="37.28286" lon="-4.19714">
        <ele>487.219839</ele>
        <time>2022-09-02T13:31:05.341Z</time>
      </trkpt>
      <trkpt lat="37.28242" lon="-4.19724">
        <ele>491.162213</ele>
        <time>2022-09-02T13:31:35.154Z</time>
      </trkpt>
      <trkpt lat="37.28207" lon="-4.19741">
        <ele>494.448521</ele>
        <time>2022-09-02T13:32:01.162Z</time>
      </trkpt>
      <trkpt lat="37.28182" lon="-4.1974">
        <ele>496.704546</ele>
        <time>2022-09-02T13:32:17.394Z</time>
      </trkpt>
      <trkpt lat="37.28131" lon="-4.19725">
        <ele>502.260947</ele>
        <time>2022-09-02T13:32:58.170Z</time>
      </trkpt>
      <trkpt lat="37.2812" lon="-4.19733">
        <ele>503.716957</ele>
        <time>2022-09-02T13:33:08.999Z</time>
      </trkpt>
      <trkpt lat="37.28121" lon="-4.19746">
        <ele>504.920239</ele>
        <time>2022-09-02T13:33:20.680Z</time>
      </trkpt>
      <trkpt lat="37.28128" lon="-4.19754">
        <ele>506.042004</ele>
        <time>2022-09-02T13:33:30.853Z</time>
      </trkpt>
      <trkpt lat="37.28159" lon="-4.19773">
        <ele>510.045422</ele>
        <time>2022-09-02T13:34:00.183Z</time>
      </trkpt>
      <trkpt lat="37.28166" lon="-4.19787">
        <ele>511.57465</ele>
        <time>2022-09-02T13:34:08.864Z</time>
      </trkpt>
      <trkpt lat="37.28173" lon="-4.19815">
        <ele>514.288715</ele>
        <time>2022-09-02T13:34:29.435Z</time>
      </trkpt>
      <trkpt lat="37.28172" lon="-4.19839">
        <ele>516.50562</ele>
        <time>2022-09-02T13:34:41.399Z</time>
      </trkpt>
      <trkpt lat="37.28162" lon="-4.19885">
        <ele>520.714636</ele>
        <time>2022-09-02T13:35:09.981Z</time>
      </trkpt>
      <trkpt lat="37.28166" lon="-4.19903">
        <ele>522.220585</ele>
        <time>2022-09-02T13:35:23.231Z</time>
      </trkpt>
      <trkpt lat="37.28219" lon="-4.19998">
        <ele>531.266892</ele>
        <time>2022-09-02T13:36:32.397Z</time>
      </trkpt>
      <trkpt lat="37.28217" lon="-4.20019">
        <ele>532.874953</ele>
        <time>2022-09-02T13:36:48.216Z</time>
      </trkpt>
      <trkpt lat="37.28207" lon="-4.20025">
        <ele>533.993378</ele>
        <time>2022-09-02T13:36:56.563Z</time>
      </trkpt>
      <trkpt lat="37.28133" lon="-4.20037">
        <ele>539.318128</ele>
        <time>2022-09-02T13:37:35.323Z</time>
      </trkpt>
      <trkpt lat="37.28121" lon="-4.20036">
        <ele>539.923632</ele>
        <time>2022-09-02T13:37:40.746Z</time>
      </trkpt>
      <trkpt lat="37.28094" lon="-4.20019">
        <ele>541.457134</ele>
        <time>2022-09-02T13:37:53.790Z</time>
      </trkpt>
      <trkpt lat="37.28066" lon="-4.19973">
        <ele>543.839497</ele>
        <time>2022-09-02T13:38:16.341Z</time>
      </trkpt>
      <trkpt lat="37.28045" lon="-4.19952">
        <ele>545.23071</ele>
        <time>2022-09-02T13:38:28.384Z</time>
      </trkpt>
      <trkpt lat="37.28046" lon="-4.19922">
        <ele>546.437916</ele>
        <time>2022-09-02T13:38:38.550Z</time>
      </trkpt>
      <trkpt lat="37.28073" lon="-4.19867">
        <ele>548.41481</ele>
        <time>2022-09-02T13:38:57.180Z</time>
      </trkpt>
      <trkpt lat="37.28073" lon="-4.19855">
        <ele>548.793722</ele>
        <time>2022-09-02T13:39:01.167Z</time>
      </trkpt>
      <trkpt lat="37.28067" lon="-4.19844">
        <ele>549.198112</ele>
        <time>2022-09-02T13:39:05.032Z</time>
      </trkpt>
      <trkpt lat="37.28056" lon="-4.19839">
        <ele>549.659321</ele>
        <time>2022-09-02T13:39:09.731Z</time>
      </trkpt>
      <trkpt lat="37.28004" lon="-4.19842">
        <ele>551.671438</ele>
        <time>2022-09-02T13:39:30.343Z</time>
      </trkpt>
      <trkpt lat="37.27963" lon="-4.19814">
        <ele>553.544536</ele>
        <time>2022-09-02T13:39:51.080Z</time>
      </trkpt>
      <trkpt lat="37.27894" lon="-4.19816">
        <ele>557.43865</ele>
        <time>2022-09-02T13:40:26.203Z</time>
      </trkpt>
      <trkpt lat="37.27792" lon="-4.19787">
        <ele>563.306679</ele>
        <time>2022-09-02T13:41:20.644Z</time>
      </trkpt>
      <trkpt lat="37.27772" lon="-4.19794">
        <ele>564.425704</ele>
        <time>2022-09-02T13:41:31.662Z</time>
      </trkpt>
      <trkpt lat="37.27738" lon="-4.19855">
        <ele>567.604228</ele>
        <time>2022-09-02T13:42:00.399Z</time>
      </trkpt>
      <trkpt lat="37.27729" lon="-4.19879">
        <ele>568.72455</ele>
        <time>2022-09-02T13:42:09.144Z</time>
      </trkpt>
      <trkpt lat="37.27724" lon="-4.19927">
        <ele>570.79683</ele>
        <time>2022-09-02T13:42:27.764Z</time>
      </trkpt>
      <trkpt lat="37.27714" lon="-4.19953">
        <ele>572.03645</ele>
        <time>2022-09-02T13:42:39.907Z</time>
      </trkpt>
      <trkpt lat="37.27694" lon="-4.19976">
        <ele>573.585011</ele>
        <time>2022-09-02T13:42:53.678Z</time>
      </trkpt>
      <trkpt lat="37.27667" lon="-4.19992">
        <ele>575.56048</ele>
        <time>2022-09-02T13:43:07.979Z</time>
      </trkpt>
      <trkpt lat="37.27639" lon="-4.2">
        <ele>577.493826</ele>
        <time>2022-09-02T13:43:22.502Z</time>
      </trkpt>
      <trkpt lat="37.27627" lon="-4.20011">
        <ele>578.495544</ele>
        <time>2022-09-02T13:43:31.239Z</time>
      </trkpt>
      <trkpt lat="37.2763" lon="-4.2004">
        <ele>580.057297</ele>
        <time>2022-09-02T13:43:44.233Z</time>
      </trkpt>
      <trkpt lat="37.27657" lon="-4.20089">
        <ele>583.227486</ele>
        <time>2022-09-02T13:44:12.075Z</time>
      </trkpt>
      <trkpt lat="37.27668" lon="-4.20135">
        <ele>585.757096</ele>
        <time>2022-09-02T13:44:35.249Z</time>
      </trkpt>
      <trkpt lat="37.27666" lon="-4.20167">
        <ele>587.494755</ele>
        <time>2022-09-02T13:44:52.101Z</time>
      </trkpt>
      <trkpt lat="37.27659" lon="-4.20199">
        <ele>589.268619</ele>
        <time>2022-09-02T13:45:09.494Z</time>
      </trkpt>
      <trkpt lat="37.27634" lon="-4.20249">
        <ele>592.386496</ele>
        <time>2022-09-02T13:45:36.274Z</time>
      </trkpt>
      <trkpt lat="37.2762" lon="-4.20293">
        <ele>594.923815</ele>
        <time>2022-09-02T13:45:56.422Z</time>
      </trkpt>
      <trkpt lat="37.27617" lon="-4.20366">
        <ele>597.681736</ele>
        <time>2022-09-02T13:46:23.813Z</time>
      </trkpt>
      <trkpt lat="37.27664" lon="-4.20449">
        <ele>599.650658</ele>
        <time>2022-09-02T13:46:53.636Z</time>
      </trkpt>
      <trkpt lat="37.27668" lon="-4.20461">
        <ele>599.899983</ele>
        <time>2022-09-02T13:46:56.733Z</time>
      </trkpt>
      <trkpt lat="37.27662" lon="-4.205">
        <ele>600.661299</ele>
        <time>2022-09-02T13:47:05.058Z</time>
      </trkpt>
      <trkpt lat="37.27667" lon="-4.20548">
        <ele>601.398477</ele>
        <time>2022-09-02T13:47:14.279Z</time>
      </trkpt>
      <trkpt lat="37.2769" lon="-4.20719">
        <ele>601.308896</ele>
        <time>2022-09-02T13:47:44.032Z</time>
      </trkpt>
      <trkpt lat="37.27705" lon="-4.2076">
        <ele>601.31562</ele>
        <time>2022-09-02T13:47:51.774Z</time>
      </trkpt>
      <trkpt lat="37.27735" lon="-4.20802">
        <ele>602.042974</ele>
        <time>2022-09-02T13:48:01.864Z</time>
      </trkpt>
      <trkpt lat="37.27742" lon="-4.2082">
        <ele>602.28685</ele>
        <time>2022-09-02T13:48:05.417Z</time>
      </trkpt>
      <trkpt lat="37.27739" lon="-4.20857">
        <ele>602.765693</ele>
        <time>2022-09-02T13:48:13.808Z</time>
      </trkpt>
      <trkpt lat="37.27718" lon="-4.20921">
        <ele>603.63532</ele>
        <time>2022-09-02T13:48:33.039Z</time>
      </trkpt>
      <trkpt lat="37.27713" lon="-4.20991">
        <ele>605.326144</ele>
        <time>2022-09-02T13:48:54.024Z</time>
      </trkpt>
      <trkpt lat="37.27704" lon="-4.21021">
        <ele>606.582817</ele>
        <time>2022-09-02T13:49:04.014Z</time>
      </trkpt>
      <trkpt lat="37.27689" lon="-4.21087">
        <ele>609.324951</ele>
        <time>2022-09-02T13:49:29.167Z</time>
      </trkpt>
      <trkpt lat="37.27678" lon="-4.21091">
        <ele>609.912182</ele>
        <time>2022-09-02T13:49:34.945Z</time>
      </trkpt>
      <trkpt lat="37.27596" lon="-4.20996">
        <ele>615.965074</ele>
        <time>2022-09-02T13:50:37.397Z</time>
      </trkpt>
      <trkpt lat="37.2757" lon="-4.2098">
        <ele>617.669627</ele>
        <time>2022-09-02T13:50:52.991Z</time>
      </trkpt>
      <trkpt lat="37.27541" lon="-4.20983">
        <ele>619.371561</ele>
        <time>2022-09-02T13:51:06.601Z</time>
      </trkpt>
      <trkpt lat="37.27471" lon="-4.21052">
        <ele>624.948213</ele>
        <time>2022-09-02T13:51:49.547Z</time>
      </trkpt>
      <trkpt lat="37.27455" lon="-4.21044">
        <ele>626.284348</ele>
        <time>2022-09-02T13:52:00.310Z</time>
      </trkpt>
      <trkpt lat="37.27438" lon="-4.20996">
        <ele>629.53344</ele>
        <time>2022-09-02T13:52:24.050Z</time>
      </trkpt>
      <trkpt lat="37.27413" lon="-4.2097">
        <ele>632.096494</ele>
        <time>2022-09-02T13:52:44.208Z</time>
      </trkpt>
      <trkpt lat="37.27364" lon="-4.20984">
        <ele>636.0158</ele>
        <time>2022-09-02T13:53:18.496Z</time>
      </trkpt>
      <trkpt lat="37.27289" lon="-4.21048">
        <ele>643.21141</ele>
        <time>2022-09-02T13:54:20.264Z</time>
      </trkpt>
      <trkpt lat="37.27242" lon="-4.21061">
        <ele>647.019459</ele>
        <time>2022-09-02T13:54:52.060Z</time>
      </trkpt>
      <trkpt lat="37.27178" lon="-4.21049">
        <ele>652.125023</ele>
        <time>2022-09-02T13:55:29.820Z</time>
      </trkpt>
      <trkpt lat="37.27105" lon="-4.21163">
        <ele>657.256924</ele>
        <time>2022-09-02T13:56:19.257Z</time>
      </trkpt>
      <trkpt lat="37.27098" lon="-4.21287">
        <ele>661.792408</ele>
        <time>2022-09-02T13:56:59.297Z</time>
      </trkpt>
      <trkpt lat="37.27097" lon="-4.21374">
        <ele>665.28303</ele>
        <time>2022-09-02T13:57:32.649Z</time>
      </trkpt>
      <trkpt lat="37.27101" lon="-4.21436">
        <ele>667.785401</ele>
        <time>2022-09-02T13:57:57.869Z</time>
      </trkpt>
      <trkpt lat="37.27109" lon="-4.21482">
        <ele>669.812058</ele>
        <time>2022-09-02T13:58:16.632Z</time>
      </trkpt>
      <trkpt lat="37.2714" lon="-4.2156">
        <ele>674.23721</ele>
        <time>2022-09-02T13:58:52.098Z</time>
      </trkpt>
      <trkpt lat="37.272" lon="-4.21654">
        <ele>680.306724</ele>
        <time>2022-09-02T13:59:44.876Z</time>
      </trkpt>
      <trkpt lat="37.27212" lon="-4.21684">
        <ele>682.420373</ele>
        <time>2022-09-02T14:00:01.392Z</time>
      </trkpt>
      <trkpt lat="37.2722" lon="-4.21722">
        <ele>684.925452</ele>
        <time>2022-09-02T14:00:20.581Z</time>
      </trkpt>
      <trkpt lat="37.27236" lon="-4.219">
        <ele>696.324973</ele>
        <time>2022-09-02T14:01:52.346Z</time>
      </trkpt>
      <trkpt lat="37.27238" lon="-4.21988">
        <ele>701.568724</ele>
        <time>2022-09-02T14:02:36.831Z</time>
      </trkpt>
      <trkpt lat="37.27243" lon="-4.22258">
        <ele>717.033502</ele>
        <time>2022-09-02T14:04:36.988Z</time>
      </trkpt>
      <trkpt lat="37.27277" lon="-4.2241">
        <ele>727.222854</ele>
        <time>2022-09-02T14:05:51.591Z</time>
      </trkpt>
      <trkpt lat="37.2729" lon="-4.22519">
        <ele>735.115498</ele>
        <time>2022-09-02T14:06:51.706Z</time>
      </trkpt>
      <trkpt lat="37.27388" lon="-4.22869">
        <ele>766.496874</ele>
        <time>2022-09-02T14:10:50.473Z</time>
      </trkpt>
      <trkpt lat="37.27389" lon="-4.22898">
        <ele>768.637679</ele>
        <time>2022-09-02T14:11:07.284Z</time>
      </trkpt>
      <trkpt lat="37.27382" lon="-4.22944">
        <ele>772.071768</ele>
        <time>2022-09-02T14:11:29.810Z</time>
      </trkpt>
      <trkpt lat="37.27389" lon="-4.23017">
        <ele>775.498843</ele>
        <time>2022-09-02T14:11:56.377Z</time>
      </trkpt>
      <trkpt lat="37.27399" lon="-4.23063">
        <ele>776.586556</ele>
        <time>2022-09-02T14:12:10.838Z</time>
      </trkpt>
      <trkpt lat="37.27461" lon="-4.23156">
        <ele>779.326287</ele>
        <time>2022-09-02T14:12:40.241Z</time>
      </trkpt>
      <trkpt lat="37.2749" lon="-4.23195">
        <ele>781.204207</ele>
        <time>2022-09-02T14:12:53.164Z</time>
      </trkpt>
      <trkpt lat="37.27504" lon="-4.23211">
        <ele>782.250186</ele>
        <time>2022-09-02T14:12:59.011Z</time>
      </trkpt>
      <trkpt lat="37.27549" lon="-4.23264">
        <ele>785.519072</ele>
        <time>2022-09-02T14:13:23.575Z</time>
      </trkpt>
      <trkpt lat="37.2763" lon="-4.23399">
        <ele>794.327032</ele>
        <time>2022-09-02T14:14:56.586Z</time>
      </trkpt>
      <trkpt lat="37.27658" lon="-4.23427">
        <ele>797.183817</ele>
        <time>2022-09-02T14:15:21.047Z</time>
      </trkpt>
      <trkpt lat="37.27669" lon="-4.23475">
        <ele>800.313013</ele>
        <time>2022-09-02T14:15:46.601Z</time>
      </trkpt>
      <trkpt lat="37.2767" lon="-4.23515">
        <ele>802.827489</ele>
        <time>2022-09-02T14:16:05.588Z</time>
      </trkpt>
      <trkpt lat="37.27648" lon="-4.23756">
        <ele>808.51552</ele>
        <time>2022-09-02T14:17:15.649Z</time>
      </trkpt>
      <trkpt lat="37.27623" lon="-4.23831">
        <ele>807.777249</ele>
        <time>2022-09-02T14:17:27.917Z</time>
      </trkpt>
      <trkpt lat="37.27568" lon="-4.23922">
        <ele>806.749403</ele>
        <time>2022-09-02T14:17:44.075Z</time>
      </trkpt>
      <trkpt lat="37.27503" lon="-4.23987">
        <ele>807.553111</ele>
        <time>2022-09-02T14:18:01.422Z</time>
      </trkpt>
      <trkpt lat="37.27487" lon="-4.24046">
        <ele>808.383408</ele>
        <time>2022-09-02T14:18:17.808Z</time>
      </trkpt>
      <trkpt lat="37.27431" lon="-4.24175">
        <ele>810.048795</ele>
        <time>2022-09-02T14:19:05.241Z</time>
      </trkpt>
      <trkpt lat="37.27413" lon="-4.24228">
        <ele>810.568898</ele>
        <time>2022-09-02T14:19:23.377Z</time>
      </trkpt>
      <trkpt lat="37.27398" lon="-4.24257">
        <ele>810.877499</ele>
        <time>2022-09-02T14:19:33.410Z</time>
      </trkpt>
      <trkpt lat="37.27343" lon="-4.24316">
        <ele>810.188545</ele>
        <time>2022-09-02T14:19:47.007Z</time>
      </trkpt>
      <trkpt lat="37.27244" lon="-4.24396">
        <ele>799.704648</ele>
        <time>2022-09-02T14:20:04.144Z</time>
      </trkpt>
      <trkpt lat="37.27243" lon="-4.24423">
        <ele>797.753349</ele>
        <time>2022-09-02T14:20:07.114Z</time>
      </trkpt>
      <trkpt lat="37.2726" lon="-4.24617">
        <ele>778.490343</ele>
        <time>2022-09-02T14:20:28.111Z</time>
      </trkpt>
      <trkpt lat="37.2725" lon="-4.24702">
        <ele>770.217601</ele>
        <time>2022-09-02T14:20:37.631Z</time>
      </trkpt>
      <trkpt lat="37.27249" lon="-4.2473">
        <ele>768.001619</ele>
        <time>2022-09-02T14:20:40.807Z</time>
      </trkpt>
      <trkpt lat="37.27243" lon="-4.24738">
        <ele>767.208979</ele>
        <time>2022-09-02T14:20:41.945Z</time>
      </trkpt>
      <trkpt lat="37.2723" lon="-4.24746">
        <ele>765.73838</ele>
        <time>2022-09-02T14:20:44.075Z</time>
      </trkpt>
      <trkpt lat="37.27214" lon="-4.24747">
        <ele>764.153093</ele>
        <time>2022-09-02T14:20:46.346Z</time>
      </trkpt>
      <trkpt lat="37.27205" lon="-4.24762">
        <ele>762.714247</ele>
        <time>2022-09-02T14:20:48.433Z</time>
      </trkpt>
      <trkpt lat="37.27207" lon="-4.24784">
        <ele>761.011453</ele>
        <time>2022-09-02T14:20:50.879Z</time>
      </trkpt>
      <trkpt lat="37.27225" lon="-4.24821">
        <ele>757.546129</ele>
        <time>2022-09-02T14:20:55.930Z</time>
      </trkpt>
      <trkpt lat="37.2724" lon="-4.24933">
        <ele>750.072902</ele>
        <time>2022-09-02T14:21:09.310Z</time>
      </trkpt>
      <trkpt lat="37.27275" lon="-4.25024">
        <ele>744.055713</ele>
        <time>2022-09-02T14:21:21.175Z</time>
      </trkpt>
      <trkpt lat="37.27272" lon="-4.2505">
        <ele>742.452042</ele>
        <time>2022-09-02T14:21:24.348Z</time>
      </trkpt>
      <trkpt lat="37.27223" lon="-4.25119">
        <ele>737.7647</ele>
        <time>2022-09-02T14:21:35.354Z</time>
      </trkpt>
      <trkpt lat="37.27179" lon="-4.25193">
        <ele>733.403889</ele>
        <time>2022-09-02T14:21:46.815Z</time>
      </trkpt>
      <trkpt lat="37.27158" lon="-4.25219">
        <ele>731.629008</ele>
        <time>2022-09-02T14:21:51.476Z</time>
      </trkpt>
      <trkpt lat="37.27141" lon="-4.2527">
        <ele>729.199775</ele>
        <time>2022-09-02T14:21:58.450Z</time>
      </trkpt>
      <trkpt lat="37.27082" lon="-4.25354">
        <ele>724.882748</ele>
        <time>2022-09-02T14:22:12.662Z</time>
      </trkpt>
      <trkpt lat="37.27077" lon="-4.25415">
        <ele>722.496702</ele>
        <time>2022-09-02T14:22:20.606Z</time>
      </trkpt>
      <trkpt lat="37.27104" lon="-4.255">
        <ele>716.485466</ele>
        <time>2022-09-02T14:22:32.236Z</time>
      </trkpt>
      <trkpt lat="37.27102" lon="-4.2553">
        <ele>714.098708</ele>
        <time>2022-09-02T14:22:35.757Z</time>
      </trkpt>
      <trkpt lat="37.27088" lon="-4.25544">
        <ele>712.310322</ele>
        <time>2022-09-02T14:22:38.282Z</time>
      </trkpt>
      <trkpt lat="37.27062" lon="-4.25546">
        <ele>709.822741</ele>
        <time>2022-09-02T14:22:41.795Z</time>
      </trkpt>
      <trkpt lat="37.27001" lon="-4.25586">
        <ele>702.865361</ele>
        <time>2022-09-02T14:22:51.193Z</time>
      </trkpt>
      <trkpt lat="37.26975" lon="-4.25617">
        <ele>698.166717</ele>
        <time>2022-09-02T14:22:56.127Z</time>
      </trkpt>
      <trkpt lat="37.26953" lon="-4.25655">
        <ele>693.322599</ele>
        <time>2022-09-02T14:23:01.200Z</time>
      </trkpt>
      <trkpt lat="37.26942" lon="-4.25695">
        <ele>688.970662</ele>
        <time>2022-09-02T14:23:05.754Z</time>
      </trkpt>
      <trkpt lat="37.26952" lon="-4.25755">
        <ele>682.699013</ele>
        <time>2022-09-02T14:23:12.331Z</time>
      </trkpt>
      <trkpt lat="37.26913" lon="-4.25848">
        <ele>674.448495</ele>
        <time>2022-09-02T14:23:24.183Z</time>
      </trkpt>
      <trkpt lat="37.26938" lon="-4.25906">
        <ele>669.714757</ele>
        <time>2022-09-02T14:23:32.175Z</time>
      </trkpt>
      <trkpt lat="37.26938" lon="-4.25937">
        <ele>667.534511</ele>
        <time>2022-09-02T14:23:35.726Z</time>
      </trkpt>
      <trkpt lat="37.26931" lon="-4.2596">
        <ele>665.752251</ele>
        <time>2022-09-02T14:23:38.634Z</time>
      </trkpt>
      <trkpt lat="37.26912" lon="-4.25991">
        <ele>662.65552</ele>
        <time>2022-09-02T14:23:43.229Z</time>
      </trkpt>
      <trkpt lat="37.26925" lon="-4.26085">
        <ele>654.510473</ele>
        <time>2022-09-02T14:23:53.953Z</time>
      </trkpt>
      <trkpt lat="37.2692" lon="-4.26119">
        <ele>651.582069</ele>
        <time>2022-09-02T14:23:57.703Z</time>
      </trkpt>
      <trkpt lat="37.26904" lon="-4.26179">
        <ele>646.200815</ele>
        <time>2022-09-02T14:24:04.636Z</time>
      </trkpt>
      <trkpt lat="37.26865" lon="-4.26267">
        <ele>639.600169</ele>
        <time>2022-09-02T14:24:15.948Z</time>
      </trkpt>
      <trkpt lat="37.26819" lon="-4.26313">
        <ele>635.057749</ele>
        <time>2022-09-02T14:24:24.524Z</time>
      </trkpt>
      <trkpt lat="37.26806" lon="-4.26333">
        <ele>633.387448</ele>
        <time>2022-09-02T14:24:27.835Z</time>
      </trkpt>
      <trkpt lat="37.26806" lon="-4.2635">
        <ele>632.33878</ele>
        <time>2022-09-02T14:24:29.933Z</time>
      </trkpt>
      <trkpt lat="37.26816" lon="-4.26373">
        <ele>630.928429</ele>
        <time>2022-09-02T14:24:33.484Z</time>
      </trkpt>
      <trkpt lat="37.26815" lon="-4.26397">
        <ele>630.752847</ele>
        <time>2022-09-02T14:24:36.825Z</time>
      </trkpt>
      <trkpt lat="37.268" lon="-4.26421">
        <ele>630.521936</ele>
        <time>2022-09-02T14:24:41.800Z</time>
      </trkpt>
      <trkpt lat="37.26792" lon="-4.2645">
        <ele>630.298808</ele>
        <time>2022-09-02T14:24:47.435Z</time>
      </trkpt>
      <trkpt lat="37.268" lon="-4.26538">
        <ele>629.638553</ele>
        <time>2022-09-02T14:25:05.996Z</time>
      </trkpt>
      <trkpt lat="37.26792" lon="-4.26576">
        <ele>629.348313</ele>
        <time>2022-09-02T14:25:12.369Z</time>
      </trkpt>
      <trkpt lat="37.26769" lon="-4.26631">
        <ele>628.838752</ele>
        <time>2022-09-02T14:25:21.802Z</time>
      </trkpt>
      <trkpt lat="37.26768" lon="-4.26667">
        <ele>628.542226</ele>
        <time>2022-09-02T14:25:27.382Z</time>
      </trkpt>
      <trkpt lat="37.26781" lon="-4.26714">
        <ele>628.129599</ele>
        <time>2022-09-02T14:25:35.109Z</time>
      </trkpt>
      <trkpt lat="37.26753" lon="-4.26787">
        <ele>627.46012</ele>
        <time>2022-09-02T14:25:47.624Z</time>
      </trkpt>
      <trkpt lat="37.26749" lon="-4.26829">
        <ele>627.527115</ele>
        <time>2022-09-02T14:25:54.662Z</time>
      </trkpt>
      <trkpt lat="37.2673" lon="-4.26865">
        <ele>627.652016</ele>
        <time>2022-09-02T14:26:01.864Z</time>
      </trkpt>
      <trkpt lat="37.26699" lon="-4.269">
        <ele>627.805718</ele>
        <time>2022-09-02T14:26:11.164Z</time>
      </trkpt>
      <trkpt lat="37.26689" lon="-4.26918">
        <ele>627.869545</ele>
        <time>2022-09-02T14:26:16.195Z</time>
      </trkpt>
      <trkpt lat="37.26693" lon="-4.26937">
        <ele>627.926223</ele>
        <time>2022-09-02T14:26:20.335Z</time>
      </trkpt>
      <trkpt lat="37.26713" lon="-4.2695">
        <ele>628.009986</ele>
        <time>2022-09-02T14:26:28.004Z</time>
      </trkpt>
      <trkpt lat="37.26752" lon="-4.26962">
        <ele>628.23199</ele>
        <time>2022-09-02T14:26:40.407Z</time>
      </trkpt>
      <trkpt lat="37.26756" lon="-4.26973">
        <ele>628.295976</ele>
        <time>2022-09-02T14:26:42.953Z</time>
      </trkpt>
      <trkpt lat="37.2672" lon="-4.27004">
        <ele>628.597905</ele>
        <time>2022-09-02T14:26:55.675Z</time>
      </trkpt>
      <trkpt lat="37.2672" lon="-4.27035">
        <ele>628.767301</ele>
        <time>2022-09-02T14:27:02.706Z</time>
      </trkpt>
      <trkpt lat="37.26744" lon="-4.27081">
        <ele>629.073469</ele>
        <time>2022-09-02T14:27:12.808Z</time>
      </trkpt>
      <trkpt lat="37.26791" lon="-4.27193">
        <ele>629.356833</ele>
        <time>2022-09-02T14:27:33.621Z</time>
      </trkpt>
      <trkpt lat="37.26807" lon="-4.27376">
        <ele>629.473546</ele>
        <time>2022-09-02T14:28:08.774Z</time>
      </trkpt>
      <trkpt lat="37.26804" lon="-4.27398">
        <ele>629.515851</ele>
        <time>2022-09-02T14:28:12.784Z</time>
      </trkpt>
      <trkpt lat="37.26785" lon="-4.27399">
        <ele>629.559984</ele>
        <time>2022-09-02T14:28:18.259Z</time>
      </trkpt>
      <trkpt lat="37.26679" lon="-4.27347">
        <ele>629.771841</ele>
        <time>2022-09-02T14:28:45.389Z</time>
      </trkpt>
      <trkpt lat="37.26632" lon="-4.27367">
        <ele>628.116204</ele>
        <time>2022-09-02T14:28:56.017Z</time>
      </trkpt>
      <trkpt lat="37.26624" lon="-4.27381">
        <ele>627.678048</ele>
        <time>2022-09-02T14:28:58.216Z</time>
      </trkpt>
      <trkpt lat="37.26629" lon="-4.27403">
        <ele>627.063255</ele>
        <time>2022-09-02T14:29:01.320Z</time>
      </trkpt>
      <trkpt lat="37.26661" lon="-4.27425">
        <ele>625.853154</ele>
        <time>2022-09-02T14:29:07.198Z</time>
      </trkpt>
      <trkpt lat="37.26688" lon="-4.27507">
        <ele>623.019842</ele>
        <time>2022-09-02T14:29:18.407Z</time>
      </trkpt>
      <trkpt lat="37.26693" lon="-4.2756">
        <ele>619.686828</ele>
        <time>2022-09-02T14:29:24.800Z</time>
      </trkpt>
      <trkpt lat="37.26672" lon="-4.27628">
        <ele>615.097037</ele>
        <time>2022-09-02T14:29:33.448Z</time>
      </trkpt>
      <trkpt lat="37.26638" lon="-4.27676">
        <ele>611.092222</ele>
        <time>2022-09-02T14:29:40.706Z</time>
      </trkpt>
      <trkpt lat="37.26612" lon="-4.2769">
        <ele>608.547502</ele>
        <time>2022-09-02T14:29:44.698Z</time>
      </trkpt>
      <trkpt lat="37.26489" lon="-4.27715">
        <ele>594.476781</ele>
        <time>2022-09-02T14:30:02.218Z</time>
      </trkpt>
      <trkpt lat="37.26473" lon="-4.27827">
        <ele>583.211108</ele>
        <time>2022-09-02T14:30:14.654Z</time>
      </trkpt>
      <trkpt lat="37.26464" lon="-4.27842">
        <ele>581.181736</ele>
        <time>2022-09-02T14:30:16.693Z</time>
      </trkpt>
      <trkpt lat="37.26388" lon="-4.27894">
        <ele>569.417574</ele>
        <time>2022-09-02T14:30:28.557Z</time>
      </trkpt>
      <trkpt lat="37.26382" lon="-4.27954">
        <ele>562.861319</ele>
        <time>2022-09-02T14:30:34.988Z</time>
      </trkpt>
      <trkpt lat="37.26358" lon="-4.28052">
        <ele>551.807992</ele>
        <time>2022-09-02T14:30:46.078Z</time>
      </trkpt>
      <trkpt lat="37.26341" lon="-4.28083">
        <ele>547.750276</ele>
        <time>2022-09-02T14:30:50.147Z</time>
      </trkpt>
      <trkpt lat="37.26327" lon="-4.28086">
        <ele>545.836447</ele>
        <time>2022-09-02T14:30:52.127Z</time>
      </trkpt>
      <trkpt lat="37.2632" lon="-4.28078">
        <ele>544.621408</ele>
        <time>2022-09-02T14:30:53.341Z</time>
      </trkpt>
      <trkpt lat="37.26318" lon="-4.28041">
        <ele>540.595183</ele>
        <time>2022-09-02T14:30:57.461Z</time>
      </trkpt>
      <trkpt lat="37.26307" lon="-4.28024">
        <ele>538.611499</ele>
        <time>2022-09-02T14:30:59.769Z</time>
      </trkpt>
      <trkpt lat="37.26265" lon="-4.28">
        <ele>533.183916</ele>
        <time>2022-09-02T14:31:06.272Z</time>
      </trkpt>
      <trkpt lat="37.26251" lon="-4.27952">
        <ele>528.492014</ele>
        <time>2022-09-02T14:31:11.894Z</time>
      </trkpt>
      <trkpt lat="37.26243" lon="-4.27942">
        <ele>527.104043</ele>
        <time>2022-09-02T14:31:13.644Z</time>
      </trkpt>
      <trkpt lat="37.26234" lon="-4.27938">
        <ele>526.005654</ele>
        <time>2022-09-02T14:31:14.986Z</time>
      </trkpt>
      <trkpt lat="37.26196" lon="-4.27954">
        <ele>521.352351</ele>
        <time>2022-09-02T14:31:20.545Z</time>
      </trkpt>
      <trkpt lat="37.26141" lon="-4.27962">
        <ele>513.85613</ele>
        <time>2022-09-02T14:31:28.058Z</time>
      </trkpt>
      <trkpt lat="37.2611" lon="-4.27938">
        <ele>508.625501</ele>
        <time>2022-09-02T14:31:32.950Z</time>
      </trkpt>
      <trkpt lat="37.26061" lon="-4.27922">
        <ele>501.406625</ele>
        <time>2022-09-02T14:31:39.705Z</time>
      </trkpt>
      <trkpt lat="37.26046" lon="-4.27911">
        <ele>498.951421</ele>
        <time>2022-09-02T14:31:42.058Z</time>
      </trkpt>
      <trkpt lat="37.26022" lon="-4.27882">
        <ele>494.085934</ele>
        <time>2022-09-02T14:31:46.632Z</time>
      </trkpt>
      <trkpt lat="37.26004" lon="-4.27878">
        <ele>491.761296</ele>
        <time>2022-09-02T14:31:48.994Z</time>
      </trkpt>
      <trkpt lat="37.25988" lon="-4.27896">
        <ele>488.956612</ele>
        <time>2022-09-02T14:31:51.935Z</time>
      </trkpt>
      <trkpt lat="37.25978" lon="-4.28001">
        <ele>478.073224</ele>
        <time>2022-09-02T14:32:03.323Z</time>
      </trkpt>
      <trkpt lat="37.25835" lon="-4.28112">
        <ele>460.574988</ele>
        <time>2022-09-02T14:32:27.167Z</time>
      </trkpt>
      <trkpt lat="37.25817" lon="-4.2812">
        <ele>458.843955</ele>
        <time>2022-09-02T14:32:29.973Z</time>
      </trkpt>
      <trkpt lat="37.25768" lon="-4.28144">
        <ele>454.126279</ele>
        <time>2022-09-02T14:32:37.800Z</time>
      </trkpt>
      <trkpt lat="37.25757" lon="-4.28163">
        <ele>453.034429</ele>
        <time>2022-09-02T14:32:40.552Z</time>
      </trkpt>
      <trkpt lat="37.25763" lon="-4.2818">
        <ele>452.135317</ele>
        <time>2022-09-02T14:32:42.823Z</time>
      </trkpt>
      <trkpt lat="37.25777" lon="-4.28188">
        <ele>451.192471</ele>
        <time>2022-09-02T14:32:45.223Z</time>
      </trkpt>
      <trkpt lat="37.25824" lon="-4.28188">
        <ele>448.419416</ele>
        <time>2022-09-02T14:32:52.399Z</time>
      </trkpt>
      <trkpt lat="37.25864" lon="-4.28199">
        <ele>445.967241</ele>
        <time>2022-09-02T14:32:58.797Z</time>
      </trkpt>
      <trkpt lat="37.25922" lon="-4.28239">
        <ele>442.123627</ele>
        <time>2022-09-02T14:33:09.331Z</time>
      </trkpt>
      <trkpt lat="37.25949" lon="-4.28272">
        <ele>440.112221</ele>
        <time>2022-09-02T14:33:15.106Z</time>
      </trkpt>
      <trkpt lat="37.25973" lon="-4.28322">
        <ele>437.636084</ele>
        <time>2022-09-02T14:33:22.195Z</time>
      </trkpt>
      <trkpt lat="37.26011" lon="-4.28401">
        <ele>433.821135</ele>
        <time>2022-09-02T14:33:33.721Z</time>
      </trkpt>
      <trkpt lat="37.26009" lon="-4.28426">
        <ele>433.768302</ele>
        <time>2022-09-02T14:33:37.083Z</time>
      </trkpt>
      <trkpt lat="37.25999" lon="-4.28447">
        <ele>433.718148</ele>
        <time>2022-09-02T14:33:40.588Z</time>
      </trkpt>
      <trkpt lat="37.2597" lon="-4.28416">
        <ele>433.617446</ele>
        <time>2022-09-02T14:33:48.170Z</time>
      </trkpt>
      <trkpt lat="37.25965" lon="-4.28426">
        <ele>433.591047</ele>
        <time>2022-09-02T14:33:50.039Z</time>
      </trkpt>
      <trkpt lat="37.25979" lon="-4.28454">
        <ele>433.521504</ele>
        <time>2022-09-02T14:33:57.402Z</time>
      </trkpt>
      <trkpt lat="37.25986" lon="-4.28482">
        <ele>433.459899</ele>
        <time>2022-09-02T14:34:03.790Z</time>
      </trkpt>
      <trkpt lat="37.25984" lon="-4.28566">
        <ele>434.887162</ele>
        <time>2022-09-02T14:34:28.532Z</time>
      </trkpt>
      <trkpt lat="37.25963" lon="-4.28585">
        <ele>436.350819</ele>
        <time>2022-09-02T14:34:39.711Z</time>
      </trkpt>
      <trkpt lat="37.25927" lon="-4.28592">
        <ele>438.401092</ele>
        <time>2022-09-02T14:34:59.132Z</time>
      </trkpt>
      <trkpt lat="37.25901" lon="-4.28615">
        <ele>440.212338</ele>
        <time>2022-09-02T14:35:17.190Z</time>
      </trkpt>
      <trkpt lat="37.25875" lon="-4.28668">
        <ele>443.051465</ele>
        <time>2022-09-02T14:35:45.774Z</time>
      </trkpt>
      <trkpt lat="37.25851" lon="-4.28749">
        <ele>447.736587</ele>
        <time>2022-09-02T14:36:25.881Z</time>
      </trkpt>
      <trkpt lat="37.2585" lon="-4.28815">
        <ele>451.449344</ele>
        <time>2022-09-02T14:36:58.292Z</time>
      </trkpt>
      <trkpt lat="37.25836" lon="-4.28915">
        <ele>456.83948</ele>
        <time>2022-09-02T14:37:43.956Z</time>
      </trkpt>
      <trkpt lat="37.25838" lon="-4.29031">
        <ele>461.272586</ele>
        <time>2022-09-02T14:38:26.187Z</time>
      </trkpt>
      <trkpt lat="37.2583" lon="-4.2906">
        <ele>462.465068</ele>
        <time>2022-09-02T14:38:36.045Z</time>
      </trkpt>
      <trkpt lat="37.25775" lon="-4.29111">
        <ele>466.132105</ele>
        <time>2022-09-02T14:39:04.343Z</time>
      </trkpt>
      <trkpt lat="37.25732" lon="-4.2912">
        <ele>469.156316</ele>
        <time>2022-09-02T14:39:25.772Z</time>
      </trkpt>
      <trkpt lat="37.257" lon="-4.29134">
        <ele>471.478815</ele>
        <time>2022-09-02T14:39:44.341Z</time>
      </trkpt>
      <trkpt lat="37.25689" lon="-4.29146">
        <ele>472.473454</ele>
        <time>2022-09-02T14:39:52.792Z</time>
      </trkpt>
      <trkpt lat="37.25676" lon="-4.29195">
        <ele>475.304224</ele>
        <time>2022-09-02T14:40:18.871Z</time>
      </trkpt>
      <trkpt lat="37.25656" lon="-4.29325">
        <ele>483.695289</ele>
        <time>2022-09-02T14:41:34.392Z</time>
      </trkpt>
      <trkpt lat="37.25624" lon="-4.29468">
        <ele>492.153147</ele>
        <time>2022-09-02T14:42:50.562Z</time>
      </trkpt>
      <trkpt lat="37.25597" lon="-4.29561">
        <ele>491.693397</ele>
        <time>2022-09-02T14:43:11.820Z</time>
      </trkpt>
      <trkpt lat="37.25594" lon="-4.29616">
        <ele>491.437137</ele>
        <time>2022-09-02T14:43:19.846Z</time>
      </trkpt>
      <trkpt lat="37.25612" lon="-4.29702">
        <ele>488.521482</ele>
        <time>2022-09-02T14:43:31.407Z</time>
      </trkpt>
      <trkpt lat="37.25643" lon="-4.29789">
        <ele>481.503231</ele>
        <time>2022-09-02T14:43:42.752Z</time>
      </trkpt>
      <trkpt lat="37.25646" lon="-4.29795">
        <ele>480.998079</ele>
        <time>2022-09-02T14:43:43.560Z</time>
      </trkpt>
      <trkpt lat="37.25669" lon="-4.29856">
        <ele>476.04675</ele>
        <time>2022-09-02T14:43:51.379Z</time>
      </trkpt>
      <trkpt lat="37.25669" lon="-4.29915">
        <ele>471.170359</ele>
        <time>2022-09-02T14:43:58.241Z</time>
      </trkpt>
      <trkpt lat="37.25669" lon="-4.29994">
        <ele>464.259082</ele>
        <time>2022-09-02T14:44:07.435Z</time>
      </trkpt>
      <trkpt lat="37.25675" lon="-4.30045">
        <ele>459.740814</ele>
        <time>2022-09-02T14:44:13.461Z</time>
      </trkpt>
      <trkpt lat="37.25692" lon="-4.3015">
        <ele>452.073571</ele>
        <time>2022-09-02T14:44:26.060Z</time>
      </trkpt>
      <trkpt lat="37.257" lon="-4.30202">
        <ele>449.24976</ele>
        <time>2022-09-02T14:44:32.377Z</time>
      </trkpt>
      <trkpt lat="37.25701" lon="-4.30247">
        <ele>446.852722</ele>
        <time>2022-09-02T14:44:38.006Z</time>
      </trkpt>
      <trkpt lat="37.25691" lon="-4.30307">
        <ele>443.61939</ele>
        <time>2022-09-02T14:44:46.313Z</time>
      </trkpt>
      <trkpt lat="37.25683" lon="-4.30341">
        <ele>443.800542</ele>
        <time>2022-09-02T14:44:52.241Z</time>
      </trkpt>
      <trkpt lat="37.25682" lon="-4.30348">
        <ele>444.202677</ele>
        <time>2022-09-02T14:44:53.866Z</time>
      </trkpt>
      <trkpt lat="37.2568" lon="-4.3036">
        <ele>444.878161</ele>
        <time>2022-09-02T14:44:57.075Z</time>
      </trkpt>
      <trkpt lat="37.2567" lon="-4.30357">
        <ele>445.609927</ele>
        <time>2022-09-02T14:44:59.772Z</time>
      </trkpt>
      <trkpt lat="37.25672" lon="-4.3039">
        <ele>447.474296</ele>
        <time>2022-09-02T14:45:12.415Z</time>
      </trkpt>
      <trkpt lat="37.25673" lon="-4.30402">
        <ele>448.15341</ele>
        <time>2022-09-02T14:45:16.649Z</time>
      </trkpt>
      <trkpt lat="37.25668" lon="-4.30443">
        <ele>450.51873</ele>
        <time>2022-09-02T14:45:36.570Z</time>
      </trkpt>
      <trkpt lat="37.25667" lon="-4.30492">
        <ele>453.280288</ele>
        <time>2022-09-02T14:46:05.996Z</time>
      </trkpt>
      <trkpt lat="37.25683" lon="-4.3058">
        <ele>462.411389</ele>
        <time>2022-09-02T14:47:18.433Z</time>
      </trkpt>
      <trkpt lat="37.2569" lon="-4.30659">
        <ele>473.215183</ele>
        <time>2022-09-02T14:48:34.070Z</time>
      </trkpt>
      <trkpt lat="37.25711" lon="-4.3071">
        <ele>481.030089</ele>
        <time>2022-09-02T14:49:27.414Z</time>
      </trkpt>
      <trkpt lat="37.25722" lon="-4.30726">
        <ele>483.948193</ele>
        <time>2022-09-02T14:49:50.504Z</time>
      </trkpt>
      <trkpt lat="37.25719" lon="-4.30734">
        <ele>485.086026</ele>
        <time>2022-09-02T14:49:56.190Z</time>
      </trkpt>
      <trkpt lat="37.25712" lon="-4.30738">
        <ele>486.332977</ele>
        <time>2022-09-02T14:50:03.132Z</time>
      </trkpt>
      <trkpt lat="37.25692" lon="-4.30735">
        <ele>488.508546</ele>
        <time>2022-09-02T14:50:24.774Z</time>
      </trkpt>
      <trkpt lat="37.25687" lon="-4.30734">
        <ele>489.154006</ele>
        <time>2022-09-02T14:50:28.437Z</time>
      </trkpt>
      <trkpt lat="37.25678" lon="-4.3076">
        <ele>491.608737</ele>
        <time>2022-09-02T14:50:47.083Z</time>
      </trkpt>
      <trkpt lat="37.257" lon="-4.3082">
        <ele>497.345592</ele>
        <time>2022-09-02T14:51:30.336Z</time>
      </trkpt>
      <trkpt lat="37.25739" lon="-4.30802">
        <ele>501.972347</ele>
        <time>2022-09-02T14:52:02.463Z</time>
      </trkpt>
      <trkpt lat="37.25754" lon="-4.308">
        <ele>503.571974</ele>
        <time>2022-09-02T14:52:09.695Z</time>
      </trkpt>
      <trkpt lat="37.25753" lon="-4.30787">
        <ele>504.684768</ele>
        <time>2022-09-02T14:52:14.700Z</time>
      </trkpt>
      <trkpt lat="37.25755" lon="-4.30776">
        <ele>505.64142</ele>
        <time>2022-09-02T14:52:19.797Z</time>
      </trkpt>
      <trkpt lat="37.25758" lon="-4.30775">
        <ele>505.979495</ele>
        <time>2022-09-02T14:52:21.488Z</time>
      </trkpt>
      <trkpt lat="37.25765" lon="-4.30776">
        <ele>506.074981</ele>
        <time>2022-09-02T14:52:25.489Z</time>
      </trkpt>
      <trkpt lat="37.25758" lon="-4.30775">
        <ele>506.170468</ele>
        <time>2022-09-02T14:52:28.871Z</time>
      </trkpt>
      <trkpt lat="37.25755" lon="-4.30776">
        <ele>506.216148</ele>
        <time>2022-09-02T14:52:30.943Z</time>
      </trkpt>
      <trkpt lat="37.25753" lon="-4.30787">
        <ele>506.330442</ele>
        <time>2022-09-02T14:52:36.185Z</time>
      </trkpt>
      <trkpt lat="37.25754" lon="-4.308">
        <ele>506.463392</ele>
        <time>2022-09-02T14:52:40.234Z</time>
      </trkpt>
      <trkpt lat="37.25739" lon="-4.30802">
        <ele>506.654504</ele>
        <time>2022-09-02T14:52:44.991Z</time>
      </trkpt>
      <trkpt lat="37.25736" lon="-4.30814">
        <ele>506.785269</ele>
        <time>2022-09-02T14:52:49.711Z</time>
      </trkpt>
      <trkpt lat="37.25704" lon="-4.30855">
        <ele>507.379136</ele>
        <time>2022-09-02T14:52:58.894Z</time>
      </trkpt>
      <trkpt lat="37.25689" lon="-4.30872">
        <ele>507.647798</ele>
        <time>2022-09-02T14:53:02.660Z</time>
      </trkpt>
      <trkpt lat="37.25685" lon="-4.30876">
        <ele>507.712046</ele>
        <time>2022-09-02T14:53:03.665Z</time>
      </trkpt>
      <trkpt lat="37.25687" lon="-4.30879">
        <ele>507.761317</ele>
        <time>2022-09-02T14:53:04.754Z</time>
      </trkpt>
      <trkpt lat="37.2568" lon="-4.30883">
        <ele>507.861567</ele>
        <time>2022-09-02T14:53:06.573Z</time>
      </trkpt>
      <trkpt lat="37.2566" lon="-4.30901">
        <ele>508.1875</ele>
        <time>2022-09-02T14:53:11.912Z</time>
      </trkpt>
      <trkpt lat="37.25622" lon="-4.30934">
        <ele>506.892731</ele>
        <time>2022-09-02T14:53:24.711Z</time>
      </trkpt>
      <trkpt lat="37.25599" lon="-4.30955">
        <ele>505.704052</ele>
        <time>2022-09-02T14:53:30.246Z</time>
      </trkpt>
      <trkpt lat="37.25657" lon="-4.31077">
        <ele>500.983306</ele>
        <time>2022-09-02T14:53:48.690Z</time>
      </trkpt>
      <trkpt lat="37.25666" lon="-4.31106">
        <ele>499.026747</ele>
        <time>2022-09-02T14:53:52.494Z</time>
      </trkpt>
      <trkpt lat="37.25671" lon="-4.31128">
        <ele>497.46003</ele>
        <time>2022-09-02T14:53:55.399Z</time>
      </trkpt>
      <trkpt lat="37.25672" lon="-4.3116">
        <ele>495.362863</ele>
        <time>2022-09-02T14:53:59.131Z</time>
      </trkpt>
      <trkpt lat="37.25666" lon="-4.31179">
        <ele>493.998688</ele>
        <time>2022-09-02T14:54:01.700Z</time>
      </trkpt>
      <trkpt lat="37.25628" lon="-4.31216">
        <ele>489.942862</ele>
        <time>2022-09-02T14:54:08.907Z</time>
      </trkpt>
      <trkpt lat="37.25614" lon="-4.31239">
        <ele>487.998168</ele>
        <time>2022-09-02T14:54:12.404Z</time>
      </trkpt>
      <trkpt lat="37.25604" lon="-4.31275">
        <ele>485.428871</ele>
        <time>2022-09-02T14:54:16.958Z</time>
      </trkpt>
      <trkpt lat="37.25597" lon="-4.31285">
        <ele>484.565118</ele>
        <time>2022-09-02T14:54:18.557Z</time>
      </trkpt>
      <trkpt lat="37.2558" lon="-4.31283">
        <ele>483.288862</ele>
        <time>2022-09-02T14:54:20.986Z</time>
      </trkpt>
      <trkpt lat="37.25574" lon="-4.31279">
        <ele>482.702969</ele>
        <time>2022-09-02T14:54:22.208Z</time>
      </trkpt>
      <trkpt lat="37.25572" lon="-4.31263">
        <ele>481.733974</ele>
        <time>2022-09-02T14:54:24.164Z</time>
      </trkpt>
      <trkpt lat="37.25603" lon="-4.31196">
        <ele>476.855608</ele>
        <time>2022-09-02T14:54:33.864Z</time>
      </trkpt>
      <trkpt lat="37.25606" lon="-4.31161">
        <ele>474.603979</ele>
        <time>2022-09-02T14:54:38.185Z</time>
      </trkpt>
      <trkpt lat="37.25602" lon="-4.31135">
        <ele>472.952535</ele>
        <time>2022-09-02T14:54:41.335Z</time>
      </trkpt>
      <trkpt lat="37.25585" lon="-4.31095">
        <ele>470.11177</ele>
        <time>2022-09-02T14:54:47.139Z</time>
      </trkpt>
      <trkpt lat="37.25571" lon="-4.31087">
        <ele>468.835103</ele>
        <time>2022-09-02T14:54:49.813Z</time>
      </trkpt>
      <trkpt lat="37.25554" lon="-4.31097">
        <ele>467.264191</ele>
        <time>2022-09-02T14:54:52.769Z</time>
      </trkpt>
      <trkpt lat="37.2558" lon="-4.31146">
        <ele>463.419219</ele>
        <time>2022-09-02T14:55:00.088Z</time>
      </trkpt>
      <trkpt lat="37.25577" lon="-4.31185">
        <ele>460.878864</ele>
        <time>2022-09-02T14:55:04.713Z</time>
      </trkpt>
      <trkpt lat="37.25567" lon="-4.31203">
        <ele>459.439469</ele>
        <time>2022-09-02T14:55:07.338Z</time>
      </trkpt>
      <trkpt lat="37.25493" lon="-4.31256">
        <ele>452.452679</ele>
        <time>2022-09-02T14:55:20.170Z</time>
      </trkpt>
      <trkpt lat="37.25476" lon="-4.31285">
        <ele>450.18381</ele>
        <time>2022-09-02T14:55:24.575Z</time>
      </trkpt>
      <trkpt lat="37.25474" lon="-4.3131">
        <ele>448.573017</ele>
        <time>2022-09-02T14:55:27.774Z</time>
      </trkpt>
      <trkpt lat="37.25485" lon="-4.31338">
        <ele>446.541293</ele>
        <time>2022-09-02T14:55:31.716Z</time>
      </trkpt>
      <trkpt lat="37.2553" lon="-4.31378">
        <ele>442.077816</ele>
        <time>2022-09-02T14:55:40.310Z</time>
      </trkpt>
      <trkpt lat="37.25534" lon="-4.314">
        <ele>440.65048</ele>
        <time>2022-09-02T14:55:43.012Z</time>
      </trkpt>
      <trkpt lat="37.25507" lon="-4.31457">
        <ele>436.423348</ele>
        <time>2022-09-02T14:55:51.088Z</time>
      </trkpt>
      <trkpt lat="37.25509" lon="-4.31481">
        <ele>434.870893</ele>
        <time>2022-09-02T14:55:54.073Z</time>
      </trkpt>
      <trkpt lat="37.2555" lon="-4.31629">
        <ele>425.13046</ele>
        <time>2022-09-02T14:56:13.285Z</time>
      </trkpt>
      <trkpt lat="37.2559" lon="-4.31749">
        <ele>417.73768</ele>
        <time>2022-09-02T14:56:29.034Z</time>
      </trkpt>
      <trkpt lat="37.25611" lon="-4.31797">
        <ele>414.807149</ele>
        <time>2022-09-02T14:56:36.218Z</time>
      </trkpt>
      <trkpt lat="37.256" lon="-4.318">
        <ele>414.648451</ele>
        <time>2022-09-02T14:56:37.979Z</time>
      </trkpt>
      <trkpt lat="37.25224" lon="-4.31832">
        <ele>413.016535</ele>
        <time>2022-09-02T14:57:57.167Z</time>
      </trkpt>
      <trkpt lat="37.25213" lon="-4.31833">
        <ele>413.421149</ele>
        <time>2022-09-02T14:58:01.953Z</time>
      </trkpt>
      <trkpt lat="37.25113" lon="-4.3184">
        <ele>416.899397</ele>
        <time>2022-09-02T14:58:46.167Z</time>
      </trkpt>
      <trkpt lat="37.25052" lon="-4.31811">
        <ele>421.057531</ele>
        <time>2022-09-02T14:59:16.606Z</time>
      </trkpt>
      <trkpt lat="37.24986" lon="-4.31805">
        <ele>427.751541</ele>
        <time>2022-09-02T14:59:51.744Z</time>
      </trkpt>
      <trkpt lat="37.2492" lon="-4.31908">
        <ele>439.883515</ele>
        <time>2022-09-02T15:01:31.445Z</time>
      </trkpt>
      <trkpt lat="37.24793" lon="-4.3199">
        <ele>464.954266</ele>
        <time>2022-09-02T15:04:16.440Z</time>
      </trkpt>
      <trkpt lat="37.24739" lon="-4.31984">
        <ele>472.377831</ele>
        <time>2022-09-02T15:05:18.634Z</time>
      </trkpt>
      <trkpt lat="37.24699" lon="-4.31942">
        <ele>478.690146</ele>
        <time>2022-09-02T15:06:05.336Z</time>
      </trkpt>
      <trkpt lat="37.24683" lon="-4.31763">
        <ele>495.013053</ele>
        <time>2022-09-02T15:07:34.305Z</time>
      </trkpt>
      <trkpt lat="37.24664" lon="-4.31711">
        <ele>499.752988</ele>
        <time>2022-09-02T15:08:10.384Z</time>
      </trkpt>
      <trkpt lat="37.24632" lon="-4.31677">
        <ele>504.189147</ele>
        <time>2022-09-02T15:08:45.456Z</time>
      </trkpt>
      <trkpt lat="37.24574" lon="-4.31663">
        <ele>510.004041</ele>
        <time>2022-09-02T15:09:32.726Z</time>
      </trkpt>
      <trkpt lat="37.24533" lon="-4.31633">
        <ele>514.234085</ele>
        <time>2022-09-02T15:10:07.463Z</time>
      </trkpt>
      <trkpt lat="37.24507" lon="-4.31573">
        <ele>519.120217</ele>
        <time>2022-09-02T15:10:45.925Z</time>
      </trkpt>
      <trkpt lat="37.2452" lon="-4.3151">
        <ele>523.800665</ele>
        <time>2022-09-02T15:11:16.338Z</time>
      </trkpt>
      <trkpt lat="37.24593" lon="-4.31398">
        <ele>529.946564</ele>
        <time>2022-09-02T15:12:09.359Z</time>
      </trkpt>
      <trkpt lat="37.24595" lon="-4.31341">
        <ele>532.27004</ele>
        <time>2022-09-02T15:12:29.109Z</time>
      </trkpt>
      <trkpt lat="37.24537" lon="-4.3119">
        <ele>540.572186</ele>
        <time>2022-09-02T15:13:36.096Z</time>
      </trkpt>
      <trkpt lat="37.24495" lon="-4.3114">
        <ele>544.312247</ele>
        <time>2022-09-02T15:14:11.529Z</time>
      </trkpt>
      <trkpt lat="37.24358" lon="-4.31089">
        <ele>554.797735</ele>
        <time>2022-09-02T15:15:41.430Z</time>
      </trkpt>
      <trkpt lat="37.24207" lon="-4.30939">
        <ele>566.834742</ele>
        <time>2022-09-02T15:17:23.264Z</time>
      </trkpt>
      <trkpt lat="37.24168" lon="-4.30929">
        <ele>569.115987</ele>
        <time>2022-09-02T15:17:40.540Z</time>
      </trkpt>
      <trkpt lat="37.24124" lon="-4.30958">
        <ele>572.545794</ele>
        <time>2022-09-02T15:18:03.764Z</time>
      </trkpt>
      <trkpt lat="37.24093" lon="-4.31046">
        <ele>577.745551</ele>
        <time>2022-09-02T15:18:43.726Z</time>
      </trkpt>
      <trkpt lat="37.24065" lon="-4.31096">
        <ele>581.121505</ele>
        <time>2022-09-02T15:19:15.838Z</time>
      </trkpt>
      <trkpt lat="37.23988" lon="-4.31142">
        <ele>590.501295</ele>
        <time>2022-09-02T15:20:23.333Z</time>
      </trkpt>
      <trkpt lat="37.23932" lon="-4.31245">
        <ele>601.463921</ele>
        <time>2022-09-02T15:21:44.779Z</time>
      </trkpt>
      <trkpt lat="37.23888" lon="-4.31275">
        <ele>605.56309</ele>
        <time>2022-09-02T15:22:22.882Z</time>
      </trkpt>
      <trkpt lat="37.23834" lon="-4.31273">
        <ele>610.099562</ele>
        <time>2022-09-02T15:23:00.152Z</time>
      </trkpt>
      <trkpt lat="37.23767" lon="-4.31232">
        <ele>616.309693</ele>
        <time>2022-09-02T15:23:38.241Z</time>
      </trkpt>
      <trkpt lat="37.23721" lon="-4.31234">
        <ele>619.01663</ele>
        <time>2022-09-02T15:23:58.550Z</time>
      </trkpt>
      <trkpt lat="37.23683" lon="-4.31267">
        <ele>621.767463</ele>
        <time>2022-09-02T15:24:21.167Z</time>
      </trkpt>
      <trkpt lat="37.2367" lon="-4.31323">
        <ele>624.527106</ele>
        <time>2022-09-02T15:24:46.598Z</time>
      </trkpt>
      <trkpt lat="37.23682" lon="-4.315">
        <ele>634.116646</ele>
        <time>2022-09-02T15:26:07.399Z</time>
      </trkpt>
      <trkpt lat="37.23662" lon="-4.31558">
        <ele>637.716387</ele>
        <time>2022-09-02T15:26:39.346Z</time>
      </trkpt>
      <trkpt lat="37.23618" lon="-4.31596">
        <ele>641.099691</ele>
        <time>2022-09-02T15:27:10.731Z</time>
      </trkpt>
      <trkpt lat="37.23501" lon="-4.31603">
        <ele>647.326963</ele>
        <time>2022-09-02T15:28:06.917Z</time>
      </trkpt>
      <trkpt lat="37.23461" lon="-4.31616">
        <ele>649.419007</ele>
        <time>2022-09-02T15:28:25.527Z</time>
      </trkpt>
      <trkpt lat="37.23419" lon="-4.31664">
        <ele>650.232111</ele>
        <time>2022-09-02T15:28:47.866Z</time>
      </trkpt>
      <trkpt lat="37.23403" lon="-4.31715">
        <ele>650.86047</ele>
        <time>2022-09-02T15:29:01.264Z</time>
      </trkpt>
      <trkpt lat="37.23408" lon="-4.31787">
        <ele>651.687281</ele>
        <time>2022-09-02T15:29:14.282Z</time>
      </trkpt>
      <trkpt lat="37.23479" lon="-4.31911">
        <ele>649.597728</ele>
        <time>2022-09-02T15:29:36.736Z</time>
      </trkpt>
      <trkpt lat="37.23499" lon="-4.32">
        <ele>647.918455</ele>
        <time>2022-09-02T15:29:49.433Z</time>
      </trkpt>
      <trkpt lat="37.23497" lon="-4.32067">
        <ele>645.881002</ele>
        <time>2022-09-02T15:29:58.619Z</time>
      </trkpt>
      <trkpt lat="37.23409" lon="-4.32648">
        <ele>627.562398</ele>
        <time>2022-09-02T15:31:16.065Z</time>
      </trkpt>
      <trkpt lat="37.23369" lon="-4.32753">
        <ele>624.031206</ele>
        <time>2022-09-02T15:31:32.063Z</time>
      </trkpt>
      <trkpt lat="37.23292" lon="-4.3283">
        <ele>620.314063</ele>
        <time>2022-09-02T15:31:48.325Z</time>
      </trkpt>
      <trkpt lat="37.23096" lon="-4.32918">
        <ele>611.182814</ele>
        <time>2022-09-02T15:32:21.463Z</time>
      </trkpt>
      <trkpt lat="37.23011" lon="-4.32934">
        <ele>609.355876</ele>
        <time>2022-09-02T15:32:36.371Z</time>
      </trkpt>
      <trkpt lat="37.22488" lon="-4.32868">
        <ele>606.956722</ele>
        <time>2022-09-02T15:34:30.807Z</time>
      </trkpt>
      <trkpt lat="37.22264" lon="-4.32882">
        <ele>607.501855</ele>
        <time>2022-09-02T15:35:18.866Z</time>
      </trkpt>
      <trkpt lat="37.22107" lon="-4.32914">
        <ele>610.716717</ele>
        <time>2022-09-02T15:36:15.843Z</time>
      </trkpt>
      <trkpt lat="37.2204" lon="-4.32932">
        <ele>612.296849</ele>
        <time>2022-09-02T15:36:43.530Z</time>
      </trkpt>
      <trkpt lat="37.2192" lon="-4.32971">
        <ele>611.702583</ele>
        <time>2022-09-02T15:37:12.206Z</time>
      </trkpt>
      <trkpt lat="37.21902" lon="-4.32976">
        <ele>611.611448</ele>
        <time>2022-09-02T15:37:15.539Z</time>
      </trkpt>
      <trkpt lat="37.21876" lon="-4.32983">
        <ele>611.483423</ele>
        <time>2022-09-02T15:37:20.160Z</time>
      </trkpt>
      <trkpt lat="37.21867" lon="-4.32986">
        <ele>611.18698</ele>
        <time>2022-09-02T15:37:21.690Z</time>
      </trkpt>
      <trkpt lat="37.21852" lon="-4.3299">
        <ele>610.196771</ele>
        <time>2022-09-02T15:37:24.259Z</time>
      </trkpt>
      <trkpt lat="37.21826" lon="-4.33002">
        <ele>608.443959</ele>
        <time>2022-09-02T15:37:28.639Z</time>
      </trkpt>
      <trkpt lat="37.21792" lon="-4.33026">
        <ele>605.907499</ele>
        <time>2022-09-02T15:37:34.698Z</time>
      </trkpt>
      <trkpt lat="37.21764" lon="-4.33056">
        <ele>603.48839</ele>
        <time>2022-09-02T15:37:40.203Z</time>
      </trkpt>
      <trkpt lat="37.21725" lon="-4.33129">
        <ele>598.822205</ele>
        <time>2022-09-02T15:37:50.287Z</time>
      </trkpt>
      <trkpt lat="37.21718" lon="-4.33161">
        <ele>596.805695</ele>
        <time>2022-09-02T15:37:54.091Z</time>
      </trkpt>
      <trkpt lat="37.21687" lon="-4.33325">
        <ele>586.488419</ele>
        <time>2022-09-02T15:38:13.955Z</time>
      </trkpt>
      <trkpt lat="37.21664" lon="-4.33372">
        <ele>585.083333</ele>
        <time>2022-09-02T15:38:20.713Z</time>
      </trkpt>
      <trkpt lat="37.21639" lon="-4.33398">
        <ele>584.27107</ele>
        <time>2022-09-02T15:38:25.935Z</time>
      </trkpt>
      <trkpt lat="37.21617" lon="-4.3341">
        <ele>583.670109</ele>
        <time>2022-09-02T15:38:30.083Z</time>
      </trkpt>
      <trkpt lat="37.21588" lon="-4.33418">
        <ele>582.913622</ele>
        <time>2022-09-02T15:38:35.764Z</time>
      </trkpt>
      <trkpt lat="37.21555" lon="-4.33416">
        <ele>582.091957</ele>
        <time>2022-09-02T15:38:43.111Z</time>
      </trkpt>
      <trkpt lat="37.21523" lon="-4.33401">
        <ele>581.8557</ele>
        <time>2022-09-02T15:38:53.131Z</time>
      </trkpt>
      <trkpt lat="37.21495" lon="-4.33377">
        <ele>582.928829</ele>
        <time>2022-09-02T15:39:04.652Z</time>
      </trkpt>
      <trkpt lat="37.21224" lon="-4.3306">
        <ele>596.088934</ele>
        <time>2022-09-02T15:41:38.274Z</time>
      </trkpt>
      <trkpt lat="37.21175" lon="-4.33021">
        <ele>598.204737</ele>
        <time>2022-09-02T15:42:00.190Z</time>
      </trkpt>
      <trkpt lat="37.21115" lon="-4.32997">
        <ele>600.520542</ele>
        <time>2022-09-02T15:42:24.550Z</time>
      </trkpt>
      <trkpt lat="37.20955" lon="-4.32952">
        <ele>608.811809</ele>
        <time>2022-09-02T15:43:43.241Z</time>
      </trkpt>
      <trkpt lat="37.20795" lon="-4.32915">
        <ele>617.54351</ele>
        <time>2022-09-02T15:45:08.078Z</time>
      </trkpt>
      <trkpt lat="37.20745" lon="-4.32917">
        <ele>619.919125</ele>
        <time>2022-09-02T15:45:29.672Z</time>
      </trkpt>
      <trkpt lat="37.2069" lon="-4.32941">
        <ele>621.614077</ele>
        <time>2022-09-02T15:45:53.165Z</time>
      </trkpt>
      <trkpt lat="37.20657" lon="-4.32991">
        <ele>623.115791</ele>
        <time>2022-09-02T15:46:11.338Z</time>
      </trkpt>
      <trkpt lat="37.20582" lon="-4.33185">
        <ele>625.771004</ele>
        <time>2022-09-02T15:47:04.626Z</time>
      </trkpt>
      <trkpt lat="37.20522" lon="-4.33272">
        <ele>625.899942</ele>
        <time>2022-09-02T15:47:24.012Z</time>
      </trkpt>
      <trkpt lat="37.2043" lon="-4.33366">
        <ele>623.979896</ele>
        <time>2022-09-02T15:47:45.514Z</time>
      </trkpt>
      <trkpt lat="37.20288" lon="-4.33622">
        <ele>621.770452</ele>
        <time>2022-09-02T15:48:33.415Z</time>
      </trkpt>
      <trkpt lat="37.20244" lon="-4.33687">
        <ele>622.968176</ele>
        <time>2022-09-02T15:48:51.601Z</time>
      </trkpt>
      <trkpt lat="37.20157" lon="-4.33747">
        <ele>625.301163</ele>
        <time>2022-09-02T15:49:33.506Z</time>
      </trkpt>
      <trkpt lat="37.20015" lon="-4.33756">
        <ele>631.683331</ele>
        <time>2022-09-02T15:50:39.476Z</time>
      </trkpt>
      <trkpt lat="37.19952" lon="-4.33775">
        <ele>633.53892</ele>
        <time>2022-09-02T15:51:07.659Z</time>
      </trkpt>
      <trkpt lat="37.19874" lon="-4.33815">
        <ele>635.477974</ele>
        <time>2022-09-02T15:51:34.002Z</time>
      </trkpt>
      <trkpt lat="37.19721" lon="-4.33933">
        <ele>638.150302</ele>
        <time>2022-09-02T15:52:22.088Z</time>
      </trkpt>
      <trkpt lat="37.19658" lon="-4.33968">
        <ele>639.291464</ele>
        <time>2022-09-02T15:52:43.251Z</time>
      </trkpt>
      <trkpt lat="37.19583" lon="-4.33979">
        <ele>641.265689</ele>
        <time>2022-09-02T15:53:07.917Z</time>
      </trkpt>
      <trkpt lat="37.1949" lon="-4.3396">
        <ele>643.967462</ele>
        <time>2022-09-02T15:53:43.417Z</time>
      </trkpt>
      <trkpt lat="37.19241" lon="-4.33887">
        <ele>655.989801</ele>
        <time>2022-09-02T15:55:41.920Z</time>
      </trkpt>
      <trkpt lat="37.19204" lon="-4.33869">
        <ele>657.963505</ele>
        <time>2022-09-02T15:56:01.175Z</time>
      </trkpt>
      <trkpt lat="37.19169" lon="-4.33844">
        <ele>659.95581</ele>
        <time>2022-09-02T15:56:20.642Z</time>
      </trkpt>
      <trkpt lat="37.19072" lon="-4.33742">
        <ele>665.43378</ele>
        <time>2022-09-02T15:57:21.200Z</time>
      </trkpt>
      <trkpt lat="37.19013" lon="-4.33712">
        <ele>668.102451</ele>
        <time>2022-09-02T15:57:45.188Z</time>
      </trkpt>
      <trkpt lat="37.18963" lon="-4.3371">
        <ele>668.987793</ele>
        <time>2022-09-02T15:58:01.887Z</time>
      </trkpt>
      <trkpt lat="37.18928" lon="-4.33719">
        <ele>669.565912</ele>
        <time>2022-09-02T15:58:12.815Z</time>
      </trkpt>
      <trkpt lat="37.18891" lon="-4.33743">
        <ele>670.255131</ele>
        <time>2022-09-02T15:58:24.581Z</time>
      </trkpt>
      <trkpt lat="37.18767" lon="-4.33867">
        <ele>673.56816</ele>
        <time>2022-09-02T15:59:07.488Z</time>
      </trkpt>
      <trkpt lat="37.18701" lon="-4.33912">
        <ele>675.298862</ele>
        <time>2022-09-02T15:59:37.563Z</time>
      </trkpt>
      <trkpt lat="37.18699" lon="-4.33914">
        <ele>675.430468</ele>
        <time>2022-09-02T15:59:38.863Z</time>
      </trkpt>
      <trkpt lat="37.18668" lon="-4.33923">
        <ele>677.215061</ele>
        <time>2022-09-02T15:59:54.009Z</time>
      </trkpt>
      <trkpt lat="37.18665" lon="-4.33924">
        <ele>677.368031</ele>
        <time>2022-09-02T15:59:55.443Z</time>
      </trkpt>
      <trkpt lat="37.18638" lon="-4.3393">
        <ele>678.915767</ele>
        <time>2022-09-02T16:00:10.014Z</time>
      </trkpt>
      <trkpt lat="37.18599" lon="-4.33939">
        <ele>681.133445</ele>
        <time>2022-09-02T16:00:33.160Z</time>
      </trkpt>
      <trkpt lat="37.1855" lon="-4.3394">
        <ele>683.850546</ele>
        <time>2022-09-02T16:01:00.731Z</time>
      </trkpt>
      <trkpt lat="37.18437" lon="-4.33921">
        <ele>686.748172</ele>
        <time>2022-09-02T16:01:48.254Z</time>
      </trkpt>
      <trkpt lat="37.1821" lon="-4.3387">
        <ele>687.392569</ele>
        <time>2022-09-02T16:02:34.596Z</time>
      </trkpt>
      <trkpt lat="37.18201" lon="-4.33867">
        <ele>687.331587</ele>
        <time>2022-09-02T16:02:36.956Z</time>
      </trkpt>
      <trkpt lat="37.18084" lon="-4.33841">
        <ele>686.519963</ele>
        <time>2022-09-02T16:03:03.575Z</time>
      </trkpt>
      <trkpt lat="37.18081" lon="-4.3384">
        <ele>686.504228</ele>
        <time>2022-09-02T16:03:04.065Z</time>
      </trkpt>
      <trkpt lat="37.17857" lon="-4.33787">
        <ele>684.942652</ele>
        <time>2022-09-02T16:03:48.121Z</time>
      </trkpt>
      <trkpt lat="37.17837" lon="-4.3378">
        <ele>684.805746</ele>
        <time>2022-09-02T16:03:52.466Z</time>
      </trkpt>
      <trkpt lat="37.17702" lon="-4.3371">
        <ele>687.739352</ele>
        <time>2022-09-02T16:04:37.134Z</time>
      </trkpt>
      <trkpt lat="37.17662" lon="-4.33691">
        <ele>688.798451</ele>
        <time>2022-09-02T16:04:55.356Z</time>
      </trkpt>
      <trkpt lat="37.17659" lon="-4.33691">
        <ele>688.864401</ele>
        <time>2022-09-02T16:04:56.555Z</time>
      </trkpt>
      <trkpt lat="37.17602" lon="-4.33675">
        <ele>692.421001</ele>
        <time>2022-09-02T16:05:24.721Z</time>
      </trkpt>
      <trkpt lat="37.17537" lon="-4.33672">
        <ele>696.838079</ele>
        <time>2022-09-02T16:06:00.787Z</time>
      </trkpt>
      <trkpt lat="37.17446" lon="-4.33688">
        <ele>703.755977</ele>
        <time>2022-09-02T16:07:00.415Z</time>
      </trkpt>
      <trkpt lat="37.17438" lon="-4.33689">
        <ele>704.451001</ele>
        <time>2022-09-02T16:07:05.981Z</time>
      </trkpt>
      <trkpt lat="37.17173" lon="-4.33751">
        <ele>727.787585</ele>
        <time>2022-09-02T16:10:13.167Z</time>
      </trkpt>
      <trkpt lat="37.17148" lon="-4.33752">
        <ele>729.758891</ele>
        <time>2022-09-02T16:10:26.234Z</time>
      </trkpt>
      <trkpt lat="37.17111" lon="-4.33753">
        <ele>732.529499</ele>
        <time>2022-09-02T16:10:44.075Z</time>
      </trkpt>
      <trkpt lat="37.17052" lon="-4.33747">
        <ele>735.162185</ele>
        <time>2022-09-02T16:11:09.394Z</time>
      </trkpt>
      <trkpt lat="37.16946" lon="-4.33706">
        <ele>740.071172</ele>
        <time>2022-09-02T16:11:55.382Z</time>
      </trkpt>
      <trkpt lat="37.16751" lon="-4.33591">
        <ele>750.861627</ele>
        <time>2022-09-02T16:13:42.537Z</time>
      </trkpt>
      <trkpt lat="37.16677" lon="-4.33487">
        <ele>755.095444</ele>
        <time>2022-09-02T16:14:30.820Z</time>
      </trkpt>
      <trkpt lat="37.16615" lon="-4.33312">
        <ele>757.642245</ele>
        <time>2022-09-02T16:15:15.486Z</time>
      </trkpt>
      <trkpt lat="37.16563" lon="-4.33234">
        <ele>757.99917</ele>
        <time>2022-09-02T16:15:34.124Z</time>
      </trkpt>
      <trkpt lat="37.16511" lon="-4.33184">
        <ele>756.866985</ele>
        <time>2022-09-02T16:15:47.019Z</time>
      </trkpt>
      <trkpt lat="37.16462" lon="-4.33159">
        <ele>755.952613</ele>
        <time>2022-09-02T16:15:56.767Z</time>
      </trkpt>
      <trkpt lat="37.16047" lon="-4.33033">
        <ele>742.306054</ele>
        <time>2022-09-02T16:17:09.530Z</time>
      </trkpt>
      <trkpt lat="37.15904" lon="-4.32991">
        <ele>735.23836</ele>
        <time>2022-09-02T16:17:32.708Z</time>
      </trkpt>
      <trkpt lat="37.15818" lon="-4.32953">
        <ele>731.194979</ele>
        <time>2022-09-02T16:17:47.070Z</time>
      </trkpt>
      <trkpt lat="37.15725" lon="-4.32887">
        <ele>726.694612</ele>
        <time>2022-09-02T16:18:04.659Z</time>
      </trkpt>
      <trkpt lat="37.15623" lon="-4.32766">
        <ele>724.229108</ele>
        <time>2022-09-02T16:18:30.489Z</time>
      </trkpt>
      <trkpt lat="37.15579" lon="-4.32683">
        <ele>723.818338</ele>
        <time>2022-09-02T16:18:48.037Z</time>
      </trkpt>
      <trkpt lat="37.15569" lon="-4.32661">
        <ele>723.894386</ele>
        <time>2022-09-02T16:18:52.884Z</time>
      </trkpt>
      <trkpt lat="37.15563" lon="-4.32666">
        <ele>723.921154</ele>
        <time>2022-09-02T16:18:55.741Z</time>
      </trkpt>
      <trkpt lat="37.15533" lon="-4.32682">
        <ele>724.043909</ele>
        <time>2022-09-02T16:19:08.818Z</time>
      </trkpt>
      <trkpt lat="37.15514" lon="-4.32743">
        <ele>724.240961</ele>
        <time>2022-09-02T16:19:30.468Z</time>
      </trkpt>
      <trkpt lat="37.15458" lon="-4.32866">
        <ele>724.836605</ele>
        <time>2022-09-02T16:20:16.239Z</time>
      </trkpt>
      <trkpt lat="37.15279" lon="-4.32812">
        <ele>725.641574</ele>
        <time>2022-09-02T16:21:28.091Z</time>
      </trkpt>
      <trkpt lat="37.15121" lon="-4.32817">
        <ele>726.034813</ele>
        <time>2022-09-02T16:22:28.437Z</time>
      </trkpt>
      <trkpt lat="37.15039" lon="-4.3284">
        <ele>726.177353</ele>
        <time>2022-09-02T16:22:59.596Z</time>
      </trkpt>
      <trkpt lat="37.14917" lon="-4.32829">
        <ele>727.479387</ele>
        <time>2022-09-02T16:23:48.422Z</time>
      </trkpt>
      <trkpt lat="37.14887" lon="-4.32837">
        <ele>727.870562</ele>
        <time>2022-09-02T16:24:02.183Z</time>
      </trkpt>
      <trkpt lat="37.14648" lon="-4.32818">
        <ele>733.35848</ele>
        <time>2022-09-02T16:26:01.754Z</time>
      </trkpt>
      <trkpt lat="37.14591" lon="-4.32808">
        <ele>734.793347</ele>
        <time>2022-09-02T16:26:31.218Z</time>
      </trkpt>
      <trkpt lat="37.14544" lon="-4.32815">
        <ele>735.973514</ele>
        <time>2022-09-02T16:26:55.427Z</time>
      </trkpt>
      <trkpt lat="37.14389" lon="-4.32795">
        <ele>738.498787</ele>
        <time>2022-09-02T16:28:08.910Z</time>
      </trkpt>
      <trkpt lat="37.14315" lon="-4.32795">
        <ele>739.262715</ele>
        <time>2022-09-02T16:28:39.081Z</time>
      </trkpt>
      <trkpt lat="37.14099" lon="-4.32765">
        <ele>736.493912</ele>
        <time>2022-09-02T16:29:51.297Z</time>
      </trkpt>
      <trkpt lat="37.1396" lon="-4.32686">
        <ele>733.725631</ele>
        <time>2022-09-02T16:30:41.022Z</time>
      </trkpt>
      <trkpt lat="37.13921" lon="-4.32678">
        <ele>733.25407</ele>
        <time>2022-09-02T16:30:54.402Z</time>
      </trkpt>
      <trkpt lat="37.13866" lon="-4.32679">
        <ele>732.644295</ele>
        <time>2022-09-02T16:31:13.024Z</time>
      </trkpt>
      <trkpt lat="37.13755" lon="-4.32653">
        <ele>731.594902</ele>
        <time>2022-09-02T16:31:52.588Z</time>
      </trkpt>
      <trkpt lat="37.13728" lon="-4.32632">
        <ele>731.515102</ele>
        <time>2022-09-02T16:32:04.114Z</time>
      </trkpt>
      <trkpt lat="37.13677" lon="-4.32578">
        <ele>731.347522</ele>
        <time>2022-09-02T16:32:28.537Z</time>
      </trkpt>
      <trkpt lat="37.13625" lon="-4.32532">
        <ele>731.206815</ele>
        <time>2022-09-02T16:32:51.996Z</time>
      </trkpt>
      <trkpt lat="37.13568" lon="-4.3247">
        <ele>731.234183</ele>
        <time>2022-09-02T16:33:20.303Z</time>
      </trkpt>
      <trkpt lat="37.13504" lon="-4.32439">
        <ele>731.258805</ele>
        <time>2022-09-02T16:33:45.637Z</time>
      </trkpt>
      <trkpt lat="37.13448" lon="-4.32401">
        <ele>731.386158</ele>
        <time>2022-09-02T16:34:09.647Z</time>
      </trkpt>
      <trkpt lat="37.13405" lon="-4.32389">
        <ele>731.535975</ele>
        <time>2022-09-02T16:34:26.450Z</time>
      </trkpt>
      <trkpt lat="37.13386" lon="-4.32378">
        <ele>731.609977</ele>
        <time>2022-09-02T16:34:34.759Z</time>
      </trkpt>
      <trkpt lat="37.13373" lon="-4.32375">
        <ele>731.654085</ele>
        <time>2022-09-02T16:34:39.797Z</time>
      </trkpt>
      <trkpt lat="37.13356" lon="-4.3237">
        <ele>731.712486</ele>
        <time>2022-09-02T16:34:46.410Z</time>
      </trkpt>
      <trkpt lat="37.13241" lon="-4.32303">
        <ele>732.460753</ele>
        <time>2022-09-02T16:35:36.718Z</time>
      </trkpt>
      <trkpt lat="37.1312" lon="-4.32262">
        <ele>733.511584</ele>
        <time>2022-09-02T16:36:29.091Z</time>
      </trkpt>
      <trkpt lat="37.13106" lon="-4.3223">
        <ele>733.867264</ele>
        <time>2022-09-02T16:36:41.231Z</time>
      </trkpt>
      <trkpt lat="37.13083" lon="-4.32234">
        <ele>734.152609</ele>
        <time>2022-09-02T16:36:51.267Z</time>
      </trkpt>
      <trkpt lat="37.13016" lon="-4.32213">
        <ele>735.008813</ele>
        <time>2022-09-02T16:37:21.468Z</time>
      </trkpt>
      <trkpt lat="37.12799" lon="-4.32161">
        <ele>738.023798</ele>
        <time>2022-09-02T16:38:59.762Z</time>
      </trkpt>
      <trkpt lat="37.12714" lon="-4.32194">
        <ele>738.70356</ele>
        <time>2022-09-02T16:39:35.983Z</time>
      </trkpt>
      <trkpt lat="37.12701" lon="-4.32198">
        <ele>738.808901</ele>
        <time>2022-09-02T16:39:41.343Z</time>
      </trkpt>
      <trkpt lat="37.12687" lon="-4.32188">
        <ele>738.931936</ele>
        <time>2022-09-02T16:39:47.782Z</time>
      </trkpt>
      <trkpt lat="37.12648" lon="-4.32068">
        <ele>739.792296</ele>
        <time>2022-09-02T16:40:28.706Z</time>
      </trkpt>
      <trkpt lat="37.12599" lon="-4.31961">
        <ele>740.701722</ele>
        <time>2022-09-02T16:41:11.494Z</time>
      </trkpt>
      <trkpt lat="37.1257" lon="-4.3187">
        <ele>741.115843</ele>
        <time>2022-09-02T16:41:43.524Z</time>
      </trkpt>
      <trkpt lat="37.12565" lon="-4.31856">
        <ele>741.143082</ele>
        <time>2022-09-02T16:41:48.754Z</time>
      </trkpt>
      <trkpt lat="37.12551" lon="-4.3185">
        <ele>741.174992</ele>
        <time>2022-09-02T16:41:54.486Z</time>
      </trkpt>
      <trkpt lat="37.12544" lon="-4.3185">
        <ele>741.188563</ele>
        <time>2022-09-02T16:41:56.797Z</time>
      </trkpt>
      <trkpt lat="37.12515" lon="-4.31874">
        <ele>741.263866</ele>
        <time>2022-09-02T16:42:10.154Z</time>
      </trkpt>
      <trkpt lat="37.12513" lon="-4.31881">
        <ele>741.277427</ele>
        <time>2022-09-02T16:42:12.484Z</time>
      </trkpt>
      <trkpt lat="37.12454" lon="-4.31963">
        <ele>741.298017</ele>
        <time>2022-09-02T16:42:44.037Z</time>
      </trkpt>
      <trkpt lat="37.12385" lon="-4.32121">
        <ele>740.668243</ele>
        <time>2022-09-02T16:43:34.795Z</time>
      </trkpt>
      <trkpt lat="37.12373" lon="-4.32132">
        <ele>740.648775</ele>
        <time>2022-09-02T16:43:40.665Z</time>
      </trkpt>
      <trkpt lat="37.12366" lon="-4.32147">
        <ele>740.715579</ele>
        <time>2022-09-02T16:43:45.996Z</time>
      </trkpt>
      <trkpt lat="37.1236" lon="-4.32176">
        <ele>740.830533</ele>
        <time>2022-09-02T16:43:54.937Z</time>
      </trkpt>
      <trkpt lat="37.12339" lon="-4.32197">
        <ele>740.963874</ele>
        <time>2022-09-02T16:44:05.484Z</time>
      </trkpt>
      <trkpt lat="37.12336" lon="-4.32225">
        <ele>741.076531</ele>
        <time>2022-09-02T16:44:14.642Z</time>
      </trkpt>
      <trkpt lat="37.12319" lon="-4.32229">
        <ele>741.162509</ele>
        <time>2022-09-02T16:44:21.471Z</time>
      </trkpt>
      <trkpt lat="37.12298" lon="-4.32242">
        <ele>741.279841</ele>
        <time>2022-09-02T16:44:31.142Z</time>
      </trkpt>
      <trkpt lat="37.12277" lon="-4.32271">
        <ele>741.432203</ele>
        <time>2022-09-02T16:44:43.953Z</time>
      </trkpt>
      <trkpt lat="37.12185" lon="-4.3233">
        <ele>742.968185</ele>
        <time>2022-09-02T16:45:27.468Z</time>
      </trkpt>
      <trkpt lat="37.12052" lon="-4.3235">
        <ele>745.453399</ele>
        <time>2022-09-02T16:46:32.410Z</time>
      </trkpt>
      <trkpt lat="37.11998" lon="-4.32353">
        <ele>746.6636</ele>
        <time>2022-09-02T16:47:00.366Z</time>
      </trkpt>
      <trkpt lat="37.11895" lon="-4.3234">
        <ele>748.497435</ele>
        <time>2022-09-02T16:47:49.621Z</time>
      </trkpt>
      <trkpt lat="37.11834" lon="-4.32342">
        <ele>748.326065</ele>
        <time>2022-09-02T16:48:13.609Z</time>
      </trkpt>
      <trkpt lat="37.11832" lon="-4.32342">
        <ele>748.320116</ele>
        <time>2022-09-02T16:48:14.320Z</time>
      </trkpt>
      <trkpt lat="37.11826" lon="-4.32343">
        <ele>748.30223</ele>
        <time>2022-09-02T16:48:16.537Z</time>
      </trkpt>
      <trkpt lat="37.11676" lon="-4.32341">
        <ele>746.979069</ele>
        <time>2022-09-02T16:49:06.805Z</time>
      </trkpt>
      <trkpt lat="37.11568" lon="-4.32336">
        <ele>745.012574</ele>
        <time>2022-09-02T16:49:41.892Z</time>
      </trkpt>
      <trkpt lat="37.11497" lon="-4.32343">
        <ele>744.405899</ele>
        <time>2022-09-02T16:50:05.397Z</time>
      </trkpt>
      <trkpt lat="37.11431" lon="-4.32334">
        <ele>743.975305</ele>
        <time>2022-09-02T16:50:28.698Z</time>
      </trkpt>
      <trkpt lat="37.11393" lon="-4.32328">
        <ele>743.730644</ele>
        <time>2022-09-02T16:50:42.830Z</time>
      </trkpt>
      <trkpt lat="37.11374" lon="-4.32314">
        <ele>743.703337</ele>
        <time>2022-09-02T16:50:52.200Z</time>
      </trkpt>
      <trkpt lat="37.11366" lon="-4.32299">
        <ele>743.952348</ele>
        <time>2022-09-02T16:50:57.808Z</time>
      </trkpt>
      <trkpt lat="37.11342" lon="-4.32274">
        <ele>744.48822</ele>
        <time>2022-09-02T16:51:11.705Z</time>
      </trkpt>
      <trkpt lat="37.11329" lon="-4.32273">
        <ele>744.707052</ele>
        <time>2022-09-02T16:51:17.754Z</time>
      </trkpt>
      <trkpt lat="37.11171" lon="-4.32246">
        <ele>747.348752</ele>
        <time>2022-09-02T16:52:34.037Z</time>
      </trkpt>
      <trkpt lat="37.11117" lon="-4.32244">
        <ele>748.137025</ele>
        <time>2022-09-02T16:52:58.091Z</time>
      </trkpt>
      <trkpt lat="37.11028" lon="-4.32313">
        <ele>749.572738</ele>
        <time>2022-09-02T16:53:42.279Z</time>
      </trkpt>
      <trkpt lat="37.10845" lon="-4.32346">
        <ele>751.331032</ele>
        <time>2022-09-02T16:54:59.654Z</time>
      </trkpt>
      <trkpt lat="37.10634" lon="-4.32429">
        <ele>752.404135</ele>
        <time>2022-09-02T16:56:30.519Z</time>
      </trkpt>
      <trkpt lat="37.10494" lon="-4.32569">
        <ele>751.26981</ele>
        <time>2022-09-02T16:57:32.838Z</time>
      </trkpt>
      <trkpt lat="37.1039" lon="-4.32625">
        <ele>749.773964</ele>
        <time>2022-09-02T16:58:10.739Z</time>
      </trkpt>
      <trkpt lat="37.10339" lon="-4.32674">
        <ele>748.426428</ele>
        <time>2022-09-02T16:58:31.517Z</time>
      </trkpt>
      <trkpt lat="37.10141" lon="-4.32694">
        <ele>744.35841</ele>
        <time>2022-09-02T16:59:35.354Z</time>
      </trkpt>
      <trkpt lat="37.09927" lon="-4.32702">
        <ele>740.580792</ele>
        <time>2022-09-02T17:00:46.149Z</time>
      </trkpt>
      <trkpt lat="37.09757" lon="-4.32776">
        <ele>738.174975</ele>
        <time>2022-09-02T17:01:46.522Z</time>
      </trkpt>
      <trkpt lat="37.09533" lon="-4.32854">
        <ele>736.3382</ele>
        <time>2022-09-02T17:03:08.616Z</time>
      </trkpt>
      <trkpt lat="37.09333" lon="-4.3288">
        <ele>735.374189</ele>
        <time>2022-09-02T17:04:18.899Z</time>
      </trkpt>
      <trkpt lat="37.09319" lon="-4.32859">
        <ele>735.745487</ele>
        <time>2022-09-02T17:04:24.961Z</time>
      </trkpt>
      <trkpt lat="37.09272" lon="-4.32751">
        <ele>737.394192</ele>
        <time>2022-09-02T17:04:56.746Z</time>
      </trkpt>
      <trkpt lat="37.09243" lon="-4.32588">
        <ele>739.809142</ele>
        <time>2022-09-02T17:05:47.231Z</time>
      </trkpt>
      <trkpt lat="37.09247" lon="-4.32514">
        <ele>740.932554</ele>
        <time>2022-09-02T17:06:06.093Z</time>
      </trkpt>
      <trkpt lat="37.09226" lon="-4.3244">
        <ele>741.410163</ele>
        <time>2022-09-02T17:06:21.604Z</time>
      </trkpt>
      <trkpt lat="37.09207" lon="-4.32411">
        <ele>741.191891</ele>
        <time>2022-09-02T17:06:28.292Z</time>
      </trkpt>
      <trkpt lat="37.09149" lon="-4.32323">
        <ele>740.53165</ele>
        <time>2022-09-02T17:06:47.058Z</time>
      </trkpt>
      <trkpt lat="37.09113" lon="-4.32166">
        <ele>739.349421</ele>
        <time>2022-09-02T17:07:13.065Z</time>
      </trkpt>
      <trkpt lat="37.09027" lon="-4.3189">
        <ele>738.398862</ele>
        <time>2022-09-02T17:08:05.017Z</time>
      </trkpt>
      <trkpt lat="37.08983" lon="-4.31713">
        <ele>739.562165</ele>
        <time>2022-09-02T17:08:47.774Z</time>
      </trkpt>
      <trkpt lat="37.08961" lon="-4.31653">
        <ele>740.07584</ele>
        <time>2022-09-02T17:09:03.657Z</time>
      </trkpt>
      <trkpt lat="37.08938" lon="-4.31604">
        <ele>739.980574</ele>
        <time>2022-09-02T17:09:15.739Z</time>
      </trkpt>
      <trkpt lat="37.08818" lon="-4.31626">
        <ele>739.580453</ele>
        <time>2022-09-02T17:09:58.688Z</time>
      </trkpt>
      <trkpt lat="37.08647" lon="-4.31668">
        <ele>737.594897</ele>
        <time>2022-09-02T17:10:56.991Z</time>
      </trkpt>
      <trkpt lat="37.08359" lon="-4.31707">
        <ele>735.645746</ele>
        <time>2022-09-02T17:12:38.512Z</time>
      </trkpt>
      <trkpt lat="37.07995" lon="-4.31822">
        <ele>734.776656</ele>
        <time>2022-09-02T17:14:56.905Z</time>
      </trkpt>
      <trkpt lat="37.07681" lon="-4.3197">
        <ele>733.964263</ele>
        <time>2022-09-02T17:16:57.820Z</time>
      </trkpt>
      <trkpt lat="37.07421" lon="-4.32144">
        <ele>734.390444</ele>
        <time>2022-09-02T17:18:50.718Z</time>
      </trkpt>
      <trkpt lat="37.07385" lon="-4.32175">
        <ele>734.472243</ele>
        <time>2022-09-02T17:19:07.565Z</time>
      </trkpt>
      <trkpt lat="37.07167" lon="-4.32435">
        <ele>734.769934</ele>
        <time>2022-09-02T17:21:01.231Z</time>
      </trkpt>
      <trkpt lat="37.07007" lon="-4.32572">
        <ele>733.504301</ele>
        <time>2022-09-02T17:22:08.838Z</time>
      </trkpt>
      <trkpt lat="37.06941" lon="-4.32655">
        <ele>733.166289</ele>
        <time>2022-09-02T17:22:42.106Z</time>
      </trkpt>
      <trkpt lat="37.06874" lon="-4.32788">
        <ele>732.855165</ele>
        <time>2022-09-02T17:23:28.583Z</time>
      </trkpt>
      <trkpt lat="37.06877" lon="-4.32802">
        <ele>732.846415</ele>
        <time>2022-09-02T17:23:31.147Z</time>
      </trkpt>
      <trkpt lat="37.06876" lon="-4.32806">
        <ele>732.843348</ele>
        <time>2022-09-02T17:23:31.976Z</time>
      </trkpt>
      <trkpt lat="37.06866" lon="-4.32814">
        <ele>732.834318</ele>
        <time>2022-09-02T17:23:34.399Z</time>
      </trkpt>
      <trkpt lat="37.06858" lon="-4.32812">
        <ele>732.828214</ele>
        <time>2022-09-02T17:23:36.229Z</time>
      </trkpt>
      <trkpt lat="37.06856" lon="-4.32809">
        <ele>732.825817</ele>
        <time>2022-09-02T17:23:36.979Z</time>
      </trkpt>
      <trkpt lat="37.06854" lon="-4.32791">
        <ele>732.814021</ele>
        <time>2022-09-02T17:23:40.303Z</time>
      </trkpt>
      <trkpt lat="37.06841" lon="-4.32778">
        <ele>732.800753</ele>
        <time>2022-09-02T17:23:44.167Z</time>
      </trkpt>
      <trkpt lat="37.06817" lon="-4.32755">
        <ele>732.777712</ele>
        <time>2022-09-02T17:23:50.892Z</time>
      </trkpt>
      <trkpt lat="37.06802" lon="-4.3274">
        <ele>732.762784</ele>
        <time>2022-09-02T17:23:55.502Z</time>
      </trkpt>
      <trkpt lat="37.06791" lon="-4.32746">
        <ele>732.752392</ele>
        <time>2022-09-02T17:23:57.986Z</time>
      </trkpt>
      <trkpt lat="37.06784" lon="-4.32744">
        <ele>732.741166</ele>
        <time>2022-09-02T17:23:59.514Z</time>
      </trkpt>
      <trkpt lat="37.06778" lon="-4.32734">
        <ele>732.724976</ele>
        <time>2022-09-02T17:24:01.976Z</time>
      </trkpt>
      <trkpt lat="37.06757" lon="-4.32742">
        <ele>732.689702</ele>
        <time>2022-09-02T17:24:06.733Z</time>
      </trkpt>
      <trkpt lat="37.06706" lon="-4.32783">
        <ele>732.595796</ele>
        <time>2022-09-02T17:24:19.820Z</time>
      </trkpt>
      <trkpt lat="37.06403" lon="-4.3286">
        <ele>732.635831</ele>
        <time>2022-09-02T17:25:27.289Z</time>
      </trkpt>
      <trkpt lat="37.06231" lon="-4.32903">
        <ele>734.165675</ele>
        <time>2022-09-02T17:26:16.866Z</time>
      </trkpt>
      <trkpt lat="37.05877" lon="-4.32996">
        <ele>737.883977</ele>
        <time>2022-09-02T17:27:57.200Z</time>
      </trkpt>
      <trkpt lat="37.05579" lon="-4.33075">
        <ele>739.091189</ele>
        <time>2022-09-02T17:29:09.678Z</time>
      </trkpt>
      <trkpt lat="37.05504" lon="-4.33068">
        <ele>739.252412</ele>
        <time>2022-09-02T17:29:27.109Z</time>
      </trkpt>
      <trkpt lat="37.05206" lon="-4.32976">
        <ele>739.731747</ele>
        <time>2022-09-02T17:30:37.631Z</time>
      </trkpt>
      <trkpt lat="37.05142" lon="-4.32951">
        <ele>739.655013</ele>
        <time>2022-09-02T17:30:53.047Z</time>
      </trkpt>
      <trkpt lat="37.04975" lon="-4.32837">
        <ele>738.858657</ele>
        <time>2022-09-02T17:31:33.708Z</time>
      </trkpt>
      <trkpt lat="37.0488" lon="-4.32804">
        <ele>738.050402</ele>
        <time>2022-09-02T17:31:52.910Z</time>
      </trkpt>
      <trkpt lat="37.04763" lon="-4.32785">
        <ele>736.342162</ele>
        <time>2022-09-02T17:32:15.731Z</time>
      </trkpt>
      <trkpt lat="37.04637" lon="-4.32763">
        <ele>734.131732</ele>
        <time>2022-09-02T17:32:39.547Z</time>
      </trkpt>
      <trkpt lat="37.04498" lon="-4.32803">
        <ele>731.498807</ele>
        <time>2022-09-02T17:33:05.468Z</time>
      </trkpt>
      <trkpt lat="37.0437" lon="-4.32844">
        <ele>729.284081</ele>
        <time>2022-09-02T17:33:30.165Z</time>
      </trkpt>
      <trkpt lat="37.04279" lon="-4.3286">
        <ele>728.918125</ele>
        <time>2022-09-02T17:33:49.185Z</time>
      </trkpt>
      <trkpt lat="37.04089" lon="-4.32876">
        <ele>728.693974</ele>
        <time>2022-09-02T17:34:34.155Z</time>
      </trkpt>
      <trkpt lat="37.03887" lon="-4.32847">
        <ele>726.925055</ele>
        <time>2022-09-02T17:35:18.290Z</time>
      </trkpt>
      <trkpt lat="37.03733" lon="-4.32856">
        <ele>721.766414</ele>
        <time>2022-09-02T17:35:43.739Z</time>
      </trkpt>
      <trkpt lat="37.03612" lon="-4.32873">
        <ele>716.17504</ele>
        <time>2022-09-02T17:36:02.739Z</time>
      </trkpt>
      <trkpt lat="37.0355" lon="-4.32884">
        <ele>713.185693</ele>
        <time>2022-09-02T17:36:12.833Z</time>
      </trkpt>
      <trkpt lat="37.0351" lon="-4.32908">
        <ele>711.057886</ele>
        <time>2022-09-02T17:36:20.002Z</time>
      </trkpt>
      <trkpt lat="37.03432" lon="-4.33012">
        <ele>706.590112</ele>
        <time>2022-09-02T17:36:38.282Z</time>
      </trkpt>
      <trkpt lat="37.03376" lon="-4.33052">
        <ele>704.312163</ele>
        <time>2022-09-02T17:36:49.386Z</time>
      </trkpt>
      <trkpt lat="37.03357" lon="-4.33063">
        <ele>703.600798</ele>
        <time>2022-09-02T17:36:53.055Z</time>
      </trkpt>
      <trkpt lat="37.03271" lon="-4.33111">
        <ele>701.471504</ele>
        <time>2022-09-02T17:37:10.433Z</time>
      </trkpt>
      <trkpt lat="37.03228" lon="-4.33132">
        <ele>700.567592</ele>
        <time>2022-09-02T17:37:19.256Z</time>
      </trkpt>
      <trkpt lat="37.03178" lon="-4.33157">
        <ele>699.520346</ele>
        <time>2022-09-02T17:37:29.208Z</time>
      </trkpt>
      <trkpt lat="37.03137" lon="-4.3318">
        <ele>698.265801</ele>
        <time>2022-09-02T17:37:37.377Z</time>
      </trkpt>
      <trkpt lat="37.03044" lon="-4.33241">
        <ele>695.275025</ele>
        <time>2022-09-02T17:37:55.524Z</time>
      </trkpt>
      <trkpt lat="37.03027" lon="-4.33251">
        <ele>694.743464</ele>
        <time>2022-09-02T17:37:58.604Z</time>
      </trkpt>
      <trkpt lat="37.02997" lon="-4.33274">
        <ele>694.063454</ele>
        <time>2022-09-02T17:38:04.468Z</time>
      </trkpt>
      <trkpt lat="37.02984" lon="-4.3329">
        <ele>693.843163</ele>
        <time>2022-09-02T17:38:07.634Z</time>
      </trkpt>
      <trkpt lat="37.02982" lon="-4.33293">
        <ele>693.806526</ele>
        <time>2022-09-02T17:38:08.190Z</time>
      </trkpt>
      <trkpt lat="37.0298" lon="-4.33295">
        <ele>693.778217</ele>
        <time>2022-09-02T17:38:08.586Z</time>
      </trkpt>
      <trkpt lat="37.02968" lon="-4.33334">
        <ele>693.37939</ele>
        <time>2022-09-02T17:38:14.752Z</time>
      </trkpt>
      <trkpt lat="37.02884" lon="-4.33335">
        <ele>692.382419</ele>
        <time>2022-09-02T17:38:33.711Z</time>
      </trkpt>
      <trkpt lat="37.02869" lon="-4.33299">
        <ele>692.259292</ele>
        <time>2022-09-02T17:38:41.915Z</time>
      </trkpt>
      <trkpt lat="37.02838" lon="-4.33284">
        <ele>692.547524</ele>
        <time>2022-09-02T17:38:50.637Z</time>
      </trkpt>
      <trkpt lat="37.02834" lon="-4.33282">
        <ele>692.585397</ele>
        <time>2022-09-02T17:38:51.807Z</time>
      </trkpt>
      <trkpt lat="37.02826" lon="-4.33276">
        <ele>692.668529</ele>
        <time>2022-09-02T17:38:54.356Z</time>
      </trkpt>
      <trkpt lat="37.02815" lon="-4.33266">
        <ele>692.787311</ele>
        <time>2022-09-02T17:38:58.139Z</time>
      </trkpt>
      <trkpt lat="37.02803" lon="-4.33257">
        <ele>692.90486</ele>
        <time>2022-09-02T17:39:01.991Z</time>
      </trkpt>
      <trkpt lat="37.02819" lon="-4.33197">
        <ele>693.351207</ele>
        <time>2022-09-02T17:39:17.139Z</time>
      </trkpt>
      <trkpt lat="37.02839" lon="-4.33116">
        <ele>693.911411</ele>
        <time>2022-09-02T17:39:36.486Z</time>
      </trkpt>
      <trkpt lat="37.02847" lon="-4.33051">
        <ele>694.302972</ele>
        <time>2022-09-02T17:39:49.170Z</time>
      </trkpt>
      <trkpt lat="37.02852" lon="-4.32922">
        <ele>695.093901</ele>
        <time>2022-09-02T17:40:16.502Z</time>
      </trkpt>
      <trkpt lat="37.02854" lon="-4.32797">
        <ele>696.72334</ele>
        <time>2022-09-02T17:40:46.937Z</time>
      </trkpt>
      <trkpt lat="37.02847" lon="-4.32739">
        <ele>697.498923</ele>
        <time>2022-09-02T17:41:02.460Z</time>
      </trkpt>
      <trkpt lat="37.02844" lon="-4.32727">
        <ele>697.65599</ele>
        <time>2022-09-02T17:41:05.757Z</time>
      </trkpt>
      <trkpt lat="37.0283" lon="-4.32677">
        <ele>698.489186</ele>
        <time>2022-09-02T17:41:20.164Z</time>
      </trkpt>
      <trkpt lat="37.02811" lon="-4.32639">
        <ele>699.339203</ele>
        <time>2022-09-02T17:41:32.524Z</time>
      </trkpt>
      <trkpt lat="37.02779" lon="-4.32595">
        <ele>700.452349</ele>
        <time>2022-09-02T17:41:49.412Z</time>
      </trkpt>
      <trkpt lat="37.02713" lon="-4.32527">
        <ele>702.488087</ele>
        <time>2022-09-02T17:42:19.422Z</time>
      </trkpt>
      <trkpt lat="37.027" lon="-4.32499">
        <ele>703.150815</ele>
        <time>2022-09-02T17:42:28.542Z</time>
      </trkpt>
      <trkpt lat="37.02614" lon="-4.32298">
        <ele>707.803907</ele>
        <time>2022-09-02T17:43:35.070Z</time>
      </trkpt>
      <trkpt lat="37.02606" lon="-4.32264">
        <ele>708.482589</ele>
        <time>2022-09-02T17:43:45.425Z</time>
      </trkpt>
      <trkpt lat="37.02576" lon="-4.32122">
        <ele>711.227246</ele>
        <time>2022-09-02T17:44:26.075Z</time>
      </trkpt>
      <trkpt lat="37.02576" lon="-4.32069">
        <ele>711.802377</ele>
        <time>2022-09-02T17:44:39.682Z</time>
      </trkpt>
      <trkpt lat="37.02578" lon="-4.32046">
        <ele>712.043927</ele>
        <time>2022-09-02T17:44:44.991Z</time>
      </trkpt>
      <trkpt lat="37.02587" lon="-4.31932">
        <ele>713.292465</ele>
        <time>2022-09-02T17:45:11.394Z</time>
      </trkpt>
      <trkpt lat="37.02585" lon="-4.3188">
        <ele>713.906071</ele>
        <time>2022-09-02T17:45:23.027Z</time>
      </trkpt>
      <trkpt lat="37.02579" lon="-4.31815">
        <ele>714.761286</ele>
        <time>2022-09-02T17:45:37.988Z</time>
      </trkpt>
      <trkpt lat="37.02563" lon="-4.3173">
        <ele>715.896122</ele>
        <time>2022-09-02T17:45:59.642Z</time>
      </trkpt>
      <trkpt lat="37.02554" lon="-4.31588">
        <ele>718.235279</ele>
        <time>2022-09-02T17:46:40.116Z</time>
      </trkpt>
      <trkpt lat="37.02545" lon="-4.31514">
        <ele>719.62473</ele>
        <time>2022-09-02T17:47:02.639Z</time>
      </trkpt>
      <trkpt lat="37.02487" lon="-4.3132">
        <ele>722.079495</ele>
        <time>2022-09-02T17:47:54.537Z</time>
      </trkpt>
      <trkpt lat="37.02501" lon="-4.31204">
        <ele>723.162551</ele>
        <time>2022-09-02T17:48:16.734Z</time>
      </trkpt>
      <trkpt lat="37.0251" lon="-4.31169">
        <ele>723.507657</ele>
        <time>2022-09-02T17:48:24.034Z</time>
      </trkpt>
      <trkpt lat="37.02535" lon="-4.31122">
        <ele>724.02477</ele>
        <time>2022-09-02T17:48:36.437Z</time>
      </trkpt>
      <trkpt lat="37.0255" lon="-4.31079">
        <ele>724.461627</ele>
        <time>2022-09-02T17:48:48.216Z</time>
      </trkpt>
      <trkpt lat="37.02559" lon="-4.31051">
        <ele>724.733627</ele>
        <time>2022-09-02T17:48:55.963Z</time>
      </trkpt>
      <trkpt lat="37.02578" lon="-4.3099">
        <ele>726.310387</ele>
        <time>2022-09-02T17:49:14.637Z</time>
      </trkpt>
      <trkpt lat="37.02565" lon="-4.30928">
        <ele>728.124018</ele>
        <time>2022-09-02T17:49:34.838Z</time>
      </trkpt>
      <trkpt lat="37.02519" lon="-4.30827">
        <ele>731.512774</ele>
        <time>2022-09-02T17:50:16.563Z</time>
      </trkpt>
      <trkpt lat="37.02476" lon="-4.30714">
        <ele>736.542479</ele>
        <time>2022-09-02T17:51:03.369Z</time>
      </trkpt>
      <trkpt lat="37.02352" lon="-4.30501">
        <ele>748.02683</ele>
        <time>2022-09-02T17:52:51.106Z</time>
      </trkpt>
      <trkpt lat="37.02339" lon="-4.30478">
        <ele>749.300546</ele>
        <time>2022-09-02T17:53:03.402Z</time>
      </trkpt>
      <trkpt lat="37.02335" lon="-4.30456">
        <ele>750.32928</ele>
        <time>2022-09-02T17:53:12.744Z</time>
      </trkpt>
      <trkpt lat="37.02341" lon="-4.30355">
        <ele>754.52403</ele>
        <time>2022-09-02T17:53:54.858Z</time>
      </trkpt>
      <trkpt lat="37.0234" lon="-4.30244">
        <ele>759.123745</ele>
        <time>2022-09-02T17:54:36.948Z</time>
      </trkpt>
      <trkpt lat="37.02285" lon="-4.30157">
        <ele>763.376118</ele>
        <time>2022-09-02T17:55:16.678Z</time>
      </trkpt>
      <trkpt lat="37.02234" lon="-4.30089">
        <ele>766.914916</ele>
        <time>2022-09-02T17:55:48.032Z</time>
      </trkpt>
      <trkpt lat="37.02227" lon="-4.30085">
        <ele>767.276746</ele>
        <time>2022-09-02T17:55:52.665Z</time>
      </trkpt>
      <trkpt lat="37.02127" lon="-4.3009">
        <ele>774.196275</ele>
        <time>2022-09-02T17:56:49.053Z</time>
      </trkpt>
      <trkpt lat="37.02108" lon="-4.30085">
        <ele>775.672017</ele>
        <time>2022-09-02T17:57:00.838Z</time>
      </trkpt>
      <trkpt lat="37.02075" lon="-4.30056">
        <ele>778.727937</ele>
        <time>2022-09-02T17:57:24.953Z</time>
      </trkpt>
      <trkpt lat="37.02043" lon="-4.30025">
        <ele>781.7627</ele>
        <time>2022-09-02T17:57:52.129Z</time>
      </trkpt>
      <trkpt lat="37.01995" lon="-4.3">
        <ele>787.310281</ele>
        <time>2022-09-02T17:58:31.425Z</time>
      </trkpt>
      <trkpt lat="37.01964" lon="-4.29976">
        <ele>791.360609</ele>
        <time>2022-09-02T17:59:01.160Z</time>
      </trkpt>
      <trkpt lat="37.01947" lon="-4.29951">
        <ele>794.18306</ele>
        <time>2022-09-02T17:59:21.555Z</time>
      </trkpt>
      <trkpt lat="37.01942" lon="-4.29926">
        <ele>796.511618</ele>
        <time>2022-09-02T17:59:39.417Z</time>
      </trkpt>
      <trkpt lat="37.01918" lon="-4.29866">
        <ele>802.548752</ele>
        <time>2022-09-02T18:00:19.458Z</time>
      </trkpt>
      <trkpt lat="37.0186" lon="-4.29795">
        <ele>814.432656</ele>
        <time>2022-09-02T18:01:32.017Z</time>
      </trkpt>
      <trkpt lat="37.01709" lon="-4.29589">
        <ele>851.97601</ele>
        <time>2022-09-02T18:05:30.711Z</time>
      </trkpt>
      <trkpt lat="37.01627" lon="-4.29434">
        <ele>883.168315</ele>
        <time>2022-09-02T18:08:49.471Z</time>
      </trkpt>
      <trkpt lat="37.01612" lon="-4.29419">
        <ele>887.614753</ele>
        <time>2022-09-02T18:09:16.593Z</time>
      </trkpt>
      <trkpt lat="37.01489" lon="-4.29336">
        <ele>917.772268</ele>
        <time>2022-09-02T18:12:28.126Z</time>
      </trkpt>
      <trkpt lat="37.01415" lon="-4.29286">
        <ele>935.228508</ele>
        <time>2022-09-02T18:14:06.305Z</time>
      </trkpt>
      <trkpt lat="37.01355" lon="-4.29268">
        <ele>947.52287</ele>
        <time>2022-09-02T18:15:23.437Z</time>
      </trkpt>
      <trkpt lat="37.01333" lon="-4.29251">
        <ele>952.472364</ele>
        <time>2022-09-02T18:15:56.905Z</time>
      </trkpt>
      <trkpt lat="37.01285" lon="-4.29189">
        <ele>965.835847</ele>
        <time>2022-09-02T18:17:26.062Z</time>
      </trkpt>
      <trkpt lat="37.0125" lon="-4.29146">
        <ele>974.884052</ele>
        <time>2022-09-02T18:18:19.729Z</time>
      </trkpt>
      <trkpt lat="37.01216" lon="-4.29085">
        <ele>982.861427</ele>
        <time>2022-09-02T18:19:14.333Z</time>
      </trkpt>
      <trkpt lat="37.01213" lon="-4.2904">
        <ele>987.723162</ele>
        <time>2022-09-02T18:19:48.371Z</time>
      </trkpt>
      <trkpt lat="37.01202" lon="-4.28995">
        <ele>992.720363</ele>
        <time>2022-09-02T18:20:22.675Z</time>
      </trkpt>
      <trkpt lat="37.01207" lon="-4.28986">
        <ele>993.920328</ele>
        <time>2022-09-02T18:20:29.830Z</time>
      </trkpt>
      <trkpt lat="37.01214" lon="-4.28988">
        <ele>994.872222</ele>
        <time>2022-09-02T18:20:32.835Z</time>
      </trkpt>
      <trkpt lat="37.01242" lon="-4.29022">
        <ele>1000.060616</ele>
        <time>2022-09-02T18:21:01.458Z</time>
      </trkpt>
      <trkpt lat="37.01275" lon="-4.2905">
        <ele>1005.366186</ele>
        <time>2022-09-02T18:21:29.458Z</time>
      </trkpt>
      <trkpt lat="37.01276" lon="-4.29036">
        <ele>1006.899407</ele>
        <time>2022-09-02T18:21:41.856Z</time>
      </trkpt>
      <trkpt lat="37.01236" lon="-4.28937">
        <ele>1018.547653</ele>
        <time>2022-09-02T18:22:59.509Z</time>
      </trkpt>
      <trkpt lat="37.01177" lon="-4.28842">
        <ele>1033.60404</ele>
        <time>2022-09-02T18:24:49.221Z</time>
      </trkpt>
      <trkpt lat="37.01153" lon="-4.28754">
        <ele>1045.845963</ele>
        <time>2022-09-02T18:26:09.698Z</time>
      </trkpt>
      <trkpt lat="37.01155" lon="-4.28643">
        <ele>1059.107279</ele>
        <time>2022-09-02T18:27:35.366Z</time>
      </trkpt>
      <trkpt lat="37.01125" lon="-4.28496">
        <ele>1075.873965</ele>
        <time>2022-09-02T18:29:22.539Z</time>
      </trkpt>
      <trkpt lat="37.0111" lon="-4.28423">
        <ele>1084.625237</ele>
        <time>2022-09-02T18:30:20.205Z</time>
      </trkpt>
      <trkpt lat="37.01068" lon="-4.28351">
        <ele>1094.985946</ele>
        <time>2022-09-02T18:31:33.188Z</time>
      </trkpt>
      <trkpt lat="37.00999" lon="-4.28218">
        <ele>1109.773071</ele>
        <time>2022-09-02T18:33:29.642Z</time>
      </trkpt>
      <trkpt lat="37.00945" lon="-4.28115">
        <ele>1119.313674</ele>
        <time>2022-09-02T18:34:33.479Z</time>
      </trkpt>
      <trkpt lat="37.00927" lon="-4.28096">
        <ele>1119.778492</ele>
        <time>2022-09-02T18:34:43.333Z</time>
      </trkpt>
      <trkpt lat="37.00912" lon="-4.28094">
        <ele>1119.511173</ele>
        <time>2022-09-02T18:34:48.425Z</time>
      </trkpt>
      <trkpt lat="37.00885" lon="-4.28102">
        <ele>1119.013731</ele>
        <time>2022-09-02T18:34:55.241Z</time>
      </trkpt>
      <trkpt lat="37.00877" lon="-4.2809">
        <ele>1118.786384</ele>
        <time>2022-09-02T18:34:57.854Z</time>
      </trkpt>
      <trkpt lat="37.00854" lon="-4.28043">
        <ele>1117.986923</ele>
        <time>2022-09-02T18:35:06.356Z</time>
      </trkpt>
      <trkpt lat="37.00845" lon="-4.2799">
        <ele>1117.213245</ele>
        <time>2022-09-02T18:35:13.856Z</time>
      </trkpt>
      <trkpt lat="37.00836" lon="-4.27828">
        <ele>1105.007456</ele>
        <time>2022-09-02T18:35:33.172Z</time>
      </trkpt>
      <trkpt lat="37.00838" lon="-4.27751">
        <ele>1098.228984</ele>
        <time>2022-09-02T18:35:41.979Z</time>
      </trkpt>
      <trkpt lat="37.00834" lon="-4.27717">
        <ele>1094.717998</ele>
        <time>2022-09-02T18:35:45.887Z</time>
      </trkpt>
      <trkpt lat="37.00817" lon="-4.27688">
        <ele>1090.726045</ele>
        <time>2022-09-02T18:35:49.956Z</time>
      </trkpt>
      <trkpt lat="37.00794" lon="-4.27676">
        <ele>1087.304432</ele>
        <time>2022-09-02T18:35:53.496Z</time>
      </trkpt>
      <trkpt lat="37.00777" lon="-4.27675">
        <ele>1084.824291</ele>
        <time>2022-09-02T18:35:56.065Z</time>
      </trkpt>
      <trkpt lat="37.00762" lon="-4.27682">
        <ele>1082.727309</ele>
        <time>2022-09-02T18:35:58.203Z</time>
      </trkpt>
      <trkpt lat="37.0073" lon="-4.27774">
        <ele>1071.592526</ele>
        <time>2022-09-02T18:36:09.491Z</time>
      </trkpt>
      <trkpt lat="37.00726" lon="-4.27822">
        <ele>1066.005623</ele>
        <time>2022-09-02T18:36:15.121Z</time>
      </trkpt>
      <trkpt lat="37.00713" lon="-4.27868">
        <ele>1060.198916</ele>
        <time>2022-09-02T18:36:20.910Z</time>
      </trkpt>
      <trkpt lat="37.00678" lon="-4.27888">
        <ele>1054.602813</ele>
        <time>2022-09-02T18:36:26.302Z</time>
      </trkpt>
      <trkpt lat="37.00657" lon="-4.27887">
        <ele>1051.518954</ele>
        <time>2022-09-02T18:36:29.246Z</time>
      </trkpt>
      <trkpt lat="37.00554" lon="-4.27832">
        <ele>1032.531</ele>
        <time>2022-09-02T18:36:44.764Z</time>
      </trkpt>
      <trkpt lat="37.00524" lon="-4.27823">
        <ele>1027.017551</ele>
        <time>2022-09-02T18:36:48.950Z</time>
      </trkpt>
      <trkpt lat="37.0051" lon="-4.27831">
        <ele>1024.346818</ele>
        <time>2022-09-02T18:36:50.999Z</time>
      </trkpt>
      <trkpt lat="37.00483" lon="-4.2787">
        <ele>1016.922185</ele>
        <time>2022-09-02T18:36:56.682Z</time>
      </trkpt>
      <trkpt lat="37.00464" lon="-4.27913">
        <ele>1011.098976</ele>
        <time>2022-09-02T18:37:02.231Z</time>
      </trkpt>
      <trkpt lat="37.004" lon="-4.27959">
        <ele>1002.663181</ele>
        <time>2022-09-02T18:37:12.973Z</time>
      </trkpt>
      <trkpt lat="37.00392" lon="-4.27972">
        <ele>1001.147344</ele>
        <time>2022-09-02T18:37:14.971Z</time>
      </trkpt>
      <trkpt lat="37.00385" lon="-4.28023">
        <ele>996.469194</ele>
        <time>2022-09-02T18:37:21.206Z</time>
      </trkpt>
      <trkpt lat="37.00377" lon="-4.28032">
        <ele>995.273742</ele>
        <time>2022-09-02T18:37:22.815Z</time>
      </trkpt>
      <trkpt lat="37.00369" lon="-4.2803">
        <ele>994.282375</ele>
        <time>2022-09-02T18:37:24.190Z</time>
      </trkpt>
      <trkpt lat="37.00368" lon="-4.27928">
        <ele>983.160925</ele>
        <time>2022-09-02T18:37:36.611Z</time>
      </trkpt>
      <trkpt lat="37.00373" lon="-4.27914">
        <ele>981.506827</ele>
        <time>2022-09-02T18:37:38.354Z</time>
      </trkpt>
      <trkpt lat="37.00407" lon="-4.27871">
        <ele>974.841525</ele>
        <time>2022-09-02T18:37:45.035Z</time>
      </trkpt>
      <trkpt lat="37.00425" lon="-4.27784">
        <ele>963.197819</ele>
        <time>2022-09-02T18:37:55.019Z</time>
      </trkpt>
      <trkpt lat="37.00447" lon="-4.27736">
        <ele>954.001865</ele>
        <time>2022-09-02T18:38:01.070Z</time>
      </trkpt>
      <trkpt lat="37.00452" lon="-4.27706">
        <ele>948.931857</ele>
        <time>2022-09-02T18:38:04.381Z</time>
      </trkpt>
      <trkpt lat="37.00467" lon="-4.27682">
        <ele>943.859952</ele>
        <time>2022-09-02T18:38:07.693Z</time>
      </trkpt>
      <trkpt lat="37.00509" lon="-4.27649">
        <ele>933.455995</ele>
        <time>2022-09-02T18:38:14.479Z</time>
      </trkpt>
      <trkpt lat="37.00525" lon="-4.27601">
        <ele>926.775418</ele>
        <time>2022-09-02T18:38:20.289Z</time>
      </trkpt>
      <trkpt lat="37.00523" lon="-4.27592">
        <ele>925.849286</ele>
        <time>2022-09-02T18:38:21.239Z</time>
      </trkpt>
      <trkpt lat="37.00517" lon="-4.27589">
        <ele>924.910816</ele>
        <time>2022-09-02T18:38:22.231Z</time>
      </trkpt>
      <trkpt lat="37.00482" lon="-4.27592">
        <ele>920.366273</ele>
        <time>2022-09-02T18:38:27.155Z</time>
      </trkpt>
      <trkpt lat="37.00449" lon="-4.27573">
        <ele>915.536281</ele>
        <time>2022-09-02T18:38:32.575Z</time>
      </trkpt>
      <trkpt lat="37.00416" lon="-4.27565">
        <ele>911.098924</ele>
        <time>2022-09-02T18:38:37.624Z</time>
      </trkpt>
      <trkpt lat="37.00395" lon="-4.27568">
        <ele>908.335585</ele>
        <time>2022-09-02T18:38:41.206Z</time>
      </trkpt>
      <trkpt lat="37.00389" lon="-4.27561">
        <ele>907.241358</ele>
        <time>2022-09-02T18:38:42.351Z</time>
      </trkpt>
      <trkpt lat="37.0039" lon="-4.27547">
        <ele>906.124862</ele>
        <time>2022-09-02T18:38:43.930Z</time>
      </trkpt>
      <trkpt lat="37.00404" lon="-4.27514">
        <ele>903.901063</ele>
        <time>2022-09-02T18:38:48.558Z</time>
      </trkpt>
      <trkpt lat="37.0042" lon="-4.27504">
        <ele>902.516198</ele>
        <time>2022-09-02T18:38:51.963Z</time>
      </trkpt>
      <trkpt lat="37.00422" lon="-4.27488">
        <ele>901.57549</ele>
        <time>2022-09-02T18:38:53.749Z</time>
      </trkpt>
      <trkpt lat="37.00418" lon="-4.27485">
        <ele>901.198337</ele>
        <time>2022-09-02T18:38:54.519Z</time>
      </trkpt>
      <trkpt lat="37.00382" lon="-4.27495">
        <ele>898.452094</ele>
        <time>2022-09-02T18:39:00.190Z</time>
      </trkpt>
      <trkpt lat="37.00369" lon="-4.27487">
        <ele>897.334039</ele>
        <time>2022-09-02T18:39:02.818Z</time>
      </trkpt>
      <trkpt lat="37.00299" lon="-4.27363">
        <ele>889.42806</ele>
        <time>2022-09-02T18:39:21.792Z</time>
      </trkpt>
      <trkpt lat="37.00277" lon="-4.27344">
        <ele>887.892049</ele>
        <time>2022-09-02T18:39:26.119Z</time>
      </trkpt>
      <trkpt lat="37.00251" lon="-4.27313">
        <ele>885.890826</ele>
        <time>2022-09-02T18:39:31.871Z</time>
      </trkpt>
      <trkpt lat="37.00209" lon="-4.27239">
        <ele>882.863489</ele>
        <time>2022-09-02T18:39:44.369Z</time>
      </trkpt>
      <trkpt lat="37.00197" lon="-4.27261">
        <ele>882.785411</ele>
        <time>2022-09-02T18:39:48.318Z</time>
      </trkpt>
      <trkpt lat="37.00051" lon="-4.27466">
        <ele>882.38925</ele>
        <time>2022-09-02T18:40:45.461Z</time>
      </trkpt>
      <trkpt lat="37.00018" lon="-4.27532">
        <ele>882.478578</ele>
        <time>2022-09-02T18:41:01.295Z</time>
      </trkpt>
      <trkpt lat="36.99957" lon="-4.27628">
        <ele>880.551923</ele>
        <time>2022-09-02T18:41:20.203Z</time>
      </trkpt>
      <trkpt lat="36.99936" lon="-4.27652">
        <ele>879.650298</ele>
        <time>2022-09-02T18:41:25.032Z</time>
      </trkpt>
      <trkpt lat="36.99888" lon="-4.27692">
        <ele>877.793014</ele>
        <time>2022-09-02T18:41:34.506Z</time>
      </trkpt>
      <trkpt lat="36.99758" lon="-4.27779">
        <ele>870.986099</ele>
        <time>2022-09-02T18:41:57.609Z</time>
      </trkpt>
      <trkpt lat="36.99581" lon="-4.2787">
        <ele>862.585307</ele>
        <time>2022-09-02T18:42:28.415Z</time>
      </trkpt>
      <trkpt lat="36.99542" lon="-4.27878">
        <ele>861.001272</ele>
        <time>2022-09-02T18:42:35.098Z</time>
      </trkpt>
      <trkpt lat="36.99327" lon="-4.2789">
        <ele>855.660445</ele>
        <time>2022-09-02T18:43:13.353Z</time>
      </trkpt>
      <trkpt lat="36.99289" lon="-4.2789">
        <ele>855.377721</ele>
        <time>2022-09-02T18:43:20.091Z</time>
      </trkpt>
      <trkpt lat="36.9916" lon="-4.27865">
        <ele>854.406173</ele>
        <time>2022-09-02T18:43:50.695Z</time>
      </trkpt>
      <trkpt lat="36.99125" lon="-4.27862">
        <ele>854.185486</ele>
        <time>2022-09-02T18:43:58.167Z</time>
      </trkpt>
      <trkpt lat="36.99125" lon="-4.2782">
        <ele>853.972974</ele>
        <time>2022-09-02T18:44:05.341Z</time>
      </trkpt>
      <trkpt lat="36.99127" lon="-4.27784">
        <ele>853.794738</ele>
        <time>2022-09-02T18:44:11.843Z</time>
      </trkpt>
      <trkpt lat="36.99032" lon="-4.2781">
        <ele>853.090502</ele>
        <time>2022-09-02T18:44:30.267Z</time>
      </trkpt>
      <trkpt lat="36.98994" lon="-4.27793">
        <ele>852.676618</ele>
        <time>2022-09-02T18:44:38.507Z</time>
      </trkpt>
      <trkpt lat="36.98955" lon="-4.27746">
        <ele>852.12219</ele>
        <time>2022-09-02T18:44:48.478Z</time>
      </trkpt>
      <trkpt lat="36.98945" lon="-4.27743">
        <ele>852.020591</ele>
        <time>2022-09-02T18:44:50.006Z</time>
      </trkpt>
      <trkpt lat="36.9893" lon="-4.27744">
        <ele>851.860657</ele>
        <time>2022-09-02T18:44:54.160Z</time>
      </trkpt>
      <trkpt lat="36.98916" lon="-4.27746">
        <ele>851.716917</ele>
        <time>2022-09-02T18:44:57.093Z</time>
      </trkpt>
      <trkpt lat="36.98854" lon="-4.27751">
        <ele>851.894055</ele>
        <time>2022-09-02T18:45:12.928Z</time>
      </trkpt>
      <trkpt lat="36.98814" lon="-4.27749">
        <ele>852.283108</ele>
        <time>2022-09-02T18:45:24.223Z</time>
      </trkpt>
      <trkpt lat="36.98726" lon="-4.27704">
        <ele>853.197847</ele>
        <time>2022-09-02T18:45:53.287Z</time>
      </trkpt>
      <trkpt lat="36.98648" lon="-4.27681">
        <ele>853.382163</ele>
        <time>2022-09-02T18:46:12.070Z</time>
      </trkpt>
      <trkpt lat="36.98586" lon="-4.27609">
        <ele>853.550838</ele>
        <time>2022-09-02T18:46:30.333Z</time>
      </trkpt>
      <trkpt lat="36.98555" lon="-4.27587">
        <ele>853.670373</ele>
        <time>2022-09-02T18:46:38.218Z</time>
      </trkpt>
      <trkpt lat="36.98508" lon="-4.27552">
        <ele>853.938227</ele>
        <time>2022-09-02T18:46:50.963Z</time>
      </trkpt>
      <trkpt lat="36.98432" lon="-4.2744">
        <ele>854.752457</ele>
        <time>2022-09-02T18:47:19.070Z</time>
      </trkpt>
      <trkpt lat="36.98343" lon="-4.2732">
        <ele>858.750431</ele>
        <time>2022-09-02T18:48:07.611Z</time>
      </trkpt>
      <trkpt lat="36.98278" lon="-4.2723">
        <ele>861.76953</ele>
        <time>2022-09-02T18:48:52.960Z</time>
      </trkpt>
      <trkpt lat="36.98245" lon="-4.27219">
        <ele>862.814665</ele>
        <time>2022-09-02T18:49:07.698Z</time>
      </trkpt>
      <trkpt lat="36.98186" lon="-4.27231">
        <ele>864.647819</ele>
        <time>2022-09-02T18:49:31.305Z</time>
      </trkpt>
      <trkpt lat="36.98179" lon="-4.27226">
        <ele>864.901384</ele>
        <time>2022-09-02T18:49:33.797Z</time>
      </trkpt>
      <trkpt lat="36.98138" lon="-4.27234">
        <ele>864.75805</ele>
        <time>2022-09-02T18:49:43.545Z</time>
      </trkpt>
      <trkpt lat="36.98132" lon="-4.27235">
        <ele>864.545652</ele>
        <time>2022-09-02T18:49:44.647Z</time>
      </trkpt>
      <trkpt lat="36.98111" lon="-4.27235">
        <ele>863.727806</ele>
        <time>2022-09-02T18:49:48.624Z</time>
      </trkpt>
      <trkpt lat="36.98054" lon="-4.27221">
        <ele>861.504162</ele>
        <time>2022-09-02T18:49:59.019Z</time>
      </trkpt>
      <trkpt lat="36.98034" lon="-4.27225">
        <ele>860.72018</ele>
        <time>2022-09-02T18:50:02.415Z</time>
      </trkpt>
      <trkpt lat="36.98008" lon="-4.27234">
        <ele>859.711714</ele>
        <time>2022-09-02T18:50:06.690Z</time>
      </trkpt>
      <trkpt lat="36.97967" lon="-4.27259">
        <ele>856.918448</ele>
        <time>2022-09-02T18:50:13.795Z</time>
      </trkpt>
      <trkpt lat="36.9796" lon="-4.2726">
        <ele>856.256319</ele>
        <time>2022-09-02T18:50:14.864Z</time>
      </trkpt>
      <trkpt lat="36.97941" lon="-4.2726">
        <ele>854.521582</ele>
        <time>2022-09-02T18:50:17.741Z</time>
      </trkpt>
      <trkpt lat="36.9792" lon="-4.27265">
        <ele>852.514751</ele>
        <time>2022-09-02T18:50:20.958Z</time>
      </trkpt>
      <trkpt lat="36.97894" lon="-4.2727">
        <ele>850.04444</ele>
        <time>2022-09-02T18:50:24.917Z</time>
      </trkpt>
      <trkpt lat="36.97896" lon="-4.27277">
        <ele>849.499413</ele>
        <time>2022-09-02T18:50:25.754Z</time>
      </trkpt>
      <trkpt lat="36.97877" lon="-4.27281">
        <ele>847.745444</ele>
        <time>2022-09-02T18:50:28.563Z</time>
      </trkpt>
      <trkpt lat="36.9785" lon="-4.27283">
        <ele>845.211471</ele>
        <time>2022-09-02T18:50:32.586Z</time>
      </trkpt>
      <trkpt lat="36.97815" lon="-4.27292">
        <ele>841.837172</ele>
        <time>2022-09-02T18:50:37.927Z</time>
      </trkpt>
      <trkpt lat="36.97802" lon="-4.27308">
        <ele>840.171082</ele>
        <time>2022-09-02T18:50:40.665Z</time>
      </trkpt>
      <trkpt lat="36.97784" lon="-4.27312">
        <ele>838.533215</ele>
        <time>2022-09-02T18:50:43.348Z</time>
      </trkpt>
      <trkpt lat="36.97777" lon="-4.27307">
        <ele>837.853031</ele>
        <time>2022-09-02T18:50:44.405Z</time>
      </trkpt>
      <trkpt lat="36.97771" lon="-4.27304">
        <ele>837.253939</ele>
        <time>2022-09-02T18:50:45.331Z</time>
      </trkpt>
      <trkpt lat="36.97722" lon="-4.27266">
        <ele>831.94474</ele>
        <time>2022-09-02T18:50:53.636Z</time>
      </trkpt>
      <trkpt lat="36.97713" lon="-4.27266">
        <ele>831.162465</ele>
        <time>2022-09-02T18:50:54.846Z</time>
      </trkpt>
      <trkpt lat="36.97712" lon="-4.27279">
        <ele>830.242348</ele>
        <time>2022-09-02T18:50:56.277Z</time>
      </trkpt>
      <trkpt lat="36.97726" lon="-4.27306">
        <ele>827.907009</ele>
        <time>2022-09-02T18:51:00.027Z</time>
      </trkpt>
      <trkpt lat="36.97729" lon="-4.27323">
        <ele>826.663162</ele>
        <time>2022-09-02T18:51:02.057Z</time>
      </trkpt>
      <trkpt lat="36.97722" lon="-4.27329">
        <ele>825.881995</ele>
        <time>2022-09-02T18:51:03.371Z</time>
      </trkpt>
      <trkpt lat="36.97667" lon="-4.27246">
        <ele>822.200224</ele>
        <time>2022-09-02T18:51:16.769Z</time>
      </trkpt>
      <trkpt lat="36.9766" lon="-4.27241">
        <ele>821.887646</ele>
        <time>2022-09-02T18:51:17.956Z</time>
      </trkpt>
      <trkpt lat="36.97621" lon="-4.27148">
        <ele>818.496309</ele>
        <time>2022-09-02T18:51:33.024Z</time>
      </trkpt>
      <trkpt lat="36.97492" lon="-4.26945">
        <ele>816.422719</ele>
        <time>2022-09-02T18:52:15.348Z</time>
      </trkpt>
      <trkpt lat="36.97396" lon="-4.26829">
        <ele>815.17785</ele>
        <time>2022-09-02T18:52:42.137Z</time>
      </trkpt>
      <trkpt lat="36.97371" lon="-4.26808">
        <ele>814.8771</ele>
        <time>2022-09-02T18:52:47.999Z</time>
      </trkpt>
      <trkpt lat="36.97337" lon="-4.26796">
        <ele>814.395252</ele>
        <time>2022-09-02T18:52:54.973Z</time>
      </trkpt>
      <trkpt lat="36.9731" lon="-4.26777">
        <ele>813.976163</ele>
        <time>2022-09-02T18:53:01.062Z</time>
      </trkpt>
      <trkpt lat="36.97265" lon="-4.26729">
        <ele>813.164822</ele>
        <time>2022-09-02T18:53:12.491Z</time>
      </trkpt>
      <trkpt lat="36.97199" lon="-4.26676">
        <ele>811.803918</ele>
        <time>2022-09-02T18:53:27.144Z</time>
      </trkpt>
      <trkpt lat="36.97173" lon="-4.26633">
        <ele>810.801823</ele>
        <time>2022-09-02T18:53:35.006Z</time>
      </trkpt>
      <trkpt lat="36.97121" lon="-4.26518">
        <ele>808.371622</ele>
        <time>2022-09-02T18:53:53.757Z</time>
      </trkpt>
      <trkpt lat="36.971" lon="-4.26482">
        <ele>807.41429</ele>
        <time>2022-09-02T18:53:59.920Z</time>
      </trkpt>
      <trkpt lat="36.97052" lon="-4.26433">
        <ele>805.740104</ele>
        <time>2022-09-02T18:54:10.581Z</time>
      </trkpt>
      <trkpt lat="36.97015" lon="-4.26381">
        <ele>804.214046</ele>
        <time>2022-09-02T18:54:20.417Z</time>
      </trkpt>
      <trkpt lat="36.96998" lon="-4.26365">
        <ele>803.629512</ele>
        <time>2022-09-02T18:54:24.241Z</time>
      </trkpt>
      <trkpt lat="36.96941" lon="-4.26328">
        <ele>802.157998</ele>
        <time>2022-09-02T18:54:35.655Z</time>
      </trkpt>
      <trkpt lat="36.96831" lon="-4.26208">
        <ele>798.784979</ele>
        <time>2022-09-02T18:55:02.116Z</time>
      </trkpt>
      <trkpt lat="36.9681" lon="-4.26175">
        <ele>797.895041</ele>
        <time>2022-09-02T18:55:08.366Z</time>
      </trkpt>
      <trkpt lat="36.96779" lon="-4.26074">
        <ele>795.634693</ele>
        <time>2022-09-02T18:55:23.851Z</time>
      </trkpt>
      <trkpt lat="36.96708" lon="-4.25968">
        <ele>791.133539</ele>
        <time>2022-09-02T18:55:42.206Z</time>
      </trkpt>
      <trkpt lat="36.96685" lon="-4.25947">
        <ele>789.761952</ele>
        <time>2022-09-02T18:55:46.637Z</time>
      </trkpt>
      <trkpt lat="36.96631" lon="-4.2591">
        <ele>786.841123</ele>
        <time>2022-09-02T18:55:56.139Z</time>
      </trkpt>
      <trkpt lat="36.96617" lon="-4.25883">
        <ele>785.534089</ele>
        <time>2022-09-02T18:56:00.190Z</time>
      </trkpt>
      <trkpt lat="36.96611" lon="-4.25836">
        <ele>783.411496</ele>
        <time>2022-09-02T18:56:06.093Z</time>
      </trkpt>
      <trkpt lat="36.96602" lon="-4.25815">
        <ele>782.315974</ele>
        <time>2022-09-02T18:56:09.035Z</time>
      </trkpt>
      <trkpt lat="36.96562" lon="-4.25768">
        <ele>779.25844</ele>
        <time>2022-09-02T18:56:17.667Z</time>
      </trkpt>
      <trkpt lat="36.96532" lon="-4.25741">
        <ele>777.176337</ele>
        <time>2022-09-02T18:56:23.560Z</time>
      </trkpt>
      <trkpt lat="36.96488" lon="-4.2567">
        <ele>773.225031</ele>
        <time>2022-09-02T18:56:34.553Z</time>
      </trkpt>
      <trkpt lat="36.96441" lon="-4.25641">
        <ele>770.309563</ele>
        <time>2022-09-02T18:56:42.917Z</time>
      </trkpt>
      <trkpt lat="36.96355" lon="-4.25527">
        <ele>762.92995</ele>
        <time>2022-09-02T18:57:02.359Z</time>
      </trkpt>
      <trkpt lat="36.96342" lon="-4.255">
        <ele>761.312883</ele>
        <time>2022-09-02T18:57:06.170Z</time>
      </trkpt>
      <trkpt lat="36.96326" lon="-4.25437">
        <ele>757.920223</ele>
        <time>2022-09-02T18:57:14.065Z</time>
      </trkpt>
      <trkpt lat="36.96316" lon="-4.25418">
        <ele>756.709991</ele>
        <time>2022-09-02T18:57:17.182Z</time>
      </trkpt>
      <trkpt lat="36.96299" lon="-4.25397">
        <ele>755.178793</ele>
        <time>2022-09-02T18:57:20.565Z</time>
      </trkpt>
      <trkpt lat="36.96268" lon="-4.25386">
        <ele>752.991531</ele>
        <time>2022-09-02T18:57:25.394Z</time>
      </trkpt>
      <trkpt lat="36.96247" lon="-4.25372">
        <ele>751.372238</ele>
        <time>2022-09-02T18:57:28.981Z</time>
      </trkpt>
      <trkpt lat="36.96224" lon="-4.25299">
        <ele>747.031709</ele>
        <time>2022-09-02T18:57:38.318Z</time>
      </trkpt>
      <trkpt lat="36.962" lon="-4.25262">
        <ele>744.38702</ele>
        <time>2022-09-02T18:57:43.780Z</time>
      </trkpt>
      <trkpt lat="36.96165" lon="-4.25238">
        <ele>741.581645</ele>
        <time>2022-09-02T18:57:50.065Z</time>
      </trkpt>
      <trkpt lat="36.96121" lon="-4.25189">
        <ele>736.897942</ele>
        <time>2022-09-02T18:57:59.917Z</time>
      </trkpt>
      <trkpt lat="36.96105" lon="-4.25198">
        <ele>735.516819</ele>
        <time>2022-09-02T18:58:02.603Z</time>
      </trkpt>
      <trkpt lat="36.96103" lon="-4.25213">
        <ele>734.507566</ele>
        <time>2022-09-02T18:58:04.323Z</time>
      </trkpt>
      <trkpt lat="36.96133" lon="-4.25273">
        <ele>730.036181</ele>
        <time>2022-09-02T18:58:12.157Z</time>
      </trkpt>
      <trkpt lat="36.96143" lon="-4.25314">
        <ele>727.253405</ele>
        <time>2022-09-02T18:58:17.078Z</time>
      </trkpt>
      <trkpt lat="36.96139" lon="-4.2534">
        <ele>725.459874</ele>
        <time>2022-09-02T18:58:20.116Z</time>
      </trkpt>
      <trkpt lat="36.96122" lon="-4.25357">
        <ele>723.590019</ele>
        <time>2022-09-02T18:58:23.264Z</time>
      </trkpt>
      <trkpt lat="36.96096" lon="-4.25358">
        <ele>721.271798</ele>
        <time>2022-09-02T18:58:27.032Z</time>
      </trkpt>
      <trkpt lat="36.96048" lon="-4.2531">
        <ele>715.964758</ele>
        <time>2022-09-02T18:58:36.303Z</time>
      </trkpt>
      <trkpt lat="36.95956" lon="-4.25246">
        <ele>707.27456</ele>
        <time>2022-09-02T18:58:51.366Z</time>
      </trkpt>
      <trkpt lat="36.95927" lon="-4.2523">
        <ele>704.753108</ele>
        <time>2022-09-02T18:58:56.366Z</time>
      </trkpt>
      <trkpt lat="36.95881" lon="-4.25215">
        <ele>700.966405</ele>
        <time>2022-09-02T18:59:03.588Z</time>
      </trkpt>
      <trkpt lat="36.95833" lon="-4.25201">
        <ele>696.896484</ele>
        <time>2022-09-02T18:59:10.706Z</time>
      </trkpt>
      <trkpt lat="36.95779" lon="-4.25169">
        <ele>691.073113</ele>
        <time>2022-09-02T18:59:19.129Z</time>
      </trkpt>
      <trkpt lat="36.95733" lon="-4.2513">
        <ele>685.606704</ele>
        <time>2022-09-02T18:59:26.930Z</time>
      </trkpt>
      <trkpt lat="36.95707" lon="-4.25095">
        <ele>681.956015</ele>
        <time>2022-09-02T18:59:32.274Z</time>
      </trkpt>
      <trkpt lat="36.95677" lon="-4.25041">
        <ele>678.531915</ele>
        <time>2022-09-02T18:59:40.101Z</time>
      </trkpt>
      <trkpt lat="36.9564" lon="-4.24937">
        <ele>674.188829</ele>
        <time>2022-09-02T18:59:54.507Z</time>
      </trkpt>
      <trkpt lat="36.95626" lon="-4.24862">
        <ele>671.53563</ele>
        <time>2022-09-02T19:00:05.499Z</time>
      </trkpt>
      <trkpt lat="36.95631" lon="-4.24802">
        <ele>671.216083</ele>
        <time>2022-09-02T19:00:15.672Z</time>
      </trkpt>
      <trkpt lat="36.95621" lon="-4.24776">
        <ele>671.061927</ele>
        <time>2022-09-02T19:00:20.626Z</time>
      </trkpt>
      <trkpt lat="36.95564" lon="-4.24697">
        <ele>670.494059</ele>
        <time>2022-09-02T19:00:39.450Z</time>
      </trkpt>
      <trkpt lat="36.9552" lon="-4.24664">
        <ele>669.773701</ele>
        <time>2022-09-02T19:00:50.178Z</time>
      </trkpt>
      <trkpt lat="36.95462" lon="-4.24623">
        <ele>668.6077</ele>
        <time>2022-09-02T19:01:02.956Z</time>
      </trkpt>
      <trkpt lat="36.95431" lon="-4.24598">
        <ele>667.964661</ele>
        <time>2022-09-02T19:01:09.616Z</time>
      </trkpt>
      <trkpt lat="36.95365" lon="-4.24601">
        <ele>665.896074</ele>
        <time>2022-09-02T19:01:21.139Z</time>
      </trkpt>
      <trkpt lat="36.95355" lon="-4.246">
        <ele>665.368219</ele>
        <time>2022-09-02T19:01:22.820Z</time>
      </trkpt>
      <trkpt lat="36.95308" lon="-4.24583">
        <ele>662.790244</ele>
        <time>2022-09-02T19:01:31.093Z</time>
      </trkpt>
      <trkpt lat="36.95252" lon="-4.24552">
        <ele>659.539267</ele>
        <time>2022-09-02T19:01:40.205Z</time>
      </trkpt>
      <trkpt lat="36.95195" lon="-4.24517">
        <ele>655.61066</ele>
        <time>2022-09-02T19:01:49.672Z</time>
      </trkpt>
      <trkpt lat="36.95172" lon="-4.24515">
        <ele>653.962575</ele>
        <time>2022-09-02T19:01:53.453Z</time>
      </trkpt>
      <trkpt lat="36.95163" lon="-4.24524">
        <ele>653.053567</ele>
        <time>2022-09-02T19:01:55.172Z</time>
      </trkpt>
      <trkpt lat="36.95143" lon="-4.2457">
        <ele>650.01945</ele>
        <time>2022-09-02T19:02:01.522Z</time>
      </trkpt>
      <trkpt lat="36.95122" lon="-4.24589">
        <ele>648.167238</ele>
        <time>2022-09-02T19:02:05.359Z</time>
      </trkpt>
      <trkpt lat="36.95106" lon="-4.24589">
        <ele>646.971226</ele>
        <time>2022-09-02T19:02:07.841Z</time>
      </trkpt>
      <trkpt lat="36.95039" lon="-4.24537">
        <ele>639.062887</ele>
        <time>2022-09-02T19:02:19.185Z</time>
      </trkpt>
      <trkpt lat="36.95017" lon="-4.24532">
        <ele>636.390949</ele>
        <time>2022-09-02T19:02:22.354Z</time>
      </trkpt>
      <trkpt lat="36.94916" lon="-4.24552">
        <ele>624.122704</ele>
        <time>2022-09-02T19:02:36.269Z</time>
      </trkpt>
      <trkpt lat="36.9485" lon="-4.24578">
        <ele>614.779467</ele>
        <time>2022-09-02T19:02:45.637Z</time>
      </trkpt>
      <trkpt lat="36.94802" lon="-4.2457">
        <ele>608.196322</ele>
        <time>2022-09-02T19:02:52.167Z</time>
      </trkpt>
      <trkpt lat="36.9478" lon="-4.24555">
        <ele>604.756968</ele>
        <time>2022-09-02T19:02:55.619Z</time>
      </trkpt>
      <trkpt lat="36.94719" lon="-4.2448">
        <ele>594.58699</ele>
        <time>2022-09-02T19:03:07.353Z</time>
      </trkpt>
      <trkpt lat="36.94704" lon="-4.24469">
        <ele>592.912461</ele>
        <time>2022-09-02T19:03:09.800Z</time>
      </trkpt>
      <trkpt lat="36.9468" lon="-4.24461">
        <ele>590.4179</ele>
        <time>2022-09-02T19:03:13.410Z</time>
      </trkpt>
      <trkpt lat="36.9464" lon="-4.24471">
        <ele>586.348862</ele>
        <time>2022-09-02T19:03:19.371Z</time>
      </trkpt>
      <trkpt lat="36.94519" lon="-4.24481">
        <ele>573.528867</ele>
        <time>2022-09-02T19:03:36.749Z</time>
      </trkpt>
      <trkpt lat="36.94492" lon="-4.24478">
        <ele>570.54036</ele>
        <time>2022-09-02T19:03:40.499Z</time>
      </trkpt>
      <trkpt lat="36.94457" lon="-4.24467">
        <ele>566.561138</ele>
        <time>2022-09-02T19:03:45.450Z</time>
      </trkpt>
      <trkpt lat="36.94374" lon="-4.24459">
        <ele>557.318743</ele>
        <time>2022-09-02T19:03:56.861Z</time>
      </trkpt>
      <trkpt lat="36.94241" lon="-4.24466">
        <ele>542.570419</ele>
        <time>2022-09-02T19:04:15.476Z</time>
      </trkpt>
      <trkpt lat="36.94235" lon="-4.24481">
        <ele>541.081814</ele>
        <time>2022-09-02T19:04:17.376Z</time>
      </trkpt>
      <trkpt lat="36.94267" lon="-4.24543">
        <ele>536.130979</ele>
        <time>2022-09-02T19:04:25.904Z</time>
      </trkpt>
      <trkpt lat="36.94267" lon="-4.24563">
        <ele>534.842385</ele>
        <time>2022-09-02T19:04:28.142Z</time>
      </trkpt>
      <trkpt lat="36.94262" lon="-4.24572">
        <ele>534.094687</ele>
        <time>2022-09-02T19:04:29.483Z</time>
      </trkpt>
      <trkpt lat="36.94241" lon="-4.2458">
        <ele>532.330188</ele>
        <time>2022-09-02T19:04:32.514Z</time>
      </trkpt>
      <trkpt lat="36.94196" lon="-4.24579">
        <ele>528.628917</ele>
        <time>2022-09-02T19:04:39.264Z</time>
      </trkpt>
      <trkpt lat="36.9416" lon="-4.24567">
        <ele>525.666861</ele>
        <time>2022-09-02T19:04:45.111Z</time>
      </trkpt>
      <trkpt lat="36.94143" lon="-4.24553">
        <ele>524.632638</ele>
        <time>2022-09-02T19:04:48.065Z</time>
      </trkpt>
      <trkpt lat="36.94127" lon="-4.24538">
        <ele>523.609129</ele>
        <time>2022-09-02T19:04:51.315Z</time>
      </trkpt>
      <trkpt lat="36.94092" lon="-4.24491">
        <ele>520.992055</ele>
        <time>2022-09-02T19:04:59.165Z</time>
      </trkpt>
      <trkpt lat="36.94085" lon="-4.24406">
        <ele>517.484965</ele>
        <time>2022-09-02T19:05:09.981Z</time>
      </trkpt>
      <trkpt lat="36.94086" lon="-4.24362">
        <ele>516.48815</ele>
        <time>2022-09-02T19:05:16.195Z</time>
      </trkpt>
      <trkpt lat="36.94097" lon="-4.24307">
        <ele>516.026416</ele>
        <time>2022-09-02T19:05:25.269Z</time>
      </trkpt>
      <trkpt lat="36.94097" lon="-4.24246">
        <ele>515.535866</ele>
        <time>2022-09-02T19:05:35.734Z</time>
      </trkpt>
      <trkpt lat="36.94108" lon="-4.24163">
        <ele>514.857904</ele>
        <time>2022-09-02T19:05:50.484Z</time>
      </trkpt>
      <trkpt lat="36.94147" lon="-4.2402">
        <ele>514.399508</ele>
        <time>2022-09-02T19:06:16.223Z</time>
      </trkpt>
      <trkpt lat="36.94189" lon="-4.23962">
        <ele>514.157566</ele>
        <time>2022-09-02T19:06:29.305Z</time>
      </trkpt>
      <trkpt lat="36.94177" lon="-4.23889">
        <ele>513.875535</ele>
        <time>2022-09-02T19:06:41.501Z</time>
      </trkpt>
      <trkpt lat="36.94184" lon="-4.23742">
        <ele>513.329114</ele>
        <time>2022-09-02T19:07:05.882Z</time>
      </trkpt>
      <trkpt lat="36.94196" lon="-4.2371">
        <ele>513.471267</ele>
        <time>2022-09-02T19:07:11.984Z</time>
      </trkpt>
      <trkpt lat="36.94238" lon="-4.23655">
        <ele>513.777406</ele>
        <time>2022-09-02T19:07:28.358Z</time>
      </trkpt>
      <trkpt lat="36.94238" lon="-4.2364">
        <ele>513.835695</ele>
        <time>2022-09-02T19:07:31.262Z</time>
      </trkpt>
      <trkpt lat="36.94219" lon="-4.23612">
        <ele>513.982886</ele>
        <time>2022-09-02T19:07:39.448Z</time>
      </trkpt>
      <trkpt lat="36.94216" lon="-4.23591">
        <ele>514.06622</ele>
        <time>2022-09-02T19:07:44.063Z</time>
      </trkpt>
      <trkpt lat="36.9422" lon="-4.23566">
        <ele>514.169343</ele>
        <time>2022-09-02T19:07:49.734Z</time>
      </trkpt>
      <trkpt lat="36.94253" lon="-4.23502">
        <ele>513.976126</ele>
        <time>2022-09-02T19:08:03.506Z</time>
      </trkpt>
      <trkpt lat="36.94256" lon="-4.23452">
        <ele>513.774241</ele>
        <time>2022-09-02T19:08:11.894Z</time>
      </trkpt>
      <trkpt lat="36.9427" lon="-4.23397">
        <ele>513.545035</ele>
        <time>2022-09-02T19:08:21.374Z</time>
      </trkpt>
      <trkpt lat="36.94264" lon="-4.23372">
        <ele>513.440662</ele>
        <time>2022-09-02T19:08:25.489Z</time>
      </trkpt>
      <trkpt lat="36.94222" lon="-4.23361">
        <ele>513.117008</ele>
        <time>2022-09-02T19:08:33.762Z</time>
      </trkpt>
      <trkpt lat="36.94203" lon="-4.23346">
        <ele>512.880054</ele>
        <time>2022-09-02T19:08:37.899Z</time>
      </trkpt>
      <trkpt lat="36.94185" lon="-4.23319">
        <ele>512.575207</ele>
        <time>2022-09-02T19:08:43.328Z</time>
      </trkpt>
      <trkpt lat="36.94176" lon="-4.23297">
        <ele>512.370111</ele>
        <time>2022-09-02T19:08:46.963Z</time>
      </trkpt>
      <trkpt lat="36.94172" lon="-4.23273">
        <ele>512.16334</ele>
        <time>2022-09-02T19:08:50.642Z</time>
      </trkpt>
      <trkpt lat="36.94181" lon="-4.23118">
        <ele>511.605049</ele>
        <time>2022-09-02T19:09:16.996Z</time>
      </trkpt>
      <trkpt lat="36.94209" lon="-4.23022">
        <ele>511.883624</ele>
        <time>2022-09-02T19:09:37.119Z</time>
      </trkpt>
      <trkpt lat="36.94191" lon="-4.22941">
        <ele>511.829876</ele>
        <time>2022-09-02T19:09:55.249Z</time>
      </trkpt>
      <trkpt lat="36.94185" lon="-4.22856">
        <ele>511.23508</ele>
        <time>2022-09-02T19:10:13.593Z</time>
      </trkpt>
      <trkpt lat="36.9419" lon="-4.22802">
        <ele>510.856648</ele>
        <time>2022-09-02T19:10:21.961Z</time>
      </trkpt>
      <trkpt lat="36.942" lon="-4.22718">
        <ele>508.915137</ele>
        <time>2022-09-02T19:10:33.680Z</time>
      </trkpt>
      <trkpt lat="36.94169" lon="-4.22789">
        <ele>504.607374</ele>
        <time>2022-09-02T19:10:44.300Z</time>
      </trkpt>
      <trkpt lat="36.94154" lon="-4.22801">
        <ele>503.439466</ele>
        <time>2022-09-02T19:10:47.155Z</time>
      </trkpt>
      <trkpt lat="36.94053" lon="-4.22773">
        <ele>495.639301</ele>
        <time>2022-09-02T19:11:02.695Z</time>
      </trkpt>
      <trkpt lat="36.93975" lon="-4.22692">
        <ele>485.616878</ele>
        <time>2022-09-02T19:11:17.606Z</time>
      </trkpt>
      <trkpt lat="36.93965" lon="-4.22691">
        <ele>484.628973</ele>
        <time>2022-09-02T19:11:19.040Z</time>
      </trkpt>
      <trkpt lat="36.93963" lon="-4.22696">
        <ele>484.203434</ele>
        <time>2022-09-02T19:11:19.680Z</time>
      </trkpt>
      <trkpt lat="36.93918" lon="-4.22604">
        <ele>476.386501</ele>
        <time>2022-09-02T19:11:32.644Z</time>
      </trkpt>
      <trkpt lat="36.93946" lon="-4.22512">
        <ele>469.719147</ele>
        <time>2022-09-02T19:11:44.627Z</time>
      </trkpt>
      <trkpt lat="36.93957" lon="-4.22457">
        <ele>465.87115</ele>
        <time>2022-09-02T19:11:51.708Z</time>
      </trkpt>
      <trkpt lat="36.93957" lon="-4.2243">
        <ele>464.646343</ele>
        <time>2022-09-02T19:11:55.012Z</time>
      </trkpt>
      <trkpt lat="36.93967" lon="-4.22382">
        <ele>462.624829</ele>
        <time>2022-09-02T19:12:01.456Z</time>
      </trkpt>
      <trkpt lat="36.93965" lon="-4.2232">
        <ele>460.121508</ele>
        <time>2022-09-02T19:12:09.555Z</time>
      </trkpt>
      <trkpt lat="36.93967" lon="-4.22091">
        <ele>455.0948</ele>
        <time>2022-09-02T19:12:42.218Z</time>
      </trkpt>
      <trkpt lat="36.93974" lon="-4.22058">
        <ele>454.769074</ele>
        <time>2022-09-02T19:12:49.277Z</time>
      </trkpt>
      <trkpt lat="36.93966" lon="-4.22033">
        <ele>454.507837</ele>
        <time>2022-09-02T19:12:56.106Z</time>
      </trkpt>
      <trkpt lat="36.9396" lon="-4.21979">
        <ele>454.772155</ele>
        <time>2022-09-02T19:13:12.208Z</time>
      </trkpt>
      <trkpt lat="36.93979" lon="-4.21867">
        <ele>456.939482</ele>
        <time>2022-09-02T19:13:49.369Z</time>
      </trkpt>
      <trkpt lat="36.93971" lon="-4.21784">
        <ele>458.522698</ele>
        <time>2022-09-02T19:14:11.086Z</time>
      </trkpt>
      <trkpt lat="36.93966" lon="-4.21703">
        <ele>457.252028</ele>
        <time>2022-09-02T19:14:26.264Z</time>
      </trkpt>
      <trkpt lat="36.9398" lon="-4.2168">
        <ele>456.814218</ele>
        <time>2022-09-02T19:14:31.154Z</time>
      </trkpt>
      <trkpt lat="36.93985" lon="-4.21666">
        <ele>456.575611</ele>
        <time>2022-09-02T19:14:33.280Z</time>
      </trkpt>
      <trkpt lat="36.94008" lon="-4.21653">
        <ele>456.092106</ele>
        <time>2022-09-02T19:14:37.937Z</time>
      </trkpt>
      <trkpt lat="36.94021" lon="-4.21636">
        <ele>455.7218</ele>
        <time>2022-09-02T19:14:41.119Z</time>
      </trkpt>
      <trkpt lat="36.94044" lon="-4.21533">
        <ele>453.31639</ele>
        <time>2022-09-02T19:14:55.397Z</time>
      </trkpt>
      <trkpt lat="36.94064" lon="-4.2148">
        <ele>451.716594</ele>
        <time>2022-09-02T19:15:03.624Z</time>
      </trkpt>
      <trkpt lat="36.94074" lon="-4.21461">
        <ele>451.100618</ele>
        <time>2022-09-02T19:15:06.825Z</time>
      </trkpt>
      <trkpt lat="36.94113" lon="-4.21432">
        <ele>449.540535</ele>
        <time>2022-09-02T19:15:15.221Z</time>
      </trkpt>
      <trkpt lat="36.94123" lon="-4.214">
        <ele>448.794316</ele>
        <time>2022-09-02T19:15:20.387Z</time>
      </trkpt>
      <trkpt lat="36.94139" lon="-4.21373">
        <ele>448.569319</ele>
        <time>2022-09-02T19:15:25.496Z</time>
      </trkpt>
      <trkpt lat="36.94147" lon="-4.21361">
        <ele>448.46368</ele>
        <time>2022-09-02T19:15:27.920Z</time>
      </trkpt>
      <trkpt lat="36.94164" lon="-4.21331">
        <ele>448.211264</ele>
        <time>2022-09-02T19:15:33.682Z</time>
      </trkpt>
      <trkpt lat="36.94204" lon="-4.21194">
        <ele>447.667965</ele>
        <time>2022-09-02T19:16:00.476Z</time>
      </trkpt>
      <trkpt lat="36.94209" lon="-4.21153">
        <ele>448.463599</ele>
        <time>2022-09-02T19:16:09.973Z</time>
      </trkpt>
      <trkpt lat="36.94217" lon="-4.21097">
        <ele>449.576657</ele>
        <time>2022-09-02T19:16:24.251Z</time>
      </trkpt>
      <trkpt lat="36.94199" lon="-4.21026">
        <ele>451.010524</ele>
        <time>2022-09-02T19:16:47.780Z</time>
      </trkpt>
      <trkpt lat="36.94193" lon="-4.21009">
        <ele>451.390433</ele>
        <time>2022-09-02T19:16:53.507Z</time>
      </trkpt>
      <trkpt lat="36.94185" lon="-4.20994">
        <ele>451.736601</ele>
        <time>2022-09-02T19:17:01.402Z</time>
      </trkpt>
      <trkpt lat="36.94163" lon="-4.20977">
        <ele>453.220329</ele>
        <time>2022-09-02T19:17:13.290Z</time>
      </trkpt>
      <trkpt lat="36.94159" lon="-4.20967">
        <ele>453.730189</ele>
        <time>2022-09-02T19:17:18.693Z</time>
      </trkpt>
      <trkpt lat="36.94159" lon="-4.20943">
        <ele>454.789834</ele>
        <time>2022-09-02T19:17:25.780Z</time>
      </trkpt>
      <trkpt lat="36.9415" lon="-4.20937">
        <ele>455.360633</ele>
        <time>2022-09-02T19:17:33.402Z</time>
      </trkpt>
      <trkpt lat="36.94128" lon="-4.20943">
        <ele>456.590821</ele>
        <time>2022-09-02T19:17:43.425Z</time>
      </trkpt>
      <trkpt lat="36.94125" lon="-4.20945">
        <ele>456.808884</ele>
        <time>2022-09-02T19:17:44.838Z</time>
      </trkpt>
      <trkpt lat="36.94104" lon="-4.20936">
        <ele>458.03938</ele>
        <time>2022-09-02T19:17:59.119Z</time>
      </trkpt>
      <trkpt lat="36.94085" lon="-4.20908">
        <ele>459.684783</ele>
        <time>2022-09-02T19:18:15.632Z</time>
      </trkpt>
      <trkpt lat="36.94015" lon="-4.20917">
        <ele>463.421101</ele>
        <time>2022-09-02T19:18:50.453Z</time>
      </trkpt>
      <trkpt lat="36.93971" lon="-4.20905">
        <ele>465.665273</ele>
        <time>2022-09-02T19:19:13.871Z</time>
      </trkpt>
      <trkpt lat="36.93949" lon="-4.20887">
        <ele>467.020533</ele>
        <time>2022-09-02T19:19:26.713Z</time>
      </trkpt>
      <trkpt lat="36.93926" lon="-4.20879">
        <ele>468.192849</ele>
        <time>2022-09-02T19:19:37.014Z</time>
      </trkpt>
      <trkpt lat="36.93892" lon="-4.20851">
        <ele>470.239634</ele>
        <time>2022-09-02T19:19:55.070Z</time>
      </trkpt>
      <trkpt lat="36.9387" lon="-4.20849">
        <ele>471.362062</ele>
        <time>2022-09-02T19:20:04.619Z</time>
      </trkpt>
      <trkpt lat="36.93855" lon="-4.2084">
        <ele>472.165408</ele>
        <time>2022-09-02T19:20:13.519Z</time>
      </trkpt>
      <trkpt lat="36.93827" lon="-4.20813">
        <ele>473.86609</ele>
        <time>2022-09-02T19:20:30.450Z</time>
      </trkpt>
      <trkpt lat="36.93766" lon="-4.20807">
        <ele>476.787253</ele>
        <time>2022-09-02T19:20:57.116Z</time>
      </trkpt>
      <trkpt lat="36.93746" lon="-4.20793">
        <ele>477.900509</ele>
        <time>2022-09-02T19:21:07.690Z</time>
      </trkpt>
      <trkpt lat="36.93705" lon="-4.20769">
        <ele>480.527898</ele>
        <time>2022-09-02T19:21:30.241Z</time>
      </trkpt>
      <trkpt lat="36.93693" lon="-4.20747">
        <ele>482.448459</ele>
        <time>2022-09-02T19:21:41.647Z</time>
      </trkpt>
      <trkpt lat="36.93683" lon="-4.20742">
        <ele>483.364108</ele>
        <time>2022-09-02T19:21:47.790Z</time>
      </trkpt>
      <trkpt lat="36.93668" lon="-4.20723">
        <ele>485.226809</ele>
        <time>2022-09-02T19:22:00.999Z</time>
      </trkpt>
      <trkpt lat="36.93658" lon="-4.20722">
        <ele>486.139962</ele>
        <time>2022-09-02T19:22:07.512Z</time>
      </trkpt>
      <trkpt lat="36.93632" lon="-4.20704">
        <ele>488.74618</ele>
        <time>2022-09-02T19:22:28.366Z</time>
      </trkpt>
      <trkpt lat="36.93616" lon="-4.20663">
        <ele>491.96924</ele>
        <time>2022-09-02T19:22:55.843Z</time>
      </trkpt>
      <trkpt lat="36.93587" lon="-4.20652">
        <ele>494.648522</ele>
        <time>2022-09-02T19:23:18.830Z</time>
      </trkpt>
      <trkpt lat="36.9354" lon="-4.20606">
        <ele>500.787658</ele>
        <time>2022-09-02T19:24:09.450Z</time>
      </trkpt>
      <trkpt lat="36.93476" lon="-4.20601">
        <ele>507.419367</ele>
        <time>2022-09-02T19:25:02.088Z</time>
      </trkpt>
      <trkpt lat="36.93462" lon="-4.20589">
        <ele>509.251047</ele>
        <time>2022-09-02T19:25:14.249Z</time>
      </trkpt>
      <trkpt lat="36.93442" lon="-4.20585">
        <ele>511.307465</ele>
        <time>2022-09-02T19:25:30.022Z</time>
      </trkpt>
      <trkpt lat="36.93436" lon="-4.20584">
        <ele>511.967938</ele>
        <time>2022-09-02T19:25:34.007Z</time>
      </trkpt>
      <trkpt lat="36.93368" lon="-4.2058">
        <ele>515.695561</ele>
        <time>2022-09-02T19:26:13.318Z</time>
      </trkpt>
      <trkpt lat="36.93328" lon="-4.20555">
        <ele>517.163355</ele>
        <time>2022-09-02T19:26:32.374Z</time>
      </trkpt>
      <trkpt lat="36.93314" lon="-4.20536">
        <ele>517.854435</ele>
        <time>2022-09-02T19:26:40.713Z</time>
      </trkpt>
      <trkpt lat="36.933" lon="-4.20468">
        <ele>519.738133</ele>
        <time>2022-09-02T19:26:54.221Z</time>
      </trkpt>
      <trkpt lat="36.93272" lon="-4.2039">
        <ele>518.783415</ele>
        <time>2022-09-02T19:27:08.098Z</time>
      </trkpt>
      <trkpt lat="36.93225" lon="-4.20327">
        <ele>517.222526</ele>
        <time>2022-09-02T19:27:21.098Z</time>
      </trkpt>
      <trkpt lat="36.93208" lon="-4.20297">
        <ele>516.559645</ele>
        <time>2022-09-02T19:27:26.318Z</time>
      </trkpt>
      <trkpt lat="36.9316" lon="-4.20272">
        <ele>515.470175</ele>
        <time>2022-09-02T19:27:35.187Z</time>
      </trkpt>
      <trkpt lat="36.93131" lon="-4.20244">
        <ele>514.733096</ele>
        <time>2022-09-02T19:27:41.664Z</time>
      </trkpt>
      <trkpt lat="36.93104" lon="-4.20232">
        <ele>514.14928</ele>
        <time>2022-09-02T19:27:47.318Z</time>
      </trkpt>
      <trkpt lat="36.93039" lon="-4.20172">
        <ele>512.529319</ele>
        <time>2022-09-02T19:28:04.024Z</time>
      </trkpt>
      <trkpt lat="36.93024" lon="-4.20158">
        <ele>512.594414</ele>
        <time>2022-09-02T19:28:08.341Z</time>
      </trkpt>
      <trkpt lat="36.93018" lon="-4.20142">
        <ele>512.77542</ele>
        <time>2022-09-02T19:28:11.127Z</time>
      </trkpt>
      <trkpt lat="36.93017" lon="-4.20107">
        <ele>513.135919</ele>
        <time>2022-09-02T19:28:17.517Z</time>
      </trkpt>
      <trkpt lat="36.93021" lon="-4.20085">
        <ele>513.367073</ele>
        <time>2022-09-02T19:28:22.167Z</time>
      </trkpt>
      <trkpt lat="36.92993" lon="-4.20058">
        <ele>513.823623</ele>
        <time>2022-09-02T19:28:33.019Z</time>
      </trkpt>
      <trkpt lat="36.92951" lon="-4.1994">
        <ele>515.698077</ele>
        <time>2022-09-02T19:29:11.831Z</time>
      </trkpt>
      <trkpt lat="36.92943" lon="-4.19901">
        <ele>516.657844</ele>
        <time>2022-09-02T19:29:24.024Z</time>
      </trkpt>
      <trkpt lat="36.92937" lon="-4.19877">
        <ele>517.257611</ele>
        <time>2022-09-02T19:29:32.499Z</time>
      </trkpt>
      <trkpt lat="36.92916" lon="-4.19853">
        <ele>518.117687</ele>
        <time>2022-09-02T19:29:44.154Z</time>
      </trkpt>
      <trkpt lat="36.92898" lon="-4.19797">
        <ele>519.547475</ele>
        <time>2022-09-02T19:30:02.022Z</time>
      </trkpt>
      <trkpt lat="36.92894" lon="-4.19765">
        <ele>520.331498</ele>
        <time>2022-09-02T19:30:12.203Z</time>
      </trkpt>
      <trkpt lat="36.92851" lon="-4.19684">
        <ele>522.785286</ele>
        <time>2022-09-02T19:30:48.744Z</time>
      </trkpt>
      <trkpt lat="36.92816" lon="-4.19634">
        <ele>524.48039</ele>
        <time>2022-09-02T19:31:17.882Z</time>
      </trkpt>
      <trkpt lat="36.9278" lon="-4.19572">
        <ele>526.744964</ele>
        <time>2022-09-02T19:31:54.085Z</time>
      </trkpt>
      <trkpt lat="36.92773" lon="-4.19546">
        <ele>527.764618</ele>
        <time>2022-09-02T19:32:06.134Z</time>
      </trkpt>
      <trkpt lat="36.92805" lon="-4.19491">
        <ele>530.364163</ele>
        <time>2022-09-02T19:32:30.547Z</time>
      </trkpt>
      <trkpt lat="36.92825" lon="-4.19414">
        <ele>533.467284</ele>
        <time>2022-09-02T19:33:01.573Z</time>
      </trkpt>
      <trkpt lat="36.92821" lon="-4.19397">
        <ele>534.110896</ele>
        <time>2022-09-02T19:33:08.471Z</time>
      </trkpt>
      <trkpt lat="36.9279" lon="-4.1935">
        <ele>537.02815</ele>
        <time>2022-09-02T19:33:35.803Z</time>
      </trkpt>
      <trkpt lat="36.92787" lon="-4.19345">
        <ele>537.327285</ele>
        <time>2022-09-02T19:33:38.575Z</time>
      </trkpt>
      <trkpt lat="36.92771" lon="-4.19323">
        <ele>538.760854</ele>
        <time>2022-09-02T19:33:51.956Z</time>
      </trkpt>
      <trkpt lat="36.92771" lon="-4.19309">
        <ele>539.414927</ele>
        <time>2022-09-02T19:33:58.410Z</time>
      </trkpt>
      <trkpt lat="36.92771" lon="-4.19272">
        <ele>541.210499</ele>
        <time>2022-09-02T19:34:15.502Z</time>
      </trkpt>
      <trkpt lat="36.92771" lon="-4.19249">
        <ele>542.328507</ele>
        <time>2022-09-02T19:34:25.958Z</time>
      </trkpt>
      <trkpt lat="36.92794" lon="-4.19221">
        <ele>544.286032</ele>
        <time>2022-09-02T19:34:41.917Z</time>
      </trkpt>
      <trkpt lat="36.92789" lon="-4.19201">
        <ele>545.297038</ele>
        <time>2022-09-02T19:34:49.767Z</time>
      </trkpt>
      <trkpt lat="36.92803" lon="-4.1919">
        <ele>546.050587</ele>
        <time>2022-09-02T19:34:57.976Z</time>
      </trkpt>
      <trkpt lat="36.9281" lon="-4.19165">
        <ele>547.018454</ele>
        <time>2022-09-02T19:35:07.752Z</time>
      </trkpt>
      <trkpt lat="36.9281" lon="-4.19145">
        <ele>547.751046</ele>
        <time>2022-09-02T19:35:15.782Z</time>
      </trkpt>
      <trkpt lat="36.92806" lon="-4.19123">
        <ele>548.576039</ele>
        <time>2022-09-02T19:35:24.101Z</time>
      </trkpt>
      <trkpt lat="36.92809" lon="-4.19102">
        <ele>549.366663</ele>
        <time>2022-09-02T19:35:32.356Z</time>
      </trkpt>
      <trkpt lat="36.92808" lon="-4.19095">
        <ele>549.638399</ele>
        <time>2022-09-02T19:35:35.279Z</time>
      </trkpt>
      <trkpt lat="36.92799" lon="-4.19091">
        <ele>550.100602</ele>
        <time>2022-09-02T19:35:39.695Z</time>
      </trkpt>
      <trkpt lat="36.92789" lon="-4.19089">
        <ele>550.531159</ele>
        <time>2022-09-02T19:35:43.792Z</time>
      </trkpt>
      <trkpt lat="36.92776" lon="-4.19074">
        <ele>551.382536</ele>
        <time>2022-09-02T19:35:53.042Z</time>
      </trkpt>
      <trkpt lat="36.92758" lon="-4.19053">
        <ele>552.510153</ele>
        <time>2022-09-02T19:36:03.792Z</time>
      </trkpt>
      <trkpt lat="36.92747" lon="-4.19036">
        <ele>553.313017</ele>
        <time>2022-09-02T19:36:11.688Z</time>
      </trkpt>
      <trkpt lat="36.92719" lon="-4.19001">
        <ele>554.691257</ele>
        <time>2022-09-02T19:36:27.410Z</time>
      </trkpt>
      <trkpt lat="36.92695" lon="-4.18938">
        <ele>556.53896</ele>
        <time>2022-09-02T19:36:46.644Z</time>
      </trkpt>
      <trkpt lat="36.9269" lon="-4.18922">
        <ele>557.003775</ele>
        <time>2022-09-02T19:36:51.836Z</time>
      </trkpt>
      <trkpt lat="36.92681" lon="-4.1887">
        <ele>558.422272</ele>
        <time>2022-09-02T19:37:08.573Z</time>
      </trkpt>
      <trkpt lat="36.92676" lon="-4.18844">
        <ele>559.137259</ele>
        <time>2022-09-02T19:37:17.746Z</time>
      </trkpt>
      <trkpt lat="36.92677" lon="-4.18819">
        <ele>559.761422</ele>
        <time>2022-09-02T19:37:28.705Z</time>
      </trkpt>
      <trkpt lat="36.92686" lon="-4.18666">
        <ele>563.021688</ele>
        <time>2022-09-02T19:38:17.930Z</time>
      </trkpt>
      <trkpt lat="36.9269" lon="-4.18656">
        <ele>563.259207</ele>
        <time>2022-09-02T19:38:21.509Z</time>
      </trkpt>
      <trkpt lat="36.92686" lon="-4.18648">
        <ele>563.463384</ele>
        <time>2022-09-02T19:38:24.129Z</time>
      </trkpt>
      <trkpt lat="36.92691" lon="-4.18637">
        <ele>563.729011</ele>
        <time>2022-09-02T19:38:27.828Z</time>
      </trkpt>
      <trkpt lat="36.92689" lon="-4.18621">
        <ele>564.078297</ele>
        <time>2022-09-02T19:38:30.616Z</time>
      </trkpt>
      <trkpt lat="36.92673" lon="-4.18594">
        <ele>563.763196</ele>
        <time>2022-09-02T19:38:37.402Z</time>
      </trkpt>
      <trkpt lat="36.92665" lon="-4.18581">
        <ele>563.336003</ele>
        <time>2022-09-02T19:38:39.713Z</time>
      </trkpt>
      <trkpt lat="36.92625" lon="-4.18553">
        <ele>561.869777</ele>
        <time>2022-09-02T19:38:47.792Z</time>
      </trkpt>
      <trkpt lat="36.92612" lon="-4.18538">
        <ele>561.308455</ele>
        <time>2022-09-02T19:38:50.598Z</time>
      </trkpt>
      <trkpt lat="36.92593" lon="-4.18501">
        <ele>560.184411</ele>
        <time>2022-09-02T19:38:56.292Z</time>
      </trkpt>
      <trkpt lat="36.92578" lon="-4.1845">
        <ele>558.788765</ele>
        <time>2022-09-02T19:39:02.838Z</time>
      </trkpt>
      <trkpt lat="36.92576" lon="-4.18443">
        <ele>558.57901</ele>
        <time>2022-09-02T19:39:03.859Z</time>
      </trkpt>
      <trkpt lat="36.92565" lon="-4.18419">
        <ele>557.799156</ele>
        <time>2022-09-02T19:39:07.562Z</time>
      </trkpt>
      <trkpt lat="36.92526" lon="-4.18377">
        <ele>555.998895</ele>
        <time>2022-09-02T19:39:16.193Z</time>
      </trkpt>
      <trkpt lat="36.9252" lon="-4.18363">
        <ele>555.544451</ele>
        <time>2022-09-02T19:39:18.598Z</time>
      </trkpt>
      <trkpt lat="36.92519" lon="-4.18271">
        <ele>552.923769</ele>
        <time>2022-09-02T19:39:30.937Z</time>
      </trkpt>
      <trkpt lat="36.92502" lon="-4.18162">
        <ele>549.996299</ele>
        <time>2022-09-02T19:39:46.889Z</time>
      </trkpt>
      <trkpt lat="36.92476" lon="-4.18101">
        <ele>548.241647</ele>
        <time>2022-09-02T19:39:56.165Z</time>
      </trkpt>
      <trkpt lat="36.92468" lon="-4.18036">
        <ele>546.551831</ele>
        <time>2022-09-02T19:40:05.047Z</time>
      </trkpt>
      <trkpt lat="36.92474" lon="-4.17925">
        <ele>543.744477</ele>
        <time>2022-09-02T19:40:19.524Z</time>
      </trkpt>
      <trkpt lat="36.9245" lon="-4.17861">
        <ele>541.964873</ele>
        <time>2022-09-02T19:40:29.749Z</time>
      </trkpt>
      <trkpt lat="36.9243" lon="-4.17769">
        <ele>538.838987</ele>
        <time>2022-09-02T19:40:43.591Z</time>
      </trkpt>
      <trkpt lat="36.92411" lon="-4.17735">
        <ele>537.181399</ele>
        <time>2022-09-02T19:40:49.578Z</time>
      </trkpt>
      <trkpt lat="36.92395" lon="-4.17729">
        <ele>536.367746</ele>
        <time>2022-09-02T19:40:52.226Z</time>
      </trkpt>
      <trkpt lat="36.92321" lon="-4.17721">
        <ele>532.594197</ele>
        <time>2022-09-02T19:41:03.759Z</time>
      </trkpt>
      <trkpt lat="36.92267" lon="-4.17729">
        <ele>527.496443</ele>
        <time>2022-09-02T19:41:11.514Z</time>
      </trkpt>
      <trkpt lat="36.9223" lon="-4.17725">
        <ele>523.135192</ele>
        <time>2022-09-02T19:41:16.672Z</time>
      </trkpt>
      <trkpt lat="36.92104" lon="-4.17787">
        <ele>507.462499</ele>
        <time>2022-09-02T19:41:35.226Z</time>
      </trkpt>
      <trkpt lat="36.92044" lon="-4.17877">
        <ele>496.704226</ele>
        <time>2022-09-02T19:41:48.007Z</time>
      </trkpt>
      <trkpt lat="36.92027" lon="-4.17886">
        <ele>494.593687</ele>
        <time>2022-09-02T19:41:50.609Z</time>
      </trkpt>
      <trkpt lat="36.91993" lon="-4.17882">
        <ele>490.645675</ele>
        <time>2022-09-02T19:41:55.578Z</time>
      </trkpt>
      <trkpt lat="36.91951" lon="-4.17859">
        <ele>487.251249</ele>
        <time>2022-09-02T19:42:02.478Z</time>
      </trkpt>
      <trkpt lat="36.9194" lon="-4.17844">
        <ele>486.149719</ele>
        <time>2022-09-02T19:42:04.851Z</time>
      </trkpt>
      <trkpt lat="36.9194" lon="-4.17828">
        <ele>485.238926</ele>
        <time>2022-09-02T19:42:06.907Z</time>
      </trkpt>
      <trkpt lat="36.91957" lon="-4.1779">
        <ele>482.81995</ele>
        <time>2022-09-02T19:42:12.170Z</time>
      </trkpt>
      <trkpt lat="36.92009" lon="-4.17702">
        <ele>477.040546</ele>
        <time>2022-09-02T19:42:25.262Z</time>
      </trkpt>
      <trkpt lat="36.92034" lon="-4.17641">
        <ele>474.314087</ele>
        <time>2022-09-02T19:42:34.379Z</time>
      </trkpt>
      <trkpt lat="36.92036" lon="-4.17608">
        <ele>472.997271</ele>
        <time>2022-09-02T19:42:38.721Z</time>
      </trkpt>
      <trkpt lat="36.92025" lon="-4.1758">
        <ele>471.761766</ele>
        <time>2022-09-02T19:42:42.670Z</time>
      </trkpt>
      <trkpt lat="36.91985" lon="-4.17526">
        <ele>468.804238</ele>
        <time>2022-09-02T19:42:51.950Z</time>
      </trkpt>
      <trkpt lat="36.91973" lon="-4.17497">
        <ele>467.618611</ele>
        <time>2022-09-02T19:42:56.035Z</time>
      </trkpt>
      <trkpt lat="36.91937" lon="-4.17366">
        <ele>462.59324</ele>
        <time>2022-09-02T19:43:14.205Z</time>
      </trkpt>
      <trkpt lat="36.91922" lon="-4.1729">
        <ele>459.670393</ele>
        <time>2022-09-02T19:43:24.226Z</time>
      </trkpt>
      <trkpt lat="36.91925" lon="-4.17227">
        <ele>457.128579</ele>
        <time>2022-09-02T19:43:32.348Z</time>
      </trkpt>
      <trkpt lat="36.91919" lon="-4.17214">
        <ele>456.526709</ele>
        <time>2022-09-02T19:43:34.300Z</time>
      </trkpt>
      <trkpt lat="36.91907" lon="-4.17208">
        <ele>455.872065</ele>
        <time>2022-09-02T19:43:36.649Z</time>
      </trkpt>
      <trkpt lat="36.91904" lon="-4.17208">
        <ele>455.746052</ele>
        <time>2022-09-02T19:43:37.083Z</time>
      </trkpt>
      <trkpt lat="36.9189" lon="-4.17209">
        <ele>455.050471</ele>
        <time>2022-09-02T19:43:39.178Z</time>
      </trkpt>
      <trkpt lat="36.91845" lon="-4.17257">
        <ele>452.063867</ele>
        <time>2022-09-02T19:43:48.863Z</time>
      </trkpt>
      <trkpt lat="36.91813" lon="-4.17281">
        <ele>449.135233</ele>
        <time>2022-09-02T19:43:54.473Z</time>
      </trkpt>
      <trkpt lat="36.91781" lon="-4.17291">
        <ele>446.192774</ele>
        <time>2022-09-02T19:43:59.193Z</time>
      </trkpt>
      <trkpt lat="36.91736" lon="-4.17295">
        <ele>442.117205</ele>
        <time>2022-09-02T19:44:05.606Z</time>
      </trkpt>
      <trkpt lat="36.91698" lon="-4.17288">
        <ele>438.67426</ele>
        <time>2022-09-02T19:44:11.070Z</time>
      </trkpt>
      <trkpt lat="36.91645" lon="-4.17265">
        <ele>433.689353</ele>
        <time>2022-09-02T19:44:19.012Z</time>
      </trkpt>
      <trkpt lat="36.91602" lon="-4.17236">
        <ele>429.40726</ele>
        <time>2022-09-02T19:44:25.950Z</time>
      </trkpt>
      <trkpt lat="36.91578" lon="-4.17203">
        <ele>426.238755</ele>
        <time>2022-09-02T19:44:31.093Z</time>
      </trkpt>
      <trkpt lat="36.9155" lon="-4.17121">
        <ele>420.016997</ele>
        <time>2022-09-02T19:44:41.468Z</time>
      </trkpt>
      <trkpt lat="36.9154" lon="-4.17108">
        <ele>418.854308</ele>
        <time>2022-09-02T19:44:43.677Z</time>
      </trkpt>
      <trkpt lat="36.9151" lon="-4.17088">
        <ele>416.329234</ele>
        <time>2022-09-02T19:44:48.830Z</time>
      </trkpt>
      <trkpt lat="36.91491" lon="-4.17045">
        <ele>413.42792</ele>
        <time>2022-09-02T19:44:54.843Z</time>
      </trkpt>
      <trkpt lat="36.91478" lon="-4.1703">
        <ele>412.088266</ele>
        <time>2022-09-02T19:44:57.639Z</time>
      </trkpt>
      <trkpt lat="36.91413" lon="-4.17043">
        <ele>407.2426</ele>
        <time>2022-09-02T19:45:07.420Z</time>
      </trkpt>
      <trkpt lat="36.91292" lon="-4.17015">
        <ele>395.309821</ele>
        <time>2022-09-02T19:45:24.848Z</time>
      </trkpt>
      <trkpt lat="36.91255" lon="-4.17026">
        <ele>391.610008</ele>
        <time>2022-09-02T19:45:30.142Z</time>
      </trkpt>
      <trkpt lat="36.91244" lon="-4.17029">
        <ele>390.480367</ele>
        <time>2022-09-02T19:45:31.789Z</time>
      </trkpt>
      <trkpt lat="36.91234" lon="-4.17032">
        <ele>389.445344</ele>
        <time>2022-09-02T19:45:33.211Z</time>
      </trkpt>
      <trkpt lat="36.91209" lon="-4.17028">
        <ele>387.083725</ele>
        <time>2022-09-02T19:45:36.940Z</time>
      </trkpt>
      <trkpt lat="36.91192" lon="-4.1701">
        <ele>385.250576</ele>
        <time>2022-09-02T19:45:39.968Z</time>
      </trkpt>
      <trkpt lat="36.91181" lon="-4.16988">
        <ele>383.457867</ele>
        <time>2022-09-02T19:45:42.938Z</time>
      </trkpt>
      <trkpt lat="36.91165" lon="-4.16925">
        <ele>378.94365</ele>
        <time>2022-09-02T19:45:50.502Z</time>
      </trkpt>
      <trkpt lat="36.91141" lon="-4.16875">
        <ele>374.967828</ele>
        <time>2022-09-02T19:45:57.522Z</time>
      </trkpt>
      <trkpt lat="36.91118" lon="-4.16784">
        <ele>369.487366</ele>
        <time>2022-09-02T19:46:09.397Z</time>
      </trkpt>
      <trkpt lat="36.91094" lon="-4.16739">
        <ele>366.682564</ele>
        <time>2022-09-02T19:46:15.800Z</time>
      </trkpt>
      <trkpt lat="36.91049" lon="-4.16629">
        <ele>359.961646</ele>
        <time>2022-09-02T19:46:30.846Z</time>
      </trkpt>
      <trkpt lat="36.91037" lon="-4.16623">
        <ele>358.864802</ele>
        <time>2022-09-02T19:46:32.774Z</time>
      </trkpt>
      <trkpt lat="36.90975" lon="-4.16623">
        <ele>353.783171</ele>
        <time>2022-09-02T19:46:42.050Z</time>
      </trkpt>
      <trkpt lat="36.90942" lon="-4.16603">
        <ele>350.855027</ele>
        <time>2022-09-02T19:46:47.206Z</time>
      </trkpt>
      <trkpt lat="36.90843" lon="-4.1654">
        <ele>341.203471</ele>
        <time>2022-09-02T19:47:03.328Z</time>
      </trkpt>
      <trkpt lat="36.90822" lon="-4.16539">
        <ele>339.372272</ele>
        <time>2022-09-02T19:47:06.307Z</time>
      </trkpt>
      <trkpt lat="36.90811" lon="-4.16552">
        <ele>337.982177</ele>
        <time>2022-09-02T19:47:08.361Z</time>
      </trkpt>
      <trkpt lat="36.90769" lon="-4.16696">
        <ele>327.73115</ele>
        <time>2022-09-02T19:47:26.290Z</time>
      </trkpt>
      <trkpt lat="36.9076" lon="-4.16702">
        <ele>327.075996</ele>
        <time>2022-09-02T19:47:27.687Z</time>
      </trkpt>
      <trkpt lat="36.90748" lon="-4.16704">
        <ele>326.259941</ele>
        <time>2022-09-02T19:47:29.382Z</time>
      </trkpt>
      <trkpt lat="36.90697" lon="-4.16672">
        <ele>322.384866</ele>
        <time>2022-09-02T19:47:38.445Z</time>
      </trkpt>
      <trkpt lat="36.90675" lon="-4.16638">
        <ele>320.036215</ele>
        <time>2022-09-02T19:47:43.866Z</time>
      </trkpt>
      <trkpt lat="36.90657" lon="-4.16626">
        <ele>318.667925</ele>
        <time>2022-09-02T19:47:46.943Z</time>
      </trkpt>
      <trkpt lat="36.90533" lon="-4.16577">
        <ele>311.549769</ele>
        <time>2022-09-02T19:48:07.183Z</time>
      </trkpt>
      <trkpt lat="36.9052" lon="-4.16562">
        <ele>310.564988</ele>
        <time>2022-09-02T19:48:10.035Z</time>
      </trkpt>
      <trkpt lat="36.90508" lon="-4.16518">
        <ele>308.513908</ele>
        <time>2022-09-02T19:48:16.017Z</time>
      </trkpt>
      <trkpt lat="36.90483" lon="-4.16473">
        <ele>306.159199</ele>
        <time>2022-09-02T19:48:22.780Z</time>
      </trkpt>
      <trkpt lat="36.90464" lon="-4.16463">
        <ele>305.063141</ele>
        <time>2022-09-02T19:48:25.961Z</time>
      </trkpt>
      <trkpt lat="36.90379" lon="-4.16459">
        <ele>300.441383</ele>
        <time>2022-09-02T19:48:39.063Z</time>
      </trkpt>
      <trkpt lat="36.90282" lon="-4.16392">
        <ele>295.388708</ele>
        <time>2022-09-02T19:48:57.006Z</time>
      </trkpt>
      <trkpt lat="36.90252" lon="-4.16387">
        <ele>294.118863</ele>
        <time>2022-09-02T19:49:02.047Z</time>
      </trkpt>
      <trkpt lat="36.90232" lon="-4.16366">
        <ele>293.033742</ele>
        <time>2022-09-02T19:49:06.318Z</time>
      </trkpt>
      <trkpt lat="36.90211" lon="-4.16355">
        <ele>292.09528</ele>
        <time>2022-09-02T19:49:09.961Z</time>
      </trkpt>
      <trkpt lat="36.90162" lon="-4.16362">
        <ele>290.153512</ele>
        <time>2022-09-02T19:49:18.453Z</time>
      </trkpt>
      <trkpt lat="36.90144" lon="-4.16359">
        <ele>289.513264</ele>
        <time>2022-09-02T19:49:21.427Z</time>
      </trkpt>
      <trkpt lat="36.90125" lon="-4.16347">
        <ele>288.73517</ele>
        <time>2022-09-02T19:49:25.139Z</time>
      </trkpt>
      <trkpt lat="36.9009" lon="-4.16285">
        <ele>286.55476</ele>
        <time>2022-09-02T19:49:35.366Z</time>
      </trkpt>
      <trkpt lat="36.9005" lon="-4.16243">
        <ele>284.670102</ele>
        <time>2022-09-02T19:49:44.229Z</time>
      </trkpt>
      <trkpt lat="36.90034" lon="-4.16182">
        <ele>282.498984</ele>
        <time>2022-09-02T19:49:52.558Z</time>
      </trkpt>
      <trkpt lat="36.90015" lon="-4.1616">
        <ele>281.39608</ele>
        <time>2022-09-02T19:49:56.769Z</time>
      </trkpt>
      <trkpt lat="36.89967" lon="-4.16076">
        <ele>277.914466</ele>
        <time>2022-09-02T19:50:09.955Z</time>
      </trkpt>
      <trkpt lat="36.89948" lon="-4.16057">
        <ele>276.879678</ele>
        <time>2022-09-02T19:50:14.040Z</time>
      </trkpt>
      <trkpt lat="36.89912" lon="-4.16049">
        <ele>275.488444</ele>
        <time>2022-09-02T19:50:20.303Z</time>
      </trkpt>
      <trkpt lat="36.8989" lon="-4.16045">
        <ele>274.685467</ele>
        <time>2022-09-02T19:50:23.881Z</time>
      </trkpt>
      <trkpt lat="36.89872" lon="-4.16035">
        <ele>273.940565</ele>
        <time>2022-09-02T19:50:27.190Z</time>
      </trkpt>
      <trkpt lat="36.89837" lon="-4.15985">
        <ele>271.958529</ele>
        <time>2022-09-02T19:50:36.014Z</time>
      </trkpt>
      <trkpt lat="36.89781" lon="-4.15944">
        <ele>269.706132</ele>
        <time>2022-09-02T19:50:46.864Z</time>
      </trkpt>
      <trkpt lat="36.89702" lon="-4.15855">
        <ele>266.704462</ele>
        <time>2022-09-02T19:51:05.491Z</time>
      </trkpt>
      <trkpt lat="36.89671" lon="-4.15805">
        <ele>265.274216</ele>
        <time>2022-09-02T19:51:14.407Z</time>
      </trkpt>
      <trkpt lat="36.89654" lon="-4.15786">
        <ele>264.787267</ele>
        <time>2022-09-02T19:51:18.486Z</time>
      </trkpt>
      <trkpt lat="36.89537" lon="-4.15732">
        <ele>262.29504</ele>
        <time>2022-09-02T19:51:41.330Z</time>
      </trkpt>
      <trkpt lat="36.89514" lon="-4.15697">
        <ele>261.537624</ele>
        <time>2022-09-02T19:51:48.374Z</time>
      </trkpt>
      <trkpt lat="36.89493" lon="-4.1561">
        <ele>259.064261</ele>
        <time>2022-09-02T19:52:01.808Z</time>
      </trkpt>
      <trkpt lat="36.89479" lon="-4.15583">
        <ele>258.192999</ele>
        <time>2022-09-02T19:52:06.292Z</time>
      </trkpt>
      <trkpt lat="36.89434" lon="-4.1554">
        <ele>256.290116</ele>
        <time>2022-09-02T19:52:15.501Z</time>
      </trkpt>
      <trkpt lat="36.89393" lon="-4.15462">
        <ele>252.346478</ele>
        <time>2022-09-02T19:52:26.968Z</time>
      </trkpt>
      <trkpt lat="36.89321" lon="-4.15314">
        <ele>244.015856</ele>
        <time>2022-09-02T19:52:47.950Z</time>
      </trkpt>
      <trkpt lat="36.8932" lon="-4.15287">
        <ele>243.399967</ele>
        <time>2022-09-02T19:52:51.302Z</time>
      </trkpt>
      <trkpt lat="36.89332" lon="-4.15247">
        <ele>242.396907</ele>
        <time>2022-09-02T19:52:56.820Z</time>
      </trkpt>
      <trkpt lat="36.8934" lon="-4.15235">
        <ele>242.005059</ele>
        <time>2022-09-02T19:52:58.961Z</time>
      </trkpt>
      <trkpt lat="36.89384" lon="-4.15221">
        <ele>240.684956</ele>
        <time>2022-09-02T19:53:07.113Z</time>
      </trkpt>
      <trkpt lat="36.89392" lon="-4.15208">
        <ele>240.297261</ele>
        <time>2022-09-02T19:53:09.721Z</time>
      </trkpt>
      <trkpt lat="36.89393" lon="-4.15181">
        <ele>239.680793</ele>
        <time>2022-09-02T19:53:13.843Z</time>
      </trkpt>
      <trkpt lat="36.89378" lon="-4.1514">
        <ele>239.216837</ele>
        <time>2022-09-02T19:53:22.063Z</time>
      </trkpt>
      <trkpt lat="36.8935" lon="-4.1509">
        <ele>239.889812</ele>
        <time>2022-09-02T19:53:35.611Z</time>
      </trkpt>
      <trkpt lat="36.89342" lon="-4.15052">
        <ele>240.312412</ele>
        <time>2022-09-02T19:53:46.162Z</time>
      </trkpt>
      <trkpt lat="36.89301" lon="-4.15022">
        <ele>240.964206</ele>
        <time>2022-09-02T19:54:01.706Z</time>
      </trkpt>
      <trkpt lat="36.89276" lon="-4.14994">
        <ele>241.427522</ele>
        <time>2022-09-02T19:54:12.165Z</time>
      </trkpt>
      <trkpt lat="36.89242" lon="-4.14979">
        <ele>241.905856</ele>
        <time>2022-09-02T19:54:23.019Z</time>
      </trkpt>
      <trkpt lat="36.8922" lon="-4.14959">
        <ele>242.253002</ele>
        <time>2022-09-02T19:54:30.680Z</time>
      </trkpt>
      <trkpt lat="36.89208" lon="-4.14939">
        <ele>242.51166</ele>
        <time>2022-09-02T19:54:36.672Z</time>
      </trkpt>
      <trkpt lat="36.892" lon="-4.14876">
        <ele>243.19026</ele>
        <time>2022-09-02T19:54:52.427Z</time>
      </trkpt>
      <trkpt lat="36.8919" lon="-4.14858">
        <ele>243.419664</ele>
        <time>2022-09-02T19:54:57.848Z</time>
      </trkpt>
      <trkpt lat="36.89137" lon="-4.1483">
        <ele>243.521074</ele>
        <time>2022-09-02T19:55:12.315Z</time>
      </trkpt>
      <trkpt lat="36.89084" lon="-4.14768">
        <ele>242.552198</ele>
        <time>2022-09-02T19:55:27.547Z</time>
      </trkpt>
      <trkpt lat="36.89072" lon="-4.14753">
        <ele>242.323252</ele>
        <time>2022-09-02T19:55:30.950Z</time>
      </trkpt>
      <trkpt lat="36.89053" lon="-4.14754">
        <ele>242.074612</ele>
        <time>2022-09-02T19:55:34.374Z</time>
      </trkpt>
      <trkpt lat="36.89003" lon="-4.14716">
        <ele>240.806142</ele>
        <time>2022-09-02T19:55:45.022Z</time>
      </trkpt>
      <trkpt lat="36.88947" lon="-4.1468">
        <ele>237.506872</ele>
        <time>2022-09-02T19:55:55.512Z</time>
      </trkpt>
      <trkpt lat="36.88921" lon="-4.14676">
        <ele>236.079629</ele>
        <time>2022-09-02T19:55:59.881Z</time>
      </trkpt>
      <trkpt lat="36.88828" lon="-4.14692">
        <ele>231.048804</ele>
        <time>2022-09-02T19:56:14.877Z</time>
      </trkpt>
      <trkpt lat="36.88827" lon="-4.14679">
        <ele>230.425969</ele>
        <time>2022-09-02T19:56:17.825Z</time>
      </trkpt>
      <trkpt lat="36.8881" lon="-4.14682">
        <ele>229.37001</ele>
        <time>2022-09-02T19:56:20.534Z</time>
      </trkpt>
      <trkpt lat="36.88697" lon="-4.14701">
        <ele>222.672348</ele>
        <time>2022-09-02T19:56:37.971Z</time>
      </trkpt>
      <trkpt lat="36.88654" lon="-4.14706">
        <ele>221.206734</ele>
        <time>2022-09-02T19:56:44.774Z</time>
      </trkpt>
      <trkpt lat="36.88624" lon="-4.1471">
        <ele>220.981778</ele>
        <time>2022-09-02T19:56:49.784Z</time>
      </trkpt>
      <trkpt lat="36.88611" lon="-4.14673">
        <ele>220.738585</ele>
        <time>2022-09-02T19:56:55.619Z</time>
      </trkpt>
      <trkpt lat="36.88587" lon="-4.14636">
        <ele>220.45728</ele>
        <time>2022-09-02T19:57:04.621Z</time>
      </trkpt>
      <trkpt lat="36.88568" lon="-4.14606">
        <ele>220.227501</ele>
        <time>2022-09-02T19:57:15.369Z</time>
      </trkpt>
      <trkpt lat="36.88527" lon="-4.14539">
        <ele>221.449585</ele>
        <time>2022-09-02T19:57:41.999Z</time>
      </trkpt>
      <trkpt lat="36.88515" lon="-4.1452">
        <ele>222.136302</ele>
        <time>2022-09-02T19:57:50.532Z</time>
      </trkpt>
      <trkpt lat="36.88497" lon="-4.14491">
        <ele>223.20344</ele>
        <time>2022-09-02T19:58:03.478Z</time>
      </trkpt>
      <trkpt lat="36.88465" lon="-4.14467">
        <ele>224.522894</ele>
        <time>2022-09-02T19:58:19.558Z</time>
      </trkpt>
      <trkpt lat="36.8838" lon="-4.145">
        <ele>226.296291</ele>
        <time>2022-09-02T19:58:54.613Z</time>
      </trkpt>
      <trkpt lat="36.8835" lon="-4.14501">
        <ele>226.154793</ele>
        <time>2022-09-02T19:59:03.308Z</time>
      </trkpt>
      <trkpt lat="36.883" lon="-4.14483">
        <ele>225.907351</ele>
        <time>2022-09-02T19:59:13.132Z</time>
      </trkpt>
      <trkpt lat="36.88208" lon="-4.14445">
        <ele>225.255923</ele>
        <time>2022-09-02T19:59:29.754Z</time>
      </trkpt>
      <trkpt lat="36.88151" lon="-4.14417">
        <ele>224.607368</ele>
        <time>2022-09-02T19:59:40.976Z</time>
      </trkpt>
      <trkpt lat="36.88092" lon="-4.14445">
        <ele>223.946196</ele>
        <time>2022-09-02T19:59:54.101Z</time>
      </trkpt>
      <trkpt lat="36.88073" lon="-4.14446">
        <ele>223.750365</ele>
        <time>2022-09-02T19:59:58.453Z</time>
      </trkpt>
      <trkpt lat="36.87694" lon="-4.14468">
        <ele>235.597269</ele>
        <time>2022-09-02T20:02:30.532Z</time>
      </trkpt>
      <trkpt lat="36.87523" lon="-4.14475">
        <ele>237.512802</ele>
        <time>2022-09-02T20:03:16.644Z</time>
      </trkpt>
      <trkpt lat="36.87322" lon="-4.14482">
        <ele>235.841653</ele>
        <time>2022-09-02T20:03:56.813Z</time>
      </trkpt>
      <trkpt lat="36.87253" lon="-4.14518">
        <ele>234.53394</ele>
        <time>2022-09-02T20:04:11.389Z</time>
      </trkpt>
      <trkpt lat="36.87233" lon="-4.14529">
        <ele>234.156037</ele>
        <time>2022-09-02T20:04:15.445Z</time>
      </trkpt>
      <trkpt lat="36.87189" lon="-4.14551">
        <ele>233.337226</ele>
        <time>2022-09-02T20:04:23.889Z</time>
      </trkpt>
      <trkpt lat="36.87137" lon="-4.14575">
        <ele>231.168016</ele>
        <time>2022-09-02T20:04:33.343Z</time>
      </trkpt>
      <trkpt lat="36.86937" lon="-4.14625">
        <ele>222.413025</ele>
        <time>2022-09-02T20:05:05.882Z</time>
      </trkpt>
      <trkpt lat="36.86815" lon="-4.14625">
        <ele>217.11052</ele>
        <time>2022-09-02T20:05:25.907Z</time>
      </trkpt>
      <trkpt lat="36.86796" lon="-4.14616">
        <ele>216.394542</ele>
        <time>2022-09-02T20:05:29.336Z</time>
      </trkpt>
      <trkpt lat="36.86741" lon="-4.14568">
        <ele>214.001028</ele>
        <time>2022-09-02T20:05:40.899Z</time>
      </trkpt>
      <trkpt lat="36.86729" lon="-4.1457">
        <ele>213.57369</ele>
        <time>2022-09-02T20:05:42.956Z</time>
      </trkpt>
      <trkpt lat="36.86713" lon="-4.14541">
        <ele>212.56854</ele>
        <time>2022-09-02T20:05:47.945Z</time>
      </trkpt>
      <trkpt lat="36.86693" lon="-4.14449">
        <ele>208.677196</ele>
        <time>2022-09-02T20:06:01.560Z</time>
      </trkpt>
      <trkpt lat="36.86648" lon="-4.14384">
        <ele>204.291574</ele>
        <time>2022-09-02T20:06:12.756Z</time>
      </trkpt>
      <trkpt lat="36.8661" lon="-4.14324">
        <ele>200.378521</ele>
        <time>2022-09-02T20:06:22.137Z</time>
      </trkpt>
      <trkpt lat="36.86595" lon="-4.14321">
        <ele>199.194058</ele>
        <time>2022-09-02T20:06:24.331Z</time>
      </trkpt>
      <trkpt lat="36.86586" lon="-4.14299">
        <ele>197.065993</ele>
        <time>2022-09-02T20:06:27.377Z</time>
      </trkpt>
      <trkpt lat="36.86566" lon="-4.14255">
        <ele>192.755505</ele>
        <time>2022-09-02T20:06:33.300Z</time>
      </trkpt>
      <trkpt lat="36.8656" lon="-4.14239">
        <ele>191.248935</ele>
        <time>2022-09-02T20:06:35.302Z</time>
      </trkpt>
      <trkpt lat="36.8657" lon="-4.14192">
        <ele>187.107403</ele>
        <time>2022-09-02T20:06:41.047Z</time>
      </trkpt>
      <trkpt lat="36.86556" lon="-4.14167">
        <ele>184.473322</ele>
        <time>2022-09-02T20:06:44.700Z</time>
      </trkpt>
      <trkpt lat="36.86538" lon="-4.14154">
        <ele>182.265431</ele>
        <time>2022-09-02T20:06:47.808Z</time>
      </trkpt>
      <trkpt lat="36.86521" lon="-4.14157">
        <ele>180.481173</ele>
        <time>2022-09-02T20:06:50.200Z</time>
      </trkpt>
      <trkpt lat="36.86475" lon="-4.14148">
        <ele>176.021253</ele>
        <time>2022-09-02T20:06:57.057Z</time>
      </trkpt>
      <trkpt lat="36.86418" lon="-4.14132">
        <ele>170.486666</ele>
        <time>2022-09-02T20:07:05.831Z</time>
      </trkpt>
      <trkpt lat="36.86373" lon="-4.14142">
        <ele>166.074474</ele>
        <time>2022-09-02T20:07:12.741Z</time>
      </trkpt>
      <trkpt lat="36.86356" lon="-4.14139">
        <ele>164.512587</ele>
        <time>2022-09-02T20:07:15.280Z</time>
      </trkpt>
      <trkpt lat="36.86312" lon="-4.14126">
        <ele>161.778679</ele>
        <time>2022-09-02T20:07:22.348Z</time>
      </trkpt>
      <trkpt lat="36.86297" lon="-4.14131">
        <ele>160.99994</ele>
        <time>2022-09-02T20:07:24.899Z</time>
      </trkpt>
      <trkpt lat="36.86273" lon="-4.14126">
        <ele>159.803509</ele>
        <time>2022-09-02T20:07:28.836Z</time>
      </trkpt>
      <trkpt lat="36.86253" lon="-4.14136">
        <ele>158.77979</ele>
        <time>2022-09-02T20:07:32.359Z</time>
      </trkpt>
      <trkpt lat="36.86231" lon="-4.14124">
        <ele>157.606114</ele>
        <time>2022-09-02T20:07:36.468Z</time>
      </trkpt>
      <trkpt lat="36.86207" lon="-4.14114">
        <ele>156.391409</ele>
        <time>2022-09-02T20:07:40.846Z</time>
      </trkpt>
      <trkpt lat="36.86169" lon="-4.14088">
        <ele>154.524076</ele>
        <time>2022-09-02T20:07:49.175Z</time>
      </trkpt>
      <trkpt lat="36.86147" lon="-4.14065">
        <ele>154.028383</ele>
        <time>2022-09-02T20:07:55.035Z</time>
      </trkpt>
      <trkpt lat="36.86137" lon="-4.14028">
        <ele>153.488043</ele>
        <time>2022-09-02T20:08:02.828Z</time>
      </trkpt>
      <trkpt lat="36.86136" lon="-4.14023">
        <ele>153.419758</ele>
        <time>2022-09-02T20:08:03.629Z</time>
      </trkpt>
      <trkpt lat="36.8613" lon="-4.13989">
        <ele>152.936658</ele>
        <time>2022-09-02T20:08:09.830Z</time>
      </trkpt>
      <trkpt lat="36.86119" lon="-4.13975">
        <ele>152.660933</ele>
        <time>2022-09-02T20:08:13.229Z</time>
      </trkpt>
      <trkpt lat="36.86094" lon="-4.13963">
        <ele>152.193148</ele>
        <time>2022-09-02T20:08:18.359Z</time>
      </trkpt>
      <trkpt lat="36.86014" lon="-4.13956">
        <ele>149.356575</ele>
        <time>2022-09-02T20:08:32.672Z</time>
      </trkpt>
      <trkpt lat="36.85993" lon="-4.1394">
        <ele>148.107034</ele>
        <time>2022-09-02T20:08:36.683Z</time>
      </trkpt>
      <trkpt lat="36.85985" lon="-4.13943">
        <ele>147.675776</ele>
        <time>2022-09-02T20:08:38.045Z</time>
      </trkpt>
      <trkpt lat="36.85981" lon="-4.13941">
        <ele>147.458739</ele>
        <time>2022-09-02T20:08:38.713Z</time>
      </trkpt>
      <trkpt lat="36.85977" lon="-4.13933">
        <ele>147.069774</ele>
        <time>2022-09-02T20:08:39.866Z</time>
      </trkpt>
      <trkpt lat="36.85964" lon="-4.13933">
        <ele>146.425632</ele>
        <time>2022-09-02T20:08:41.710Z</time>
      </trkpt>
      <trkpt lat="36.85952" lon="-4.13924">
        <ele>145.689871</ele>
        <time>2022-09-02T20:08:44.093Z</time>
      </trkpt>
      <trkpt lat="36.85935" lon="-4.13827">
        <ele>142.124338</ele>
        <time>2022-09-02T20:08:56.223Z</time>
      </trkpt>
      <trkpt lat="36.85935" lon="-4.13771">
        <ele>141.196864</ele>
        <time>2022-09-02T20:09:03.433Z</time>
      </trkpt>
      <trkpt lat="36.85935" lon="-4.13751">
        <ele>140.870964</ele>
        <time>2022-09-02T20:09:06.223Z</time>
      </trkpt>
      <trkpt lat="36.85925" lon="-4.1372">
        <ele>140.311421</ele>
        <time>2022-09-02T20:09:11.369Z</time>
      </trkpt>
      <trkpt lat="36.85897" lon="-4.13644">
        <ele>138.936444</ele>
        <time>2022-09-02T20:09:26.274Z</time>
      </trkpt>
      <trkpt lat="36.85878" lon="-4.13629">
        <ele>138.873586</ele>
        <time>2022-09-02T20:09:33.012Z</time>
      </trkpt>
      <trkpt lat="36.85839" lon="-4.13628">
        <ele>139.314144</ele>
        <time>2022-09-02T20:09:45.195Z</time>
      </trkpt>
      <trkpt lat="36.85671" lon="-4.13562">
        <ele>140.774409</ele>
        <time>2022-09-02T20:10:34.570Z</time>
      </trkpt>
      <trkpt lat="36.85652" lon="-4.1355">
        <ele>140.773175</ele>
        <time>2022-09-02T20:10:39.366Z</time>
      </trkpt>
      <trkpt lat="36.85628" lon="-4.13539">
        <ele>140.771775</ele>
        <time>2022-09-02T20:10:45.218Z</time>
      </trkpt>
      <trkpt lat="36.85604" lon="-4.13515">
        <ele>140.770054</ele>
        <time>2022-09-02T20:10:52.045Z</time>
      </trkpt>
      <trkpt lat="36.85592" lon="-4.135">
        <ele>140.769103</ele>
        <time>2022-09-02T20:10:55.545Z</time>
      </trkpt>
      <trkpt lat="36.85556" lon="-4.13464">
        <ele>140.519479</ele>
        <time>2022-09-02T20:11:05.193Z</time>
      </trkpt>
      <trkpt lat="36.85534" lon="-4.13453">
        <ele>139.818629</ele>
        <time>2022-09-02T20:11:09.246Z</time>
      </trkpt>
      <trkpt lat="36.85495" lon="-4.13457">
        <ele>138.642166</ele>
        <time>2022-09-02T20:11:16.412Z</time>
      </trkpt>
      <trkpt lat="36.85457" lon="-4.13476">
        <ele>137.407584</ele>
        <time>2022-09-02T20:11:24.274Z</time>
      </trkpt>
      <trkpt lat="36.85445" lon="-4.13473">
        <ele>137.022475</ele>
        <time>2022-09-02T20:11:26.596Z</time>
      </trkpt>
      <trkpt lat="36.85355" lon="-4.13343">
        <ele>129.99986</ele>
        <time>2022-09-02T20:11:47.729Z</time>
      </trkpt>
      <trkpt lat="36.8533" lon="-4.13329">
        <ele>128.219371</ele>
        <time>2022-09-02T20:11:51.831Z</time>
      </trkpt>
      <trkpt lat="36.85299" lon="-4.13326">
        <ele>126.199229</ele>
        <time>2022-09-02T20:11:56.410Z</time>
      </trkpt>
      <trkpt lat="36.85268" lon="-4.13338">
        <ele>124.046167</ele>
        <time>2022-09-02T20:12:01.218Z</time>
      </trkpt>
      <trkpt lat="36.85231" lon="-4.13363">
        <ele>122.681226</ele>
        <time>2022-09-02T20:12:07.560Z</time>
      </trkpt>
      <trkpt lat="36.85213" lon="-4.13383">
        <ele>122.083437</ele>
        <time>2022-09-02T20:12:11.379Z</time>
      </trkpt>
      <trkpt lat="36.85196" lon="-4.13414">
        <ele>121.330168</ele>
        <time>2022-09-02T20:12:16.302Z</time>
      </trkpt>
      <trkpt lat="36.85187" lon="-4.1342">
        <ele>121.06612</ele>
        <time>2022-09-02T20:12:18.489Z</time>
      </trkpt>
      <trkpt lat="36.85176" lon="-4.13418">
        <ele>120.789723</ele>
        <time>2022-09-02T20:12:20.364Z</time>
      </trkpt>
      <trkpt lat="36.85168" lon="-4.13409">
        <ele>120.526724</ele>
        <time>2022-09-02T20:12:22.491Z</time>
      </trkpt>
      <trkpt lat="36.85163" lon="-4.13391">
        <ele>120.13743</ele>
        <time>2022-09-02T20:12:27.507Z</time>
      </trkpt>
      <trkpt lat="36.85171" lon="-4.13325">
        <ele>119.22014</ele>
        <time>2022-09-02T20:12:40.956Z</time>
      </trkpt>
      <trkpt lat="36.8517" lon="-4.13309">
        <ele>119.487457</ele>
        <time>2022-09-02T20:12:45.797Z</time>
      </trkpt>
      <trkpt lat="36.85134" lon="-4.13219">
        <ele>121.206885</ele>
        <time>2022-09-02T20:13:16.272Z</time>
      </trkpt>
      <trkpt lat="36.85118" lon="-4.13196">
        <ele>121.739565</ele>
        <time>2022-09-02T20:13:27.889Z</time>
      </trkpt>
      <trkpt lat="36.85094" lon="-4.13178">
        <ele>122.324663</ele>
        <time>2022-09-02T20:13:38.323Z</time>
      </trkpt>
      <trkpt lat="36.85049" lon="-4.13174">
        <ele>122.090607</ele>
        <time>2022-09-02T20:13:48.568Z</time>
      </trkpt>
      <trkpt lat="36.8502" lon="-4.13157">
        <ele>120.899179</ele>
        <time>2022-09-02T20:13:54.468Z</time>
      </trkpt>
      <trkpt lat="36.84983" lon="-4.13107">
        <ele>118.835584</ele>
        <time>2022-09-02T20:14:03.542Z</time>
      </trkpt>
      <trkpt lat="36.84967" lon="-4.13068">
        <ele>117.515238</ele>
        <time>2022-09-02T20:14:09.098Z</time>
      </trkpt>
      <trkpt lat="36.84938" lon="-4.13071">
        <ele>116.446783</ele>
        <time>2022-09-02T20:14:13.320Z</time>
      </trkpt>
      <trkpt lat="36.84857" lon="-4.13043">
        <ele>111.713068</ele>
        <time>2022-09-02T20:14:25.660Z</time>
      </trkpt>
      <trkpt lat="36.84831" lon="-4.13069">
        <ele>109.758498</ele>
        <time>2022-09-02T20:14:30.672Z</time>
      </trkpt>
      <trkpt lat="36.84779" lon="-4.13081">
        <ele>106.628993</ele>
        <time>2022-09-02T20:14:39.200Z</time>
      </trkpt>
      <trkpt lat="36.84766" lon="-4.13097">
        <ele>105.559457</ele>
        <time>2022-09-02T20:14:42.494Z</time>
      </trkpt>
      <trkpt lat="36.84765" lon="-4.13132">
        <ele>105.131071</ele>
        <time>2022-09-02T20:14:47.432Z</time>
      </trkpt>
      <trkpt lat="36.84767" lon="-4.13145">
        <ele>104.986589</ele>
        <time>2022-09-02T20:14:49.381Z</time>
      </trkpt>
      <trkpt lat="36.8476" lon="-4.13158">
        <ele>104.807615</ele>
        <time>2022-09-02T20:14:51.634Z</time>
      </trkpt>
      <trkpt lat="36.84757" lon="-4.13153">
        <ele>104.728929</ele>
        <time>2022-09-02T20:14:52.639Z</time>
      </trkpt>
      <trkpt lat="36.84747" lon="-4.13138">
        <ele>104.521488</ele>
        <time>2022-09-02T20:14:55.476Z</time>
      </trkpt>
      <trkpt lat="36.84712" lon="-4.13094">
        <ele>103.82992</ele>
        <time>2022-09-02T20:15:04.933Z</time>
      </trkpt>
      <trkpt lat="36.84681" lon="-4.13071">
        <ele>103.326515</ele>
        <time>2022-09-02T20:15:13.568Z</time>
      </trkpt>
      <trkpt lat="36.8465" lon="-4.13057">
        <ele>102.981606</ele>
        <time>2022-09-02T20:15:21.713Z</time>
      </trkpt>
      <trkpt lat="36.84587" lon="-4.13053">
        <ele>102.741994</ele>
        <time>2022-09-02T20:15:36.754Z</time>
      </trkpt>
      <trkpt lat="36.84534" lon="-4.13071">
        <ele>102.53507</ele>
        <time>2022-09-02T20:15:48.093Z</time>
      </trkpt>
      <trkpt lat="36.84514" lon="-4.13078">
        <ele>102.457893</ele>
        <time>2022-09-02T20:15:52.175Z</time>
      </trkpt>
      <trkpt lat="36.84479" lon="-4.13084">
        <ele>102.333641</ele>
        <time>2022-09-02T20:15:58.782Z</time>
      </trkpt>
      <trkpt lat="36.84472" lon="-4.13084">
        <ele>102.321436</ele>
        <time>2022-09-02T20:16:00.042Z</time>
      </trkpt>
      <trkpt lat="36.84171" lon="-4.13021">
        <ele>105.423308</ele>
        <time>2022-09-02T20:17:09.180Z</time>
      </trkpt>
      <trkpt lat="36.84005" lon="-4.12983">
        <ele>113.776146</ele>
        <time>2022-09-02T20:19:01.792Z</time>
      </trkpt>
      <trkpt lat="36.83936" lon="-4.12977">
        <ele>116.11294</ele>
        <time>2022-09-02T20:19:26.358Z</time>
      </trkpt>
      <trkpt lat="36.83789" lon="-4.12983">
        <ele>108.281295</ele>
        <time>2022-09-02T20:19:48.535Z</time>
      </trkpt>
      <trkpt lat="36.83745" lon="-4.12987">
        <ele>105.681389</ele>
        <time>2022-09-02T20:19:54.922Z</time>
      </trkpt>
      <trkpt lat="36.83702" lon="-4.12985">
        <ele>103.052838</ele>
        <time>2022-09-02T20:20:01.170Z</time>
      </trkpt>
      <trkpt lat="36.8363" lon="-4.12967">
        <ele>98.477831</ele>
        <time>2022-09-02T20:20:12.578Z</time>
      </trkpt>
      <trkpt lat="36.83567" lon="-4.12938">
        <ele>95.263794</ele>
        <time>2022-09-02T20:20:23.609Z</time>
      </trkpt>
      <trkpt lat="36.83489" lon="-4.12877">
        <ele>92.491996</ele>
        <time>2022-09-02T20:20:39.246Z</time>
      </trkpt>
      <trkpt lat="36.83371" lon="-4.12748">
        <ele>88.528517</ele>
        <time>2022-09-02T20:21:08.588Z</time>
      </trkpt>
      <trkpt lat="36.8331" lon="-4.12713">
        <ele>87.024135</ele>
        <time>2022-09-02T20:21:20.588Z</time>
      </trkpt>
      <trkpt lat="36.83297" lon="-4.12689">
        <ele>86.409058</ele>
        <time>2022-09-02T20:21:26.075Z</time>
      </trkpt>
      <trkpt lat="36.8327" lon="-4.12675">
        <ele>85.544867</ele>
        <time>2022-09-02T20:21:32.649Z</time>
      </trkpt>
      <trkpt lat="36.83254" lon="-4.12665">
        <ele>84.985785</ele>
        <time>2022-09-02T20:21:36.723Z</time>
      </trkpt>
      <trkpt lat="36.83253" lon="-4.12657">
        <ele>84.785495</ele>
        <time>2022-09-02T20:21:38.404Z</time>
      </trkpt>
      <trkpt lat="36.83159" lon="-4.12636">
        <ele>81.891536</ele>
        <time>2022-09-02T20:21:54.463Z</time>
      </trkpt>
      <trkpt lat="36.8314" lon="-4.12615">
        <ele>81.277649</ele>
        <time>2022-09-02T20:21:59.116Z</time>
      </trkpt>
      <trkpt lat="36.83128" lon="-4.12584">
        <ele>81.539355</ele>
        <time>2022-09-02T20:22:04.132Z</time>
      </trkpt>
      <trkpt lat="36.83129" lon="-4.12521">
        <ele>82.029926</ele>
        <time>2022-09-02T20:22:14.354Z</time>
      </trkpt>
      <trkpt lat="36.83113" lon="-4.12495">
        <ele>82.281457</ele>
        <time>2022-09-02T20:22:21.756Z</time>
      </trkpt>
      <trkpt lat="36.83082" lon="-4.12477">
        <ele>82.611726</ele>
        <time>2022-09-02T20:22:34.670Z</time>
      </trkpt>
      <trkpt lat="36.8301" lon="-4.1244">
        <ele>84.472139</ele>
        <time>2022-09-02T20:23:08.863Z</time>
      </trkpt>
      <trkpt lat="36.82936" lon="-4.12442">
        <ele>87.221409</ele>
        <time>2022-09-02T20:23:41.818Z</time>
      </trkpt>
      <trkpt lat="36.82728" lon="-4.12446">
        <ele>93.842175</ele>
        <time>2022-09-02T20:24:56.530Z</time>
      </trkpt>
      <trkpt lat="36.82615" lon="-4.12444">
        <ele>95.84348</ele>
        <time>2022-09-02T20:25:41.154Z</time>
      </trkpt>
      <trkpt lat="36.82533" lon="-4.12436">
        <ele>96.832806</ele>
        <time>2022-09-02T20:26:02.644Z</time>
      </trkpt>
      <trkpt lat="36.82507" lon="-4.12442">
        <ele>96.887165</ele>
        <time>2022-09-02T20:26:07.894Z</time>
      </trkpt>
      <trkpt lat="36.8244" lon="-4.12487">
        <ele>93.090267</ele>
        <time>2022-09-02T20:26:20.435Z</time>
      </trkpt>
      <trkpt lat="36.82315" lon="-4.12659">
        <ele>82.447476</ele>
        <time>2022-09-02T20:26:48.389Z</time>
      </trkpt>
      <trkpt lat="36.82293" lon="-4.1267">
        <ele>80.847781</ele>
        <time>2022-09-02T20:26:52.129Z</time>
      </trkpt>
      <trkpt lat="36.82257" lon="-4.12673">
        <ele>78.530165</ele>
        <time>2022-09-02T20:26:57.542Z</time>
      </trkpt>
      <trkpt lat="36.82238" lon="-4.12682">
        <ele>77.194213</ele>
        <time>2022-09-02T20:27:00.672Z</time>
      </trkpt>
      <trkpt lat="36.82214" lon="-4.12708">
        <ele>75.242902</ele>
        <time>2022-09-02T20:27:05.539Z</time>
      </trkpt>
      <trkpt lat="36.82183" lon="-4.12722">
        <ele>73.317154</ele>
        <time>2022-09-02T20:27:10.593Z</time>
      </trkpt>
      <trkpt lat="36.8214" lon="-4.12731">
        <ele>70.773708</ele>
        <time>2022-09-02T20:27:17.328Z</time>
      </trkpt>
      <trkpt lat="36.82074" lon="-4.1273">
        <ele>66.880873</ele>
        <time>2022-09-02T20:27:27.456Z</time>
      </trkpt>
      <trkpt lat="36.82041" lon="-4.12722">
        <ele>65.267903</ele>
        <time>2022-09-02T20:27:32.754Z</time>
      </trkpt>
      <trkpt lat="36.81941" lon="-4.12663">
        <ele>61.413725</ele>
        <time>2022-09-02T20:27:50.988Z</time>
      </trkpt>
      <trkpt lat="36.81859" lon="-4.12602">
        <ele>59.70867</ele>
        <time>2022-09-02T20:28:08.955Z</time>
      </trkpt>
      <trkpt lat="36.81821" lon="-4.12508">
        <ele>60.092505</ele>
        <time>2022-09-02T20:28:29.917Z</time>
      </trkpt>
      <trkpt lat="36.81805" lon="-4.12486">
        <ele>60.203156</ele>
        <time>2022-09-02T20:28:37.198Z</time>
      </trkpt>
      <trkpt lat="36.8175" lon="-4.12461">
        <ele>61.017925</ele>
        <time>2022-09-02T20:28:56.854Z</time>
      </trkpt>
      <trkpt lat="36.81639" lon="-4.12426">
        <ele>63.771596</ele>
        <time>2022-09-02T20:29:38.772Z</time>
      </trkpt>
      <trkpt lat="36.81568" lon="-4.12433">
        <ele>64.589518</ele>
        <time>2022-09-02T20:30:01.884Z</time>
      </trkpt>
      <trkpt lat="36.81498" lon="-4.12441">
        <ele>64.379996</ele>
        <time>2022-09-02T20:30:19.114Z</time>
      </trkpt>
      <trkpt lat="36.81486" lon="-4.12449">
        <ele>64.339964</ele>
        <time>2022-09-02T20:30:21.958Z</time>
      </trkpt>
      <trkpt lat="36.81457" lon="-4.1249">
        <ele>64.210625</ele>
        <time>2022-09-02T20:30:30.075Z</time>
      </trkpt>
      <trkpt lat="36.81416" lon="-4.12532">
        <ele>62.889326</ele>
        <time>2022-09-02T20:30:39.249Z</time>
      </trkpt>
      <trkpt lat="36.81399" lon="-4.12536">
        <ele>62.288742</ele>
        <time>2022-09-02T20:30:42.032Z</time>
      </trkpt>
      <trkpt lat="36.81369" lon="-4.12533">
        <ele>61.190745</ele>
        <time>2022-09-02T20:30:46.996Z</time>
      </trkpt>
      <trkpt lat="36.81331" lon="-4.12554">
        <ele>59.655109</ele>
        <time>2022-09-02T20:30:53.838Z</time>
      </trkpt>
      <trkpt lat="36.81315" lon="-4.12551">
        <ele>59.059584</ele>
        <time>2022-09-02T20:30:56.456Z</time>
      </trkpt>
      <trkpt lat="36.81299" lon="-4.12532">
        <ele>58.259087</ele>
        <time>2022-09-02T20:31:00.065Z</time>
      </trkpt>
      <trkpt lat="36.81269" lon="-4.12519">
        <ele>57.254816</ele>
        <time>2022-09-02T20:31:05.325Z</time>
      </trkpt>
      <trkpt lat="36.81241" lon="-4.12525">
        <ele>56.530788</ele>
        <time>2022-09-02T20:31:10.338Z</time>
      </trkpt>
      <trkpt lat="36.81224" lon="-4.12523">
        <ele>56.074536</ele>
        <time>2022-09-02T20:31:13.448Z</time>
      </trkpt>
      <trkpt lat="36.81213" lon="-4.12505">
        <ele>55.597924</ele>
        <time>2022-09-02T20:31:16.762Z</time>
      </trkpt>
      <trkpt lat="36.81204" lon="-4.12461">
        <ele>54.663561</ele>
        <time>2022-09-02T20:31:23.361Z</time>
      </trkpt>
      <trkpt lat="36.81196" lon="-4.12446">
        <ele>54.302328</ele>
        <time>2022-09-02T20:31:25.897Z</time>
      </trkpt>
      <trkpt lat="36.81171" lon="-4.12429">
        <ele>53.570896</ele>
        <time>2022-09-02T20:31:31.080Z</time>
      </trkpt>
      <trkpt lat="36.81134" lon="-4.12427">
        <ele>52.691966</ele>
        <time>2022-09-02T20:31:37.859Z</time>
      </trkpt>
      <trkpt lat="36.81096" lon="-4.12425">
        <ele>51.940361</ele>
        <time>2022-09-02T20:31:44.831Z</time>
      </trkpt>
      <trkpt lat="36.81014" lon="-4.12425">
        <ele>50.335084</ele>
        <time>2022-09-02T20:32:00.106Z</time>
      </trkpt>
      <trkpt lat="36.80985" lon="-4.12439">
        <ele>49.70594</ele>
        <time>2022-09-02T20:32:05.928Z</time>
      </trkpt>
      <trkpt lat="36.80949" lon="-4.12452">
        <ele>49.037731</ele>
        <time>2022-09-02T20:32:12.530Z</time>
      </trkpt>
      <trkpt lat="36.80917" lon="-4.12449">
        <ele>48.509024</ele>
        <time>2022-09-02T20:32:18.252Z</time>
      </trkpt>
      <trkpt lat="36.80908" lon="-4.12447">
        <ele>48.35277</ele>
        <time>2022-09-02T20:32:19.983Z</time>
      </trkpt>
      <trkpt lat="36.80902" lon="-4.12446">
        <ele>48.25605</ele>
        <time>2022-09-02T20:32:21.037Z</time>
      </trkpt>
      <trkpt lat="36.80887" lon="-4.12443">
        <ele>47.985903</ele>
        <time>2022-09-02T20:32:24.009Z</time>
      </trkpt>
      <trkpt lat="36.80874" lon="-4.12441">
        <ele>47.781025</ele>
        <time>2022-09-02T20:32:26.241Z</time>
      </trkpt>
      <trkpt lat="36.80738" lon="-4.12442">
        <ele>45.93259</ele>
        <time>2022-09-02T20:32:53.104Z</time>
      </trkpt>
      <trkpt lat="36.80714" lon="-4.12435">
        <ele>45.711268</ele>
        <time>2022-09-02T20:32:58.213Z</time>
      </trkpt>
      <trkpt lat="36.80635" lon="-4.12418">
        <ele>45.006581</ele>
        <time>2022-09-02T20:33:14.797Z</time>
      </trkpt>
      <trkpt lat="36.80551" lon="-4.12427">
        <ele>43.864722</ele>
        <time>2022-09-02T20:33:31.188Z</time>
      </trkpt>
      <trkpt lat="36.805" lon="-4.1242">
        <ele>43.104748</ele>
        <time>2022-09-02T20:33:41.037Z</time>
      </trkpt>
      <trkpt lat="36.80461" lon="-4.12425">
        <ele>42.52325</ele>
        <time>2022-09-02T20:33:48.282Z</time>
      </trkpt>
      <trkpt lat="36.8045" lon="-4.12426">
        <ele>42.352956</ele>
        <time>2022-09-02T20:33:50.369Z</time>
      </trkpt>
      <trkpt lat="36.80409" lon="-4.12434">
        <ele>41.709616</ele>
        <time>2022-09-02T20:33:57.866Z</time>
      </trkpt>
      <trkpt lat="36.80383" lon="-4.12431">
        <ele>41.284149</ele>
        <time>2022-09-02T20:34:02.611Z</time>
      </trkpt>
      <trkpt lat="36.80231" lon="-4.12376">
        <ele>39.145736</ele>
        <time>2022-09-02T20:34:32.825Z</time>
      </trkpt>
      <trkpt lat="36.80205" lon="-4.12357">
        <ele>39.027829</ele>
        <time>2022-09-02T20:34:39.136Z</time>
      </trkpt>
      <trkpt lat="36.80132" lon="-4.12271">
        <ele>38.632949</ele>
        <time>2022-09-02T20:35:00.859Z</time>
      </trkpt>
      <trkpt lat="36.80117" lon="-4.1226">
        <ele>38.565391</ele>
        <time>2022-09-02T20:35:05.180Z</time>
      </trkpt>
      <trkpt lat="36.80007" lon="-4.12218">
        <ele>38.926747</ele>
        <time>2022-09-02T20:35:32.825Z</time>
      </trkpt>
      <trkpt lat="36.80001" lon="-4.1223">
        <ele>38.962738</ele>
        <time>2022-09-02T20:35:35.292Z</time>
      </trkpt>
      <trkpt lat="36.7999" lon="-4.12234">
        <ele>38.998688</ele>
        <time>2022-09-02T20:35:38.586Z</time>
      </trkpt>
      <trkpt lat="36.79979" lon="-4.1223">
        <ele>39.034475</ele>
        <time>2022-09-02T20:35:41.433Z</time>
      </trkpt>
      <trkpt lat="36.79972" lon="-4.12219">
        <ele>39.070416</ele>
        <time>2022-09-02T20:35:43.917Z</time>
      </trkpt>
      <trkpt lat="36.79972" lon="-4.12205">
        <ele>39.106319</ele>
        <time>2022-09-02T20:35:46.836Z</time>
      </trkpt>
      <trkpt lat="36.79915" lon="-4.12184">
        <ele>39.058624</ele>
        <time>2022-09-02T20:36:00.698Z</time>
      </trkpt>
      <trkpt lat="36.79806" lon="-4.12141">
        <ele>38.884909</ele>
        <time>2022-09-02T20:36:25.897Z</time>
      </trkpt>
      <trkpt lat="36.79667" lon="-4.12127">
        <ele>37.273962</ele>
        <time>2022-09-02T20:36:53.287Z</time>
      </trkpt>
      <trkpt lat="36.79572" lon="-4.12108">
        <ele>35.941156</ele>
        <time>2022-09-02T20:37:11.063Z</time>
      </trkpt>
      <trkpt lat="36.79447" lon="-4.12083">
        <ele>33.994808</ele>
        <time>2022-09-02T20:37:35.127Z</time>
      </trkpt>
      <trkpt lat="36.79374" lon="-4.12078">
        <ele>32.994061</ele>
        <time>2022-09-02T20:37:49.062Z</time>
      </trkpt>
      <trkpt lat="36.79346" lon="-4.12067">
        <ele>32.602489</ele>
        <time>2022-09-02T20:37:54.655Z</time>
      </trkpt>
      <trkpt lat="36.79218" lon="-4.11995">
        <ele>30.742598</ele>
        <time>2022-09-02T20:38:22.210Z</time>
      </trkpt>
      <trkpt lat="36.79194" lon="-4.11969">
        <ele>30.337404</ele>
        <time>2022-09-02T20:38:28.236Z</time>
      </trkpt>
      <trkpt lat="36.79164" lon="-4.11871">
        <ele>29.25894</ele>
        <time>2022-09-02T20:38:44.415Z</time>
      </trkpt>
      <trkpt lat="36.79156" lon="-4.11853">
        <ele>29.054987</ele>
        <time>2022-09-02T20:38:47.780Z</time>
      </trkpt>
      <trkpt lat="36.79137" lon="-4.11834">
        <ele>28.851838</ele>
        <time>2022-09-02T20:38:52.371Z</time>
      </trkpt>
      <trkpt lat="36.79036" lon="-4.11831">
        <ele>27.973115</ele>
        <time>2022-09-02T20:39:12.683Z</time>
      </trkpt>
      <trkpt lat="36.78911" lon="-4.11828">
        <ele>27.412985</ele>
        <time>2022-09-02T20:39:38.626Z</time>
      </trkpt>
      <trkpt lat="36.78883" lon="-4.11819">
        <ele>27.367112</ele>
        <time>2022-09-02T20:39:45.093Z</time>
      </trkpt>
      <trkpt lat="36.78858" lon="-4.11803">
        <ele>27.322839</ele>
        <time>2022-09-02T20:39:51.553Z</time>
      </trkpt>
      <trkpt lat="36.78845" lon="-4.11782">
        <ele>27.290434</ele>
        <time>2022-09-02T20:39:56.292Z</time>
      </trkpt>
      <trkpt lat="36.78821" lon="-4.11716">
        <ele>27.308484</ele>
        <time>2022-09-02T20:40:10.147Z</time>
      </trkpt>
      <trkpt lat="36.78805" lon="-4.11664">
        <ele>27.405538</ele>
        <time>2022-09-02T20:40:20.886Z</time>
      </trkpt>
      <trkpt lat="36.78791" lon="-4.11636">
        <ele>27.462537</ele>
        <time>2022-09-02T20:40:27.144Z</time>
      </trkpt>
      <trkpt lat="36.78768" lon="-4.11616">
        <ele>27.522482</ele>
        <time>2022-09-02T20:40:33.285Z</time>
      </trkpt>
      <trkpt lat="36.7866" lon="-4.11562">
        <ele>27.666817</ele>
        <time>2022-09-02T20:40:59.751Z</time>
      </trkpt>
      <trkpt lat="36.78652" lon="-4.11552">
        <ele>27.672365</ele>
        <time>2022-09-02T20:41:02.126Z</time>
      </trkpt>
      <trkpt lat="36.78535" lon="-4.11392">
        <ele>27.866008</ele>
        <time>2022-09-02T20:41:41.838Z</time>
      </trkpt>
      <trkpt lat="36.78507" lon="-4.1135">
        <ele>27.955459</ele>
        <time>2022-09-02T20:41:52.568Z</time>
      </trkpt>
      <trkpt lat="36.78447" lon="-4.1127">
        <ele>28.095941</ele>
        <time>2022-09-02T20:42:12.780Z</time>
      </trkpt>
      <trkpt lat="36.7844" lon="-4.11262">
        <ele>28.09847</ele>
        <time>2022-09-02T20:42:14.938Z</time>
      </trkpt>
      <trkpt lat="36.78409" lon="-4.11242">
        <ele>28.107596</ele>
        <time>2022-09-02T20:42:22.445Z</time>
      </trkpt>
      <trkpt lat="36.78373" lon="-4.11233">
        <ele>28.117281</ele>
        <time>2022-09-02T20:42:30.593Z</time>
      </trkpt>
      <trkpt lat="36.78367" lon="-4.11233">
        <ele>28.11864</ele>
        <time>2022-09-02T20:42:31.721Z</time>
      </trkpt>
      <trkpt lat="36.78331" lon="-4.11244">
        <ele>28.128259</ele>
        <time>2022-09-02T20:42:40.093Z</time>
      </trkpt>
      <trkpt lat="36.78293" lon="-4.11252">
        <ele>28.158425</ele>
        <time>2022-09-02T20:42:49.236Z</time>
      </trkpt>
      <trkpt lat="36.78272" lon="-4.11255">
        <ele>28.253162</ele>
        <time>2022-09-02T20:42:54.190Z</time>
      </trkpt>
      <trkpt lat="36.78264" lon="-4.1126">
        <ele>28.291912</ele>
        <time>2022-09-02T20:42:56.113Z</time>
      </trkpt>
      <trkpt lat="36.78257" lon="-4.11255">
        <ele>28.331173</ele>
        <time>2022-09-02T20:42:58.024Z</time>
      </trkpt>
      <trkpt lat="36.78255" lon="-4.11246">
        <ele>28.361859</ele>
        <time>2022-09-02T20:42:59.711Z</time>
      </trkpt>
      <trkpt lat="36.78201" lon="-4.11155">
        <ele>28.775232</ele>
        <time>2022-09-02T20:43:22.129Z</time>
      </trkpt>
      <trkpt lat="36.78159" lon="-4.11087">
        <ele>29.456754</ele>
        <time>2022-09-02T20:43:41.062Z</time>
      </trkpt>
      <trkpt lat="36.78088" lon="-4.10969">
        <ele>31.444056</ele>
        <time>2022-09-02T20:44:18.098Z</time>
      </trkpt>
      <trkpt lat="36.7808" lon="-4.10948">
        <ele>31.752594</ele>
        <time>2022-09-02T20:44:24.593Z</time>
      </trkpt>
      <trkpt lat="36.78069" lon="-4.10942">
        <ele>31.952994</ele>
        <time>2022-09-02T20:44:28.468Z</time>
      </trkpt>
      <trkpt lat="36.7806" lon="-4.10923">
        <ele>32.55857</ele>
        <time>2022-09-02T20:44:34.805Z</time>
      </trkpt>
      <trkpt lat="36.78067" lon="-4.109">
        <ele>33.271822</ele>
        <time>2022-09-02T20:44:41.950Z</time>
      </trkpt>
      <trkpt lat="36.78079" lon="-4.10891">
        <ele>33.792994</ele>
        <time>2022-09-02T20:44:47.517Z</time>
      </trkpt>
      <trkpt lat="36.78087" lon="-4.10892">
        <ele>34.069334</ele>
        <time>2022-09-02T20:44:50.542Z</time>
      </trkpt>
      <trkpt lat="36.78089" lon="-4.10793">
        <ele>36.927673</ele>
        <time>2022-09-02T20:45:23.999Z</time>
      </trkpt>
      <trkpt lat="36.7809" lon="-4.10698">
        <ele>39.841284</ele>
        <time>2022-09-02T20:45:57.394Z</time>
      </trkpt>
      <trkpt lat="36.78088" lon="-4.1064">
        <ele>41.760527</ele>
        <time>2022-09-02T20:46:17.687Z</time>
      </trkpt>
      <trkpt lat="36.78087" lon="-4.10602">
        <ele>43.000667</ele>
        <time>2022-09-02T20:46:31.124Z</time>
      </trkpt>
      <trkpt lat="36.78086" lon="-4.10592">
        <ele>43.333765</ele>
        <time>2022-09-02T20:46:34.785Z</time>
      </trkpt>
      <trkpt lat="36.78084" lon="-4.10572">
        <ele>43.971546</ele>
        <time>2022-09-02T20:46:41.427Z</time>
      </trkpt>
      <trkpt lat="36.78077" lon="-4.105">
        <ele>46.167044</ele>
        <time>2022-09-02T20:47:06.132Z</time>
      </trkpt>
      <trkpt lat="36.78076" lon="-4.10495">
        <ele>46.261335</ele>
        <time>2022-09-02T20:47:07.588Z</time>
      </trkpt>
      <trkpt lat="36.78073" lon="-4.10474">
        <ele>46.710947</ele>
        <time>2022-09-02T20:47:14.172Z</time>
      </trkpt>
      <trkpt lat="36.78076" lon="-4.10454">
        <ele>47.111288</ele>
        <time>2022-09-02T20:47:19.943Z</time>
      </trkpt>
      <trkpt lat="36.78088" lon="-4.10429">
        <ele>47.707936</ele>
        <time>2022-09-02T20:47:27.631Z</time>
      </trkpt>
      <trkpt lat="36.7807" lon="-4.10415">
        <ele>48.250642</ele>
        <time>2022-09-02T20:47:34.527Z</time>
      </trkpt>
      <trkpt lat="36.78042" lon="-4.10393">
        <ele>49.094636</ele>
        <time>2022-09-02T20:47:45.718Z</time>
      </trkpt>
      <trkpt lat="36.78013" lon="-4.10357">
        <ele>50.137383</ele>
        <time>2022-09-02T20:47:59.853Z</time>
      </trkpt>
      <trkpt lat="36.77965" lon="-4.10304">
        <ele>51.349615</ele>
        <time>2022-09-02T20:48:21.502Z</time>
      </trkpt>
      <trkpt lat="36.77961" lon="-4.103">
        <ele>51.442741</ele>
        <time>2022-09-02T20:48:23.162Z</time>
      </trkpt>
      <trkpt lat="36.77921" lon="-4.10241">
        <ele>52.527848</ele>
        <time>2022-09-02T20:48:42.113Z</time>
      </trkpt>
      <trkpt lat="36.77916" lon="-4.10233">
        <ele>52.669743</ele>
        <time>2022-09-02T20:48:44.575Z</time>
      </trkpt>
      <trkpt lat="36.779" lon="-4.10186">
        <ele>53.388067</ele>
        <time>2022-09-02T20:48:56.792Z</time>
      </trkpt>
      <trkpt lat="36.77865" lon="-4.10068">
        <ele>54.643269</ele>
        <time>2022-09-02T20:49:29.820Z</time>
      </trkpt>
      <trkpt lat="36.77854" lon="-4.10072">
        <ele>54.768721</ele>
        <time>2022-09-02T20:49:33.014Z</time>
      </trkpt>
      <trkpt lat="36.77848" lon="-4.10066">
        <ele>54.860137</ele>
        <time>2022-09-02T20:49:35.249Z</time>
      </trkpt>
      <trkpt lat="36.77846" lon="-4.10059">
        <ele>54.931634</ele>
        <time>2022-09-02T20:49:36.833Z</time>
      </trkpt>
      <trkpt lat="36.77855" lon="-4.10045">
        <ele>55.103179</ele>
        <time>2022-09-02T20:49:40.695Z</time>
      </trkpt>
      <trkpt lat="36.77861" lon="-4.10045">
        <ele>55.177745</ele>
        <time>2022-09-02T20:49:42.417Z</time>
      </trkpt>
      <trkpt lat="36.77871" lon="-4.10047">
        <ele>55.291352</ele>
        <time>2022-09-02T20:49:44.894Z</time>
      </trkpt>
      <trkpt lat="36.77871" lon="-4.09958">
        <ele>55.988075</ele>
        <time>2022-09-02T20:50:00.655Z</time>
      </trkpt>
      <trkpt lat="36.77851" lon="-4.09914">
        <ele>56.309472</ele>
        <time>2022-09-02T20:50:09.598Z</time>
      </trkpt>
      <trkpt lat="36.77843" lon="-4.09913">
        <ele>56.371556</ele>
        <time>2022-09-02T20:50:11.379Z</time>
      </trkpt>
      <trkpt lat="36.77839" lon="-4.09911">
        <ele>56.406597</ele>
        <time>2022-09-02T20:50:12.417Z</time>
      </trkpt>
      <trkpt lat="36.7783" lon="-4.09884">
        <ele>56.589681</ele>
        <time>2022-09-02T20:50:18.984Z</time>
      </trkpt>
      <trkpt lat="36.77824" lon="-4.09876">
        <ele>56.656652</ele>
        <time>2022-09-02T20:50:21.223Z</time>
      </trkpt>
      <trkpt lat="36.77795" lon="-4.09829">
        <ele>57.032821</ele>
        <time>2022-09-02T20:50:34.744Z</time>
      </trkpt>
      <trkpt lat="36.77772" lon="-4.09779">
        <ele>57.821025</ele>
        <time>2022-09-02T20:50:50.063Z</time>
      </trkpt>
      <trkpt lat="36.77767" lon="-4.09771">
        <ele>57.994525</ele>
        <time>2022-09-02T20:50:53.006Z</time>
      </trkpt>
      <trkpt lat="36.77724" lon="-4.09709">
        <ele>59.308682</ele>
        <time>2022-09-02T20:51:14.948Z</time>
      </trkpt>
      <trkpt lat="36.77707" lon="-4.09674">
        <ele>59.96604</ele>
        <time>2022-09-02T20:51:25.976Z</time>
      </trkpt>
      <trkpt lat="36.77696" lon="-4.09635">
        <ele>60.627777</ele>
        <time>2022-09-02T20:51:37.387Z</time>
      </trkpt>
      <trkpt lat="36.77661" lon="-4.09541">
        <ele>60.816881</ele>
        <time>2022-09-02T20:52:00.274Z</time>
      </trkpt>
      <trkpt lat="36.77649" lon="-4.09529">
        <ele>60.830741</ele>
        <time>2022-09-02T20:52:03.514Z</time>
      </trkpt>
      <trkpt lat="36.77647" lon="-4.09525">
        <ele>60.834409</ele>
        <time>2022-09-02T20:52:04.425Z</time>
      </trkpt>
      <trkpt lat="36.77637" lon="-4.0953">
        <ele>60.844855</ele>
        <time>2022-09-02T20:52:06.708Z</time>
      </trkpt>
      <trkpt lat="36.77627" lon="-4.09524">
        <ele>60.855273</ele>
        <time>2022-09-02T20:52:09.040Z</time>
      </trkpt>
      <trkpt lat="36.77623" lon="-4.09514">
        <ele>60.863645</ele>
        <time>2022-09-02T20:52:10.988Z</time>
      </trkpt>
      <trkpt lat="36.77624" lon="-4.09503">
        <ele>60.871999</ele>
        <time>2022-09-02T20:52:12.989Z</time>
      </trkpt>
      <trkpt lat="36.77547" lon="-4.09454">
        <ele>60.614179</ele>
        <time>2022-09-02T20:52:29.491Z</time>
      </trkpt>
      <trkpt lat="36.77505" lon="-4.09425">
        <ele>60.286917</ele>
        <time>2022-09-02T20:52:39.037Z</time>
      </trkpt>
      <trkpt lat="36.77359" lon="-4.09332">
        <ele>59.329031</ele>
        <time>2022-09-02T20:53:14.813Z</time>
      </trkpt>
      <trkpt lat="36.77287" lon="-4.09294">
        <ele>58.957923</ele>
        <time>2022-09-02T20:53:31.075Z</time>
      </trkpt>
      <trkpt lat="36.77269" lon="-4.09291">
        <ele>58.869248</ele>
        <time>2022-09-02T20:53:34.882Z</time>
      </trkpt>
      <trkpt lat="36.77233" lon="-4.09284">
        <ele>58.214738</ele>
        <time>2022-09-02T20:53:42.070Z</time>
      </trkpt>
      <trkpt lat="36.77226" lon="-4.093">
        <ele>57.902878</ele>
        <time>2022-09-02T20:53:44.741Z</time>
      </trkpt>
      <trkpt lat="36.77205" lon="-4.09305">
        <ele>57.450393</ele>
        <time>2022-09-02T20:53:48.823Z</time>
      </trkpt>
      <trkpt lat="36.77194" lon="-4.09294">
        <ele>57.147406</ele>
        <time>2022-09-02T20:53:51.335Z</time>
      </trkpt>
      <trkpt lat="36.77191" lon="-4.09276">
        <ele>56.822309</ele>
        <time>2022-09-02T20:53:54.137Z</time>
      </trkpt>
      <trkpt lat="36.77199" lon="-4.0926">
        <ele>56.497446</ele>
        <time>2022-09-02T20:53:56.823Z</time>
      </trkpt>
      <trkpt lat="36.77197" lon="-4.09248">
        <ele>56.292814</ele>
        <time>2022-09-02T20:53:58.499Z</time>
      </trkpt>
      <trkpt lat="36.77185" lon="-4.0922">
        <ele>55.73553</ele>
        <time>2022-09-02T20:54:03.007Z</time>
      </trkpt>
      <trkpt lat="36.77159" lon="-4.092">
        <ele>55.082429</ele>
        <time>2022-09-02T20:54:08.213Z</time>
      </trkpt>
      <trkpt lat="36.7698" lon="-4.09137">
        <ele>49.03233</ele>
        <time>2022-09-02T20:54:39.854Z</time>
      </trkpt>
      <trkpt lat="36.76938" lon="-4.09122">
        <ele>47.567158</ele>
        <time>2022-09-02T20:54:47.078Z</time>
      </trkpt>
      <trkpt lat="36.76929" lon="-4.0913">
        <ele>47.196172</ele>
        <time>2022-09-02T20:54:48.874Z</time>
      </trkpt>
      <trkpt lat="36.76922" lon="-4.09129">
        <ele>46.965414</ele>
        <time>2022-09-02T20:54:50.001Z</time>
      </trkpt>
      <trkpt lat="36.76916" lon="-4.09124">
        <ele>46.697986</ele>
        <time>2022-09-02T20:54:51.336Z</time>
      </trkpt>
      <trkpt lat="36.76912" lon="-4.09107">
        <ele>46.227469</ele>
        <time>2022-09-02T20:54:53.698Z</time>
      </trkpt>
      <trkpt lat="36.76867" lon="-4.09104">
        <ele>44.689139</ele>
        <time>2022-09-02T20:55:01.284Z</time>
      </trkpt>
      <trkpt lat="36.76835" lon="-4.09086">
        <ele>43.513978</ele>
        <time>2022-09-02T20:55:07.139Z</time>
      </trkpt>
      <trkpt lat="36.76703" lon="-4.0896">
        <ele>39.268154</ele>
        <time>2022-09-02T20:55:36.346Z</time>
      </trkpt>
      <trkpt lat="36.76515" lon="-4.08846">
        <ele>36.386331</ele>
        <time>2022-09-02T20:56:17.353Z</time>
      </trkpt>
      <trkpt lat="36.76367" lon="-4.08718">
        <ele>34.058697</ele>
        <time>2022-09-02T20:56:52.670Z</time>
      </trkpt>
      <trkpt lat="36.76317" lon="-4.08653">
        <ele>32.200045</ele>
        <time>2022-09-02T20:57:05.803Z</time>
      </trkpt>
      <trkpt lat="36.763" lon="-4.08606">
        <ele>31.141746</ele>
        <time>2022-09-02T20:57:13.011Z</time>
      </trkpt>
      <trkpt lat="36.76258" lon="-4.08501">
        <ele>28.69905</ele>
        <time>2022-09-02T20:57:29.093Z</time>
      </trkpt>
      <trkpt lat="36.76234" lon="-4.08467">
        <ele>27.755568</ele>
        <time>2022-09-02T20:57:35.338Z</time>
      </trkpt>
      <trkpt lat="36.76208" lon="-4.08444">
        <ele>26.938258</ele>
        <time>2022-09-02T20:57:40.703Z</time>
      </trkpt>
      <trkpt lat="36.76125" lon="-4.08374">
        <ele>24.475895</ele>
        <time>2022-09-02T20:57:59.060Z</time>
      </trkpt>
      <trkpt lat="36.7608" lon="-4.08319">
        <ele>23.423323</ele>
        <time>2022-09-02T20:58:11.269Z</time>
      </trkpt>
      <trkpt lat="36.76044" lon="-4.08264">
        <ele>22.487398</ele>
        <time>2022-09-02T20:58:22.190Z</time>
      </trkpt>
      <trkpt lat="36.76018" lon="-4.08223">
        <ele>21.803292</ele>
        <time>2022-09-02T20:58:29.859Z</time>
      </trkpt>
      <trkpt lat="36.76007" lon="-4.08207">
        <ele>21.466014</ele>
        <time>2022-09-02T20:58:32.914Z</time>
      </trkpt>
      <trkpt lat="36.75978" lon="-4.08162">
        <ele>20.492227</ele>
        <time>2022-09-02T20:58:41.440Z</time>
      </trkpt>
      <trkpt lat="36.75961" lon="-4.08134">
        <ele>19.896669</ele>
        <time>2022-09-02T20:58:46.532Z</time>
      </trkpt>
      <trkpt lat="36.75952" lon="-4.08117">
        <ele>19.562391</ele>
        <time>2022-09-02T20:58:49.422Z</time>
      </trkpt>
      <trkpt lat="36.75943" lon="-4.08104">
        <ele>19.279165</ele>
        <time>2022-09-02T20:58:51.805Z</time>
      </trkpt>
      <trkpt lat="36.75901" lon="-4.08046">
        <ele>17.982</ele>
        <time>2022-09-02T20:59:03.081Z</time>
      </trkpt>
      <trkpt lat="36.75655" lon="-4.07775">
        <ele>14.596272</ele>
        <time>2022-09-02T21:00:07.313Z</time>
      </trkpt>
      <trkpt lat="36.7563" lon="-4.07743">
        <ele>14.471435</ele>
        <time>2022-09-02T21:00:16.399Z</time>
      </trkpt>
      <trkpt lat="36.75624" lon="-4.07736">
        <ele>14.593036</ele>
        <time>2022-09-02T21:00:18.790Z</time>
      </trkpt>
      <trkpt lat="36.75613" lon="-4.07737">
        <ele>14.749576</ele>
        <time>2022-09-02T21:00:21.598Z</time>
      </trkpt>
      <trkpt lat="36.75605" lon="-4.07728">
        <ele>14.904559</ele>
        <time>2022-09-02T21:00:24.629Z</time>
      </trkpt>
      <trkpt lat="36.75606" lon="-4.07712">
        <ele>15.086597</ele>
        <time>2022-09-02T21:00:28.463Z</time>
      </trkpt>
      <trkpt lat="36.75501" lon="-4.07589">
        <ele>17.030836</ele>
        <time>2022-09-02T21:01:13.994Z</time>
      </trkpt>
      <trkpt lat="36.75439" lon="-4.07517">
        <ele>17.356342</ele>
        <time>2022-09-02T21:01:38.703Z</time>
      </trkpt>
      <trkpt lat="36.75421" lon="-4.07493">
        <ele>17.457615</ele>
        <time>2022-09-02T21:01:45.081Z</time>
      </trkpt>
      <trkpt lat="36.75349" lon="-4.07407">
        <ele>16.267109</ele>
        <time>2022-09-02T21:02:04.466Z</time>
      </trkpt>
      <trkpt lat="36.75251" lon="-4.07334">
        <ele>12.615726</ele>
        <time>2022-09-02T21:02:23.435Z</time>
      </trkpt>
      <trkpt lat="36.75219" lon="-4.07324">
        <ele>11.48823</ele>
        <time>2022-09-02T21:02:28.754Z</time>
      </trkpt>
      <trkpt lat="36.7519" lon="-4.07313">
        <ele>10.34663</ele>
        <time>2022-09-02T21:02:33.522Z</time>
      </trkpt>
      <trkpt lat="36.75167" lon="-4.07296">
        <ele>9.328754</ele>
        <time>2022-09-02T21:02:37.784Z</time>
      </trkpt>
      <trkpt lat="36.75122" lon="-4.07249">
        <ele>7.059317</ele>
        <time>2022-09-02T21:02:47.481Z</time>
      </trkpt>
      <trkpt lat="36.75111" lon="-4.07258">
        <ele>6.569552</ele>
        <time>2022-09-02T21:02:49.652Z</time>
      </trkpt>
      <trkpt lat="36.75097" lon="-4.07273">
        <ele>5.853505</ele>
        <time>2022-09-02T21:02:52.838Z</time>
      </trkpt>
      <trkpt lat="36.75062" lon="-4.07289">
        <ele>4.892345</ele>
        <time>2022-09-02T21:02:59.468Z</time>
      </trkpt>
      <trkpt lat="36.75026" lon="-4.07286">
        <ele>4.54523</ele>
        <time>2022-09-02T21:03:06.282Z</time>
      </trkpt>
      <trkpt lat="36.75015" lon="-4.07285">
        <ele>4.438804</ele>
        <time>2022-09-02T21:03:08.476Z</time>
      </trkpt>
      <trkpt lat="36.75015" lon="-4.07278">
        <ele>4.386666</ele>
        <time>2022-09-02T21:03:10.346Z</time>
      </trkpt>
      <trkpt lat="36.75004" lon="-4.07262">
        <ele>4.221888</ele>
        <time>2022-09-02T21:03:16.256Z</time>
      </trkpt>
      <trkpt lat="36.74996" lon="-4.07261">
        <ele>4.147546</ele>
        <time>2022-09-02T21:03:18.991Z</time>
      </trkpt>
      <trkpt lat="36.74995" lon="-4.07248">
        <ele>4.053195</ele>
        <time>2022-09-02T21:03:22.494Z</time>
      </trkpt>
      <trkpt lat="36.74984" lon="-4.0725">
        <ele>3.948946</ele>
        <time>2022-09-02T21:03:26.386Z</time>
      </trkpt>
      <trkpt lat="36.74974" lon="-4.07251">
        <ele>3.851875</ele>
        <time>2022-09-02T21:03:30.027Z</time>
      </trkpt>
      <trkpt lat="36.74978" lon="-4.07164">
        <ele>3.373666</ele>
        <time>2022-09-02T21:03:55.958Z</time>
      </trkpt>
      <trkpt lat="36.74959" lon="-4.06928">
        <ele>4.146797</ele>
        <time>2022-09-02T21:05:10.777Z</time>
      </trkpt>
      <trkpt lat="36.74965" lon="-4.06922">
        <ele>4.190786</ele>
        <time>2022-09-02T21:05:13.943Z</time>
      </trkpt>
      <trkpt lat="36.74964" lon="-4.06913">
        <ele>4.229673</ele>
        <time>2022-09-02T21:05:15.609Z</time>
      </trkpt>
      <trkpt lat="36.74952" lon="-4.06732">
        <ele>5.049705</ele>
        <time>2022-09-02T21:05:52.438Z</time>
      </trkpt>
      <trkpt lat="36.74951" lon="-4.06713">
        <ele>5.086523</ele>
        <time>2022-09-02T21:05:56.399Z</time>
      </trkpt>
      <trkpt lat="36.74944" lon="-4.0661">
        <ele>5.283316</ele>
        <time>2022-09-02T21:06:16.070Z</time>
      </trkpt>
      <trkpt lat="36.74938" lon="-4.06541">
        <ele>5.417428</ele>
        <time>2022-09-02T21:06:28.777Z</time>
      </trkpt>
      <trkpt lat="36.74925" lon="-4.06404">
        <ele>5.30722</ele>
        <time>2022-09-02T21:06:53.129Z</time>
      </trkpt>
      <trkpt lat="36.74921" lon="-4.06376">
        <ele>5.267233</ele>
        <time>2022-09-02T21:06:58.098Z</time>
      </trkpt>
      <trkpt lat="36.749" lon="-4.06271">
        <ele>5.14789</ele>
        <time>2022-09-02T21:07:16.369Z</time>
      </trkpt>
      <trkpt lat="36.74897" lon="-4.06252">
        <ele>5.150035</ele>
        <time>2022-09-02T21:07:19.808Z</time>
      </trkpt>
      <trkpt lat="36.7488" lon="-4.06161">
        <ele>5.160464</ele>
        <time>2022-09-02T21:07:36.259Z</time>
      </trkpt>
      <trkpt lat="36.74868" lon="-4.06104">
        <ele>5.1671</ele>
        <time>2022-09-02T21:07:46.894Z</time>
      </trkpt>
      <trkpt lat="36.74861" lon="-4.06065">
        <ele>5.226537</ele>
        <time>2022-09-02T21:07:54.502Z</time>
      </trkpt>
      <trkpt lat="36.74831" lon="-4.05912">
        <ele>6.024465</ele>
        <time>2022-09-02T21:08:26.634Z</time>
      </trkpt>
      <trkpt lat="36.74829" lon="-4.059">
        <ele>6.087936</ele>
        <time>2022-09-02T21:08:29.560Z</time>
      </trkpt>
      <trkpt lat="36.74818" lon="-4.05878">
        <ele>6.220039</ele>
        <time>2022-09-02T21:08:35.629Z</time>
      </trkpt>
      <trkpt lat="36.74801" lon="-4.05796">
        <ele>6.885721</ele>
        <time>2022-09-02T21:08:53.320Z</time>
      </trkpt>
      <trkpt lat="36.74798" lon="-4.05786">
        <ele>6.978475</ele>
        <time>2022-09-02T21:08:55.371Z</time>
      </trkpt>
      <trkpt lat="36.74793" lon="-4.05757">
        <ele>7.232051</ele>
        <time>2022-09-02T21:09:01.996Z</time>
      </trkpt>
      <trkpt lat="36.74785" lon="-4.05718">
        <ele>7.578437</ele>
        <time>2022-09-02T21:09:11.866Z</time>
      </trkpt>
      <trkpt lat="36.74778" lon="-4.05681">
        <ele>7.904391</ele>
        <time>2022-09-02T21:09:21.075Z</time>
      </trkpt>
      <trkpt lat="36.74771" lon="-4.05647">
        <ele>8.199667</ele>
        <time>2022-09-02T21:09:29.185Z</time>
      </trkpt>
      <trkpt lat="36.74765" lon="-4.05622">
        <ele>8.289094</ele>
        <time>2022-09-02T21:09:35.846Z</time>
      </trkpt>
      <trkpt lat="36.74756" lon="-4.05613">
        <ele>8.324789</ele>
        <time>2022-09-02T21:09:39.157Z</time>
      </trkpt>
      <trkpt lat="36.74749" lon="-4.05605">
        <ele>8.351496</ele>
        <time>2022-09-02T21:09:42.040Z</time>
      </trkpt>
      <trkpt lat="36.7475" lon="-4.05582">
        <ele>8.405999</ele>
        <time>2022-09-02T21:09:46.991Z</time>
      </trkpt>
      <trkpt lat="36.74747" lon="-4.05565">
        <ele>8.445825</ele>
        <time>2022-09-02T21:09:50.211Z</time>
      </trkpt>
      <trkpt lat="36.7474" lon="-4.05555">
        <ele>8.476532</ele>
        <time>2022-09-02T21:09:53.382Z</time>
      </trkpt>
      <trkpt lat="36.74732" lon="-4.05513">
        <ele>8.579827</ele>
        <time>2022-09-02T21:10:01.325Z</time>
      </trkpt>
      <trkpt lat="36.74726" lon="-4.05487">
        <ele>8.643307</ele>
        <time>2022-09-02T21:10:05.945Z</time>
      </trkpt>
      <trkpt lat="36.74722" lon="-4.05466">
        <ele>8.692894</ele>
        <time>2022-09-02T21:10:10.050Z</time>
      </trkpt>
      <trkpt lat="36.74714" lon="-4.0543">
        <ele>8.697751</ele>
        <time>2022-09-02T21:10:16.680Z</time>
      </trkpt>
      <trkpt lat="36.74711" lon="-4.05413">
        <ele>8.48889</ele>
        <time>2022-09-02T21:10:19.688Z</time>
      </trkpt>
      <trkpt lat="36.74706" lon="-4.05392">
        <ele>8.231947</ele>
        <time>2022-09-02T21:10:23.259Z</time>
      </trkpt>
      <trkpt lat="36.74723" lon="-4.05387">
        <ele>7.978223</ele>
        <time>2022-09-02T21:10:26.823Z</time>
      </trkpt>
      <trkpt lat="36.74714" lon="-4.05345">
        <ele>7.458562</ele>
        <time>2022-09-02T21:10:33.336Z</time>
      </trkpt>
      <trkpt lat="36.747" lon="-4.05276">
        <ele>6.606165</ele>
        <time>2022-09-02T21:10:43.774Z</time>
      </trkpt>
      <trkpt lat="36.74711" lon="-4.05261">
        <ele>6.35676</ele>
        <time>2022-09-02T21:10:46.846Z</time>
      </trkpt>
      <trkpt lat="36.74715" lon="-4.05261">
        <ele>6.295542</ele>
        <time>2022-09-02T21:10:47.591Z</time>
      </trkpt>
      <trkpt lat="36.74718" lon="-4.05237">
        <ele>6.055653</ele>
        <time>2022-09-02T21:10:51.185Z</time>
      </trkpt>
      <trkpt lat="36.74702" lon="-4.05223">
        <ele>5.949334</ele>
        <time>2022-09-02T21:10:54.670Z</time>
      </trkpt>
      <trkpt lat="36.74696" lon="-4.0522">
        <ele>5.90814</ele>
        <time>2022-09-02T21:10:56.047Z</time>
      </trkpt>
      <trkpt lat="36.74689" lon="-4.05205">
        <ele>5.830675</ele>
        <time>2022-09-02T21:10:58.632Z</time>
      </trkpt>
      <trkpt lat="36.74649" lon="-4.05018">
        <ele>5.135801</ele>
        <time>2022-09-02T21:11:32.718Z</time>
      </trkpt>
      <trkpt lat="36.74641" lon="-4.04975">
        <ele>5.24345</ele>
        <time>2022-09-02T21:11:41.086Z</time>
      </trkpt>
      <trkpt lat="36.74639" lon="-4.04966">
        <ele>5.266862</ele>
        <time>2022-09-02T21:11:43.009Z</time>
      </trkpt>
      <trkpt lat="36.74631" lon="-4.04917">
        <ele>5.38968</ele>
        <time>2022-09-02T21:11:52.619Z</time>
      </trkpt>
      <trkpt lat="36.74647" lon="-4.04896">
        <ele>5.463649</ele>
        <time>2022-09-02T21:11:58.320Z</time>
      </trkpt>
      <trkpt lat="36.74638" lon="-4.04895">
        <ele>5.491274</ele>
        <time>2022-09-02T21:12:00.713Z</time>
      </trkpt>
      <trkpt lat="36.74632" lon="-4.04902">
        <ele>5.517129</ele>
        <time>2022-09-02T21:12:02.825Z</time>
      </trkpt>
      <trkpt lat="36.74627" lon="-4.04897">
        <ele>5.536168</ele>
        <time>2022-09-02T21:12:04.356Z</time>
      </trkpt>
      <trkpt lat="36.74628" lon="-4.0489">
        <ele>5.555136</ele>
        <time>2022-09-02T21:12:05.904Z</time>
      </trkpt>
      <trkpt lat="36.74633" lon="-4.04887">
        <ele>5.570985</ele>
        <time>2022-09-02T21:12:07.200Z</time>
      </trkpt>
      <trkpt lat="36.74622" lon="-4.04835">
        <ele>5.643803</ele>
        <time>2022-09-02T21:12:18.654Z</time>
      </trkpt>
      <trkpt lat="36.74617" lon="-4.04812">
        <ele>5.658315</ele>
        <time>2022-09-02T21:12:23.330Z</time>
      </trkpt>
      <trkpt lat="36.74614" lon="-4.04796">
        <ele>5.668253</ele>
        <time>2022-09-02T21:12:26.514Z</time>
      </trkpt>
      <trkpt lat="36.74596" lon="-4.04712">
        <ele>5.721846</ele>
        <time>2022-09-02T21:12:43.149Z</time>
      </trkpt>
      <trkpt lat="36.74591" lon="-4.04692">
        <ele>5.734643</ele>
        <time>2022-09-02T21:12:46.966Z</time>
      </trkpt>
      <trkpt lat="36.74582" lon="-4.04681">
        <ele>5.744309</ele>
        <time>2022-09-02T21:12:49.841Z</time>
      </trkpt>
      <trkpt lat="36.7458" lon="-4.04683">
        <ele>5.746472</ele>
        <time>2022-09-02T21:12:50.450Z</time>
      </trkpt>
      <trkpt lat="36.74569" lon="-4.04685">
        <ele>5.754975</ele>
        <time>2022-09-02T21:12:52.813Z</time>
      </trkpt>
      <trkpt lat="36.74567" lon="-4.04684">
        <ele>5.757247</ele>
        <time>2022-09-02T21:12:53.460Z</time>
      </trkpt>
      <trkpt lat="36.74564" lon="-4.0468">
        <ele>5.760504</ele>
        <time>2022-09-02T21:12:54.399Z</time>
      </trkpt>
      <trkpt lat="36.74562" lon="-4.04669">
        <ele>5.689895</ele>
        <time>2022-09-02T21:12:56.252Z</time>
      </trkpt>
      <trkpt lat="36.74565" lon="-4.04663">
        <ele>5.640764</ele>
        <time>2022-09-02T21:12:57.412Z</time>
      </trkpt>
      <trkpt lat="36.74564" lon="-4.04657">
        <ele>5.598212</ele>
        <time>2022-09-02T21:12:58.394Z</time>
      </trkpt>
      <trkpt lat="36.74565" lon="-4.04633">
        <ele>5.42501</ele>
        <time>2022-09-02T21:13:02.399Z</time>
      </trkpt>
      <trkpt lat="36.74552" lon="-4.04573">
        <ele>4.972919</ele>
        <time>2022-09-02T21:13:12.384Z</time>
      </trkpt>
      <trkpt lat="36.74556" lon="-4.04563">
        <ele>4.893702</ele>
        <time>2022-09-02T21:13:14.057Z</time>
      </trkpt>
      <trkpt lat="36.74545" lon="-4.04506">
        <ele>4.467796</ele>
        <time>2022-09-02T21:13:23.172Z</time>
      </trkpt>
      <trkpt lat="36.74517" lon="-4.04376">
        <ele>4.061529</ele>
        <time>2022-09-02T21:13:44.938Z</time>
      </trkpt>
      <trkpt lat="36.74511" lon="-4.04378">
        <ele>4.054698</ele>
        <time>2022-09-02T21:13:46.320Z</time>
      </trkpt>
      <trkpt lat="36.74498" lon="-4.04317">
        <ele>3.99611</ele>
        <time>2022-09-02T21:13:58.440Z</time>
      </trkpt>
      <trkpt lat="36.74494" lon="-4.04295">
        <ele>3.975046</ele>
        <time>2022-09-02T21:14:02.739Z</time>
      </trkpt>
      <trkpt lat="36.74487" lon="-4.04265">
        <ele>3.946275</ele>
        <time>2022-09-02T21:14:08.859Z</time>
      </trkpt>
      <trkpt lat="36.74484" lon="-4.04248">
        <ele>3.949113</ele>
        <time>2022-09-02T21:14:12.277Z</time>
      </trkpt>
      <trkpt lat="36.74476" lon="-4.0421">
        <ele>4.027315</ele>
        <time>2022-09-02T21:14:20.417Z</time>
      </trkpt>
      <trkpt lat="36.7447" lon="-4.0418">
        <ele>4.087706</ele>
        <time>2022-09-02T21:14:26.769Z</time>
      </trkpt>
      <trkpt lat="36.7446" lon="-4.04133">
        <ele>4.185571</ele>
        <time>2022-09-02T21:14:36.902Z</time>
      </trkpt>
      <trkpt lat="36.74458" lon="-4.04125">
        <ele>4.200701</ele>
        <time>2022-09-02T21:14:38.479Z</time>
      </trkpt>
      <trkpt lat="36.74423" lon="-4.03958">
        <ele>4.366838</ele>
        <time>2022-09-02T21:15:08.165Z</time>
      </trkpt>
      <trkpt lat="36.74412" lon="-4.03945">
        <ele>4.363643</ele>
        <time>2022-09-02T21:15:11.272Z</time>
      </trkpt>
      <trkpt lat="36.74341" lon="-4.03598">
        <ele>4.945785</ele>
        <time>2022-09-02T21:16:21.083Z</time>
      </trkpt>
      <trkpt lat="36.74337" lon="-4.0358">
        <ele>5.044277</ele>
        <time>2022-09-02T21:16:25.445Z</time>
      </trkpt>
      <trkpt lat="36.74316" lon="-4.03492">
        <ele>5.53277</ele>
        <time>2022-09-02T21:16:46.062Z</time>
      </trkpt>
      <trkpt lat="36.74273" lon="-4.03387">
        <ele>6.017263</ele>
        <time>2022-09-02T21:17:11.356Z</time>
      </trkpt>
      <trkpt lat="36.74252" lon="-4.03322">
        <ele>5.697763</ele>
        <time>2022-09-02T21:17:24.187Z</time>
      </trkpt>
      <trkpt lat="36.74252" lon="-4.03262">
        <ele>5.426239</ele>
        <time>2022-09-02T21:17:34.501Z</time>
      </trkpt>
      <trkpt lat="36.74264" lon="-4.03079">
        <ele>4.001762</ele>
        <time>2022-09-02T21:18:03.935Z</time>
      </trkpt>
      <trkpt lat="36.7427" lon="-4.0301">
        <ele>3.284661</ele>
        <time>2022-09-02T21:18:15.007Z</time>
      </trkpt>
      <trkpt lat="36.74278" lon="-4.02976">
        <ele>2.917798</ele>
        <time>2022-09-02T21:18:20.830Z</time>
      </trkpt>
      <trkpt lat="36.74306" lon="-4.02924">
        <ele>2.721317</ele>
        <time>2022-09-02T21:18:31.703Z</time>
      </trkpt>
      <trkpt lat="36.74378" lon="-4.02838">
        <ele>2.675555</ele>
        <time>2022-09-02T21:18:54.866Z</time>
      </trkpt>
      <trkpt lat="36.74391" lon="-4.02797">
        <ele>2.659126</ele>
        <time>2022-09-02T21:19:04.073Z</time>
      </trkpt>
      <trkpt lat="36.74398" lon="-4.0272">
        <ele>2.894746</ele>
        <time>2022-09-02T21:19:20.070Z</time>
      </trkpt>
      <trkpt lat="36.74399" lon="-4.02672">
        <ele>3.067965</ele>
        <time>2022-09-02T21:19:30.004Z</time>
      </trkpt>
      <trkpt lat="36.74429" lon="-4.02465">
        <ele>3.459103</ele>
        <time>2022-09-02T21:20:12.417Z</time>
      </trkpt>
      <trkpt lat="36.7443" lon="-4.02436">
        <ele>3.457971</ele>
        <time>2022-09-02T21:20:17.637Z</time>
      </trkpt>
      <trkpt lat="36.74435" lon="-4.02428">
        <ele>3.457574</ele>
        <time>2022-09-02T21:20:19.636Z</time>
      </trkpt>
      <trkpt lat="36.74429" lon="-4.02378">
        <ele>3.455633</ele>
        <time>2022-09-02T21:20:28.182Z</time>
      </trkpt>
      <trkpt lat="36.74399" lon="-4.02133">
        <ele>2.856135</ele>
        <time>2022-09-02T21:21:10.116Z</time>
      </trkpt>
      <trkpt lat="36.74393" lon="-4.02086">
        <ele>2.912654</ele>
        <time>2022-09-02T21:21:18.639Z</time>
      </trkpt>
      <trkpt lat="36.74374" lon="-4.01918">
        <ele>3.289183</ele>
        <time>2022-09-02T21:21:51.637Z</time>
      </trkpt>
      <trkpt lat="36.7437" lon="-4.01889">
        <ele>3.352368</ele>
        <time>2022-09-02T21:21:57.484Z</time>
      </trkpt>
      <trkpt lat="36.74367" lon="-4.01871">
        <ele>3.388184</ele>
        <time>2022-09-02T21:22:00.945Z</time>
      </trkpt>
      <trkpt lat="36.74365" lon="-4.01855">
        <ele>3.420801</ele>
        <time>2022-09-02T21:22:04.121Z</time>
      </trkpt>
      <trkpt lat="36.74348" lon="-4.01731">
        <ele>3.668584</ele>
        <time>2022-09-02T21:22:27.644Z</time>
      </trkpt>
      <trkpt lat="36.74331" lon="-4.01656">
        <ele>3.833624</ele>
        <time>2022-09-02T21:22:42.083Z</time>
      </trkpt>
      <trkpt lat="36.74313" lon="-4.0161">
        <ele>3.956879</ele>
        <time>2022-09-02T21:22:51.644Z</time>
      </trkpt>
      <trkpt lat="36.74303" lon="-4.01597">
        <ele>3.998897</ele>
        <time>2022-09-02T21:22:55.943Z</time>
      </trkpt>
      <trkpt lat="36.74248" lon="-4.0147">
        <ele>4.434072</ele>
        <time>2022-09-02T21:23:31.800Z</time>
      </trkpt>
      <trkpt lat="36.74235" lon="-4.01421">
        <ele>4.855197</ele>
        <time>2022-09-02T21:23:44.894Z</time>
      </trkpt>
      <trkpt lat="36.74228" lon="-4.01307">
        <ele>5.791573</ele>
        <time>2022-09-02T21:24:16.861Z</time>
      </trkpt>
      <trkpt lat="36.74209" lon="-4.01235">
        <ele>6.327171</ele>
        <time>2022-09-02T21:24:40.019Z</time>
      </trkpt>
      <trkpt lat="36.74206" lon="-4.01206">
        <ele>6.490688</ele>
        <time>2022-09-02T21:24:48.269Z</time>
      </trkpt>
      <trkpt lat="36.74203" lon="-4.01104">
        <ele>7.048006</ele>
        <time>2022-09-02T21:25:15.780Z</time>
      </trkpt>
      <trkpt lat="36.74183" lon="-4.01038">
        <ele>7.303134</ele>
        <time>2022-09-02T21:25:32.422Z</time>
      </trkpt>
      <trkpt lat="36.74125" lon="-4.00944">
        <ele>6.388828</ele>
        <time>2022-09-02T21:25:57.866Z</time>
      </trkpt>
      <trkpt lat="36.7411" lon="-4.00911">
        <ele>6.095078</ele>
        <time>2022-09-02T21:26:05.504Z</time>
      </trkpt>
      <trkpt lat="36.74096" lon="-4.00877">
        <ele>5.795066</ele>
        <time>2022-09-02T21:26:13.524Z</time>
      </trkpt>
      <trkpt lat="36.74084" lon="-4.00827">
        <ele>5.502627</ele>
        <time>2022-09-02T21:26:24.517Z</time>
      </trkpt>
      <trkpt lat="36.74077" lon="-4.00742">
        <ele>5.123513</ele>
        <time>2022-09-02T21:26:43.519Z</time>
      </trkpt>
      <trkpt lat="36.74083" lon="-4.00706">
        <ele>4.964857</ele>
        <time>2022-09-02T21:26:51.803Z</time>
      </trkpt>
      <trkpt lat="36.74111" lon="-4.0062">
        <ele>4.588751</ele>
        <time>2022-09-02T21:27:13.527Z</time>
      </trkpt>
      <trkpt lat="36.74127" lon="-4.00557">
        <ele>4.393075</ele>
        <time>2022-09-02T21:27:28.530Z</time>
      </trkpt>
      <trkpt lat="36.74133" lon="-4.00512">
        <ele>4.256482</ele>
        <time>2022-09-02T21:27:38.825Z</time>
      </trkpt>
      <trkpt lat="36.74135" lon="-4.00463">
        <ele>4.1082</ele>
        <time>2022-09-02T21:27:49.835Z</time>
      </trkpt>
      <trkpt lat="36.74141" lon="-4.0047">
        <ele>4.079458</ele>
        <time>2022-09-02T21:27:52.710Z</time>
      </trkpt>
      <trkpt lat="36.74137" lon="-4.00392">
        <ele>3.833049</ele>
        <time>2022-09-02T21:28:05.312Z</time>
      </trkpt>
      <trkpt lat="36.74083" lon="-4.0013">
        <ele>3.414333</ele>
        <time>2022-09-02T21:28:51.795Z</time>
      </trkpt>
      <trkpt lat="36.74079" lon="-4.00108">
        <ele>3.455322</ele>
        <time>2022-09-02T21:28:56.356Z</time>
      </trkpt>
      <trkpt lat="36.74076" lon="-4.00094">
        <ele>3.480886</ele>
        <time>2022-09-02T21:28:59.101Z</time>
      </trkpt>
      <trkpt lat="36.74073" lon="-4.00076">
        <ele>3.514529</ele>
        <time>2022-09-02T21:29:02.828Z</time>
      </trkpt>
      <trkpt lat="36.74082" lon="-4.00063">
        <ele>3.545845</ele>
        <time>2022-09-02T21:29:06.445Z</time>
      </trkpt>
      <trkpt lat="36.74078" lon="-4.00037">
        <ele>3.593243</ele>
        <time>2022-09-02T21:29:11.841Z</time>
      </trkpt>
      <trkpt lat="36.74072" lon="-4.00009">
        <ele>3.644743</ele>
        <time>2022-09-02T21:29:17.746Z</time>
      </trkpt>
      <trkpt lat="36.74057" lon="-3.99934">
        <ele>4.135972</ele>
        <time>2022-09-02T21:29:34.315Z</time>
      </trkpt>
      <trkpt lat="36.74045" lon="-3.99929">
        <ele>4.237312</ele>
        <time>2022-09-02T21:29:37.637Z</time>
      </trkpt>
      <trkpt lat="36.74021" lon="-3.99797">
        <ele>5.125588</ele>
        <time>2022-09-02T21:30:06.976Z</time>
      </trkpt>
      <trkpt lat="36.74" lon="-3.9968">
        <ele>6.065182</ele>
        <time>2022-09-02T21:30:33.098Z</time>
      </trkpt>
      <trkpt lat="36.73992" lon="-3.99634">
        <ele>6.430033</ele>
        <time>2022-09-02T21:30:43.246Z</time>
      </trkpt>
      <trkpt lat="36.73986" lon="-3.99632">
        <ele>6.489779</ele>
        <time>2022-09-02T21:30:44.950Z</time>
      </trkpt>
      <trkpt lat="36.73976" lon="-3.99583">
        <ele>6.88264</ele>
        <time>2022-09-02T21:30:56.223Z</time>
      </trkpt>
      <trkpt lat="36.73974" lon="-3.99579">
        <ele>6.904798</ele>
        <time>2022-09-02T21:30:57.124Z</time>
      </trkpt>
      <trkpt lat="36.73973" lon="-3.99574">
        <ele>6.933229</ele>
        <time>2022-09-02T21:30:58.295Z</time>
      </trkpt>
      <trkpt lat="36.73962" lon="-3.9952">
        <ele>7.218095</ele>
        <time>2022-09-02T21:31:10.785Z</time>
      </trkpt>
      <trkpt lat="36.73954" lon="-3.99485">
        <ele>7.407367</ele>
        <time>2022-09-02T21:31:19.188Z</time>
      </trkpt>
      <trkpt lat="36.7395" lon="-3.99468">
        <ele>7.497525</ele>
        <time>2022-09-02T21:31:23.346Z</time>
      </trkpt>
      <trkpt lat="36.73942" lon="-3.99433">
        <ele>7.686301</ele>
        <time>2022-09-02T21:31:31.244Z</time>
      </trkpt>
      <trkpt lat="36.73944" lon="-3.99422">
        <ele>7.74227</ele>
        <time>2022-09-02T21:31:33.535Z</time>
      </trkpt>
      <trkpt lat="36.7394" lon="-3.99407">
        <ele>7.824452</ele>
        <time>2022-09-02T21:31:36.499Z</time>
      </trkpt>
      <trkpt lat="36.73938" lon="-3.994">
        <ele>7.865404</ele>
        <time>2022-09-02T21:31:37.937Z</time>
      </trkpt>
      <trkpt lat="36.73924" lon="-3.99346">
        <ele>7.946457</ele>
        <time>2022-09-02T21:31:47.864Z</time>
      </trkpt>
      <trkpt lat="36.73908" lon="-3.9929">
        <ele>7.72792</ele>
        <time>2022-09-02T21:31:57.922Z</time>
      </trkpt>
      <trkpt lat="36.73902" lon="-3.99266">
        <ele>7.637435</ele>
        <time>2022-09-02T21:32:01.928Z</time>
      </trkpt>
      <trkpt lat="36.73895" lon="-3.99242">
        <ele>7.543344</ele>
        <time>2022-09-02T21:32:06.282Z</time>
      </trkpt>
      <trkpt lat="36.73888" lon="-3.99216">
        <ele>7.445207</ele>
        <time>2022-09-02T21:32:10.705Z</time>
      </trkpt>
      <trkpt lat="36.73877" lon="-3.99178">
        <ele>7.29578</ele>
        <time>2022-09-02T21:32:17.563Z</time>
      </trkpt>
      <trkpt lat="36.73857" lon="-3.99102">
        <ele>7.100729</ele>
        <time>2022-09-02T21:32:30.836Z</time>
      </trkpt>
      <trkpt lat="36.73853" lon="-3.99091">
        <ele>7.076993</ele>
        <time>2022-09-02T21:32:32.779Z</time>
      </trkpt>
      <trkpt lat="36.73838" lon="-3.99033">
        <ele>6.956533</ele>
        <time>2022-09-02T21:32:42.983Z</time>
      </trkpt>
      <trkpt lat="36.73826" lon="-3.98992">
        <ele>6.872421</ele>
        <time>2022-09-02T21:32:50.601Z</time>
      </trkpt>
      <trkpt lat="36.73821" lon="-3.98973">
        <ele>6.832595</ele>
        <time>2022-09-02T21:32:54.517Z</time>
      </trkpt>
      <trkpt lat="36.73811" lon="-3.98935">
        <ele>6.762449</ele>
        <time>2022-09-02T21:33:02.218Z</time>
      </trkpt>
      <trkpt lat="36.73797" lon="-3.98882">
        <ele>6.705971</ele>
        <time>2022-09-02T21:33:12.752Z</time>
      </trkpt>
      <trkpt lat="36.73787" lon="-3.9885">
        <ele>6.669997</ele>
        <time>2022-09-02T21:33:19.241Z</time>
      </trkpt>
      <trkpt lat="36.73786" lon="-3.98845">
        <ele>6.665019</ele>
        <time>2022-09-02T21:33:20.126Z</time>
      </trkpt>
      <trkpt lat="36.73773" lon="-3.98796">
        <ele>6.611412</ele>
        <time>2022-09-02T21:33:29.246Z</time>
      </trkpt>
      <trkpt lat="36.73741" lon="-3.98679">
        <ele>6.182896</ele>
        <time>2022-09-02T21:33:49.739Z</time>
      </trkpt>
      <trkpt lat="36.73736" lon="-3.98663">
        <ele>6.07708</ele>
        <time>2022-09-02T21:33:52.399Z</time>
      </trkpt>
      <trkpt lat="36.73724" lon="-3.9862">
        <ele>5.786603</ele>
        <time>2022-09-02T21:33:59.672Z</time>
      </trkpt>
      <trkpt lat="36.7372" lon="-3.98603">
        <ele>5.676907</ele>
        <time>2022-09-02T21:34:02.422Z</time>
      </trkpt>
      <trkpt lat="36.73713" lon="-3.98579">
        <ele>5.512488</ele>
        <time>2022-09-02T21:34:06.471Z</time>
      </trkpt>
      <trkpt lat="36.73711" lon="-3.9857">
        <ele>5.452241</ele>
        <time>2022-09-02T21:34:08.037Z</time>
      </trkpt>
      <trkpt lat="36.73704" lon="-3.98569">
        <ele>5.395561</ele>
        <time>2022-09-02T21:34:09.443Z</time>
      </trkpt>
      <trkpt lat="36.737" lon="-3.98575">
        <ele>5.353251</ele>
        <time>2022-09-02T21:34:10.871Z</time>
      </trkpt>
      <trkpt lat="36.73689" lon="-3.98568">
        <ele>5.254405</ele>
        <time>2022-09-02T21:34:13.435Z</time>
      </trkpt>
      <trkpt lat="36.73661" lon="-3.98469">
        <ele>5.062084</ele>
        <time>2022-09-02T21:34:31.818Z</time>
      </trkpt>
      <trkpt lat="36.7364" lon="-3.98391">
        <ele>5.013968</ele>
        <time>2022-09-02T21:34:47.361Z</time>
      </trkpt>
      <trkpt lat="36.73626" lon="-3.98382">
        <ele>5.002155</ele>
        <time>2022-09-02T21:34:51.274Z</time>
      </trkpt>
      <trkpt lat="36.73619" lon="-3.98359">
        <ele>4.987649</ele>
        <time>2022-09-02T21:34:56.206Z</time>
      </trkpt>
      <trkpt lat="36.73608" lon="-3.98321">
        <ele>5.202443</ele>
        <time>2022-09-02T21:35:04.420Z</time>
      </trkpt>
      <trkpt lat="36.73617" lon="-3.98317">
        <ele>5.296985</ele>
        <time>2022-09-02T21:35:06.678Z</time>
      </trkpt>
      <trkpt lat="36.73639" lon="-3.98308">
        <ele>5.555077</ele>
        <time>2022-09-02T21:35:13.129Z</time>
      </trkpt>
      <trkpt lat="36.73616" lon="-3.98224">
        <ele>6.33148</ele>
        <time>2022-09-02T21:35:33.331Z</time>
      </trkpt>
      <trkpt lat="36.73609" lon="-3.98198">
        <ele>6.567957</ele>
        <time>2022-09-02T21:35:39.999Z</time>
      </trkpt>
      <trkpt lat="36.73592" lon="-3.98135">
        <ele>7.068941</ele>
        <time>2022-09-02T21:35:56.172Z</time>
      </trkpt>
      <trkpt lat="36.73588" lon="-3.9812">
        <ele>7.155548</ele>
        <time>2022-09-02T21:35:59.665Z</time>
      </trkpt>
      <trkpt lat="36.73581" lon="-3.98095">
        <ele>7.297719</ele>
        <time>2022-09-02T21:36:05.126Z</time>
      </trkpt>
      <trkpt lat="36.73561" lon="-3.98023">
        <ele>7.711161</ele>
        <time>2022-09-02T21:36:20.881Z</time>
      </trkpt>
      <trkpt lat="36.73546" lon="-3.97985">
        <ele>7.937189</ele>
        <time>2022-09-02T21:36:29.121Z</time>
      </trkpt>
      <trkpt lat="36.73528" lon="-3.97957">
        <ele>8.133737</ele>
        <time>2022-09-02T21:36:35.795Z</time>
      </trkpt>
      <trkpt lat="36.73524" lon="-3.97956">
        <ele>8.145275</ele>
        <time>2022-09-02T21:36:36.813Z</time>
      </trkpt>
      <trkpt lat="36.73517" lon="-3.97949">
        <ele>8.089245</ele>
        <time>2022-09-02T21:36:38.708Z</time>
      </trkpt>
      <trkpt lat="36.73515" lon="-3.97941">
        <ele>8.045674</ele>
        <time>2022-09-02T21:36:40.193Z</time>
      </trkpt>
      <trkpt lat="36.73517" lon="-3.97931">
        <ele>7.987773</ele>
        <time>2022-09-02T21:36:42.305Z</time>
      </trkpt>
      <trkpt lat="36.73509" lon="-3.97903">
        <ele>7.835738</ele>
        <time>2022-09-02T21:36:47.547Z</time>
      </trkpt>
      <trkpt lat="36.73494" lon="-3.97896">
        <ele>7.736632</ele>
        <time>2022-09-02T21:36:51.022Z</time>
      </trkpt>
      <trkpt lat="36.73474" lon="-3.97832">
        <ele>7.384087</ele>
        <time>2022-09-02T21:37:02.410Z</time>
      </trkpt>
      <trkpt lat="36.73472" lon="-3.97807">
        <ele>7.255064</ele>
        <time>2022-09-02T21:37:06.519Z</time>
      </trkpt>
      <trkpt lat="36.73443" lon="-3.97689">
        <ele>6.690958</ele>
        <time>2022-09-02T21:37:27.461Z</time>
      </trkpt>
      <trkpt lat="36.73455" lon="-3.97677">
        <ele>6.611451</ele>
        <time>2022-09-02T21:37:30.729Z</time>
      </trkpt>
      <trkpt lat="36.73451" lon="-3.97666">
        <ele>6.559658</ele>
        <time>2022-09-02T21:37:32.774Z</time>
      </trkpt>
      <trkpt lat="36.73459" lon="-3.97652">
        <ele>6.484429</ele>
        <time>2022-09-02T21:37:35.812Z</time>
      </trkpt>
      <trkpt lat="36.7345" lon="-3.97619">
        <ele>6.337555</ele>
        <time>2022-09-02T21:37:41.608Z</time>
      </trkpt>
      <trkpt lat="36.73424" lon="-3.97526">
        <ele>6.071105</ele>
        <time>2022-09-02T21:37:58.414Z</time>
      </trkpt>
      <trkpt lat="36.73409" lon="-3.9747">
        <ele>6.105825</ele>
        <time>2022-09-02T21:38:08.754Z</time>
      </trkpt>
      <trkpt lat="36.73407" lon="-3.97464">
        <ele>6.109335</ele>
        <time>2022-09-02T21:38:09.785Z</time>
      </trkpt>
      <trkpt lat="36.73363" lon="-3.97302">
        <ele>6.715211</ele>
        <time>2022-09-02T21:38:42.335Z</time>
      </trkpt>
      <trkpt lat="36.7336" lon="-3.97289">
        <ele>6.876014</ele>
        <time>2022-09-02T21:38:45.160Z</time>
      </trkpt>
      <trkpt lat="36.73346" lon="-3.97243">
        <ele>7.47489</ele>
        <time>2022-09-02T21:38:57.012Z</time>
      </trkpt>
      <trkpt lat="36.73304" lon="-3.97087">
        <ele>9.473175</ele>
        <time>2022-09-02T21:39:40.052Z</time>
      </trkpt>
      <trkpt lat="36.73285" lon="-3.97018">
        <ele>10.365291</ele>
        <time>2022-09-02T21:39:59.027Z</time>
      </trkpt>
      <trkpt lat="36.73278" lon="-3.96991">
        <ele>10.721807</ele>
        <time>2022-09-02T21:40:05.994Z</time>
      </trkpt>
      <trkpt lat="36.73263" lon="-3.96937">
        <ele>11.415933</ele>
        <time>2022-09-02T21:40:18.851Z</time>
      </trkpt>
      <trkpt lat="36.73251" lon="-3.96893">
        <ele>11.613592</ele>
        <time>2022-09-02T21:40:28.216Z</time>
      </trkpt>
      <trkpt lat="36.73247" lon="-3.96878">
        <ele>11.588756</ele>
        <time>2022-09-02T21:40:30.943Z</time>
      </trkpt>
      <trkpt lat="36.73232" lon="-3.96823">
        <ele>11.495809</ele>
        <time>2022-09-02T21:40:40.861Z</time>
      </trkpt>
      <trkpt lat="36.73225" lon="-3.96799">
        <ele>11.454394</ele>
        <time>2022-09-02T21:40:45.159Z</time>
      </trkpt>
      <trkpt lat="36.73216" lon="-3.96764">
        <ele>11.39521</ele>
        <time>2022-09-02T21:40:51.292Z</time>
      </trkpt>
      <trkpt lat="36.7321" lon="-3.96743">
        <ele>11.360193</ele>
        <time>2022-09-02T21:40:54.930Z</time>
      </trkpt>
      <trkpt lat="36.73192" lon="-3.96678">
        <ele>11.26402</ele>
        <time>2022-09-02T21:41:06.303Z</time>
      </trkpt>
      <trkpt lat="36.7311" lon="-3.96376">
        <ele>12.011353</ele>
        <time>2022-09-02T21:42:02.711Z</time>
      </trkpt>
      <trkpt lat="36.73109" lon="-3.96372">
        <ele>12.046692</ele>
        <time>2022-09-02T21:42:03.746Z</time>
      </trkpt>
      <trkpt lat="36.73088" lon="-3.96297">
        <ele>12.663814</ele>
        <time>2022-09-02T21:42:24.636Z</time>
      </trkpt>
      <trkpt lat="36.73082" lon="-3.96276">
        <ele>12.872183</ele>
        <time>2022-09-02T21:42:31.055Z</time>
      </trkpt>
      <trkpt lat="36.73079" lon="-3.96264">
        <ele>13.028319</ele>
        <time>2022-09-02T21:42:34.665Z</time>
      </trkpt>
      <trkpt lat="36.73069" lon="-3.96227">
        <ele>13.519591</ele>
        <time>2022-09-02T21:42:45.746Z</time>
      </trkpt>
      <trkpt lat="36.73054" lon="-3.96171">
        <ele>14.266827</ele>
        <time>2022-09-02T21:43:01.950Z</time>
      </trkpt>
      <trkpt lat="36.73046" lon="-3.96144">
        <ele>14.628415</ele>
        <time>2022-09-02T21:43:08.598Z</time>
      </trkpt>
      <trkpt lat="36.73041" lon="-3.96125">
        <ele>14.881988</ele>
        <time>2022-09-02T21:43:13.366Z</time>
      </trkpt>
      <trkpt lat="36.7303" lon="-3.96081">
        <ele>15.466503</ele>
        <time>2022-09-02T21:43:22.953Z</time>
      </trkpt>
      <trkpt lat="36.73026" lon="-3.96067">
        <ele>15.597071</ele>
        <time>2022-09-02T21:43:25.708Z</time>
      </trkpt>
      <trkpt lat="36.73008" lon="-3.96013">
        <ele>14.634484</ele>
        <time>2022-09-02T21:43:35.764Z</time>
      </trkpt>
      <trkpt lat="36.73005" lon="-3.95998">
        <ele>14.376059</ele>
        <time>2022-09-02T21:43:38.272Z</time>
      </trkpt>
      <trkpt lat="36.73004" lon="-3.95994">
        <ele>14.29173</ele>
        <time>2022-09-02T21:43:39.024Z</time>
      </trkpt>
      <trkpt lat="36.72997" lon="-3.95973">
        <ele>13.920939</ele>
        <time>2022-09-02T21:43:42.279Z</time>
      </trkpt>
      <trkpt lat="36.72987" lon="-3.95935">
        <ele>13.255895</ele>
        <time>2022-09-02T21:43:47.800Z</time>
      </trkpt>
      <trkpt lat="36.72983" lon="-3.95912">
        <ele>12.87042</ele>
        <time>2022-09-02T21:43:50.854Z</time>
      </trkpt>
      <trkpt lat="36.72972" lon="-3.95874">
        <ele>12.193082</ele>
        <time>2022-09-02T21:43:56.252Z</time>
      </trkpt>
      <trkpt lat="36.72964" lon="-3.95852">
        <ele>11.83493</ele>
        <time>2022-09-02T21:43:59.473Z</time>
      </trkpt>
      <trkpt lat="36.72961" lon="-3.95832">
        <ele>11.646672</ele>
        <time>2022-09-02T21:44:02.131Z</time>
      </trkpt>
      <trkpt lat="36.72954" lon="-3.95796">
        <ele>11.295287</ele>
        <time>2022-09-02T21:44:07.246Z</time>
      </trkpt>
      <trkpt lat="36.72949" lon="-3.95737">
        <ele>10.726661</ele>
        <time>2022-09-02T21:44:16.453Z</time>
      </trkpt>
      <trkpt lat="36.72957" lon="-3.95635">
        <ele>9.768938</ele>
        <time>2022-09-02T21:44:35.297Z</time>
      </trkpt>
      <trkpt lat="36.72962" lon="-3.95581">
        <ele>10.14105</ele>
        <time>2022-09-02T21:44:47.749Z</time>
      </trkpt>
      <trkpt lat="36.72964" lon="-3.95558">
        <ele>10.295019</ele>
        <time>2022-09-02T21:44:53.096Z</time>
      </trkpt>
      <trkpt lat="36.72967" lon="-3.95528">
        <ele>10.501342</ele>
        <time>2022-09-02T21:45:00.902Z</time>
      </trkpt>
      <trkpt lat="36.72967" lon="-3.95444">
        <ele>11.071198</ele>
        <time>2022-09-02T21:45:30.180Z</time>
      </trkpt>
      <trkpt lat="36.72957" lon="-3.95393">
        <ele>10.990094</ele>
        <time>2022-09-02T21:45:45.882Z</time>
      </trkpt>
      <trkpt lat="36.72962" lon="-3.95372">
        <ele>10.683827</ele>
        <time>2022-09-02T21:45:51.879Z</time>
      </trkpt>
      <trkpt lat="36.72977" lon="-3.95334">
        <ele>10.085565</ele>
        <time>2022-09-02T21:46:03.149Z</time>
      </trkpt>
      <trkpt lat="36.72982" lon="-3.9529">
        <ele>9.45226</ele>
        <time>2022-09-02T21:46:14.636Z</time>
      </trkpt>
      <trkpt lat="36.72996" lon="-3.9519">
        <ele>8.023139</ele>
        <time>2022-09-02T21:46:40.047Z</time>
      </trkpt>
      <trkpt lat="36.73027" lon="-3.95056">
        <ele>6.006441</ele>
        <time>2022-09-02T21:47:16.369Z</time>
      </trkpt>
      <trkpt lat="36.7302" lon="-3.95054">
        <ele>5.870589</ele>
        <time>2022-09-02T21:47:17.820Z</time>
      </trkpt>
      <trkpt lat="36.73022" lon="-3.95048">
        <ele>5.78782</ele>
        <time>2022-09-02T21:47:18.754Z</time>
      </trkpt>
      <trkpt lat="36.73035" lon="-3.94999">
        <ele>5.035624</ele>
        <time>2022-09-02T21:47:27.234Z</time>
      </trkpt>
      <trkpt lat="36.73047" lon="-3.94951">
        <ele>4.603035</ele>
        <time>2022-09-02T21:47:35.644Z</time>
      </trkpt>
      <trkpt lat="36.73066" lon="-3.9488">
        <ele>4.089709</ele>
        <time>2022-09-02T21:47:48.139Z</time>
      </trkpt>
      <trkpt lat="36.73079" lon="-3.94834">
        <ele>3.755739</ele>
        <time>2022-09-02T21:47:56.769Z</time>
      </trkpt>
      <trkpt lat="36.7309" lon="-3.94839">
        <ele>3.650521</ele>
        <time>2022-09-02T21:47:59.632Z</time>
      </trkpt>
      <trkpt lat="36.73098" lon="-3.94809">
        <ele>3.439782</ele>
        <time>2022-09-02T21:48:04.530Z</time>
      </trkpt>
      <trkpt lat="36.73118" lon="-3.94736">
        <ele>3.086997</ele>
        <time>2022-09-02T21:48:16.914Z</time>
      </trkpt>
      <trkpt lat="36.73135" lon="-3.94669">
        <ele>2.802033</ele>
        <time>2022-09-02T21:48:28.902Z</time>
      </trkpt>
      <trkpt lat="36.73159" lon="-3.94578">
        <ele>2.430761</ele>
        <time>2022-09-02T21:48:45.374Z</time>
      </trkpt>
      <trkpt lat="36.73227" lon="-3.94324">
        <ele>2.127996</ele>
        <time>2022-09-02T21:49:32.149Z</time>
      </trkpt>
      <trkpt lat="36.73232" lon="-3.94306">
        <ele>2.114407</ele>
        <time>2022-09-02T21:49:35.506Z</time>
      </trkpt>
      <trkpt lat="36.73241" lon="-3.94278">
        <ele>2.092947</ele>
        <time>2022-09-02T21:49:40.731Z</time>
      </trkpt>
      <trkpt lat="36.7325" lon="-3.94249">
        <ele>2.070727</ele>
        <time>2022-09-02T21:49:46.167Z</time>
      </trkpt>
      <trkpt lat="36.73256" lon="-3.94228">
        <ele>2.055275</ele>
        <time>2022-09-02T21:49:49.968Z</time>
      </trkpt>
      <trkpt lat="36.73391" lon="-3.93792">
        <ele>2.129448</ele>
        <time>2022-09-02T21:51:13.412Z</time>
      </trkpt>
      <trkpt lat="36.73419" lon="-3.93716">
        <ele>2.264081</ele>
        <time>2022-09-02T21:51:29.121Z</time>
      </trkpt>
      <trkpt lat="36.73453" lon="-3.93617">
        <ele>2.623999</ele>
        <time>2022-09-02T21:51:50.484Z</time>
      </trkpt>
      <trkpt lat="36.73487" lon="-3.93481">
        <ele>2.836421</ele>
        <time>2022-09-02T21:52:18.565Z</time>
      </trkpt>
      <trkpt lat="36.7351" lon="-3.93412">
        <ele>2.709008</ele>
        <time>2022-09-02T21:52:31.655Z</time>
      </trkpt>
      <trkpt lat="36.73515" lon="-3.93402">
        <ele>2.688453</ele>
        <time>2022-09-02T21:52:33.721Z</time>
      </trkpt>
      <trkpt lat="36.73525" lon="-3.93373">
        <ele>2.636449</ele>
        <time>2022-09-02T21:52:38.792Z</time>
      </trkpt>
      <trkpt lat="36.73544" lon="-3.93296">
        <ele>2.495771</ele>
        <time>2022-09-02T21:52:52.106Z</time>
      </trkpt>
      <trkpt lat="36.73561" lon="-3.93258">
        <ele>2.413671</ele>
        <time>2022-09-02T21:52:59.553Z</time>
      </trkpt>
      <trkpt lat="36.7361" lon="-3.93208">
        <ele>2.26722</ele>
        <time>2022-09-02T21:53:12.772Z</time>
      </trkpt>
      <trkpt lat="36.73631" lon="-3.93165">
        <ele>2.174977</ele>
        <time>2022-09-02T21:53:21.575Z</time>
      </trkpt>
      <trkpt lat="36.73648" lon="-3.9311">
        <ele>2.286815</ele>
        <time>2022-09-02T21:53:33.662Z</time>
      </trkpt>
      <trkpt lat="36.73678" lon="-3.92952">
        <ele>3.019138</ele>
        <time>2022-09-02T21:54:06.968Z</time>
      </trkpt>
      <trkpt lat="36.73708" lon="-3.92866">
        <ele>3.498933</ele>
        <time>2022-09-02T21:54:25.221Z</time>
      </trkpt>
      <trkpt lat="36.73721" lon="-3.92814">
        <ele>3.78866</ele>
        <time>2022-09-02T21:54:35.558Z</time>
      </trkpt>
      <trkpt lat="36.73738" lon="-3.92687">
        <ele>4.48127</ele>
        <time>2022-09-02T21:55:03.527Z</time>
      </trkpt>
      <trkpt lat="36.73758" lon="-3.92646">
        <ele>4.751697</ele>
        <time>2022-09-02T21:55:14.604Z</time>
      </trkpt>
      <trkpt lat="36.73782" lon="-3.9262">
        <ele>4.974983</ele>
        <time>2022-09-02T21:55:23.065Z</time>
      </trkpt>
      <trkpt lat="36.73841" lon="-3.92611">
        <ele>5.388826</ele>
        <time>2022-09-02T21:55:38.308Z</time>
      </trkpt>
      <trkpt lat="36.73887" lon="-3.92551">
        <ele>5.299858</ele>
        <time>2022-09-02T21:55:53.930Z</time>
      </trkpt>
      <trkpt lat="36.7388" lon="-3.92538">
        <ele>5.198435</ele>
        <time>2022-09-02T21:55:56.468Z</time>
      </trkpt>
      <trkpt lat="36.74065" lon="-3.92203">
        <ele>2.050695</ele>
        <time>2022-09-02T21:57:00.137Z</time>
      </trkpt>
      <trkpt lat="36.74092" lon="-3.9213">
        <ele>1.852414</ele>
        <time>2022-09-02T21:57:13.547Z</time>
      </trkpt>
      <trkpt lat="36.74095" lon="-3.9211">
        <ele>1.802743</ele>
        <time>2022-09-02T21:57:16.591Z</time>
      </trkpt>
      <trkpt lat="36.74103" lon="-3.92064">
        <ele>1.685136</ele>
        <time>2022-09-02T21:57:24.989Z</time>
      </trkpt>
      <trkpt lat="36.74127" lon="-3.9168">
        <ele>3.271535</ele>
        <time>2022-09-02T21:58:44.376Z</time>
      </trkpt>
      <trkpt lat="36.74141" lon="-3.91606">
        <ele>3.666805</ele>
        <time>2022-09-02T21:58:59.698Z</time>
      </trkpt>
      <trkpt lat="36.74206" lon="-3.91427">
        <ele>4.608405</ele>
        <time>2022-09-02T21:59:39.047Z</time>
      </trkpt>
      <trkpt lat="36.74277" lon="-3.91312">
        <ele>5.473802</ele>
        <time>2022-09-02T22:00:08.361Z</time>
      </trkpt>
      <trkpt lat="36.74286" lon="-3.91286">
        <ele>5.679233</ele>
        <time>2022-09-02T22:00:14.170Z</time>
      </trkpt>
      <trkpt lat="36.74253" lon="-3.91147">
        <ele>6.86033</ele>
        <time>2022-09-02T22:00:46.384Z</time>
      </trkpt>
      <trkpt lat="36.74256" lon="-3.91108">
        <ele>7.385418</ele>
        <time>2022-09-02T22:00:56.203Z</time>
      </trkpt>
      <trkpt lat="36.74271" lon="-3.91066">
        <ele>7.997505</ele>
        <time>2022-09-02T22:01:06.073Z</time>
      </trkpt>
      <trkpt lat="36.74273" lon="-3.91017">
        <ele>8.663602</ele>
        <time>2022-09-02T22:01:18.741Z</time>
      </trkpt>
      <trkpt lat="36.74275" lon="-3.90944">
        <ele>9.620412</ele>
        <time>2022-09-02T22:01:38.305Z</time>
      </trkpt>
      <trkpt lat="36.74284" lon="-3.90891">
        <ele>10.19901</ele>
        <time>2022-09-02T22:01:52.137Z</time>
      </trkpt>
      <trkpt lat="36.74288" lon="-3.90875">
        <ele>10.368464</ele>
        <time>2022-09-02T22:01:56.560Z</time>
      </trkpt>
      <trkpt lat="36.74294" lon="-3.90878">
        <ele>10.447947</ele>
        <time>2022-09-02T22:01:59.170Z</time>
      </trkpt>
      <trkpt lat="36.74295" lon="-3.90874">
        <ele>10.48471</ele>
        <time>2022-09-02T22:01:59.823Z</time>
      </trkpt>
      <trkpt lat="36.74303" lon="-3.90838">
        <ele>10.878049</ele>
        <time>2022-09-02T22:02:08.961Z</time>
      </trkpt>
      <trkpt lat="36.74304" lon="-3.90791">
        <ele>11.379296</ele>
        <time>2022-09-02T22:02:19.430Z</time>
      </trkpt>
      <trkpt lat="36.74303" lon="-3.9077">
        <ele>11.598914</ele>
        <time>2022-09-02T22:02:22.846Z</time>
      </trkpt>
      <trkpt lat="36.74315" lon="-3.90755">
        <ele>11.818546</ele>
        <time>2022-09-02T22:02:27.820Z</time>
      </trkpt>
      <trkpt lat="36.74343" lon="-3.90705">
        <ele>11.393675</ele>
        <time>2022-09-02T22:02:39.070Z</time>
      </trkpt>
      <trkpt lat="36.74348" lon="-3.90684">
        <ele>11.153477</ele>
        <time>2022-09-02T22:02:42.848Z</time>
      </trkpt>
      <trkpt lat="36.74351" lon="-3.90637">
        <ele>10.638197</ele>
        <time>2022-09-02T22:02:49.774Z</time>
      </trkpt>
      <trkpt lat="36.74343" lon="-3.90536">
        <ele>9.526421</ele>
        <time>2022-09-02T22:03:04.389Z</time>
      </trkpt>
      <trkpt lat="36.74353" lon="-3.90483">
        <ele>8.778568</ele>
        <time>2022-09-02T22:03:12.285Z</time>
      </trkpt>
      <trkpt lat="36.74357" lon="-3.90466">
        <ele>8.522368</ele>
        <time>2022-09-02T22:03:14.963Z</time>
      </trkpt>
      <trkpt lat="36.74355" lon="-3.90444">
        <ele>8.204107</ele>
        <time>2022-09-02T22:03:18.249Z</time>
      </trkpt>
      <trkpt lat="36.74359" lon="-3.90426">
        <ele>7.941436</ele>
        <time>2022-09-02T22:03:21.012Z</time>
      </trkpt>
      <trkpt lat="36.74392" lon="-3.90378">
        <ele>7.049503</ele>
        <time>2022-09-02T22:03:30.458Z</time>
      </trkpt>
      <trkpt lat="36.74406" lon="-3.90368">
        <ele>6.768129</ele>
        <time>2022-09-02T22:03:33.325Z</time>
      </trkpt>
      <trkpt lat="36.74412" lon="-3.90362">
        <ele>6.629089</ele>
        <time>2022-09-02T22:03:34.858Z</time>
      </trkpt>
      <trkpt lat="36.74423" lon="-3.90361">
        <ele>6.424315</ele>
        <time>2022-09-02T22:03:37.103Z</time>
      </trkpt>
      <trkpt lat="36.74436" lon="-3.90357">
        <ele>6.279832</ele>
        <time>2022-09-02T22:03:39.588Z</time>
      </trkpt>
      <trkpt lat="36.74454" lon="-3.90333">
        <ele>6.155068</ele>
        <time>2022-09-02T22:03:45.045Z</time>
      </trkpt>
      <trkpt lat="36.74475" lon="-3.90277">
        <ele>5.923437</ele>
        <time>2022-09-02T22:03:56.121Z</time>
      </trkpt>
      <trkpt lat="36.74481" lon="-3.90234">
        <ele>5.759026</ele>
        <time>2022-09-02T22:04:04.083Z</time>
      </trkpt>
      <trkpt lat="36.74502" lon="-3.90107">
        <ele>5.130015</ele>
        <time>2022-09-02T22:04:25.922Z</time>
      </trkpt>
      <trkpt lat="36.74507" lon="-3.90077">
        <ele>4.939418</ele>
        <time>2022-09-02T22:04:30.800Z</time>
      </trkpt>
      <trkpt lat="36.74523" lon="-3.89988">
        <ele>4.356625</ele>
        <time>2022-09-02T22:04:45.295Z</time>
      </trkpt>
      <trkpt lat="36.74524" lon="-3.89981">
        <ele>4.308636</ele>
        <time>2022-09-02T22:04:46.471Z</time>
      </trkpt>
      <trkpt lat="36.74526" lon="-3.89968">
        <ele>4.22887</ele>
        <time>2022-09-02T22:04:48.428Z</time>
      </trkpt>
      <trkpt lat="36.74542" lon="-3.89872">
        <ele>4.252571</ele>
        <time>2022-09-02T22:05:04.774Z</time>
      </trkpt>
      <trkpt lat="36.74554" lon="-3.898">
        <ele>4.485933</ele>
        <time>2022-09-02T22:05:18.354Z</time>
      </trkpt>
      <trkpt lat="36.74555" lon="-3.89795">
        <ele>4.502128</ele>
        <time>2022-09-02T22:05:19.310Z</time>
      </trkpt>
      <trkpt lat="36.74556" lon="-3.8979">
        <ele>4.516149</ele>
        <time>2022-09-02T22:05:20.190Z</time>
      </trkpt>
      <trkpt lat="36.7456" lon="-3.89766">
        <ele>4.595027</ele>
        <time>2022-09-02T22:05:25.529Z</time>
      </trkpt>
      <trkpt lat="36.74603" lon="-3.89508">
        <ele>8.023894</ele>
        <time>2022-09-02T22:06:32.894Z</time>
      </trkpt>
      <trkpt lat="36.74625" lon="-3.8938">
        <ele>10.016251</ele>
        <time>2022-09-02T22:07:06.670Z</time>
      </trkpt>
      <trkpt lat="36.7463" lon="-3.89348">
        <ele>10.517703</ele>
        <time>2022-09-02T22:07:14.925Z</time>
      </trkpt>
      <trkpt lat="36.74633" lon="-3.8933">
        <ele>10.801739</ele>
        <time>2022-09-02T22:07:19.555Z</time>
      </trkpt>
      <trkpt lat="36.74658" lon="-3.89188">
        <ele>12.801919</ele>
        <time>2022-09-02T22:07:55.670Z</time>
      </trkpt>
      <trkpt lat="36.74667" lon="-3.8913">
        <ele>13.573269</ele>
        <time>2022-09-02T22:08:10.246Z</time>
      </trkpt>
      <trkpt lat="36.74671" lon="-3.89106">
        <ele>13.889852</ele>
        <time>2022-09-02T22:08:16.302Z</time>
      </trkpt>
      <trkpt lat="36.7468" lon="-3.89043">
        <ele>14.568342</ele>
        <time>2022-09-02T22:08:31.869Z</time>
      </trkpt>
      <trkpt lat="36.74709" lon="-3.8887">
        <ele>15.366319</ele>
        <time>2022-09-02T22:09:07.866Z</time>
      </trkpt>
      <trkpt lat="36.74704" lon="-3.88869">
        <ele>15.396475</ele>
        <time>2022-09-02T22:09:09.057Z</time>
      </trkpt>
      <trkpt lat="36.74671" lon="-3.8886">
        <ele>15.414166</ele>
        <time>2022-09-02T22:09:16.369Z</time>
      </trkpt>
      <trkpt lat="36.74641" lon="-3.88859">
        <ele>15.209968</ele>
        <time>2022-09-02T22:09:22.820Z</time>
      </trkpt>
      <trkpt lat="36.74622" lon="-3.88818">
        <ele>14.949674</ele>
        <time>2022-09-02T22:09:30.864Z</time>
      </trkpt>
      <trkpt lat="36.74579" lon="-3.88767">
        <ele>14.545807</ele>
        <time>2022-09-02T22:09:42.994Z</time>
      </trkpt>
      <trkpt lat="36.74566" lon="-3.88735">
        <ele>14.351778</ele>
        <time>2022-09-02T22:09:48.902Z</time>
      </trkpt>
      <trkpt lat="36.74473" lon="-3.88666">
        <ele>14.481976</ele>
        <time>2022-09-02T22:10:15.152Z</time>
      </trkpt>
      <trkpt lat="36.7447" lon="-3.88648">
        <ele>14.509928</ele>
        <time>2022-09-02T22:10:18.660Z</time>
      </trkpt>
      <trkpt lat="36.74473" lon="-3.8864">
        <ele>14.523977</ele>
        <time>2022-09-02T22:10:20.647Z</time>
      </trkpt>
      <trkpt lat="36.74484" lon="-3.8863">
        <ele>14.550678</ele>
        <time>2022-09-02T22:10:23.996Z</time>
      </trkpt>
      <trkpt lat="36.74485" lon="-3.88625">
        <ele>14.558782</ele>
        <time>2022-09-02T22:10:24.905Z</time>
      </trkpt>
      <trkpt lat="36.74488" lon="-3.88612">
        <ele>14.581077</ele>
        <time>2022-09-02T22:10:27.698Z</time>
      </trkpt>
      <trkpt lat="36.7449" lon="-3.88603">
        <ele>14.595608</ele>
        <time>2022-09-02T22:10:29.718Z</time>
      </trkpt>
      <trkpt lat="36.74486" lon="-3.88572">
        <ele>14.645507</ele>
        <time>2022-09-02T22:10:35.570Z</time>
      </trkpt>
      <trkpt lat="36.74483" lon="-3.88561">
        <ele>14.682465</ele>
        <time>2022-09-02T22:10:38.109Z</time>
      </trkpt>
      <trkpt lat="36.74456" lon="-3.88542">
        <ele>14.803196</ele>
        <time>2022-09-02T22:10:45.121Z</time>
      </trkpt>
      <trkpt lat="36.74449" lon="-3.88518">
        <ele>14.883873</ele>
        <time>2022-09-02T22:10:50.129Z</time>
      </trkpt>
      <trkpt lat="36.74444" lon="-3.88521">
        <ele>14.904338</ele>
        <time>2022-09-02T22:10:51.254Z</time>
      </trkpt>
      <trkpt lat="36.74408" lon="-3.88541">
        <ele>15.061507</ele>
        <time>2022-09-02T22:11:01.165Z</time>
      </trkpt>
      <trkpt lat="36.74364" lon="-3.88564">
        <ele>15.250083</ele>
        <time>2022-09-02T22:11:13.769Z</time>
      </trkpt>
      <trkpt lat="36.74322" lon="-3.88588">
        <ele>15.262538</ele>
        <time>2022-09-02T22:11:24.315Z</time>
      </trkpt>
      <trkpt lat="36.74316" lon="-3.88546">
        <ele>15.097437</ele>
        <time>2022-09-02T22:11:31.560Z</time>
      </trkpt>
      <trkpt lat="36.74309" lon="-3.88507">
        <ele>14.946627</ele>
        <time>2022-09-02T22:11:38.139Z</time>
      </trkpt>
      <trkpt lat="36.74307" lon="-3.88492">
        <ele>14.887589</ele>
        <time>2022-09-02T22:11:40.555Z</time>
      </trkpt>
      <trkpt lat="36.74302" lon="-3.88464">
        <ele>14.775002</ele>
        <time>2022-09-02T22:11:45.366Z</time>
      </trkpt>
      <trkpt lat="36.743" lon="-3.88427">
        <ele>14.633342</ele>
        <time>2022-09-02T22:11:51.239Z</time>
      </trkpt>
      <trkpt lat="36.74301" lon="-3.88403">
        <ele>14.538246</ele>
        <time>2022-09-02T22:11:55.185Z</time>
      </trkpt>
      <trkpt lat="36.74302" lon="-3.8839">
        <ele>14.489823</ele>
        <time>2022-09-02T22:11:57.366Z</time>
      </trkpt>
      <trkpt lat="36.74311" lon="-3.88343">
        <ele>14.489823</ele>
        <time>2022-09-02T22:12:05.272Z</time>
      </trkpt>
      <trkpt lat="36.74314" lon="-3.88329">
        <ele>14.489823</ele>
        <time>2022-09-02T22:12:07.800Z</time>
      </trkpt>
      <trkpt lat="36.74316" lon="-3.88313">
        <ele>14.489823</ele>
        <time>2022-09-02T22:12:10.257Z</time>
      </trkpt>
      <trkpt lat="36.74307" lon="-3.8828">
        <ele>14.489823</ele>
        <time>2022-09-02T22:12:15.805Z</time>
      </trkpt>
      <trkpt lat="36.743" lon="-3.88264">
        <ele>14.489823</ele>
        <time>2022-09-02T22:12:18.545Z</time>
      </trkpt>
    </trkseg>
  </trk>
</gpx>